<?xml version='1.0' encoding='UTF-8'?><gpx version="1.1" creator="JPX - https://github.com/jenetics/jpx" xmlns="http://www.topografix.com/GPX/1/1"><trk><trkseg><trkpt lat="43.9014833" lon="11.1100133"><ele>74.0</ele><time>2026-03-22T07:12:44.394Z</time></trkpt><trkpt lat="43.9014417" lon="11.1100833"><ele>74.0</ele><time>2026-03-22T07:12:53.394Z</time></trkpt><trkpt lat="43.9015133" lon="11.1101217"><ele>74.0</ele><time>2026-03-22T07:15:04.394Z</time></trkpt><trkpt lat="43.9018074" lon="11.110518"><ele>74.0</ele><time>2026-03-22T07:24:54.394Z</time></trkpt><trkpt lat="43.9018717" lon="11.110616"><ele>74.0</ele><time>2026-03-22T07:24:55.394Z</time></trkpt><trkpt lat="43.9019346" lon="11.1107136"><ele>74.0</ele><time>2026-03-22T07:24:56.394Z</time></trkpt><trkpt lat="43.9020056" lon="11.1108153"><ele>74.0</ele><time>2026-03-22T07:24:57.394Z</time></trkpt><trkpt lat="43.9020832" lon="11.1109263"><ele>74.0</ele><time>2026-03-22T07:24:58.393Z</time></trkpt><trkpt lat="43.9021634" lon="11.1110456"><ele>74.0</ele><time>2026-03-22T07:24:59.393Z</time></trkpt><trkpt lat="43.902245" lon="11.1111698"><ele>74.0</ele><time>2026-03-22T07:25:00.393Z</time></trkpt><trkpt lat="43.9023301" lon="11.111291"><ele>74.0</ele><time>2026-03-22T07:25:01.393Z</time></trkpt><trkpt lat="43.9024161" lon="11.1114147"><ele>74.0</ele><time>2026-03-22T07:25:02.393Z</time></trkpt><trkpt lat="43.9025032" lon="11.1115452"><ele>74.25</ele><time>2026-03-22T07:25:03.393Z</time></trkpt><trkpt lat="43.9025933" lon="11.11168"><ele>74.5</ele><time>2026-03-22T07:25:04.393Z</time></trkpt><trkpt lat="43.902685" lon="11.11181"><ele>74.75</ele><time>2026-03-22T07:25:05.394Z</time></trkpt><trkpt lat="43.9027817" lon="11.1119433"><ele>75.0</ele><time>2026-03-22T07:25:06.393Z</time></trkpt><trkpt lat="43.9028733" lon="11.1120733"><ele>75.0</ele><time>2026-03-22T07:25:07.394Z</time></trkpt><trkpt lat="43.9029617" lon="11.112205"><ele>75.0</ele><time>2026-03-22T07:25:08.393Z</time></trkpt><trkpt lat="43.9030533" lon="11.1123367"><ele>75.0</ele><time>2026-03-22T07:25:09.393Z</time></trkpt><trkpt lat="43.9031433" lon="11.11247"><ele>75.0</ele><time>2026-03-22T07:25:10.393Z</time></trkpt><trkpt lat="43.9032367" lon="11.1125967"><ele>75.0</ele><time>2026-03-22T07:25:11.394Z</time></trkpt><trkpt lat="43.903325" lon="11.1127183"><ele>75.0</ele><time>2026-03-22T07:25:12.393Z</time></trkpt><trkpt lat="43.9034017" lon="11.112835"><ele>75.0</ele><time>2026-03-22T07:25:13.393Z</time></trkpt><trkpt lat="43.9034667" lon="11.112935"><ele>75.0</ele><time>2026-03-22T07:25:14.394Z</time></trkpt><trkpt lat="43.9035233" lon="11.1130117"><ele>75.0</ele><time>2026-03-22T07:25:15.393Z</time></trkpt><trkpt lat="43.90358" lon="11.113065"><ele>75.2</ele><time>2026-03-22T07:25:16.393Z</time></trkpt><trkpt lat="43.903645" lon="11.1130933"><ele>75.4</ele><time>2026-03-22T07:25:17.393Z</time></trkpt><trkpt lat="43.9037233" lon="11.1130633"><ele>75.6</ele><time>2026-03-22T07:25:18.394Z</time></trkpt><trkpt lat="43.9038067" lon="11.11302"><ele>75.8</ele><time>2026-03-22T07:25:19.393Z</time></trkpt><trkpt lat="43.9039067" lon="11.11296"><ele>76.0</ele><time>2026-03-22T07:25:20.394Z</time></trkpt><trkpt lat="43.90401" lon="11.1128967"><ele>76.0</ele><time>2026-03-22T07:25:21.394Z</time></trkpt><trkpt lat="43.904115" lon="11.1128283"><ele>76.0</ele><time>2026-03-22T07:25:22.393Z</time></trkpt><trkpt lat="43.90422" lon="11.11276"><ele>76.0</ele><time>2026-03-22T07:25:23.393Z</time></trkpt><trkpt lat="43.9043217" lon="11.11268"><ele>76.0</ele><time>2026-03-22T07:25:24.394Z</time></trkpt><trkpt lat="43.9044233" lon="11.1126083"><ele>76.6</ele><time>2026-03-22T07:25:25.394Z</time></trkpt><trkpt lat="43.9045217" lon="11.1125383"><ele>77.19999999999999</ele><time>2026-03-22T07:25:26.394Z</time></trkpt><trkpt lat="43.9046167" lon="11.1124683"><ele>77.80000000000001</ele><time>2026-03-22T07:25:27.393Z</time></trkpt><trkpt lat="43.90471" lon="11.1123983"><ele>78.4</ele><time>2026-03-22T07:25:28.394Z</time></trkpt><trkpt lat="43.9048" lon="11.1123283"><ele>79.0</ele><time>2026-03-22T07:25:29.394Z</time></trkpt><trkpt lat="43.90489" lon="11.112265"><ele>79.0</ele><time>2026-03-22T07:25:30.393Z</time></trkpt><trkpt lat="43.9049767" lon="11.1122033"><ele>79.0</ele><time>2026-03-22T07:25:31.393Z</time></trkpt><trkpt lat="43.9050683" lon="11.11214"><ele>79.0</ele><time>2026-03-22T07:25:32.394Z</time></trkpt><trkpt lat="43.90516" lon="11.112075"><ele>79.0</ele><time>2026-03-22T07:25:33.393Z</time></trkpt><trkpt lat="43.9052467" lon="11.1120117"><ele>79.0</ele><time>2026-03-22T07:25:34.394Z</time></trkpt><trkpt lat="43.905325" lon="11.1119517"><ele>79.33333333333333</ele><time>2026-03-22T07:25:35.393Z</time></trkpt><trkpt lat="43.905405" lon="11.1118867"><ele>79.66666666666666</ele><time>2026-03-22T07:25:36.393Z</time></trkpt><trkpt lat="43.9054867" lon="11.111835"><ele>80.0</ele><time>2026-03-22T07:25:37.394Z</time></trkpt><trkpt lat="43.90556" lon="11.1117933"><ele>80.33333333333333</ele><time>2026-03-22T07:25:38.394Z</time></trkpt><trkpt lat="43.9056217" lon="11.1117617"><ele>80.66666666666667</ele><time>2026-03-22T07:25:39.394Z</time></trkpt><trkpt lat="43.9057017" lon="11.1117167"><ele>81.0</ele><time>2026-03-22T07:25:41.393Z</time></trkpt><trkpt lat="43.9057717" lon="11.1117083"><ele>81.0</ele><time>2026-03-22T07:25:44.394Z</time></trkpt><trkpt lat="43.9058217" lon="11.1115867"><ele>81.0</ele><time>2026-03-22T07:25:47.394Z</time></trkpt><trkpt lat="43.9057667" lon="11.11139"><ele>81.0</ele><time>2026-03-22T07:25:49.394Z</time></trkpt><trkpt lat="43.9057167" lon="11.1112467"><ele>81.0</ele><time>2026-03-22T07:25:50.394Z</time></trkpt><trkpt lat="43.90568" lon="11.1111033"><ele>81.0</ele><time>2026-03-22T07:25:51.393Z</time></trkpt><trkpt lat="43.9056417" lon="11.1109433"><ele>81.0</ele><time>2026-03-22T07:25:52.394Z</time></trkpt><trkpt lat="43.9056017" lon="11.1107833"><ele>81.0</ele><time>2026-03-22T07:25:53.393Z</time></trkpt><trkpt lat="43.9055617" lon="11.110625"><ele>81.0</ele><time>2026-03-22T07:25:54.393Z</time></trkpt><trkpt lat="43.9055183" lon="11.110465"><ele>80.75</ele><time>2026-03-22T07:25:55.393Z</time></trkpt><trkpt lat="43.9054733" lon="11.1103033"><ele>80.5</ele><time>2026-03-22T07:25:56.393Z</time></trkpt><trkpt lat="43.905425" lon="11.110145"><ele>80.25</ele><time>2026-03-22T07:25:57.393Z</time></trkpt><trkpt lat="43.905375" lon="11.1099933"><ele>80.0</ele><time>2026-03-22T07:25:58.393Z</time></trkpt><trkpt lat="43.90532" lon="11.1098467"><ele>79.8</ele><time>2026-03-22T07:25:59.393Z</time></trkpt><trkpt lat="43.9052567" lon="11.1097"><ele>79.6</ele><time>2026-03-22T07:26:00.393Z</time></trkpt><trkpt lat="43.9051967" lon="11.109575"><ele>79.4</ele><time>2026-03-22T07:26:01.394Z</time></trkpt><trkpt lat="43.9051483" lon="11.109465"><ele>79.2</ele><time>2026-03-22T07:26:02.394Z</time></trkpt><trkpt lat="43.9051083" lon="11.1093717"><ele>79.0</ele><time>2026-03-22T07:26:03.394Z</time></trkpt><trkpt lat="43.90507" lon="11.1092883"><ele>79.0</ele><time>2026-03-22T07:26:04.394Z</time></trkpt><trkpt lat="43.9050133" lon="11.109195"><ele>79.0</ele><time>2026-03-22T07:26:06.394Z</time></trkpt><trkpt lat="43.9049817" lon="11.1090033"><ele>79.0</ele><time>2026-03-22T07:26:10.393Z</time></trkpt><trkpt lat="43.9049517" lon="11.108885"><ele>79.0</ele><time>2026-03-22T07:26:12.393Z</time></trkpt><trkpt lat="43.9049317" lon="11.1087533"><ele>79.0</ele><time>2026-03-22T07:26:14.394Z</time></trkpt><trkpt lat="43.9049467" lon="11.10861"><ele>79.16666666666666</ele><time>2026-03-22T07:26:16.393Z</time></trkpt><trkpt lat="43.90498" lon="11.1085317"><ele>79.33333333333333</ele><time>2026-03-22T07:26:17.394Z</time></trkpt><trkpt lat="43.9050217" lon="11.1084433"><ele>79.5</ele><time>2026-03-22T07:26:18.394Z</time></trkpt><trkpt lat="43.9050733" lon="11.10834"><ele>79.66666666666667</ele><time>2026-03-22T07:26:19.393Z</time></trkpt><trkpt lat="43.9051317" lon="11.10823"><ele>79.83333333333334</ele><time>2026-03-22T07:26:20.394Z</time></trkpt><trkpt lat="43.9051933" lon="11.1081"><ele>80.0</ele><time>2026-03-22T07:26:21.394Z</time></trkpt><trkpt lat="43.9052617" lon="11.1079883"><ele>81.4</ele><time>2026-03-22T07:26:22.393Z</time></trkpt><trkpt lat="43.90533" lon="11.1078583"><ele>82.8</ele><time>2026-03-22T07:26:23.394Z</time></trkpt><trkpt lat="43.9054017" lon="11.107735"><ele>84.19999999999999</ele><time>2026-03-22T07:26:24.393Z</time></trkpt><trkpt lat="43.9054817" lon="11.107635"><ele>85.6</ele><time>2026-03-22T07:26:25.393Z</time></trkpt><trkpt lat="43.9055633" lon="11.1075617"><ele>87.0</ele><time>2026-03-22T07:26:26.393Z</time></trkpt><trkpt lat="43.9056367" lon="11.10749"><ele>87.0</ele><time>2026-03-22T07:26:27.393Z</time></trkpt><trkpt lat="43.9056933" lon="11.1074117"><ele>87.0</ele><time>2026-03-22T07:26:28.393Z</time></trkpt><trkpt lat="43.905735" lon="11.1073233"><ele>87.0</ele><time>2026-03-22T07:26:29.393Z</time></trkpt><trkpt lat="43.90577" lon="11.1072367"><ele>87.0</ele><time>2026-03-22T07:26:30.393Z</time></trkpt><trkpt lat="43.9057733" lon="11.1071217"><ele>87.0</ele><time>2026-03-22T07:26:31.394Z</time></trkpt><trkpt lat="43.905755" lon="11.1069917"><ele>87.0</ele><time>2026-03-22T07:26:32.393Z</time></trkpt><trkpt lat="43.9057067" lon="11.1068367"><ele>86.75</ele><time>2026-03-22T07:26:33.394Z</time></trkpt><trkpt lat="43.9056233" lon="11.10668"><ele>86.5</ele><time>2026-03-22T07:26:34.393Z</time></trkpt><trkpt lat="43.9055517" lon="11.106535"><ele>86.25</ele><time>2026-03-22T07:26:35.394Z</time></trkpt><trkpt lat="43.9054717" lon="11.1063933"><ele>86.0</ele><time>2026-03-22T07:26:36.393Z</time></trkpt><trkpt lat="43.90538" lon="11.1062567"><ele>86.0</ele><time>2026-03-22T07:26:37.393Z</time></trkpt><trkpt lat="43.9052783" lon="11.1061233"><ele>86.0</ele><time>2026-03-22T07:26:38.393Z</time></trkpt><trkpt lat="43.9051683" lon="11.1059967"><ele>86.0</ele><time>2026-03-22T07:26:39.393Z</time></trkpt><trkpt lat="43.90506" lon="11.1058733"><ele>86.0</ele><time>2026-03-22T07:26:40.394Z</time></trkpt><trkpt lat="43.9049383" lon="11.1057583"><ele>89.25</ele><time>2026-03-22T07:26:41.394Z</time></trkpt><trkpt lat="43.90482" lon="11.1056417"><ele>92.5</ele><time>2026-03-22T07:26:42.394Z</time></trkpt><trkpt lat="43.904695" lon="11.1055283"><ele>95.75</ele><time>2026-03-22T07:26:43.393Z</time></trkpt><trkpt lat="43.904565" lon="11.1054117"><ele>99.0</ele><time>2026-03-22T07:26:44.394Z</time></trkpt><trkpt lat="43.9044367" lon="11.1052933"><ele>99.0</ele><time>2026-03-22T07:26:45.394Z</time></trkpt><trkpt lat="43.9043117" lon="11.1051733"><ele>99.0</ele><time>2026-03-22T07:26:46.393Z</time></trkpt><trkpt lat="43.9041883" lon="11.1050533"><ele>99.0</ele><time>2026-03-22T07:26:47.394Z</time></trkpt><trkpt lat="43.904065" lon="11.1049333"><ele>99.0</ele><time>2026-03-22T07:26:48.393Z</time></trkpt><trkpt lat="43.9039383" lon="11.10482"><ele>99.0</ele><time>2026-03-22T07:26:49.394Z</time></trkpt><trkpt lat="43.903815" lon="11.1047033"><ele>99.0</ele><time>2026-03-22T07:26:50.393Z</time></trkpt><trkpt lat="43.9036917" lon="11.1045817"><ele>99.0</ele><time>2026-03-22T07:26:51.394Z</time></trkpt><trkpt lat="43.9035683" lon="11.104455"><ele>99.0</ele><time>2026-03-22T07:26:52.393Z</time></trkpt><trkpt lat="43.9034483" lon="11.10433"><ele>99.0</ele><time>2026-03-22T07:26:53.394Z</time></trkpt><trkpt lat="43.9033267" lon="11.1042017"><ele>94.66666666666667</ele><time>2026-03-22T07:26:54.393Z</time></trkpt><trkpt lat="43.9032133" lon="11.104065"><ele>90.33333333333334</ele><time>2026-03-22T07:26:55.394Z</time></trkpt><trkpt lat="43.903105" lon="11.1039183"><ele>86.0</ele><time>2026-03-22T07:26:56.394Z</time></trkpt><trkpt lat="43.9029983" lon="11.103765"><ele>86.0</ele><time>2026-03-22T07:26:57.393Z</time></trkpt><trkpt lat="43.902895" lon="11.1036033"><ele>86.0</ele><time>2026-03-22T07:26:58.393Z</time></trkpt><trkpt lat="43.9027983" lon="11.1034383"><ele>86.0</ele><time>2026-03-22T07:26:59.394Z</time></trkpt><trkpt lat="43.9027133" lon="11.1032767"><ele>85.5</ele><time>2026-03-22T07:27:00.394Z</time></trkpt><trkpt lat="43.902635" lon="11.103115"><ele>85.0</ele><time>2026-03-22T07:27:01.393Z</time></trkpt><trkpt lat="43.9025617" lon="11.10295"><ele>84.5</ele><time>2026-03-22T07:27:02.394Z</time></trkpt><trkpt lat="43.90249" lon="11.1027767"><ele>84.0</ele><time>2026-03-22T07:27:03.393Z</time></trkpt><trkpt lat="43.902425" lon="11.1026033"><ele>81.5</ele><time>2026-03-22T07:27:04.394Z</time></trkpt><trkpt lat="43.9023683" lon="11.102425"><ele>79.0</ele><time>2026-03-22T07:27:05.393Z</time></trkpt><trkpt lat="43.9023133" lon="11.102245"><ele>76.5</ele><time>2026-03-22T07:27:06.393Z</time></trkpt><trkpt lat="43.9022617" lon="11.1020633"><ele>74.0</ele><time>2026-03-22T07:27:07.393Z</time></trkpt><trkpt lat="43.9022167" lon="11.1018783"><ele>74.0</ele><time>2026-03-22T07:27:08.393Z</time></trkpt><trkpt lat="43.9021767" lon="11.101695"><ele>74.0</ele><time>2026-03-22T07:27:09.394Z</time></trkpt><trkpt lat="43.9021417" lon="11.101515"><ele>74.0</ele><time>2026-03-22T07:27:10.394Z</time></trkpt><trkpt lat="43.9021133" lon="11.1013417"><ele>74.0</ele><time>2026-03-22T07:27:11.393Z</time></trkpt><trkpt lat="43.90209" lon="11.1011733"><ele>74.0</ele><time>2026-03-22T07:27:12.393Z</time></trkpt><trkpt lat="43.9020667" lon="11.1010133"><ele>74.0</ele><time>2026-03-22T07:27:13.393Z</time></trkpt><trkpt lat="43.9020367" lon="11.1008583"><ele>74.0</ele><time>2026-03-22T07:27:14.394Z</time></trkpt><trkpt lat="43.9020083" lon="11.1007017"><ele>74.0</ele><time>2026-03-22T07:27:15.393Z</time></trkpt><trkpt lat="43.9019917" lon="11.10054"><ele>74.0</ele><time>2026-03-22T07:27:16.393Z</time></trkpt><trkpt lat="43.9019883" lon="11.1003717"><ele>74.0</ele><time>2026-03-22T07:27:17.394Z</time></trkpt><trkpt lat="43.9019883" lon="11.1002033"><ele>74.0</ele><time>2026-03-22T07:27:18.394Z</time></trkpt><trkpt lat="43.9019883" lon="11.1000317"><ele>74.0</ele><time>2026-03-22T07:27:19.393Z</time></trkpt><trkpt lat="43.9019983" lon="11.09986"><ele>74.5</ele><time>2026-03-22T07:27:20.393Z</time></trkpt><trkpt lat="43.902025" lon="11.0996917"><ele>75.0</ele><time>2026-03-22T07:27:21.394Z</time></trkpt><trkpt lat="43.9020733" lon="11.0995283"><ele>75.5</ele><time>2026-03-22T07:27:22.394Z</time></trkpt><trkpt lat="43.902135" lon="11.099375"><ele>76.0</ele><time>2026-03-22T07:27:23.394Z</time></trkpt><trkpt lat="43.9022033" lon="11.099225"><ele>75.75</ele><time>2026-03-22T07:27:24.394Z</time></trkpt><trkpt lat="43.9022717" lon="11.0990767"><ele>75.5</ele><time>2026-03-22T07:27:25.393Z</time></trkpt><trkpt lat="43.90234" lon="11.098935"><ele>75.25</ele><time>2026-03-22T07:27:26.394Z</time></trkpt><trkpt lat="43.9024067" lon="11.098795"><ele>75.0</ele><time>2026-03-22T07:27:27.393Z</time></trkpt><trkpt lat="43.90247" lon="11.0986567"><ele>75.0</ele><time>2026-03-22T07:27:28.393Z</time></trkpt><trkpt lat="43.9025333" lon="11.0985217"><ele>75.0</ele><time>2026-03-22T07:27:29.393Z</time></trkpt><trkpt lat="43.9025983" lon="11.098385"><ele>75.0</ele><time>2026-03-22T07:27:30.394Z</time></trkpt><trkpt lat="43.902665" lon="11.0982517"><ele>75.0</ele><time>2026-03-22T07:27:31.394Z</time></trkpt><trkpt lat="43.902735" lon="11.0981217"><ele>75.25</ele><time>2026-03-22T07:27:32.393Z</time></trkpt><trkpt lat="43.9028033" lon="11.0979933"><ele>75.5</ele><time>2026-03-22T07:27:33.394Z</time></trkpt><trkpt lat="43.90287" lon="11.0978633"><ele>75.75</ele><time>2026-03-22T07:27:34.393Z</time></trkpt><trkpt lat="43.9029367" lon="11.09773"><ele>76.0</ele><time>2026-03-22T07:27:35.392Z</time></trkpt><trkpt lat="43.903" lon="11.0976017"><ele>76.0</ele><time>2026-03-22T07:27:36.393Z</time></trkpt><trkpt lat="43.90307" lon="11.0974783"><ele>76.0</ele><time>2026-03-22T07:27:37.393Z</time></trkpt><trkpt lat="43.9031517" lon="11.0973667"><ele>76.0</ele><time>2026-03-22T07:27:38.393Z</time></trkpt><trkpt lat="43.9032467" lon="11.0972667"><ele>76.0</ele><time>2026-03-22T07:27:39.393Z</time></trkpt><trkpt lat="43.90335" lon="11.0971767"><ele>76.0</ele><time>2026-03-22T07:27:40.392Z</time></trkpt><trkpt lat="43.90346" lon="11.0970933"><ele>76.0</ele><time>2026-03-22T07:27:41.393Z</time></trkpt><trkpt lat="43.9035717" lon="11.0970233"><ele>76.0</ele><time>2026-03-22T07:27:42.393Z</time></trkpt><trkpt lat="43.9036833" lon="11.0969517"><ele>76.0</ele><time>2026-03-22T07:27:43.393Z</time></trkpt><trkpt lat="43.9037933" lon="11.0968867"><ele>76.0</ele><time>2026-03-22T07:27:44.393Z</time></trkpt><trkpt lat="43.903905" lon="11.0968133"><ele>76.0</ele><time>2026-03-22T07:27:45.392Z</time></trkpt><trkpt lat="43.904015" lon="11.09674"><ele>76.0</ele><time>2026-03-22T07:27:46.392Z</time></trkpt><trkpt lat="43.9041283" lon="11.09667"><ele>76.0</ele><time>2026-03-22T07:27:47.392Z</time></trkpt><trkpt lat="43.90424" lon="11.0965983"><ele>76.5</ele><time>2026-03-22T07:27:48.392Z</time></trkpt><trkpt lat="43.9043517" lon="11.0965317"><ele>77.0</ele><time>2026-03-22T07:27:49.392Z</time></trkpt><trkpt lat="43.9044633" lon="11.096465"><ele>77.5</ele><time>2026-03-22T07:27:50.392Z</time></trkpt><trkpt lat="43.9045733" lon="11.09639"><ele>78.0</ele><time>2026-03-22T07:27:51.393Z</time></trkpt><trkpt lat="43.904685" lon="11.0963183"><ele>78.0</ele><time>2026-03-22T07:27:52.392Z</time></trkpt><trkpt lat="43.9047967" lon="11.0962483"><ele>78.0</ele><time>2026-03-22T07:27:53.392Z</time></trkpt><trkpt lat="43.9049117" lon="11.0961783"><ele>78.0</ele><time>2026-03-22T07:27:54.392Z</time></trkpt><trkpt lat="43.905025" lon="11.0961117"><ele>78.0</ele><time>2026-03-22T07:27:55.393Z</time></trkpt><trkpt lat="43.9051433" lon="11.096045"><ele>78.0</ele><time>2026-03-22T07:27:56.393Z</time></trkpt><trkpt lat="43.9052617" lon="11.0959833"><ele>78.0</ele><time>2026-03-22T07:27:57.393Z</time></trkpt><trkpt lat="43.9053817" lon="11.0959217"><ele>78.0</ele><time>2026-03-22T07:27:58.393Z</time></trkpt><trkpt lat="43.9055017" lon="11.0958533"><ele>78.0</ele><time>2026-03-22T07:27:59.394Z</time></trkpt><trkpt lat="43.9056233" lon="11.0957983"><ele>78.0</ele><time>2026-03-22T07:28:00.393Z</time></trkpt><trkpt lat="43.9057433" lon="11.095735"><ele>78.0</ele><time>2026-03-22T07:28:01.394Z</time></trkpt><trkpt lat="43.9058633" lon="11.0956717"><ele>78.0</ele><time>2026-03-22T07:28:02.394Z</time></trkpt><trkpt lat="43.9059817" lon="11.0956117"><ele>78.0</ele><time>2026-03-22T07:28:03.394Z</time></trkpt><trkpt lat="43.906105" lon="11.0955583"><ele>78.25</ele><time>2026-03-22T07:28:04.393Z</time></trkpt><trkpt lat="43.9062283" lon="11.0955133"><ele>78.5</ele><time>2026-03-22T07:28:05.394Z</time></trkpt><trkpt lat="43.9063533" lon="11.09547"><ele>78.75</ele><time>2026-03-22T07:28:06.394Z</time></trkpt><trkpt lat="43.9064783" lon="11.0954417"><ele>79.0</ele><time>2026-03-22T07:28:07.394Z</time></trkpt><trkpt lat="43.9066017" lon="11.0954283"><ele>79.0</ele><time>2026-03-22T07:28:08.394Z</time></trkpt><trkpt lat="43.9067217" lon="11.0954183"><ele>79.0</ele><time>2026-03-22T07:28:09.393Z</time></trkpt><trkpt lat="43.9068467" lon="11.0953983"><ele>79.0</ele><time>2026-03-22T07:28:10.393Z</time></trkpt><trkpt lat="43.90697" lon="11.095385"><ele>79.0</ele><time>2026-03-22T07:28:11.394Z</time></trkpt><trkpt lat="43.9070917" lon="11.09537"><ele>79.0</ele><time>2026-03-22T07:28:12.393Z</time></trkpt><trkpt lat="43.9072133" lon="11.095355"><ele>79.0</ele><time>2026-03-22T07:28:13.394Z</time></trkpt><trkpt lat="43.9073283" lon="11.0953333"><ele>79.0</ele><time>2026-03-22T07:28:14.394Z</time></trkpt><trkpt lat="43.907445" lon="11.0953233"><ele>79.0</ele><time>2026-03-22T07:28:15.393Z</time></trkpt><trkpt lat="43.9075633" lon="11.0953117"><ele>80.0</ele><time>2026-03-22T07:28:16.393Z</time></trkpt><trkpt lat="43.9076833" lon="11.0952833"><ele>81.0</ele><time>2026-03-22T07:28:17.394Z</time></trkpt><trkpt lat="43.9078067" lon="11.0952567"><ele>82.0</ele><time>2026-03-22T07:28:18.393Z</time></trkpt><trkpt lat="43.9079267" lon="11.0952333"><ele>83.0</ele><time>2026-03-22T07:28:19.394Z</time></trkpt><trkpt lat="43.9080417" lon="11.0952183"><ele>83.0</ele><time>2026-03-22T07:28:20.394Z</time></trkpt><trkpt lat="43.9081617" lon="11.0952017"><ele>83.0</ele><time>2026-03-22T07:28:21.393Z</time></trkpt><trkpt lat="43.9082783" lon="11.0951817"><ele>83.0</ele><time>2026-03-22T07:28:22.394Z</time></trkpt><trkpt lat="43.9083983" lon="11.0951683"><ele>83.0</ele><time>2026-03-22T07:28:23.393Z</time></trkpt><trkpt lat="43.90852" lon="11.0951483"><ele>83.5</ele><time>2026-03-22T07:28:24.393Z</time></trkpt><trkpt lat="43.9086417" lon="11.0951233"><ele>84.0</ele><time>2026-03-22T07:28:25.394Z</time></trkpt><trkpt lat="43.9087633" lon="11.0951017"><ele>84.5</ele><time>2026-03-22T07:28:26.393Z</time></trkpt><trkpt lat="43.9088867" lon="11.09508"><ele>85.0</ele><time>2026-03-22T07:28:27.394Z</time></trkpt><trkpt lat="43.90901" lon="11.0950583"><ele>85.0</ele><time>2026-03-22T07:28:28.393Z</time></trkpt><trkpt lat="43.9091333" lon="11.0950383"><ele>85.0</ele><time>2026-03-22T07:28:29.393Z</time></trkpt><trkpt lat="43.9092617" lon="11.0950167"><ele>85.0</ele><time>2026-03-22T07:28:30.394Z</time></trkpt><trkpt lat="43.90939" lon="11.0950017"><ele>85.0</ele><time>2026-03-22T07:28:31.394Z</time></trkpt><trkpt lat="43.90952" lon="11.0949917"><ele>85.25</ele><time>2026-03-22T07:28:32.393Z</time></trkpt><trkpt lat="43.90965" lon="11.094985"><ele>85.5</ele><time>2026-03-22T07:28:33.394Z</time></trkpt><trkpt lat="43.9097817" lon="11.0949817"><ele>85.75</ele><time>2026-03-22T07:28:34.393Z</time></trkpt><trkpt lat="43.90991" lon="11.0949817"><ele>86.0</ele><time>2026-03-22T07:28:35.394Z</time></trkpt><trkpt lat="43.910035" lon="11.0949883"><ele>85.75</ele><time>2026-03-22T07:28:36.393Z</time></trkpt><trkpt lat="43.9101617" lon="11.0949983"><ele>85.5</ele><time>2026-03-22T07:28:37.394Z</time></trkpt><trkpt lat="43.9102817" lon="11.0950117"><ele>85.25</ele><time>2026-03-22T07:28:38.394Z</time></trkpt><trkpt lat="43.91041" lon="11.0950233"><ele>85.0</ele><time>2026-03-22T07:28:39.393Z</time></trkpt><trkpt lat="43.9105367" lon="11.0950417"><ele>85.0</ele><time>2026-03-22T07:28:40.393Z</time></trkpt><trkpt lat="43.9106717" lon="11.0950533"><ele>85.0</ele><time>2026-03-22T07:28:41.393Z</time></trkpt><trkpt lat="43.9108033" lon="11.095055"><ele>85.0</ele><time>2026-03-22T07:28:42.393Z</time></trkpt><trkpt lat="43.9109317" lon="11.09505"><ele>85.0</ele><time>2026-03-22T07:28:43.393Z</time></trkpt><trkpt lat="43.911055" lon="11.0950467"><ele>85.25</ele><time>2026-03-22T07:28:44.393Z</time></trkpt><trkpt lat="43.9111867" lon="11.0950383"><ele>85.5</ele><time>2026-03-22T07:28:45.393Z</time></trkpt><trkpt lat="43.9113167" lon="11.09503"><ele>85.75</ele><time>2026-03-22T07:28:46.394Z</time></trkpt><trkpt lat="43.9114467" lon="11.0950267"><ele>86.0</ele><time>2026-03-22T07:28:47.394Z</time></trkpt><trkpt lat="43.9115833" lon="11.09502"><ele>86.0</ele><time>2026-03-22T07:28:48.394Z</time></trkpt><trkpt lat="43.911715" lon="11.0950017"><ele>86.0</ele><time>2026-03-22T07:28:49.394Z</time></trkpt><trkpt lat="43.9118417" lon="11.0949717"><ele>86.0</ele><time>2026-03-22T07:28:50.393Z</time></trkpt><trkpt lat="43.9119683" lon="11.0949417"><ele>86.0</ele><time>2026-03-22T07:28:51.393Z</time></trkpt><trkpt lat="43.912095" lon="11.0949133"><ele>86.0</ele><time>2026-03-22T07:28:52.394Z</time></trkpt><trkpt lat="43.9122233" lon="11.09488"><ele>86.0</ele><time>2026-03-22T07:28:53.393Z</time></trkpt><trkpt lat="43.91235" lon="11.094845"><ele>86.0</ele><time>2026-03-22T07:28:54.394Z</time></trkpt><trkpt lat="43.91248" lon="11.09481"><ele>86.0</ele><time>2026-03-22T07:28:55.393Z</time></trkpt><trkpt lat="43.91261" lon="11.09478"><ele>86.25</ele><time>2026-03-22T07:28:56.393Z</time></trkpt><trkpt lat="43.9127367" lon="11.0947517"><ele>86.5</ele><time>2026-03-22T07:28:57.393Z</time></trkpt><trkpt lat="43.9128633" lon="11.09473"><ele>86.75</ele><time>2026-03-22T07:28:58.394Z</time></trkpt><trkpt lat="43.9129917" lon="11.09471"><ele>87.0</ele><time>2026-03-22T07:28:59.394Z</time></trkpt><trkpt lat="43.9131183" lon="11.0946933"><ele>87.0</ele><time>2026-03-22T07:29:00.393Z</time></trkpt><trkpt lat="43.9132467" lon="11.0946717"><ele>87.0</ele><time>2026-03-22T07:29:01.393Z</time></trkpt><trkpt lat="43.913365" lon="11.0946417"><ele>87.0</ele><time>2026-03-22T07:29:02.393Z</time></trkpt><trkpt lat="43.913475" lon="11.0946167"><ele>87.0</ele><time>2026-03-22T07:29:03.393Z</time></trkpt><trkpt lat="43.9135767" lon="11.0945933"><ele>86.66666666666667</ele><time>2026-03-22T07:29:04.394Z</time></trkpt><trkpt lat="43.9136717" lon="11.0945733"><ele>86.33333333333333</ele><time>2026-03-22T07:29:05.393Z</time></trkpt><trkpt lat="43.9137583" lon="11.09455"><ele>86.0</ele><time>2026-03-22T07:29:06.394Z</time></trkpt><trkpt lat="43.91384" lon="11.094535"><ele>85.66666666666666</ele><time>2026-03-22T07:29:07.393Z</time></trkpt><trkpt lat="43.9139217" lon="11.0945483"><ele>85.33333333333333</ele><time>2026-03-22T07:29:08.393Z</time></trkpt><trkpt lat="43.91401" lon="11.0945883"><ele>85.0</ele><time>2026-03-22T07:29:09.394Z</time></trkpt><trkpt lat="43.9141017" lon="11.0946317"><ele>85.0</ele><time>2026-03-22T07:29:10.393Z</time></trkpt><trkpt lat="43.914205" lon="11.0946783"><ele>85.0</ele><time>2026-03-22T07:29:11.394Z</time></trkpt><trkpt lat="43.91431" lon="11.09473"><ele>85.0</ele><time>2026-03-22T07:29:12.394Z</time></trkpt><trkpt lat="43.9144167" lon="11.0947817"><ele>85.0</ele><time>2026-03-22T07:29:13.393Z</time></trkpt><trkpt lat="43.9145233" lon="11.0948367"><ele>85.0</ele><time>2026-03-22T07:29:14.394Z</time></trkpt><trkpt lat="43.9146317" lon="11.09489"><ele>86.0</ele><time>2026-03-22T07:29:15.393Z</time></trkpt><trkpt lat="43.9147417" lon="11.0949433"><ele>87.0</ele><time>2026-03-22T07:29:16.393Z</time></trkpt><trkpt lat="43.914855" lon="11.094995"><ele>88.0</ele><time>2026-03-22T07:29:17.393Z</time></trkpt><trkpt lat="43.9149667" lon="11.0950517"><ele>89.0</ele><time>2026-03-22T07:29:18.393Z</time></trkpt><trkpt lat="43.91508" lon="11.0951017"><ele>89.0</ele><time>2026-03-22T07:29:19.394Z</time></trkpt><trkpt lat="43.9151967" lon="11.0951467"><ele>89.0</ele><time>2026-03-22T07:29:20.393Z</time></trkpt><trkpt lat="43.915315" lon="11.0951883"><ele>89.0</ele><time>2026-03-22T07:29:21.393Z</time></trkpt><trkpt lat="43.9154367" lon="11.09522"><ele>89.0</ele><time>2026-03-22T07:29:22.394Z</time></trkpt><trkpt lat="43.9155617" lon="11.0952433"><ele>89.0</ele><time>2026-03-22T07:29:23.394Z</time></trkpt><trkpt lat="43.9156833" lon="11.095265"><ele>89.0</ele><time>2026-03-22T07:29:24.394Z</time></trkpt><trkpt lat="43.9158067" lon="11.09527"><ele>89.0</ele><time>2026-03-22T07:29:25.394Z</time></trkpt><trkpt lat="43.9159283" lon="11.0952633"><ele>89.0</ele><time>2026-03-22T07:29:26.394Z</time></trkpt><trkpt lat="43.91604" lon="11.09525"><ele>89.80000000000001</ele><time>2026-03-22T07:29:27.393Z</time></trkpt><trkpt lat="43.9161467" lon="11.0952333"><ele>90.60000000000001</ele><time>2026-03-22T07:29:28.394Z</time></trkpt><trkpt lat="43.9162583" lon="11.0952167"><ele>91.4</ele><time>2026-03-22T07:29:29.393Z</time></trkpt><trkpt lat="43.9163683" lon="11.09521"><ele>92.2</ele><time>2026-03-22T07:29:30.393Z</time></trkpt><trkpt lat="43.9164767" lon="11.0952083"><ele>93.0</ele><time>2026-03-22T07:29:31.393Z</time></trkpt><trkpt lat="43.9165883" lon="11.0951983"><ele>93.0</ele><time>2026-03-22T07:29:32.393Z</time></trkpt><trkpt lat="43.9166983" lon="11.0951783"><ele>93.0</ele><time>2026-03-22T07:29:33.393Z</time></trkpt><trkpt lat="43.9167983" lon="11.0951517"><ele>93.0</ele><time>2026-03-22T07:29:34.394Z</time></trkpt><trkpt lat="43.9168883" lon="11.0951233"><ele>93.0</ele><time>2026-03-22T07:29:35.394Z</time></trkpt><trkpt lat="43.9169667" lon="11.0950967"><ele>93.0</ele><time>2026-03-22T07:29:36.394Z</time></trkpt><trkpt lat="43.9170417" lon="11.0950717"><ele>93.0</ele><time>2026-03-22T07:29:37.394Z</time></trkpt><trkpt lat="43.9171083" lon="11.0950467"><ele>93.0</ele><time>2026-03-22T07:29:38.394Z</time></trkpt><trkpt lat="43.91721" lon="11.095005"><ele>93.0</ele><time>2026-03-22T07:29:40.393Z</time></trkpt><trkpt lat="43.9172617" lon="11.095085"><ele>93.0</ele><time>2026-03-22T07:29:43.394Z</time></trkpt><trkpt lat="43.917284" lon="11.0951871"><ele>93.0</ele><time>2026-03-22T07:33:19.69Z</time></trkpt><trkpt lat="43.9173568" lon="11.0952477"><ele>93.0</ele><time>2026-03-22T07:33:22.691Z</time></trkpt><trkpt lat="43.91732" lon="11.0953513"><ele>93.0</ele><time>2026-03-22T07:33:25.69Z</time></trkpt><trkpt lat="43.9173337" lon="11.0955885"><ele>93.0</ele><time>2026-03-22T07:33:45.394Z</time></trkpt><trkpt lat="43.9173353" lon="11.0957281"><ele>93.0</ele><time>2026-03-22T07:33:46.394Z</time></trkpt><trkpt lat="43.9173401" lon="11.0958613"><ele>93.0</ele><time>2026-03-22T07:33:47.394Z</time></trkpt><trkpt lat="43.9173455" lon="11.0959955"><ele>92.80000000000001</ele><time>2026-03-22T07:33:48.393Z</time></trkpt><trkpt lat="43.9173508" lon="11.0961375"><ele>92.6</ele><time>2026-03-22T07:33:49.394Z</time></trkpt><trkpt lat="43.9173655" lon="11.0962749"><ele>92.4</ele><time>2026-03-22T07:33:50.394Z</time></trkpt><trkpt lat="43.9174014" lon="11.0964052"><ele>92.19999999999999</ele><time>2026-03-22T07:33:51.394Z</time></trkpt><trkpt lat="43.917455" lon="11.0965251"><ele>92.0</ele><time>2026-03-22T07:33:52.393Z</time></trkpt><trkpt lat="43.9175152" lon="11.0966435"><ele>94.39999999999999</ele><time>2026-03-22T07:33:53.394Z</time></trkpt><trkpt lat="43.9175793" lon="11.0967592"><ele>96.8</ele><time>2026-03-22T07:33:54.394Z</time></trkpt><trkpt lat="43.9176449" lon="11.0968706"><ele>99.2</ele><time>2026-03-22T07:33:55.393Z</time></trkpt><trkpt lat="43.917711" lon="11.0969805"><ele>101.6</ele><time>2026-03-22T07:33:56.394Z</time></trkpt><trkpt lat="43.9177768" lon="11.0970883"><ele>104.0</ele><time>2026-03-22T07:33:57.393Z</time></trkpt><trkpt lat="43.917845" lon="11.0971869"><ele>104.0</ele><time>2026-03-22T07:33:58.394Z</time></trkpt><trkpt lat="43.9179136" lon="11.0972793"><ele>104.0</ele><time>2026-03-22T07:33:59.394Z</time></trkpt><trkpt lat="43.9179808" lon="11.0973755"><ele>104.0</ele><time>2026-03-22T07:34:00.394Z</time></trkpt><trkpt lat="43.9180549" lon="11.0974759"><ele>104.0</ele><time>2026-03-22T07:34:01.393Z</time></trkpt><trkpt lat="43.9181207" lon="11.0975828"><ele>104.0</ele><time>2026-03-22T07:34:02.393Z</time></trkpt><trkpt lat="43.9181871" lon="11.0976914"><ele>105.80000000000001</ele><time>2026-03-22T07:34:03.394Z</time></trkpt><trkpt lat="43.9182566" lon="11.0978041"><ele>107.60000000000001</ele><time>2026-03-22T07:34:04.394Z</time></trkpt><trkpt lat="43.9183297" lon="11.0979174"><ele>109.4</ele><time>2026-03-22T07:34:05.394Z</time></trkpt><trkpt lat="43.9184038" lon="11.0980273"><ele>111.2</ele><time>2026-03-22T07:34:06.393Z</time></trkpt><trkpt lat="43.9184749" lon="11.0981385"><ele>113.0</ele><time>2026-03-22T07:34:07.394Z</time></trkpt><trkpt lat="43.918535" lon="11.0982489"><ele>115.57142857142858</ele><time>2026-03-22T07:34:08.393Z</time></trkpt><trkpt lat="43.9185793" lon="11.0983561"><ele>118.14285714285714</ele><time>2026-03-22T07:34:09.394Z</time></trkpt><trkpt lat="43.9186104" lon="11.0984562"><ele>120.71428571428572</ele><time>2026-03-22T07:34:10.393Z</time></trkpt><trkpt lat="43.9186305" lon="11.0985539"><ele>123.28571428571429</ele><time>2026-03-22T07:34:11.394Z</time></trkpt><trkpt lat="43.9186493" lon="11.0986426"><ele>125.85714285714286</ele><time>2026-03-22T07:34:12.393Z</time></trkpt><trkpt lat="43.9186785" lon="11.0987241"><ele>128.42857142857144</ele><time>2026-03-22T07:34:13.394Z</time></trkpt><trkpt lat="43.9187185" lon="11.0987961"><ele>131.0</ele><time>2026-03-22T07:34:14.393Z</time></trkpt><trkpt lat="43.9187727" lon="11.098858"><ele>131.0</ele><time>2026-03-22T07:34:15.394Z</time></trkpt><trkpt lat="43.9188501" lon="11.0988845"><ele>131.0</ele><time>2026-03-22T07:34:16.393Z</time></trkpt><trkpt lat="43.9189198" lon="11.0989162"><ele>131.0</ele><time>2026-03-22T07:34:17.393Z</time></trkpt><trkpt lat="43.9189785" lon="11.0989682"><ele>131.0</ele><time>2026-03-22T07:34:18.393Z</time></trkpt><trkpt lat="43.919045" lon="11.0990417"><ele>131.0</ele><time>2026-03-22T07:34:19.394Z</time></trkpt><trkpt lat="43.9191083" lon="11.0991267"><ele>131.0</ele><time>2026-03-22T07:34:20.394Z</time></trkpt><trkpt lat="43.91918" lon="11.0992283"><ele>133.4</ele><time>2026-03-22T07:34:21.394Z</time></trkpt><trkpt lat="43.9192533" lon="11.09934"><ele>135.8</ele><time>2026-03-22T07:34:22.394Z</time></trkpt><trkpt lat="43.91933" lon="11.099445"><ele>138.20000000000002</ele><time>2026-03-22T07:34:23.394Z</time></trkpt><trkpt lat="43.919415" lon="11.0995417"><ele>140.6</ele><time>2026-03-22T07:34:24.393Z</time></trkpt><trkpt lat="43.9194967" lon="11.0996317"><ele>143.0</ele><time>2026-03-22T07:34:25.393Z</time></trkpt><trkpt lat="43.9195883" lon="11.0997233"><ele>143.0</ele><time>2026-03-22T07:34:26.393Z</time></trkpt><trkpt lat="43.9196667" lon="11.0998317"><ele>143.0</ele><time>2026-03-22T07:34:27.394Z</time></trkpt><trkpt lat="43.9197517" lon="11.0999483"><ele>143.0</ele><time>2026-03-22T07:34:28.394Z</time></trkpt><trkpt lat="43.9198217" lon="11.10007"><ele>143.0</ele><time>2026-03-22T07:34:29.393Z</time></trkpt><trkpt lat="43.9198783" lon="11.1001867"><ele>143.0</ele><time>2026-03-22T07:34:30.393Z</time></trkpt><trkpt lat="43.9199117" lon="11.100305"><ele>146.20000000000002</ele><time>2026-03-22T07:34:31.394Z</time></trkpt><trkpt lat="43.9199367" lon="11.1004283"><ele>149.4</ele><time>2026-03-22T07:34:32.394Z</time></trkpt><trkpt lat="43.9199767" lon="11.1005483"><ele>152.60000000000002</ele><time>2026-03-22T07:34:33.393Z</time></trkpt><trkpt lat="43.9200233" lon="11.100665"><ele>155.8</ele><time>2026-03-22T07:34:34.393Z</time></trkpt><trkpt lat="43.9200733" lon="11.10078"><ele>159.0</ele><time>2026-03-22T07:34:35.393Z</time></trkpt><trkpt lat="43.9201317" lon="11.1008967"><ele>161.2</ele><time>2026-03-22T07:34:36.394Z</time></trkpt><trkpt lat="43.9202" lon="11.1010067"><ele>163.4</ele><time>2026-03-22T07:34:37.394Z</time></trkpt><trkpt lat="43.9202733" lon="11.1011167"><ele>165.6</ele><time>2026-03-22T07:34:38.393Z</time></trkpt><trkpt lat="43.920355" lon="11.1012267"><ele>167.8</ele><time>2026-03-22T07:34:39.393Z</time></trkpt><trkpt lat="43.9204367" lon="11.101335"><ele>170.0</ele><time>2026-03-22T07:34:40.394Z</time></trkpt><trkpt lat="43.9205233" lon="11.101445"><ele>170.0</ele><time>2026-03-22T07:34:41.393Z</time></trkpt><trkpt lat="43.92061" lon="11.101555"><ele>170.0</ele><time>2026-03-22T07:34:42.393Z</time></trkpt><trkpt lat="43.9206917" lon="11.1016683"><ele>170.0</ele><time>2026-03-22T07:34:43.394Z</time></trkpt><trkpt lat="43.92077" lon="11.1017767"><ele>170.0</ele><time>2026-03-22T07:34:44.394Z</time></trkpt><trkpt lat="43.9208383" lon="11.1018783"><ele>170.0</ele><time>2026-03-22T07:34:45.394Z</time></trkpt><trkpt lat="43.9209217" lon="11.101975"><ele>170.75</ele><time>2026-03-22T07:34:46.394Z</time></trkpt><trkpt lat="43.921025" lon="11.1020567"><ele>171.5</ele><time>2026-03-22T07:34:47.393Z</time></trkpt><trkpt lat="43.9211317" lon="11.1021367"><ele>172.25</ele><time>2026-03-22T07:34:48.393Z</time></trkpt><trkpt lat="43.92124" lon="11.102225"><ele>173.0</ele><time>2026-03-22T07:34:49.393Z</time></trkpt><trkpt lat="43.9213417" lon="11.1023133"><ele>173.0</ele><time>2026-03-22T07:34:50.394Z</time></trkpt><trkpt lat="43.9214417" lon="11.1023983"><ele>173.0</ele><time>2026-03-22T07:34:51.393Z</time></trkpt><trkpt lat="43.9215317" lon="11.1024733"><ele>173.0</ele><time>2026-03-22T07:34:52.393Z</time></trkpt><trkpt lat="43.9216033" lon="11.1025533"><ele>173.0</ele><time>2026-03-22T07:34:53.394Z</time></trkpt><trkpt lat="43.9216633" lon="11.1026517"><ele>173.0</ele><time>2026-03-22T07:34:54.394Z</time></trkpt><trkpt lat="43.9217067" lon="11.1027617"><ele>173.0</ele><time>2026-03-22T07:34:55.393Z</time></trkpt><trkpt lat="43.9217517" lon="11.1028867"><ele>173.0</ele><time>2026-03-22T07:34:56.393Z</time></trkpt><trkpt lat="43.9217967" lon="11.103015"><ele>173.0</ele><time>2026-03-22T07:34:57.393Z</time></trkpt><trkpt lat="43.92185" lon="11.1031467"><ele>173.0</ele><time>2026-03-22T07:34:58.394Z</time></trkpt><trkpt lat="43.9219233" lon="11.1032717"><ele>173.0</ele><time>2026-03-22T07:34:59.394Z</time></trkpt><trkpt lat="43.9220133" lon="11.1034"><ele>176.0</ele><time>2026-03-22T07:35:00.394Z</time></trkpt><trkpt lat="43.9221" lon="11.10352"><ele>179.0</ele><time>2026-03-22T07:35:01.393Z</time></trkpt><trkpt lat="43.9221933" lon="11.10362"><ele>182.0</ele><time>2026-03-22T07:35:02.394Z</time></trkpt><trkpt lat="43.9222767" lon="11.103695"><ele>185.0</ele><time>2026-03-22T07:35:03.394Z</time></trkpt><trkpt lat="43.9223617" lon="11.103765"><ele>188.0</ele><time>2026-03-22T07:35:04.393Z</time></trkpt><trkpt lat="43.9224367" lon="11.10382"><ele>188.0</ele><time>2026-03-22T07:35:05.393Z</time></trkpt><trkpt lat="43.922515" lon="11.1038817"><ele>188.0</ele><time>2026-03-22T07:35:06.393Z</time></trkpt><trkpt lat="43.92259" lon="11.1039467"><ele>188.0</ele><time>2026-03-22T07:35:07.394Z</time></trkpt><trkpt lat="43.92265" lon="11.10401"><ele>188.0</ele><time>2026-03-22T07:35:08.393Z</time></trkpt><trkpt lat="43.9227167" lon="11.1041033"><ele>188.0</ele><time>2026-03-22T07:35:10.393Z</time></trkpt><trkpt lat="43.92273" lon="11.1042333"><ele>188.0</ele><time>2026-03-22T07:35:13.393Z</time></trkpt><trkpt lat="43.9227333" lon="11.1043617"><ele>189.60000000000002</ele><time>2026-03-22T07:35:15.393Z</time></trkpt><trkpt lat="43.922735" lon="11.1045"><ele>191.20000000000002</ele><time>2026-03-22T07:35:17.393Z</time></trkpt><trkpt lat="43.9227433" lon="11.1046367"><ele>192.8</ele><time>2026-03-22T07:35:19.394Z</time></trkpt><trkpt lat="43.92275" lon="11.1047683"><ele>194.4</ele><time>2026-03-22T07:35:21.394Z</time></trkpt><trkpt lat="43.9227917" lon="11.1048667"><ele>196.0</ele><time>2026-03-22T07:35:23.394Z</time></trkpt><trkpt lat="43.92286" lon="11.1049533"><ele>198.83333333333331</ele><time>2026-03-22T07:35:25.394Z</time></trkpt><trkpt lat="43.92291" lon="11.1050483"><ele>201.66666666666666</ele><time>2026-03-22T07:35:27.393Z</time></trkpt><trkpt lat="43.9229467" lon="11.1051367"><ele>204.5</ele><time>2026-03-22T07:35:29.394Z</time></trkpt><trkpt lat="43.9230033" lon="11.1052"><ele>207.33333333333331</ele><time>2026-03-22T07:35:35.393Z</time></trkpt><trkpt lat="43.9230867" lon="11.1052183"><ele>210.16666666666666</ele><time>2026-03-22T07:35:37.393Z</time></trkpt><trkpt lat="43.9231867" lon="11.1052267"><ele>213.0</ele><time>2026-03-22T07:35:39.393Z</time></trkpt><trkpt lat="43.923275" lon="11.1052083"><ele>213.0</ele><time>2026-03-22T07:35:41.394Z</time></trkpt><trkpt lat="43.9233533" lon="11.105185"><ele>213.0</ele><time>2026-03-22T07:35:43.394Z</time></trkpt><trkpt lat="43.9234483" lon="11.1051917"><ele>213.0</ele><time>2026-03-22T07:35:45.394Z</time></trkpt><trkpt lat="43.9235533" lon="11.1051817"><ele>213.0</ele><time>2026-03-22T07:35:47.394Z</time></trkpt><trkpt lat="43.92364" lon="11.1051483"><ele>213.0</ele><time>2026-03-22T07:35:49.393Z</time></trkpt><trkpt lat="43.9237833" lon="11.1051017"><ele>213.33333333333334</ele><time>2026-03-22T07:36:15.393Z</time></trkpt><trkpt lat="43.923845" lon="11.10513"><ele>213.66666666666669</ele><time>2026-03-22T07:36:17.394Z</time></trkpt><trkpt lat="43.92392" lon="11.1051717"><ele>214.0</ele><time>2026-03-22T07:36:19.394Z</time></trkpt><trkpt lat="43.9239933" lon="11.105235"><ele>214.33333333333334</ele><time>2026-03-22T07:36:21.394Z</time></trkpt><trkpt lat="43.9240683" lon="11.1053217"><ele>214.66666666666669</ele><time>2026-03-22T07:36:23.393Z</time></trkpt><trkpt lat="43.9241317" lon="11.10542"><ele>215.0</ele><time>2026-03-22T07:36:25.393Z</time></trkpt><trkpt lat="43.9241867" lon="11.105535"><ele>213.2</ele><time>2026-03-22T07:36:27.394Z</time></trkpt><trkpt lat="43.9242533" lon="11.1056783"><ele>211.4</ele><time>2026-03-22T07:36:29.393Z</time></trkpt><trkpt lat="43.9243067" lon="11.1058133"><ele>209.60000000000002</ele><time>2026-03-22T07:36:31.393Z</time></trkpt><trkpt lat="43.924365" lon="11.1059483"><ele>207.8</ele><time>2026-03-22T07:36:33.393Z</time></trkpt><trkpt lat="43.924425" lon="11.106055"><ele>206.0</ele><time>2026-03-22T07:36:35.393Z</time></trkpt><trkpt lat="43.924505" lon="11.1061533"><ele>210.16666666666669</ele><time>2026-03-22T07:36:37.393Z</time></trkpt><trkpt lat="43.9245517" lon="11.1062717"><ele>214.33333333333334</ele><time>2026-03-22T07:36:39.394Z</time></trkpt><trkpt lat="43.9245833" lon="11.1063667"><ele>218.5</ele><time>2026-03-22T07:36:41.393Z</time></trkpt><trkpt lat="43.9246217" lon="11.10646"><ele>222.66666666666669</ele><time>2026-03-22T07:36:43.394Z</time></trkpt><trkpt lat="43.9246617" lon="11.1065283"><ele>226.83333333333334</ele><time>2026-03-22T07:36:45.393Z</time></trkpt><trkpt lat="43.9247167" lon="11.1066067"><ele>231.0</ele><time>2026-03-22T07:36:47.394Z</time></trkpt><trkpt lat="43.9247567" lon="11.1066833"><ele>233.66666666666666</ele><time>2026-03-22T07:36:49.393Z</time></trkpt><trkpt lat="43.92477" lon="11.1067783"><ele>236.33333333333331</ele><time>2026-03-22T07:36:51.393Z</time></trkpt><trkpt lat="43.92479" lon="11.1068983"><ele>239.0</ele><time>2026-03-22T07:36:53.393Z</time></trkpt><trkpt lat="43.924835" lon="11.1069917"><ele>241.66666666666666</ele><time>2026-03-22T07:36:55.394Z</time></trkpt><trkpt lat="43.9248783" lon="11.1070833"><ele>244.33333333333331</ele><time>2026-03-22T07:36:57.393Z</time></trkpt><trkpt lat="43.9249267" lon="11.1071583"><ele>247.0</ele><time>2026-03-22T07:36:59.393Z</time></trkpt><trkpt lat="43.9249883" lon="11.1072117"><ele>247.49999999999997</ele><time>2026-03-22T07:37:01.394Z</time></trkpt><trkpt lat="43.9250717" lon="11.107215"><ele>248.0</ele><time>2026-03-22T07:37:04.393Z</time></trkpt><trkpt lat="43.925115" lon="11.10715"><ele>248.5</ele><time>2026-03-22T07:37:07.393Z</time></trkpt><trkpt lat="43.92516" lon="11.10706"><ele>249.0</ele><time>2026-03-22T07:37:09.393Z</time></trkpt><trkpt lat="43.9252233" lon="11.1069583"><ele>249.49999999999997</ele><time>2026-03-22T07:37:11.393Z</time></trkpt><trkpt lat="43.9252983" lon="11.1068633"><ele>250.0</ele><time>2026-03-22T07:37:13.393Z</time></trkpt><trkpt lat="43.92536" lon="11.106805"><ele>249.99999999999997</ele><time>2026-03-22T07:37:15.393Z</time></trkpt><trkpt lat="43.92544" lon="11.106745"><ele>250.0</ele><time>2026-03-22T07:37:17.394Z</time></trkpt><trkpt lat="43.925525" lon="11.1067117"><ele>250.0</ele><time>2026-03-22T07:37:19.394Z</time></trkpt><trkpt lat="43.9255917" lon="11.1067583"><ele>250.0</ele><time>2026-03-22T07:37:21.394Z</time></trkpt><trkpt lat="43.925645" lon="11.1068167"><ele>249.99999999999997</ele><time>2026-03-22T07:37:23.394Z</time></trkpt><trkpt lat="43.9257217" lon="11.1068533"><ele>250.0</ele><time>2026-03-22T07:37:25.394Z</time></trkpt><trkpt lat="43.9258083" lon="11.106875"><ele>248.33333333333331</ele><time>2026-03-22T07:37:27.393Z</time></trkpt><trkpt lat="43.9258967" lon="11.106855"><ele>246.66666666666666</ele><time>2026-03-22T07:37:29.393Z</time></trkpt><trkpt lat="43.9259833" lon="11.1068633"><ele>245.0</ele><time>2026-03-22T07:37:31.394Z</time></trkpt><trkpt lat="43.9260567" lon="11.1068767"><ele>243.33333333333331</ele><time>2026-03-22T07:37:33.394Z</time></trkpt><trkpt lat="43.9261467" lon="11.1068983"><ele>241.66666666666666</ele><time>2026-03-22T07:37:35.393Z</time></trkpt><trkpt lat="43.926205" lon="11.1069417"><ele>240.0</ele><time>2026-03-22T07:37:37.394Z</time></trkpt><trkpt lat="43.9262517" lon="11.1070117"><ele>240.0</ele><time>2026-03-22T07:37:39.394Z</time></trkpt><trkpt lat="43.9263267" lon="11.1070767"><ele>240.0</ele><time>2026-03-22T07:37:41.393Z</time></trkpt><trkpt lat="43.92639" lon="11.1071417"><ele>240.0</ele><time>2026-03-22T07:37:43.393Z</time></trkpt><trkpt lat="43.926455" lon="11.107195"><ele>240.0</ele><time>2026-03-22T07:37:45.394Z</time></trkpt><trkpt lat="43.926555" lon="11.1072217"><ele>240.0</ele><time>2026-03-22T07:37:47.394Z</time></trkpt><trkpt lat="43.926625" lon="11.10723"><ele>240.0</ele><time>2026-03-22T07:37:48.394Z</time></trkpt><trkpt lat="43.9267133" lon="11.1072417"><ele>240.2</ele><time>2026-03-22T07:37:50.394Z</time></trkpt><trkpt lat="43.9267867" lon="11.107245"><ele>240.4</ele><time>2026-03-22T07:37:51.394Z</time></trkpt><trkpt lat="43.926895" lon="11.107255"><ele>240.60000000000002</ele><time>2026-03-22T07:37:53.394Z</time></trkpt><trkpt lat="43.9269933" lon="11.1072683"><ele>240.8</ele><time>2026-03-22T07:37:55.394Z</time></trkpt><trkpt lat="43.9271067" lon="11.1072633"><ele>241.0</ele><time>2026-03-22T07:37:57.394Z</time></trkpt><trkpt lat="43.927205" lon="11.1072283"><ele>240.99999999999997</ele><time>2026-03-22T07:37:59.394Z</time></trkpt><trkpt lat="43.927265" lon="11.1071717"><ele>241.0</ele><time>2026-03-22T07:38:02.394Z</time></trkpt><trkpt lat="43.92732" lon="11.107085"><ele>241.0</ele><time>2026-03-22T07:38:10.394Z</time></trkpt><trkpt lat="43.927375" lon="11.1069933"><ele>241.0</ele><time>2026-03-22T07:38:13.394Z</time></trkpt><trkpt lat="43.9274217" lon="11.1069267"><ele>240.99999999999997</ele><time>2026-03-22T07:38:21.392Z</time></trkpt><trkpt lat="43.9274917" lon="11.1069533"><ele>241.0</ele><time>2026-03-22T07:38:28.392Z</time></trkpt><trkpt lat="43.927575" lon="11.1070067"><ele>242.2857142857143</ele><time>2026-03-22T07:38:43.393Z</time></trkpt><trkpt lat="43.9276383" lon="11.1070467"><ele>243.5714285714286</ele><time>2026-03-22T07:38:46.394Z</time></trkpt><trkpt lat="43.92769" lon="11.1071133"><ele>244.85714285714286</ele><time>2026-03-22T07:38:49.394Z</time></trkpt><trkpt lat="43.9277517" lon="11.107155"><ele>246.14285714285717</ele><time>2026-03-22T07:38:52.393Z</time></trkpt><trkpt lat="43.9278167" lon="11.10717"><ele>247.42857142857144</ele><time>2026-03-22T07:38:59.393Z</time></trkpt><trkpt lat="43.927895" lon="11.1072033"><ele>248.71428571428572</ele><time>2026-03-22T07:40:29.393Z</time></trkpt><trkpt lat="43.92796" lon="11.1072217"><ele>250.0</ele><time>2026-03-22T07:40:31.394Z</time></trkpt><trkpt lat="43.9280233" lon="11.10724"><ele>249.99999999999997</ele><time>2026-03-22T07:40:34.393Z</time></trkpt><trkpt lat="43.9281217" lon="11.1072083"><ele>250.0</ele><time>2026-03-22T07:40:55.394Z</time></trkpt><trkpt lat="43.9282117" lon="11.10722"><ele>250.0</ele><time>2026-03-22T07:40:58.394Z</time></trkpt><trkpt lat="43.9283017" lon="11.1072"><ele>250.0</ele><time>2026-03-22T07:41:01.394Z</time></trkpt><trkpt lat="43.9283683" lon="11.1071833"><ele>249.99999999999997</ele><time>2026-03-22T07:41:03.393Z</time></trkpt><trkpt lat="43.9284583" lon="11.10716"><ele>250.0</ele><time>2026-03-22T07:41:05.393Z</time></trkpt><trkpt lat="43.928555" lon="11.1071533"><ele>251.2</ele><time>2026-03-22T07:41:07.393Z</time></trkpt><trkpt lat="43.92864" lon="11.10717"><ele>252.4</ele><time>2026-03-22T07:41:09.393Z</time></trkpt><trkpt lat="43.928735" lon="11.1072317"><ele>253.60000000000002</ele><time>2026-03-22T07:41:11.393Z</time></trkpt><trkpt lat="43.9288217" lon="11.1072933"><ele>254.8</ele><time>2026-03-22T07:41:13.393Z</time></trkpt><trkpt lat="43.9289067" lon="11.107325"><ele>256.0</ele><time>2026-03-22T07:41:15.393Z</time></trkpt><trkpt lat="43.9290133" lon="11.1073233"><ele>256.0</ele><time>2026-03-22T07:41:17.394Z</time></trkpt><trkpt lat="43.9291333" lon="11.10733"><ele>256.0</ele><time>2026-03-22T07:41:19.394Z</time></trkpt><trkpt lat="43.9292583" lon="11.1073567"><ele>256.0</ele><time>2026-03-22T07:41:21.393Z</time></trkpt><trkpt lat="43.9293783" lon="11.107405"><ele>256.0</ele><time>2026-03-22T07:41:23.393Z</time></trkpt><trkpt lat="43.9294683" lon="11.107485"><ele>259.3333333333333</ele><time>2026-03-22T07:41:25.393Z</time></trkpt><trkpt lat="43.92955" lon="11.107565"><ele>262.66666666666663</ele><time>2026-03-22T07:41:27.393Z</time></trkpt><trkpt lat="43.9295933" lon="11.10766"><ele>266.0</ele><time>2026-03-22T07:41:29.393Z</time></trkpt><trkpt lat="43.9296433" lon="11.1077383"><ele>269.3333333333333</ele><time>2026-03-22T07:41:31.393Z</time></trkpt><trkpt lat="43.92971" lon="11.1077717"><ele>272.6666666666667</ele><time>2026-03-22T07:41:33.393Z</time></trkpt><trkpt lat="43.9298133" lon="11.1077283"><ele>276.0</ele><time>2026-03-22T07:41:36.393Z</time></trkpt><trkpt lat="43.9298817" lon="11.1077183"><ele>276.0</ele><time>2026-03-22T07:41:37.394Z</time></trkpt><trkpt lat="43.929965" lon="11.1077117"><ele>276.0</ele><time>2026-03-22T07:41:39.394Z</time></trkpt><trkpt lat="43.9300617" lon="11.1076833"><ele>276.0</ele><time>2026-03-22T07:41:41.394Z</time></trkpt><trkpt lat="43.9301617" lon="11.107655"><ele>276.0</ele><time>2026-03-22T07:41:43.393Z</time></trkpt><trkpt lat="43.9302617" lon="11.1076417"><ele>276.0</ele><time>2026-03-22T07:41:45.393Z</time></trkpt><trkpt lat="43.930325" lon="11.1076383"><ele>276.0</ele><time>2026-03-22T07:41:46.394Z</time></trkpt><trkpt lat="43.9303983" lon="11.1076133"><ele>277.5</ele><time>2026-03-22T07:41:47.394Z</time></trkpt><trkpt lat="43.9304617" lon="11.1075933"><ele>279.0</ele><time>2026-03-22T07:41:48.393Z</time></trkpt><trkpt lat="43.93054" lon="11.10755"><ele>280.5</ele><time>2026-03-22T07:41:49.394Z</time></trkpt><trkpt lat="43.9306067" lon="11.10753"><ele>282.0</ele><time>2026-03-22T07:41:50.393Z</time></trkpt><trkpt lat="43.9307383" lon="11.1075283"><ele>283.5</ele><time>2026-03-22T07:41:52.393Z</time></trkpt><trkpt lat="43.9308217" lon="11.1075383"><ele>285.0</ele><time>2026-03-22T07:41:53.393Z</time></trkpt><trkpt lat="43.9308867" lon="11.107555"><ele>285.6</ele><time>2026-03-22T07:41:54.393Z</time></trkpt><trkpt lat="43.9309583" lon="11.1075633"><ele>286.2</ele><time>2026-03-22T07:41:55.394Z</time></trkpt><trkpt lat="43.931075" lon="11.1075883"><ele>286.8</ele><time>2026-03-22T07:41:57.393Z</time></trkpt><trkpt lat="43.9311917" lon="11.10765"><ele>287.4</ele><time>2026-03-22T07:41:59.394Z</time></trkpt><trkpt lat="43.9312717" lon="11.10769"><ele>288.0</ele><time>2026-03-22T07:42:00.394Z</time></trkpt><trkpt lat="43.931345" lon="11.107725"><ele>288.0</ele><time>2026-03-22T07:42:01.393Z</time></trkpt><trkpt lat="43.9314233" lon="11.1077617"><ele>288.0</ele><time>2026-03-22T07:42:02.394Z</time></trkpt><trkpt lat="43.9314917" lon="11.10779"><ele>288.0</ele><time>2026-03-22T07:42:03.393Z</time></trkpt><trkpt lat="43.9315867" lon="11.10783"><ele>288.0</ele><time>2026-03-22T07:42:05.393Z</time></trkpt><trkpt lat="43.9316467" lon="11.1078867"><ele>288.0</ele><time>2026-03-22T07:42:10.393Z</time></trkpt><trkpt lat="43.93172" lon="11.1078817"><ele>288.0</ele><time>2026-03-22T07:42:13.393Z</time></trkpt><trkpt lat="43.9317767" lon="11.1077867"><ele>292.1666666666667</ele><time>2026-03-22T07:42:16.394Z</time></trkpt><trkpt lat="43.9317983" lon="11.107695"><ele>296.3333333333333</ele><time>2026-03-22T07:42:17.393Z</time></trkpt><trkpt lat="43.93181" lon="11.1076083"><ele>300.5</ele><time>2026-03-22T07:42:18.394Z</time></trkpt><trkpt lat="43.9318167" lon="11.107505"><ele>304.66666666666663</ele><time>2026-03-22T07:42:19.394Z</time></trkpt><trkpt lat="43.9318383" lon="11.1073833"><ele>308.8333333333333</ele><time>2026-03-22T07:42:20.393Z</time></trkpt><trkpt lat="43.9318483" lon="11.1072517"><ele>313.0</ele><time>2026-03-22T07:42:21.393Z</time></trkpt><trkpt lat="43.9318667" lon="11.10714"><ele>313.0</ele><time>2026-03-22T07:42:22.393Z</time></trkpt><trkpt lat="43.931895" lon="11.1070267"><ele>313.0</ele><time>2026-03-22T07:42:23.393Z</time></trkpt><trkpt lat="43.9319167" lon="11.1069167"><ele>313.0</ele><time>2026-03-22T07:42:24.394Z</time></trkpt><trkpt lat="43.9319333" lon="11.1068233"><ele>313.0</ele><time>2026-03-22T07:42:25.394Z</time></trkpt><trkpt lat="43.9319583" lon="11.1067417"><ele>313.0</ele><time>2026-03-22T07:42:26.394Z</time></trkpt><trkpt lat="43.931975" lon="11.1066183"><ele>313.0</ele><time>2026-03-22T07:42:28.394Z</time></trkpt><trkpt lat="43.932005" lon="11.1065283"><ele>309.6</ele><time>2026-03-22T07:42:38.393Z</time></trkpt><trkpt lat="43.9320767" lon="11.106455"><ele>306.20000000000005</ele><time>2026-03-22T07:42:41.393Z</time></trkpt><trkpt lat="43.932145" lon="11.1063733"><ele>302.8</ele><time>2026-03-22T07:42:43.393Z</time></trkpt><trkpt lat="43.9322367" lon="11.1063183"><ele>299.40000000000003</ele><time>2026-03-22T07:42:45.394Z</time></trkpt><trkpt lat="43.932355" lon="11.1062717"><ele>296.0</ele><time>2026-03-22T07:42:47.394Z</time></trkpt><trkpt lat="43.9324333" lon="11.106245"><ele>296.0</ele><time>2026-03-22T07:42:48.394Z</time></trkpt><trkpt lat="43.93251" lon="11.1062117"><ele>296.0</ele><time>2026-03-22T07:42:49.394Z</time></trkpt><trkpt lat="43.9325883" lon="11.1061683"><ele>296.0</ele><time>2026-03-22T07:42:50.394Z</time></trkpt><trkpt lat="43.93266" lon="11.1061417"><ele>296.0</ele><time>2026-03-22T07:42:51.393Z</time></trkpt><trkpt lat="43.932735" lon="11.10612"><ele>296.0</ele><time>2026-03-22T07:42:52.393Z</time></trkpt><trkpt lat="43.9328033" lon="11.10611"><ele>296.0</ele><time>2026-03-22T07:42:53.394Z</time></trkpt><trkpt lat="43.9328733" lon="11.1061083"><ele>297.33333333333337</ele><time>2026-03-22T07:42:54.393Z</time></trkpt><trkpt lat="43.9329467" lon="11.106115"><ele>298.6666666666667</ele><time>2026-03-22T07:42:55.393Z</time></trkpt><trkpt lat="43.9330233" lon="11.1061217"><ele>300.0</ele><time>2026-03-22T07:42:56.394Z</time></trkpt><trkpt lat="43.933095" lon="11.10612"><ele>301.3333333333333</ele><time>2026-03-22T07:42:57.393Z</time></trkpt><trkpt lat="43.9332083" lon="11.106105"><ele>302.66666666666663</ele><time>2026-03-22T07:42:59.394Z</time></trkpt><trkpt lat="43.9333117" lon="11.106165"><ele>304.0</ele><time>2026-03-22T07:43:02.394Z</time></trkpt><trkpt lat="43.9334217" lon="11.1062133"><ele>304.2</ele><time>2026-03-22T07:43:04.394Z</time></trkpt><trkpt lat="43.9335217" lon="11.1062717"><ele>304.4</ele><time>2026-03-22T07:43:06.393Z</time></trkpt><trkpt lat="43.9336117" lon="11.1063117"><ele>304.6</ele><time>2026-03-22T07:43:08.394Z</time></trkpt><trkpt lat="43.933715" lon="11.1063833"><ele>304.8</ele><time>2026-03-22T07:43:10.393Z</time></trkpt><trkpt lat="43.9337967" lon="11.1064517"><ele>305.0</ele><time>2026-03-22T07:43:12.393Z</time></trkpt><trkpt lat="43.9338467" lon="11.10651"><ele>308.6</ele><time>2026-03-22T07:43:14.393Z</time></trkpt><trkpt lat="43.933845" lon="11.106605"><ele>312.2</ele><time>2026-03-22T07:43:16.394Z</time></trkpt><trkpt lat="43.9337967" lon="11.10671"><ele>315.79999999999995</ele><time>2026-03-22T07:43:18.394Z</time></trkpt><trkpt lat="43.93371" lon="11.10676"><ele>319.4</ele><time>2026-03-22T07:43:20.394Z</time></trkpt><trkpt lat="43.93358" lon="11.1067233"><ele>323.0</ele><time>2026-03-22T07:43:22.394Z</time></trkpt><trkpt lat="43.9334967" lon="11.1067033"><ele>323.0</ele><time>2026-03-22T07:43:23.394Z</time></trkpt><trkpt lat="43.9334217" lon="11.1067033"><ele>323.0</ele><time>2026-03-22T07:43:24.394Z</time></trkpt><trkpt lat="43.933325" lon="11.10668"><ele>323.0</ele><time>2026-03-22T07:43:26.393Z</time></trkpt><trkpt lat="43.9332167" lon="11.1067167"><ele>323.0</ele><time>2026-03-22T07:43:28.393Z</time></trkpt><trkpt lat="43.9331583" lon="11.1068333"><ele>323.0</ele><time>2026-03-22T07:43:30.393Z</time></trkpt><trkpt lat="43.9331117" lon="11.1069433"><ele>323.1666666666667</ele><time>2026-03-22T07:43:32.394Z</time></trkpt><trkpt lat="43.933125" lon="11.1070683"><ele>323.33333333333337</ele><time>2026-03-22T07:43:35.394Z</time></trkpt><trkpt lat="43.9331667" lon="11.107195"><ele>323.5</ele><time>2026-03-22T07:43:54.392Z</time></trkpt><trkpt lat="43.9331733" lon="11.10732"><ele>323.6666666666667</ele><time>2026-03-22T07:43:57.392Z</time></trkpt><trkpt lat="43.9332133" lon="11.1074067"><ele>323.8333333333333</ele><time>2026-03-22T07:43:59.392Z</time></trkpt><trkpt lat="43.9332467" lon="11.1075017"><ele>324.0</ele><time>2026-03-22T07:44:01.392Z</time></trkpt><trkpt lat="43.9332833" lon="11.107605"><ele>326.1666666666667</ele><time>2026-03-22T07:44:03.393Z</time></trkpt><trkpt lat="43.9333217" lon="11.1077083"><ele>328.3333333333333</ele><time>2026-03-22T07:44:05.392Z</time></trkpt><trkpt lat="43.9333533" lon="11.1077883"><ele>330.5</ele><time>2026-03-22T07:44:07.393Z</time></trkpt><trkpt lat="43.9334033" lon="11.10786"><ele>332.66666666666663</ele><time>2026-03-22T07:44:11.393Z</time></trkpt><trkpt lat="43.93347" lon="11.107905"><ele>334.8333333333333</ele><time>2026-03-22T07:44:14.393Z</time></trkpt><trkpt lat="43.9335417" lon="11.1079883"><ele>337.0</ele><time>2026-03-22T07:44:17.393Z</time></trkpt><trkpt lat="43.9336183" lon="11.1080083"><ele>337.16666666666663</ele><time>2026-03-22T07:44:19.394Z</time></trkpt><trkpt lat="43.9336917" lon="11.1080483"><ele>337.3333333333333</ele><time>2026-03-22T07:44:21.393Z</time></trkpt><trkpt lat="43.9337533" lon="11.108105"><ele>337.5</ele><time>2026-03-22T07:44:23.394Z</time></trkpt><trkpt lat="43.9338117" lon="11.1081867"><ele>337.6666666666667</ele><time>2026-03-22T07:44:25.394Z</time></trkpt><trkpt lat="43.9338467" lon="11.108275"><ele>337.83333333333337</ele><time>2026-03-22T07:44:27.393Z</time></trkpt><trkpt lat="43.9338767" lon="11.10838"><ele>338.0</ele><time>2026-03-22T07:44:30.393Z</time></trkpt><trkpt lat="43.9338883" lon="11.1085"><ele>340.1666666666667</ele><time>2026-03-22T07:44:32.393Z</time></trkpt><trkpt lat="43.933865" lon="11.1085867"><ele>342.33333333333337</ele><time>2026-03-22T07:44:33.394Z</time></trkpt><trkpt lat="43.9338417" lon="11.1086833"><ele>344.5</ele><time>2026-03-22T07:44:34.394Z</time></trkpt><trkpt lat="43.9338367" lon="11.1088017"><ele>346.6666666666667</ele><time>2026-03-22T07:44:35.393Z</time></trkpt><trkpt lat="43.9338317" lon="11.1089167"><ele>348.8333333333333</ele><time>2026-03-22T07:44:36.394Z</time></trkpt><trkpt lat="43.93383" lon="11.1090267"><ele>351.0</ele><time>2026-03-22T07:44:37.394Z</time></trkpt><trkpt lat="43.933835" lon="11.10913"><ele>351.6</ele><time>2026-03-22T07:44:38.394Z</time></trkpt><trkpt lat="43.933855" lon="11.1092367"><ele>352.20000000000005</ele><time>2026-03-22T07:44:39.393Z</time></trkpt><trkpt lat="43.93391" lon="11.1093633"><ele>352.79999999999995</ele><time>2026-03-22T07:44:40.393Z</time></trkpt><trkpt lat="43.9339517" lon="11.1094867"><ele>353.4</ele><time>2026-03-22T07:44:41.393Z</time></trkpt><trkpt lat="43.9339833" lon="11.1096267"><ele>354.0</ele><time>2026-03-22T07:44:42.393Z</time></trkpt><trkpt lat="43.9340167" lon="11.1097983"><ele>354.0</ele><time>2026-03-22T07:44:43.394Z</time></trkpt><trkpt lat="43.9340483" lon="11.1099783"><ele>354.0</ele><time>2026-03-22T07:44:44.393Z</time></trkpt><trkpt lat="43.9340717" lon="11.110155"><ele>354.0</ele><time>2026-03-22T07:44:45.394Z</time></trkpt><trkpt lat="43.93409" lon="11.110335"><ele>354.0</ele><time>2026-03-22T07:44:46.393Z</time></trkpt><trkpt lat="43.9341083" lon="11.1104983"><ele>354.0</ele><time>2026-03-22T07:44:47.394Z</time></trkpt><trkpt lat="43.93412" lon="11.1106383"><ele>354.0</ele><time>2026-03-22T07:44:48.393Z</time></trkpt><trkpt lat="43.934125" lon="11.1107583"><ele>354.0</ele><time>2026-03-22T07:44:49.394Z</time></trkpt><trkpt lat="43.9341183" lon="11.1108517"><ele>354.0</ele><time>2026-03-22T07:44:50.393Z</time></trkpt><trkpt lat="43.934115" lon="11.1110033"><ele>354.0</ele><time>2026-03-22T07:44:52.394Z</time></trkpt><trkpt lat="43.9341183" lon="11.1111417"><ele>354.6666666666667</ele><time>2026-03-22T07:44:54.393Z</time></trkpt><trkpt lat="43.9341033" lon="11.1112383"><ele>355.3333333333333</ele><time>2026-03-22T07:44:56.393Z</time></trkpt><trkpt lat="43.9340967" lon="11.1113367"><ele>356.0</ele><time>2026-03-22T07:44:58.393Z</time></trkpt><trkpt lat="43.93411" lon="11.1114533"><ele>356.66666666666663</ele><time>2026-03-22T07:45:00.394Z</time></trkpt><trkpt lat="43.9341233" lon="11.1115917"><ele>357.3333333333333</ele><time>2026-03-22T07:45:02.393Z</time></trkpt><trkpt lat="43.93415" lon="11.11174"><ele>358.0</ele><time>2026-03-22T07:45:04.393Z</time></trkpt><trkpt lat="43.934155" lon="11.1118917"><ele>359.4</ele><time>2026-03-22T07:45:06.393Z</time></trkpt><trkpt lat="43.9341817" lon="11.11206"><ele>360.79999999999995</ele><time>2026-03-22T07:45:08.394Z</time></trkpt><trkpt lat="43.9341933" lon="11.112195"><ele>362.2</ele><time>2026-03-22T07:45:10.394Z</time></trkpt><trkpt lat="43.934215" lon="11.112315"><ele>363.6</ele><time>2026-03-22T07:45:12.393Z</time></trkpt><trkpt lat="43.93425" lon="11.11242"><ele>365.0</ele><time>2026-03-22T07:45:14.394Z</time></trkpt><trkpt lat="43.9342917" lon="11.1125367"><ele>367.6666666666667</ele><time>2026-03-22T07:45:16.393Z</time></trkpt><trkpt lat="43.9343683" lon="11.1126317"><ele>370.33333333333337</ele><time>2026-03-22T07:45:18.394Z</time></trkpt><trkpt lat="43.9344217" lon="11.11268"><ele>373.0</ele><time>2026-03-22T07:45:19.394Z</time></trkpt><trkpt lat="43.9344717" lon="11.1127467"><ele>375.6666666666667</ele><time>2026-03-22T07:45:20.394Z</time></trkpt><trkpt lat="43.9345367" lon="11.1128167"><ele>378.3333333333333</ele><time>2026-03-22T07:45:21.394Z</time></trkpt><trkpt lat="43.9346" lon="11.11289"><ele>381.0</ele><time>2026-03-22T07:45:22.393Z</time></trkpt><trkpt lat="43.9346667" lon="11.11296"><ele>381.0</ele><time>2026-03-22T07:45:23.394Z</time></trkpt><trkpt lat="43.9347633" lon="11.1130383"><ele>381.0</ele><time>2026-03-22T07:45:25.394Z</time></trkpt><trkpt lat="43.9348883" lon="11.1130633"><ele>381.0</ele><time>2026-03-22T07:45:27.393Z</time></trkpt><trkpt lat="43.9350133" lon="11.1130483"><ele>381.0</ele><time>2026-03-22T07:45:29.393Z</time></trkpt><trkpt lat="43.935085" lon="11.113025"><ele>381.0</ele><time>2026-03-22T07:45:30.394Z</time></trkpt><trkpt lat="43.93516" lon="11.1129933"><ele>382.3333333333333</ele><time>2026-03-22T07:45:31.394Z</time></trkpt><trkpt lat="43.9352417" lon="11.1129583"><ele>383.66666666666663</ele><time>2026-03-22T07:45:32.393Z</time></trkpt><trkpt lat="43.93534" lon="11.11292"><ele>385.0</ele><time>2026-03-22T07:45:33.393Z</time></trkpt><trkpt lat="43.9354083" lon="11.112915"><ele>386.3333333333333</ele><time>2026-03-22T07:45:34.393Z</time></trkpt><trkpt lat="43.93548" lon="11.1129117"><ele>387.66666666666663</ele><time>2026-03-22T07:45:35.393Z</time></trkpt><trkpt lat="43.93558" lon="11.1129117"><ele>389.0</ele><time>2026-03-22T07:45:37.393Z</time></trkpt><trkpt lat="43.9356717" lon="11.1128867"><ele>388.99999999999994</ele><time>2026-03-22T07:45:39.394Z</time></trkpt><trkpt lat="43.9357217" lon="11.1128317"><ele>389.0</ele><time>2026-03-22T07:46:09.394Z</time></trkpt><trkpt lat="43.9358033" lon="11.112775"><ele>389.0</ele><time>2026-03-22T07:46:10.393Z</time></trkpt><trkpt lat="43.9358617" lon="11.1126883"><ele>389.0</ele><time>2026-03-22T07:46:40.393Z</time></trkpt><trkpt lat="43.9359033" lon="11.1126133"><ele>388.99999999999994</ele><time>2026-03-22T07:46:42.393Z</time></trkpt><trkpt lat="43.9359483" lon="11.112505"><ele>389.0</ele><time>2026-03-22T07:46:45.394Z</time></trkpt><trkpt lat="43.9359683" lon="11.112385"><ele>391.49999999999994</ele><time>2026-03-22T07:46:48.394Z</time></trkpt><trkpt lat="43.9359633" lon="11.112285"><ele>394.0</ele><time>2026-03-22T07:46:50.393Z</time></trkpt><trkpt lat="43.93597" lon="11.1121767"><ele>396.5</ele><time>2026-03-22T07:46:52.393Z</time></trkpt><trkpt lat="43.93598" lon="11.1120467"><ele>399.0</ele><time>2026-03-22T07:46:54.394Z</time></trkpt><trkpt lat="43.9359833" lon="11.1119233"><ele>401.49999999999994</ele><time>2026-03-22T07:46:56.394Z</time></trkpt><trkpt lat="43.9360217" lon="11.1118217"><ele>404.0</ele><time>2026-03-22T07:46:58.393Z</time></trkpt><trkpt lat="43.9360667" lon="11.1117267"><ele>403.99999999999994</ele><time>2026-03-22T07:47:00.394Z</time></trkpt><trkpt lat="43.9361167" lon="11.1116433"><ele>404.0</ele><time>2026-03-22T07:47:02.394Z</time></trkpt><trkpt lat="43.9361767" lon="11.111555"><ele>404.0</ele><time>2026-03-22T07:47:04.393Z</time></trkpt><trkpt lat="43.9362317" lon="11.1114883"><ele>404.0</ele><time>2026-03-22T07:47:06.393Z</time></trkpt><trkpt lat="43.93628" lon="11.1114183"><ele>403.99999999999994</ele><time>2026-03-22T07:47:08.393Z</time></trkpt><trkpt lat="43.93632" lon="11.111325"><ele>404.0</ele><time>2026-03-22T07:47:10.393Z</time></trkpt><trkpt lat="43.9363417" lon="11.1112267"><ele>403.3333333333333</ele><time>2026-03-22T07:47:13.394Z</time></trkpt><trkpt lat="43.9363733" lon="11.1111333"><ele>402.66666666666663</ele><time>2026-03-22T07:47:19.393Z</time></trkpt><trkpt lat="43.93634" lon="11.1110333"><ele>402.0</ele><time>2026-03-22T07:47:22.394Z</time></trkpt><trkpt lat="43.936285" lon="11.110955"><ele>401.33333333333337</ele><time>2026-03-22T07:47:24.394Z</time></trkpt><trkpt lat="43.9362517" lon="11.1108683"><ele>400.6666666666667</ele><time>2026-03-22T07:47:26.393Z</time></trkpt><trkpt lat="43.9362517" lon="11.1107583"><ele>400.0</ele><time>2026-03-22T07:47:29.394Z</time></trkpt><trkpt lat="43.9363583" lon="11.1106617"><ele>400.00000000000006</ele><time>2026-03-22T07:47:31.393Z</time></trkpt><trkpt lat="43.93644" lon="11.1105983"><ele>400.0</ele><time>2026-03-22T07:47:32.394Z</time></trkpt><trkpt lat="43.9365067" lon="11.11054"><ele>400.0</ele><time>2026-03-22T07:47:33.394Z</time></trkpt><trkpt lat="43.9365717" lon="11.11048"><ele>400.0</ele><time>2026-03-22T07:47:34.394Z</time></trkpt><trkpt lat="43.93664" lon="11.11041"><ele>400.00000000000006</ele><time>2026-03-22T07:47:35.394Z</time></trkpt><trkpt lat="43.9367217" lon="11.1103333"><ele>400.0</ele><time>2026-03-22T07:47:36.394Z</time></trkpt><trkpt lat="43.93679" lon="11.1102683"><ele>399.0</ele><time>2026-03-22T07:47:37.393Z</time></trkpt><trkpt lat="43.9368617" lon="11.1102017"><ele>398.0</ele><time>2026-03-22T07:47:38.394Z</time></trkpt><trkpt lat="43.9369333" lon="11.1101183"><ele>397.0</ele><time>2026-03-22T07:47:39.393Z</time></trkpt><trkpt lat="43.9370017" lon="11.1100433"><ele>396.0</ele><time>2026-03-22T07:47:40.394Z</time></trkpt><trkpt lat="43.9370833" lon="11.109975"><ele>395.0</ele><time>2026-03-22T07:47:41.393Z</time></trkpt><trkpt lat="43.937165" lon="11.1099033"><ele>395.0</ele><time>2026-03-22T07:47:42.394Z</time></trkpt><trkpt lat="43.9372517" lon="11.1098133"><ele>395.0</ele><time>2026-03-22T07:47:43.394Z</time></trkpt><trkpt lat="43.93732" lon="11.1097183"><ele>395.0</ele><time>2026-03-22T07:47:44.394Z</time></trkpt><trkpt lat="43.9374033" lon="11.1096117"><ele>395.0</ele><time>2026-03-22T07:47:45.393Z</time></trkpt><trkpt lat="43.9374867" lon="11.1095033"><ele>395.0</ele><time>2026-03-22T07:47:46.393Z</time></trkpt><trkpt lat="43.9375833" lon="11.1093933"><ele>395.2</ele><time>2026-03-22T07:47:47.393Z</time></trkpt><trkpt lat="43.93766" lon="11.109275"><ele>395.4</ele><time>2026-03-22T07:47:48.394Z</time></trkpt><trkpt lat="43.9377267" lon="11.1091633"><ele>395.6</ele><time>2026-03-22T07:47:49.393Z</time></trkpt><trkpt lat="43.93778" lon="11.10905"><ele>395.8</ele><time>2026-03-22T07:47:50.394Z</time></trkpt><trkpt lat="43.9378417" lon="11.1089583"><ele>396.0</ele><time>2026-03-22T07:47:51.393Z</time></trkpt><trkpt lat="43.937915" lon="11.1089033"><ele>396.0</ele><time>2026-03-22T07:47:52.394Z</time></trkpt><trkpt lat="43.937975" lon="11.108835"><ele>396.0</ele><time>2026-03-22T07:47:53.393Z</time></trkpt><trkpt lat="43.93804" lon="11.1087583"><ele>396.0</ele><time>2026-03-22T07:47:54.394Z</time></trkpt><trkpt lat="43.9381033" lon="11.1086633"><ele>396.0</ele><time>2026-03-22T07:47:55.394Z</time></trkpt><trkpt lat="43.9381867" lon="11.108565"><ele>396.0</ele><time>2026-03-22T07:47:56.393Z</time></trkpt><trkpt lat="43.9382517" lon="11.1084683"><ele>396.0</ele><time>2026-03-22T07:47:57.394Z</time></trkpt><trkpt lat="43.9383083" lon="11.10838"><ele>396.0</ele><time>2026-03-22T07:47:58.394Z</time></trkpt><trkpt lat="43.9383583" lon="11.1083033"><ele>396.0</ele><time>2026-03-22T07:47:59.393Z</time></trkpt><trkpt lat="43.9384267" lon="11.1082433"><ele>396.0</ele><time>2026-03-22T07:48:00.394Z</time></trkpt><trkpt lat="43.93851" lon="11.1081433"><ele>396.0</ele><time>2026-03-22T07:48:02.394Z</time></trkpt><trkpt lat="43.9385717" lon="11.1081033"><ele>396.0</ele><time>2026-03-22T07:48:03.393Z</time></trkpt><trkpt lat="43.9386367" lon="11.108065"><ele>397.0</ele><time>2026-03-22T07:48:04.393Z</time></trkpt><trkpt lat="43.9386917" lon="11.1080167"><ele>398.0</ele><time>2026-03-22T07:48:05.394Z</time></trkpt><trkpt lat="43.93873" lon="11.107905"><ele>399.0</ele><time>2026-03-22T07:48:06.393Z</time></trkpt><trkpt lat="43.938795" lon="11.1078367"><ele>400.0</ele><time>2026-03-22T07:48:07.393Z</time></trkpt><trkpt lat="43.9388583" lon="11.1077567"><ele>401.0</ele><time>2026-03-22T07:48:08.393Z</time></trkpt><trkpt lat="43.938915" lon="11.1076717"><ele>402.0</ele><time>2026-03-22T07:48:09.393Z</time></trkpt><trkpt lat="43.9389583" lon="11.1075833"><ele>402.0</ele><time>2026-03-22T07:48:10.393Z</time></trkpt><trkpt lat="43.939005" lon="11.1075083"><ele>402.0</ele><time>2026-03-22T07:48:11.393Z</time></trkpt><trkpt lat="43.9390633" lon="11.1074483"><ele>402.0</ele><time>2026-03-22T07:48:12.394Z</time></trkpt><trkpt lat="43.9391117" lon="11.1073633"><ele>402.0</ele><time>2026-03-22T07:48:13.393Z</time></trkpt><trkpt lat="43.939155" lon="11.1072717"><ele>402.0</ele><time>2026-03-22T07:48:14.394Z</time></trkpt><trkpt lat="43.9392" lon="11.1071933"><ele>402.0</ele><time>2026-03-22T07:48:15.394Z</time></trkpt><trkpt lat="43.9392433" lon="11.1071283"><ele>402.0</ele><time>2026-03-22T07:48:16.393Z</time></trkpt><trkpt lat="43.9393067" lon="11.1070083"><ele>404.0</ele><time>2026-03-22T07:48:18.394Z</time></trkpt><trkpt lat="43.9393433" lon="11.1069"><ele>406.0</ele><time>2026-03-22T07:48:20.394Z</time></trkpt><trkpt lat="43.9394133" lon="11.1067767"><ele>408.0</ele><time>2026-03-22T07:48:22.393Z</time></trkpt><trkpt lat="43.939485" lon="11.10664"><ele>410.0</ele><time>2026-03-22T07:48:24.393Z</time></trkpt><trkpt lat="43.93956" lon="11.10653"><ele>412.0</ele><time>2026-03-22T07:48:26.393Z</time></trkpt><trkpt lat="43.939615" lon="11.10646"><ele>412.00000000000006</ele><time>2026-03-22T07:48:28.393Z</time></trkpt><trkpt lat="43.9396667" lon="11.1063883"><ele>412.0</ele><time>2026-03-22T07:48:31.394Z</time></trkpt><trkpt lat="43.9397233" lon="11.106305"><ele>412.0</ele><time>2026-03-22T07:48:34.394Z</time></trkpt><trkpt lat="43.9397317" lon="11.1062033"><ele>412.0</ele><time>2026-03-22T07:48:36.393Z</time></trkpt><trkpt lat="43.939775" lon="11.1061067"><ele>412.00000000000006</ele><time>2026-03-22T07:48:39.393Z</time></trkpt><trkpt lat="43.9398283" lon="11.10604"><ele>412.0</ele><time>2026-03-22T07:48:41.393Z</time></trkpt><trkpt lat="43.93985" lon="11.10592"><ele>412.00000000000006</ele><time>2026-03-22T07:48:43.394Z</time></trkpt><trkpt lat="43.9398717" lon="11.1057967"><ele>412.0</ele><time>2026-03-22T07:48:45.393Z</time></trkpt><trkpt lat="43.9399267" lon="11.1056917"><ele>412.0</ele><time>2026-03-22T07:48:47.394Z</time></trkpt><trkpt lat="43.9399867" lon="11.1056133"><ele>412.0</ele><time>2026-03-22T07:48:49.394Z</time></trkpt><trkpt lat="43.940035" lon="11.1055417"><ele>412.00000000000006</ele><time>2026-03-22T07:48:52.393Z</time></trkpt><trkpt lat="43.9401" lon="11.1055083"><ele>412.0</ele><time>2026-03-22T07:48:58.394Z</time></trkpt><trkpt lat="43.9401667" lon="11.1054983"><ele>411.0</ele><time>2026-03-22T07:49:00.394Z</time></trkpt><trkpt lat="43.9402667" lon="11.1055233"><ele>410.0</ele><time>2026-03-22T07:49:02.394Z</time></trkpt><trkpt lat="43.9403733" lon="11.105575"><ele>409.0</ele><time>2026-03-22T07:49:04.393Z</time></trkpt><trkpt lat="43.9404333" lon="11.1056417"><ele>408.0</ele><time>2026-03-22T07:49:06.393Z</time></trkpt><trkpt lat="43.9405367" lon="11.1056933"><ele>407.0</ele><time>2026-03-22T07:49:08.392Z</time></trkpt><trkpt lat="43.9406" lon="11.105725"><ele>409.66666666666663</ele><time>2026-03-22T07:49:09.392Z</time></trkpt><trkpt lat="43.9406683" lon="11.1057533"><ele>412.3333333333333</ele><time>2026-03-22T07:49:10.393Z</time></trkpt><trkpt lat="43.9407417" lon="11.1057783"><ele>415.0</ele><time>2026-03-22T07:49:11.392Z</time></trkpt><trkpt lat="43.9408167" lon="11.10581"><ele>417.66666666666663</ele><time>2026-03-22T07:49:12.392Z</time></trkpt><trkpt lat="43.9408967" lon="11.10585"><ele>420.3333333333333</ele><time>2026-03-22T07:49:13.393Z</time></trkpt><trkpt lat="43.9409883" lon="11.105885"><ele>423.0</ele><time>2026-03-22T07:49:14.393Z</time></trkpt><trkpt lat="43.9410733" lon="11.1059117"><ele>424.0</ele><time>2026-03-22T07:49:15.392Z</time></trkpt><trkpt lat="43.9411367" lon="11.1059317"><ele>425.0</ele><time>2026-03-22T07:49:16.392Z</time></trkpt><trkpt lat="43.9412067" lon="11.105935"><ele>425.99999999999994</ele><time>2026-03-22T07:49:17.393Z</time></trkpt><trkpt lat="43.94127" lon="11.1059183"><ele>427.0</ele><time>2026-03-22T07:49:18.392Z</time></trkpt><trkpt lat="43.9414083" lon="11.1058867"><ele>428.0</ele><time>2026-03-22T07:49:19.392Z</time></trkpt><trkpt lat="43.94152" lon="11.1058517"><ele>427.99999999999994</ele><time>2026-03-22T07:49:20.393Z</time></trkpt><trkpt lat="43.9416167" lon="11.105815"><ele>428.0</ele><time>2026-03-22T07:49:21.392Z</time></trkpt><trkpt lat="43.9416967" lon="11.105785"><ele>428.0</ele><time>2026-03-22T07:49:22.392Z</time></trkpt><trkpt lat="43.9417717" lon="11.1057633"><ele>428.0</ele><time>2026-03-22T07:49:23.392Z</time></trkpt><trkpt lat="43.941855" lon="11.1057517"><ele>427.99999999999994</ele><time>2026-03-22T07:49:24.393Z</time></trkpt><trkpt lat="43.9419467" lon="11.105745"><ele>428.0</ele><time>2026-03-22T07:49:25.393Z</time></trkpt><trkpt lat="43.9420367" lon="11.1057433"><ele>426.8333333333333</ele><time>2026-03-22T07:49:26.393Z</time></trkpt><trkpt lat="43.942125" lon="11.105745"><ele>425.66666666666663</ele><time>2026-03-22T07:49:27.392Z</time></trkpt><trkpt lat="43.9421933" lon="11.10575"><ele>424.5</ele><time>2026-03-22T07:49:28.394Z</time></trkpt><trkpt lat="43.9423233" lon="11.1057217"><ele>423.33333333333337</ele><time>2026-03-22T07:49:30.394Z</time></trkpt><trkpt lat="43.942395" lon="11.10569"><ele>422.1666666666667</ele><time>2026-03-22T07:49:31.394Z</time></trkpt><trkpt lat="43.9424683" lon="11.1056483"><ele>421.0</ele><time>2026-03-22T07:49:32.393Z</time></trkpt><trkpt lat="43.9425317" lon="11.1056133"><ele>421.00000000000006</ele><time>2026-03-22T07:49:33.393Z</time></trkpt><trkpt lat="43.9426" lon="11.1055883"><ele>421.0</ele><time>2026-03-22T07:49:34.394Z</time></trkpt><trkpt lat="43.9427167" lon="11.1055533"><ele>421.0</ele><time>2026-03-22T07:49:36.393Z</time></trkpt><trkpt lat="43.942815" lon="11.1055633"><ele>421.0</ele><time>2026-03-22T07:49:38.394Z</time></trkpt><trkpt lat="43.94289" lon="11.1055683"><ele>421.00000000000006</ele><time>2026-03-22T07:49:39.394Z</time></trkpt><trkpt lat="43.9429733" lon="11.1055583"><ele>421.0</ele><time>2026-03-22T07:49:40.393Z</time></trkpt><trkpt lat="43.9430733" lon="11.1055467"><ele>421.00000000000006</ele><time>2026-03-22T07:49:41.393Z</time></trkpt><trkpt lat="43.943165" lon="11.1055367"><ele>421.0</ele><time>2026-03-22T07:49:42.393Z</time></trkpt><trkpt lat="43.9432533" lon="11.1055367"><ele>421.0</ele><time>2026-03-22T07:49:43.393Z</time></trkpt><trkpt lat="43.943335" lon="11.10554"><ele>421.0</ele><time>2026-03-22T07:49:44.393Z</time></trkpt><trkpt lat="43.9434183" lon="11.1055567"><ele>421.00000000000006</ele><time>2026-03-22T07:49:45.393Z</time></trkpt><trkpt lat="43.9435067" lon="11.1055717"><ele>421.0</ele><time>2026-03-22T07:49:46.393Z</time></trkpt><trkpt lat="43.9435983" lon="11.1055833"><ele>421.6666666666667</ele><time>2026-03-22T07:49:47.393Z</time></trkpt><trkpt lat="43.9436817" lon="11.1056"><ele>422.33333333333337</ele><time>2026-03-22T07:49:48.393Z</time></trkpt><trkpt lat="43.9437617" lon="11.105615"><ele>423.0</ele><time>2026-03-22T07:49:49.394Z</time></trkpt><trkpt lat="43.9438333" lon="11.105625"><ele>423.66666666666663</ele><time>2026-03-22T07:49:50.393Z</time></trkpt><trkpt lat="43.9438967" lon="11.1056267"><ele>424.3333333333333</ele><time>2026-03-22T07:49:51.394Z</time></trkpt><trkpt lat="43.9440017" lon="11.105625"><ele>425.0</ele><time>2026-03-22T07:49:53.394Z</time></trkpt><trkpt lat="43.9440667" lon="11.1056183"><ele>425.0</ele><time>2026-03-22T07:49:54.394Z</time></trkpt><trkpt lat="43.944145" lon="11.10561"><ele>425.0</ele><time>2026-03-22T07:49:55.394Z</time></trkpt><trkpt lat="43.9442083" lon="11.1056067"><ele>425.0</ele><time>2026-03-22T07:49:56.393Z</time></trkpt><trkpt lat="43.9442717" lon="11.10561"><ele>425.0</ele><time>2026-03-22T07:49:57.393Z</time></trkpt><trkpt lat="43.9443417" lon="11.1056083"><ele>425.0</ele><time>2026-03-22T07:49:58.394Z</time></trkpt><trkpt lat="43.9444183" lon="11.1056017"><ele>425.0</ele><time>2026-03-22T07:49:59.393Z</time></trkpt><trkpt lat="43.944485" lon="11.1055867"><ele>425.0</ele><time>2026-03-22T07:50:00.394Z</time></trkpt><trkpt lat="43.94456" lon="11.1055733"><ele>425.57142857142856</ele><time>2026-03-22T07:50:01.393Z</time></trkpt><trkpt lat="43.9446267" lon="11.1055533"><ele>426.1428571428571</ele><time>2026-03-22T07:50:02.394Z</time></trkpt><trkpt lat="43.9446917" lon="11.1055467"><ele>426.7142857142857</ele><time>2026-03-22T07:50:03.393Z</time></trkpt><trkpt lat="43.9447567" lon="11.1055417"><ele>427.2857142857143</ele><time>2026-03-22T07:50:04.394Z</time></trkpt><trkpt lat="43.9448267" lon="11.1055383"><ele>427.8571428571429</ele><time>2026-03-22T07:50:05.393Z</time></trkpt><trkpt lat="43.9449" lon="11.1055383"><ele>428.42857142857144</ele><time>2026-03-22T07:50:06.394Z</time></trkpt><trkpt lat="43.9449717" lon="11.1055517"><ele>429.0</ele><time>2026-03-22T07:50:07.394Z</time></trkpt><trkpt lat="43.9450533" lon="11.1055633"><ele>430.6</ele><time>2026-03-22T07:50:08.393Z</time></trkpt><trkpt lat="43.945155" lon="11.105565"><ele>432.2</ele><time>2026-03-22T07:50:09.393Z</time></trkpt><trkpt lat="43.9452767" lon="11.105555"><ele>433.80000000000007</ele><time>2026-03-22T07:50:10.393Z</time></trkpt><trkpt lat="43.9453933" lon="11.1055367"><ele>435.40000000000003</ele><time>2026-03-22T07:50:11.393Z</time></trkpt><trkpt lat="43.9455" lon="11.10552"><ele>437.0</ele><time>2026-03-22T07:50:12.393Z</time></trkpt><trkpt lat="43.9455817" lon="11.1054517"><ele>437.0</ele><time>2026-03-22T07:50:13.393Z</time></trkpt><trkpt lat="43.9456567" lon="11.1053567"><ele>437.00000000000006</ele><time>2026-03-22T07:50:14.394Z</time></trkpt><trkpt lat="43.945695" lon="11.1052183"><ele>437.00000000000006</ele><time>2026-03-22T07:50:15.393Z</time></trkpt><trkpt lat="43.9457417" lon="11.10512"><ele>437.0</ele><time>2026-03-22T07:50:16.394Z</time></trkpt><trkpt lat="43.9458033" lon="11.10502"><ele>437.0</ele><time>2026-03-22T07:50:17.393Z</time></trkpt><trkpt lat="43.9458517" lon="11.1049333"><ele>437.49999999999994</ele><time>2026-03-22T07:50:18.394Z</time></trkpt><trkpt lat="43.9458983" lon="11.1048633"><ele>438.0</ele><time>2026-03-22T07:50:19.394Z</time></trkpt><trkpt lat="43.9459683" lon="11.1047217"><ele>438.5</ele><time>2026-03-22T07:50:21.393Z</time></trkpt><trkpt lat="43.9460083" lon="11.10464"><ele>439.0</ele><time>2026-03-22T07:50:22.393Z</time></trkpt><trkpt lat="43.946065" lon="11.10456"><ele>439.49999999999994</ele><time>2026-03-22T07:50:23.394Z</time></trkpt><trkpt lat="43.946125" lon="11.10448"><ele>440.0</ele><time>2026-03-22T07:50:24.394Z</time></trkpt><trkpt lat="43.9461883" lon="11.1044067"><ele>439.99999999999994</ele><time>2026-03-22T07:50:25.394Z</time></trkpt><trkpt lat="43.9462433" lon="11.1043483"><ele>440.0</ele><time>2026-03-22T07:50:26.393Z</time></trkpt><trkpt lat="43.946345" lon="11.1042767"><ele>440.0</ele><time>2026-03-22T07:50:28.394Z</time></trkpt><trkpt lat="43.9464283" lon="11.1042367"><ele>440.0</ele><time>2026-03-22T07:50:30.393Z</time></trkpt><trkpt lat="43.9464967" lon="11.1042283"><ele>439.99999999999994</ele><time>2026-03-22T07:50:32.394Z</time></trkpt><trkpt lat="43.9465767" lon="11.1041983"><ele>440.0</ele><time>2026-03-22T07:50:35.394Z</time></trkpt><trkpt lat="43.94665" lon="11.10415"><ele>441.4</ele><time>2026-03-22T07:50:38.393Z</time></trkpt><trkpt lat="43.9467333" lon="11.104095"><ele>442.8</ele><time>2026-03-22T07:50:41.394Z</time></trkpt><trkpt lat="43.94679" lon="11.1040317"><ele>444.20000000000005</ele><time>2026-03-22T07:50:43.394Z</time></trkpt><trkpt lat="43.9468633" lon="11.1039583"><ele>445.6</ele><time>2026-03-22T07:50:45.394Z</time></trkpt><trkpt lat="43.9469267" lon="11.103855"><ele>447.0</ele><time>2026-03-22T07:50:47.393Z</time></trkpt><trkpt lat="43.947" lon="11.1037533"><ele>447.3333333333333</ele><time>2026-03-22T07:50:49.394Z</time></trkpt><trkpt lat="43.9470867" lon="11.1036417"><ele>447.66666666666663</ele><time>2026-03-22T07:50:51.393Z</time></trkpt><trkpt lat="43.9471367" lon="11.10357"><ele>448.0</ele><time>2026-03-22T07:50:52.394Z</time></trkpt><trkpt lat="43.9471833" lon="11.1034867"><ele>448.3333333333333</ele><time>2026-03-22T07:50:53.393Z</time></trkpt><trkpt lat="43.9472317" lon="11.103415"><ele>448.66666666666663</ele><time>2026-03-22T07:50:54.394Z</time></trkpt><trkpt lat="43.9472833" lon="11.1033217"><ele>449.0</ele><time>2026-03-22T07:50:55.393Z</time></trkpt><trkpt lat="43.9473283" lon="11.10324"><ele>448.3333333333333</ele><time>2026-03-22T07:50:56.394Z</time></trkpt><trkpt lat="43.94738" lon="11.1031383"><ele>447.66666666666663</ele><time>2026-03-22T07:50:57.393Z</time></trkpt><trkpt lat="43.947425" lon="11.1030483"><ele>447.0</ele><time>2026-03-22T07:50:58.394Z</time></trkpt><trkpt lat="43.9474733" lon="11.102965"><ele>446.33333333333337</ele><time>2026-03-22T07:50:59.393Z</time></trkpt><trkpt lat="43.947515" lon="11.10287"><ele>445.6666666666667</ele><time>2026-03-22T07:51:00.393Z</time></trkpt><trkpt lat="43.9475567" lon="11.1027767"><ele>445.0</ele><time>2026-03-22T07:51:01.394Z</time></trkpt><trkpt lat="43.9475967" lon="11.1026783"><ele>446.1666666666667</ele><time>2026-03-22T07:51:02.393Z</time></trkpt><trkpt lat="43.9476167" lon="11.1025867"><ele>447.33333333333337</ele><time>2026-03-22T07:51:03.393Z</time></trkpt><trkpt lat="43.9476583" lon="11.1024933"><ele>448.5</ele><time>2026-03-22T07:51:04.394Z</time></trkpt><trkpt lat="43.9476983" lon="11.1024"><ele>449.66666666666663</ele><time>2026-03-22T07:51:05.393Z</time></trkpt><trkpt lat="43.9477417" lon="11.1023083"><ele>450.8333333333333</ele><time>2026-03-22T07:51:06.393Z</time></trkpt><trkpt lat="43.9477917" lon="11.1022133"><ele>452.0</ele><time>2026-03-22T07:51:07.394Z</time></trkpt><trkpt lat="43.9478567" lon="11.102125"><ele>451.99999999999994</ele><time>2026-03-22T07:51:08.393Z</time></trkpt><trkpt lat="43.9479117" lon="11.102045"><ele>452.0</ele><time>2026-03-22T07:51:09.394Z</time></trkpt><trkpt lat="43.9479617" lon="11.1019617"><ele>452.0</ele><time>2026-03-22T07:51:10.394Z</time></trkpt><trkpt lat="43.9480183" lon="11.1018883"><ele>452.0</ele><time>2026-03-22T07:51:11.393Z</time></trkpt><trkpt lat="43.9480667" lon="11.1018117"><ele>451.99999999999994</ele><time>2026-03-22T07:51:12.394Z</time></trkpt><trkpt lat="43.94812" lon="11.1017"><ele>452.0</ele><time>2026-03-22T07:51:13.393Z</time></trkpt><trkpt lat="43.948175" lon="11.1016317"><ele>451.40000000000003</ele><time>2026-03-22T07:51:14.393Z</time></trkpt><trkpt lat="43.9482217" lon="11.101565"><ele>450.80000000000007</ele><time>2026-03-22T07:51:15.394Z</time></trkpt><trkpt lat="43.9482667" lon="11.10141"><ele>450.2</ele><time>2026-03-22T07:51:17.393Z</time></trkpt><trkpt lat="43.9482833" lon="11.1013"><ele>449.6</ele><time>2026-03-22T07:51:18.394Z</time></trkpt><trkpt lat="43.9482917" lon="11.10117"><ele>449.0</ele><time>2026-03-22T07:51:19.394Z</time></trkpt><trkpt lat="43.9482817" lon="11.1010217"><ele>449.0</ele><time>2026-03-22T07:51:20.393Z</time></trkpt><trkpt lat="43.948265" lon="11.100865"><ele>449.0</ele><time>2026-03-22T07:51:21.394Z</time></trkpt><trkpt lat="43.9482433" lon="11.100705"><ele>449.0</ele><time>2026-03-22T07:51:22.394Z</time></trkpt><trkpt lat="43.9482233" lon="11.10054"><ele>449.0</ele><time>2026-03-22T07:51:23.393Z</time></trkpt><trkpt lat="43.9482117" lon="11.1003817"><ele>449.4</ele><time>2026-03-22T07:51:24.394Z</time></trkpt><trkpt lat="43.9482" lon="11.1002367"><ele>449.79999999999995</ele><time>2026-03-22T07:51:25.394Z</time></trkpt><trkpt lat="43.9481867" lon="11.1001"><ele>450.20000000000005</ele><time>2026-03-22T07:51:26.393Z</time></trkpt><trkpt lat="43.9481817" lon="11.0999683"><ele>450.6</ele><time>2026-03-22T07:51:27.394Z</time></trkpt><trkpt lat="43.9481867" lon="11.0998417"><ele>451.0</ele><time>2026-03-22T07:51:28.394Z</time></trkpt><trkpt lat="43.94819" lon="11.0997167"><ele>451.00000000000006</ele><time>2026-03-22T07:51:29.393Z</time></trkpt><trkpt lat="43.9481983" lon="11.0995933"><ele>451.0</ele><time>2026-03-22T07:51:30.393Z</time></trkpt><trkpt lat="43.9482067" lon="11.09947"><ele>451.0</ele><time>2026-03-22T07:51:31.394Z</time></trkpt><trkpt lat="43.9482133" lon="11.099345"><ele>451.0</ele><time>2026-03-22T07:51:32.393Z</time></trkpt><trkpt lat="43.9482233" lon="11.0992183"><ele>451.00000000000006</ele><time>2026-03-22T07:51:33.394Z</time></trkpt><trkpt lat="43.94824" lon="11.0991067"><ele>451.0</ele><time>2026-03-22T07:51:34.394Z</time></trkpt><trkpt lat="43.9482367" lon="11.09898"><ele>452.20000000000005</ele><time>2026-03-22T07:51:35.394Z</time></trkpt><trkpt lat="43.9482267" lon="11.0988517"><ele>453.40000000000003</ele><time>2026-03-22T07:51:36.393Z</time></trkpt><trkpt lat="43.9482033" lon="11.098725"><ele>454.6</ele><time>2026-03-22T07:51:37.394Z</time></trkpt><trkpt lat="43.94816" lon="11.0986033"><ele>455.8</ele><time>2026-03-22T07:51:38.393Z</time></trkpt><trkpt lat="43.9481017" lon="11.0984817"><ele>457.0</ele><time>2026-03-22T07:51:39.394Z</time></trkpt><trkpt lat="43.94804" lon="11.0983667"><ele>458.40000000000003</ele><time>2026-03-22T07:51:40.394Z</time></trkpt><trkpt lat="43.9479767" lon="11.09825"><ele>459.80000000000007</ele><time>2026-03-22T07:51:41.394Z</time></trkpt><trkpt lat="43.9479217" lon="11.098135"><ele>461.2</ele><time>2026-03-22T07:51:42.394Z</time></trkpt><trkpt lat="43.947855" lon="11.0980267"><ele>462.6</ele><time>2026-03-22T07:51:43.394Z</time></trkpt><trkpt lat="43.9477767" lon="11.0979217"><ele>464.0</ele><time>2026-03-22T07:51:44.393Z</time></trkpt><trkpt lat="43.947685" lon="11.097825"><ele>464.0</ele><time>2026-03-22T07:51:45.393Z</time></trkpt><trkpt lat="43.9475933" lon="11.0977383"><ele>464.0</ele><time>2026-03-22T07:51:46.394Z</time></trkpt><trkpt lat="43.9475017" lon="11.09766"><ele>464.0</ele><time>2026-03-22T07:51:47.394Z</time></trkpt><trkpt lat="43.94742" lon="11.0975867"><ele>464.0</ele><time>2026-03-22T07:51:48.393Z</time></trkpt><trkpt lat="43.94735" lon="11.0975067"><ele>464.0</ele><time>2026-03-22T07:51:49.394Z</time></trkpt><trkpt lat="43.9472967" lon="11.09742"><ele>461.2</ele><time>2026-03-22T07:51:50.393Z</time></trkpt><trkpt lat="43.9472417" lon="11.0973167"><ele>458.4</ele><time>2026-03-22T07:51:51.394Z</time></trkpt><trkpt lat="43.9471917" lon="11.0972083"><ele>455.6</ele><time>2026-03-22T07:51:52.393Z</time></trkpt><trkpt lat="43.9471583" lon="11.0970967"><ele>452.8</ele><time>2026-03-22T07:51:53.394Z</time></trkpt><trkpt lat="43.9471133" lon="11.0969817"><ele>450.0</ele><time>2026-03-22T07:51:54.393Z</time></trkpt><trkpt lat="43.9470983" lon="11.0968533"><ele>450.0</ele><time>2026-03-22T07:51:55.394Z</time></trkpt><trkpt lat="43.947085" lon="11.0967283"><ele>450.0</ele><time>2026-03-22T07:51:56.394Z</time></trkpt><trkpt lat="43.947085" lon="11.096605"><ele>450.0</ele><time>2026-03-22T07:51:57.393Z</time></trkpt><trkpt lat="43.947095" lon="11.0964983"><ele>450.0</ele><time>2026-03-22T07:51:58.393Z</time></trkpt><trkpt lat="43.9471133" lon="11.0964033"><ele>450.0</ele><time>2026-03-22T07:51:59.393Z</time></trkpt><trkpt lat="43.9471333" lon="11.0963"><ele>450.0</ele><time>2026-03-22T07:52:00.394Z</time></trkpt><trkpt lat="43.947145" lon="11.0961917"><ele>450.1666666666667</ele><time>2026-03-22T07:52:01.394Z</time></trkpt><trkpt lat="43.9471633" lon="11.0960733"><ele>450.33333333333337</ele><time>2026-03-22T07:52:02.393Z</time></trkpt><trkpt lat="43.9471867" lon="11.0959583"><ele>450.5</ele><time>2026-03-22T07:52:03.394Z</time></trkpt><trkpt lat="43.9472167" lon="11.0958583"><ele>450.6666666666667</ele><time>2026-03-22T07:52:04.394Z</time></trkpt><trkpt lat="43.9472533" lon="11.0957617"><ele>450.83333333333337</ele><time>2026-03-22T07:52:05.393Z</time></trkpt><trkpt lat="43.9472917" lon="11.095675"><ele>451.0</ele><time>2026-03-22T07:52:06.394Z</time></trkpt><trkpt lat="43.94733" lon="11.095585"><ele>451.33333333333337</ele><time>2026-03-22T07:52:07.394Z</time></trkpt><trkpt lat="43.94735" lon="11.095485"><ele>451.6666666666667</ele><time>2026-03-22T07:52:08.394Z</time></trkpt><trkpt lat="43.9473583" lon="11.0953767"><ele>452.0</ele><time>2026-03-22T07:52:09.394Z</time></trkpt><trkpt lat="43.9473367" lon="11.0952567"><ele>452.33333333333337</ele><time>2026-03-22T07:52:10.394Z</time></trkpt><trkpt lat="43.94732" lon="11.0951367"><ele>452.6666666666667</ele><time>2026-03-22T07:52:11.393Z</time></trkpt><trkpt lat="43.94732" lon="11.0950183"><ele>453.0</ele><time>2026-03-22T07:52:12.394Z</time></trkpt><trkpt lat="43.94732" lon="11.0948983"><ele>453.6666666666667</ele><time>2026-03-22T07:52:13.393Z</time></trkpt><trkpt lat="43.947325" lon="11.094785"><ele>454.33333333333337</ele><time>2026-03-22T07:52:14.394Z</time></trkpt><trkpt lat="43.9473383" lon="11.0946683"><ele>455.0</ele><time>2026-03-22T07:52:15.394Z</time></trkpt><trkpt lat="43.9473533" lon="11.094545"><ele>455.6666666666667</ele><time>2026-03-22T07:52:16.394Z</time></trkpt><trkpt lat="43.9473617" lon="11.0944167"><ele>456.33333333333337</ele><time>2026-03-22T07:52:17.393Z</time></trkpt><trkpt lat="43.9473617" lon="11.0942867"><ele>457.0</ele><time>2026-03-22T07:52:18.394Z</time></trkpt><trkpt lat="43.9473567" lon="11.09416"><ele>457.83333333333337</ele><time>2026-03-22T07:52:19.393Z</time></trkpt><trkpt lat="43.94735" lon="11.0940367"><ele>458.6666666666667</ele><time>2026-03-22T07:52:20.394Z</time></trkpt><trkpt lat="43.947335" lon="11.09392"><ele>459.5</ele><time>2026-03-22T07:52:21.393Z</time></trkpt><trkpt lat="43.9473083" lon="11.0938117"><ele>460.33333333333337</ele><time>2026-03-22T07:52:22.393Z</time></trkpt><trkpt lat="43.94728" lon="11.093715"><ele>461.1666666666667</ele><time>2026-03-22T07:52:23.394Z</time></trkpt><trkpt lat="43.94723" lon="11.09362"><ele>462.0</ele><time>2026-03-22T07:52:24.393Z</time></trkpt><trkpt lat="43.9471817" lon="11.0935233"><ele>462.0</ele><time>2026-03-22T07:52:25.394Z</time></trkpt><trkpt lat="43.947115" lon="11.0934383"><ele>462.00000000000006</ele><time>2026-03-22T07:52:26.393Z</time></trkpt><trkpt lat="43.94704" lon="11.0933533"><ele>462.00000000000006</ele><time>2026-03-22T07:52:27.393Z</time></trkpt><trkpt lat="43.9469583" lon="11.09329"><ele>462.0</ele><time>2026-03-22T07:52:28.394Z</time></trkpt><trkpt lat="43.9468917" lon="11.0932117"><ele>462.0</ele><time>2026-03-22T07:52:29.393Z</time></trkpt><trkpt lat="43.9468283" lon="11.093135"><ele>461.5</ele><time>2026-03-22T07:52:30.394Z</time></trkpt><trkpt lat="43.94674" lon="11.09307"><ele>461.0</ele><time>2026-03-22T07:52:31.393Z</time></trkpt><trkpt lat="43.9466967" lon="11.0929967"><ele>460.5</ele><time>2026-03-22T07:52:32.394Z</time></trkpt><trkpt lat="43.9466633" lon="11.092915"><ele>460.0</ele><time>2026-03-22T07:52:33.393Z</time></trkpt><trkpt lat="43.9466017" lon="11.0928417"><ele>459.5</ele><time>2026-03-22T07:52:34.393Z</time></trkpt><trkpt lat="43.9465483" lon="11.09276"><ele>459.0</ele><time>2026-03-22T07:52:35.393Z</time></trkpt><trkpt lat="43.9464867" lon="11.0926633"><ele>457.5</ele><time>2026-03-22T07:52:36.393Z</time></trkpt><trkpt lat="43.9464433" lon="11.0925617"><ele>456.0</ele><time>2026-03-22T07:52:37.393Z</time></trkpt><trkpt lat="43.9464083" lon="11.0924583"><ele>454.5</ele><time>2026-03-22T07:52:38.393Z</time></trkpt><trkpt lat="43.946375" lon="11.0923433"><ele>453.0</ele><time>2026-03-22T07:52:39.393Z</time></trkpt><trkpt lat="43.946365" lon="11.092245"><ele>451.5</ele><time>2026-03-22T07:52:40.393Z</time></trkpt><trkpt lat="43.94634" lon="11.0921283"><ele>450.0</ele><time>2026-03-22T07:52:41.393Z</time></trkpt><trkpt lat="43.9463067" lon="11.092015"><ele>447.5</ele><time>2026-03-22T07:52:42.394Z</time></trkpt><trkpt lat="43.9462567" lon="11.0919"><ele>445.0</ele><time>2026-03-22T07:52:43.394Z</time></trkpt><trkpt lat="43.9462167" lon="11.091795"><ele>442.5</ele><time>2026-03-22T07:52:44.393Z</time></trkpt><trkpt lat="43.9461783" lon="11.0917"><ele>440.0</ele><time>2026-03-22T07:52:45.394Z</time></trkpt><trkpt lat="43.94615" lon="11.0916017"><ele>437.5</ele><time>2026-03-22T07:52:46.393Z</time></trkpt><trkpt lat="43.9461433" lon="11.09146"><ele>435.0</ele><time>2026-03-22T07:52:48.393Z</time></trkpt><trkpt lat="43.94624" lon="11.0914183"><ele>432.2</ele><time>2026-03-22T07:52:50.393Z</time></trkpt><trkpt lat="43.946395" lon="11.09144"><ele>429.4</ele><time>2026-03-22T07:52:52.393Z</time></trkpt><trkpt lat="43.9464867" lon="11.0914533"><ele>426.6</ele><time>2026-03-22T07:52:53.393Z</time></trkpt><trkpt lat="43.9465783" lon="11.0914667"><ele>423.8</ele><time>2026-03-22T07:52:54.393Z</time></trkpt><trkpt lat="43.9466667" lon="11.09148"><ele>421.0</ele><time>2026-03-22T07:52:55.393Z</time></trkpt><trkpt lat="43.94676" lon="11.0914983"><ele>421.0</ele><time>2026-03-22T07:52:56.394Z</time></trkpt><trkpt lat="43.9468617" lon="11.0915"><ele>421.0</ele><time>2026-03-22T07:52:57.393Z</time></trkpt><trkpt lat="43.9469333" lon="11.091485"><ele>421.0</ele><time>2026-03-22T07:52:58.393Z</time></trkpt><trkpt lat="43.947095" lon="11.0914267"><ele>421.0</ele><time>2026-03-22T07:53:00.394Z</time></trkpt><trkpt lat="43.947165" lon="11.0913617"><ele>421.0</ele><time>2026-03-22T07:53:01.394Z</time></trkpt><trkpt lat="43.94723" lon="11.0912983"><ele>421.00000000000006</ele><time>2026-03-22T07:53:02.393Z</time></trkpt><trkpt lat="43.94729" lon="11.0912067"><ele>421.0</ele><time>2026-03-22T07:53:03.394Z</time></trkpt><trkpt lat="43.9473467" lon="11.0911133"><ele>421.0</ele><time>2026-03-22T07:53:04.394Z</time></trkpt><trkpt lat="43.9473983" lon="11.0910283"><ele>421.0</ele><time>2026-03-22T07:53:05.394Z</time></trkpt><trkpt lat="43.9474433" lon="11.0909467"><ele>421.00000000000006</ele><time>2026-03-22T07:53:06.393Z</time></trkpt><trkpt lat="43.94747" lon="11.0908567"><ele>421.0</ele><time>2026-03-22T07:53:07.393Z</time></trkpt><trkpt lat="43.9474867" lon="11.0907683"><ele>418.6</ele><time>2026-03-22T07:53:08.394Z</time></trkpt><trkpt lat="43.947485" lon="11.09066"><ele>416.20000000000005</ele><time>2026-03-22T07:53:09.394Z</time></trkpt><trkpt lat="43.9473883" lon="11.0905417"><ele>413.79999999999995</ele><time>2026-03-22T07:53:11.394Z</time></trkpt><trkpt lat="43.9473133" lon="11.0905333"><ele>411.4</ele><time>2026-03-22T07:53:12.393Z</time></trkpt><trkpt lat="43.94725" lon="11.090545"><ele>409.0</ele><time>2026-03-22T07:53:13.394Z</time></trkpt><trkpt lat="43.9471333" lon="11.0905667"><ele>409.00000000000006</ele><time>2026-03-22T07:53:15.393Z</time></trkpt><trkpt lat="43.947025" lon="11.0905283"><ele>409.0</ele><time>2026-03-22T07:53:17.393Z</time></trkpt><trkpt lat="43.94696" lon="11.09045"><ele>409.0</ele><time>2026-03-22T07:53:19.394Z</time></trkpt><trkpt lat="43.94698" lon="11.0903667"><ele>409.0</ele><time>2026-03-22T07:53:20.394Z</time></trkpt><trkpt lat="43.9470033" lon="11.090285"><ele>409.00000000000006</ele><time>2026-03-22T07:53:21.393Z</time></trkpt><trkpt lat="43.9470383" lon="11.0902033"><ele>409.0</ele><time>2026-03-22T07:53:22.394Z</time></trkpt><trkpt lat="43.947095" lon="11.0901117"><ele>409.00000000000006</ele><time>2026-03-22T07:53:23.393Z</time></trkpt><trkpt lat="43.94715" lon="11.0900167"><ele>409.0</ele><time>2026-03-22T07:53:24.394Z</time></trkpt><trkpt lat="43.9472117" lon="11.0899283"><ele>409.0</ele><time>2026-03-22T07:53:25.393Z</time></trkpt><trkpt lat="43.947275" lon="11.089845"><ele>409.0</ele><time>2026-03-22T07:53:26.393Z</time></trkpt><trkpt lat="43.9473333" lon="11.0897767"><ele>409.00000000000006</ele><time>2026-03-22T07:53:27.393Z</time></trkpt><trkpt lat="43.9473933" lon="11.0897283"><ele>409.0</ele><time>2026-03-22T07:53:28.394Z</time></trkpt><trkpt lat="43.947515" lon="11.0897017"><ele>409.4</ele><time>2026-03-22T07:53:30.393Z</time></trkpt><trkpt lat="43.9475833" lon="11.0897317"><ele>409.79999999999995</ele><time>2026-03-22T07:53:31.393Z</time></trkpt><trkpt lat="43.9476617" lon="11.08977"><ele>410.20000000000005</ele><time>2026-03-22T07:53:32.393Z</time></trkpt><trkpt lat="43.9477433" lon="11.0898283"><ele>410.6</ele><time>2026-03-22T07:53:33.393Z</time></trkpt><trkpt lat="43.94782" lon="11.08991"><ele>411.0</ele><time>2026-03-22T07:53:34.393Z</time></trkpt><trkpt lat="43.9479" lon="11.0900083"><ele>411.0</ele><time>2026-03-22T07:53:35.394Z</time></trkpt><trkpt lat="43.94796" lon="11.0900833"><ele>411.0</ele><time>2026-03-22T07:53:36.393Z</time></trkpt><trkpt lat="43.9480367" lon="11.0901517"><ele>411.0</ele><time>2026-03-22T07:53:37.394Z</time></trkpt><trkpt lat="43.948145" lon="11.0902067"><ele>411.0</ele><time>2026-03-22T07:53:39.394Z</time></trkpt><trkpt lat="43.94822" lon="11.0902133"><ele>411.0</ele><time>2026-03-22T07:53:40.393Z</time></trkpt><trkpt lat="43.9482867" lon="11.090215"><ele>411.0</ele><time>2026-03-22T07:53:41.394Z</time></trkpt><trkpt lat="43.9483483" lon="11.0901667"><ele>410.4</ele><time>2026-03-22T07:53:42.393Z</time></trkpt><trkpt lat="43.948395" lon="11.09004"><ele>409.8</ele><time>2026-03-22T07:53:43.393Z</time></trkpt><trkpt lat="43.948435" lon="11.0899283"><ele>409.2</ele><time>2026-03-22T07:53:44.393Z</time></trkpt><trkpt lat="43.9484767" lon="11.0898117"><ele>408.59999999999997</ele><time>2026-03-22T07:53:45.394Z</time></trkpt><trkpt lat="43.948515" lon="11.0897017"><ele>408.0</ele><time>2026-03-22T07:53:46.394Z</time></trkpt><trkpt lat="43.9485567" lon="11.0896017"><ele>408.0</ele><time>2026-03-22T07:53:47.393Z</time></trkpt><trkpt lat="43.9486133" lon="11.0895067"><ele>408.0</ele><time>2026-03-22T07:53:48.393Z</time></trkpt><trkpt lat="43.948675" lon="11.0894217"><ele>408.0</ele><time>2026-03-22T07:53:49.393Z</time></trkpt><trkpt lat="43.9487383" lon="11.0893467"><ele>408.0</ele><time>2026-03-22T07:53:50.393Z</time></trkpt><trkpt lat="43.9488083" lon="11.089285"><ele>408.0</ele><time>2026-03-22T07:53:51.393Z</time></trkpt><trkpt lat="43.9488883" lon="11.089235"><ele>408.0</ele><time>2026-03-22T07:53:52.393Z</time></trkpt><trkpt lat="43.94898" lon="11.0891817"><ele>408.0</ele><time>2026-03-22T07:53:53.393Z</time></trkpt><trkpt lat="43.9490467" lon="11.0891233"><ele>408.0</ele><time>2026-03-22T07:53:54.393Z</time></trkpt><trkpt lat="43.9491317" lon="11.0890467"><ele>408.0</ele><time>2026-03-22T07:53:55.393Z</time></trkpt><trkpt lat="43.94916" lon="11.0889467"><ele>408.0</ele><time>2026-03-22T07:53:56.393Z</time></trkpt><trkpt lat="43.9491967" lon="11.0888367"><ele>408.0</ele><time>2026-03-22T07:53:57.393Z</time></trkpt><trkpt lat="43.949225" lon="11.0887167"><ele>408.0</ele><time>2026-03-22T07:53:58.394Z</time></trkpt><trkpt lat="43.9492417" lon="11.0885733"><ele>409.59999999999997</ele><time>2026-03-22T07:53:59.394Z</time></trkpt><trkpt lat="43.9492683" lon="11.0884533"><ele>411.2</ele><time>2026-03-22T07:54:00.394Z</time></trkpt><trkpt lat="43.9493033" lon="11.088335"><ele>412.8</ele><time>2026-03-22T07:54:01.394Z</time></trkpt><trkpt lat="43.9493267" lon="11.0881983"><ele>414.4</ele><time>2026-03-22T07:54:02.393Z</time></trkpt><trkpt lat="43.9493583" lon="11.0880667"><ele>416.0</ele><time>2026-03-22T07:54:03.393Z</time></trkpt><trkpt lat="43.9493983" lon="11.08794"><ele>416.0</ele><time>2026-03-22T07:54:04.394Z</time></trkpt><trkpt lat="43.9494467" lon="11.0878033"><ele>416.0</ele><time>2026-03-22T07:54:05.393Z</time></trkpt><trkpt lat="43.9495" lon="11.08767"><ele>416.0</ele><time>2026-03-22T07:54:06.394Z</time></trkpt><trkpt lat="43.9495533" lon="11.0875317"><ele>416.0</ele><time>2026-03-22T07:54:07.394Z</time></trkpt><trkpt lat="43.9496117" lon="11.08738"><ele>410.5</ele><time>2026-03-22T07:54:08.393Z</time></trkpt><trkpt lat="43.9496783" lon="11.0872317"><ele>405.0</ele><time>2026-03-22T07:54:09.393Z</time></trkpt><trkpt lat="43.94974" lon="11.0870783"><ele>399.5</ele><time>2026-03-22T07:54:10.393Z</time></trkpt><trkpt lat="43.9497983" lon="11.0869367"><ele>394.0</ele><time>2026-03-22T07:54:11.394Z</time></trkpt><trkpt lat="43.94984" lon="11.0867867"><ele>394.0</ele><time>2026-03-22T07:54:12.394Z</time></trkpt><trkpt lat="43.9498833" lon="11.0866317"><ele>394.0</ele><time>2026-03-22T07:54:13.393Z</time></trkpt><trkpt lat="43.94993" lon="11.08648"><ele>394.0</ele><time>2026-03-22T07:54:14.393Z</time></trkpt><trkpt lat="43.9499783" lon="11.0863333"><ele>394.0</ele><time>2026-03-22T07:54:15.393Z</time></trkpt><trkpt lat="43.950035" lon="11.0862017"><ele>395.2</ele><time>2026-03-22T07:54:16.393Z</time></trkpt><trkpt lat="43.9500883" lon="11.0860917"><ele>396.4</ele><time>2026-03-22T07:54:17.394Z</time></trkpt><trkpt lat="43.950155" lon="11.085985"><ele>397.6</ele><time>2026-03-22T07:54:18.394Z</time></trkpt><trkpt lat="43.9502233" lon="11.0858967"><ele>398.8</ele><time>2026-03-22T07:54:19.393Z</time></trkpt><trkpt lat="43.9502933" lon="11.0858167"><ele>400.0</ele><time>2026-03-22T07:54:20.393Z</time></trkpt><trkpt lat="43.9503667" lon="11.0857333"><ele>397.50000000000006</ele><time>2026-03-22T07:54:21.393Z</time></trkpt><trkpt lat="43.9504467" lon="11.0856633"><ele>395.0</ele><time>2026-03-22T07:54:22.393Z</time></trkpt><trkpt lat="43.9505383" lon="11.0856417"><ele>392.5</ele><time>2026-03-22T07:54:23.392Z</time></trkpt><trkpt lat="43.9506133" lon="11.08561"><ele>390.0</ele><time>2026-03-22T07:54:24.392Z</time></trkpt><trkpt lat="43.9506817" lon="11.0855667"><ele>387.50000000000006</ele><time>2026-03-22T07:54:25.392Z</time></trkpt><trkpt lat="43.950755" lon="11.0855217"><ele>385.0</ele><time>2026-03-22T07:54:26.392Z</time></trkpt><trkpt lat="43.9508117" lon="11.0854533"><ele>385.0</ele><time>2026-03-22T07:54:27.392Z</time></trkpt><trkpt lat="43.9508567" lon="11.0852733"><ele>385.0</ele><time>2026-03-22T07:54:29.392Z</time></trkpt><trkpt lat="43.9508883" lon="11.0851383"><ele>385.0</ele><time>2026-03-22T07:54:30.394Z</time></trkpt><trkpt lat="43.95095" lon="11.0850167"><ele>385.0</ele><time>2026-03-22T07:54:31.392Z</time></trkpt><trkpt lat="43.9510233" lon="11.084915"><ele>389.2</ele><time>2026-03-22T07:54:32.392Z</time></trkpt><trkpt lat="43.9511" lon="11.084805"><ele>393.4</ele><time>2026-03-22T07:54:33.392Z</time></trkpt><trkpt lat="43.9511683" lon="11.084685"><ele>397.6</ele><time>2026-03-22T07:54:34.392Z</time></trkpt><trkpt lat="43.951235" lon="11.08458"><ele>401.8</ele><time>2026-03-22T07:54:35.393Z</time></trkpt><trkpt lat="43.9512967" lon="11.0844683"><ele>406.0</ele><time>2026-03-22T07:54:36.392Z</time></trkpt><trkpt lat="43.9513717" lon="11.084355"><ele>406.0</ele><time>2026-03-22T07:54:37.392Z</time></trkpt><trkpt lat="43.9514517" lon="11.0842383"><ele>406.0</ele><time>2026-03-22T07:54:38.393Z</time></trkpt><trkpt lat="43.9515383" lon="11.08412"><ele>406.0</ele><time>2026-03-22T07:54:39.392Z</time></trkpt><trkpt lat="43.9516283" lon="11.0839983"><ele>406.0</ele><time>2026-03-22T07:54:40.393Z</time></trkpt><trkpt lat="43.951725" lon="11.0838833"><ele>412.5</ele><time>2026-03-22T07:54:41.392Z</time></trkpt><trkpt lat="43.951825" lon="11.0837683"><ele>419.0</ele><time>2026-03-22T07:54:42.393Z</time></trkpt><trkpt lat="43.9519233" lon="11.083655"><ele>425.5</ele><time>2026-03-22T07:54:43.392Z</time></trkpt><trkpt lat="43.9520083" lon="11.0835283"><ele>432.0</ele><time>2026-03-22T07:54:44.392Z</time></trkpt><trkpt lat="43.9520617" lon="11.0834017"><ele>432.0</ele><time>2026-03-22T07:54:45.393Z</time></trkpt><trkpt lat="43.9520933" lon="11.0832717"><ele>432.00000000000006</ele><time>2026-03-22T07:54:46.394Z</time></trkpt><trkpt lat="43.9521367" lon="11.083145"><ele>432.00000000000006</ele><time>2026-03-22T07:54:47.394Z</time></trkpt><trkpt lat="43.9521983" lon="11.0830267"><ele>432.0</ele><time>2026-03-22T07:54:48.393Z</time></trkpt><trkpt lat="43.9522733" lon="11.08292"><ele>432.0</ele><time>2026-03-22T07:54:49.393Z</time></trkpt><trkpt lat="43.9523617" lon="11.0828233"><ele>435.0</ele><time>2026-03-22T07:54:50.393Z</time></trkpt><trkpt lat="43.9524383" lon="11.0826933"><ele>438.0</ele><time>2026-03-22T07:54:51.394Z</time></trkpt><trkpt lat="43.95252" lon="11.0825767"><ele>441.0</ele><time>2026-03-22T07:54:52.393Z</time></trkpt><trkpt lat="43.9525967" lon="11.0824417"><ele>444.0</ele><time>2026-03-22T07:54:53.394Z</time></trkpt><trkpt lat="43.9526767" lon="11.0823233"><ele>438.6</ele><time>2026-03-22T07:54:54.393Z</time></trkpt><trkpt lat="43.9527667" lon="11.082225"><ele>433.2</ele><time>2026-03-22T07:54:55.394Z</time></trkpt><trkpt lat="43.952855" lon="11.0821317"><ele>427.8</ele><time>2026-03-22T07:54:56.393Z</time></trkpt><trkpt lat="43.95293" lon="11.0820267"><ele>422.40000000000003</ele><time>2026-03-22T07:54:57.393Z</time></trkpt><trkpt lat="43.952995" lon="11.081915"><ele>417.0</ele><time>2026-03-22T07:54:58.393Z</time></trkpt><trkpt lat="43.953065" lon="11.08179"><ele>417.0</ele><time>2026-03-22T07:54:59.393Z</time></trkpt><trkpt lat="43.9531367" lon="11.08165"><ele>417.0</ele><time>2026-03-22T07:55:00.393Z</time></trkpt><trkpt lat="43.953205" lon="11.0815067"><ele>417.0</ele><time>2026-03-22T07:55:01.394Z</time></trkpt><trkpt lat="43.9532683" lon="11.0813733"><ele>417.0</ele><time>2026-03-22T07:55:02.393Z</time></trkpt><trkpt lat="43.9533317" lon="11.0812467"><ele>419.0</ele><time>2026-03-22T07:55:03.393Z</time></trkpt><trkpt lat="43.9533983" lon="11.081125"><ele>421.0</ele><time>2026-03-22T07:55:04.393Z</time></trkpt><trkpt lat="43.9534767" lon="11.0810083"><ele>423.0</ele><time>2026-03-22T07:55:05.394Z</time></trkpt><trkpt lat="43.953565" lon="11.0808917"><ele>425.0</ele><time>2026-03-22T07:55:06.394Z</time></trkpt><trkpt lat="43.9536533" lon="11.0807833"><ele>420.6</ele><time>2026-03-22T07:55:07.394Z</time></trkpt><trkpt lat="43.95374" lon="11.0806933"><ele>416.2</ele><time>2026-03-22T07:55:08.393Z</time></trkpt><trkpt lat="43.9538217" lon="11.0806167"><ele>411.79999999999995</ele><time>2026-03-22T07:55:09.393Z</time></trkpt><trkpt lat="43.9538983" lon="11.0805583"><ele>407.4</ele><time>2026-03-22T07:55:10.394Z</time></trkpt><trkpt lat="43.953965" lon="11.0804717"><ele>403.0</ele><time>2026-03-22T07:55:11.394Z</time></trkpt><trkpt lat="43.9540417" lon="11.0803983"><ele>403.00000000000006</ele><time>2026-03-22T07:55:12.393Z</time></trkpt><trkpt lat="43.95412" lon="11.08034"><ele>403.0</ele><time>2026-03-22T07:55:13.393Z</time></trkpt><trkpt lat="43.9542" lon="11.0802867"><ele>403.0</ele><time>2026-03-22T07:55:14.394Z</time></trkpt><trkpt lat="43.9542883" lon="11.0802317"><ele>403.0</ele><time>2026-03-22T07:55:15.393Z</time></trkpt><trkpt lat="43.9543633" lon="11.08018"><ele>403.00000000000006</ele><time>2026-03-22T07:55:16.393Z</time></trkpt><trkpt lat="43.954425" lon="11.0801167"><ele>403.0</ele><time>2026-03-22T07:55:17.393Z</time></trkpt><trkpt lat="43.9544767" lon="11.0800383"><ele>405.4</ele><time>2026-03-22T07:55:18.394Z</time></trkpt><trkpt lat="43.954535" lon="11.0799417"><ele>407.79999999999995</ele><time>2026-03-22T07:55:19.394Z</time></trkpt><trkpt lat="43.9545883" lon="11.0798383"><ele>410.2</ele><time>2026-03-22T07:55:20.393Z</time></trkpt><trkpt lat="43.954645" lon="11.07973"><ele>412.6</ele><time>2026-03-22T07:55:21.394Z</time></trkpt><trkpt lat="43.9547017" lon="11.0796333"><ele>415.0</ele><time>2026-03-22T07:55:22.393Z</time></trkpt><trkpt lat="43.9547633" lon="11.0795483"><ele>415.0</ele><time>2026-03-22T07:55:23.394Z</time></trkpt><trkpt lat="43.95483" lon="11.0794583"><ele>415.0</ele><time>2026-03-22T07:55:24.394Z</time></trkpt><trkpt lat="43.9549167" lon="11.0793733"><ele>415.0</ele><time>2026-03-22T07:55:25.394Z</time></trkpt><trkpt lat="43.95501" lon="11.079285"><ele>415.0</ele><time>2026-03-22T07:55:26.394Z</time></trkpt><trkpt lat="43.9551017" lon="11.0791967"><ele>415.0</ele><time>2026-03-22T07:55:27.393Z</time></trkpt><trkpt lat="43.9551917" lon="11.0791033"><ele>418.5</ele><time>2026-03-22T07:55:28.393Z</time></trkpt><trkpt lat="43.9552833" lon="11.0789983"><ele>422.0</ele><time>2026-03-22T07:55:29.394Z</time></trkpt><trkpt lat="43.9553717" lon="11.0788783"><ele>425.5</ele><time>2026-03-22T07:55:30.393Z</time></trkpt><trkpt lat="43.9554517" lon="11.078735"><ele>429.0</ele><time>2026-03-22T07:55:31.394Z</time></trkpt><trkpt lat="43.9555333" lon="11.0785883"><ele>429.0</ele><time>2026-03-22T07:55:32.394Z</time></trkpt><trkpt lat="43.9556183" lon="11.07844"><ele>429.0</ele><time>2026-03-22T07:55:33.393Z</time></trkpt><trkpt lat="43.9557" lon="11.0782883"><ele>429.0</ele><time>2026-03-22T07:55:34.394Z</time></trkpt><trkpt lat="43.9557833" lon="11.0781483"><ele>429.0</ele><time>2026-03-22T07:55:35.393Z</time></trkpt><trkpt lat="43.95586" lon="11.078025"><ele>430.0</ele><time>2026-03-22T07:55:36.393Z</time></trkpt><trkpt lat="43.9559217" lon="11.0779033"><ele>431.0</ele><time>2026-03-22T07:55:37.393Z</time></trkpt><trkpt lat="43.9559883" lon="11.0778283"><ele>432.0</ele><time>2026-03-22T07:55:38.394Z</time></trkpt><trkpt lat="43.956055" lon="11.07777"><ele>433.0</ele><time>2026-03-22T07:55:39.393Z</time></trkpt><trkpt lat="43.9561183" lon="11.07773"><ele>434.0</ele><time>2026-03-22T07:55:40.394Z</time></trkpt><trkpt lat="43.9561767" lon="11.0776967"><ele>435.0</ele><time>2026-03-22T07:55:41.394Z</time></trkpt><trkpt lat="43.9562417" lon="11.0776667"><ele>435.0</ele><time>2026-03-22T07:55:44.394Z</time></trkpt><trkpt lat="43.9563317" lon="11.0776267"><ele>435.0</ele><time>2026-03-22T07:55:47.393Z</time></trkpt><trkpt lat="43.9563767" lon="11.0775217"><ele>435.0</ele><time>2026-03-22T07:55:50.393Z</time></trkpt><trkpt lat="43.95638" lon="11.07741"><ele>435.0</ele><time>2026-03-22T07:55:52.394Z</time></trkpt><trkpt lat="43.95639" lon="11.0772583"><ele>435.0</ele><time>2026-03-22T07:55:54.393Z</time></trkpt><trkpt lat="43.9563867" lon="11.07717"><ele>435.0</ele><time>2026-03-22T07:55:55.394Z</time></trkpt><trkpt lat="43.9563733" lon="11.0770833"><ele>435.6</ele><time>2026-03-22T07:55:56.393Z</time></trkpt><trkpt lat="43.9563467" lon="11.0769217"><ele>436.2</ele><time>2026-03-22T07:55:58.393Z</time></trkpt><trkpt lat="43.956325" lon="11.0767833"><ele>436.79999999999995</ele><time>2026-03-22T07:56:00.394Z</time></trkpt><trkpt lat="43.9563433" lon="11.07664"><ele>437.4</ele><time>2026-03-22T07:56:02.394Z</time></trkpt><trkpt lat="43.956385" lon="11.07649"><ele>438.0</ele><time>2026-03-22T07:56:04.393Z</time></trkpt><trkpt lat="43.9564483" lon="11.07638"><ele>438.0</ele><time>2026-03-22T07:56:06.393Z</time></trkpt><trkpt lat="43.9564917" lon="11.0762517"><ele>438.0</ele><time>2026-03-22T07:56:08.393Z</time></trkpt><trkpt lat="43.9564983" lon="11.076115"><ele>438.0</ele><time>2026-03-22T07:56:10.393Z</time></trkpt><trkpt lat="43.95648" lon="11.075995"><ele>438.0</ele><time>2026-03-22T07:56:12.393Z</time></trkpt><trkpt lat="43.95647" lon="11.0759"><ele>438.0</ele><time>2026-03-22T07:56:14.393Z</time></trkpt><trkpt lat="43.9564667" lon="11.0758033"><ele>438.0</ele><time>2026-03-22T07:56:16.394Z</time></trkpt><trkpt lat="43.9564383" lon="11.0757083"><ele>439.4</ele><time>2026-03-22T07:56:18.394Z</time></trkpt><trkpt lat="43.956395" lon="11.075595"><ele>440.79999999999995</ele><time>2026-03-22T07:56:21.393Z</time></trkpt><trkpt lat="43.95632" lon="11.075455"><ele>442.2</ele><time>2026-03-22T07:56:37.393Z</time></trkpt><trkpt lat="43.9563133" lon="11.075315"><ele>443.6</ele><time>2026-03-22T07:57:02.394Z</time></trkpt><trkpt lat="43.9563283" lon="11.0752117"><ele>445.0</ele><time>2026-03-22T07:57:04.393Z</time></trkpt><trkpt lat="43.956355" lon="11.0751017"><ele>445.0</ele><time>2026-03-22T07:57:06.393Z</time></trkpt><trkpt lat="43.9563833" lon="11.0750017"><ele>445.0</ele><time>2026-03-22T07:57:08.394Z</time></trkpt><trkpt lat="43.9564083" lon="11.0749167"><ele>445.0</ele><time>2026-03-22T07:57:10.394Z</time></trkpt><trkpt lat="43.9564333" lon="11.0748267"><ele>445.0</ele><time>2026-03-22T07:57:13.394Z</time></trkpt><trkpt lat="43.95646" lon="11.0747317"><ele>445.0</ele><time>2026-03-22T07:57:16.394Z</time></trkpt><trkpt lat="43.9564517" lon="11.0746233"><ele>445.0</ele><time>2026-03-22T07:57:19.394Z</time></trkpt><trkpt lat="43.9564183" lon="11.074535"><ele>445.0</ele><time>2026-03-22T07:57:21.394Z</time></trkpt><trkpt lat="43.95637" lon="11.0744333"><ele>446.75</ele><time>2026-03-22T07:57:23.394Z</time></trkpt><trkpt lat="43.9562933" lon="11.0743317"><ele>448.5</ele><time>2026-03-22T07:57:25.393Z</time></trkpt><trkpt lat="43.9562067" lon="11.074255"><ele>450.25</ele><time>2026-03-22T07:57:27.394Z</time></trkpt><trkpt lat="43.9560983" lon="11.074175"><ele>452.0</ele><time>2026-03-22T07:57:29.394Z</time></trkpt><trkpt lat="43.955995" lon="11.0740733"><ele>451.66666666666663</ele><time>2026-03-22T07:57:31.393Z</time></trkpt><trkpt lat="43.95593" lon="11.0739583"><ele>451.3333333333333</ele><time>2026-03-22T07:57:33.394Z</time></trkpt><trkpt lat="43.9559017" lon="11.07384"><ele>451.0</ele><time>2026-03-22T07:57:35.393Z</time></trkpt><trkpt lat="43.9558817" lon="11.0737383"><ele>450.66666666666663</ele><time>2026-03-22T07:57:37.393Z</time></trkpt><trkpt lat="43.955875" lon="11.0736133"><ele>450.3333333333333</ele><time>2026-03-22T07:57:40.394Z</time></trkpt><trkpt lat="43.9558633" lon="11.073515"><ele>450.0</ele><time>2026-03-22T07:57:43.393Z</time></trkpt><trkpt lat="43.9558717" lon="11.0734233"><ele>452.4</ele><time>2026-03-22T07:57:52.393Z</time></trkpt><trkpt lat="43.9559333" lon="11.07332"><ele>454.8</ele><time>2026-03-22T07:57:55.393Z</time></trkpt><trkpt lat="43.9560433" lon="11.0732833"><ele>457.20000000000005</ele><time>2026-03-22T07:57:59.393Z</time></trkpt><trkpt lat="43.9561167" lon="11.073295"><ele>459.6</ele><time>2026-03-22T07:58:01.393Z</time></trkpt><trkpt lat="43.9561717" lon="11.07322"><ele>462.0</ele><time>2026-03-22T07:58:03.394Z</time></trkpt><trkpt lat="43.956205" lon="11.0730567"><ele>463.6</ele><time>2026-03-22T07:58:05.394Z</time></trkpt><trkpt lat="43.956215" lon="11.0729633"><ele>465.20000000000005</ele><time>2026-03-22T07:58:06.394Z</time></trkpt><trkpt lat="43.956215" lon="11.07282"><ele>466.8</ele><time>2026-03-22T07:58:08.393Z</time></trkpt><trkpt lat="43.9562217" lon="11.0726967"><ele>468.4</ele><time>2026-03-22T07:58:10.393Z</time></trkpt><trkpt lat="43.95628" lon="11.0726"><ele>470.0</ele><time>2026-03-22T07:58:12.393Z</time></trkpt><trkpt lat="43.956345" lon="11.0724733"><ele>469.8333333333333</ele><time>2026-03-22T07:58:14.394Z</time></trkpt><trkpt lat="43.95639" lon="11.07231"><ele>469.66666666666663</ele><time>2026-03-22T07:58:16.394Z</time></trkpt><trkpt lat="43.9564017" lon="11.0722"><ele>469.5</ele><time>2026-03-22T07:58:17.394Z</time></trkpt><trkpt lat="43.9564067" lon="11.072085"><ele>469.33333333333337</ele><time>2026-03-22T07:58:18.394Z</time></trkpt><trkpt lat="43.9564033" lon="11.0719783"><ele>469.1666666666667</ele><time>2026-03-22T07:58:19.394Z</time></trkpt><trkpt lat="43.9563983" lon="11.07187"><ele>469.0</ele><time>2026-03-22T07:58:20.393Z</time></trkpt><trkpt lat="43.9563917" lon="11.07176"><ele>469.00000000000006</ele><time>2026-03-22T07:58:21.393Z</time></trkpt><trkpt lat="43.9563833" lon="11.0716333"><ele>469.0</ele><time>2026-03-22T07:58:22.394Z</time></trkpt><trkpt lat="43.956375" lon="11.0715067"><ele>469.0</ele><time>2026-03-22T07:58:23.394Z</time></trkpt><trkpt lat="43.9563767" lon="11.0713767"><ele>469.0</ele><time>2026-03-22T07:58:24.394Z</time></trkpt><trkpt lat="43.9563767" lon="11.0712667"><ele>469.00000000000006</ele><time>2026-03-22T07:58:25.393Z</time></trkpt><trkpt lat="43.9563767" lon="11.0711617"><ele>469.0</ele><time>2026-03-22T07:58:26.394Z</time></trkpt><trkpt lat="43.9563783" lon="11.071055"><ele>469.6666666666667</ele><time>2026-03-22T07:58:27.394Z</time></trkpt><trkpt lat="43.9563867" lon="11.0709517"><ele>470.33333333333337</ele><time>2026-03-22T07:58:28.394Z</time></trkpt><trkpt lat="43.9563883" lon="11.0708533"><ele>471.0</ele><time>2026-03-22T07:58:29.393Z</time></trkpt><trkpt lat="43.9563817" lon="11.0707483"><ele>471.66666666666663</ele><time>2026-03-22T07:58:30.394Z</time></trkpt><trkpt lat="43.9563783" lon="11.07064"><ele>472.3333333333333</ele><time>2026-03-22T07:58:31.394Z</time></trkpt><trkpt lat="43.9563783" lon="11.0705233"><ele>473.0</ele><time>2026-03-22T07:58:32.393Z</time></trkpt><trkpt lat="43.956385" lon="11.0703967"><ele>473.4</ele><time>2026-03-22T07:58:33.393Z</time></trkpt><trkpt lat="43.9563867" lon="11.0702717"><ele>473.79999999999995</ele><time>2026-03-22T07:58:34.393Z</time></trkpt><trkpt lat="43.9563833" lon="11.0701467"><ele>474.2</ele><time>2026-03-22T07:58:35.394Z</time></trkpt><trkpt lat="43.9563867" lon="11.070005"><ele>474.6</ele><time>2026-03-22T07:58:36.394Z</time></trkpt><trkpt lat="43.956395" lon="11.069865"><ele>475.0</ele><time>2026-03-22T07:58:37.393Z</time></trkpt><trkpt lat="43.9564083" lon="11.0697183"><ele>475.75</ele><time>2026-03-22T07:58:38.394Z</time></trkpt><trkpt lat="43.9564217" lon="11.0695683"><ele>476.5</ele><time>2026-03-22T07:58:39.393Z</time></trkpt><trkpt lat="43.95643" lon="11.0694083"><ele>477.25</ele><time>2026-03-22T07:58:40.393Z</time></trkpt><trkpt lat="43.956435" lon="11.0692483"><ele>478.0</ele><time>2026-03-22T07:58:41.393Z</time></trkpt><trkpt lat="43.9564417" lon="11.06908"><ele>479.0</ele><time>2026-03-22T07:58:42.394Z</time></trkpt><trkpt lat="43.9564467" lon="11.0689133"><ele>479.99999999999994</ele><time>2026-03-22T07:58:43.393Z</time></trkpt><trkpt lat="43.9564417" lon="11.0687533"><ele>480.99999999999994</ele><time>2026-03-22T07:58:44.394Z</time></trkpt><trkpt lat="43.9564383" lon="11.0685983"><ele>482.0</ele><time>2026-03-22T07:58:45.393Z</time></trkpt><trkpt lat="43.95643" lon="11.0684567"><ele>483.0</ele><time>2026-03-22T07:58:46.393Z</time></trkpt><trkpt lat="43.9564217" lon="11.068325"><ele>483.6666666666667</ele><time>2026-03-22T07:58:47.393Z</time></trkpt><trkpt lat="43.956425" lon="11.0682017"><ele>484.33333333333337</ele><time>2026-03-22T07:58:48.394Z</time></trkpt><trkpt lat="43.9564367" lon="11.068085"><ele>485.0</ele><time>2026-03-22T07:58:49.393Z</time></trkpt><trkpt lat="43.956445" lon="11.06796"><ele>485.6666666666667</ele><time>2026-03-22T07:58:50.393Z</time></trkpt><trkpt lat="43.956455" lon="11.0678367"><ele>486.33333333333337</ele><time>2026-03-22T07:58:51.394Z</time></trkpt><trkpt lat="43.9564583" lon="11.0677167"><ele>487.0</ele><time>2026-03-22T07:58:52.394Z</time></trkpt><trkpt lat="43.95645" lon="11.067595"><ele>487.0</ele><time>2026-03-22T07:58:53.393Z</time></trkpt><trkpt lat="43.95644" lon="11.067465"><ele>487.00000000000006</ele><time>2026-03-22T07:58:54.393Z</time></trkpt><trkpt lat="43.9564267" lon="11.067335"><ele>487.00000000000006</ele><time>2026-03-22T07:58:55.394Z</time></trkpt><trkpt lat="43.9564083" lon="11.0672017"><ele>487.0</ele><time>2026-03-22T07:58:56.394Z</time></trkpt><trkpt lat="43.9563917" lon="11.0670817"><ele>487.0</ele><time>2026-03-22T07:58:57.393Z</time></trkpt><trkpt lat="43.9563833" lon="11.0669567"><ele>488.40000000000003</ele><time>2026-03-22T07:58:58.394Z</time></trkpt><trkpt lat="43.9563817" lon="11.0668283"><ele>489.80000000000007</ele><time>2026-03-22T07:58:59.393Z</time></trkpt><trkpt lat="43.9563867" lon="11.0667033"><ele>491.2</ele><time>2026-03-22T07:59:00.393Z</time></trkpt><trkpt lat="43.9563983" lon="11.066575"><ele>492.6</ele><time>2026-03-22T07:59:01.394Z</time></trkpt><trkpt lat="43.9564083" lon="11.0664467"><ele>494.0</ele><time>2026-03-22T07:59:02.394Z</time></trkpt><trkpt lat="43.9564133" lon="11.06633"><ele>494.99999999999994</ele><time>2026-03-22T07:59:03.394Z</time></trkpt><trkpt lat="43.956415" lon="11.0662133"><ele>496.0</ele><time>2026-03-22T07:59:04.393Z</time></trkpt><trkpt lat="43.9564067" lon="11.0660967"><ele>497.0</ele><time>2026-03-22T07:59:05.394Z</time></trkpt><trkpt lat="43.9563917" lon="11.06598"><ele>498.0</ele><time>2026-03-22T07:59:06.393Z</time></trkpt><trkpt lat="43.9563783" lon="11.0658633"><ele>498.99999999999994</ele><time>2026-03-22T07:59:07.393Z</time></trkpt><trkpt lat="43.95636" lon="11.065745"><ele>500.0</ele><time>2026-03-22T07:59:08.394Z</time></trkpt><trkpt lat="43.9563367" lon="11.065625"><ele>500.49999999999994</ele><time>2026-03-22T07:59:09.394Z</time></trkpt><trkpt lat="43.95631" lon="11.0655083"><ele>501.0</ele><time>2026-03-22T07:59:10.393Z</time></trkpt><trkpt lat="43.9562833" lon="11.0654017"><ele>501.5</ele><time>2026-03-22T07:59:11.393Z</time></trkpt><trkpt lat="43.9562567" lon="11.0653067"><ele>502.0</ele><time>2026-03-22T07:59:12.394Z</time></trkpt><trkpt lat="43.9562417" lon="11.0652183"><ele>502.49999999999994</ele><time>2026-03-22T07:59:13.393Z</time></trkpt><trkpt lat="43.9562433" lon="11.06508"><ele>503.0</ele><time>2026-03-22T07:59:15.394Z</time></trkpt><trkpt lat="43.9562917" lon="11.0649867"><ele>503.3333333333333</ele><time>2026-03-22T07:59:17.393Z</time></trkpt><trkpt lat="43.9563083" lon="11.0648917"><ele>503.66666666666663</ele><time>2026-03-22T07:59:20.393Z</time></trkpt><trkpt lat="43.9562783" lon="11.0647867"><ele>504.0</ele><time>2026-03-22T07:59:25.394Z</time></trkpt><trkpt lat="43.9562583" lon="11.0646967"><ele>504.33333333333337</ele><time>2026-03-22T07:59:26.394Z</time></trkpt><trkpt lat="43.9562267" lon="11.0645833"><ele>504.6666666666667</ele><time>2026-03-22T07:59:27.393Z</time></trkpt><trkpt lat="43.956205" lon="11.0644483"><ele>505.0</ele><time>2026-03-22T07:59:28.393Z</time></trkpt><trkpt lat="43.95618" lon="11.0643083"><ele>505.00000000000006</ele><time>2026-03-22T07:59:29.393Z</time></trkpt><trkpt lat="43.95615" lon="11.06418"><ele>505.0</ele><time>2026-03-22T07:59:30.392Z</time></trkpt><trkpt lat="43.95612" lon="11.0640633"><ele>505.0</ele><time>2026-03-22T07:59:31.393Z</time></trkpt><trkpt lat="43.956105" lon="11.063945"><ele>505.0</ele><time>2026-03-22T07:59:32.392Z</time></trkpt><trkpt lat="43.956095" lon="11.06383"><ele>505.00000000000006</ele><time>2026-03-22T07:59:33.392Z</time></trkpt><trkpt lat="43.9560967" lon="11.0637317"><ele>505.0</ele><time>2026-03-22T07:59:34.393Z</time></trkpt><trkpt lat="43.9561383" lon="11.063595"><ele>506.0</ele><time>2026-03-22T07:59:36.393Z</time></trkpt><trkpt lat="43.9562217" lon="11.0634967"><ele>507.0</ele><time>2026-03-22T07:59:38.392Z</time></trkpt><trkpt lat="43.9562883" lon="11.0634917"><ele>508.0</ele><time>2026-03-22T07:59:39.393Z</time></trkpt><trkpt lat="43.956395" lon="11.0634483"><ele>509.0</ele><time>2026-03-22T07:59:41.393Z</time></trkpt><trkpt lat="43.9564617" lon="11.0633817"><ele>510.0</ele><time>2026-03-22T07:59:43.392Z</time></trkpt><trkpt lat="43.9564833" lon="11.0632533"><ele>510.0</ele><time>2026-03-22T07:59:45.392Z</time></trkpt><trkpt lat="43.9564533" lon="11.0631333"><ele>510.0</ele><time>2026-03-22T07:59:47.392Z</time></trkpt><trkpt lat="43.95635" lon="11.063075"><ele>510.0</ele><time>2026-03-22T07:59:49.393Z</time></trkpt><trkpt lat="43.9562817" lon="11.0629783"><ele>510.0</ele><time>2026-03-22T07:59:51.393Z</time></trkpt><trkpt lat="43.9562167" lon="11.0628867"><ele>510.0</ele><time>2026-03-22T07:59:53.393Z</time></trkpt><trkpt lat="43.9561283" lon="11.062825"><ele>510.0</ele><time>2026-03-22T07:59:55.393Z</time></trkpt><trkpt lat="43.95607" lon="11.062785"><ele>510.0</ele><time>2026-03-22T07:59:57.393Z</time></trkpt><trkpt lat="43.9559933" lon="11.0627567"><ele>510.0</ele><time>2026-03-22T08:00:17.393Z</time></trkpt><trkpt lat="43.9558717" lon="11.06274"><ele>510.0</ele><time>2026-03-22T08:00:19.394Z</time></trkpt><trkpt lat="43.9558" lon="11.06272"><ele>510.0</ele><time>2026-03-22T08:00:20.394Z</time></trkpt><trkpt lat="43.95572" lon="11.0626867"><ele>510.0</ele><time>2026-03-22T08:00:21.393Z</time></trkpt><trkpt lat="43.955635" lon="11.0626383"><ele>509.8</ele><time>2026-03-22T08:00:22.393Z</time></trkpt><trkpt lat="43.955555" lon="11.06256"><ele>509.6</ele><time>2026-03-22T08:00:23.394Z</time></trkpt><trkpt lat="43.9554683" lon="11.0624933"><ele>509.4</ele><time>2026-03-22T08:00:24.393Z</time></trkpt><trkpt lat="43.9553783" lon="11.062415"><ele>509.2</ele><time>2026-03-22T08:00:25.393Z</time></trkpt><trkpt lat="43.9552983" lon="11.0623317"><ele>509.0</ele><time>2026-03-22T08:00:26.394Z</time></trkpt><trkpt lat="43.9552233" lon="11.062235"><ele>508.99999999999994</ele><time>2026-03-22T08:00:27.393Z</time></trkpt><trkpt lat="43.95517" lon="11.062145"><ele>509.0</ele><time>2026-03-22T08:00:28.393Z</time></trkpt><trkpt lat="43.9551217" lon="11.0620583"><ele>509.0</ele><time>2026-03-22T08:00:29.394Z</time></trkpt><trkpt lat="43.9550817" lon="11.0619783"><ele>509.0</ele><time>2026-03-22T08:00:30.394Z</time></trkpt><trkpt lat="43.9550517" lon="11.0618967"><ele>508.99999999999994</ele><time>2026-03-22T08:00:31.394Z</time></trkpt><trkpt lat="43.9550183" lon="11.0618117"><ele>509.0</ele><time>2026-03-22T08:00:32.393Z</time></trkpt><trkpt lat="43.9549733" lon="11.06165"><ele>508.6</ele><time>2026-03-22T08:00:34.394Z</time></trkpt><trkpt lat="43.9549233" lon="11.0614917"><ele>508.2</ele><time>2026-03-22T08:00:36.393Z</time></trkpt><trkpt lat="43.954885" lon="11.0613883"><ele>507.80000000000007</ele><time>2026-03-22T08:00:37.394Z</time></trkpt><trkpt lat="43.9548517" lon="11.0612817"><ele>507.40000000000003</ele><time>2026-03-22T08:00:38.393Z</time></trkpt><trkpt lat="43.954815" lon="11.0611633"><ele>507.0</ele><time>2026-03-22T08:00:39.393Z</time></trkpt><trkpt lat="43.9547817" lon="11.0610467"><ele>507.0</ele><time>2026-03-22T08:00:40.394Z</time></trkpt><trkpt lat="43.9547467" lon="11.0609383"><ele>507.0</ele><time>2026-03-22T08:00:41.394Z</time></trkpt><trkpt lat="43.9547017" lon="11.0608367"><ele>507.0</ele><time>2026-03-22T08:00:42.393Z</time></trkpt><trkpt lat="43.9546533" lon="11.0607383"><ele>507.0</ele><time>2026-03-22T08:00:43.394Z</time></trkpt><trkpt lat="43.9546033" lon="11.06065"><ele>507.0</ele><time>2026-03-22T08:00:44.393Z</time></trkpt><trkpt lat="43.9545317" lon="11.0605817"><ele>507.0</ele><time>2026-03-22T08:00:45.394Z</time></trkpt><trkpt lat="43.954465" lon="11.060525"><ele>507.40000000000003</ele><time>2026-03-22T08:00:46.393Z</time></trkpt><trkpt lat="43.9543883" lon="11.06047"><ele>507.80000000000007</ele><time>2026-03-22T08:00:47.394Z</time></trkpt><trkpt lat="43.9543117" lon="11.0604133"><ele>508.2</ele><time>2026-03-22T08:00:48.393Z</time></trkpt><trkpt lat="43.9542067" lon="11.060365"><ele>508.6</ele><time>2026-03-22T08:00:49.393Z</time></trkpt><trkpt lat="43.954085" lon="11.0603283"><ele>509.0</ele><time>2026-03-22T08:00:50.394Z</time></trkpt><trkpt lat="43.95397" lon="11.0602783"><ele>505.0</ele><time>2026-03-22T08:00:51.393Z</time></trkpt><trkpt lat="43.95386" lon="11.0602217"><ele>501.0</ele><time>2026-03-22T08:00:52.394Z</time></trkpt><trkpt lat="43.9537433" lon="11.0601517"><ele>497.0</ele><time>2026-03-22T08:00:53.394Z</time></trkpt><trkpt lat="43.95363" lon="11.060075"><ele>493.0</ele><time>2026-03-22T08:00:54.393Z</time></trkpt><trkpt lat="43.9535183" lon="11.0599983"><ele>494.0</ele><time>2026-03-22T08:00:55.394Z</time></trkpt><trkpt lat="43.9534" lon="11.0599367"><ele>495.0</ele><time>2026-03-22T08:00:56.393Z</time></trkpt><trkpt lat="43.953285" lon="11.0598833"><ele>496.0</ele><time>2026-03-22T08:00:57.394Z</time></trkpt><trkpt lat="43.95316" lon="11.0598367"><ele>497.0</ele><time>2026-03-22T08:00:58.393Z</time></trkpt><trkpt lat="43.9530317" lon="11.059825"><ele>495.0</ele><time>2026-03-22T08:00:59.393Z</time></trkpt><trkpt lat="43.952895" lon="11.059805"><ele>493.0</ele><time>2026-03-22T08:01:00.394Z</time></trkpt><trkpt lat="43.9527617" lon="11.0597917"><ele>491.0</ele><time>2026-03-22T08:01:01.393Z</time></trkpt><trkpt lat="43.9526333" lon="11.0597767"><ele>489.0</ele><time>2026-03-22T08:01:02.393Z</time></trkpt><trkpt lat="43.95251" lon="11.059755"><ele>486.5</ele><time>2026-03-22T08:01:03.393Z</time></trkpt><trkpt lat="43.9523867" lon="11.05973"><ele>484.0</ele><time>2026-03-22T08:01:04.394Z</time></trkpt><trkpt lat="43.9522683" lon="11.0597117"><ele>481.5</ele><time>2026-03-22T08:01:05.393Z</time></trkpt><trkpt lat="43.9521483" lon="11.0597183"><ele>479.0</ele><time>2026-03-22T08:01:06.394Z</time></trkpt><trkpt lat="43.95203" lon="11.059745"><ele>479.0</ele><time>2026-03-22T08:01:07.394Z</time></trkpt><trkpt lat="43.95192" lon="11.0597633"><ele>479.0</ele><time>2026-03-22T08:01:08.393Z</time></trkpt><trkpt lat="43.9518033" lon="11.0597783"><ele>479.0</ele><time>2026-03-22T08:01:09.394Z</time></trkpt><trkpt lat="43.9516883" lon="11.0597933"><ele>479.0</ele><time>2026-03-22T08:01:10.393Z</time></trkpt><trkpt lat="43.9515733" lon="11.0598017"><ele>476.0</ele><time>2026-03-22T08:01:11.393Z</time></trkpt><trkpt lat="43.951465" lon="11.059805"><ele>473.0</ele><time>2026-03-22T08:01:12.394Z</time></trkpt><trkpt lat="43.9513517" lon="11.0597917"><ele>470.0</ele><time>2026-03-22T08:01:13.394Z</time></trkpt><trkpt lat="43.9512567" lon="11.05975"><ele>467.0</ele><time>2026-03-22T08:01:14.394Z</time></trkpt><trkpt lat="43.9511733" lon="11.05968"><ele>464.0</ele><time>2026-03-22T08:01:15.394Z</time></trkpt><trkpt lat="43.951095" lon="11.059615"><ele>464.0</ele><time>2026-03-22T08:01:16.393Z</time></trkpt><trkpt lat="43.95101" lon="11.05957"><ele>464.0</ele><time>2026-03-22T08:01:17.394Z</time></trkpt><trkpt lat="43.9509417" lon="11.0595183"><ele>464.0</ele><time>2026-03-22T08:01:18.393Z</time></trkpt><trkpt lat="43.9508617" lon="11.0594933"><ele>464.0</ele><time>2026-03-22T08:01:19.393Z</time></trkpt><trkpt lat="43.950775" lon="11.0595567"><ele>464.0</ele><time>2026-03-22T08:01:20.393Z</time></trkpt><trkpt lat="43.9506833" lon="11.0596317"><ele>461.2</ele><time>2026-03-22T08:01:21.393Z</time></trkpt><trkpt lat="43.9505983" lon="11.0597383"><ele>458.4</ele><time>2026-03-22T08:01:22.394Z</time></trkpt><trkpt lat="43.9505233" lon="11.0598417"><ele>455.6</ele><time>2026-03-22T08:01:23.393Z</time></trkpt><trkpt lat="43.95046" lon="11.059925"><ele>452.8</ele><time>2026-03-22T08:01:24.393Z</time></trkpt><trkpt lat="43.9503983" lon="11.05999"><ele>450.0</ele><time>2026-03-22T08:01:25.393Z</time></trkpt><trkpt lat="43.950325" lon="11.0600567"><ele>448.5</ele><time>2026-03-22T08:01:26.393Z</time></trkpt><trkpt lat="43.9502483" lon="11.0601117"><ele>447.0</ele><time>2026-03-22T08:01:27.394Z</time></trkpt><trkpt lat="43.95017" lon="11.06015"><ele>445.5</ele><time>2026-03-22T08:01:28.393Z</time></trkpt><trkpt lat="43.950095" lon="11.06017"><ele>444.0</ele><time>2026-03-22T08:01:29.394Z</time></trkpt><trkpt lat="43.9500217" lon="11.060175"><ele>442.5</ele><time>2026-03-22T08:01:30.394Z</time></trkpt><trkpt lat="43.9499233" lon="11.0601517"><ele>441.0</ele><time>2026-03-22T08:01:32.393Z</time></trkpt><trkpt lat="43.9498567" lon="11.060135"><ele>441.0</ele><time>2026-03-22T08:01:34.393Z</time></trkpt><trkpt lat="43.94978" lon="11.0601067"><ele>441.0</ele><time>2026-03-22T08:01:40.394Z</time></trkpt><trkpt lat="43.9496933" lon="11.060085"><ele>441.0</ele><time>2026-03-22T08:01:43.393Z</time></trkpt><trkpt lat="43.9496217" lon="11.060055"><ele>441.0</ele><time>2026-03-22T08:01:45.394Z</time></trkpt><trkpt lat="43.9495417" lon="11.0599783"><ele>441.0</ele><time>2026-03-22T08:01:47.394Z</time></trkpt><trkpt lat="43.949415" lon="11.0598933"><ele>443.8</ele><time>2026-03-22T08:01:49.394Z</time></trkpt><trkpt lat="43.94934" lon="11.059845"><ele>446.6</ele><time>2026-03-22T08:01:50.394Z</time></trkpt><trkpt lat="43.9492617" lon="11.0597967"><ele>449.4</ele><time>2026-03-22T08:01:51.393Z</time></trkpt><trkpt lat="43.94917" lon="11.05975"><ele>452.2</ele><time>2026-03-22T08:01:52.393Z</time></trkpt><trkpt lat="43.9490717" lon="11.059715"><ele>455.0</ele><time>2026-03-22T08:01:53.393Z</time></trkpt><trkpt lat="43.9489833" lon="11.05968"><ele>455.49999999999994</ele><time>2026-03-22T08:01:54.394Z</time></trkpt><trkpt lat="43.9488983" lon="11.0596417"><ele>456.0</ele><time>2026-03-22T08:01:55.394Z</time></trkpt><trkpt lat="43.9488133" lon="11.0595917"><ele>456.5</ele><time>2026-03-22T08:01:56.394Z</time></trkpt><trkpt lat="43.948725" lon="11.0595667"><ele>457.0</ele><time>2026-03-22T08:01:57.393Z</time></trkpt><trkpt lat="43.9486517" lon="11.0595367"><ele>457.49999999999994</ele><time>2026-03-22T08:01:58.394Z</time></trkpt><trkpt lat="43.9485867" lon="11.0595"><ele>458.0</ele><time>2026-03-22T08:01:59.394Z</time></trkpt><trkpt lat="43.9485333" lon="11.05945"><ele>458.0</ele><time>2026-03-22T08:02:00.393Z</time></trkpt><trkpt lat="43.9485267" lon="11.0593133"><ele>457.99999999999994</ele><time>2026-03-22T08:02:03.393Z</time></trkpt><trkpt lat="43.9485867" lon="11.0591483"><ele>457.99999999999994</ele><time>2026-03-22T08:02:05.393Z</time></trkpt><trkpt lat="43.9486167" lon="11.0590617"><ele>458.0</ele><time>2026-03-22T08:02:06.394Z</time></trkpt><trkpt lat="43.948665" lon="11.0588933"><ele>458.0</ele><time>2026-03-22T08:02:08.393Z</time></trkpt><trkpt lat="43.9486983" lon="11.0587333"><ele>460.59999999999997</ele><time>2026-03-22T08:02:10.393Z</time></trkpt><trkpt lat="43.948665" lon="11.05856"><ele>463.19999999999993</ele><time>2026-03-22T08:02:12.394Z</time></trkpt><trkpt lat="43.948605" lon="11.0584733"><ele>465.8</ele><time>2026-03-22T08:02:13.393Z</time></trkpt><trkpt lat="43.9485133" lon="11.0583983"><ele>468.4</ele><time>2026-03-22T08:02:14.394Z</time></trkpt><trkpt lat="43.9484467" lon="11.0583117"><ele>471.0</ele><time>2026-03-22T08:02:15.394Z</time></trkpt><trkpt lat="43.94838" lon="11.0582333"><ele>470.8</ele><time>2026-03-22T08:02:16.393Z</time></trkpt><trkpt lat="43.948305" lon="11.0581567"><ele>470.6</ele><time>2026-03-22T08:02:17.393Z</time></trkpt><trkpt lat="43.9482167" lon="11.0581083"><ele>470.4</ele><time>2026-03-22T08:02:18.394Z</time></trkpt><trkpt lat="43.9481183" lon="11.0580583"><ele>470.2</ele><time>2026-03-22T08:02:19.393Z</time></trkpt><trkpt lat="43.9480183" lon="11.05801"><ele>470.0</ele><time>2026-03-22T08:02:20.393Z</time></trkpt><trkpt lat="43.947945" lon="11.05795"><ele>470.0</ele><time>2026-03-22T08:02:21.393Z</time></trkpt><trkpt lat="43.9478867" lon="11.0578833"><ele>469.99999999999994</ele><time>2026-03-22T08:02:22.394Z</time></trkpt><trkpt lat="43.947825" lon="11.0578183"><ele>470.0</ele><time>2026-03-22T08:02:23.393Z</time></trkpt><trkpt lat="43.9477667" lon="11.0577567"><ele>470.0</ele><time>2026-03-22T08:02:24.393Z</time></trkpt><trkpt lat="43.94772" lon="11.057695"><ele>469.99999999999994</ele><time>2026-03-22T08:02:25.394Z</time></trkpt><trkpt lat="43.947675" lon="11.0576317"><ele>470.0</ele><time>2026-03-22T08:02:26.393Z</time></trkpt><trkpt lat="43.9476217" lon="11.05757"><ele>470.0</ele><time>2026-03-22T08:02:27.394Z</time></trkpt><trkpt lat="43.947575" lon="11.0575083"><ele>468.66666666666663</ele><time>2026-03-22T08:02:28.393Z</time></trkpt><trkpt lat="43.9475133" lon="11.05737"><ele>467.3333333333333</ele><time>2026-03-22T08:02:30.393Z</time></trkpt><trkpt lat="43.9474883" lon="11.0572867"><ele>466.0</ele><time>2026-03-22T08:02:31.394Z</time></trkpt><trkpt lat="43.947445" lon="11.05719"><ele>464.66666666666663</ele><time>2026-03-22T08:02:32.393Z</time></trkpt><trkpt lat="43.9473967" lon="11.0570883"><ele>463.3333333333333</ele><time>2026-03-22T08:02:33.393Z</time></trkpt><trkpt lat="43.9473667" lon="11.056985"><ele>462.0</ele><time>2026-03-22T08:02:34.393Z</time></trkpt><trkpt lat="43.9473483" lon="11.0568833"><ele>462.0</ele><time>2026-03-22T08:02:35.393Z</time></trkpt><trkpt lat="43.94738" lon="11.0567317"><ele>462.00000000000006</ele><time>2026-03-22T08:02:37.394Z</time></trkpt><trkpt lat="43.9474133" lon="11.0565767"><ele>462.00000000000006</ele><time>2026-03-22T08:02:39.393Z</time></trkpt><trkpt lat="43.9474733" lon="11.0564833"><ele>462.0</ele><time>2026-03-22T08:02:41.394Z</time></trkpt><trkpt lat="43.94753" lon="11.05641"><ele>462.0</ele><time>2026-03-22T08:02:43.393Z</time></trkpt><trkpt lat="43.94758" lon="11.05635"><ele>462.5</ele><time>2026-03-22T08:02:45.393Z</time></trkpt><trkpt lat="43.9476267" lon="11.0562767"><ele>463.0</ele><time>2026-03-22T08:02:47.393Z</time></trkpt><trkpt lat="43.9476167" lon="11.0561717"><ele>463.5</ele><time>2026-03-22T08:02:50.394Z</time></trkpt><trkpt lat="43.9475667" lon="11.0560983"><ele>464.0</ele><time>2026-03-22T08:02:52.394Z</time></trkpt><trkpt lat="43.94749" lon="11.0560283"><ele>464.5</ele><time>2026-03-22T08:02:54.393Z</time></trkpt><trkpt lat="43.94738" lon="11.0559767"><ele>465.0</ele><time>2026-03-22T08:02:56.393Z</time></trkpt><trkpt lat="43.9472883" lon="11.055925"><ele>465.0</ele><time>2026-03-22T08:02:58.394Z</time></trkpt><trkpt lat="43.9472183" lon="11.05587"><ele>465.0</ele><time>2026-03-22T08:03:00.393Z</time></trkpt><trkpt lat="43.947165" lon="11.05579"><ele>465.0</ele><time>2026-03-22T08:03:02.393Z</time></trkpt><trkpt lat="43.9471567" lon="11.0556633"><ele>465.0</ele><time>2026-03-22T08:03:05.393Z</time></trkpt><trkpt lat="43.94717" lon="11.0555583"><ele>465.0</ele><time>2026-03-22T08:03:07.393Z</time></trkpt><trkpt lat="43.9471933" lon="11.05544"><ele>465.0</ele><time>2026-03-22T08:03:09.394Z</time></trkpt><trkpt lat="43.9472567" lon="11.05533"><ele>465.6666666666667</ele><time>2026-03-22T08:03:11.394Z</time></trkpt><trkpt lat="43.9473217" lon="11.0552517"><ele>466.33333333333337</ele><time>2026-03-22T08:03:13.393Z</time></trkpt><trkpt lat="43.9473917" lon="11.055185"><ele>467.0</ele><time>2026-03-22T08:03:15.393Z</time></trkpt><trkpt lat="43.9474667" lon="11.0551383"><ele>467.6666666666667</ele><time>2026-03-22T08:03:17.393Z</time></trkpt><trkpt lat="43.9475533" lon="11.055085"><ele>468.33333333333337</ele><time>2026-03-22T08:03:19.393Z</time></trkpt><trkpt lat="43.9476217" lon="11.0549867"><ele>469.0</ele><time>2026-03-22T08:03:21.393Z</time></trkpt><trkpt lat="43.9476583" lon="11.0549033"><ele>469.0</ele><time>2026-03-22T08:03:22.394Z</time></trkpt><trkpt lat="43.9476933" lon="11.0548233"><ele>469.0</ele><time>2026-03-22T08:03:23.393Z</time></trkpt><trkpt lat="43.94772" lon="11.0547367"><ele>469.0</ele><time>2026-03-22T08:03:24.394Z</time></trkpt><trkpt lat="43.947765" lon="11.0545833"><ele>469.0</ele><time>2026-03-22T08:03:26.394Z</time></trkpt><trkpt lat="43.9477833" lon="11.0544333"><ele>469.0</ele><time>2026-03-22T08:03:28.393Z</time></trkpt><trkpt lat="43.9477717" lon="11.05427"><ele>469.0</ele><time>2026-03-22T08:03:30.393Z</time></trkpt><trkpt lat="43.9477117" lon="11.0541567"><ele>469.0</ele><time>2026-03-22T08:03:31.394Z</time></trkpt><trkpt lat="43.94765" lon="11.0540633"><ele>469.0</ele><time>2026-03-22T08:03:32.393Z</time></trkpt><trkpt lat="43.94758" lon="11.053965"><ele>469.0</ele><time>2026-03-22T08:03:33.393Z</time></trkpt><trkpt lat="43.9475" lon="11.0538633"><ele>469.0</ele><time>2026-03-22T08:03:34.393Z</time></trkpt><trkpt lat="43.9474333" lon="11.0537767"><ele>466.83333333333337</ele><time>2026-03-22T08:03:35.394Z</time></trkpt><trkpt lat="43.9473683" lon="11.0537017"><ele>464.6666666666667</ele><time>2026-03-22T08:03:36.394Z</time></trkpt><trkpt lat="43.9473183" lon="11.05363"><ele>462.5</ele><time>2026-03-22T08:03:37.393Z</time></trkpt><trkpt lat="43.9472717" lon="11.0535567"><ele>460.33333333333337</ele><time>2026-03-22T08:03:38.393Z</time></trkpt><trkpt lat="43.947215" lon="11.0534933"><ele>458.1666666666667</ele><time>2026-03-22T08:03:39.393Z</time></trkpt><trkpt lat="43.94712" lon="11.0534067"><ele>456.0</ele><time>2026-03-22T08:03:41.393Z</time></trkpt><trkpt lat="43.94704" lon="11.0533583"><ele>456.0</ele><time>2026-03-22T08:03:43.394Z</time></trkpt><trkpt lat="43.946955" lon="11.05332"><ele>456.0</ele><time>2026-03-22T08:03:46.394Z</time></trkpt><trkpt lat="43.9468567" lon="11.05331"><ele>456.0</ele><time>2026-03-22T08:03:49.394Z</time></trkpt><trkpt lat="43.946785" lon="11.053275"><ele>456.0</ele><time>2026-03-22T08:03:51.394Z</time></trkpt><trkpt lat="43.946715" lon="11.0532567"><ele>456.0</ele><time>2026-03-22T08:03:53.394Z</time></trkpt><trkpt lat="43.9466183" lon="11.05327"><ele>456.0</ele><time>2026-03-22T08:03:55.394Z</time></trkpt><trkpt lat="43.9465017" lon="11.0532867"><ele>453.20000000000005</ele><time>2026-03-22T08:03:57.394Z</time></trkpt><trkpt lat="43.9464083" lon="11.0532617"><ele>450.40000000000003</ele><time>2026-03-22T08:03:59.394Z</time></trkpt><trkpt lat="43.9463233" lon="11.0531867"><ele>447.6</ele><time>2026-03-22T08:04:01.394Z</time></trkpt><trkpt lat="43.946225" lon="11.0530667"><ele>444.8</ele><time>2026-03-22T08:04:03.393Z</time></trkpt><trkpt lat="43.946165" lon="11.053"><ele>442.0</ele><time>2026-03-22T08:04:04.394Z</time></trkpt><trkpt lat="43.9461133" lon="11.0529283"><ele>442.00000000000006</ele><time>2026-03-22T08:04:05.393Z</time></trkpt><trkpt lat="43.9460667" lon="11.0528433"><ele>442.0</ele><time>2026-03-22T08:04:06.394Z</time></trkpt><trkpt lat="43.94602" lon="11.052765"><ele>442.0</ele><time>2026-03-22T08:04:07.394Z</time></trkpt><trkpt lat="43.9459633" lon="11.0526317"><ele>442.0</ele><time>2026-03-22T08:04:09.394Z</time></trkpt><trkpt lat="43.9459133" lon="11.0525017"><ele>442.00000000000006</ele><time>2026-03-22T08:04:11.394Z</time></trkpt><trkpt lat="43.9459167" lon="11.0523917"><ele>442.0</ele><time>2026-03-22T08:04:13.393Z</time></trkpt><trkpt lat="43.9459183" lon="11.0522417"><ele>440.83333333333337</ele><time>2026-03-22T08:04:15.393Z</time></trkpt><trkpt lat="43.94593" lon="11.0521417"><ele>439.6666666666667</ele><time>2026-03-22T08:04:16.393Z</time></trkpt><trkpt lat="43.94594" lon="11.0520467"><ele>438.5</ele><time>2026-03-22T08:04:17.394Z</time></trkpt><trkpt lat="43.9459567" lon="11.05196"><ele>437.33333333333337</ele><time>2026-03-22T08:04:18.393Z</time></trkpt><trkpt lat="43.9459933" lon="11.051835"><ele>436.1666666666667</ele><time>2026-03-22T08:04:20.394Z</time></trkpt><trkpt lat="43.9460183" lon="11.05171"><ele>435.0</ele><time>2026-03-22T08:04:22.394Z</time></trkpt><trkpt lat="43.946015" lon="11.0515367"><ele>433.0</ele><time>2026-03-22T08:04:24.394Z</time></trkpt><trkpt lat="43.94601" lon="11.0514483"><ele>431.0</ele><time>2026-03-22T08:04:25.394Z</time></trkpt><trkpt lat="43.9460283" lon="11.0513"><ele>429.0</ele><time>2026-03-22T08:04:27.394Z</time></trkpt><trkpt lat="43.9460717" lon="11.05119"><ele>427.0</ele><time>2026-03-22T08:04:29.393Z</time></trkpt><trkpt lat="43.9461317" lon="11.05109"><ele>425.0</ele><time>2026-03-22T08:04:31.393Z</time></trkpt><trkpt lat="43.9462017" lon="11.0509733"><ele>425.0</ele><time>2026-03-22T08:04:33.392Z</time></trkpt><trkpt lat="43.946255" lon="11.0508683"><ele>425.0</ele><time>2026-03-22T08:04:35.393Z</time></trkpt><trkpt lat="43.9462867" lon="11.0507517"><ele>425.0</ele><time>2026-03-22T08:04:37.392Z</time></trkpt><trkpt lat="43.9462883" lon="11.0506033"><ele>425.0</ele><time>2026-03-22T08:04:39.393Z</time></trkpt><trkpt lat="43.946255" lon="11.05043"><ele>425.0</ele><time>2026-03-22T08:04:41.392Z</time></trkpt><trkpt lat="43.94624" lon="11.0503333"><ele>424.2</ele><time>2026-03-22T08:04:42.393Z</time></trkpt><trkpt lat="43.9462233" lon="11.0502433"><ele>423.4</ele><time>2026-03-22T08:04:43.393Z</time></trkpt><trkpt lat="43.9462033" lon="11.0501517"><ele>422.6</ele><time>2026-03-22T08:04:44.393Z</time></trkpt><trkpt lat="43.9461667" lon="11.04999"><ele>421.8</ele><time>2026-03-22T08:04:46.393Z</time></trkpt><trkpt lat="43.9461783" lon="11.04988"><ele>421.0</ele><time>2026-03-22T08:04:48.393Z</time></trkpt><trkpt lat="43.9461767" lon="11.049705"><ele>420.50000000000006</ele><time>2026-03-22T08:04:50.392Z</time></trkpt><trkpt lat="43.9461717" lon="11.049605"><ele>420.0</ele><time>2026-03-22T08:04:51.393Z</time></trkpt><trkpt lat="43.9461783" lon="11.049515"><ele>419.5</ele><time>2026-03-22T08:04:52.392Z</time></trkpt><trkpt lat="43.9461917" lon="11.049335"><ele>419.0</ele><time>2026-03-22T08:04:54.393Z</time></trkpt><trkpt lat="43.9461967" lon="11.0492433"><ele>418.50000000000006</ele><time>2026-03-22T08:04:55.393Z</time></trkpt><trkpt lat="43.9461983" lon="11.0491467"><ele>418.0</ele><time>2026-03-22T08:04:56.393Z</time></trkpt><trkpt lat="43.9461967" lon="11.049055"><ele>416.79999999999995</ele><time>2026-03-22T08:04:57.394Z</time></trkpt><trkpt lat="43.9461883" lon="11.0489133"><ele>415.6</ele><time>2026-03-22T08:04:59.394Z</time></trkpt><trkpt lat="43.946195" lon="11.0487683"><ele>414.4</ele><time>2026-03-22T08:05:01.393Z</time></trkpt><trkpt lat="43.9462033" lon="11.048595"><ele>413.20000000000005</ele><time>2026-03-22T08:05:03.393Z</time></trkpt><trkpt lat="43.9462033" lon="11.0484967"><ele>412.0</ele><time>2026-03-22T08:05:05.394Z</time></trkpt><trkpt lat="43.9461783" lon="11.04837"><ele>412.00000000000006</ele><time>2026-03-22T08:05:07.394Z</time></trkpt><trkpt lat="43.9461367" lon="11.0483017"><ele>412.0</ele><time>2026-03-22T08:05:11.393Z</time></trkpt><trkpt lat="43.9460567" lon="11.0482517"><ele>412.0</ele><time>2026-03-22T08:05:13.393Z</time></trkpt><trkpt lat="43.9459617" lon="11.0482317"><ele>412.0</ele><time>2026-03-22T08:05:15.393Z</time></trkpt><trkpt lat="43.945865" lon="11.0482283"><ele>412.00000000000006</ele><time>2026-03-22T08:05:17.393Z</time></trkpt><trkpt lat="43.9457833" lon="11.04825"><ele>412.0</ele><time>2026-03-22T08:05:20.394Z</time></trkpt><trkpt lat="43.94573" lon="11.048315"><ele>408.00000000000006</ele><time>2026-03-22T08:05:22.394Z</time></trkpt><trkpt lat="43.9456867" lon="11.0483883"><ele>404.0</ele><time>2026-03-22T08:05:24.394Z</time></trkpt><trkpt lat="43.94564" lon="11.04846"><ele>400.0</ele><time>2026-03-22T08:05:27.394Z</time></trkpt><trkpt lat="43.9455833" lon="11.048535"><ele>396.0</ele><time>2026-03-22T08:05:31.393Z</time></trkpt><trkpt lat="43.94547" lon="11.0486267"><ele>392.00000000000006</ele><time>2026-03-22T08:05:37.393Z</time></trkpt><trkpt lat="43.9454183" lon="11.0487233"><ele>388.0</ele><time>2026-03-22T08:05:39.393Z</time></trkpt><trkpt lat="43.9453983" lon="11.0488433"><ele>388.00000000000006</ele><time>2026-03-22T08:05:41.393Z</time></trkpt><trkpt lat="43.9453633" lon="11.0489633"><ele>388.0</ele><time>2026-03-22T08:05:43.393Z</time></trkpt><trkpt lat="43.9453333" lon="11.0490433"><ele>388.0</ele><time>2026-03-22T08:05:44.393Z</time></trkpt><trkpt lat="43.945265" lon="11.049155"><ele>388.0</ele><time>2026-03-22T08:05:46.394Z</time></trkpt><trkpt lat="43.945175" lon="11.0491517"><ele>388.00000000000006</ele><time>2026-03-22T08:05:49.393Z</time></trkpt><trkpt lat="43.9451117" lon="11.04917"><ele>388.0</ele><time>2026-03-22T08:05:51.393Z</time></trkpt><trkpt lat="43.945075" lon="11.0492617"><ele>384.1666666666667</ele><time>2026-03-22T08:05:53.394Z</time></trkpt><trkpt lat="43.945035" lon="11.0493517"><ele>380.33333333333337</ele><time>2026-03-22T08:05:55.393Z</time></trkpt><trkpt lat="43.9449783" lon="11.0494433"><ele>376.5</ele><time>2026-03-22T08:05:57.393Z</time></trkpt><trkpt lat="43.9449367" lon="11.0495517"><ele>372.6666666666667</ele><time>2026-03-22T08:06:01.393Z</time></trkpt><trkpt lat="43.9449483" lon="11.04969"><ele>368.83333333333337</ele><time>2026-03-22T08:06:04.394Z</time></trkpt><trkpt lat="43.9449233" lon="11.0497917"><ele>365.0</ele><time>2026-03-22T08:06:06.394Z</time></trkpt><trkpt lat="43.9448533" lon="11.0498833"><ele>365.5</ele><time>2026-03-22T08:06:08.393Z</time></trkpt><trkpt lat="43.9447983" lon="11.0500117"><ele>366.0</ele><time>2026-03-22T08:06:10.393Z</time></trkpt><trkpt lat="43.9447783" lon="11.0501"><ele>366.5</ele><time>2026-03-22T08:06:11.393Z</time></trkpt><trkpt lat="43.944755" lon="11.0501967"><ele>367.0</ele><time>2026-03-22T08:06:12.394Z</time></trkpt><trkpt lat="43.9447233" lon="11.050285"><ele>367.5</ele><time>2026-03-22T08:06:13.394Z</time></trkpt><trkpt lat="43.9446967" lon="11.0503683"><ele>368.0</ele><time>2026-03-22T08:06:14.394Z</time></trkpt><trkpt lat="43.94464" lon="11.0504767"><ele>368.0</ele><time>2026-03-22T08:06:16.393Z</time></trkpt><trkpt lat="43.9445783" lon="11.0505467"><ele>368.0</ele><time>2026-03-22T08:06:18.393Z</time></trkpt><trkpt lat="43.9445133" lon="11.0505033"><ele>368.0</ele><time>2026-03-22T08:06:20.393Z</time></trkpt><trkpt lat="43.9444483" lon="11.0504167"><ele>368.0</ele><time>2026-03-22T08:06:22.394Z</time></trkpt><trkpt lat="43.9443817" lon="11.05031"><ele>368.0</ele><time>2026-03-22T08:06:24.394Z</time></trkpt><trkpt lat="43.9443267" lon="11.0501867"><ele>368.0</ele><time>2026-03-22T08:06:26.393Z</time></trkpt><trkpt lat="43.9442917" lon="11.0501083"><ele>368.0</ele><time>2026-03-22T08:06:28.393Z</time></trkpt><trkpt lat="43.9442717" lon="11.05"><ele>368.0</ele><time>2026-03-22T08:06:31.394Z</time></trkpt><trkpt lat="43.9442433" lon="11.0499117"><ele>368.0</ele><time>2026-03-22T08:06:33.393Z</time></trkpt><trkpt lat="43.94415" lon="11.0499083"><ele>368.0</ele><time>2026-03-22T08:06:36.393Z</time></trkpt><trkpt lat="43.9441" lon="11.0500283"><ele>368.0</ele><time>2026-03-22T08:06:39.393Z</time></trkpt><trkpt lat="43.9441133" lon="11.0501567"><ele>368.0</ele><time>2026-03-22T08:06:41.394Z</time></trkpt><trkpt lat="43.944075" lon="11.05028"><ele>364.5</ele><time>2026-03-22T08:06:43.394Z</time></trkpt><trkpt lat="43.9439833" lon="11.0503667"><ele>361.0</ele><time>2026-03-22T08:06:45.393Z</time></trkpt><trkpt lat="43.9439183" lon="11.050385"><ele>357.5</ele><time>2026-03-22T08:06:46.394Z</time></trkpt><trkpt lat="43.943815" lon="11.0503383"><ele>354.0</ele><time>2026-03-22T08:06:48.394Z</time></trkpt><trkpt lat="43.9437483" lon="11.0502667"><ele>350.5</ele><time>2026-03-22T08:06:50.394Z</time></trkpt><trkpt lat="43.9437017" lon="11.0501967"><ele>347.0</ele><time>2026-03-22T08:06:52.393Z</time></trkpt><trkpt lat="43.9436533" lon="11.0501133"><ele>347.0</ele><time>2026-03-22T08:06:54.393Z</time></trkpt><trkpt lat="43.9436183" lon="11.0500283"><ele>347.0</ele><time>2026-03-22T08:06:56.394Z</time></trkpt><trkpt lat="43.9435767" lon="11.0499233"><ele>347.0</ele><time>2026-03-22T08:06:58.394Z</time></trkpt><trkpt lat="43.943545" lon="11.0497883"><ele>347.0</ele><time>2026-03-22T08:07:00.393Z</time></trkpt><trkpt lat="43.943525" lon="11.04963"><ele>347.0</ele><time>2026-03-22T08:07:02.394Z</time></trkpt><trkpt lat="43.9434933" lon="11.0494933"><ele>346.20000000000005</ele><time>2026-03-22T08:07:04.394Z</time></trkpt><trkpt lat="43.94343" lon="11.0493833"><ele>345.4</ele><time>2026-03-22T08:07:06.393Z</time></trkpt><trkpt lat="43.9433283" lon="11.049305"><ele>344.6</ele><time>2026-03-22T08:07:08.393Z</time></trkpt><trkpt lat="43.9432417" lon="11.0492083"><ele>343.79999999999995</ele><time>2026-03-22T08:07:10.393Z</time></trkpt><trkpt lat="43.9431833" lon="11.0490867"><ele>343.0</ele><time>2026-03-22T08:07:12.393Z</time></trkpt><trkpt lat="43.9431733" lon="11.0489867"><ele>338.3333333333333</ele><time>2026-03-22T08:07:14.394Z</time></trkpt><trkpt lat="43.94318" lon="11.0488983"><ele>333.66666666666663</ele><time>2026-03-22T08:07:16.394Z</time></trkpt><trkpt lat="43.9432067" lon="11.048815"><ele>329.0</ele><time>2026-03-22T08:07:19.393Z</time></trkpt><trkpt lat="43.943245" lon="11.0487233"><ele>324.3333333333333</ele><time>2026-03-22T08:07:21.394Z</time></trkpt><trkpt lat="43.9432933" lon="11.0485967"><ele>319.6666666666667</ele><time>2026-03-22T08:07:23.393Z</time></trkpt><trkpt lat="43.943325" lon="11.048465"><ele>315.0</ele><time>2026-03-22T08:07:25.394Z</time></trkpt><trkpt lat="43.9433667" lon="11.0483367"><ele>318.1666666666667</ele><time>2026-03-22T08:07:27.393Z</time></trkpt><trkpt lat="43.9434333" lon="11.0482617"><ele>321.3333333333333</ele><time>2026-03-22T08:07:29.394Z</time></trkpt><trkpt lat="43.9435233" lon="11.0481833"><ele>324.5</ele><time>2026-03-22T08:07:31.393Z</time></trkpt><trkpt lat="43.9435667" lon="11.0481167"><ele>327.66666666666663</ele><time>2026-03-22T08:07:32.393Z</time></trkpt><trkpt lat="43.9436133" lon="11.048055"><ele>330.8333333333333</ele><time>2026-03-22T08:07:33.394Z</time></trkpt><trkpt lat="43.9436567" lon="11.04798"><ele>334.0</ele><time>2026-03-22T08:07:34.394Z</time></trkpt><trkpt lat="43.943705" lon="11.0478833"><ele>334.0</ele><time>2026-03-22T08:07:35.393Z</time></trkpt><trkpt lat="43.9437433" lon="11.0478017"><ele>334.0</ele><time>2026-03-22T08:07:36.393Z</time></trkpt><trkpt lat="43.94377" lon="11.047695"><ele>334.0</ele><time>2026-03-22T08:07:37.393Z</time></trkpt><trkpt lat="43.9438383" lon="11.0475433"><ele>334.0</ele><time>2026-03-22T08:07:39.394Z</time></trkpt><trkpt lat="43.9438983" lon="11.0474233"><ele>334.0</ele><time>2026-03-22T08:07:41.393Z</time></trkpt><trkpt lat="43.9439367" lon="11.0473517"><ele>332.0</ele><time>2026-03-22T08:07:42.394Z</time></trkpt><trkpt lat="43.94401" lon="11.047195"><ele>330.0</ele><time>2026-03-22T08:07:44.394Z</time></trkpt><trkpt lat="43.9440517" lon="11.0471083"><ele>328.0</ele><time>2026-03-22T08:07:45.394Z</time></trkpt><trkpt lat="43.9440867" lon="11.0470167"><ele>326.0</ele><time>2026-03-22T08:07:46.393Z</time></trkpt><trkpt lat="43.9441" lon="11.0468917"><ele>324.0</ele><time>2026-03-22T08:07:47.393Z</time></trkpt><trkpt lat="43.9441067" lon="11.046785"><ele>324.0</ele><time>2026-03-22T08:07:48.393Z</time></trkpt><trkpt lat="43.9441083" lon="11.0466733"><ele>324.0</ele><time>2026-03-22T08:07:49.393Z</time></trkpt><trkpt lat="43.9440933" lon="11.0465383"><ele>324.0</ele><time>2026-03-22T08:07:50.394Z</time></trkpt><trkpt lat="43.944095" lon="11.0464333"><ele>324.0</ele><time>2026-03-22T08:07:51.394Z</time></trkpt><trkpt lat="43.9440933" lon="11.0463233"><ele>324.0</ele><time>2026-03-22T08:07:52.393Z</time></trkpt><trkpt lat="43.944105" lon="11.0462233"><ele>324.0</ele><time>2026-03-22T08:07:53.393Z</time></trkpt><trkpt lat="43.9441083" lon="11.046115"><ele>323.1666666666667</ele><time>2026-03-22T08:07:54.393Z</time></trkpt><trkpt lat="43.944135" lon="11.0460167"><ele>322.3333333333333</ele><time>2026-03-22T08:07:55.394Z</time></trkpt><trkpt lat="43.9441733" lon="11.045905"><ele>321.5</ele><time>2026-03-22T08:07:56.393Z</time></trkpt><trkpt lat="43.9442083" lon="11.045805"><ele>320.66666666666663</ele><time>2026-03-22T08:07:57.393Z</time></trkpt><trkpt lat="43.944235" lon="11.0456833"><ele>319.8333333333333</ele><time>2026-03-22T08:07:58.393Z</time></trkpt><trkpt lat="43.9442467" lon="11.0455567"><ele>319.0</ele><time>2026-03-22T08:07:59.394Z</time></trkpt><trkpt lat="43.9442517" lon="11.0454233"><ele>321.0</ele><time>2026-03-22T08:08:00.394Z</time></trkpt><trkpt lat="43.9442483" lon="11.0452883"><ele>323.0</ele><time>2026-03-22T08:08:01.393Z</time></trkpt><trkpt lat="43.9442383" lon="11.04516"><ele>325.0</ele><time>2026-03-22T08:08:02.394Z</time></trkpt><trkpt lat="43.9442317" lon="11.04504"><ele>327.0</ele><time>2026-03-22T08:08:03.393Z</time></trkpt><trkpt lat="43.9442283" lon="11.0449117"><ele>329.0</ele><time>2026-03-22T08:08:04.393Z</time></trkpt><trkpt lat="43.94423" lon="11.0448083"><ele>331.0</ele><time>2026-03-22T08:08:05.393Z</time></trkpt><trkpt lat="43.9442433" lon="11.04471"><ele>331.0</ele><time>2026-03-22T08:08:06.393Z</time></trkpt><trkpt lat="43.94425" lon="11.04461"><ele>331.0</ele><time>2026-03-22T08:08:07.394Z</time></trkpt><trkpt lat="43.94426" lon="11.0445067"><ele>331.0</ele><time>2026-03-22T08:08:08.393Z</time></trkpt><trkpt lat="43.9442833" lon="11.044385"><ele>331.0</ele><time>2026-03-22T08:08:09.394Z</time></trkpt><trkpt lat="43.944305" lon="11.0442583"><ele>331.0</ele><time>2026-03-22T08:08:10.393Z</time></trkpt><trkpt lat="43.9443267" lon="11.04412"><ele>331.0</ele><time>2026-03-22T08:08:11.394Z</time></trkpt><trkpt lat="43.944345" lon="11.0439717"><ele>328.8</ele><time>2026-03-22T08:08:12.393Z</time></trkpt><trkpt lat="43.944365" lon="11.0438333"><ele>326.6</ele><time>2026-03-22T08:08:13.393Z</time></trkpt><trkpt lat="43.9443817" lon="11.0436883"><ele>324.4</ele><time>2026-03-22T08:08:14.393Z</time></trkpt><trkpt lat="43.9444033" lon="11.0435517"><ele>322.2</ele><time>2026-03-22T08:08:15.393Z</time></trkpt><trkpt lat="43.9444233" lon="11.04342"><ele>320.0</ele><time>2026-03-22T08:08:16.394Z</time></trkpt><trkpt lat="43.9444433" lon="11.043275"><ele>318.0</ele><time>2026-03-22T08:08:17.394Z</time></trkpt><trkpt lat="43.9444617" lon="11.0431233"><ele>316.0</ele><time>2026-03-22T08:08:18.393Z</time></trkpt><trkpt lat="43.9444867" lon="11.0429767"><ele>314.0</ele><time>2026-03-22T08:08:19.393Z</time></trkpt><trkpt lat="43.94451" lon="11.0428367"><ele>312.0</ele><time>2026-03-22T08:08:20.393Z</time></trkpt><trkpt lat="43.9445333" lon="11.0426933"><ele>310.0</ele><time>2026-03-22T08:08:21.394Z</time></trkpt><trkpt lat="43.9445567" lon="11.0425517"><ele>309.0</ele><time>2026-03-22T08:08:22.393Z</time></trkpt><trkpt lat="43.9445783" lon="11.04242"><ele>308.0</ele><time>2026-03-22T08:08:23.393Z</time></trkpt><trkpt lat="43.944605" lon="11.04232"><ele>307.0</ele><time>2026-03-22T08:08:24.393Z</time></trkpt><trkpt lat="43.9446283" lon="11.0422317"><ele>306.0</ele><time>2026-03-22T08:08:25.394Z</time></trkpt><trkpt lat="43.9446717" lon="11.042165"><ele>305.0</ele><time>2026-03-22T08:08:26.393Z</time></trkpt><trkpt lat="43.9447217" lon="11.042095"><ele>304.0</ele><time>2026-03-22T08:08:27.394Z</time></trkpt><trkpt lat="43.9447817" lon="11.04204"><ele>303.0</ele><time>2026-03-22T08:08:28.393Z</time></trkpt><trkpt lat="43.9448533" lon="11.0419933"><ele>303.0</ele><time>2026-03-22T08:08:29.394Z</time></trkpt><trkpt lat="43.9449283" lon="11.041945"><ele>303.0</ele><time>2026-03-22T08:08:30.393Z</time></trkpt><trkpt lat="43.9450033" lon="11.041905"><ele>303.0</ele><time>2026-03-22T08:08:31.393Z</time></trkpt><trkpt lat="43.9450817" lon="11.041855"><ele>303.0</ele><time>2026-03-22T08:08:32.394Z</time></trkpt><trkpt lat="43.94516" lon="11.04179"><ele>303.0</ele><time>2026-03-22T08:08:33.394Z</time></trkpt><trkpt lat="43.94523" lon="11.0417183"><ele>303.0</ele><time>2026-03-22T08:08:34.394Z</time></trkpt><trkpt lat="43.9452883" lon="11.041645"><ele>303.3333333333333</ele><time>2026-03-22T08:08:35.393Z</time></trkpt><trkpt lat="43.9453883" lon="11.0415667"><ele>303.6666666666667</ele><time>2026-03-22T08:08:37.393Z</time></trkpt><trkpt lat="43.94548" lon="11.0415417"><ele>304.0</ele><time>2026-03-22T08:08:39.394Z</time></trkpt><trkpt lat="43.94555" lon="11.0415417"><ele>304.33333333333337</ele><time>2026-03-22T08:08:41.393Z</time></trkpt><trkpt lat="43.9456133" lon="11.0416067"><ele>304.6666666666667</ele><time>2026-03-22T08:08:43.394Z</time></trkpt><trkpt lat="43.9456733" lon="11.0416717"><ele>305.0</ele><time>2026-03-22T08:08:45.393Z</time></trkpt><trkpt lat="43.9457233" lon="11.041795"><ele>304.0</ele><time>2026-03-22T08:08:53.393Z</time></trkpt><trkpt lat="43.945745" lon="11.0418917"><ele>303.0</ele><time>2026-03-22T08:08:55.394Z</time></trkpt><trkpt lat="43.9457967" lon="11.04196"><ele>302.0</ele><time>2026-03-22T08:08:57.394Z</time></trkpt><trkpt lat="43.9458483" lon="11.0420133"><ele>301.0</ele><time>2026-03-22T08:08:59.394Z</time></trkpt><trkpt lat="43.9459467" lon="11.0421117"><ele>300.0</ele><time>2026-03-22T08:09:01.393Z</time></trkpt><trkpt lat="43.946005" lon="11.04216"><ele>299.0</ele><time>2026-03-22T08:09:02.394Z</time></trkpt><trkpt lat="43.9461017" lon="11.042205"><ele>299.0</ele><time>2026-03-22T08:09:04.394Z</time></trkpt><trkpt lat="43.94617" lon="11.0421833"><ele>299.0</ele><time>2026-03-22T08:09:05.394Z</time></trkpt><trkpt lat="43.94626" lon="11.0421667"><ele>299.0</ele><time>2026-03-22T08:09:07.394Z</time></trkpt><trkpt lat="43.94633" lon="11.0421633"><ele>299.0</ele><time>2026-03-22T08:09:09.394Z</time></trkpt><trkpt lat="43.9464117" lon="11.0422317"><ele>299.0</ele><time>2026-03-22T08:09:11.394Z</time></trkpt><trkpt lat="43.94648" lon="11.0423067"><ele>299.0</ele><time>2026-03-22T08:09:13.393Z</time></trkpt><trkpt lat="43.9465117" lon="11.0424483"><ele>301.33333333333337</ele><time>2026-03-22T08:09:15.393Z</time></trkpt><trkpt lat="43.94657" lon="11.0426"><ele>303.6666666666667</ele><time>2026-03-22T08:09:17.393Z</time></trkpt><trkpt lat="43.9466267" lon="11.04264"><ele>306.0</ele><time>2026-03-22T08:09:18.393Z</time></trkpt><trkpt lat="43.946695" lon="11.0426667"><ele>308.3333333333333</ele><time>2026-03-22T08:09:19.394Z</time></trkpt><trkpt lat="43.94677" lon="11.042685"><ele>310.66666666666663</ele><time>2026-03-22T08:09:20.394Z</time></trkpt><trkpt lat="43.9468417" lon="11.0426933"><ele>313.0</ele><time>2026-03-22T08:09:21.393Z</time></trkpt><trkpt lat="43.946915" lon="11.0427"><ele>313.0</ele><time>2026-03-22T08:09:22.394Z</time></trkpt><trkpt lat="43.946995" lon="11.0427167"><ele>313.0</ele><time>2026-03-22T08:09:23.393Z</time></trkpt><trkpt lat="43.94707" lon="11.0427517"><ele>313.0</ele><time>2026-03-22T08:09:24.393Z</time></trkpt><trkpt lat="43.9471617" lon="11.04279"><ele>313.0</ele><time>2026-03-22T08:09:25.394Z</time></trkpt><trkpt lat="43.9472533" lon="11.0428183"><ele>313.0</ele><time>2026-03-22T08:09:26.394Z</time></trkpt><trkpt lat="43.9473533" lon="11.042835"><ele>313.0</ele><time>2026-03-22T08:09:27.393Z</time></trkpt><trkpt lat="43.9474483" lon="11.042835"><ele>313.0</ele><time>2026-03-22T08:09:28.393Z</time></trkpt><trkpt lat="43.9475283" lon="11.0428433"><ele>313.0</ele><time>2026-03-22T08:09:29.393Z</time></trkpt><trkpt lat="43.9475967" lon="11.0428567"><ele>313.0</ele><time>2026-03-22T08:09:30.393Z</time></trkpt><trkpt lat="43.9477183" lon="11.0428883"><ele>313.0</ele><time>2026-03-22T08:09:32.393Z</time></trkpt><trkpt lat="43.947835" lon="11.0429367"><ele>311.4</ele><time>2026-03-22T08:09:34.393Z</time></trkpt><trkpt lat="43.947895" lon="11.04297"><ele>309.8</ele><time>2026-03-22T08:09:35.393Z</time></trkpt><trkpt lat="43.9479633" lon="11.0430067"><ele>308.2</ele><time>2026-03-22T08:09:36.393Z</time></trkpt><trkpt lat="43.9480633" lon="11.0430667"><ele>306.6</ele><time>2026-03-22T08:09:38.393Z</time></trkpt><trkpt lat="43.948175" lon="11.0431233"><ele>305.0</ele><time>2026-03-22T08:09:40.393Z</time></trkpt><trkpt lat="43.9482883" lon="11.0431667"><ele>304.8</ele><time>2026-03-22T08:09:42.393Z</time></trkpt><trkpt lat="43.9483967" lon="11.0432567"><ele>304.6</ele><time>2026-03-22T08:09:44.393Z</time></trkpt><trkpt lat="43.9484483" lon="11.04332"><ele>304.4</ele><time>2026-03-22T08:09:45.393Z</time></trkpt><trkpt lat="43.9485" lon="11.0433783"><ele>304.2</ele><time>2026-03-22T08:09:46.392Z</time></trkpt><trkpt lat="43.9485533" lon="11.0434283"><ele>304.0</ele><time>2026-03-22T08:09:47.393Z</time></trkpt><trkpt lat="43.948645" lon="11.04355"><ele>304.3333333333333</ele><time>2026-03-22T08:09:49.392Z</time></trkpt><trkpt lat="43.9487017" lon="11.04363"><ele>304.66666666666663</ele><time>2026-03-22T08:09:50.393Z</time></trkpt><trkpt lat="43.9487633" lon="11.0437083"><ele>305.0</ele><time>2026-03-22T08:09:51.393Z</time></trkpt><trkpt lat="43.94883" lon="11.04379"><ele>305.3333333333333</ele><time>2026-03-22T08:09:52.392Z</time></trkpt><trkpt lat="43.94889" lon="11.043875"><ele>305.6666666666667</ele><time>2026-03-22T08:09:53.393Z</time></trkpt><trkpt lat="43.9489433" lon="11.043955"><ele>306.0</ele><time>2026-03-22T08:09:54.393Z</time></trkpt><trkpt lat="43.9489883" lon="11.0440183"><ele>306.0</ele><time>2026-03-22T08:09:55.393Z</time></trkpt><trkpt lat="43.9490883" lon="11.0441117"><ele>306.0</ele><time>2026-03-22T08:09:57.392Z</time></trkpt><trkpt lat="43.9491467" lon="11.044155"><ele>306.0</ele><time>2026-03-22T08:09:58.393Z</time></trkpt><trkpt lat="43.9492167" lon="11.0442017"><ele>306.0</ele><time>2026-03-22T08:09:59.393Z</time></trkpt><trkpt lat="43.9492717" lon="11.0442467"><ele>306.0</ele><time>2026-03-22T08:10:00.393Z</time></trkpt><trkpt lat="43.9493667" lon="11.0443483"><ele>306.0</ele><time>2026-03-22T08:10:02.392Z</time></trkpt><trkpt lat="43.9494583" lon="11.044465"><ele>304.5</ele><time>2026-03-22T08:10:04.393Z</time></trkpt><trkpt lat="43.9495283" lon="11.04453"><ele>303.0</ele><time>2026-03-22T08:10:05.393Z</time></trkpt><trkpt lat="43.9496" lon="11.0445967"><ele>301.5</ele><time>2026-03-22T08:10:06.393Z</time></trkpt><trkpt lat="43.9496833" lon="11.044665"><ele>300.0</ele><time>2026-03-22T08:10:07.394Z</time></trkpt><trkpt lat="43.949755" lon="11.0447317"><ele>298.5</ele><time>2026-03-22T08:10:08.394Z</time></trkpt><trkpt lat="43.949835" lon="11.044795"><ele>297.0</ele><time>2026-03-22T08:10:09.393Z</time></trkpt><trkpt lat="43.9499133" lon="11.044855"><ele>297.0</ele><time>2026-03-22T08:10:10.394Z</time></trkpt><trkpt lat="43.9499833" lon="11.0449083"><ele>297.0</ele><time>2026-03-22T08:10:11.393Z</time></trkpt><trkpt lat="43.95006" lon="11.0449717"><ele>297.0</ele><time>2026-03-22T08:10:12.393Z</time></trkpt><trkpt lat="43.9501083" lon="11.04505"><ele>297.0</ele><time>2026-03-22T08:10:13.394Z</time></trkpt><trkpt lat="43.9501533" lon="11.04514"><ele>297.0</ele><time>2026-03-22T08:10:14.393Z</time></trkpt><trkpt lat="43.950205" lon="11.04523"><ele>297.0</ele><time>2026-03-22T08:10:15.393Z</time></trkpt><trkpt lat="43.9502683" lon="11.0453167"><ele>297.1666666666667</ele><time>2026-03-22T08:10:16.394Z</time></trkpt><trkpt lat="43.9503367" lon="11.0453983"><ele>297.3333333333333</ele><time>2026-03-22T08:10:17.394Z</time></trkpt><trkpt lat="43.9504033" lon="11.0454867"><ele>297.5</ele><time>2026-03-22T08:10:18.394Z</time></trkpt><trkpt lat="43.9504533" lon="11.0455783"><ele>297.66666666666663</ele><time>2026-03-22T08:10:19.393Z</time></trkpt><trkpt lat="43.9505083" lon="11.0456633"><ele>297.8333333333333</ele><time>2026-03-22T08:10:20.393Z</time></trkpt><trkpt lat="43.9505583" lon="11.0457517"><ele>298.0</ele><time>2026-03-22T08:10:21.393Z</time></trkpt><trkpt lat="43.9506" lon="11.0458367"><ele>300.16666666666663</ele><time>2026-03-22T08:10:22.394Z</time></trkpt><trkpt lat="43.9506417" lon="11.045925"><ele>302.3333333333333</ele><time>2026-03-22T08:10:23.393Z</time></trkpt><trkpt lat="43.9506717" lon="11.0460133"><ele>304.5</ele><time>2026-03-22T08:10:24.394Z</time></trkpt><trkpt lat="43.9507067" lon="11.0461033"><ele>306.6666666666667</ele><time>2026-03-22T08:10:25.393Z</time></trkpt><trkpt lat="43.9507533" lon="11.0461883"><ele>308.83333333333337</ele><time>2026-03-22T08:10:26.393Z</time></trkpt><trkpt lat="43.9508" lon="11.0462483"><ele>311.0</ele><time>2026-03-22T08:10:27.394Z</time></trkpt><trkpt lat="43.9508883" lon="11.0463533"><ele>311.0</ele><time>2026-03-22T08:10:29.393Z</time></trkpt><trkpt lat="43.950945" lon="11.046405"><ele>311.0</ele><time>2026-03-22T08:10:30.394Z</time></trkpt><trkpt lat="43.9510533" lon="11.0464917"><ele>311.0</ele><time>2026-03-22T08:10:32.393Z</time></trkpt><trkpt lat="43.9511483" lon="11.0465383"><ele>311.0</ele><time>2026-03-22T08:10:33.394Z</time></trkpt><trkpt lat="43.95126" lon="11.0466017"><ele>311.0</ele><time>2026-03-22T08:10:34.394Z</time></trkpt><trkpt lat="43.95134" lon="11.0466683"><ele>312.8</ele><time>2026-03-22T08:10:35.393Z</time></trkpt><trkpt lat="43.9514317" lon="11.0467417"><ele>314.6</ele><time>2026-03-22T08:10:36.393Z</time></trkpt><trkpt lat="43.95151" lon="11.0468233"><ele>316.4</ele><time>2026-03-22T08:10:37.394Z</time></trkpt><trkpt lat="43.9515733" lon="11.0469117"><ele>318.2</ele><time>2026-03-22T08:10:38.393Z</time></trkpt><trkpt lat="43.9516267" lon="11.0470017"><ele>320.0</ele><time>2026-03-22T08:10:39.394Z</time></trkpt><trkpt lat="43.95167" lon="11.047095"><ele>316.4</ele><time>2026-03-22T08:10:40.393Z</time></trkpt><trkpt lat="43.9517167" lon="11.047185"><ele>312.8</ele><time>2026-03-22T08:10:41.393Z</time></trkpt><trkpt lat="43.95176" lon="11.0472617"><ele>309.2</ele><time>2026-03-22T08:10:42.394Z</time></trkpt><trkpt lat="43.9518083" lon="11.0473233"><ele>305.6</ele><time>2026-03-22T08:10:43.394Z</time></trkpt><trkpt lat="43.9518967" lon="11.0474417"><ele>302.0</ele><time>2026-03-22T08:10:45.394Z</time></trkpt><trkpt lat="43.9519533" lon="11.0476"><ele>302.0</ele><time>2026-03-22T08:10:47.394Z</time></trkpt><trkpt lat="43.951985" lon="11.0476917"><ele>302.0</ele><time>2026-03-22T08:10:48.394Z</time></trkpt><trkpt lat="43.9520167" lon="11.0477783"><ele>302.0</ele><time>2026-03-22T08:10:49.394Z</time></trkpt><trkpt lat="43.952055" lon="11.0478667"><ele>302.0</ele><time>2026-03-22T08:10:50.393Z</time></trkpt><trkpt lat="43.9520817" lon="11.0479583"><ele>302.0</ele><time>2026-03-22T08:10:51.393Z</time></trkpt><trkpt lat="43.9521067" lon="11.0480567"><ele>302.0</ele><time>2026-03-22T08:10:52.394Z</time></trkpt><trkpt lat="43.9521517" lon="11.04822"><ele>305.5</ele><time>2026-03-22T08:10:54.393Z</time></trkpt><trkpt lat="43.9522183" lon="11.0483567"><ele>309.0</ele><time>2026-03-22T08:10:56.393Z</time></trkpt><trkpt lat="43.9522817" lon="11.048485"><ele>312.5</ele><time>2026-03-22T08:10:58.394Z</time></trkpt><trkpt lat="43.9523517" lon="11.04862"><ele>316.0</ele><time>2026-03-22T08:11:00.393Z</time></trkpt><trkpt lat="43.9524067" lon="11.0487833"><ele>316.0</ele><time>2026-03-22T08:11:02.393Z</time></trkpt><trkpt lat="43.9524367" lon="11.04887"><ele>316.0</ele><time>2026-03-22T08:11:03.393Z</time></trkpt><trkpt lat="43.95251" lon="11.04901"><ele>316.0</ele><time>2026-03-22T08:11:05.393Z</time></trkpt><trkpt lat="43.9525833" lon="11.0491217"><ele>316.0</ele><time>2026-03-22T08:11:07.394Z</time></trkpt><trkpt lat="43.952655" lon="11.0491767"><ele>316.0</ele><time>2026-03-22T08:11:09.393Z</time></trkpt><trkpt lat="43.952725" lon="11.0491933"><ele>314.0</ele><time>2026-03-22T08:11:11.394Z</time></trkpt><trkpt lat="43.9527817" lon="11.0491217"><ele>312.0</ele><time>2026-03-22T08:11:13.394Z</time></trkpt><trkpt lat="43.9528633" lon="11.0490117"><ele>310.0</ele><time>2026-03-22T08:11:15.393Z</time></trkpt><trkpt lat="43.9529217" lon="11.0489583"><ele>308.0</ele><time>2026-03-22T08:11:16.394Z</time></trkpt><trkpt lat="43.952985" lon="11.0489133"><ele>306.0</ele><time>2026-03-22T08:11:17.393Z</time></trkpt><trkpt lat="43.95305" lon="11.0488733"><ele>304.0</ele><time>2026-03-22T08:11:18.393Z</time></trkpt><trkpt lat="43.9531517" lon="11.0488233"><ele>304.0</ele><time>2026-03-22T08:11:20.393Z</time></trkpt><trkpt lat="43.953235" lon="11.0488083"><ele>304.0</ele><time>2026-03-22T08:11:22.394Z</time></trkpt><trkpt lat="43.953305" lon="11.0488583"><ele>304.0</ele><time>2026-03-22T08:11:24.394Z</time></trkpt><trkpt lat="43.9533533" lon="11.0489283"><ele>304.0</ele><time>2026-03-22T08:11:26.393Z</time></trkpt><trkpt lat="43.953425" lon="11.04903"><ele>304.0</ele><time>2026-03-22T08:11:28.394Z</time></trkpt><trkpt lat="43.9535067" lon="11.0491533"><ele>308.0</ele><time>2026-03-22T08:11:30.393Z</time></trkpt><trkpt lat="43.953595" lon="11.0492767"><ele>312.0</ele><time>2026-03-22T08:11:32.393Z</time></trkpt><trkpt lat="43.9536767" lon="11.0493717"><ele>316.0</ele><time>2026-03-22T08:11:34.393Z</time></trkpt><trkpt lat="43.9537217" lon="11.0494383"><ele>320.0</ele><time>2026-03-22T08:11:36.393Z</time></trkpt><trkpt lat="43.9537917" lon="11.0494717"><ele>324.0</ele><time>2026-03-22T08:11:38.393Z</time></trkpt><trkpt lat="43.9539" lon="11.0494967"><ele>324.0</ele><time>2026-03-22T08:11:40.393Z</time></trkpt><trkpt lat="43.9539783" lon="11.0494933"><ele>324.0</ele><time>2026-03-22T08:11:41.393Z</time></trkpt><trkpt lat="43.9540483" lon="11.0494883"><ele>324.0</ele><time>2026-03-22T08:11:42.393Z</time></trkpt><trkpt lat="43.95411" lon="11.0494633"><ele>324.0</ele><time>2026-03-22T08:11:43.393Z</time></trkpt><trkpt lat="43.9541783" lon="11.04944"><ele>324.0</ele><time>2026-03-22T08:11:44.393Z</time></trkpt><trkpt lat="43.954255" lon="11.0494217"><ele>324.0</ele><time>2026-03-22T08:11:45.394Z</time></trkpt><trkpt lat="43.95432" lon="11.0493883"><ele>324.0</ele><time>2026-03-22T08:11:46.393Z</time></trkpt><trkpt lat="43.9543817" lon="11.0493533"><ele>325.0</ele><time>2026-03-22T08:11:47.393Z</time></trkpt><trkpt lat="43.9544433" lon="11.0493117"><ele>326.0</ele><time>2026-03-22T08:11:48.393Z</time></trkpt><trkpt lat="43.954505" lon="11.0492817"><ele>327.0</ele><time>2026-03-22T08:11:49.394Z</time></trkpt><trkpt lat="43.9545717" lon="11.0492483"><ele>328.0</ele><time>2026-03-22T08:11:50.394Z</time></trkpt><trkpt lat="43.954655" lon="11.0492217"><ele>329.0</ele><time>2026-03-22T08:11:51.394Z</time></trkpt><trkpt lat="43.9547283" lon="11.0492"><ele>330.0</ele><time>2026-03-22T08:11:52.394Z</time></trkpt><trkpt lat="43.9547967" lon="11.0491883"><ele>331.0</ele><time>2026-03-22T08:11:53.394Z</time></trkpt><trkpt lat="43.9548683" lon="11.0492"><ele>331.0</ele><time>2026-03-22T08:11:54.393Z</time></trkpt><trkpt lat="43.9549317" lon="11.0492317"><ele>331.0</ele><time>2026-03-22T08:11:55.394Z</time></trkpt><trkpt lat="43.95499" lon="11.0492733"><ele>331.0</ele><time>2026-03-22T08:11:56.393Z</time></trkpt><trkpt lat="43.9550517" lon="11.0493217"><ele>331.0</ele><time>2026-03-22T08:11:57.394Z</time></trkpt><trkpt lat="43.95516" lon="11.04945"><ele>331.0</ele><time>2026-03-22T08:11:59.393Z</time></trkpt><trkpt lat="43.95521" lon="11.0495217"><ele>331.0</ele><time>2026-03-22T08:12:00.393Z</time></trkpt><trkpt lat="43.9552883" lon="11.049645"><ele>329.20000000000005</ele><time>2026-03-22T08:12:02.394Z</time></trkpt><trkpt lat="43.95537" lon="11.0497617"><ele>327.40000000000003</ele><time>2026-03-22T08:12:04.394Z</time></trkpt><trkpt lat="43.9554083" lon="11.0498733"><ele>325.6</ele><time>2026-03-22T08:12:06.394Z</time></trkpt><trkpt lat="43.955465" lon="11.05"><ele>323.8</ele><time>2026-03-22T08:12:08.393Z</time></trkpt><trkpt lat="43.95553" lon="11.0501133"><ele>322.0</ele><time>2026-03-22T08:12:10.393Z</time></trkpt><trkpt lat="43.9555717" lon="11.05021"><ele>322.6</ele><time>2026-03-22T08:12:12.393Z</time></trkpt><trkpt lat="43.9556283" lon="11.0502767"><ele>323.20000000000005</ele><time>2026-03-22T08:12:15.394Z</time></trkpt><trkpt lat="43.955745" lon="11.0503417"><ele>323.8</ele><time>2026-03-22T08:12:28.393Z</time></trkpt><trkpt lat="43.955845" lon="11.050405"><ele>324.4</ele><time>2026-03-22T08:12:30.394Z</time></trkpt><trkpt lat="43.95595" lon="11.0504667"><ele>325.0</ele><time>2026-03-22T08:12:32.394Z</time></trkpt><trkpt lat="43.9560017" lon="11.0505267"><ele>325.0</ele><time>2026-03-22T08:12:33.394Z</time></trkpt><trkpt lat="43.9561033" lon="11.0506383"><ele>325.0</ele><time>2026-03-22T08:12:35.394Z</time></trkpt><trkpt lat="43.9561517" lon="11.0507"><ele>325.0</ele><time>2026-03-22T08:12:36.394Z</time></trkpt><trkpt lat="43.9562017" lon="11.0507583"><ele>325.0</ele><time>2026-03-22T08:12:37.394Z</time></trkpt><trkpt lat="43.9562833" lon="11.0508517"><ele>325.0</ele><time>2026-03-22T08:12:39.393Z</time></trkpt><trkpt lat="43.956335" lon="11.0509317"><ele>325.0</ele><time>2026-03-22T08:12:41.394Z</time></trkpt><trkpt lat="43.9564383" lon="11.0510483"><ele>328.2</ele><time>2026-03-22T08:12:59.394Z</time></trkpt><trkpt lat="43.9565333" lon="11.0511183"><ele>331.4</ele><time>2026-03-22T08:14:42.394Z</time></trkpt><trkpt lat="43.9565783" lon="11.05125"><ele>334.6</ele><time>2026-03-22T08:14:44.394Z</time></trkpt><trkpt lat="43.9565833" lon="11.051385"><ele>337.8</ele><time>2026-03-22T08:14:46.393Z</time></trkpt><trkpt lat="43.9565883" lon="11.0515"><ele>341.0</ele><time>2026-03-22T08:14:48.394Z</time></trkpt><trkpt lat="43.956605" lon="11.0515917"><ele>341.7142857142857</ele><time>2026-03-22T08:14:50.392Z</time></trkpt><trkpt lat="43.9566283" lon="11.051685"><ele>342.42857142857144</ele><time>2026-03-22T08:14:54.393Z</time></trkpt><trkpt lat="43.9566767" lon="11.05175"><ele>343.1428571428571</ele><time>2026-03-22T08:14:58.392Z</time></trkpt><trkpt lat="43.9567233" lon="11.0518133"><ele>343.8571428571429</ele><time>2026-03-22T08:15:01.392Z</time></trkpt><trkpt lat="43.9567683" lon="11.0518917"><ele>344.5714285714286</ele><time>2026-03-22T08:15:04.393Z</time></trkpt><trkpt lat="43.9567833" lon="11.051985"><ele>345.2857142857143</ele><time>2026-03-22T08:15:06.392Z</time></trkpt><trkpt lat="43.9568083" lon="11.0521233"><ele>346.0</ele><time>2026-03-22T08:15:08.392Z</time></trkpt><trkpt lat="43.9568533" lon="11.052255"><ele>341.3333333333333</ele><time>2026-03-22T08:15:10.392Z</time></trkpt><trkpt lat="43.9569067" lon="11.0523717"><ele>336.66666666666663</ele><time>2026-03-22T08:15:12.394Z</time></trkpt><trkpt lat="43.9569417" lon="11.052475"><ele>332.0</ele><time>2026-03-22T08:15:14.394Z</time></trkpt><trkpt lat="43.956955" lon="11.0525833"><ele>327.3333333333333</ele><time>2026-03-22T08:15:16.394Z</time></trkpt><trkpt lat="43.95695" lon="11.052685"><ele>322.6666666666667</ele><time>2026-03-22T08:15:18.393Z</time></trkpt><trkpt lat="43.9569417" lon="11.052785"><ele>318.0</ele><time>2026-03-22T08:15:20.394Z</time></trkpt><trkpt lat="43.95695" lon="11.0528883"><ele>318.0</ele><time>2026-03-22T08:15:22.393Z</time></trkpt><trkpt lat="43.9569617" lon="11.052995"><ele>318.0</ele><time>2026-03-22T08:15:25.393Z</time></trkpt><trkpt lat="43.9570017" lon="11.053095"><ele>318.0</ele><time>2026-03-22T08:15:30.394Z</time></trkpt><trkpt lat="43.9570283" lon="11.0532233"><ele>318.0</ele><time>2026-03-22T08:15:33.394Z</time></trkpt><trkpt lat="43.9570567" lon="11.0533233"><ele>318.0</ele><time>2026-03-22T08:15:35.393Z</time></trkpt><trkpt lat="43.9570783" lon="11.0531817"><ele>318.0</ele><time>2026-03-22T08:15:44.393Z</time></trkpt><trkpt lat="43.9571033" lon="11.0530267"><ele>318.0</ele><time>2026-03-22T08:15:46.393Z</time></trkpt><trkpt lat="43.9571167" lon="11.05294"><ele>318.0</ele><time>2026-03-22T08:15:47.394Z</time></trkpt><trkpt lat="43.9571533" lon="11.052775"><ele>318.0</ele><time>2026-03-22T08:15:49.393Z</time></trkpt><trkpt lat="43.9571683" lon="11.0526067"><ele>318.0</ele><time>2026-03-22T08:15:51.394Z</time></trkpt><trkpt lat="43.95718" lon="11.05252"><ele>318.0</ele><time>2026-03-22T08:15:52.393Z</time></trkpt><trkpt lat="43.9571917" lon="11.0524333"><ele>318.0</ele><time>2026-03-22T08:15:53.393Z</time></trkpt><trkpt lat="43.9572017" lon="11.0523283"><ele>317.5</ele><time>2026-03-22T08:15:54.394Z</time></trkpt><trkpt lat="43.9572067" lon="11.0522283"><ele>317.0</ele><time>2026-03-22T08:15:55.394Z</time></trkpt><trkpt lat="43.95721" lon="11.0521217"><ele>316.5</ele><time>2026-03-22T08:15:56.394Z</time></trkpt><trkpt lat="43.95721" lon="11.0520083"><ele>316.0</ele><time>2026-03-22T08:15:57.394Z</time></trkpt><trkpt lat="43.957215" lon="11.0518917"><ele>315.5</ele><time>2026-03-22T08:15:58.394Z</time></trkpt><trkpt lat="43.957215" lon="11.0517867"><ele>315.0</ele><time>2026-03-22T08:15:59.393Z</time></trkpt><trkpt lat="43.9572117" lon="11.0516733"><ele>315.1666666666667</ele><time>2026-03-22T08:16:00.393Z</time></trkpt><trkpt lat="43.957225" lon="11.051585"><ele>315.3333333333333</ele><time>2026-03-22T08:16:01.393Z</time></trkpt><trkpt lat="43.957255" lon="11.0514717"><ele>315.5</ele><time>2026-03-22T08:16:02.394Z</time></trkpt><trkpt lat="43.9572883" lon="11.05137"><ele>315.66666666666663</ele><time>2026-03-22T08:16:03.393Z</time></trkpt><trkpt lat="43.9573283" lon="11.0512683"><ele>315.8333333333333</ele><time>2026-03-22T08:16:04.393Z</time></trkpt><trkpt lat="43.9573717" lon="11.0511733"><ele>316.0</ele><time>2026-03-22T08:16:05.393Z</time></trkpt><trkpt lat="43.9574167" lon="11.0510767"><ele>316.0</ele><time>2026-03-22T08:16:06.394Z</time></trkpt><trkpt lat="43.95745" lon="11.0509783"><ele>316.0</ele><time>2026-03-22T08:16:07.394Z</time></trkpt><trkpt lat="43.957475" lon="11.050885"><ele>316.0</ele><time>2026-03-22T08:16:08.394Z</time></trkpt><trkpt lat="43.9574817" lon="11.0507767"><ele>316.0</ele><time>2026-03-22T08:16:09.393Z</time></trkpt><trkpt lat="43.9574683" lon="11.0506633"><ele>316.0</ele><time>2026-03-22T08:16:10.393Z</time></trkpt><trkpt lat="43.9574567" lon="11.050565"><ele>316.0</ele><time>2026-03-22T08:16:11.394Z</time></trkpt><trkpt lat="43.9574167" lon="11.0504017"><ele>314.7142857142857</ele><time>2026-03-22T08:16:13.394Z</time></trkpt><trkpt lat="43.9573783" lon="11.05033"><ele>313.42857142857144</ele><time>2026-03-22T08:16:14.394Z</time></trkpt><trkpt lat="43.9573283" lon="11.050265"><ele>312.1428571428571</ele><time>2026-03-22T08:16:15.393Z</time></trkpt><trkpt lat="43.9572817" lon="11.0502033"><ele>310.8571428571429</ele><time>2026-03-22T08:16:16.393Z</time></trkpt><trkpt lat="43.9571883" lon="11.0500933"><ele>309.57142857142856</ele><time>2026-03-22T08:16:18.394Z</time></trkpt><trkpt lat="43.9571333" lon="11.0500483"><ele>308.2857142857143</ele><time>2026-03-22T08:16:19.393Z</time></trkpt><trkpt lat="43.9570767" lon="11.0500067"><ele>307.0</ele><time>2026-03-22T08:16:20.394Z</time></trkpt><trkpt lat="43.9570117" lon="11.0499667"><ele>306.0</ele><time>2026-03-22T08:16:21.394Z</time></trkpt><trkpt lat="43.956935" lon="11.0499067"><ele>305.0</ele><time>2026-03-22T08:16:22.394Z</time></trkpt><trkpt lat="43.9568583" lon="11.0498267"><ele>304.0</ele><time>2026-03-22T08:16:23.393Z</time></trkpt><trkpt lat="43.95679" lon="11.0497383"><ele>303.0</ele><time>2026-03-22T08:16:24.394Z</time></trkpt><trkpt lat="43.9567317" lon="11.0496433"><ele>302.0</ele><time>2026-03-22T08:16:25.393Z</time></trkpt><trkpt lat="43.956665" lon="11.04955"><ele>302.0</ele><time>2026-03-22T08:16:26.394Z</time></trkpt><trkpt lat="43.9566017" lon="11.0494567"><ele>302.0</ele><time>2026-03-22T08:16:27.393Z</time></trkpt><trkpt lat="43.95654" lon="11.0493633"><ele>302.0</ele><time>2026-03-22T08:16:28.394Z</time></trkpt><trkpt lat="43.9564683" lon="11.0492817"><ele>302.0</ele><time>2026-03-22T08:16:29.394Z</time></trkpt><trkpt lat="43.9563817" lon="11.04919"><ele>302.0</ele><time>2026-03-22T08:16:30.394Z</time></trkpt><trkpt lat="43.9563033" lon="11.0491"><ele>297.6</ele><time>2026-03-22T08:16:31.393Z</time></trkpt><trkpt lat="43.9562317" lon="11.0489967"><ele>293.2</ele><time>2026-03-22T08:16:32.394Z</time></trkpt><trkpt lat="43.9561717" lon="11.0488817"><ele>288.8</ele><time>2026-03-22T08:16:33.394Z</time></trkpt><trkpt lat="43.95612" lon="11.0487583"><ele>284.4</ele><time>2026-03-22T08:16:34.394Z</time></trkpt><trkpt lat="43.956065" lon="11.0486533"><ele>280.0</ele><time>2026-03-22T08:16:35.393Z</time></trkpt><trkpt lat="43.956005" lon="11.048565"><ele>280.0</ele><time>2026-03-22T08:16:36.394Z</time></trkpt><trkpt lat="43.955935" lon="11.0484817"><ele>280.0</ele><time>2026-03-22T08:16:37.394Z</time></trkpt><trkpt lat="43.9558467" lon="11.0484033"><ele>280.0</ele><time>2026-03-22T08:16:38.394Z</time></trkpt><trkpt lat="43.9557283" lon="11.0483383"><ele>280.0</ele><time>2026-03-22T08:16:39.393Z</time></trkpt><trkpt lat="43.95562" lon="11.0482567"><ele>280.0</ele><time>2026-03-22T08:16:40.393Z</time></trkpt><trkpt lat="43.9555167" lon="11.0481667"><ele>278.8</ele><time>2026-03-22T08:16:41.393Z</time></trkpt><trkpt lat="43.955415" lon="11.0480833"><ele>277.6</ele><time>2026-03-22T08:16:42.394Z</time></trkpt><trkpt lat="43.9553183" lon="11.0480083"><ele>276.4</ele><time>2026-03-22T08:16:43.394Z</time></trkpt><trkpt lat="43.9552167" lon="11.04794"><ele>275.2</ele><time>2026-03-22T08:16:44.394Z</time></trkpt><trkpt lat="43.9551317" lon="11.0478767"><ele>274.0</ele><time>2026-03-22T08:16:45.393Z</time></trkpt><trkpt lat="43.9550467" lon="11.0478283"><ele>276.16666666666663</ele><time>2026-03-22T08:16:46.394Z</time></trkpt><trkpt lat="43.9549683" lon="11.047795"><ele>278.3333333333333</ele><time>2026-03-22T08:16:47.394Z</time></trkpt><trkpt lat="43.9549067" lon="11.04776"><ele>280.5</ele><time>2026-03-22T08:16:48.393Z</time></trkpt><trkpt lat="43.9548517" lon="11.047715"><ele>282.6666666666667</ele><time>2026-03-22T08:16:49.394Z</time></trkpt><trkpt lat="43.9548017" lon="11.04766"><ele>284.83333333333337</ele><time>2026-03-22T08:16:50.393Z</time></trkpt><trkpt lat="43.9548383" lon="11.04757"><ele>287.0</ele><time>2026-03-22T08:16:53.393Z</time></trkpt><trkpt lat="43.95495" lon="11.0476117"><ele>287.0</ele><time>2026-03-22T08:16:56.394Z</time></trkpt><trkpt lat="43.955035" lon="11.04766"><ele>287.0</ele><time>2026-03-22T08:16:57.394Z</time></trkpt><trkpt lat="43.9551267" lon="11.0477217"><ele>287.0</ele><time>2026-03-22T08:16:58.393Z</time></trkpt><trkpt lat="43.95522" lon="11.0477867"><ele>287.0</ele><time>2026-03-22T08:16:59.394Z</time></trkpt><trkpt lat="43.95532" lon="11.0478417"><ele>287.0</ele><time>2026-03-22T08:17:00.393Z</time></trkpt><trkpt lat="43.9554083" lon="11.0478883"><ele>284.4</ele><time>2026-03-22T08:17:01.394Z</time></trkpt><trkpt lat="43.9554967" lon="11.047925"><ele>281.79999999999995</ele><time>2026-03-22T08:17:02.394Z</time></trkpt><trkpt lat="43.9556083" lon="11.0479333"><ele>279.2</ele><time>2026-03-22T08:17:03.393Z</time></trkpt><trkpt lat="43.9557033" lon="11.0479267"><ele>276.59999999999997</ele><time>2026-03-22T08:17:04.394Z</time></trkpt><trkpt lat="43.9558183" lon="11.0479517"><ele>274.0</ele><time>2026-03-22T08:17:05.393Z</time></trkpt><trkpt lat="43.95595" lon="11.0479783"><ele>271.0</ele><time>2026-03-22T08:17:06.393Z</time></trkpt><trkpt lat="43.95606" lon="11.04802"><ele>268.0</ele><time>2026-03-22T08:17:07.394Z</time></trkpt><trkpt lat="43.956165" lon="11.0480583"><ele>265.0</ele><time>2026-03-22T08:17:08.393Z</time></trkpt><trkpt lat="43.9562267" lon="11.048105"><ele>262.0</ele><time>2026-03-22T08:17:09.394Z</time></trkpt><trkpt lat="43.956315" lon="11.048175"><ele>259.0</ele><time>2026-03-22T08:17:10.393Z</time></trkpt><trkpt lat="43.9564217" lon="11.0482617"><ele>259.25</ele><time>2026-03-22T08:17:11.393Z</time></trkpt><trkpt lat="43.956515" lon="11.048355"><ele>259.5</ele><time>2026-03-22T08:17:12.394Z</time></trkpt><trkpt lat="43.9566067" lon="11.04845"><ele>259.75</ele><time>2026-03-22T08:17:13.394Z</time></trkpt><trkpt lat="43.9566967" lon="11.0485383"><ele>260.0</ele><time>2026-03-22T08:17:14.394Z</time></trkpt><trkpt lat="43.956795" lon="11.0486467"><ele>260.0</ele><time>2026-03-22T08:17:15.394Z</time></trkpt><trkpt lat="43.95688" lon="11.0487483"><ele>260.0</ele><time>2026-03-22T08:17:16.393Z</time></trkpt><trkpt lat="43.9569767" lon="11.048845"><ele>260.0</ele><time>2026-03-22T08:17:17.393Z</time></trkpt><trkpt lat="43.9570883" lon="11.0489183"><ele>260.0</ele><time>2026-03-22T08:17:18.393Z</time></trkpt><trkpt lat="43.957205" lon="11.048985"><ele>260.0</ele><time>2026-03-22T08:17:19.393Z</time></trkpt><trkpt lat="43.9573317" lon="11.04901"><ele>260.0</ele><time>2026-03-22T08:17:20.394Z</time></trkpt><trkpt lat="43.9574433" lon="11.04901"><ele>260.0</ele><time>2026-03-22T08:17:21.393Z</time></trkpt><trkpt lat="43.9575583" lon="11.0490067"><ele>260.0</ele><time>2026-03-22T08:17:22.394Z</time></trkpt><trkpt lat="43.957665" lon="11.049005"><ele>260.0</ele><time>2026-03-22T08:17:23.393Z</time></trkpt><trkpt lat="43.9577733" lon="11.0490117"><ele>260.0</ele><time>2026-03-22T08:17:24.393Z</time></trkpt><trkpt lat="43.9578783" lon="11.0490433"><ele>260.0</ele><time>2026-03-22T08:17:25.394Z</time></trkpt><trkpt lat="43.9579767" lon="11.049095"><ele>260.0</ele><time>2026-03-22T08:17:26.394Z</time></trkpt><trkpt lat="43.958065" lon="11.049165"><ele>260.0</ele><time>2026-03-22T08:17:27.393Z</time></trkpt><trkpt lat="43.9581417" lon="11.0492383"><ele>258.83333333333337</ele><time>2026-03-22T08:17:28.393Z</time></trkpt><trkpt lat="43.9582167" lon="11.0493117"><ele>257.6666666666667</ele><time>2026-03-22T08:17:29.393Z</time></trkpt><trkpt lat="43.9582733" lon="11.0493867"><ele>256.5</ele><time>2026-03-22T08:17:30.393Z</time></trkpt><trkpt lat="43.9583133" lon="11.049465"><ele>255.33333333333331</ele><time>2026-03-22T08:17:31.393Z</time></trkpt><trkpt lat="43.95838" lon="11.0495733"><ele>254.16666666666666</ele><time>2026-03-22T08:17:33.393Z</time></trkpt><trkpt lat="43.9584417" lon="11.0495433"><ele>253.0</ele><time>2026-03-22T08:17:35.394Z</time></trkpt><trkpt lat="43.9584917" lon="11.049365"><ele>252.99999999999997</ele><time>2026-03-22T08:17:37.394Z</time></trkpt><trkpt lat="43.958515" lon="11.0492533"><ele>253.0</ele><time>2026-03-22T08:17:38.393Z</time></trkpt><trkpt lat="43.9585167" lon="11.0491117"><ele>253.0</ele><time>2026-03-22T08:17:39.393Z</time></trkpt><trkpt lat="43.9585233" lon="11.0489867"><ele>253.0</ele><time>2026-03-22T08:17:40.393Z</time></trkpt><trkpt lat="43.9585183" lon="11.0488683"><ele>252.99999999999997</ele><time>2026-03-22T08:17:41.394Z</time></trkpt><trkpt lat="43.9585017" lon="11.0487617"><ele>253.0</ele><time>2026-03-22T08:17:42.394Z</time></trkpt><trkpt lat="43.9584317" lon="11.0486917"><ele>252.66666666666666</ele><time>2026-03-22T08:17:43.393Z</time></trkpt><trkpt lat="43.9583683" lon="11.0486367"><ele>252.33333333333331</ele><time>2026-03-22T08:17:44.394Z</time></trkpt><trkpt lat="43.9582983" lon="11.0485933"><ele>252.0</ele><time>2026-03-22T08:17:45.393Z</time></trkpt><trkpt lat="43.9582133" lon="11.0485567"><ele>251.66666666666669</ele><time>2026-03-22T08:17:46.393Z</time></trkpt><trkpt lat="43.9581" lon="11.0485217"><ele>251.33333333333334</ele><time>2026-03-22T08:17:47.393Z</time></trkpt><trkpt lat="43.9580133" lon="11.0485033"><ele>251.0</ele><time>2026-03-22T08:17:48.394Z</time></trkpt><trkpt lat="43.9579317" lon="11.0484783"><ele>252.50000000000003</ele><time>2026-03-22T08:17:49.393Z</time></trkpt><trkpt lat="43.9578517" lon="11.0484583"><ele>254.0</ele><time>2026-03-22T08:17:50.394Z</time></trkpt><trkpt lat="43.95777" lon="11.0484233"><ele>255.5</ele><time>2026-03-22T08:17:51.393Z</time></trkpt><trkpt lat="43.9576917" lon="11.048375"><ele>257.0</ele><time>2026-03-22T08:17:52.393Z</time></trkpt><trkpt lat="43.9576133" lon="11.04832"><ele>258.5</ele><time>2026-03-22T08:17:53.393Z</time></trkpt><trkpt lat="43.957525" lon="11.0482717"><ele>260.0</ele><time>2026-03-22T08:17:54.393Z</time></trkpt><trkpt lat="43.9574633" lon="11.0482217"><ele>256.4</ele><time>2026-03-22T08:17:55.393Z</time></trkpt><trkpt lat="43.9573833" lon="11.0481567"><ele>252.8</ele><time>2026-03-22T08:17:56.393Z</time></trkpt><trkpt lat="43.957335" lon="11.0480933"><ele>249.2</ele><time>2026-03-22T08:17:57.394Z</time></trkpt><trkpt lat="43.9572783" lon="11.0479433"><ele>245.6</ele><time>2026-03-22T08:17:59.394Z</time></trkpt><trkpt lat="43.9572383" lon="11.0477983"><ele>242.0</ele><time>2026-03-22T08:18:01.394Z</time></trkpt><trkpt lat="43.9572117" lon="11.0476717"><ele>242.0</ele><time>2026-03-22T08:18:03.394Z</time></trkpt><trkpt lat="43.9571767" lon="11.04752"><ele>242.0</ele><time>2026-03-22T08:18:05.393Z</time></trkpt><trkpt lat="43.957125" lon="11.04738"><ele>242.0</ele><time>2026-03-22T08:18:07.393Z</time></trkpt><trkpt lat="43.9570483" lon="11.0472583"><ele>242.0</ele><time>2026-03-22T08:18:09.393Z</time></trkpt><trkpt lat="43.9569933" lon="11.04721"><ele>242.0</ele><time>2026-03-22T08:18:10.393Z</time></trkpt><trkpt lat="43.9569333" lon="11.047165"><ele>240.50000000000003</ele><time>2026-03-22T08:18:11.394Z</time></trkpt><trkpt lat="43.9568767" lon="11.047115"><ele>239.0</ele><time>2026-03-22T08:18:12.394Z</time></trkpt><trkpt lat="43.9568183" lon="11.0470483"><ele>237.5</ele><time>2026-03-22T08:18:13.393Z</time></trkpt><trkpt lat="43.9567617" lon="11.04698"><ele>236.0</ele><time>2026-03-22T08:18:14.394Z</time></trkpt><trkpt lat="43.9566967" lon="11.04691"><ele>234.50000000000003</ele><time>2026-03-22T08:18:15.394Z</time></trkpt><trkpt lat="43.95661" lon="11.0468367"><ele>233.0</ele><time>2026-03-22T08:18:16.393Z</time></trkpt><trkpt lat="43.9565183" lon="11.0467867"><ele>233.0</ele><time>2026-03-22T08:18:17.394Z</time></trkpt><trkpt lat="43.956415" lon="11.0467467"><ele>233.0</ele><time>2026-03-22T08:18:18.394Z</time></trkpt><trkpt lat="43.9563167" lon="11.046715"><ele>233.0</ele><time>2026-03-22T08:18:19.393Z</time></trkpt><trkpt lat="43.95622" lon="11.0466917"><ele>233.0</ele><time>2026-03-22T08:18:20.394Z</time></trkpt><trkpt lat="43.9561267" lon="11.04663"><ele>233.0</ele><time>2026-03-22T08:18:21.394Z</time></trkpt><trkpt lat="43.9560417" lon="11.0465583"><ele>230.2</ele><time>2026-03-22T08:18:22.394Z</time></trkpt><trkpt lat="43.95596" lon="11.046475"><ele>227.4</ele><time>2026-03-22T08:18:23.394Z</time></trkpt><trkpt lat="43.9558783" lon="11.046405"><ele>224.59999999999997</ele><time>2026-03-22T08:18:24.394Z</time></trkpt><trkpt lat="43.9558033" lon="11.046325"><ele>221.79999999999998</ele><time>2026-03-22T08:18:25.393Z</time></trkpt><trkpt lat="43.95573" lon="11.0462217"><ele>219.0</ele><time>2026-03-22T08:18:26.394Z</time></trkpt><trkpt lat="43.95567" lon="11.0461233"><ele>219.0</ele><time>2026-03-22T08:18:27.393Z</time></trkpt><trkpt lat="43.9556217" lon="11.046015"><ele>218.99999999999997</ele><time>2026-03-22T08:18:28.393Z</time></trkpt><trkpt lat="43.9555717" lon="11.0458833"><ele>218.99999999999997</ele><time>2026-03-22T08:18:29.393Z</time></trkpt><trkpt lat="43.9555267" lon="11.045755"><ele>219.0</ele><time>2026-03-22T08:18:30.393Z</time></trkpt><trkpt lat="43.9554833" lon="11.0456333"><ele>219.0</ele><time>2026-03-22T08:18:31.393Z</time></trkpt><trkpt lat="43.9554433" lon="11.0455183"><ele>215.0</ele><time>2026-03-22T08:18:32.394Z</time></trkpt><trkpt lat="43.9554" lon="11.045415"><ele>210.99999999999997</ele><time>2026-03-22T08:18:33.393Z</time></trkpt><trkpt lat="43.9553533" lon="11.0452967"><ele>207.0</ele><time>2026-03-22T08:18:34.393Z</time></trkpt><trkpt lat="43.95529" lon="11.0452017"><ele>203.0</ele><time>2026-03-22T08:18:35.394Z</time></trkpt><trkpt lat="43.955215" lon="11.045115"><ele>199.0</ele><time>2026-03-22T08:18:36.394Z</time></trkpt><trkpt lat="43.9551283" lon="11.0450433"><ele>198.99999999999997</ele><time>2026-03-22T08:18:37.394Z</time></trkpt><trkpt lat="43.9550683" lon="11.0449633"><ele>199.0</ele><time>2026-03-22T08:18:38.393Z</time></trkpt><trkpt lat="43.9549883" lon="11.04488"><ele>199.0</ele><time>2026-03-22T08:18:39.394Z</time></trkpt><trkpt lat="43.9549433" lon="11.0447917"><ele>199.0</ele><time>2026-03-22T08:18:40.394Z</time></trkpt><trkpt lat="43.954905" lon="11.0447117"><ele>198.99999999999997</ele><time>2026-03-22T08:18:41.393Z</time></trkpt><trkpt lat="43.9548667" lon="11.0446417"><ele>199.0</ele><time>2026-03-22T08:18:42.394Z</time></trkpt><trkpt lat="43.9548083" lon="11.044585"><ele>198.49999999999997</ele><time>2026-03-22T08:18:43.394Z</time></trkpt><trkpt lat="43.95476" lon="11.0445283"><ele>198.0</ele><time>2026-03-22T08:18:44.394Z</time></trkpt><trkpt lat="43.9547017" lon="11.0444783"><ele>197.5</ele><time>2026-03-22T08:18:45.393Z</time></trkpt><trkpt lat="43.9546267" lon="11.0444133"><ele>197.0</ele><time>2026-03-22T08:18:46.394Z</time></trkpt><trkpt lat="43.9545283" lon="11.04436"><ele>196.49999999999997</ele><time>2026-03-22T08:18:47.394Z</time></trkpt><trkpt lat="43.9544433" lon="11.0443067"><ele>196.0</ele><time>2026-03-22T08:18:48.394Z</time></trkpt><trkpt lat="43.9543483" lon="11.0442533"><ele>195.99999999999997</ele><time>2026-03-22T08:18:49.393Z</time></trkpt><trkpt lat="43.95426" lon="11.0442067"><ele>196.0</ele><time>2026-03-22T08:18:50.393Z</time></trkpt><trkpt lat="43.9541733" lon="11.0441667"><ele>196.0</ele><time>2026-03-22T08:18:51.393Z</time></trkpt><trkpt lat="43.9540933" lon="11.0441217"><ele>196.0</ele><time>2026-03-22T08:18:52.393Z</time></trkpt><trkpt lat="43.9540217" lon="11.044075"><ele>195.99999999999997</ele><time>2026-03-22T08:18:53.394Z</time></trkpt><trkpt lat="43.9539433" lon="11.0440283"><ele>196.0</ele><time>2026-03-22T08:18:54.393Z</time></trkpt><trkpt lat="43.9538717" lon="11.0440017"><ele>194.99999999999997</ele><time>2026-03-22T08:18:55.394Z</time></trkpt><trkpt lat="43.9537983" lon="11.0439733"><ele>194.0</ele><time>2026-03-22T08:18:56.394Z</time></trkpt><trkpt lat="43.9537283" lon="11.0439583"><ele>193.0</ele><time>2026-03-22T08:18:57.393Z</time></trkpt><trkpt lat="43.953665" lon="11.0439383"><ele>192.0</ele><time>2026-03-22T08:18:58.393Z</time></trkpt><trkpt lat="43.9535467" lon="11.0439533"><ele>191.0</ele><time>2026-03-22T08:19:00.393Z</time></trkpt><trkpt lat="43.9534333" lon="11.043935"><ele>190.0</ele><time>2026-03-22T08:19:02.394Z</time></trkpt><trkpt lat="43.9533467" lon="11.0439417"><ele>195.2</ele><time>2026-03-22T08:19:04.394Z</time></trkpt><trkpt lat="43.9532717" lon="11.0438233"><ele>200.4</ele><time>2026-03-22T08:19:07.393Z</time></trkpt><trkpt lat="43.9532383" lon="11.043725"><ele>205.60000000000002</ele><time>2026-03-22T08:19:08.393Z</time></trkpt><trkpt lat="43.953225" lon="11.0435917"><ele>210.8</ele><time>2026-03-22T08:19:09.393Z</time></trkpt><trkpt lat="43.9531817" lon="11.04345"><ele>216.0</ele><time>2026-03-22T08:19:10.394Z</time></trkpt><trkpt lat="43.9532017" lon="11.043325"><ele>212.4</ele><time>2026-03-22T08:19:11.393Z</time></trkpt><trkpt lat="43.953225" lon="11.043235"><ele>208.8</ele><time>2026-03-22T08:19:12.394Z</time></trkpt><trkpt lat="43.953215" lon="11.043075"><ele>205.20000000000002</ele><time>2026-03-22T08:19:14.393Z</time></trkpt><trkpt lat="43.9532417" lon="11.0429733"><ele>201.60000000000002</ele><time>2026-03-22T08:19:15.393Z</time></trkpt><trkpt lat="43.95318" lon="11.0428"><ele>198.0</ele><time>2026-03-22T08:19:17.394Z</time></trkpt><trkpt lat="43.9531333" lon="11.042715"><ele>198.0</ele><time>2026-03-22T08:19:18.393Z</time></trkpt><trkpt lat="43.9530717" lon="11.0426283"><ele>198.0</ele><time>2026-03-22T08:19:19.394Z</time></trkpt><trkpt lat="43.9529967" lon="11.0425533"><ele>198.0</ele><time>2026-03-22T08:19:20.394Z</time></trkpt><trkpt lat="43.9529117" lon="11.0424917"><ele>198.0</ele><time>2026-03-22T08:19:21.393Z</time></trkpt><trkpt lat="43.9527983" lon="11.042475"><ele>198.0</ele><time>2026-03-22T08:19:22.394Z</time></trkpt><trkpt lat="43.9526883" lon="11.0424783"><ele>198.0</ele><time>2026-03-22T08:19:23.394Z</time></trkpt><trkpt lat="43.9525817" lon="11.0424833"><ele>198.0</ele><time>2026-03-22T08:19:24.394Z</time></trkpt><trkpt lat="43.9524633" lon="11.042475"><ele>198.0</ele><time>2026-03-22T08:19:25.393Z</time></trkpt><trkpt lat="43.9523517" lon="11.0424867"><ele>198.0</ele><time>2026-03-22T08:19:26.393Z</time></trkpt><trkpt lat="43.9522433" lon="11.0425183"><ele>198.0</ele><time>2026-03-22T08:19:27.394Z</time></trkpt><trkpt lat="43.9521583" lon="11.0425433"><ele>196.66666666666666</ele><time>2026-03-22T08:19:28.393Z</time></trkpt><trkpt lat="43.9520783" lon="11.04257"><ele>195.33333333333334</ele><time>2026-03-22T08:19:29.394Z</time></trkpt><trkpt lat="43.9520133" lon="11.0425933"><ele>194.0</ele><time>2026-03-22T08:19:30.393Z</time></trkpt><trkpt lat="43.95195" lon="11.0426167"><ele>192.66666666666669</ele><time>2026-03-22T08:19:31.394Z</time></trkpt><trkpt lat="43.95188" lon="11.0425617"><ele>191.33333333333334</ele><time>2026-03-22T08:19:33.393Z</time></trkpt><trkpt lat="43.9518983" lon="11.04247"><ele>190.0</ele><time>2026-03-22T08:19:34.393Z</time></trkpt><trkpt lat="43.9519367" lon="11.0423533"><ele>190.0</ele><time>2026-03-22T08:19:35.394Z</time></trkpt><trkpt lat="43.9519717" lon="11.0422367"><ele>190.0</ele><time>2026-03-22T08:19:36.393Z</time></trkpt><trkpt lat="43.9519867" lon="11.042125"><ele>190.0</ele><time>2026-03-22T08:19:37.393Z</time></trkpt><trkpt lat="43.9520033" lon="11.0420017"><ele>190.0</ele><time>2026-03-22T08:19:38.393Z</time></trkpt><trkpt lat="43.9520167" lon="11.04188"><ele>190.0</ele><time>2026-03-22T08:19:39.394Z</time></trkpt><trkpt lat="43.95203" lon="11.0417883"><ele>190.0</ele><time>2026-03-22T08:19:40.393Z</time></trkpt><trkpt lat="43.95205" lon="11.0416733"><ele>186.83333333333334</ele><time>2026-03-22T08:19:41.393Z</time></trkpt><trkpt lat="43.95206" lon="11.0415783"><ele>183.66666666666669</ele><time>2026-03-22T08:19:42.393Z</time></trkpt><trkpt lat="43.9520517" lon="11.0414667"><ele>180.5</ele><time>2026-03-22T08:19:43.393Z</time></trkpt><trkpt lat="43.9520383" lon="11.0413583"><ele>177.33333333333334</ele><time>2026-03-22T08:19:44.393Z</time></trkpt><trkpt lat="43.95201" lon="11.0412617"><ele>174.16666666666666</ele><time>2026-03-22T08:19:45.393Z</time></trkpt><trkpt lat="43.9519717" lon="11.041165"><ele>171.0</ele><time>2026-03-22T08:19:46.393Z</time></trkpt><trkpt lat="43.9519133" lon="11.0410783"><ele>171.0</ele><time>2026-03-22T08:19:47.392Z</time></trkpt><trkpt lat="43.9518417" lon="11.04098"><ele>171.0</ele><time>2026-03-22T08:19:48.393Z</time></trkpt><trkpt lat="43.9517717" lon="11.04086"><ele>171.0</ele><time>2026-03-22T08:19:49.392Z</time></trkpt><trkpt lat="43.9517217" lon="11.0407283"><ele>171.0</ele><time>2026-03-22T08:19:50.392Z</time></trkpt><trkpt lat="43.9516667" lon="11.0406017"><ele>171.0</ele><time>2026-03-22T08:19:51.394Z</time></trkpt><trkpt lat="43.9516017" lon="11.040485"><ele>173.0</ele><time>2026-03-22T08:19:52.394Z</time></trkpt><trkpt lat="43.9515167" lon="11.0403583"><ele>175.0</ele><time>2026-03-22T08:19:53.392Z</time></trkpt><trkpt lat="43.951425" lon="11.04023"><ele>177.0</ele><time>2026-03-22T08:19:54.392Z</time></trkpt><trkpt lat="43.9513317" lon="11.0401167"><ele>179.0</ele><time>2026-03-22T08:19:55.392Z</time></trkpt><trkpt lat="43.9512333" lon="11.0400267"><ele>178.5</ele><time>2026-03-22T08:19:56.392Z</time></trkpt><trkpt lat="43.9511217" lon="11.0399467"><ele>178.0</ele><time>2026-03-22T08:19:57.392Z</time></trkpt><trkpt lat="43.9510167" lon="11.039885"><ele>177.5</ele><time>2026-03-22T08:19:58.394Z</time></trkpt><trkpt lat="43.9508983" lon="11.0398033"><ele>177.0</ele><time>2026-03-22T08:19:59.394Z</time></trkpt><trkpt lat="43.95078" lon="11.0397233"><ele>177.0</ele><time>2026-03-22T08:20:00.392Z</time></trkpt><trkpt lat="43.95065" lon="11.0396533"><ele>177.0</ele><time>2026-03-22T08:20:01.392Z</time></trkpt><trkpt lat="43.950525" lon="11.0395817"><ele>177.0</ele><time>2026-03-22T08:20:02.392Z</time></trkpt><trkpt lat="43.950395" lon="11.0394967"><ele>177.0</ele><time>2026-03-22T08:20:03.394Z</time></trkpt><trkpt lat="43.9502667" lon="11.0394117"><ele>177.0</ele><time>2026-03-22T08:20:04.393Z</time></trkpt><trkpt lat="43.9501317" lon="11.039325"><ele>177.0</ele><time>2026-03-22T08:20:05.393Z</time></trkpt><trkpt lat="43.95" lon="11.03924"><ele>177.0</ele><time>2026-03-22T08:20:06.393Z</time></trkpt><trkpt lat="43.9498683" lon="11.03916"><ele>177.0</ele><time>2026-03-22T08:20:07.394Z</time></trkpt><trkpt lat="43.9497417" lon="11.0390867"><ele>174.0</ele><time>2026-03-22T08:20:08.394Z</time></trkpt><trkpt lat="43.9496217" lon="11.0390167"><ele>171.0</ele><time>2026-03-22T08:20:09.393Z</time></trkpt><trkpt lat="43.9495067" lon="11.03896"><ele>168.0</ele><time>2026-03-22T08:20:10.394Z</time></trkpt><trkpt lat="43.9493983" lon="11.038915"><ele>165.0</ele><time>2026-03-22T08:20:11.393Z</time></trkpt><trkpt lat="43.9492967" lon="11.0388817"><ele>166.2</ele><time>2026-03-22T08:20:12.394Z</time></trkpt><trkpt lat="43.949195" lon="11.0388633"><ele>167.4</ele><time>2026-03-22T08:20:13.393Z</time></trkpt><trkpt lat="43.9490867" lon="11.0388583"><ele>168.60000000000002</ele><time>2026-03-22T08:20:14.393Z</time></trkpt><trkpt lat="43.948975" lon="11.03887"><ele>169.8</ele><time>2026-03-22T08:20:15.393Z</time></trkpt><trkpt lat="43.94887" lon="11.03888"><ele>171.0</ele><time>2026-03-22T08:20:16.393Z</time></trkpt><trkpt lat="43.9487667" lon="11.0388667"><ele>171.0</ele><time>2026-03-22T08:20:17.394Z</time></trkpt><trkpt lat="43.9486817" lon="11.0388383"><ele>171.0</ele><time>2026-03-22T08:20:18.394Z</time></trkpt><trkpt lat="43.9486067" lon="11.0387867"><ele>171.0</ele><time>2026-03-22T08:20:19.394Z</time></trkpt><trkpt lat="43.9485367" lon="11.0387117"><ele>171.0</ele><time>2026-03-22T08:20:20.393Z</time></trkpt><trkpt lat="43.94848" lon="11.0386017"><ele>171.0</ele><time>2026-03-22T08:20:21.394Z</time></trkpt><trkpt lat="43.948425" lon="11.0384983"><ele>171.0</ele><time>2026-03-22T08:20:22.393Z</time></trkpt><trkpt lat="43.9483783" lon="11.038405"><ele>169.16666666666666</ele><time>2026-03-22T08:20:23.394Z</time></trkpt><trkpt lat="43.9483533" lon="11.03828"><ele>167.33333333333334</ele><time>2026-03-22T08:20:24.393Z</time></trkpt><trkpt lat="43.9483233" lon="11.038185"><ele>165.5</ele><time>2026-03-22T08:20:25.394Z</time></trkpt><trkpt lat="43.9482933" lon="11.038095"><ele>163.66666666666669</ele><time>2026-03-22T08:20:26.393Z</time></trkpt><trkpt lat="43.9482333" lon="11.0380217"><ele>161.83333333333334</ele><time>2026-03-22T08:20:27.393Z</time></trkpt><trkpt lat="43.94816" lon="11.0379667"><ele>160.0</ele><time>2026-03-22T08:20:28.393Z</time></trkpt><trkpt lat="43.9480717" lon="11.0379317"><ele>160.0</ele><time>2026-03-22T08:20:29.393Z</time></trkpt><trkpt lat="43.947965" lon="11.0379417"><ele>160.0</ele><time>2026-03-22T08:20:30.393Z</time></trkpt><trkpt lat="43.9478517" lon="11.037985"><ele>160.0</ele><time>2026-03-22T08:20:31.393Z</time></trkpt><trkpt lat="43.94776" lon="11.03801"><ele>160.0</ele><time>2026-03-22T08:20:32.393Z</time></trkpt><trkpt lat="43.9476767" lon="11.0380233"><ele>160.0</ele><time>2026-03-22T08:20:33.394Z</time></trkpt><trkpt lat="43.9475933" lon="11.03803"><ele>162.66666666666669</ele><time>2026-03-22T08:20:34.394Z</time></trkpt><trkpt lat="43.9475117" lon="11.0380217"><ele>165.33333333333334</ele><time>2026-03-22T08:20:35.393Z</time></trkpt><trkpt lat="43.9474417" lon="11.0379917"><ele>168.0</ele><time>2026-03-22T08:20:36.394Z</time></trkpt><trkpt lat="43.9474217" lon="11.037895"><ele>170.66666666666666</ele><time>2026-03-22T08:20:37.393Z</time></trkpt><trkpt lat="43.9474" lon="11.0377917"><ele>173.33333333333331</ele><time>2026-03-22T08:20:38.393Z</time></trkpt><trkpt lat="43.947395" lon="11.0376817"><ele>176.0</ele><time>2026-03-22T08:20:39.394Z</time></trkpt><trkpt lat="43.94739" lon="11.0375583"><ele>172.0</ele><time>2026-03-22T08:20:40.394Z</time></trkpt><trkpt lat="43.947375" lon="11.0374367"><ele>168.0</ele><time>2026-03-22T08:20:41.393Z</time></trkpt><trkpt lat="43.9473583" lon="11.0373417"><ele>164.0</ele><time>2026-03-22T08:20:42.393Z</time></trkpt><trkpt lat="43.9473283" lon="11.0372233"><ele>160.0</ele><time>2026-03-22T08:20:43.393Z</time></trkpt><trkpt lat="43.9472617" lon="11.0371217"><ele>156.0</ele><time>2026-03-22T08:20:44.394Z</time></trkpt><trkpt lat="43.9471783" lon="11.0370267"><ele>156.0</ele><time>2026-03-22T08:20:45.394Z</time></trkpt><trkpt lat="43.9470917" lon="11.0369617"><ele>156.0</ele><time>2026-03-22T08:20:46.393Z</time></trkpt><trkpt lat="43.9469967" lon="11.03689"><ele>156.0</ele><time>2026-03-22T08:20:47.393Z</time></trkpt><trkpt lat="43.9469017" lon="11.0368333"><ele>156.0</ele><time>2026-03-22T08:20:48.393Z</time></trkpt><trkpt lat="43.94682" lon="11.0367567"><ele>156.0</ele><time>2026-03-22T08:20:49.394Z</time></trkpt><trkpt lat="43.946745" lon="11.0366617"><ele>154.2</ele><time>2026-03-22T08:20:50.393Z</time></trkpt><trkpt lat="43.946675" lon="11.036565"><ele>152.39999999999998</ele><time>2026-03-22T08:20:51.394Z</time></trkpt><trkpt lat="43.9466083" lon="11.0364633"><ele>150.6</ele><time>2026-03-22T08:20:52.393Z</time></trkpt><trkpt lat="43.9465417" lon="11.0363567"><ele>148.79999999999998</ele><time>2026-03-22T08:20:53.393Z</time></trkpt><trkpt lat="43.9464833" lon="11.0362533"><ele>147.0</ele><time>2026-03-22T08:20:54.394Z</time></trkpt><trkpt lat="43.9464233" lon="11.0361467"><ele>147.0</ele><time>2026-03-22T08:20:55.394Z</time></trkpt><trkpt lat="43.9463733" lon="11.0360283"><ele>147.0</ele><time>2026-03-22T08:20:56.393Z</time></trkpt><trkpt lat="43.9463267" lon="11.0359"><ele>147.0</ele><time>2026-03-22T08:20:57.394Z</time></trkpt><trkpt lat="43.946275" lon="11.03577"><ele>147.0</ele><time>2026-03-22T08:20:58.394Z</time></trkpt><trkpt lat="43.9462167" lon="11.0356433"><ele>147.0</ele><time>2026-03-22T08:20:59.394Z</time></trkpt><trkpt lat="43.9461517" lon="11.0355267"><ele>145.79999999999998</ele><time>2026-03-22T08:21:00.394Z</time></trkpt><trkpt lat="43.946085" lon="11.0354133"><ele>144.6</ele><time>2026-03-22T08:21:01.393Z</time></trkpt><trkpt lat="43.946025" lon="11.0352967"><ele>143.39999999999998</ele><time>2026-03-22T08:21:02.394Z</time></trkpt><trkpt lat="43.9459617" lon="11.0351867"><ele>142.2</ele><time>2026-03-22T08:21:03.394Z</time></trkpt><trkpt lat="43.945905" lon="11.0350917"><ele>141.0</ele><time>2026-03-22T08:21:04.393Z</time></trkpt><trkpt lat="43.945855" lon="11.0350117"><ele>138.85714285714286</ele><time>2026-03-22T08:21:05.394Z</time></trkpt><trkpt lat="43.9458067" lon="11.0349433"><ele>136.71428571428572</ele><time>2026-03-22T08:21:06.394Z</time></trkpt><trkpt lat="43.9457533" lon="11.0348967"><ele>134.57142857142856</ele><time>2026-03-22T08:21:07.393Z</time></trkpt><trkpt lat="43.94567" lon="11.0348317"><ele>132.42857142857144</ele><time>2026-03-22T08:21:09.394Z</time></trkpt><trkpt lat="43.945605" lon="11.0348033"><ele>130.28571428571428</ele><time>2026-03-22T08:21:11.393Z</time></trkpt><trkpt lat="43.9456567" lon="11.0347533"><ele>128.14285714285714</ele><time>2026-03-22T08:21:18.393Z</time></trkpt><trkpt lat="43.9455967" lon="11.0346717"><ele>126.0</ele><time>2026-03-22T08:21:59.394Z</time></trkpt><trkpt lat="43.945515" lon="11.0345683"><ele>126.0</ele><time>2026-03-22T08:22:01.394Z</time></trkpt><trkpt lat="43.9454783" lon="11.0344967"><ele>126.0</ele><time>2026-03-22T08:22:02.393Z</time></trkpt><trkpt lat="43.945415" lon="11.0343467"><ele>126.0</ele><time>2026-03-22T08:22:04.393Z</time></trkpt><trkpt lat="43.945365" lon="11.0342667"><ele>126.0</ele><time>2026-03-22T08:22:05.393Z</time></trkpt><trkpt lat="43.945305" lon="11.0341817"><ele>126.0</ele><time>2026-03-22T08:22:06.394Z</time></trkpt><trkpt lat="43.94523" lon="11.034095"><ele>126.0</ele><time>2026-03-22T08:22:07.394Z</time></trkpt><trkpt lat="43.9451567" lon="11.03401"><ele>125.16666666666667</ele><time>2026-03-22T08:22:08.393Z</time></trkpt><trkpt lat="43.945085" lon="11.0339267"><ele>124.33333333333334</ele><time>2026-03-22T08:22:09.393Z</time></trkpt><trkpt lat="43.9450217" lon="11.0338517"><ele>123.5</ele><time>2026-03-22T08:22:10.393Z</time></trkpt><trkpt lat="43.9449733" lon="11.0337717"><ele>122.66666666666667</ele><time>2026-03-22T08:22:11.393Z</time></trkpt><trkpt lat="43.9449433" lon="11.03368"><ele>121.83333333333334</ele><time>2026-03-22T08:22:12.393Z</time></trkpt><trkpt lat="43.9449317" lon="11.0335833"><ele>121.0</ele><time>2026-03-22T08:22:13.394Z</time></trkpt><trkpt lat="43.94494" lon="11.033475"><ele>120.8</ele><time>2026-03-22T08:22:14.393Z</time></trkpt><trkpt lat="43.9449817" lon="11.03337"><ele>120.6</ele><time>2026-03-22T08:22:15.393Z</time></trkpt><trkpt lat="43.9450217" lon="11.0332733"><ele>120.4</ele><time>2026-03-22T08:22:16.393Z</time></trkpt><trkpt lat="43.9450583" lon="11.0331883"><ele>120.2</ele><time>2026-03-22T08:22:17.394Z</time></trkpt><trkpt lat="43.9451383" lon="11.0330717"><ele>120.0</ele><time>2026-03-22T08:22:19.393Z</time></trkpt><trkpt lat="43.9452417" lon="11.0330767"><ele>119.83333333333333</ele><time>2026-03-22T08:22:21.394Z</time></trkpt><trkpt lat="43.9453117" lon="11.0330967"><ele>119.66666666666666</ele><time>2026-03-22T08:22:22.393Z</time></trkpt><trkpt lat="43.9453917" lon="11.03311"><ele>119.5</ele><time>2026-03-22T08:22:23.394Z</time></trkpt><trkpt lat="43.9454817" lon="11.033125"><ele>119.33333333333333</ele><time>2026-03-22T08:22:24.393Z</time></trkpt><trkpt lat="43.9455733" lon="11.0331483"><ele>119.16666666666666</ele><time>2026-03-22T08:22:25.393Z</time></trkpt><trkpt lat="43.9456717" lon="11.0331783"><ele>119.0</ele><time>2026-03-22T08:22:26.394Z</time></trkpt><trkpt lat="43.9457567" lon="11.03323"><ele>118.99999999999999</ele><time>2026-03-22T08:22:27.394Z</time></trkpt><trkpt lat="43.9458367" lon="11.0332883"><ele>119.0</ele><time>2026-03-22T08:22:28.394Z</time></trkpt><trkpt lat="43.9458983" lon="11.033355"><ele>119.0</ele><time>2026-03-22T08:22:29.393Z</time></trkpt><trkpt lat="43.945955" lon="11.033425"><ele>119.0</ele><time>2026-03-22T08:22:30.393Z</time></trkpt><trkpt lat="43.9460067" lon="11.0334783"><ele>118.99999999999999</ele><time>2026-03-22T08:22:31.393Z</time></trkpt><trkpt lat="43.9460917" lon="11.03353"><ele>119.0</ele><time>2026-03-22T08:22:33.393Z</time></trkpt><trkpt lat="43.9461583" lon="11.0334833"><ele>119.80000000000001</ele><time>2026-03-22T08:22:35.394Z</time></trkpt><trkpt lat="43.94622" lon="11.0333967"><ele>120.60000000000001</ele><time>2026-03-22T08:22:37.394Z</time></trkpt><trkpt lat="43.9462833" lon="11.0333033"><ele>121.4</ele><time>2026-03-22T08:22:39.394Z</time></trkpt><trkpt lat="43.9463367" lon="11.0332283"><ele>122.2</ele><time>2026-03-22T08:22:41.393Z</time></trkpt><trkpt lat="43.94643" lon="11.0332033"><ele>123.0</ele><time>2026-03-22T08:22:44.394Z</time></trkpt><trkpt lat="43.946545" lon="11.03333"><ele>123.0</ele><time>2026-03-22T08:22:46.394Z</time></trkpt><trkpt lat="43.94662" lon="11.0334217"><ele>123.00000000000001</ele><time>2026-03-22T08:22:47.393Z</time></trkpt><trkpt lat="43.9467083" lon="11.0335117"><ele>123.00000000000001</ele><time>2026-03-22T08:22:48.394Z</time></trkpt><trkpt lat="43.9468" lon="11.0335933"><ele>123.0</ele><time>2026-03-22T08:22:49.393Z</time></trkpt><trkpt lat="43.9468967" lon="11.0336683"><ele>123.0</ele><time>2026-03-22T08:22:50.393Z</time></trkpt><trkpt lat="43.9469833" lon="11.0337317"><ele>123.5</ele><time>2026-03-22T08:22:51.394Z</time></trkpt><trkpt lat="43.94707" lon="11.0337767"><ele>124.0</ele><time>2026-03-22T08:22:52.394Z</time></trkpt><trkpt lat="43.9471517" lon="11.03381"><ele>124.5</ele><time>2026-03-22T08:22:53.393Z</time></trkpt><trkpt lat="43.94723" lon="11.0338383"><ele>125.0</ele><time>2026-03-22T08:22:54.393Z</time></trkpt><trkpt lat="43.947305" lon="11.03386"><ele>125.5</ele><time>2026-03-22T08:22:55.393Z</time></trkpt><trkpt lat="43.94738" lon="11.0338667"><ele>126.0</ele><time>2026-03-22T08:22:56.393Z</time></trkpt><trkpt lat="43.947455" lon="11.0338417"><ele>126.0</ele><time>2026-03-22T08:22:57.393Z</time></trkpt><trkpt lat="43.9475317" lon="11.0337817"><ele>126.0</ele><time>2026-03-22T08:22:58.393Z</time></trkpt><trkpt lat="43.9476117" lon="11.0337067"><ele>126.0</ele><time>2026-03-22T08:22:59.393Z</time></trkpt><trkpt lat="43.9477" lon="11.0336417"><ele>126.0</ele><time>2026-03-22T08:23:00.394Z</time></trkpt><trkpt lat="43.9478" lon="11.03358"><ele>126.0</ele><time>2026-03-22T08:23:01.393Z</time></trkpt><trkpt lat="43.9479017" lon="11.0335133"><ele>127.5</ele><time>2026-03-22T08:23:02.394Z</time></trkpt><trkpt lat="43.948005" lon="11.0334483"><ele>129.0</ele><time>2026-03-22T08:23:03.394Z</time></trkpt><trkpt lat="43.9481117" lon="11.0333833"><ele>130.5</ele><time>2026-03-22T08:23:04.393Z</time></trkpt><trkpt lat="43.9482183" lon="11.033315"><ele>132.0</ele><time>2026-03-22T08:23:05.394Z</time></trkpt><trkpt lat="43.948335" lon="11.033245"><ele>134.75</ele><time>2026-03-22T08:23:06.393Z</time></trkpt><trkpt lat="43.9484483" lon="11.03318"><ele>137.5</ele><time>2026-03-22T08:23:07.393Z</time></trkpt><trkpt lat="43.94856" lon="11.03311"><ele>140.25</ele><time>2026-03-22T08:23:08.394Z</time></trkpt><trkpt lat="43.9486667" lon="11.0330417"><ele>143.0</ele><time>2026-03-22T08:23:09.394Z</time></trkpt><trkpt lat="43.9487617" lon="11.0329883"><ele>143.0</ele><time>2026-03-22T08:23:10.393Z</time></trkpt><trkpt lat="43.948835" lon="11.032945"><ele>143.0</ele><time>2026-03-22T08:23:11.393Z</time></trkpt><trkpt lat="43.9489367" lon="11.0328833"><ele>143.0</ele><time>2026-03-22T08:23:13.394Z</time></trkpt><trkpt lat="43.9490117" lon="11.03286"><ele>143.0</ele><time>2026-03-22T08:23:15.394Z</time></trkpt><trkpt lat="43.949115" lon="11.0328217"><ele>143.0</ele><time>2026-03-22T08:23:17.394Z</time></trkpt><trkpt lat="43.9491833" lon="11.0327533"><ele>143.8</ele><time>2026-03-22T08:23:18.393Z</time></trkpt><trkpt lat="43.9492533" lon="11.0326667"><ele>144.60000000000002</ele><time>2026-03-22T08:23:19.394Z</time></trkpt><trkpt lat="43.9493183" lon="11.0325533"><ele>145.39999999999998</ele><time>2026-03-22T08:23:20.394Z</time></trkpt><trkpt lat="43.9493767" lon="11.0324317"><ele>146.2</ele><time>2026-03-22T08:23:21.394Z</time></trkpt><trkpt lat="43.9494367" lon="11.0323117"><ele>147.0</ele><time>2026-03-22T08:23:22.393Z</time></trkpt><trkpt lat="43.949505" lon="11.03221"><ele>148.79999999999998</ele><time>2026-03-22T08:23:23.394Z</time></trkpt><trkpt lat="43.9495733" lon="11.0321367"><ele>150.6</ele><time>2026-03-22T08:23:24.393Z</time></trkpt><trkpt lat="43.9496467" lon="11.0320817"><ele>152.39999999999998</ele><time>2026-03-22T08:23:25.393Z</time></trkpt><trkpt lat="43.9497283" lon="11.0320433"><ele>154.2</ele><time>2026-03-22T08:23:26.394Z</time></trkpt><trkpt lat="43.9498217" lon="11.0320183"><ele>156.0</ele><time>2026-03-22T08:23:27.393Z</time></trkpt><trkpt lat="43.9499333" lon="11.0319783"><ele>157.0</ele><time>2026-03-22T08:23:28.394Z</time></trkpt><trkpt lat="43.9500417" lon="11.03193"><ele>158.0</ele><time>2026-03-22T08:23:29.394Z</time></trkpt><trkpt lat="43.9501483" lon="11.031875"><ele>159.0</ele><time>2026-03-22T08:23:30.393Z</time></trkpt><trkpt lat="43.9502517" lon="11.0318317"><ele>160.0</ele><time>2026-03-22T08:23:31.394Z</time></trkpt><trkpt lat="43.95035" lon="11.03181"><ele>161.0</ele><time>2026-03-22T08:23:32.394Z</time></trkpt><trkpt lat="43.950445" lon="11.03178"><ele>161.0</ele><time>2026-03-22T08:23:33.394Z</time></trkpt><trkpt lat="43.9505533" lon="11.031725"><ele>161.0</ele><time>2026-03-22T08:23:34.393Z</time></trkpt><trkpt lat="43.95064" lon="11.03164"><ele>161.0</ele><time>2026-03-22T08:23:35.393Z</time></trkpt><trkpt lat="43.950745" lon="11.03156"><ele>161.0</ele><time>2026-03-22T08:23:36.393Z</time></trkpt><trkpt lat="43.95085" lon="11.0314817"><ele>166.25</ele><time>2026-03-22T08:23:37.393Z</time></trkpt><trkpt lat="43.9509617" lon="11.03141"><ele>171.5</ele><time>2026-03-22T08:23:38.393Z</time></trkpt><trkpt lat="43.9510683" lon="11.0313567"><ele>176.75</ele><time>2026-03-22T08:23:39.394Z</time></trkpt><trkpt lat="43.95117" lon="11.0313083"><ele>182.0</ele><time>2026-03-22T08:23:40.393Z</time></trkpt><trkpt lat="43.9512733" lon="11.0312667"><ele>182.0</ele><time>2026-03-22T08:23:41.393Z</time></trkpt><trkpt lat="43.9513817" lon="11.0312317"><ele>182.0</ele><time>2026-03-22T08:23:42.394Z</time></trkpt><trkpt lat="43.9514833" lon="11.0312"><ele>182.0</ele><time>2026-03-22T08:23:43.393Z</time></trkpt><trkpt lat="43.95159" lon="11.0311683"><ele>182.0</ele><time>2026-03-22T08:23:44.394Z</time></trkpt><trkpt lat="43.9516983" lon="11.0311367"><ele>182.0</ele><time>2026-03-22T08:23:45.393Z</time></trkpt><trkpt lat="43.9518067" lon="11.03109"><ele>184.5</ele><time>2026-03-22T08:23:46.393Z</time></trkpt><trkpt lat="43.9519167" lon="11.0310333"><ele>187.0</ele><time>2026-03-22T08:23:47.393Z</time></trkpt><trkpt lat="43.9520267" lon="11.0309567"><ele>189.5</ele><time>2026-03-22T08:23:48.393Z</time></trkpt><trkpt lat="43.952125" lon="11.0308733"><ele>192.0</ele><time>2026-03-22T08:23:49.394Z</time></trkpt><trkpt lat="43.952235" lon="11.03079"><ele>193.39999999999998</ele><time>2026-03-22T08:23:50.394Z</time></trkpt><trkpt lat="43.9523467" lon="11.0307083"><ele>194.79999999999998</ele><time>2026-03-22T08:23:51.393Z</time></trkpt><trkpt lat="43.9524467" lon="11.0306317"><ele>196.2</ele><time>2026-03-22T08:23:52.393Z</time></trkpt><trkpt lat="43.9525317" lon="11.0305683"><ele>197.6</ele><time>2026-03-22T08:23:53.393Z</time></trkpt><trkpt lat="43.9526083" lon="11.030525"><ele>199.0</ele><time>2026-03-22T08:23:54.393Z</time></trkpt><trkpt lat="43.95267" lon="11.0304917"><ele>201.49999999999997</ele><time>2026-03-22T08:23:55.394Z</time></trkpt><trkpt lat="43.9527417" lon="11.030445"><ele>204.0</ele><time>2026-03-22T08:23:57.393Z</time></trkpt><trkpt lat="43.9527967" lon="11.03039"><ele>206.5</ele><time>2026-03-22T08:23:59.393Z</time></trkpt><trkpt lat="43.9529083" lon="11.03032"><ele>209.0</ele><time>2026-03-22T08:24:01.394Z</time></trkpt><trkpt lat="43.9529767" lon="11.03028"><ele>211.49999999999997</ele><time>2026-03-22T08:24:02.393Z</time></trkpt><trkpt lat="43.9530417" lon="11.030235"><ele>214.0</ele><time>2026-03-22T08:24:03.393Z</time></trkpt><trkpt lat="43.9531017" lon="11.0301983"><ele>213.99999999999997</ele><time>2026-03-22T08:24:04.394Z</time></trkpt><trkpt lat="43.953185" lon="11.03013"><ele>214.0</ele><time>2026-03-22T08:24:06.394Z</time></trkpt><trkpt lat="43.9531283" lon="11.0299933"><ele>214.0</ele><time>2026-03-22T08:24:08.393Z</time></trkpt><trkpt lat="43.9530867" lon="11.0299267"><ele>214.0</ele><time>2026-03-22T08:24:09.393Z</time></trkpt><trkpt lat="43.9531067" lon="11.0298283"><ele>213.99999999999997</ele><time>2026-03-22T08:24:11.393Z</time></trkpt><trkpt lat="43.9531683" lon="11.02975"><ele>214.0</ele><time>2026-03-22T08:24:14.394Z</time></trkpt><trkpt lat="43.9532117" lon="11.029685"><ele>216.16666666666666</ele><time>2026-03-22T08:24:16.394Z</time></trkpt><trkpt lat="43.953165" lon="11.0296133"><ele>218.33333333333331</ele><time>2026-03-22T08:24:17.394Z</time></trkpt><trkpt lat="43.9531183" lon="11.0295217"><ele>220.5</ele><time>2026-03-22T08:24:18.394Z</time></trkpt><trkpt lat="43.9530817" lon="11.029445"><ele>222.66666666666669</ele><time>2026-03-22T08:24:19.393Z</time></trkpt><trkpt lat="43.953065" lon="11.0293467"><ele>224.83333333333334</ele><time>2026-03-22T08:24:21.393Z</time></trkpt><trkpt lat="43.9531333" lon="11.02941"><ele>227.0</ele><time>2026-03-22T08:24:23.393Z</time></trkpt><trkpt lat="43.9532033" lon="11.0294583"><ele>227.00000000000003</ele><time>2026-03-22T08:24:25.392Z</time></trkpt><trkpt lat="43.953285" lon="11.029495"><ele>227.0</ele><time>2026-03-22T08:24:27.393Z</time></trkpt><trkpt lat="43.953325" lon="11.0294"><ele>227.0</ele><time>2026-03-22T08:24:29.393Z</time></trkpt><trkpt lat="43.9533033" lon="11.0292717"><ele>227.0</ele><time>2026-03-22T08:24:31.393Z</time></trkpt><trkpt lat="43.9532967" lon="11.029165"><ele>227.00000000000003</ele><time>2026-03-22T08:24:33.392Z</time></trkpt><trkpt lat="43.953385" lon="11.0291267"><ele>227.0</ele><time>2026-03-22T08:24:36.393Z</time></trkpt><trkpt lat="43.9535083" lon="11.0291583"><ele>229.50000000000003</ele><time>2026-03-22T08:24:38.393Z</time></trkpt><trkpt lat="43.9535767" lon="11.0291567"><ele>232.0</ele><time>2026-03-22T08:24:39.394Z</time></trkpt><trkpt lat="43.9536567" lon="11.0291533"><ele>234.5</ele><time>2026-03-22T08:24:40.392Z</time></trkpt><trkpt lat="43.9537383" lon="11.0291667"><ele>237.0</ele><time>2026-03-22T08:24:41.393Z</time></trkpt><trkpt lat="43.9538317" lon="11.0291783"><ele>239.50000000000003</ele><time>2026-03-22T08:24:42.392Z</time></trkpt><trkpt lat="43.9539183" lon="11.0291833"><ele>242.0</ele><time>2026-03-22T08:24:43.393Z</time></trkpt><trkpt lat="43.9540067" lon="11.0291583"><ele>244.2</ele><time>2026-03-22T08:24:44.395Z</time></trkpt><trkpt lat="43.9540983" lon="11.0291217"><ele>246.39999999999998</ele><time>2026-03-22T08:24:45.393Z</time></trkpt><trkpt lat="43.9541867" lon="11.0290633"><ele>248.60000000000002</ele><time>2026-03-22T08:24:46.394Z</time></trkpt><trkpt lat="43.9542717" lon="11.0289983"><ele>250.8</ele><time>2026-03-22T08:24:47.393Z</time></trkpt><trkpt lat="43.954315" lon="11.0289067"><ele>253.0</ele><time>2026-03-22T08:24:48.394Z</time></trkpt><trkpt lat="43.9543683" lon="11.02881"><ele>256.3333333333333</ele><time>2026-03-22T08:24:49.393Z</time></trkpt><trkpt lat="43.9544017" lon="11.0287083"><ele>259.66666666666663</ele><time>2026-03-22T08:24:50.393Z</time></trkpt><trkpt lat="43.95442" lon="11.0285933"><ele>263.0</ele><time>2026-03-22T08:24:51.393Z</time></trkpt><trkpt lat="43.9544267" lon="11.02847"><ele>266.3333333333333</ele><time>2026-03-22T08:24:52.394Z</time></trkpt><trkpt lat="43.95442" lon="11.028335"><ele>269.6666666666667</ele><time>2026-03-22T08:24:53.393Z</time></trkpt><trkpt lat="43.9544" lon="11.028205"><ele>273.0</ele><time>2026-03-22T08:24:54.393Z</time></trkpt><trkpt lat="43.9543833" lon="11.028075"><ele>272.0</ele><time>2026-03-22T08:24:55.393Z</time></trkpt><trkpt lat="43.95436" lon="11.02796"><ele>271.0</ele><time>2026-03-22T08:24:56.394Z</time></trkpt><trkpt lat="43.954335" lon="11.0278483"><ele>270.0</ele><time>2026-03-22T08:24:57.393Z</time></trkpt><trkpt lat="43.9542967" lon="11.027755"><ele>269.0</ele><time>2026-03-22T08:24:58.393Z</time></trkpt><trkpt lat="43.9542383" lon="11.0276633"><ele>268.0</ele><time>2026-03-22T08:24:59.394Z</time></trkpt><trkpt lat="43.95417" lon="11.0275883"><ele>267.0</ele><time>2026-03-22T08:25:00.393Z</time></trkpt><trkpt lat="43.9541017" lon="11.0275183"><ele>268.6666666666667</ele><time>2026-03-22T08:25:01.393Z</time></trkpt><trkpt lat="43.9540317" lon="11.0274533"><ele>270.3333333333333</ele><time>2026-03-22T08:25:02.393Z</time></trkpt><trkpt lat="43.9539683" lon="11.0274017"><ele>272.0</ele><time>2026-03-22T08:25:03.394Z</time></trkpt><trkpt lat="43.9539033" lon="11.027285"><ele>273.66666666666663</ele><time>2026-03-22T08:25:05.394Z</time></trkpt><trkpt lat="43.9539067" lon="11.0271417"><ele>275.3333333333333</ele><time>2026-03-22T08:25:07.393Z</time></trkpt><trkpt lat="43.953915" lon="11.0270517"><ele>277.0</ele><time>2026-03-22T08:25:08.393Z</time></trkpt><trkpt lat="43.9539033" lon="11.026945"><ele>277.0</ele><time>2026-03-22T08:25:09.393Z</time></trkpt><trkpt lat="43.9538917" lon="11.0268433"><ele>277.0</ele><time>2026-03-22T08:25:10.393Z</time></trkpt><trkpt lat="43.9538933" lon="11.026755"><ele>277.0</ele><time>2026-03-22T08:25:11.393Z</time></trkpt><trkpt lat="43.9539183" lon="11.0266467"><ele>277.0</ele><time>2026-03-22T08:25:13.394Z</time></trkpt><trkpt lat="43.9539933" lon="11.026705"><ele>277.0</ele><time>2026-03-22T08:25:15.394Z</time></trkpt><trkpt lat="43.9540317" lon="11.026775"><ele>277.0</ele><time>2026-03-22T08:25:16.394Z</time></trkpt><trkpt lat="43.95407" lon="11.0268567"><ele>277.0</ele><time>2026-03-22T08:25:17.394Z</time></trkpt><trkpt lat="43.954105" lon="11.0269317"><ele>277.0</ele><time>2026-03-22T08:25:18.393Z</time></trkpt><trkpt lat="43.9541833" lon="11.0270583"><ele>277.0</ele><time>2026-03-22T08:25:20.393Z</time></trkpt><trkpt lat="43.9542767" lon="11.027095"><ele>277.0</ele><time>2026-03-22T08:25:22.394Z</time></trkpt><trkpt lat="43.9543833" lon="11.02703"><ele>277.0</ele><time>2026-03-22T08:25:24.394Z</time></trkpt><trkpt lat="43.9544533" lon="11.0269667"><ele>277.0</ele><time>2026-03-22T08:25:25.393Z</time></trkpt><trkpt lat="43.9545333" lon="11.0268617"><ele>280.0</ele><time>2026-03-22T08:25:26.394Z</time></trkpt><trkpt lat="43.954605" lon="11.0267517"><ele>283.0</ele><time>2026-03-22T08:25:27.393Z</time></trkpt><trkpt lat="43.9546683" lon="11.02665"><ele>286.0</ele><time>2026-03-22T08:25:28.394Z</time></trkpt><trkpt lat="43.9547333" lon="11.0265483"><ele>289.0</ele><time>2026-03-22T08:25:29.393Z</time></trkpt><trkpt lat="43.954795" lon="11.0264517"><ele>292.0</ele><time>2026-03-22T08:25:30.394Z</time></trkpt><trkpt lat="43.95486" lon="11.026365"><ele>293.16666666666663</ele><time>2026-03-22T08:25:31.394Z</time></trkpt><trkpt lat="43.95492" lon="11.02628"><ele>294.3333333333333</ele><time>2026-03-22T08:25:32.393Z</time></trkpt><trkpt lat="43.954955" lon="11.0262017"><ele>295.5</ele><time>2026-03-22T08:25:33.394Z</time></trkpt><trkpt lat="43.95499" lon="11.02612"><ele>296.6666666666667</ele><time>2026-03-22T08:25:34.394Z</time></trkpt><trkpt lat="43.9550067" lon="11.0260317"><ele>297.83333333333337</ele><time>2026-03-22T08:25:35.393Z</time></trkpt><trkpt lat="43.95502" lon="11.0258833"><ele>299.0</ele><time>2026-03-22T08:25:37.394Z</time></trkpt><trkpt lat="43.955045" lon="11.0257783"><ele>306.0</ele><time>2026-03-22T08:25:39.393Z</time></trkpt><trkpt lat="43.9550767" lon="11.0256683"><ele>313.0</ele><time>2026-03-22T08:25:59.394Z</time></trkpt><trkpt lat="43.9551017" lon="11.0255233"><ele>320.0</ele><time>2026-03-22T08:26:01.393Z</time></trkpt><trkpt lat="43.9551233" lon="11.025345"><ele>327.0</ele><time>2026-03-22T08:26:03.393Z</time></trkpt><trkpt lat="43.9551617" lon="11.02519"><ele>334.0</ele><time>2026-03-22T08:26:05.393Z</time></trkpt><trkpt lat="43.9551917" lon="11.0250483"><ele>334.0</ele><time>2026-03-22T08:26:07.394Z</time></trkpt><trkpt lat="43.9552333" lon="11.0249367"><ele>334.0</ele><time>2026-03-22T08:26:09.394Z</time></trkpt><trkpt lat="43.9553" lon="11.02494"><ele>334.0</ele><time>2026-03-22T08:26:11.394Z</time></trkpt><trkpt lat="43.9553617" lon="11.0249883"><ele>334.0</ele><time>2026-03-22T08:26:13.394Z</time></trkpt><trkpt lat="43.9554267" lon="11.0250067"><ele>334.0</ele><time>2026-03-22T08:26:15.394Z</time></trkpt><trkpt lat="43.9554983" lon="11.0249733"><ele>334.0</ele><time>2026-03-22T08:26:18.393Z</time></trkpt><trkpt lat="43.9554817" lon="11.0248583"><ele>334.79999999999995</ele><time>2026-03-22T08:26:23.394Z</time></trkpt><trkpt lat="43.9554833" lon="11.0247467"><ele>335.59999999999997</ele><time>2026-03-22T08:26:25.394Z</time></trkpt><trkpt lat="43.9555167" lon="11.0246217"><ele>336.4</ele><time>2026-03-22T08:26:27.394Z</time></trkpt><trkpt lat="43.9555667" lon="11.0245"><ele>337.2</ele><time>2026-03-22T08:26:29.394Z</time></trkpt><trkpt lat="43.95564" lon="11.024375"><ele>338.0</ele><time>2026-03-22T08:26:31.393Z</time></trkpt><trkpt lat="43.9557317" lon="11.024295"><ele>338.0</ele><time>2026-03-22T08:26:33.394Z</time></trkpt><trkpt lat="43.955835" lon="11.0242267"><ele>338.0</ele><time>2026-03-22T08:26:35.394Z</time></trkpt><trkpt lat="43.9559167" lon="11.024125"><ele>338.0</ele><time>2026-03-22T08:26:37.393Z</time></trkpt><trkpt lat="43.9559767" lon="11.024"><ele>338.0</ele><time>2026-03-22T08:26:39.394Z</time></trkpt><trkpt lat="43.956095" lon="11.0239367"><ele>343.0</ele><time>2026-03-22T08:26:41.394Z</time></trkpt><trkpt lat="43.95621" lon="11.0238683"><ele>348.0</ele><time>2026-03-22T08:26:43.394Z</time></trkpt><trkpt lat="43.9562817" lon="11.0238267"><ele>353.0</ele><time>2026-03-22T08:26:44.393Z</time></trkpt><trkpt lat="43.9563683" lon="11.0237867"><ele>358.0</ele><time>2026-03-22T08:26:45.393Z</time></trkpt><trkpt lat="43.956445" lon="11.0237467"><ele>363.0</ele><time>2026-03-22T08:26:46.393Z</time></trkpt><trkpt lat="43.956515" lon="11.0237117"><ele>363.0</ele><time>2026-03-22T08:26:47.394Z</time></trkpt><trkpt lat="43.9565783" lon="11.02367"><ele>363.0</ele><time>2026-03-22T08:26:48.393Z</time></trkpt><trkpt lat="43.9566117" lon="11.0235183"><ele>363.0</ele><time>2026-03-22T08:26:50.393Z</time></trkpt><trkpt lat="43.9565633" lon="11.02342"><ele>363.0</ele><time>2026-03-22T08:26:51.393Z</time></trkpt><trkpt lat="43.9565367" lon="11.023335"><ele>363.0</ele><time>2026-03-22T08:26:52.393Z</time></trkpt><trkpt lat="43.9565133" lon="11.0231783"><ele>363.8333333333333</ele><time>2026-03-22T08:26:54.393Z</time></trkpt><trkpt lat="43.9565233" lon="11.0230267"><ele>364.6666666666667</ele><time>2026-03-22T08:26:56.393Z</time></trkpt><trkpt lat="43.9565383" lon="11.022935"><ele>365.5</ele><time>2026-03-22T08:26:57.393Z</time></trkpt><trkpt lat="43.9565517" lon="11.022835"><ele>366.33333333333337</ele><time>2026-03-22T08:26:58.394Z</time></trkpt><trkpt lat="43.9565483" lon="11.022725"><ele>367.1666666666667</ele><time>2026-03-22T08:26:59.394Z</time></trkpt><trkpt lat="43.9565383" lon="11.0226117"><ele>368.0</ele><time>2026-03-22T08:27:00.394Z</time></trkpt><trkpt lat="43.9565283" lon="11.0225033"><ele>368.7142857142857</ele><time>2026-03-22T08:27:01.393Z</time></trkpt><trkpt lat="43.9565317" lon="11.0224033"><ele>369.4285714285714</ele><time>2026-03-22T08:27:02.394Z</time></trkpt><trkpt lat="43.95654" lon="11.0223083"><ele>370.1428571428571</ele><time>2026-03-22T08:27:03.393Z</time></trkpt><trkpt lat="43.9565567" lon="11.0222083"><ele>370.8571428571429</ele><time>2026-03-22T08:27:04.393Z</time></trkpt><trkpt lat="43.956575" lon="11.0221133"><ele>371.57142857142856</ele><time>2026-03-22T08:27:05.394Z</time></trkpt><trkpt lat="43.9565983" lon="11.0220283"><ele>372.2857142857143</ele><time>2026-03-22T08:27:06.393Z</time></trkpt><trkpt lat="43.9566683" lon="11.02195"><ele>373.0</ele><time>2026-03-22T08:27:08.393Z</time></trkpt><trkpt lat="43.9567117" lon="11.0218133"><ele>373.0</ele><time>2026-03-22T08:27:10.394Z</time></trkpt><trkpt lat="43.9567" lon="11.021685"><ele>373.0</ele><time>2026-03-22T08:27:12.394Z</time></trkpt><trkpt lat="43.9566317" lon="11.0215983"><ele>373.0</ele><time>2026-03-22T08:27:14.393Z</time></trkpt><trkpt lat="43.956525" lon="11.0215767"><ele>373.0</ele><time>2026-03-22T08:27:16.393Z</time></trkpt><trkpt lat="43.9564333" lon="11.02165"><ele>373.0</ele><time>2026-03-22T08:27:18.393Z</time></trkpt><trkpt lat="43.9563783" lon="11.0217"><ele>373.0</ele><time>2026-03-22T08:27:19.394Z</time></trkpt><trkpt lat="43.95627" lon="11.0217583"><ele>373.0</ele><time>2026-03-22T08:27:21.394Z</time></trkpt><trkpt lat="43.9561567" lon="11.0217733"><ele>373.0</ele><time>2026-03-22T08:27:23.393Z</time></trkpt><trkpt lat="43.9560517" lon="11.0218217"><ele>373.0</ele><time>2026-03-22T08:27:25.394Z</time></trkpt><trkpt lat="43.9559317" lon="11.02193"><ele>373.16666666666663</ele><time>2026-03-22T08:27:27.393Z</time></trkpt><trkpt lat="43.9558517" lon="11.0219833"><ele>373.3333333333333</ele><time>2026-03-22T08:27:28.393Z</time></trkpt><trkpt lat="43.9557717" lon="11.0220333"><ele>373.5</ele><time>2026-03-22T08:27:29.393Z</time></trkpt><trkpt lat="43.955685" lon="11.0220683"><ele>373.6666666666667</ele><time>2026-03-22T08:27:30.394Z</time></trkpt><trkpt lat="43.955595" lon="11.022085"><ele>373.83333333333337</ele><time>2026-03-22T08:27:31.393Z</time></trkpt><trkpt lat="43.9555067" lon="11.0220833"><ele>374.0</ele><time>2026-03-22T08:27:32.394Z</time></trkpt><trkpt lat="43.9554183" lon="11.0220733"><ele>374.0</ele><time>2026-03-22T08:27:33.393Z</time></trkpt><trkpt lat="43.95533" lon="11.0220517"><ele>374.0</ele><time>2026-03-22T08:27:34.394Z</time></trkpt><trkpt lat="43.9552417" lon="11.02203"><ele>374.0</ele><time>2026-03-22T08:27:35.394Z</time></trkpt><trkpt lat="43.95515" lon="11.0220183"><ele>374.0</ele><time>2026-03-22T08:27:36.393Z</time></trkpt><trkpt lat="43.9550617" lon="11.0220267"><ele>374.0</ele><time>2026-03-22T08:27:37.394Z</time></trkpt><trkpt lat="43.9549883" lon="11.0220217"><ele>374.0</ele><time>2026-03-22T08:27:38.394Z</time></trkpt><trkpt lat="43.9549083" lon="11.0220233"><ele>375.33333333333337</ele><time>2026-03-22T08:27:39.394Z</time></trkpt><trkpt lat="43.95483" lon="11.0220233"><ele>376.6666666666667</ele><time>2026-03-22T08:27:40.394Z</time></trkpt><trkpt lat="43.9547383" lon="11.0220267"><ele>378.0</ele><time>2026-03-22T08:27:41.394Z</time></trkpt><trkpt lat="43.9546433" lon="11.0220333"><ele>379.3333333333333</ele><time>2026-03-22T08:27:42.393Z</time></trkpt><trkpt lat="43.95455" lon="11.0220417"><ele>380.66666666666663</ele><time>2026-03-22T08:27:43.394Z</time></trkpt><trkpt lat="43.954465" lon="11.022045"><ele>382.0</ele><time>2026-03-22T08:27:44.393Z</time></trkpt><trkpt lat="43.9543933" lon="11.0220383"><ele>382.0</ele><time>2026-03-22T08:27:45.394Z</time></trkpt><trkpt lat="43.9543283" lon="11.0220333"><ele>382.0</ele><time>2026-03-22T08:27:46.393Z</time></trkpt><trkpt lat="43.95422" lon="11.0220567"><ele>382.0</ele><time>2026-03-22T08:27:48.394Z</time></trkpt><trkpt lat="43.9541217" lon="11.02206"><ele>382.0</ele><time>2026-03-22T08:27:50.393Z</time></trkpt><trkpt lat="43.9540383" lon="11.0220367"><ele>382.0</ele><time>2026-03-22T08:27:52.393Z</time></trkpt><trkpt lat="43.953965" lon="11.021995"><ele>382.0</ele><time>2026-03-22T08:27:54.393Z</time></trkpt><trkpt lat="43.9538833" lon="11.0219467"><ele>383.40000000000003</ele><time>2026-03-22T08:27:57.393Z</time></trkpt><trkpt lat="43.953815" lon="11.0218983"><ele>384.8</ele><time>2026-03-22T08:27:59.394Z</time></trkpt><trkpt lat="43.9537067" lon="11.0218183"><ele>386.2</ele><time>2026-03-22T08:28:01.394Z</time></trkpt><trkpt lat="43.953655" lon="11.0217617"><ele>387.6</ele><time>2026-03-22T08:28:02.394Z</time></trkpt><trkpt lat="43.9535917" lon="11.0216133"><ele>389.0</ele><time>2026-03-22T08:28:04.393Z</time></trkpt><trkpt lat="43.9535617" lon="11.021515"><ele>389.0</ele><time>2026-03-22T08:28:05.394Z</time></trkpt><trkpt lat="43.9535467" lon="11.0214183"><ele>389.0</ele><time>2026-03-22T08:28:06.393Z</time></trkpt><trkpt lat="43.9535233" lon="11.0212833"><ele>389.0</ele><time>2026-03-22T08:28:08.394Z</time></trkpt><trkpt lat="43.9534483" lon="11.0213083"><ele>389.0</ele><time>2026-03-22T08:28:12.394Z</time></trkpt><trkpt lat="43.9533533" lon="11.021385"><ele>389.0</ele><time>2026-03-22T08:28:32.394Z</time></trkpt><trkpt lat="43.95326" lon="11.0214767"><ele>385.0</ele><time>2026-03-22T08:28:34.393Z</time></trkpt><trkpt lat="43.953205" lon="11.0215383"><ele>381.0</ele><time>2026-03-22T08:28:35.394Z</time></trkpt><trkpt lat="43.9531533" lon="11.0216"><ele>377.0</ele><time>2026-03-22T08:28:36.394Z</time></trkpt><trkpt lat="43.9530683" lon="11.0216717"><ele>373.0</ele><time>2026-03-22T08:28:38.393Z</time></trkpt><trkpt lat="43.9530117" lon="11.021555"><ele>369.0</ele><time>2026-03-22T08:28:40.393Z</time></trkpt><trkpt lat="43.9529733" lon="11.0213917"><ele>369.0</ele><time>2026-03-22T08:28:42.394Z</time></trkpt><trkpt lat="43.9529333" lon="11.021235"><ele>369.0</ele><time>2026-03-22T08:28:44.394Z</time></trkpt><trkpt lat="43.952915" lon="11.021145"><ele>369.0</ele><time>2026-03-22T08:28:45.394Z</time></trkpt><trkpt lat="43.952895" lon="11.0210617"><ele>369.0</ele><time>2026-03-22T08:28:46.394Z</time></trkpt><trkpt lat="43.9528683" lon="11.0209133"><ele>369.0</ele><time>2026-03-22T08:28:48.394Z</time></trkpt><trkpt lat="43.9528683" lon="11.02079"><ele>369.0</ele><time>2026-03-22T08:28:50.393Z</time></trkpt><trkpt lat="43.9529033" lon="11.020665"><ele>370.8333333333333</ele><time>2026-03-22T08:28:52.394Z</time></trkpt><trkpt lat="43.95297" lon="11.0205833"><ele>372.6666666666667</ele><time>2026-03-22T08:28:54.394Z</time></trkpt><trkpt lat="43.952955" lon="11.0204483"><ele>374.5</ele><time>2026-03-22T08:28:56.393Z</time></trkpt><trkpt lat="43.9529333" lon="11.0203417"><ele>376.33333333333337</ele><time>2026-03-22T08:28:58.393Z</time></trkpt><trkpt lat="43.9529133" lon="11.0202583"><ele>378.1666666666667</ele><time>2026-03-22T08:29:00.393Z</time></trkpt><trkpt lat="43.9528667" lon="11.020175"><ele>380.0</ele><time>2026-03-22T08:29:02.393Z</time></trkpt><trkpt lat="43.9527967" lon="11.02013"><ele>380.0</ele><time>2026-03-22T08:29:04.394Z</time></trkpt><trkpt lat="43.95268" lon="11.0201533"><ele>380.0</ele><time>2026-03-22T08:29:06.394Z</time></trkpt><trkpt lat="43.9526167" lon="11.0201933"><ele>380.0</ele><time>2026-03-22T08:29:07.393Z</time></trkpt><trkpt lat="43.952525" lon="11.02028"><ele>380.0</ele><time>2026-03-22T08:29:09.394Z</time></trkpt><trkpt lat="43.9524683" lon="11.0203217"><ele>380.0</ele><time>2026-03-22T08:29:10.394Z</time></trkpt><trkpt lat="43.95238" lon="11.0204117"><ele>379.6666666666667</ele><time>2026-03-22T08:29:12.394Z</time></trkpt><trkpt lat="43.9522867" lon="11.0205017"><ele>379.33333333333337</ele><time>2026-03-22T08:29:14.394Z</time></trkpt><trkpt lat="43.9522267" lon="11.0205517"><ele>379.0</ele><time>2026-03-22T08:29:15.392Z</time></trkpt><trkpt lat="43.9521467" lon="11.0206067"><ele>378.6666666666667</ele><time>2026-03-22T08:29:16.393Z</time></trkpt><trkpt lat="43.9520833" lon="11.0206633"><ele>378.3333333333333</ele><time>2026-03-22T08:29:17.392Z</time></trkpt><trkpt lat="43.95203" lon="11.020715"><ele>378.0</ele><time>2026-03-22T08:29:18.393Z</time></trkpt><trkpt lat="43.951975" lon="11.0207617"><ele>374.0</ele><time>2026-03-22T08:29:19.393Z</time></trkpt><trkpt lat="43.9519233" lon="11.0208317"><ele>370.0</ele><time>2026-03-22T08:29:20.393Z</time></trkpt><trkpt lat="43.95187" lon="11.0208817"><ele>366.0</ele><time>2026-03-22T08:29:21.393Z</time></trkpt><trkpt lat="43.9518133" lon="11.02094"><ele>362.0</ele><time>2026-03-22T08:29:22.393Z</time></trkpt><trkpt lat="43.9517217" lon="11.02099"><ele>358.0</ele><time>2026-03-22T08:29:23.393Z</time></trkpt><trkpt lat="43.9516467" lon="11.021015"><ele>354.0</ele><time>2026-03-22T08:29:24.393Z</time></trkpt><trkpt lat="43.9515783" lon="11.0210433"><ele>353.8333333333333</ele><time>2026-03-22T08:29:25.392Z</time></trkpt><trkpt lat="43.951505" lon="11.0210917"><ele>353.6666666666667</ele><time>2026-03-22T08:29:26.392Z</time></trkpt><trkpt lat="43.951425" lon="11.021155"><ele>353.5</ele><time>2026-03-22T08:29:27.393Z</time></trkpt><trkpt lat="43.951335" lon="11.02121"><ele>353.33333333333337</ele><time>2026-03-22T08:29:28.392Z</time></trkpt><trkpt lat="43.9512533" lon="11.0212317"><ele>353.1666666666667</ele><time>2026-03-22T08:29:29.393Z</time></trkpt><trkpt lat="43.9511667" lon="11.0212283"><ele>353.0</ele><time>2026-03-22T08:29:30.394Z</time></trkpt><trkpt lat="43.9510783" lon="11.0212233"><ele>353.0</ele><time>2026-03-22T08:29:31.392Z</time></trkpt><trkpt lat="43.9509967" lon="11.02121"><ele>353.0</ele><time>2026-03-22T08:29:32.393Z</time></trkpt><trkpt lat="43.9509267" lon="11.0211933"><ele>353.0</ele><time>2026-03-22T08:29:33.392Z</time></trkpt><trkpt lat="43.9508317" lon="11.0211833"><ele>353.0</ele><time>2026-03-22T08:29:35.393Z</time></trkpt><trkpt lat="43.95079" lon="11.0210717"><ele>353.0</ele><time>2026-03-22T08:29:53.393Z</time></trkpt><trkpt lat="43.950765" lon="11.0209"><ele>354.6666666666667</ele><time>2026-03-22T08:29:55.393Z</time></trkpt><trkpt lat="43.9507417" lon="11.0208017"><ele>356.33333333333337</ele><time>2026-03-22T08:29:56.394Z</time></trkpt><trkpt lat="43.950715" lon="11.0207067"><ele>358.0</ele><time>2026-03-22T08:29:57.393Z</time></trkpt><trkpt lat="43.9506933" lon="11.0206083"><ele>359.6666666666667</ele><time>2026-03-22T08:29:58.394Z</time></trkpt><trkpt lat="43.9506817" lon="11.02052"><ele>361.3333333333333</ele><time>2026-03-22T08:29:59.393Z</time></trkpt><trkpt lat="43.9506617" lon="11.020355"><ele>363.0</ele><time>2026-03-22T08:30:01.393Z</time></trkpt><trkpt lat="43.950635" lon="11.0201967"><ele>363.0</ele><time>2026-03-22T08:30:03.394Z</time></trkpt><trkpt lat="43.9505917" lon="11.0200517"><ele>363.0</ele><time>2026-03-22T08:30:05.394Z</time></trkpt><trkpt lat="43.950535" lon="11.0199317"><ele>363.0</ele><time>2026-03-22T08:30:07.394Z</time></trkpt><trkpt lat="43.9504983" lon="11.01986"><ele>363.0</ele><time>2026-03-22T08:30:08.393Z</time></trkpt><trkpt lat="43.9504567" lon="11.019785"><ele>363.0</ele><time>2026-03-22T08:30:09.394Z</time></trkpt><trkpt lat="43.95042" lon="11.019705"><ele>363.0</ele><time>2026-03-22T08:30:10.393Z</time></trkpt><trkpt lat="43.950365" lon="11.019625"><ele>366.79999999999995</ele><time>2026-03-22T08:30:11.393Z</time></trkpt><trkpt lat="43.9503233" lon="11.0195267"><ele>370.6</ele><time>2026-03-22T08:30:12.394Z</time></trkpt><trkpt lat="43.9502917" lon="11.019425"><ele>374.4</ele><time>2026-03-22T08:30:13.394Z</time></trkpt><trkpt lat="43.9502733" lon="11.0193333"><ele>378.20000000000005</ele><time>2026-03-22T08:30:14.394Z</time></trkpt><trkpt lat="43.9502883" lon="11.0191867"><ele>382.0</ele><time>2026-03-22T08:30:16.393Z</time></trkpt><trkpt lat="43.95034" lon="11.0190283"><ele>384.5</ele><time>2026-03-22T08:30:18.393Z</time></trkpt><trkpt lat="43.9503683" lon="11.018935"><ele>387.0</ele><time>2026-03-22T08:30:19.394Z</time></trkpt><trkpt lat="43.9503983" lon="11.0188483"><ele>389.5</ele><time>2026-03-22T08:30:20.394Z</time></trkpt><trkpt lat="43.9504267" lon="11.018685"><ele>392.0</ele><time>2026-03-22T08:30:22.393Z</time></trkpt><trkpt lat="43.9504333" lon="11.0185567"><ele>394.50000000000006</ele><time>2026-03-22T08:30:24.394Z</time></trkpt><trkpt lat="43.95044" lon="11.0184367"><ele>397.0</ele><time>2026-03-22T08:30:26.394Z</time></trkpt><trkpt lat="43.95041" lon="11.0183183"><ele>398.83333333333337</ele><time>2026-03-22T08:30:28.394Z</time></trkpt><trkpt lat="43.9503183" lon="11.0182167"><ele>400.6666666666667</ele><time>2026-03-22T08:30:30.393Z</time></trkpt><trkpt lat="43.9502233" lon="11.018135"><ele>402.5</ele><time>2026-03-22T08:30:32.393Z</time></trkpt><trkpt lat="43.9501633" lon="11.0180967"><ele>404.33333333333337</ele><time>2026-03-22T08:30:33.394Z</time></trkpt><trkpt lat="43.9501067" lon="11.018055"><ele>406.1666666666667</ele><time>2026-03-22T08:30:34.394Z</time></trkpt><trkpt lat="43.950065" lon="11.0179883"><ele>408.0</ele><time>2026-03-22T08:30:35.394Z</time></trkpt><trkpt lat="43.9500133" lon="11.0178583"><ele>405.3333333333333</ele><time>2026-03-22T08:30:37.393Z</time></trkpt><trkpt lat="43.9499417" lon="11.01776"><ele>402.66666666666663</ele><time>2026-03-22T08:30:39.394Z</time></trkpt><trkpt lat="43.9499" lon="11.01769"><ele>400.0</ele><time>2026-03-22T08:30:40.393Z</time></trkpt><trkpt lat="43.9498567" lon="11.0176067"><ele>397.3333333333333</ele><time>2026-03-22T08:30:41.393Z</time></trkpt><trkpt lat="43.9498067" lon="11.0175133"><ele>394.66666666666663</ele><time>2026-03-22T08:30:42.394Z</time></trkpt><trkpt lat="43.9497583" lon="11.0174133"><ele>392.0</ele><time>2026-03-22T08:30:43.394Z</time></trkpt><trkpt lat="43.949705" lon="11.0173167"><ele>391.99999999999994</ele><time>2026-03-22T08:30:44.393Z</time></trkpt><trkpt lat="43.9496533" lon="11.0172333"><ele>392.0</ele><time>2026-03-22T08:30:45.393Z</time></trkpt><trkpt lat="43.94961" lon="11.01715"><ele>392.0</ele><time>2026-03-22T08:30:46.393Z</time></trkpt><trkpt lat="43.9495567" lon="11.0170633"><ele>392.0</ele><time>2026-03-22T08:30:47.393Z</time></trkpt><trkpt lat="43.9495233" lon="11.0169683"><ele>391.99999999999994</ele><time>2026-03-22T08:30:48.393Z</time></trkpt><trkpt lat="43.94951" lon="11.0168733"><ele>392.0</ele><time>2026-03-22T08:30:49.393Z</time></trkpt><trkpt lat="43.949515" lon="11.0167267"><ele>391.99999999999994</ele><time>2026-03-22T08:30:51.394Z</time></trkpt><trkpt lat="43.9495617" lon="11.0166633"><ele>392.0</ele><time>2026-03-22T08:30:54.394Z</time></trkpt><trkpt lat="43.9495033" lon="11.0166133"><ele>392.0</ele><time>2026-03-22T08:31:21.394Z</time></trkpt><trkpt lat="43.94944" lon="11.0166183"><ele>392.0</ele><time>2026-03-22T08:31:23.394Z</time></trkpt><trkpt lat="43.9493517" lon="11.0166383"><ele>391.99999999999994</ele><time>2026-03-22T08:31:25.394Z</time></trkpt><trkpt lat="43.9492367" lon="11.0166683"><ele>392.0</ele><time>2026-03-22T08:31:27.394Z</time></trkpt><trkpt lat="43.94917" lon="11.0166717"><ele>388.16666666666663</ele><time>2026-03-22T08:31:28.394Z</time></trkpt><trkpt lat="43.9491" lon="11.0166617"><ele>384.3333333333333</ele><time>2026-03-22T08:31:29.394Z</time></trkpt><trkpt lat="43.949025" lon="11.0166433"><ele>380.5</ele><time>2026-03-22T08:31:30.393Z</time></trkpt><trkpt lat="43.948945" lon="11.01661"><ele>376.66666666666663</ele><time>2026-03-22T08:31:31.394Z</time></trkpt><trkpt lat="43.94886" lon="11.0165667"><ele>372.8333333333333</ele><time>2026-03-22T08:31:32.394Z</time></trkpt><trkpt lat="43.9487783" lon="11.016515"><ele>369.0</ele><time>2026-03-22T08:31:33.394Z</time></trkpt><trkpt lat="43.9486967" lon="11.01646"><ele>367.5</ele><time>2026-03-22T08:31:34.393Z</time></trkpt><trkpt lat="43.9486317" lon="11.0163867"><ele>366.0</ele><time>2026-03-22T08:31:35.394Z</time></trkpt><trkpt lat="43.9485533" lon="11.01634"><ele>364.5</ele><time>2026-03-22T08:31:36.394Z</time></trkpt><trkpt lat="43.9484717" lon="11.0163033"><ele>363.0</ele><time>2026-03-22T08:31:37.393Z</time></trkpt><trkpt lat="43.9484" lon="11.016275"><ele>361.5</ele><time>2026-03-22T08:31:38.393Z</time></trkpt><trkpt lat="43.9483433" lon="11.01623"><ele>360.0</ele><time>2026-03-22T08:31:39.393Z</time></trkpt><trkpt lat="43.948275" lon="11.01618"><ele>358.6666666666667</ele><time>2026-03-22T08:31:40.394Z</time></trkpt><trkpt lat="43.948215" lon="11.0161133"><ele>357.3333333333333</ele><time>2026-03-22T08:31:41.394Z</time></trkpt><trkpt lat="43.948165" lon="11.0160333"><ele>356.0</ele><time>2026-03-22T08:31:42.393Z</time></trkpt><trkpt lat="43.94813" lon="11.0159517"><ele>354.66666666666663</ele><time>2026-03-22T08:31:43.394Z</time></trkpt><trkpt lat="43.9481067" lon="11.0158517"><ele>353.3333333333333</ele><time>2026-03-22T08:31:44.394Z</time></trkpt><trkpt lat="43.948085" lon="11.015755"><ele>352.0</ele><time>2026-03-22T08:31:45.394Z</time></trkpt><trkpt lat="43.9480567" lon="11.0156483"><ele>349.3333333333333</ele><time>2026-03-22T08:31:46.394Z</time></trkpt><trkpt lat="43.9480333" lon="11.0155367"><ele>346.66666666666663</ele><time>2026-03-22T08:31:47.393Z</time></trkpt><trkpt lat="43.948015" lon="11.0154233"><ele>344.0</ele><time>2026-03-22T08:31:48.393Z</time></trkpt><trkpt lat="43.948" lon="11.0153133"><ele>341.3333333333333</ele><time>2026-03-22T08:31:49.393Z</time></trkpt><trkpt lat="43.94799" lon="11.0152067"><ele>338.6666666666667</ele><time>2026-03-22T08:31:50.394Z</time></trkpt><trkpt lat="43.9479933" lon="11.0151017"><ele>336.0</ele><time>2026-03-22T08:31:51.394Z</time></trkpt><trkpt lat="43.948015" lon="11.015"><ele>334.1666666666667</ele><time>2026-03-22T08:31:52.393Z</time></trkpt><trkpt lat="43.9480467" lon="11.014915"><ele>332.3333333333333</ele><time>2026-03-22T08:31:53.394Z</time></trkpt><trkpt lat="43.9480983" lon="11.0148417"><ele>330.5</ele><time>2026-03-22T08:31:54.393Z</time></trkpt><trkpt lat="43.94816" lon="11.01478"><ele>328.66666666666663</ele><time>2026-03-22T08:31:55.393Z</time></trkpt><trkpt lat="43.9482233" lon="11.0147417"><ele>326.8333333333333</ele><time>2026-03-22T08:31:56.393Z</time></trkpt><trkpt lat="43.9483483" lon="11.0147267"><ele>325.0</ele><time>2026-03-22T08:31:58.394Z</time></trkpt><trkpt lat="43.9484617" lon="11.014735"><ele>325.0</ele><time>2026-03-22T08:32:00.394Z</time></trkpt><trkpt lat="43.94853" lon="11.014735"><ele>325.0</ele><time>2026-03-22T08:32:01.393Z</time></trkpt><trkpt lat="43.9486" lon="11.0147233"><ele>325.0</ele><time>2026-03-22T08:32:02.393Z</time></trkpt><trkpt lat="43.9486733" lon="11.0147083"><ele>325.0</ele><time>2026-03-22T08:32:03.394Z</time></trkpt><trkpt lat="43.948735" lon="11.0146833"><ele>325.0</ele><time>2026-03-22T08:32:04.394Z</time></trkpt><trkpt lat="43.948795" lon="11.0146567"><ele>325.0</ele><time>2026-03-22T08:32:05.393Z</time></trkpt><trkpt lat="43.9489017" lon="11.0146317"><ele>325.0</ele><time>2026-03-22T08:32:07.393Z</time></trkpt><trkpt lat="43.9489933" lon="11.0145733"><ele>325.0</ele><time>2026-03-22T08:32:09.393Z</time></trkpt><trkpt lat="43.94897" lon="11.0143617"><ele>325.0</ele><time>2026-03-22T08:32:35.393Z</time></trkpt><trkpt lat="43.9489517" lon="11.01423"><ele>325.0</ele><time>2026-03-22T08:32:37.394Z</time></trkpt><trkpt lat="43.9489883" lon="11.0140817"><ele>325.0</ele><time>2026-03-22T08:32:39.394Z</time></trkpt><trkpt lat="43.9490667" lon="11.013975"><ele>325.2</ele><time>2026-03-22T08:32:41.393Z</time></trkpt><trkpt lat="43.949175" lon="11.0139117"><ele>325.4</ele><time>2026-03-22T08:32:43.393Z</time></trkpt><trkpt lat="43.9492483" lon="11.0138933"><ele>325.6</ele><time>2026-03-22T08:32:44.393Z</time></trkpt><trkpt lat="43.9493467" lon="11.01385"><ele>325.8</ele><time>2026-03-22T08:32:46.393Z</time></trkpt><trkpt lat="43.9493117" lon="11.0137467"><ele>326.0</ele><time>2026-03-22T08:32:47.394Z</time></trkpt><trkpt lat="43.9493" lon="11.01364"><ele>331.83333333333337</ele><time>2026-03-22T08:32:48.394Z</time></trkpt><trkpt lat="43.9492867" lon="11.0135133"><ele>337.6666666666667</ele><time>2026-03-22T08:32:49.394Z</time></trkpt><trkpt lat="43.9492717" lon="11.0133833"><ele>343.5</ele><time>2026-03-22T08:32:50.393Z</time></trkpt><trkpt lat="43.9492467" lon="11.0132533"><ele>349.3333333333333</ele><time>2026-03-22T08:32:51.393Z</time></trkpt><trkpt lat="43.9492283" lon="11.0131367"><ele>355.16666666666663</ele><time>2026-03-22T08:32:52.393Z</time></trkpt><trkpt lat="43.9492233" lon="11.01303"><ele>361.0</ele><time>2026-03-22T08:32:53.394Z</time></trkpt><trkpt lat="43.94922" lon="11.0129183"><ele>362.16666666666663</ele><time>2026-03-22T08:32:54.394Z</time></trkpt><trkpt lat="43.94923" lon="11.0128133"><ele>363.3333333333333</ele><time>2026-03-22T08:32:55.394Z</time></trkpt><trkpt lat="43.9492533" lon="11.01272"><ele>364.5</ele><time>2026-03-22T08:32:56.393Z</time></trkpt><trkpt lat="43.949285" lon="11.012615"><ele>365.6666666666667</ele><time>2026-03-22T08:32:57.394Z</time></trkpt><trkpt lat="43.9493183" lon="11.0125067"><ele>366.83333333333337</ele><time>2026-03-22T08:32:58.394Z</time></trkpt><trkpt lat="43.9493733" lon="11.012395"><ele>368.0</ele><time>2026-03-22T08:32:59.393Z</time></trkpt><trkpt lat="43.94943" lon="11.0122567"><ele>368.0</ele><time>2026-03-22T08:33:00.393Z</time></trkpt><trkpt lat="43.949495" lon="11.0121283"><ele>368.0</ele><time>2026-03-22T08:33:01.394Z</time></trkpt><trkpt lat="43.9495517" lon="11.0120117"><ele>368.0</ele><time>2026-03-22T08:33:02.394Z</time></trkpt><trkpt lat="43.9496067" lon="11.0119017"><ele>368.0</ele><time>2026-03-22T08:33:03.393Z</time></trkpt><trkpt lat="43.94966" lon="11.0118"><ele>368.0</ele><time>2026-03-22T08:33:04.394Z</time></trkpt><trkpt lat="43.9497217" lon="11.0117133"><ele>369.83333333333337</ele><time>2026-03-22T08:33:05.393Z</time></trkpt><trkpt lat="43.94978" lon="11.011635"><ele>371.6666666666667</ele><time>2026-03-22T08:33:06.394Z</time></trkpt><trkpt lat="43.9498467" lon="11.0115683"><ele>373.5</ele><time>2026-03-22T08:33:07.394Z</time></trkpt><trkpt lat="43.9499067" lon="11.0115033"><ele>375.3333333333333</ele><time>2026-03-22T08:33:08.393Z</time></trkpt><trkpt lat="43.9499783" lon="11.0114583"><ele>377.16666666666663</ele><time>2026-03-22T08:33:09.393Z</time></trkpt><trkpt lat="43.950065" lon="11.011415"><ele>379.0</ele><time>2026-03-22T08:33:10.394Z</time></trkpt><trkpt lat="43.950175" lon="11.0113783"><ele>379.0</ele><time>2026-03-22T08:33:11.393Z</time></trkpt><trkpt lat="43.9502717" lon="11.0113317"><ele>379.0</ele><time>2026-03-22T08:33:12.394Z</time></trkpt><trkpt lat="43.9503683" lon="11.0112917"><ele>379.0</ele><time>2026-03-22T08:33:13.393Z</time></trkpt><trkpt lat="43.9504633" lon="11.011255"><ele>379.0</ele><time>2026-03-22T08:33:14.394Z</time></trkpt><trkpt lat="43.950555" lon="11.01121"><ele>379.0</ele><time>2026-03-22T08:33:15.393Z</time></trkpt><trkpt lat="43.9506483" lon="11.01117"><ele>379.0</ele><time>2026-03-22T08:33:16.394Z</time></trkpt><trkpt lat="43.95076" lon="11.011145"><ele>379.0</ele><time>2026-03-22T08:33:17.394Z</time></trkpt><trkpt lat="43.95084" lon="11.0111"><ele>379.0</ele><time>2026-03-22T08:33:18.394Z</time></trkpt><trkpt lat="43.950915" lon="11.0110417"><ele>379.0</ele><time>2026-03-22T08:33:19.393Z</time></trkpt><trkpt lat="43.9509883" lon="11.0109867"><ele>379.0</ele><time>2026-03-22T08:33:20.393Z</time></trkpt><trkpt lat="43.9510417" lon="11.010845"><ele>382.42857142857144</ele><time>2026-03-22T08:33:22.394Z</time></trkpt><trkpt lat="43.9510367" lon="11.0107483"><ele>385.8571428571429</ele><time>2026-03-22T08:33:23.394Z</time></trkpt><trkpt lat="43.9510483" lon="11.010645"><ele>389.28571428571433</ele><time>2026-03-22T08:33:24.394Z</time></trkpt><trkpt lat="43.9510417" lon="11.0105483"><ele>392.7142857142857</ele><time>2026-03-22T08:33:25.393Z</time></trkpt><trkpt lat="43.9510467" lon="11.0104533"><ele>396.1428571428571</ele><time>2026-03-22T08:33:26.393Z</time></trkpt><trkpt lat="43.95105" lon="11.010345"><ele>399.5714285714286</ele><time>2026-03-22T08:33:27.393Z</time></trkpt><trkpt lat="43.9510533" lon="11.0102283"><ele>403.0</ele><time>2026-03-22T08:33:28.393Z</time></trkpt><trkpt lat="43.951055" lon="11.0101067"><ele>403.0</ele><time>2026-03-22T08:33:29.394Z</time></trkpt><trkpt lat="43.9510617" lon="11.0099983"><ele>403.0</ele><time>2026-03-22T08:33:30.393Z</time></trkpt><trkpt lat="43.95107" lon="11.0099083"><ele>403.0</ele><time>2026-03-22T08:33:31.393Z</time></trkpt><trkpt lat="43.9510733" lon="11.009785"><ele>403.0</ele><time>2026-03-22T08:33:33.393Z</time></trkpt><trkpt lat="43.9510433" lon="11.0096267"><ele>403.0</ele><time>2026-03-22T08:34:43.393Z</time></trkpt><trkpt lat="43.9511117" lon="11.0094933"><ele>399.6666666666667</ele><time>2026-03-22T08:34:45.393Z</time></trkpt><trkpt lat="43.9511617" lon="11.0094183"><ele>396.33333333333337</ele><time>2026-03-22T08:34:46.393Z</time></trkpt><trkpt lat="43.95122" lon="11.0093417"><ele>393.0</ele><time>2026-03-22T08:34:47.394Z</time></trkpt><trkpt lat="43.9512967" lon="11.0092683"><ele>389.6666666666667</ele><time>2026-03-22T08:34:48.393Z</time></trkpt><trkpt lat="43.95139" lon="11.0092067"><ele>386.33333333333337</ele><time>2026-03-22T08:34:49.393Z</time></trkpt><trkpt lat="43.9514817" lon="11.0091583"><ele>383.0</ele><time>2026-03-22T08:34:50.392Z</time></trkpt><trkpt lat="43.9515667" lon="11.0091283"><ele>381.0</ele><time>2026-03-22T08:34:51.392Z</time></trkpt><trkpt lat="43.9516467" lon="11.00911"><ele>379.0</ele><time>2026-03-22T08:34:52.393Z</time></trkpt><trkpt lat="43.9517133" lon="11.009105"><ele>377.0</ele><time>2026-03-22T08:34:53.392Z</time></trkpt><trkpt lat="43.9517883" lon="11.0090817"><ele>375.0</ele><time>2026-03-22T08:34:54.392Z</time></trkpt><trkpt lat="43.9518883" lon="11.008995"><ele>373.0</ele><time>2026-03-22T08:34:56.393Z</time></trkpt><trkpt lat="43.9519017" lon="11.00879"><ele>381.4</ele><time>2026-03-22T08:34:58.393Z</time></trkpt><trkpt lat="43.9518783" lon="11.00865"><ele>389.79999999999995</ele><time>2026-03-22T08:34:59.393Z</time></trkpt><trkpt lat="43.951865" lon="11.0085"><ele>398.2</ele><time>2026-03-22T08:35:00.392Z</time></trkpt><trkpt lat="43.9518517" lon="11.008355"><ele>406.6</ele><time>2026-03-22T08:35:01.393Z</time></trkpt><trkpt lat="43.9518233" lon="11.0082283"><ele>415.0</ele><time>2026-03-22T08:35:02.393Z</time></trkpt><trkpt lat="43.9517933" lon="11.0081267"><ele>415.0</ele><time>2026-03-22T08:35:03.393Z</time></trkpt><trkpt lat="43.95177" lon="11.00804"><ele>415.0</ele><time>2026-03-22T08:35:04.393Z</time></trkpt><trkpt lat="43.9517283" lon="11.0079517"><ele>415.0</ele><time>2026-03-22T08:35:06.394Z</time></trkpt><trkpt lat="43.9516983" lon="11.0078683"><ele>415.0</ele><time>2026-03-22T08:35:08.394Z</time></trkpt><trkpt lat="43.9516633" lon="11.0077767"><ele>415.0</ele><time>2026-03-22T08:35:10.394Z</time></trkpt><trkpt lat="43.95165" lon="11.00768"><ele>415.0</ele><time>2026-03-22T08:35:13.393Z</time></trkpt><trkpt lat="43.9516217" lon="11.007595"><ele>415.0</ele><time>2026-03-22T08:35:23.393Z</time></trkpt><trkpt lat="43.95158" lon="11.0074767"><ele>407.83333333333337</ele><time>2026-03-22T08:35:27.394Z</time></trkpt><trkpt lat="43.95154" lon="11.007375"><ele>400.6666666666667</ele><time>2026-03-22T08:35:29.393Z</time></trkpt><trkpt lat="43.9515467" lon="11.0072167"><ele>393.5</ele><time>2026-03-22T08:35:31.394Z</time></trkpt><trkpt lat="43.95155" lon="11.0071183"><ele>386.33333333333337</ele><time>2026-03-22T08:35:32.393Z</time></trkpt><trkpt lat="43.9515567" lon="11.0070183"><ele>379.1666666666667</ele><time>2026-03-22T08:35:33.393Z</time></trkpt><trkpt lat="43.95157" lon="11.0069267"><ele>372.0</ele><time>2026-03-22T08:35:34.394Z</time></trkpt><trkpt lat="43.9515883" lon="11.0068317"><ele>372.0</ele><time>2026-03-22T08:35:35.394Z</time></trkpt><trkpt lat="43.9516133" lon="11.006735"><ele>372.0</ele><time>2026-03-22T08:35:36.394Z</time></trkpt><trkpt lat="43.9516433" lon="11.0066483"><ele>372.0</ele><time>2026-03-22T08:35:37.394Z</time></trkpt><trkpt lat="43.9516733" lon="11.0065583"><ele>372.0</ele><time>2026-03-22T08:35:38.394Z</time></trkpt><trkpt lat="43.9517033" lon="11.00646"><ele>372.0</ele><time>2026-03-22T08:35:39.393Z</time></trkpt><trkpt lat="43.9517267" lon="11.0063533"><ele>372.0</ele><time>2026-03-22T08:35:40.394Z</time></trkpt><trkpt lat="43.951745" lon="11.006245"><ele>372.1666666666667</ele><time>2026-03-22T08:35:41.394Z</time></trkpt><trkpt lat="43.9517667" lon="11.0061333"><ele>372.3333333333333</ele><time>2026-03-22T08:35:42.394Z</time></trkpt><trkpt lat="43.9517883" lon="11.0060167"><ele>372.5</ele><time>2026-03-22T08:35:43.393Z</time></trkpt><trkpt lat="43.9518083" lon="11.0059083"><ele>372.66666666666663</ele><time>2026-03-22T08:35:44.393Z</time></trkpt><trkpt lat="43.9518283" lon="11.0058"><ele>372.8333333333333</ele><time>2026-03-22T08:35:45.393Z</time></trkpt><trkpt lat="43.9518467" lon="11.0056933"><ele>373.0</ele><time>2026-03-22T08:35:46.394Z</time></trkpt><trkpt lat="43.9518767" lon="11.0055767"><ele>373.0</ele><time>2026-03-22T08:35:47.394Z</time></trkpt><trkpt lat="43.9518967" lon="11.005465"><ele>373.0</ele><time>2026-03-22T08:35:48.393Z</time></trkpt><trkpt lat="43.9519217" lon="11.0053583"><ele>373.0</ele><time>2026-03-22T08:35:49.393Z</time></trkpt><trkpt lat="43.9519467" lon="11.0052717"><ele>373.0</ele><time>2026-03-22T08:35:50.393Z</time></trkpt><trkpt lat="43.95197" lon="11.0051833"><ele>373.0</ele><time>2026-03-22T08:35:51.394Z</time></trkpt><trkpt lat="43.9520567" lon="11.0050633"><ele>373.0</ele><time>2026-03-22T08:35:53.393Z</time></trkpt><trkpt lat="43.9521083" lon="11.0049883"><ele>369.5</ele><time>2026-03-22T08:35:54.393Z</time></trkpt><trkpt lat="43.9521683" lon="11.00492"><ele>366.0</ele><time>2026-03-22T08:35:55.393Z</time></trkpt><trkpt lat="43.95223" lon="11.0048383"><ele>362.5</ele><time>2026-03-22T08:35:56.394Z</time></trkpt><trkpt lat="43.9522883" lon="11.0047667"><ele>359.0</ele><time>2026-03-22T08:35:57.393Z</time></trkpt><trkpt lat="43.9523767" lon="11.004675"><ele>355.5</ele><time>2026-03-22T08:35:59.394Z</time></trkpt><trkpt lat="43.9524333" lon="11.004585"><ele>352.0</ele><time>2026-03-22T08:36:01.394Z</time></trkpt><trkpt lat="43.9524933" lon="11.00448"><ele>352.0</ele><time>2026-03-22T08:36:03.393Z</time></trkpt><trkpt lat="43.9525367" lon="11.0043817"><ele>352.0</ele><time>2026-03-22T08:36:05.393Z</time></trkpt><trkpt lat="43.9526017" lon="11.004285"><ele>352.0</ele><time>2026-03-22T08:36:13.393Z</time></trkpt><trkpt lat="43.952705" lon="11.0042133"><ele>352.0</ele><time>2026-03-22T08:36:15.393Z</time></trkpt><trkpt lat="43.9528033" lon="11.0041483"><ele>352.0</ele><time>2026-03-22T08:36:17.394Z</time></trkpt><trkpt lat="43.952895" lon="11.0040783"><ele>352.8333333333333</ele><time>2026-03-22T08:36:19.394Z</time></trkpt><trkpt lat="43.952975" lon="11.0040417"><ele>353.66666666666663</ele><time>2026-03-22T08:36:21.393Z</time></trkpt><trkpt lat="43.9530617" lon="11.00398"><ele>354.5</ele><time>2026-03-22T08:36:23.394Z</time></trkpt><trkpt lat="43.9531583" lon="11.00388"><ele>355.3333333333333</ele><time>2026-03-22T08:36:25.394Z</time></trkpt><trkpt lat="43.9532217" lon="11.003825"><ele>356.1666666666667</ele><time>2026-03-22T08:36:26.393Z</time></trkpt><trkpt lat="43.95328" lon="11.0037667"><ele>357.0</ele><time>2026-03-22T08:36:27.394Z</time></trkpt><trkpt lat="43.9533783" lon="11.0036733"><ele>357.0</ele><time>2026-03-22T08:36:29.394Z</time></trkpt><trkpt lat="43.9534683" lon="11.0035883"><ele>357.0</ele><time>2026-03-22T08:36:31.393Z</time></trkpt><trkpt lat="43.9535683" lon="11.0034933"><ele>357.0</ele><time>2026-03-22T08:36:33.393Z</time></trkpt><trkpt lat="43.953665" lon="11.0033983"><ele>357.0</ele><time>2026-03-22T08:36:35.393Z</time></trkpt><trkpt lat="43.9537267" lon="11.0033717"><ele>357.0</ele><time>2026-03-22T08:36:36.394Z</time></trkpt><trkpt lat="43.9537917" lon="11.0033417"><ele>354.8333333333333</ele><time>2026-03-22T08:36:37.393Z</time></trkpt><trkpt lat="43.9538583" lon="11.00332"><ele>352.6666666666667</ele><time>2026-03-22T08:36:38.393Z</time></trkpt><trkpt lat="43.953925" lon="11.003295"><ele>350.5</ele><time>2026-03-22T08:36:39.393Z</time></trkpt><trkpt lat="43.9540217" lon="11.0032567"><ele>348.33333333333337</ele><time>2026-03-22T08:36:41.393Z</time></trkpt><trkpt lat="43.9540983" lon="11.003215"><ele>346.1666666666667</ele><time>2026-03-22T08:36:43.393Z</time></trkpt><trkpt lat="43.9541717" lon="11.0031367"><ele>344.0</ele><time>2026-03-22T08:36:45.394Z</time></trkpt><trkpt lat="43.9542467" lon="11.0031067"><ele>344.0</ele><time>2026-03-22T08:36:47.393Z</time></trkpt><trkpt lat="43.9543467" lon="11.00305"><ele>344.0</ele><time>2026-03-22T08:36:49.393Z</time></trkpt><trkpt lat="43.9544633" lon="11.0029917"><ele>344.0</ele><time>2026-03-22T08:36:51.393Z</time></trkpt><trkpt lat="43.9545883" lon="11.0029367"><ele>344.0</ele><time>2026-03-22T08:36:53.393Z</time></trkpt><trkpt lat="43.9546433" lon="11.0028917"><ele>344.0</ele><time>2026-03-22T08:36:54.394Z</time></trkpt><trkpt lat="43.9547533" lon="11.0028217"><ele>344.0</ele><time>2026-03-22T08:36:56.394Z</time></trkpt><trkpt lat="43.9548633" lon="11.00276"><ele>344.0</ele><time>2026-03-22T08:36:58.393Z</time></trkpt><trkpt lat="43.954955" lon="11.0027117"><ele>344.0</ele><time>2026-03-22T08:37:00.393Z</time></trkpt><trkpt lat="43.955005" lon="11.0026533"><ele>344.0</ele><time>2026-03-22T08:37:01.393Z</time></trkpt><trkpt lat="43.955085" lon="11.002555"><ele>344.0</ele><time>2026-03-22T08:37:03.393Z</time></trkpt><trkpt lat="43.9551617" lon="11.0024967"><ele>344.0</ele><time>2026-03-22T08:37:05.393Z</time></trkpt><trkpt lat="43.9552383" lon="11.0024767"><ele>344.0</ele><time>2026-03-22T08:37:07.394Z</time></trkpt><trkpt lat="43.9553033" lon="11.002475"><ele>344.0</ele><time>2026-03-22T08:37:09.394Z</time></trkpt><trkpt lat="43.95541" lon="11.002495"><ele>344.0</ele><time>2026-03-22T08:37:18.393Z</time></trkpt><trkpt lat="43.955525" lon="11.0025333"><ele>344.0</ele><time>2026-03-22T08:37:20.394Z</time></trkpt><trkpt lat="43.9555917" lon="11.0025717"><ele>344.0</ele><time>2026-03-22T08:37:21.393Z</time></trkpt><trkpt lat="43.955655" lon="11.00261"><ele>344.00000000000006</ele><time>2026-03-22T08:37:22.394Z</time></trkpt><trkpt lat="43.9557133" lon="11.0026467"><ele>344.0</ele><time>2026-03-22T08:37:23.393Z</time></trkpt><trkpt lat="43.95578" lon="11.0026767"><ele>344.0</ele><time>2026-03-22T08:37:24.393Z</time></trkpt><trkpt lat="43.955845" lon="11.002695"><ele>344.0</ele><time>2026-03-22T08:37:25.393Z</time></trkpt><trkpt lat="43.95592" lon="11.0026983"><ele>344.0</ele><time>2026-03-22T08:37:26.393Z</time></trkpt><trkpt lat="43.9559933" lon="11.0026883"><ele>344.00000000000006</ele><time>2026-03-22T08:37:27.393Z</time></trkpt><trkpt lat="43.9560667" lon="11.0026783"><ele>344.0</ele><time>2026-03-22T08:37:28.394Z</time></trkpt><trkpt lat="43.9561367" lon="11.0026717"><ele>345.14285714285717</ele><time>2026-03-22T08:37:29.393Z</time></trkpt><trkpt lat="43.9562117" lon="11.0026533"><ele>346.2857142857143</ele><time>2026-03-22T08:37:30.394Z</time></trkpt><trkpt lat="43.9562883" lon="11.002635"><ele>347.42857142857144</ele><time>2026-03-22T08:37:31.393Z</time></trkpt><trkpt lat="43.956355" lon="11.0025933"><ele>348.57142857142856</ele><time>2026-03-22T08:37:32.393Z</time></trkpt><trkpt lat="43.9564317" lon="11.00256"><ele>349.7142857142857</ele><time>2026-03-22T08:37:33.393Z</time></trkpt><trkpt lat="43.9564917" lon="11.00252"><ele>350.8571428571429</ele><time>2026-03-22T08:37:34.393Z</time></trkpt><trkpt lat="43.956545" lon="11.0024717"><ele>352.0</ele><time>2026-03-22T08:37:35.393Z</time></trkpt><trkpt lat="43.9566033" lon="11.002435"><ele>355.66666666666663</ele><time>2026-03-22T08:37:36.393Z</time></trkpt><trkpt lat="43.956715" lon="11.0023717"><ele>359.3333333333333</ele><time>2026-03-22T08:37:38.394Z</time></trkpt><trkpt lat="43.95678" lon="11.002355"><ele>363.0</ele><time>2026-03-22T08:37:39.394Z</time></trkpt><trkpt lat="43.95687" lon="11.0022983"><ele>366.6666666666667</ele><time>2026-03-22T08:37:41.393Z</time></trkpt><trkpt lat="43.95693" lon="11.002245"><ele>370.33333333333337</ele><time>2026-03-22T08:37:43.394Z</time></trkpt><trkpt lat="43.9568683" lon="11.0021517"><ele>374.0</ele><time>2026-03-22T08:37:46.393Z</time></trkpt><trkpt lat="43.9568" lon="11.0021167"><ele>374.0</ele><time>2026-03-22T08:37:48.393Z</time></trkpt><trkpt lat="43.9567317" lon="11.00207"><ele>374.0</ele><time>2026-03-22T08:37:50.394Z</time></trkpt><trkpt lat="43.9566567" lon="11.0020067"><ele>374.0</ele><time>2026-03-22T08:37:52.394Z</time></trkpt><trkpt lat="43.9565633" lon="11.0019283"><ele>374.0</ele><time>2026-03-22T08:37:54.393Z</time></trkpt><trkpt lat="43.9564817" lon="11.0018667"><ele>374.0</ele><time>2026-03-22T08:37:56.393Z</time></trkpt><trkpt lat="43.956425" lon="11.0017767"><ele>370.0</ele><time>2026-03-22T08:37:58.394Z</time></trkpt><trkpt lat="43.95641" lon="11.0016767"><ele>366.0</ele><time>2026-03-22T08:38:00.394Z</time></trkpt><trkpt lat="43.9564133" lon="11.0015717"><ele>362.0</ele><time>2026-03-22T08:38:02.394Z</time></trkpt><trkpt lat="43.9564483" lon="11.001445"><ele>358.0</ele><time>2026-03-22T08:38:04.393Z</time></trkpt><trkpt lat="43.9565083" lon="11.0013417"><ele>354.0</ele><time>2026-03-22T08:38:06.393Z</time></trkpt><trkpt lat="43.9565967" lon="11.0012067"><ele>352.8333333333333</ele><time>2026-03-22T08:38:08.393Z</time></trkpt><trkpt lat="43.95665" lon="11.0011317"><ele>351.6666666666667</ele><time>2026-03-22T08:38:09.393Z</time></trkpt><trkpt lat="43.956705" lon="11.0010667"><ele>350.5</ele><time>2026-03-22T08:38:10.393Z</time></trkpt><trkpt lat="43.9567583" lon="11.000995"><ele>349.33333333333337</ele><time>2026-03-22T08:38:11.394Z</time></trkpt><trkpt lat="43.9568117" lon="11.0009317"><ele>348.1666666666667</ele><time>2026-03-22T08:38:12.394Z</time></trkpt><trkpt lat="43.9568833" lon="11.0008533"><ele>347.0</ele><time>2026-03-22T08:38:13.393Z</time></trkpt><trkpt lat="43.9569467" lon="11.0007733"><ele>346.6666666666667</ele><time>2026-03-22T08:38:14.393Z</time></trkpt><trkpt lat="43.9570017" lon="11.000685"><ele>346.33333333333337</ele><time>2026-03-22T08:38:15.394Z</time></trkpt><trkpt lat="43.9570517" lon="11.000615"><ele>346.0</ele><time>2026-03-22T08:38:16.393Z</time></trkpt><trkpt lat="43.9570833" lon="11.0005317"><ele>345.6666666666667</ele><time>2026-03-22T08:38:17.394Z</time></trkpt><trkpt lat="43.957155" lon="11.000415"><ele>345.3333333333333</ele><time>2026-03-22T08:38:19.394Z</time></trkpt><trkpt lat="43.9572317" lon="11.0003283"><ele>345.0</ele><time>2026-03-22T08:38:21.393Z</time></trkpt><trkpt lat="43.9573217" lon="11.0002583"><ele>345.0</ele><time>2026-03-22T08:38:23.393Z</time></trkpt><trkpt lat="43.957425" lon="11.0002083"><ele>345.0</ele><time>2026-03-22T08:38:25.394Z</time></trkpt><trkpt lat="43.95756" lon="11.00018"><ele>345.0</ele><time>2026-03-22T08:38:27.394Z</time></trkpt><trkpt lat="43.957635" lon="11.0001633"><ele>345.0</ele><time>2026-03-22T08:38:28.394Z</time></trkpt><trkpt lat="43.9576967" lon="11.0001367"><ele>345.0</ele><time>2026-03-22T08:38:29.393Z</time></trkpt><trkpt lat="43.95778" lon="11.000095"><ele>347.4</ele><time>2026-03-22T08:38:31.393Z</time></trkpt><trkpt lat="43.9578533" lon="11.00002"><ele>349.8</ele><time>2026-03-22T08:38:33.393Z</time></trkpt><trkpt lat="43.9579333" lon="10.9999433"><ele>352.20000000000005</ele><time>2026-03-22T08:38:35.393Z</time></trkpt><trkpt lat="43.9579933" lon="10.9998467"><ele>354.6</ele><time>2026-03-22T08:38:37.393Z</time></trkpt><trkpt lat="43.9580567" lon="10.999765"><ele>357.0</ele><time>2026-03-22T08:38:39.393Z</time></trkpt><trkpt lat="43.9581383" lon="10.9997433"><ele>357.0</ele><time>2026-03-22T08:38:41.394Z</time></trkpt><trkpt lat="43.9582317" lon="10.99969"><ele>357.0</ele><time>2026-03-22T08:38:43.394Z</time></trkpt><trkpt lat="43.958305" lon="10.9996617"><ele>357.0</ele><time>2026-03-22T08:38:44.394Z</time></trkpt><trkpt lat="43.9583733" lon="10.99962"><ele>357.0</ele><time>2026-03-22T08:38:45.393Z</time></trkpt><trkpt lat="43.9584383" lon="10.9995817"><ele>357.0</ele><time>2026-03-22T08:38:46.393Z</time></trkpt><trkpt lat="43.9584983" lon="10.9995417"><ele>357.0</ele><time>2026-03-22T08:38:47.394Z</time></trkpt><trkpt lat="43.958555" lon="10.9995017"><ele>354.8333333333333</ele><time>2026-03-22T08:38:48.394Z</time></trkpt><trkpt lat="43.9586533" lon="10.9994133"><ele>352.6666666666667</ele><time>2026-03-22T08:38:50.394Z</time></trkpt><trkpt lat="43.9587217" lon="10.99937"><ele>350.5</ele><time>2026-03-22T08:38:51.393Z</time></trkpt><trkpt lat="43.9587783" lon="10.999305"><ele>348.33333333333337</ele><time>2026-03-22T08:38:52.393Z</time></trkpt><trkpt lat="43.9588317" lon="10.9992433"><ele>346.1666666666667</ele><time>2026-03-22T08:38:53.394Z</time></trkpt><trkpt lat="43.9589183" lon="10.99915"><ele>344.0</ele><time>2026-03-22T08:38:55.394Z</time></trkpt><trkpt lat="43.958995" lon="10.9991033"><ele>344.0</ele><time>2026-03-22T08:38:57.394Z</time></trkpt><trkpt lat="43.95907" lon="10.999115"><ele>344.0</ele><time>2026-03-22T08:38:59.393Z</time></trkpt><trkpt lat="43.95915" lon="10.9991867"><ele>344.0</ele><time>2026-03-22T08:39:01.394Z</time></trkpt><trkpt lat="43.95926" lon="10.9992267"><ele>344.0</ele><time>2026-03-22T08:39:03.394Z</time></trkpt><trkpt lat="43.9593467" lon="10.9992"><ele>344.0</ele><time>2026-03-22T08:39:05.393Z</time></trkpt><trkpt lat="43.9594383" lon="10.9991433"><ele>344.4</ele><time>2026-03-22T08:39:07.393Z</time></trkpt><trkpt lat="43.9595267" lon="10.999095"><ele>344.79999999999995</ele><time>2026-03-22T08:39:09.393Z</time></trkpt><trkpt lat="43.9596367" lon="10.9990633"><ele>345.20000000000005</ele><time>2026-03-22T08:39:11.394Z</time></trkpt><trkpt lat="43.9597483" lon="10.9990567"><ele>345.6</ele><time>2026-03-22T08:39:13.394Z</time></trkpt><trkpt lat="43.9598517" lon="10.99907"><ele>346.0</ele><time>2026-03-22T08:39:15.394Z</time></trkpt><trkpt lat="43.9599617" lon="10.999065"><ele>346.0</ele><time>2026-03-22T08:39:17.394Z</time></trkpt><trkpt lat="43.96" lon="10.99899"><ele>346.0</ele><time>2026-03-22T08:39:20.394Z</time></trkpt><trkpt lat="43.9600283" lon="10.9988667"><ele>346.0</ele><time>2026-03-22T08:40:17.393Z</time></trkpt><trkpt lat="43.960005" lon="10.9987767"><ele>346.0</ele><time>2026-03-22T08:40:19.392Z</time></trkpt><trkpt lat="43.95994" lon="10.9986733"><ele>346.0</ele><time>2026-03-22T08:40:21.392Z</time></trkpt><trkpt lat="43.9598483" lon="10.9985517"><ele>346.0</ele><time>2026-03-22T08:40:23.392Z</time></trkpt><trkpt lat="43.959805" lon="10.9984867"><ele>346.0</ele><time>2026-03-22T08:40:24.393Z</time></trkpt><trkpt lat="43.9597717" lon="10.9984083"><ele>346.0</ele><time>2026-03-22T08:40:25.392Z</time></trkpt><trkpt lat="43.959715" lon="10.9982833"><ele>346.0</ele><time>2026-03-22T08:40:27.393Z</time></trkpt><trkpt lat="43.95967" lon="10.9981667"><ele>346.0</ele><time>2026-03-22T08:40:29.392Z</time></trkpt><trkpt lat="43.9596133" lon="10.9980733"><ele>346.0</ele><time>2026-03-22T08:40:31.393Z</time></trkpt><trkpt lat="43.9594967" lon="10.9980067"><ele>347.2857142857143</ele><time>2026-03-22T08:40:33.392Z</time></trkpt><trkpt lat="43.9594367" lon="10.997965"><ele>348.5714285714286</ele><time>2026-03-22T08:40:34.393Z</time></trkpt><trkpt lat="43.9593767" lon="10.997925"><ele>349.8571428571429</ele><time>2026-03-22T08:40:35.393Z</time></trkpt><trkpt lat="43.9593083" lon="10.9978767"><ele>351.1428571428571</ele><time>2026-03-22T08:40:36.393Z</time></trkpt><trkpt lat="43.95923" lon="10.9978267"><ele>352.42857142857144</ele><time>2026-03-22T08:40:37.393Z</time></trkpt><trkpt lat="43.9591667" lon="10.9977767"><ele>353.7142857142857</ele><time>2026-03-22T08:40:38.393Z</time></trkpt><trkpt lat="43.9591017" lon="10.9977383"><ele>355.0</ele><time>2026-03-22T08:40:39.392Z</time></trkpt><trkpt lat="43.958995" lon="10.99768"><ele>356.5</ele><time>2026-03-22T08:40:41.392Z</time></trkpt><trkpt lat="43.9589167" lon="10.9976483"><ele>358.0</ele><time>2026-03-22T08:40:44.392Z</time></trkpt><trkpt lat="43.9588483" lon="10.9976267"><ele>359.5</ele><time>2026-03-22T08:40:47.392Z</time></trkpt><trkpt lat="43.9587567" lon="10.997605"><ele>361.0</ele><time>2026-03-22T08:41:01.393Z</time></trkpt><trkpt lat="43.9586767" lon="10.9975733"><ele>362.5</ele><time>2026-03-22T08:41:03.393Z</time></trkpt><trkpt lat="43.9585817" lon="10.9975267"><ele>364.0</ele><time>2026-03-22T08:41:05.394Z</time></trkpt><trkpt lat="43.95848" lon="10.9974783"><ele>364.0</ele><time>2026-03-22T08:41:07.393Z</time></trkpt><trkpt lat="43.95837" lon="10.997445"><ele>364.0</ele><time>2026-03-22T08:41:09.394Z</time></trkpt><trkpt lat="43.9583033" lon="10.9974367"><ele>364.0</ele><time>2026-03-22T08:41:10.394Z</time></trkpt><trkpt lat="43.95824" lon="10.9974283"><ele>364.0</ele><time>2026-03-22T08:41:11.393Z</time></trkpt><trkpt lat="43.9581133" lon="10.997405"><ele>364.0</ele><time>2026-03-22T08:41:13.393Z</time></trkpt><trkpt lat="43.9579933" lon="10.9973817"><ele>359.79999999999995</ele><time>2026-03-22T08:41:15.393Z</time></trkpt><trkpt lat="43.957885" lon="10.9973483"><ele>355.59999999999997</ele><time>2026-03-22T08:41:17.394Z</time></trkpt><trkpt lat="43.95781" lon="10.9972867"><ele>351.4</ele><time>2026-03-22T08:41:19.394Z</time></trkpt><trkpt lat="43.9577517" lon="10.997195"><ele>347.2</ele><time>2026-03-22T08:41:21.393Z</time></trkpt><trkpt lat="43.9576433" lon="10.9971367"><ele>343.0</ele><time>2026-03-22T08:41:23.393Z</time></trkpt><trkpt lat="43.9575317" lon="10.99708"><ele>342.2</ele><time>2026-03-22T08:41:25.393Z</time></trkpt><trkpt lat="43.9574383" lon="10.99711"><ele>341.4</ele><time>2026-03-22T08:41:27.394Z</time></trkpt><trkpt lat="43.9573133" lon="10.9972333"><ele>340.59999999999997</ele><time>2026-03-22T08:41:29.393Z</time></trkpt><trkpt lat="43.957235" lon="10.997315"><ele>339.79999999999995</ele><time>2026-03-22T08:41:30.393Z</time></trkpt><trkpt lat="43.957155" lon="10.997365"><ele>339.0</ele><time>2026-03-22T08:41:31.393Z</time></trkpt><trkpt lat="43.95705" lon="10.9974117"><ele>339.0</ele><time>2026-03-22T08:41:32.393Z</time></trkpt><trkpt lat="43.9569417" lon="10.9974467"><ele>339.0</ele><time>2026-03-22T08:41:33.394Z</time></trkpt><trkpt lat="43.9568417" lon="10.9974517"><ele>339.0</ele><time>2026-03-22T08:41:34.394Z</time></trkpt><trkpt lat="43.9567417" lon="10.997465"><ele>339.0</ele><time>2026-03-22T08:41:35.394Z</time></trkpt><trkpt lat="43.9566483" lon="10.997475"><ele>339.0</ele><time>2026-03-22T08:41:36.394Z</time></trkpt><trkpt lat="43.9565717" lon="10.9974667"><ele>339.0</ele><time>2026-03-22T08:41:37.393Z</time></trkpt><trkpt lat="43.9565067" lon="10.9974433"><ele>339.0</ele><time>2026-03-22T08:41:38.393Z</time></trkpt><trkpt lat="43.9564267" lon="10.997425"><ele>339.0</ele><time>2026-03-22T08:41:39.394Z</time></trkpt><trkpt lat="43.9563583" lon="10.9974"><ele>339.0</ele><time>2026-03-22T08:41:40.394Z</time></trkpt><trkpt lat="43.9563" lon="10.9973433"><ele>339.0</ele><time>2026-03-22T08:41:41.394Z</time></trkpt><trkpt lat="43.9562667" lon="10.9972633"><ele>339.0</ele><time>2026-03-22T08:41:42.394Z</time></trkpt><trkpt lat="43.9562317" lon="10.99719"><ele>339.0</ele><time>2026-03-22T08:41:43.394Z</time></trkpt><trkpt lat="43.9561583" lon="10.997065"><ele>339.0</ele><time>2026-03-22T08:41:45.393Z</time></trkpt><trkpt lat="43.956035" lon="10.9969767"><ele>339.0</ele><time>2026-03-22T08:41:47.393Z</time></trkpt><trkpt lat="43.955975" lon="10.99694"><ele>339.0</ele><time>2026-03-22T08:41:48.394Z</time></trkpt><trkpt lat="43.9559133" lon="10.9969067"><ele>339.0</ele><time>2026-03-22T08:41:49.393Z</time></trkpt><trkpt lat="43.955835" lon="10.996895"><ele>339.0</ele><time>2026-03-22T08:41:50.393Z</time></trkpt><trkpt lat="43.9557617" lon="10.9969083"><ele>339.0</ele><time>2026-03-22T08:41:51.393Z</time></trkpt><trkpt lat="43.9556917" lon="10.99693"><ele>337.4285714285714</ele><time>2026-03-22T08:41:52.393Z</time></trkpt><trkpt lat="43.9556183" lon="10.99697"><ele>335.8571428571429</ele><time>2026-03-22T08:41:53.393Z</time></trkpt><trkpt lat="43.95555" lon="10.997025"><ele>334.2857142857143</ele><time>2026-03-22T08:41:54.394Z</time></trkpt><trkpt lat="43.9554867" lon="10.9970767"><ele>332.71428571428567</ele><time>2026-03-22T08:41:55.393Z</time></trkpt><trkpt lat="43.95543" lon="10.9971233"><ele>331.1428571428571</ele><time>2026-03-22T08:41:56.393Z</time></trkpt><trkpt lat="43.95537" lon="10.9971867"><ele>329.57142857142856</ele><time>2026-03-22T08:41:57.394Z</time></trkpt><trkpt lat="43.9553067" lon="10.99723"><ele>328.0</ele><time>2026-03-22T08:41:58.394Z</time></trkpt><trkpt lat="43.9551767" lon="10.9972583"><ele>327.99999999999994</ele><time>2026-03-22T08:42:00.393Z</time></trkpt><trkpt lat="43.9551117" lon="10.99726"><ele>328.0</ele><time>2026-03-22T08:42:01.394Z</time></trkpt><trkpt lat="43.9550467" lon="10.9972467"><ele>328.0</ele><time>2026-03-22T08:42:02.393Z</time></trkpt><trkpt lat="43.9549767" lon="10.9972283"><ele>328.0</ele><time>2026-03-22T08:42:03.393Z</time></trkpt><trkpt lat="43.95492" lon="10.9971533"><ele>328.0</ele><time>2026-03-22T08:42:04.393Z</time></trkpt><trkpt lat="43.9548617" lon="10.9970933"><ele>327.99999999999994</ele><time>2026-03-22T08:42:05.394Z</time></trkpt><trkpt lat="43.954795" lon="10.9970467"><ele>328.0</ele><time>2026-03-22T08:42:06.394Z</time></trkpt><trkpt lat="43.9547217" lon="10.9970233"><ele>325.79999999999995</ele><time>2026-03-22T08:42:07.394Z</time></trkpt><trkpt lat="43.9546033" lon="10.997015"><ele>323.59999999999997</ele><time>2026-03-22T08:42:10.393Z</time></trkpt><trkpt lat="43.9545383" lon="10.99705"><ele>321.4</ele><time>2026-03-22T08:42:11.394Z</time></trkpt><trkpt lat="43.95441" lon="10.9971467"><ele>319.2</ele><time>2026-03-22T08:42:13.394Z</time></trkpt><trkpt lat="43.9543367" lon="10.997195"><ele>317.0</ele><time>2026-03-22T08:42:14.394Z</time></trkpt><trkpt lat="43.9542633" lon="10.9972283"><ele>317.6666666666667</ele><time>2026-03-22T08:42:15.393Z</time></trkpt><trkpt lat="43.9541983" lon="10.9972633"><ele>318.33333333333337</ele><time>2026-03-22T08:42:16.394Z</time></trkpt><trkpt lat="43.9541367" lon="10.997185"><ele>319.0</ele><time>2026-03-22T08:42:19.393Z</time></trkpt><trkpt lat="43.9540367" lon="10.9972783"><ele>319.6666666666667</ele><time>2026-03-22T08:42:42.393Z</time></trkpt><trkpt lat="43.953965" lon="10.9972617"><ele>320.3333333333333</ele><time>2026-03-22T08:42:54.394Z</time></trkpt><trkpt lat="43.9538817" lon="10.9972567"><ele>321.0</ele><time>2026-03-22T08:42:56.394Z</time></trkpt><trkpt lat="43.9537583" lon="10.9972467"><ele>321.0</ele><time>2026-03-22T08:42:58.394Z</time></trkpt><trkpt lat="43.9536883" lon="10.997225"><ele>321.0</ele><time>2026-03-22T08:42:59.394Z</time></trkpt><trkpt lat="43.9536167" lon="10.9971933"><ele>321.0</ele><time>2026-03-22T08:43:00.394Z</time></trkpt><trkpt lat="43.9535483" lon="10.9971417"><ele>321.0</ele><time>2026-03-22T08:43:01.393Z</time></trkpt><trkpt lat="43.9534717" lon="10.99709"><ele>321.0</ele><time>2026-03-22T08:43:02.394Z</time></trkpt><trkpt lat="43.95339" lon="10.99704"><ele>321.0</ele><time>2026-03-22T08:43:03.393Z</time></trkpt><trkpt lat="43.9532933" lon="10.9970233"><ele>320.8</ele><time>2026-03-22T08:43:04.394Z</time></trkpt><trkpt lat="43.9531967" lon="10.9969983"><ele>320.6</ele><time>2026-03-22T08:43:05.393Z</time></trkpt><trkpt lat="43.9531133" lon="10.9969533"><ele>320.4</ele><time>2026-03-22T08:43:06.393Z</time></trkpt><trkpt lat="43.9530433" lon="10.99689"><ele>320.2</ele><time>2026-03-22T08:43:07.393Z</time></trkpt><trkpt lat="43.95296" lon="10.99682"><ele>320.0</ele><time>2026-03-22T08:43:08.393Z</time></trkpt><trkpt lat="43.95288" lon="10.9967433"><ele>320.0</ele><time>2026-03-22T08:43:09.393Z</time></trkpt><trkpt lat="43.9528033" lon="10.99667"><ele>320.0</ele><time>2026-03-22T08:43:10.393Z</time></trkpt><trkpt lat="43.952745" lon="10.996615"><ele>320.0</ele><time>2026-03-22T08:43:11.393Z</time></trkpt><trkpt lat="43.95269" lon="10.9965633"><ele>320.0</ele><time>2026-03-22T08:43:12.394Z</time></trkpt><trkpt lat="43.9525917" lon="10.9965067"><ele>320.0</ele><time>2026-03-22T08:43:14.393Z</time></trkpt><trkpt lat="43.9525083" lon="10.9964783"><ele>320.0</ele><time>2026-03-22T08:43:16.393Z</time></trkpt><trkpt lat="43.9523917" lon="10.99636"><ele>322.0</ele><time>2026-03-22T08:44:05.393Z</time></trkpt><trkpt lat="43.952365" lon="10.9962467"><ele>324.0</ele><time>2026-03-22T08:44:06.394Z</time></trkpt><trkpt lat="43.95236" lon="10.9961383"><ele>326.0</ele><time>2026-03-22T08:44:07.394Z</time></trkpt><trkpt lat="43.9523733" lon="10.996005"><ele>328.0</ele><time>2026-03-22T08:44:08.393Z</time></trkpt><trkpt lat="43.9524067" lon="10.9958933"><ele>330.0</ele><time>2026-03-22T08:44:09.394Z</time></trkpt><trkpt lat="43.9524267" lon="10.9957783"><ele>332.0</ele><time>2026-03-22T08:44:10.394Z</time></trkpt><trkpt lat="43.9524533" lon="10.9956817"><ele>333.0</ele><time>2026-03-22T08:44:11.394Z</time></trkpt><trkpt lat="43.9525017" lon="10.9955533"><ele>334.0</ele><time>2026-03-22T08:44:13.393Z</time></trkpt><trkpt lat="43.9525267" lon="10.99547"><ele>335.0</ele><time>2026-03-22T08:57:57.393Z</time></trkpt><trkpt lat="43.9524483" lon="10.9954033"><ele>336.0</ele><time>2026-03-22T08:57:58.393Z</time></trkpt><trkpt lat="43.9525183" lon="10.9954767"><ele>337.0</ele><time>2026-03-22T08:59:02.394Z</time></trkpt><trkpt lat="43.9526133" lon="10.9955367"><ele>339.8333333333333</ele><time>2026-03-22T09:03:24.393Z</time></trkpt><trkpt lat="43.9527233" lon="10.9955367"><ele>342.66666666666663</ele><time>2026-03-22T09:03:26.394Z</time></trkpt><trkpt lat="43.95279" lon="10.995515"><ele>345.5</ele><time>2026-03-22T09:03:27.393Z</time></trkpt><trkpt lat="43.952865" lon="10.995475"><ele>348.3333333333333</ele><time>2026-03-22T09:03:28.394Z</time></trkpt><trkpt lat="43.95295" lon="10.9954417"><ele>351.1666666666667</ele><time>2026-03-22T09:03:29.392Z</time></trkpt><trkpt lat="43.9530383" lon="10.9953983"><ele>354.0</ele><time>2026-03-22T09:03:30.393Z</time></trkpt><trkpt lat="43.9531217" lon="10.9953533"><ele>354.0</ele><time>2026-03-22T09:03:31.392Z</time></trkpt><trkpt lat="43.9532067" lon="10.9952883"><ele>354.0</ele><time>2026-03-22T09:03:32.392Z</time></trkpt><trkpt lat="43.953285" lon="10.9952167"><ele>354.0</ele><time>2026-03-22T09:03:33.392Z</time></trkpt><trkpt lat="43.95337" lon="10.9951383"><ele>354.0</ele><time>2026-03-22T09:03:34.393Z</time></trkpt><trkpt lat="43.953455" lon="10.995045"><ele>354.0</ele><time>2026-03-22T09:03:35.392Z</time></trkpt><trkpt lat="43.9535367" lon="10.9949483"><ele>357.0</ele><time>2026-03-22T09:03:36.393Z</time></trkpt><trkpt lat="43.9536217" lon="10.9948617"><ele>360.0</ele><time>2026-03-22T09:03:37.393Z</time></trkpt><trkpt lat="43.9537033" lon="10.994785"><ele>363.0</ele><time>2026-03-22T09:03:38.393Z</time></trkpt><trkpt lat="43.9537917" lon="10.9947317"><ele>366.0</ele><time>2026-03-22T09:03:39.393Z</time></trkpt><trkpt lat="43.9538767" lon="10.994695"><ele>369.0</ele><time>2026-03-22T09:03:40.392Z</time></trkpt><trkpt lat="43.95396" lon="10.9946717"><ele>369.0</ele><time>2026-03-22T09:03:41.393Z</time></trkpt><trkpt lat="43.9540517" lon="10.9946567"><ele>369.0</ele><time>2026-03-22T09:03:42.393Z</time></trkpt><trkpt lat="43.9541667" lon="10.9946433"><ele>369.0</ele><time>2026-03-22T09:03:43.393Z</time></trkpt><trkpt lat="43.9542717" lon="10.9946233"><ele>369.0</ele><time>2026-03-22T09:03:44.392Z</time></trkpt><trkpt lat="43.9543783" lon="10.994595"><ele>369.0</ele><time>2026-03-22T09:03:45.392Z</time></trkpt><trkpt lat="43.954485" lon="10.9945633"><ele>372.0</ele><time>2026-03-22T09:03:46.392Z</time></trkpt><trkpt lat="43.9545967" lon="10.9945283"><ele>375.0</ele><time>2026-03-22T09:03:47.393Z</time></trkpt><trkpt lat="43.9546967" lon="10.9944917"><ele>378.0</ele><time>2026-03-22T09:03:48.392Z</time></trkpt><trkpt lat="43.9547917" lon="10.9944283"><ele>381.0</ele><time>2026-03-22T09:03:49.393Z</time></trkpt><trkpt lat="43.954865" lon="10.9943717"><ele>384.0</ele><time>2026-03-22T09:03:50.393Z</time></trkpt><trkpt lat="43.9549317" lon="10.9943267"><ele>384.0</ele><time>2026-03-22T09:03:51.392Z</time></trkpt><trkpt lat="43.9549883" lon="10.994285"><ele>384.0</ele><time>2026-03-22T09:03:52.393Z</time></trkpt><trkpt lat="43.9550083" lon="10.99419"><ele>384.0</ele><time>2026-03-22T09:03:54.393Z</time></trkpt><trkpt lat="43.9550383" lon="10.994105"><ele>384.0</ele><time>2026-03-22T09:04:02.393Z</time></trkpt><trkpt lat="43.9550483" lon="10.9939783"><ele>384.0</ele><time>2026-03-22T09:04:04.393Z</time></trkpt><trkpt lat="43.9550583" lon="10.993835"><ele>384.0</ele><time>2026-03-22T09:04:06.393Z</time></trkpt><trkpt lat="43.9550867" lon="10.9937517"><ele>386.0</ele><time>2026-03-22T09:04:09.393Z</time></trkpt><trkpt lat="43.9550883" lon="10.9938533"><ele>388.0</ele><time>2026-03-22T09:04:11.392Z</time></trkpt><trkpt lat="43.9550967" lon="10.9940317"><ele>390.0</ele><time>2026-03-22T09:04:13.393Z</time></trkpt><trkpt lat="43.9550767" lon="10.9942033"><ele>392.0</ele><time>2026-03-22T09:04:15.392Z</time></trkpt><trkpt lat="43.955045" lon="10.99438"><ele>390.66666666666663</ele><time>2026-03-22T09:04:17.392Z</time></trkpt><trkpt lat="43.9550117" lon="10.9944867"><ele>389.3333333333333</ele><time>2026-03-22T09:04:18.392Z</time></trkpt><trkpt lat="43.9549767" lon="10.9945867"><ele>388.0</ele><time>2026-03-22T09:04:19.393Z</time></trkpt><trkpt lat="43.95494" lon="10.9946817"><ele>386.66666666666663</ele><time>2026-03-22T09:04:20.393Z</time></trkpt><trkpt lat="43.9549017" lon="10.99478"><ele>385.3333333333333</ele><time>2026-03-22T09:04:21.392Z</time></trkpt><trkpt lat="43.95487" lon="10.99487"><ele>384.0</ele><time>2026-03-22T09:04:22.392Z</time></trkpt><trkpt lat="43.95485" lon="10.9949633"><ele>384.79999999999995</ele><time>2026-03-22T09:04:23.393Z</time></trkpt><trkpt lat="43.9548433" lon="10.9950583"><ele>385.59999999999997</ele><time>2026-03-22T09:04:24.392Z</time></trkpt><trkpt lat="43.954835" lon="10.995145"><ele>386.4</ele><time>2026-03-22T09:04:25.393Z</time></trkpt><trkpt lat="43.9548717" lon="10.9952967"><ele>387.2</ele><time>2026-03-22T09:04:27.394Z</time></trkpt><trkpt lat="43.9549317" lon="10.995415"><ele>388.0</ele><time>2026-03-22T09:04:29.393Z</time></trkpt><trkpt lat="43.9550467" lon="10.9954517"><ele>388.00000000000006</ele><time>2026-03-22T09:04:31.393Z</time></trkpt><trkpt lat="43.9551183" lon="10.9954117"><ele>388.0</ele><time>2026-03-22T09:04:32.393Z</time></trkpt><trkpt lat="43.9551767" lon="10.995355"><ele>388.0</ele><time>2026-03-22T09:04:34.393Z</time></trkpt><trkpt lat="43.9552083" lon="10.9952567"><ele>388.0</ele><time>2026-03-22T09:04:36.394Z</time></trkpt><trkpt lat="43.9552817" lon="10.9951617"><ele>388.00000000000006</ele><time>2026-03-22T09:04:38.393Z</time></trkpt><trkpt lat="43.9553883" lon="10.9950833"><ele>388.0</ele><time>2026-03-22T09:04:40.393Z</time></trkpt><trkpt lat="43.9554667" lon="10.99502"><ele>389.50000000000006</ele><time>2026-03-22T09:04:42.395Z</time></trkpt><trkpt lat="43.9555633" lon="10.9949383"><ele>391.0</ele><time>2026-03-22T09:04:44.393Z</time></trkpt><trkpt lat="43.9556117" lon="10.9948733"><ele>392.5</ele><time>2026-03-22T09:04:45.394Z</time></trkpt><trkpt lat="43.955655" lon="10.9947983"><ele>394.0</ele><time>2026-03-22T09:04:46.393Z</time></trkpt><trkpt lat="43.9557017" lon="10.9947283"><ele>395.50000000000006</ele><time>2026-03-22T09:04:47.394Z</time></trkpt><trkpt lat="43.9557483" lon="10.9946633"><ele>397.0</ele><time>2026-03-22T09:04:48.394Z</time></trkpt><trkpt lat="43.9558633" lon="10.9945683"><ele>400.1666666666667</ele><time>2026-03-22T09:04:50.393Z</time></trkpt><trkpt lat="43.955935" lon="10.9945233"><ele>403.33333333333337</ele><time>2026-03-22T09:04:51.393Z</time></trkpt><trkpt lat="43.9560033" lon="10.9944783"><ele>406.5</ele><time>2026-03-22T09:04:52.394Z</time></trkpt><trkpt lat="43.956085" lon="10.9944517"><ele>409.66666666666663</ele><time>2026-03-22T09:04:53.394Z</time></trkpt><trkpt lat="43.95616" lon="10.9944183"><ele>412.8333333333333</ele><time>2026-03-22T09:04:54.393Z</time></trkpt><trkpt lat="43.9562417" lon="10.9943833"><ele>416.0</ele><time>2026-03-22T09:04:55.394Z</time></trkpt><trkpt lat="43.956315" lon="10.9943467"><ele>415.99999999999994</ele><time>2026-03-22T09:04:56.394Z</time></trkpt><trkpt lat="43.95639" lon="10.9943133"><ele>416.0</ele><time>2026-03-22T09:04:57.394Z</time></trkpt><trkpt lat="43.9564733" lon="10.994275"><ele>416.0</ele><time>2026-03-22T09:04:58.394Z</time></trkpt><trkpt lat="43.956555" lon="10.9942417"><ele>416.0</ele><time>2026-03-22T09:04:59.393Z</time></trkpt><trkpt lat="43.9566333" lon="10.9942133"><ele>415.99999999999994</ele><time>2026-03-22T09:05:00.393Z</time></trkpt><trkpt lat="43.9567033" lon="10.9941883"><ele>416.0</ele><time>2026-03-22T09:05:01.393Z</time></trkpt><trkpt lat="43.956815" lon="10.9941583"><ele>418.16666666666663</ele><time>2026-03-22T09:05:03.394Z</time></trkpt><trkpt lat="43.9568667" lon="10.9942183"><ele>420.3333333333333</ele><time>2026-03-22T09:05:06.394Z</time></trkpt><trkpt lat="43.9568233" lon="10.9943017"><ele>422.5</ele><time>2026-03-22T09:05:08.394Z</time></trkpt><trkpt lat="43.9567883" lon="10.9943767"><ele>424.66666666666663</ele><time>2026-03-22T09:05:09.393Z</time></trkpt><trkpt lat="43.9567583" lon="10.9944617"><ele>426.8333333333333</ele><time>2026-03-22T09:05:10.394Z</time></trkpt><trkpt lat="43.9567333" lon="10.99455"><ele>429.0</ele><time>2026-03-22T09:05:11.394Z</time></trkpt><trkpt lat="43.9567317" lon="10.99473"><ele>429.0</ele><time>2026-03-22T09:05:13.394Z</time></trkpt><trkpt lat="43.956745" lon="10.99482"><ele>429.0</ele><time>2026-03-22T09:05:14.394Z</time></trkpt><trkpt lat="43.9567767" lon="10.9949533"><ele>429.0</ele><time>2026-03-22T09:05:16.393Z</time></trkpt><trkpt lat="43.9568317" lon="10.995055"><ele>429.0</ele><time>2026-03-22T09:05:18.394Z</time></trkpt><trkpt lat="43.956885" lon="10.995135"><ele>429.0</ele><time>2026-03-22T09:05:20.394Z</time></trkpt><trkpt lat="43.956945" lon="10.995215"><ele>429.0</ele><time>2026-03-22T09:05:22.394Z</time></trkpt><trkpt lat="43.957025" lon="10.995265"><ele>426.6666666666667</ele><time>2026-03-22T09:05:25.393Z</time></trkpt><trkpt lat="43.9570917" lon="10.9952817"><ele>424.33333333333337</ele><time>2026-03-22T09:05:27.393Z</time></trkpt><trkpt lat="43.9571567" lon="10.9952517"><ele>422.0</ele><time>2026-03-22T09:05:29.394Z</time></trkpt><trkpt lat="43.9572" lon="10.99514"><ele>419.6666666666667</ele><time>2026-03-22T09:05:31.394Z</time></trkpt><trkpt lat="43.957315" lon="10.9950183"><ele>417.33333333333337</ele><time>2026-03-22T09:05:52.393Z</time></trkpt><trkpt lat="43.9572483" lon="10.995055"><ele>415.0</ele><time>2026-03-22T09:09:27.393Z</time></trkpt><trkpt lat="43.9571467" lon="10.9952267"><ele>415.0</ele><time>2026-03-22T09:09:43.393Z</time></trkpt><trkpt lat="43.9570283" lon="10.9952667"><ele>415.0</ele><time>2026-03-22T09:09:45.393Z</time></trkpt><trkpt lat="43.9569217" lon="10.9952683"><ele>415.0</ele><time>2026-03-22T09:09:47.393Z</time></trkpt><trkpt lat="43.95684" lon="10.9952283"><ele>415.0</ele><time>2026-03-22T09:09:49.393Z</time></trkpt><trkpt lat="43.9567667" lon="10.995155"><ele>415.0</ele><time>2026-03-22T09:09:51.393Z</time></trkpt><trkpt lat="43.9567017" lon="10.9950333"><ele>415.1666666666667</ele><time>2026-03-22T09:09:53.393Z</time></trkpt><trkpt lat="43.9566617" lon="10.99486"><ele>415.33333333333337</ele><time>2026-03-22T09:09:55.394Z</time></trkpt><trkpt lat="43.95665" lon="10.9947467"><ele>415.5</ele><time>2026-03-22T09:09:56.394Z</time></trkpt><trkpt lat="43.95665" lon="10.9946433"><ele>415.66666666666663</ele><time>2026-03-22T09:09:57.393Z</time></trkpt><trkpt lat="43.9566633" lon="10.9945417"><ele>415.8333333333333</ele><time>2026-03-22T09:09:58.393Z</time></trkpt><trkpt lat="43.9566783" lon="10.9944433"><ele>416.0</ele><time>2026-03-22T09:09:59.394Z</time></trkpt><trkpt lat="43.956745" lon="10.9943367"><ele>415.99999999999994</ele><time>2026-03-22T09:10:01.393Z</time></trkpt><trkpt lat="43.9568033" lon="10.99427"><ele>416.0</ele><time>2026-03-22T09:10:03.393Z</time></trkpt><trkpt lat="43.9567667" lon="10.9941817"><ele>416.0</ele><time>2026-03-22T09:10:06.394Z</time></trkpt><trkpt lat="43.9566867" lon="10.9942017"><ele>416.0</ele><time>2026-03-22T09:10:08.394Z</time></trkpt><trkpt lat="43.9565683" lon="10.994225"><ele>415.99999999999994</ele><time>2026-03-22T09:10:10.393Z</time></trkpt><trkpt lat="43.9564817" lon="10.99424"><ele>416.0</ele><time>2026-03-22T09:10:11.394Z</time></trkpt><trkpt lat="43.9563867" lon="10.994265"><ele>415.99999999999994</ele><time>2026-03-22T09:10:12.393Z</time></trkpt><trkpt lat="43.9562967" lon="10.9942983"><ele>416.0</ele><time>2026-03-22T09:10:13.393Z</time></trkpt><trkpt lat="43.956215" lon="10.994345"><ele>416.0</ele><time>2026-03-22T09:10:14.394Z</time></trkpt><trkpt lat="43.9561317" lon="10.994385"><ele>416.0</ele><time>2026-03-22T09:10:15.393Z</time></trkpt><trkpt lat="43.9560567" lon="10.99442"><ele>415.99999999999994</ele><time>2026-03-22T09:10:16.394Z</time></trkpt><trkpt lat="43.9559867" lon="10.99445"><ele>416.0</ele><time>2026-03-22T09:10:17.393Z</time></trkpt><trkpt lat="43.9559167" lon="10.9944967"><ele>412.8333333333333</ele><time>2026-03-22T09:10:18.393Z</time></trkpt><trkpt lat="43.9558417" lon="10.99458"><ele>409.66666666666663</ele><time>2026-03-22T09:10:19.393Z</time></trkpt><trkpt lat="43.95578" lon="10.994645"><ele>406.5</ele><time>2026-03-22T09:10:20.394Z</time></trkpt><trkpt lat="43.955725" lon="10.994705"><ele>403.33333333333337</ele><time>2026-03-22T09:10:21.393Z</time></trkpt><trkpt lat="43.95565" lon="10.9947467"><ele>400.1666666666667</ele><time>2026-03-22T09:10:22.394Z</time></trkpt><trkpt lat="43.95559" lon="10.9947967"><ele>397.0</ele><time>2026-03-22T09:10:23.394Z</time></trkpt><trkpt lat="43.95553" lon="10.9948433"><ele>397.00000000000006</ele><time>2026-03-22T09:10:24.394Z</time></trkpt><trkpt lat="43.9554567" lon="10.9949017"><ele>397.0</ele><time>2026-03-22T09:10:25.393Z</time></trkpt><trkpt lat="43.95538" lon="10.9949733"><ele>397.0</ele><time>2026-03-22T09:10:26.394Z</time></trkpt><trkpt lat="43.9553167" lon="10.9950167"><ele>397.0</ele><time>2026-03-22T09:10:27.394Z</time></trkpt><trkpt lat="43.955245" lon="10.9950767"><ele>397.00000000000006</ele><time>2026-03-22T09:10:28.393Z</time></trkpt><trkpt lat="43.9551617" lon="10.99518"><ele>397.0</ele><time>2026-03-22T09:10:30.393Z</time></trkpt><trkpt lat="43.9551433" lon="10.9953083"><ele>395.20000000000005</ele><time>2026-03-22T09:10:32.393Z</time></trkpt><trkpt lat="43.9550767" lon="10.9953767"><ele>393.4</ele><time>2026-03-22T09:10:34.394Z</time></trkpt><trkpt lat="43.9549683" lon="10.995345"><ele>391.6</ele><time>2026-03-22T09:10:36.394Z</time></trkpt><trkpt lat="43.9548783" lon="10.9952283"><ele>389.79999999999995</ele><time>2026-03-22T09:10:38.393Z</time></trkpt><trkpt lat="43.9548467" lon="10.9950667"><ele>388.0</ele><time>2026-03-22T09:10:40.394Z</time></trkpt><trkpt lat="43.9548483" lon="10.9949767"><ele>387.33333333333337</ele><time>2026-03-22T09:10:41.393Z</time></trkpt><trkpt lat="43.95486" lon="10.994875"><ele>386.6666666666667</ele><time>2026-03-22T09:10:42.394Z</time></trkpt><trkpt lat="43.9548883" lon="10.9947567"><ele>386.0</ele><time>2026-03-22T09:10:43.393Z</time></trkpt><trkpt lat="43.9549217" lon="10.99465"><ele>385.33333333333337</ele><time>2026-03-22T09:10:44.393Z</time></trkpt><trkpt lat="43.95496" lon="10.9945467"><ele>384.6666666666667</ele><time>2026-03-22T09:10:45.394Z</time></trkpt><trkpt lat="43.9549917" lon="10.994445"><ele>384.0</ele><time>2026-03-22T09:10:46.394Z</time></trkpt><trkpt lat="43.95502" lon="10.9943533"><ele>385.3333333333333</ele><time>2026-03-22T09:10:47.393Z</time></trkpt><trkpt lat="43.9550383" lon="10.9942633"><ele>386.66666666666663</ele><time>2026-03-22T09:10:48.393Z</time></trkpt><trkpt lat="43.9550517" lon="10.9941767"><ele>388.0</ele><time>2026-03-22T09:10:49.393Z</time></trkpt><trkpt lat="43.95505" lon="10.9940767"><ele>389.3333333333333</ele><time>2026-03-22T09:10:50.393Z</time></trkpt><trkpt lat="43.95504" lon="10.993985"><ele>390.66666666666663</ele><time>2026-03-22T09:10:51.393Z</time></trkpt><trkpt lat="43.9550283" lon="10.993845"><ele>392.0</ele><time>2026-03-22T09:10:53.393Z</time></trkpt><trkpt lat="43.955005" lon="10.993725"><ele>390.40000000000003</ele><time>2026-03-22T09:10:55.394Z</time></trkpt><trkpt lat="43.9549167" lon="10.993805"><ele>388.8</ele><time>2026-03-22T09:10:58.394Z</time></trkpt><trkpt lat="43.954885" lon="10.9939083"><ele>387.2</ele><time>2026-03-22T09:10:59.394Z</time></trkpt><trkpt lat="43.9548" lon="10.9940883"><ele>385.6</ele><time>2026-03-22T09:11:01.394Z</time></trkpt><trkpt lat="43.9547383" lon="10.9941933"><ele>384.0</ele><time>2026-03-22T09:11:02.394Z</time></trkpt><trkpt lat="43.9546733" lon="10.9942733"><ele>384.0</ele><time>2026-03-22T09:11:03.393Z</time></trkpt><trkpt lat="43.9545983" lon="10.9943533"><ele>384.0</ele><time>2026-03-22T09:11:04.393Z</time></trkpt><trkpt lat="43.95451" lon="10.9944067"><ele>384.0</ele><time>2026-03-22T09:11:05.394Z</time></trkpt><trkpt lat="43.95441" lon="10.99446"><ele>384.0</ele><time>2026-03-22T09:11:06.394Z</time></trkpt><trkpt lat="43.954295" lon="10.9945"><ele>384.0</ele><time>2026-03-22T09:11:07.394Z</time></trkpt><trkpt lat="43.9541867" lon="10.9945133"><ele>381.0</ele><time>2026-03-22T09:11:08.393Z</time></trkpt><trkpt lat="43.9540783" lon="10.9945467"><ele>378.0</ele><time>2026-03-22T09:11:09.393Z</time></trkpt><trkpt lat="43.95398" lon="10.9945817"><ele>375.0</ele><time>2026-03-22T09:11:10.393Z</time></trkpt><trkpt lat="43.9538883" lon="10.9946167"><ele>372.0</ele><time>2026-03-22T09:11:11.393Z</time></trkpt><trkpt lat="43.9537967" lon="10.9946617"><ele>369.0</ele><time>2026-03-22T09:11:12.394Z</time></trkpt><trkpt lat="43.9537167" lon="10.9947117"><ele>369.0</ele><time>2026-03-22T09:11:13.394Z</time></trkpt><trkpt lat="43.9536333" lon="10.9947883"><ele>369.0</ele><time>2026-03-22T09:11:14.394Z</time></trkpt><trkpt lat="43.9535417" lon="10.9948883"><ele>369.0</ele><time>2026-03-22T09:11:15.393Z</time></trkpt><trkpt lat="43.9534517" lon="10.9949983"><ele>369.0</ele><time>2026-03-22T09:11:16.394Z</time></trkpt><trkpt lat="43.9533733" lon="10.9950917"><ele>369.0</ele><time>2026-03-22T09:11:17.393Z</time></trkpt><trkpt lat="43.9532867" lon="10.9951733"><ele>366.0</ele><time>2026-03-22T09:11:18.393Z</time></trkpt><trkpt lat="43.9532" lon="10.995245"><ele>363.0</ele><time>2026-03-22T09:11:19.393Z</time></trkpt><trkpt lat="43.9531017" lon="10.9952983"><ele>360.0</ele><time>2026-03-22T09:11:20.393Z</time></trkpt><trkpt lat="43.9530067" lon="10.995355"><ele>357.0</ele><time>2026-03-22T09:11:21.393Z</time></trkpt><trkpt lat="43.9529117" lon="10.9954133"><ele>354.0</ele><time>2026-03-22T09:11:22.394Z</time></trkpt><trkpt lat="43.9528317" lon="10.99546"><ele>354.0</ele><time>2026-03-22T09:11:23.394Z</time></trkpt><trkpt lat="43.9527483" lon="10.99552"><ele>354.0</ele><time>2026-03-22T09:11:24.394Z</time></trkpt><trkpt lat="43.9526783" lon="10.9955517"><ele>354.0</ele><time>2026-03-22T09:11:25.393Z</time></trkpt><trkpt lat="43.9525833" lon="10.9955933"><ele>354.0</ele><time>2026-03-22T09:11:27.393Z</time></trkpt><trkpt lat="43.9525017" lon="10.995685"><ele>354.0</ele><time>2026-03-22T09:11:30.394Z</time></trkpt><trkpt lat="43.952465" lon="10.9957833"><ele>349.6</ele><time>2026-03-22T09:11:32.394Z</time></trkpt><trkpt lat="43.9524183" lon="10.9958917"><ele>345.2</ele><time>2026-03-22T09:11:42.393Z</time></trkpt><trkpt lat="43.9523783" lon="10.995995"><ele>340.8</ele><time>2026-03-22T09:11:44.394Z</time></trkpt><trkpt lat="43.95232" lon="10.9961517"><ele>336.40000000000003</ele><time>2026-03-22T09:11:46.394Z</time></trkpt><trkpt lat="43.9522883" lon="10.9962867"><ele>332.0</ele><time>2026-03-22T09:11:48.394Z</time></trkpt><trkpt lat="43.9523017" lon="10.9963867"><ele>332.0</ele><time>2026-03-22T09:11:50.394Z</time></trkpt><trkpt lat="43.9523833" lon="10.996455"><ele>332.0</ele><time>2026-03-22T09:12:04.393Z</time></trkpt><trkpt lat="43.95251" lon="10.9964683"><ele>332.0</ele><time>2026-03-22T09:12:08.394Z</time></trkpt><trkpt lat="43.9526233" lon="10.9964517"><ele>332.0</ele><time>2026-03-22T09:12:10.393Z</time></trkpt><trkpt lat="43.952735" lon="10.996435"><ele>332.0</ele><time>2026-03-22T09:12:12.394Z</time></trkpt><trkpt lat="43.95285" lon="10.9964483"><ele>334.40000000000003</ele><time>2026-03-22T09:12:14.394Z</time></trkpt><trkpt lat="43.9529133" lon="10.99648"><ele>336.8</ele><time>2026-03-22T09:12:15.394Z</time></trkpt><trkpt lat="43.952985" lon="10.9965183"><ele>339.2</ele><time>2026-03-22T09:12:16.393Z</time></trkpt><trkpt lat="43.95305" lon="10.99656"><ele>341.6</ele><time>2026-03-22T09:12:17.393Z</time></trkpt><trkpt lat="43.95316" lon="10.9966133"><ele>344.0</ele><time>2026-03-22T09:12:19.394Z</time></trkpt><trkpt lat="43.9532833" lon="10.9966417"><ele>344.0</ele><time>2026-03-22T09:12:21.394Z</time></trkpt><trkpt lat="43.953355" lon="10.9966583"><ele>344.0</ele><time>2026-03-22T09:12:22.394Z</time></trkpt><trkpt lat="43.953445" lon="10.9966767"><ele>344.0</ele><time>2026-03-22T09:12:23.393Z</time></trkpt><trkpt lat="43.9535383" lon="10.9966917"><ele>344.0</ele><time>2026-03-22T09:12:24.393Z</time></trkpt><trkpt lat="43.9536183" lon="10.9967017"><ele>344.0</ele><time>2026-03-22T09:12:25.394Z</time></trkpt><trkpt lat="43.9537033" lon="10.996705"><ele>344.0</ele><time>2026-03-22T09:12:26.394Z</time></trkpt><trkpt lat="43.95378" lon="10.9967"><ele>345.5</ele><time>2026-03-22T09:12:27.393Z</time></trkpt><trkpt lat="43.953855" lon="10.9966833"><ele>347.0</ele><time>2026-03-22T09:12:28.393Z</time></trkpt><trkpt lat="43.9539317" lon="10.9966533"><ele>348.5</ele><time>2026-03-22T09:12:29.393Z</time></trkpt><trkpt lat="43.9540033" lon="10.9966233"><ele>350.0</ele><time>2026-03-22T09:12:30.393Z</time></trkpt><trkpt lat="43.9540667" lon="10.9966"><ele>351.5</ele><time>2026-03-22T09:12:31.393Z</time></trkpt><trkpt lat="43.9541833" lon="10.9965367"><ele>353.0</ele><time>2026-03-22T09:12:33.394Z</time></trkpt><trkpt lat="43.9542383" lon="10.9964883"><ele>353.1428571428571</ele><time>2026-03-22T09:12:34.394Z</time></trkpt><trkpt lat="43.9542967" lon="10.9964333"><ele>353.28571428571433</ele><time>2026-03-22T09:12:35.393Z</time></trkpt><trkpt lat="43.9543533" lon="10.9963783"><ele>353.42857142857144</ele><time>2026-03-22T09:12:36.394Z</time></trkpt><trkpt lat="43.954415" lon="10.9963233"><ele>353.57142857142856</ele><time>2026-03-22T09:12:37.394Z</time></trkpt><trkpt lat="43.9544783" lon="10.9962817"><ele>353.71428571428567</ele><time>2026-03-22T09:12:38.393Z</time></trkpt><trkpt lat="43.954545" lon="10.9962467"><ele>353.8571428571429</ele><time>2026-03-22T09:12:39.393Z</time></trkpt><trkpt lat="43.954605" lon="10.9962117"><ele>354.0</ele><time>2026-03-22T09:12:40.394Z</time></trkpt><trkpt lat="43.95467" lon="10.996185"><ele>354.0</ele><time>2026-03-22T09:12:41.394Z</time></trkpt><trkpt lat="43.954735" lon="10.996175"><ele>354.0</ele><time>2026-03-22T09:12:42.394Z</time></trkpt><trkpt lat="43.954805" lon="10.9961817"><ele>354.0</ele><time>2026-03-22T09:12:43.393Z</time></trkpt><trkpt lat="43.954905" lon="10.9961783"><ele>354.0</ele><time>2026-03-22T09:12:45.394Z</time></trkpt><trkpt lat="43.955015" lon="10.9961883"><ele>354.0</ele><time>2026-03-22T09:12:47.393Z</time></trkpt><trkpt lat="43.9550833" lon="10.9961967"><ele>354.0</ele><time>2026-03-22T09:12:49.393Z</time></trkpt><trkpt lat="43.955165" lon="10.9961667"><ele>355.79999999999995</ele><time>2026-03-22T09:12:51.393Z</time></trkpt><trkpt lat="43.9552233" lon="10.9960983"><ele>357.59999999999997</ele><time>2026-03-22T09:12:53.393Z</time></trkpt><trkpt lat="43.955295" lon="10.9960167"><ele>359.4</ele><time>2026-03-22T09:12:55.393Z</time></trkpt><trkpt lat="43.9553683" lon="10.9959567"><ele>361.2</ele><time>2026-03-22T09:12:57.393Z</time></trkpt><trkpt lat="43.9554767" lon="10.99594"><ele>363.0</ele><time>2026-03-22T09:12:59.394Z</time></trkpt><trkpt lat="43.9555833" lon="10.99591"><ele>363.0</ele><time>2026-03-22T09:13:01.393Z</time></trkpt><trkpt lat="43.9556483" lon="10.9958833"><ele>363.0</ele><time>2026-03-22T09:13:02.393Z</time></trkpt><trkpt lat="43.95571" lon="10.9958517"><ele>363.0</ele><time>2026-03-22T09:13:03.394Z</time></trkpt><trkpt lat="43.95583" lon="10.995815"><ele>363.0</ele><time>2026-03-22T09:13:05.393Z</time></trkpt><trkpt lat="43.9558967" lon="10.995815"><ele>363.0</ele><time>2026-03-22T09:13:06.393Z</time></trkpt><trkpt lat="43.95596" lon="10.995825"><ele>363.0</ele><time>2026-03-22T09:13:07.393Z</time></trkpt><trkpt lat="43.95607" lon="10.9958717"><ele>365.59999999999997</ele><time>2026-03-22T09:13:09.394Z</time></trkpt><trkpt lat="43.956185" lon="10.9959533"><ele>368.2</ele><time>2026-03-22T09:13:11.393Z</time></trkpt><trkpt lat="43.9562567" lon="10.9960017"><ele>370.8</ele><time>2026-03-22T09:13:12.394Z</time></trkpt><trkpt lat="43.9563217" lon="10.9960483"><ele>373.4</ele><time>2026-03-22T09:13:13.393Z</time></trkpt><trkpt lat="43.956425" lon="10.9961133"><ele>376.0</ele><time>2026-03-22T09:13:15.392Z</time></trkpt><trkpt lat="43.9565133" lon="10.996175"><ele>376.0</ele><time>2026-03-22T09:13:17.393Z</time></trkpt><trkpt lat="43.9566117" lon="10.9962533"><ele>376.0</ele><time>2026-03-22T09:13:19.393Z</time></trkpt><trkpt lat="43.9567083" lon="10.9962933"><ele>376.0</ele><time>2026-03-22T09:13:21.392Z</time></trkpt><trkpt lat="43.9568083" lon="10.9962833"><ele>376.0</ele><time>2026-03-22T09:13:23.392Z</time></trkpt><trkpt lat="43.9569217" lon="10.9962467"><ele>376.0</ele><time>2026-03-22T09:13:25.392Z</time></trkpt><trkpt lat="43.957025" lon="10.996195"><ele>376.8</ele><time>2026-03-22T09:13:27.392Z</time></trkpt><trkpt lat="43.9571533" lon="10.9961317"><ele>377.6</ele><time>2026-03-22T09:13:29.393Z</time></trkpt><trkpt lat="43.9572367" lon="10.9960933"><ele>378.4</ele><time>2026-03-22T09:13:30.392Z</time></trkpt><trkpt lat="43.9573083" lon="10.9960867"><ele>379.2</ele><time>2026-03-22T09:13:31.392Z</time></trkpt><trkpt lat="43.9573883" lon="10.9960667"><ele>380.0</ele><time>2026-03-22T09:13:32.392Z</time></trkpt><trkpt lat="43.9574733" lon="10.996055"><ele>382.8</ele><time>2026-03-22T09:13:33.392Z</time></trkpt><trkpt lat="43.9575433" lon="10.996045"><ele>385.6</ele><time>2026-03-22T09:13:34.393Z</time></trkpt><trkpt lat="43.9576533" lon="10.9960433"><ele>388.4</ele><time>2026-03-22T09:13:36.393Z</time></trkpt><trkpt lat="43.95775" lon="10.99604"><ele>391.2</ele><time>2026-03-22T09:13:38.392Z</time></trkpt><trkpt lat="43.957855" lon="10.9960417"><ele>394.0</ele><time>2026-03-22T09:13:40.392Z</time></trkpt><trkpt lat="43.9579667" lon="10.9960717"><ele>394.0</ele><time>2026-03-22T09:13:42.392Z</time></trkpt><trkpt lat="43.958095" lon="10.99608"><ele>394.0</ele><time>2026-03-22T09:13:44.393Z</time></trkpt><trkpt lat="43.9582117" lon="10.9961267"><ele>394.0</ele><time>2026-03-22T09:13:46.392Z</time></trkpt><trkpt lat="43.9583033" lon="10.9962033"><ele>394.0</ele><time>2026-03-22T09:13:48.392Z</time></trkpt><trkpt lat="43.9584" lon="10.9962583"><ele>399.4</ele><time>2026-03-22T09:13:50.392Z</time></trkpt><trkpt lat="43.9585133" lon="10.9963217"><ele>404.79999999999995</ele><time>2026-03-22T09:13:52.394Z</time></trkpt><trkpt lat="43.9586367" lon="10.9963833"><ele>410.20000000000005</ele><time>2026-03-22T09:13:54.393Z</time></trkpt><trkpt lat="43.958705" lon="10.9964067"><ele>415.6</ele><time>2026-03-22T09:13:55.392Z</time></trkpt><trkpt lat="43.9587683" lon="10.9964267"><ele>421.0</ele><time>2026-03-22T09:13:56.392Z</time></trkpt><trkpt lat="43.9588317" lon="10.99644"><ele>421.00000000000006</ele><time>2026-03-22T09:13:57.392Z</time></trkpt><trkpt lat="43.9589017" lon="10.9964483"><ele>421.0</ele><time>2026-03-22T09:13:58.393Z</time></trkpt><trkpt lat="43.9589683" lon="10.99647"><ele>421.0</ele><time>2026-03-22T09:13:59.392Z</time></trkpt><trkpt lat="43.9590467" lon="10.9965083"><ele>421.0</ele><time>2026-03-22T09:14:00.393Z</time></trkpt><trkpt lat="43.95913" lon="10.9965383"><ele>421.00000000000006</ele><time>2026-03-22T09:14:01.394Z</time></trkpt><trkpt lat="43.9592067" lon="10.9965583"><ele>421.0</ele><time>2026-03-22T09:14:02.393Z</time></trkpt><trkpt lat="43.9592883" lon="10.9965717"><ele>424.00000000000006</ele><time>2026-03-22T09:14:03.393Z</time></trkpt><trkpt lat="43.9593667" lon="10.9965833"><ele>427.0</ele><time>2026-03-22T09:14:04.393Z</time></trkpt><trkpt lat="43.959445" lon="10.996595"><ele>430.0</ele><time>2026-03-22T09:14:05.393Z</time></trkpt><trkpt lat="43.9595283" lon="10.9965883"><ele>433.0</ele><time>2026-03-22T09:14:06.393Z</time></trkpt><trkpt lat="43.9596133" lon="10.9965817"><ele>436.00000000000006</ele><time>2026-03-22T09:14:07.394Z</time></trkpt><trkpt lat="43.9596917" lon="10.9965983"><ele>439.0</ele><time>2026-03-22T09:14:08.393Z</time></trkpt><trkpt lat="43.9597733" lon="10.9966183"><ele>439.0</ele><time>2026-03-22T09:14:09.394Z</time></trkpt><trkpt lat="43.9598433" lon="10.996635"><ele>439.0</ele><time>2026-03-22T09:14:10.393Z</time></trkpt><trkpt lat="43.9599117" lon="10.9966617"><ele>439.0</ele><time>2026-03-22T09:14:11.393Z</time></trkpt><trkpt lat="43.959975" lon="10.9966883"><ele>439.0</ele><time>2026-03-22T09:14:12.394Z</time></trkpt><trkpt lat="43.96004" lon="10.9967183"><ele>439.0</ele><time>2026-03-22T09:14:13.394Z</time></trkpt><trkpt lat="43.9601133" lon="10.9967483"><ele>439.0</ele><time>2026-03-22T09:14:14.393Z</time></trkpt><trkpt lat="43.9601783" lon="10.99679"><ele>439.0</ele><time>2026-03-22T09:14:15.394Z</time></trkpt><trkpt lat="43.9602333" lon="10.9968483"><ele>435.4</ele><time>2026-03-22T09:14:16.394Z</time></trkpt><trkpt lat="43.9603" lon="10.9969417"><ele>431.79999999999995</ele><time>2026-03-22T09:14:18.394Z</time></trkpt><trkpt lat="43.960365" lon="10.997"><ele>428.20000000000005</ele><time>2026-03-22T09:14:20.393Z</time></trkpt><trkpt lat="43.96045" lon="10.9970317"><ele>424.6</ele><time>2026-03-22T09:14:22.393Z</time></trkpt><trkpt lat="43.960555" lon="10.9970933"><ele>421.0</ele><time>2026-03-22T09:14:24.394Z</time></trkpt><trkpt lat="43.9606467" lon="10.99719"><ele>421.0</ele><time>2026-03-22T09:14:26.394Z</time></trkpt><trkpt lat="43.9607233" lon="10.9973033"><ele>421.0</ele><time>2026-03-22T09:14:28.393Z</time></trkpt><trkpt lat="43.9608033" lon="10.9973983"><ele>421.0</ele><time>2026-03-22T09:14:30.393Z</time></trkpt><trkpt lat="43.9609233" lon="10.9974617"><ele>421.0</ele><time>2026-03-22T09:14:32.394Z</time></trkpt><trkpt lat="43.960995" lon="10.997495"><ele>421.0</ele><time>2026-03-22T09:14:33.394Z</time></trkpt><trkpt lat="43.9610683" lon="10.9975017"><ele>423.00000000000006</ele><time>2026-03-22T09:14:34.393Z</time></trkpt><trkpt lat="43.9611483" lon="10.9975"><ele>425.0</ele><time>2026-03-22T09:14:35.394Z</time></trkpt><trkpt lat="43.9612317" lon="10.9974967"><ele>427.0</ele><time>2026-03-22T09:14:36.395Z</time></trkpt><trkpt lat="43.9613117" lon="10.9974933"><ele>429.0</ele><time>2026-03-22T09:14:37.394Z</time></trkpt><trkpt lat="43.9613867" lon="10.9974967"><ele>431.00000000000006</ele><time>2026-03-22T09:14:38.393Z</time></trkpt><trkpt lat="43.9614533" lon="10.997495"><ele>433.0</ele><time>2026-03-22T09:14:39.394Z</time></trkpt><trkpt lat="43.9615367" lon="10.9975183"><ele>433.00000000000006</ele><time>2026-03-22T09:14:41.393Z</time></trkpt><trkpt lat="43.961575" lon="10.9973833"><ele>433.0</ele><time>2026-03-22T09:15:46.393Z</time></trkpt><trkpt lat="43.961505" lon="10.9973383"><ele>433.0</ele><time>2026-03-22T09:15:48.393Z</time></trkpt><trkpt lat="43.9614333" lon="10.9973167"><ele>433.0</ele><time>2026-03-22T09:15:50.393Z</time></trkpt><trkpt lat="43.9613667" lon="10.99732"><ele>433.00000000000006</ele><time>2026-03-22T09:15:52.393Z</time></trkpt><trkpt lat="43.961275" lon="10.9973317"><ele>433.0</ele><time>2026-03-22T09:15:54.393Z</time></trkpt><trkpt lat="43.9612067" lon="10.997325"><ele>433.00000000000006</ele><time>2026-03-22T09:15:55.394Z</time></trkpt><trkpt lat="43.9611333" lon="10.9973083"><ele>433.0</ele><time>2026-03-22T09:15:56.394Z</time></trkpt><trkpt lat="43.9610633" lon="10.997285"><ele>433.0</ele><time>2026-03-22T09:15:57.393Z</time></trkpt><trkpt lat="43.9609917" lon="10.99726"><ele>433.0</ele><time>2026-03-22T09:15:58.394Z</time></trkpt><trkpt lat="43.9609167" lon="10.9972267"><ele>433.00000000000006</ele><time>2026-03-22T09:15:59.393Z</time></trkpt><trkpt lat="43.9608433" lon="10.997185"><ele>433.0</ele><time>2026-03-22T09:16:00.394Z</time></trkpt><trkpt lat="43.960775" lon="10.997135"><ele>431.00000000000006</ele><time>2026-03-22T09:16:01.393Z</time></trkpt><trkpt lat="43.96071" lon="10.9970617"><ele>429.0</ele><time>2026-03-22T09:16:02.394Z</time></trkpt><trkpt lat="43.9606467" lon="10.99699"><ele>427.0</ele><time>2026-03-22T09:16:03.394Z</time></trkpt><trkpt lat="43.9605733" lon="10.9969267"><ele>425.0</ele><time>2026-03-22T09:16:04.394Z</time></trkpt><trkpt lat="43.9605083" lon="10.9968533"><ele>423.00000000000006</ele><time>2026-03-22T09:16:05.394Z</time></trkpt><trkpt lat="43.9604417" lon="10.9967967"><ele>421.0</ele><time>2026-03-22T09:16:06.393Z</time></trkpt><trkpt lat="43.960375" lon="10.9967433"><ele>421.00000000000006</ele><time>2026-03-22T09:16:07.394Z</time></trkpt><trkpt lat="43.9603117" lon="10.9966883"><ele>421.0</ele><time>2026-03-22T09:16:08.393Z</time></trkpt><trkpt lat="43.96025" lon="10.9966417"><ele>421.0</ele><time>2026-03-22T09:16:09.394Z</time></trkpt><trkpt lat="43.9601867" lon="10.9965983"><ele>421.0</ele><time>2026-03-22T09:16:10.394Z</time></trkpt><trkpt lat="43.9601233" lon="10.9965517"><ele>421.00000000000006</ele><time>2026-03-22T09:16:11.394Z</time></trkpt><trkpt lat="43.9600567" lon="10.996515"><ele>421.0</ele><time>2026-03-22T09:16:12.393Z</time></trkpt><trkpt lat="43.959925" lon="10.9964533"><ele>423.5714285714286</ele><time>2026-03-22T09:16:14.393Z</time></trkpt><trkpt lat="43.9598567" lon="10.9964067"><ele>426.14285714285717</ele><time>2026-03-22T09:16:15.393Z</time></trkpt><trkpt lat="43.9597833" lon="10.99637"><ele>428.7142857142857</ele><time>2026-03-22T09:16:16.393Z</time></trkpt><trkpt lat="43.95972" lon="10.9963283"><ele>431.28571428571433</ele><time>2026-03-22T09:16:17.394Z</time></trkpt><trkpt lat="43.9596567" lon="10.9962917"><ele>433.85714285714283</ele><time>2026-03-22T09:16:18.394Z</time></trkpt><trkpt lat="43.9595867" lon="10.99625"><ele>436.42857142857144</ele><time>2026-03-22T09:16:19.394Z</time></trkpt><trkpt lat="43.95952" lon="10.9962117"><ele>439.0</ele><time>2026-03-22T09:16:20.394Z</time></trkpt><trkpt lat="43.9594517" lon="10.9961717"><ele>439.0</ele><time>2026-03-22T09:16:21.394Z</time></trkpt><trkpt lat="43.9593867" lon="10.9961333"><ele>439.0</ele><time>2026-03-22T09:16:22.394Z</time></trkpt><trkpt lat="43.9593067" lon="10.9960217"><ele>439.0</ele><time>2026-03-22T09:16:24.394Z</time></trkpt><trkpt lat="43.9592333" lon="10.9959283"><ele>439.0</ele><time>2026-03-22T09:16:26.393Z</time></trkpt><trkpt lat="43.9590933" lon="10.995935"><ele>439.0</ele><time>2026-03-22T09:16:28.393Z</time></trkpt><trkpt lat="43.9590167" lon="10.9959883"><ele>441.79999999999995</ele><time>2026-03-22T09:16:29.393Z</time></trkpt><trkpt lat="43.9589217" lon="10.9959983"><ele>444.59999999999997</ele><time>2026-03-22T09:16:31.394Z</time></trkpt><trkpt lat="43.9588317" lon="10.9959583"><ele>447.4</ele><time>2026-03-22T09:16:33.394Z</time></trkpt><trkpt lat="43.9587283" lon="10.9958617"><ele>450.2</ele><time>2026-03-22T09:16:35.394Z</time></trkpt><trkpt lat="43.9586267" lon="10.9957717"><ele>453.0</ele><time>2026-03-22T09:16:37.393Z</time></trkpt><trkpt lat="43.9585433" lon="10.99566"><ele>453.0</ele><time>2026-03-22T09:16:39.393Z</time></trkpt><trkpt lat="43.9584917" lon="10.9955983"><ele>453.0</ele><time>2026-03-22T09:16:40.393Z</time></trkpt><trkpt lat="43.9584367" lon="10.9955383"><ele>453.0</ele><time>2026-03-22T09:16:41.393Z</time></trkpt><trkpt lat="43.9583867" lon="10.9954767"><ele>453.0</ele><time>2026-03-22T09:16:42.394Z</time></trkpt><trkpt lat="43.9583467" lon="10.9954083"><ele>453.0</ele><time>2026-03-22T09:16:43.394Z</time></trkpt><trkpt lat="43.958275" lon="10.995285"><ele>453.0</ele><time>2026-03-22T09:16:45.394Z</time></trkpt><trkpt lat="43.9581883" lon="10.9951733"><ele>452.2</ele><time>2026-03-22T09:16:47.394Z</time></trkpt><trkpt lat="43.9581417" lon="10.99505"><ele>451.4</ele><time>2026-03-22T09:16:49.394Z</time></trkpt><trkpt lat="43.9581167" lon="10.9949483"><ele>450.59999999999997</ele><time>2026-03-22T09:16:51.394Z</time></trkpt><trkpt lat="43.9581417" lon="10.994825"><ele>449.79999999999995</ele><time>2026-03-22T09:16:53.394Z</time></trkpt><trkpt lat="43.9582083" lon="10.9946867"><ele>449.0</ele><time>2026-03-22T09:16:55.393Z</time></trkpt><trkpt lat="43.958255" lon="10.9945817"><ele>449.0</ele><time>2026-03-22T09:16:57.393Z</time></trkpt><trkpt lat="43.9583583" lon="10.994495"><ele>449.0</ele><time>2026-03-22T09:17:09.393Z</time></trkpt><trkpt lat="43.958425" lon="10.9944317"><ele>449.0</ele><time>2026-03-22T09:17:11.394Z</time></trkpt><trkpt lat="43.9585133" lon="10.9943467"><ele>449.0</ele><time>2026-03-22T09:17:13.394Z</time></trkpt><trkpt lat="43.95861" lon="10.9942433"><ele>449.0</ele><time>2026-03-22T09:17:15.393Z</time></trkpt><trkpt lat="43.9586683" lon="10.994155"><ele>449.8333333333333</ele><time>2026-03-22T09:17:16.394Z</time></trkpt><trkpt lat="43.9587283" lon="10.9940767"><ele>450.66666666666663</ele><time>2026-03-22T09:17:17.394Z</time></trkpt><trkpt lat="43.9587967" lon="10.9939967"><ele>451.5</ele><time>2026-03-22T09:17:18.393Z</time></trkpt><trkpt lat="43.9588733" lon="10.9939283"><ele>452.33333333333337</ele><time>2026-03-22T09:17:19.393Z</time></trkpt><trkpt lat="43.958945" lon="10.9938633"><ele>453.1666666666667</ele><time>2026-03-22T09:17:20.394Z</time></trkpt><trkpt lat="43.9590017" lon="10.9937867"><ele>454.0</ele><time>2026-03-22T09:17:21.393Z</time></trkpt><trkpt lat="43.959075" lon="10.9937267"><ele>454.0</ele><time>2026-03-22T09:17:22.394Z</time></trkpt><trkpt lat="43.9591483" lon="10.9936733"><ele>454.0</ele><time>2026-03-22T09:17:23.394Z</time></trkpt><trkpt lat="43.9592317" lon="10.993605"><ele>454.0</ele><time>2026-03-22T09:17:24.394Z</time></trkpt><trkpt lat="43.9593217" lon="10.9935433"><ele>454.0</ele><time>2026-03-22T09:17:25.394Z</time></trkpt><trkpt lat="43.9594017" lon="10.993495"><ele>454.0</ele><time>2026-03-22T09:17:26.393Z</time></trkpt><trkpt lat="43.95949" lon="10.9934633"><ele>455.8571428571429</ele><time>2026-03-22T09:17:27.393Z</time></trkpt><trkpt lat="43.95958" lon="10.993445"><ele>457.7142857142858</ele><time>2026-03-22T09:17:28.393Z</time></trkpt><trkpt lat="43.9596667" lon="10.9934567"><ele>459.57142857142856</ele><time>2026-03-22T09:17:29.394Z</time></trkpt><trkpt lat="43.9597367" lon="10.9934617"><ele>461.42857142857144</ele><time>2026-03-22T09:17:30.394Z</time></trkpt><trkpt lat="43.9598083" lon="10.993465"><ele>463.2857142857143</ele><time>2026-03-22T09:17:31.393Z</time></trkpt><trkpt lat="43.9598733" lon="10.9934567"><ele>465.1428571428571</ele><time>2026-03-22T09:17:32.393Z</time></trkpt><trkpt lat="43.959935" lon="10.9934317"><ele>466.99999999999994</ele><time>2026-03-22T09:17:33.394Z</time></trkpt><trkpt lat="43.9599967" lon="10.9933783"><ele>465.42857142857133</ele><time>2026-03-22T09:17:34.394Z</time></trkpt><trkpt lat="43.9600617" lon="10.9933317"><ele>463.85714285714283</ele><time>2026-03-22T09:17:35.394Z</time></trkpt><trkpt lat="43.9601217" lon="10.99328"><ele>462.2857142857142</ele><time>2026-03-22T09:17:36.393Z</time></trkpt><trkpt lat="43.9601783" lon="10.9932317"><ele>460.71428571428567</ele><time>2026-03-22T09:17:37.393Z</time></trkpt><trkpt lat="43.9602383" lon="10.9931883"><ele>459.1428571428571</ele><time>2026-03-22T09:17:38.393Z</time></trkpt><trkpt lat="43.96031" lon="10.9931683"><ele>457.57142857142856</ele><time>2026-03-22T09:17:39.393Z</time></trkpt><trkpt lat="43.9603717" lon="10.993125"><ele>456.0</ele><time>2026-03-22T09:17:40.393Z</time></trkpt><trkpt lat="43.9604617" lon="10.9930767"><ele>456.0</ele><time>2026-03-22T09:17:42.394Z</time></trkpt><trkpt lat="43.9605" lon="10.9929933"><ele>456.0</ele><time>2026-03-22T09:18:09.393Z</time></trkpt><trkpt lat="43.960535" lon="10.9928733"><ele>456.0</ele><time>2026-03-22T09:18:10.394Z</time></trkpt><trkpt lat="43.9606317" lon="10.9927867"><ele>456.0</ele><time>2026-03-22T09:18:15.393Z</time></trkpt><trkpt lat="43.9607233" lon="10.9926617"><ele>456.0</ele><time>2026-03-22T09:18:17.393Z</time></trkpt><trkpt lat="43.9607683" lon="10.9925983"><ele>454.0</ele><time>2026-03-22T09:18:18.393Z</time></trkpt><trkpt lat="43.9608483" lon="10.9924783"><ele>452.0</ele><time>2026-03-22T09:18:20.394Z</time></trkpt><trkpt lat="43.9609233" lon="10.9923633"><ele>450.0</ele><time>2026-03-22T09:18:22.393Z</time></trkpt><trkpt lat="43.961" lon="10.9922433"><ele>448.0</ele><time>2026-03-22T09:18:24.394Z</time></trkpt><trkpt lat="43.9611017" lon="10.99214"><ele>448.00000000000006</ele><time>2026-03-22T09:18:26.393Z</time></trkpt><trkpt lat="43.9611633" lon="10.9920933"><ele>448.0</ele><time>2026-03-22T09:18:27.394Z</time></trkpt><trkpt lat="43.961235" lon="10.992065"><ele>448.0</ele><time>2026-03-22T09:18:28.393Z</time></trkpt><trkpt lat="43.96132" lon="10.9920217"><ele>448.0</ele><time>2026-03-22T09:18:30.394Z</time></trkpt><trkpt lat="43.96139" lon="10.99191"><ele>448.00000000000006</ele><time>2026-03-22T09:18:32.394Z</time></trkpt><trkpt lat="43.961435" lon="10.9917867"><ele>448.0</ele><time>2026-03-22T09:18:34.393Z</time></trkpt><trkpt lat="43.9614217" lon="10.9916283"><ele>447.50000000000006</ele><time>2026-03-22T09:18:36.393Z</time></trkpt><trkpt lat="43.9613833" lon="10.991515"><ele>447.0</ele><time>2026-03-22T09:18:38.393Z</time></trkpt><trkpt lat="43.96125" lon="10.991445"><ele>446.5</ele><time>2026-03-22T09:18:40.393Z</time></trkpt><trkpt lat="43.96118" lon="10.991415"><ele>446.0</ele><time>2026-03-22T09:18:41.393Z</time></trkpt><trkpt lat="43.9611183" lon="10.99137"><ele>445.50000000000006</ele><time>2026-03-22T09:18:42.394Z</time></trkpt><trkpt lat="43.9610667" lon="10.9913067"><ele>445.0</ele><time>2026-03-22T09:18:43.394Z</time></trkpt><trkpt lat="43.961" lon="10.9912517"><ele>445.00000000000006</ele><time>2026-03-22T09:18:44.393Z</time></trkpt><trkpt lat="43.9609367" lon="10.991165"><ele>445.0</ele><time>2026-03-22T09:18:45.393Z</time></trkpt><trkpt lat="43.96088" lon="10.99107"><ele>445.0</ele><time>2026-03-22T09:18:46.393Z</time></trkpt><trkpt lat="43.960835" lon="10.9909667"><ele>445.0</ele><time>2026-03-22T09:18:47.393Z</time></trkpt><trkpt lat="43.9608017" lon="10.990865"><ele>445.00000000000006</ele><time>2026-03-22T09:18:48.393Z</time></trkpt><trkpt lat="43.9607833" lon="10.9907633"><ele>445.0</ele><time>2026-03-22T09:18:49.393Z</time></trkpt><trkpt lat="43.9607383" lon="10.9906567"><ele>443.00000000000006</ele><time>2026-03-22T09:18:50.393Z</time></trkpt><trkpt lat="43.96068" lon="10.99057"><ele>441.0</ele><time>2026-03-22T09:18:51.394Z</time></trkpt><trkpt lat="43.9606217" lon="10.990485"><ele>439.0</ele><time>2026-03-22T09:18:52.394Z</time></trkpt><trkpt lat="43.9605583" lon="10.99041"><ele>437.0</ele><time>2026-03-22T09:18:53.393Z</time></trkpt><trkpt lat="43.9605017" lon="10.9903283"><ele>435.00000000000006</ele><time>2026-03-22T09:18:54.393Z</time></trkpt><trkpt lat="43.9604417" lon="10.9902533"><ele>433.0</ele><time>2026-03-22T09:18:55.394Z</time></trkpt><trkpt lat="43.9603817" lon="10.99018"><ele>433.00000000000006</ele><time>2026-03-22T09:18:56.393Z</time></trkpt><trkpt lat="43.9603283" lon="10.9900967"><ele>433.0</ele><time>2026-03-22T09:18:57.393Z</time></trkpt><trkpt lat="43.9603" lon="10.9900083"><ele>433.0</ele><time>2026-03-22T09:18:58.393Z</time></trkpt><trkpt lat="43.9602533" lon="10.98991"><ele>433.0</ele><time>2026-03-22T09:18:59.393Z</time></trkpt><trkpt lat="43.9602167" lon="10.9898167"><ele>433.00000000000006</ele><time>2026-03-22T09:19:00.393Z</time></trkpt><trkpt lat="43.96019" lon="10.9897167"><ele>433.0</ele><time>2026-03-22T09:19:01.394Z</time></trkpt><trkpt lat="43.9601617" lon="10.9896317"><ele>436.59999999999997</ele><time>2026-03-22T09:19:02.394Z</time></trkpt><trkpt lat="43.960125" lon="10.98949"><ele>440.19999999999993</ele><time>2026-03-22T09:19:04.393Z</time></trkpt><trkpt lat="43.9600917" lon="10.98937"><ele>443.8</ele><time>2026-03-22T09:19:06.393Z</time></trkpt><trkpt lat="43.9600633" lon="10.98924"><ele>447.4</ele><time>2026-03-22T09:19:08.393Z</time></trkpt><trkpt lat="43.96007" lon="10.9890983"><ele>451.0</ele><time>2026-03-22T09:19:10.394Z</time></trkpt><trkpt lat="43.9601217" lon="10.9889483"><ele>453.1666666666667</ele><time>2026-03-22T09:19:12.394Z</time></trkpt><trkpt lat="43.9601567" lon="10.988865"><ele>455.33333333333337</ele><time>2026-03-22T09:19:13.394Z</time></trkpt><trkpt lat="43.960205" lon="10.9887783"><ele>457.5</ele><time>2026-03-22T09:19:14.394Z</time></trkpt><trkpt lat="43.9602483" lon="10.9887"><ele>459.66666666666663</ele><time>2026-03-22T09:19:15.393Z</time></trkpt><trkpt lat="43.9602933" lon="10.9886167"><ele>461.8333333333333</ele><time>2026-03-22T09:19:16.393Z</time></trkpt><trkpt lat="43.9603383" lon="10.9885283"><ele>464.0</ele><time>2026-03-22T09:19:17.394Z</time></trkpt><trkpt lat="43.9603933" lon="10.9884383"><ele>463.99999999999994</ele><time>2026-03-22T09:19:18.393Z</time></trkpt><trkpt lat="43.960445" lon="10.9883533"><ele>464.0</ele><time>2026-03-22T09:19:19.393Z</time></trkpt><trkpt lat="43.9604883" lon="10.9882717"><ele>464.0</ele><time>2026-03-22T09:19:20.393Z</time></trkpt><trkpt lat="43.9605583" lon="10.9881433"><ele>464.0</ele><time>2026-03-22T09:19:22.394Z</time></trkpt><trkpt lat="43.9606083" lon="10.9880417"><ele>463.99999999999994</ele><time>2026-03-22T09:19:24.394Z</time></trkpt><trkpt lat="43.96064" lon="10.987945"><ele>464.0</ele><time>2026-03-22T09:19:26.393Z</time></trkpt><trkpt lat="43.9606683" lon="10.9878567"><ele>464.49999999999994</ele><time>2026-03-22T09:19:28.394Z</time></trkpt><trkpt lat="43.960705" lon="10.9877667"><ele>465.0</ele><time>2026-03-22T09:19:30.394Z</time></trkpt><trkpt lat="43.9607467" lon="10.9876633"><ele>465.5</ele><time>2026-03-22T09:19:32.393Z</time></trkpt><trkpt lat="43.960815" lon="10.9875233"><ele>466.0</ele><time>2026-03-22T09:19:34.393Z</time></trkpt><trkpt lat="43.960855" lon="10.9874533"><ele>466.49999999999994</ele><time>2026-03-22T09:19:35.394Z</time></trkpt><trkpt lat="43.9608983" lon="10.9873783"><ele>467.0</ele><time>2026-03-22T09:19:36.394Z</time></trkpt><trkpt lat="43.96094" lon="10.987295"><ele>466.99999999999994</ele><time>2026-03-22T09:19:37.393Z</time></trkpt><trkpt lat="43.9609833" lon="10.9872117"><ele>467.0</ele><time>2026-03-22T09:19:38.394Z</time></trkpt><trkpt lat="43.9610183" lon="10.987135"><ele>467.0</ele><time>2026-03-22T09:19:39.394Z</time></trkpt><trkpt lat="43.9610467" lon="10.9870483"><ele>467.0</ele><time>2026-03-22T09:19:40.393Z</time></trkpt><trkpt lat="43.9610783" lon="10.986935"><ele>466.99999999999994</ele><time>2026-03-22T09:19:42.394Z</time></trkpt><trkpt lat="43.9611317" lon="10.9868383"><ele>467.0</ele><time>2026-03-22T09:19:46.393Z</time></trkpt><trkpt lat="43.9611633" lon="10.9867533"><ele>463.0</ele><time>2026-03-22T09:19:50.393Z</time></trkpt><trkpt lat="43.961215" lon="10.98667"><ele>459.00000000000006</ele><time>2026-03-22T09:19:54.393Z</time></trkpt><trkpt lat="43.9612983" lon="10.9866217"><ele>455.00000000000006</ele><time>2026-03-22T09:19:56.393Z</time></trkpt><trkpt lat="43.9613983" lon="10.9865733"><ele>451.0</ele><time>2026-03-22T09:19:58.393Z</time></trkpt><trkpt lat="43.9614867" lon="10.9865133"><ele>447.0</ele><time>2026-03-22T09:20:00.393Z</time></trkpt><trkpt lat="43.9615633" lon="10.9864183"><ele>447.0</ele><time>2026-03-22T09:20:02.393Z</time></trkpt><trkpt lat="43.96163" lon="10.9863017"><ele>447.00000000000006</ele><time>2026-03-22T09:20:04.393Z</time></trkpt><trkpt lat="43.9616783" lon="10.9861483"><ele>447.00000000000006</ele><time>2026-03-22T09:20:06.393Z</time></trkpt><trkpt lat="43.96167" lon="10.9860417"><ele>447.0</ele><time>2026-03-22T09:20:07.394Z</time></trkpt><trkpt lat="43.961645" lon="10.98592"><ele>447.0</ele><time>2026-03-22T09:20:09.394Z</time></trkpt><trkpt lat="43.9615233" lon="10.98582"><ele>447.0</ele><time>2026-03-22T09:20:32.393Z</time></trkpt><trkpt lat="43.9614417" lon="10.9858"><ele>447.0</ele><time>2026-03-22T09:22:27.394Z</time></trkpt><trkpt lat="43.9613683" lon="10.98576"><ele>447.0</ele><time>2026-03-22T09:22:30.393Z</time></trkpt><trkpt lat="43.9614517" lon="10.9857733"><ele>447.0</ele><time>2026-03-22T09:22:45.394Z</time></trkpt><trkpt lat="43.96151" lon="10.9858083"><ele>447.0</ele><time>2026-03-22T09:22:47.393Z</time></trkpt><trkpt lat="43.9615833" lon="10.9858433"><ele>447.0</ele><time>2026-03-22T09:22:49.394Z</time></trkpt><trkpt lat="43.9616433" lon="10.9858933"><ele>447.0</ele><time>2026-03-22T09:22:51.394Z</time></trkpt><trkpt lat="43.9616667" lon="10.9859983"><ele>447.00000000000006</ele><time>2026-03-22T09:22:53.393Z</time></trkpt><trkpt lat="43.9616267" lon="10.9861433"><ele>447.00000000000006</ele><time>2026-03-22T09:22:55.393Z</time></trkpt><trkpt lat="43.9615533" lon="10.98626"><ele>447.0</ele><time>2026-03-22T09:22:57.393Z</time></trkpt><trkpt lat="43.961455" lon="10.9863517"><ele>447.0</ele><time>2026-03-22T09:22:59.394Z</time></trkpt><trkpt lat="43.9614017" lon="10.9864017"><ele>447.0</ele><time>2026-03-22T09:23:00.394Z</time></trkpt><trkpt lat="43.9613183" lon="10.9864833"><ele>447.00000000000006</ele><time>2026-03-22T09:23:02.393Z</time></trkpt><trkpt lat="43.96125" lon="10.9865783"><ele>447.00000000000006</ele><time>2026-03-22T09:23:04.393Z</time></trkpt><trkpt lat="43.9612183" lon="10.986665"><ele>447.0</ele><time>2026-03-22T09:23:05.393Z</time></trkpt><trkpt lat="43.96117" lon="10.9868083"><ele>447.0</ele><time>2026-03-22T09:23:07.393Z</time></trkpt><trkpt lat="43.9611333" lon="10.9869617"><ele>451.0</ele><time>2026-03-22T09:23:09.393Z</time></trkpt><trkpt lat="43.96109" lon="10.9871033"><ele>455.00000000000006</ele><time>2026-03-22T09:23:11.393Z</time></trkpt><trkpt lat="43.9610417" lon="10.9872467"><ele>459.00000000000006</ele><time>2026-03-22T09:23:13.394Z</time></trkpt><trkpt lat="43.961005" lon="10.9873233"><ele>463.0</ele><time>2026-03-22T09:23:14.393Z</time></trkpt><trkpt lat="43.9609517" lon="10.987415"><ele>467.0</ele><time>2026-03-22T09:23:15.394Z</time></trkpt><trkpt lat="43.9608967" lon="10.9874933"><ele>465.66666666666663</ele><time>2026-03-22T09:23:16.394Z</time></trkpt><trkpt lat="43.9608533" lon="10.9875733"><ele>464.3333333333333</ele><time>2026-03-22T09:23:17.393Z</time></trkpt><trkpt lat="43.9608133" lon="10.98765"><ele>463.0</ele><time>2026-03-22T09:23:18.394Z</time></trkpt><trkpt lat="43.9607583" lon="10.9877267"><ele>461.66666666666663</ele><time>2026-03-22T09:23:19.393Z</time></trkpt><trkpt lat="43.9607167" lon="10.9877933"><ele>460.3333333333333</ele><time>2026-03-22T09:23:20.394Z</time></trkpt><trkpt lat="43.96065" lon="10.987895"><ele>459.0</ele><time>2026-03-22T09:23:22.394Z</time></trkpt><trkpt lat="43.96072" lon="10.9879233"><ele>459.0</ele><time>2026-03-22T09:24:28.394Z</time></trkpt><trkpt lat="43.9607983" lon="10.9878383"><ele>459.0</ele><time>2026-03-22T09:24:30.394Z</time></trkpt><trkpt lat="43.9608883" lon="10.987775"><ele>459.0</ele><time>2026-03-22T09:24:32.394Z</time></trkpt><trkpt lat="43.9609867" lon="10.9876817"><ele>459.0</ele><time>2026-03-22T09:24:34.393Z</time></trkpt><trkpt lat="43.9610417" lon="10.9876333"><ele>459.0</ele><time>2026-03-22T09:24:35.393Z</time></trkpt><trkpt lat="43.9610967" lon="10.98758"><ele>460.3333333333333</ele><time>2026-03-22T09:24:36.393Z</time></trkpt><trkpt lat="43.96116" lon="10.987525"><ele>461.66666666666663</ele><time>2026-03-22T09:24:37.393Z</time></trkpt><trkpt lat="43.9612333" lon="10.9874617"><ele>463.0</ele><time>2026-03-22T09:24:38.394Z</time></trkpt><trkpt lat="43.9613033" lon="10.98737"><ele>464.3333333333333</ele><time>2026-03-22T09:24:39.394Z</time></trkpt><trkpt lat="43.9613717" lon="10.9872783"><ele>465.66666666666663</ele><time>2026-03-22T09:24:40.393Z</time></trkpt><trkpt lat="43.9614417" lon="10.9871967"><ele>467.0</ele><time>2026-03-22T09:24:41.394Z</time></trkpt><trkpt lat="43.961515" lon="10.987125"><ele>466.99999999999994</ele><time>2026-03-22T09:24:42.393Z</time></trkpt><trkpt lat="43.9615933" lon="10.9870633"><ele>467.0</ele><time>2026-03-22T09:24:43.393Z</time></trkpt><trkpt lat="43.9616667" lon="10.9870033"><ele>467.0</ele><time>2026-03-22T09:24:44.393Z</time></trkpt><trkpt lat="43.96174" lon="10.98694"><ele>467.0</ele><time>2026-03-22T09:24:45.393Z</time></trkpt><trkpt lat="43.9618083" lon="10.9868667"><ele>466.99999999999994</ele><time>2026-03-22T09:24:46.394Z</time></trkpt><trkpt lat="43.9618767" lon="10.986805"><ele>467.0</ele><time>2026-03-22T09:24:47.393Z</time></trkpt><trkpt lat="43.96195" lon="10.986755"><ele>467.66666666666663</ele><time>2026-03-22T09:24:48.394Z</time></trkpt><trkpt lat="43.9620167" lon="10.986705"><ele>468.3333333333333</ele><time>2026-03-22T09:24:49.394Z</time></trkpt><trkpt lat="43.962085" lon="10.9866467"><ele>469.0</ele><time>2026-03-22T09:24:50.394Z</time></trkpt><trkpt lat="43.96216" lon="10.986595"><ele>469.66666666666663</ele><time>2026-03-22T09:24:51.394Z</time></trkpt><trkpt lat="43.962235" lon="10.98655"><ele>470.3333333333333</ele><time>2026-03-22T09:24:52.394Z</time></trkpt><trkpt lat="43.9623133" lon="10.986525"><ele>471.0</ele><time>2026-03-22T09:24:53.393Z</time></trkpt><trkpt lat="43.9624" lon="10.9864867"><ele>471.0</ele><time>2026-03-22T09:24:54.393Z</time></trkpt><trkpt lat="43.9624967" lon="10.98646"><ele>471.0</ele><time>2026-03-22T09:24:55.394Z</time></trkpt><trkpt lat="43.9625733" lon="10.986425"><ele>471.0</ele><time>2026-03-22T09:24:56.394Z</time></trkpt><trkpt lat="43.9626433" lon="10.9863933"><ele>471.0</ele><time>2026-03-22T09:24:57.394Z</time></trkpt><trkpt lat="43.9627067" lon="10.986365"><ele>471.0</ele><time>2026-03-22T09:24:58.393Z</time></trkpt><trkpt lat="43.9627183" lon="10.98622"><ele>471.0</ele><time>2026-03-22T09:25:00.394Z</time></trkpt><trkpt lat="43.962705" lon="10.98612"><ele>469.20000000000005</ele><time>2026-03-22T09:25:01.393Z</time></trkpt><trkpt lat="43.9626767" lon="10.9860317"><ele>467.40000000000003</ele><time>2026-03-22T09:25:02.393Z</time></trkpt><trkpt lat="43.9626167" lon="10.9859133"><ele>465.6</ele><time>2026-03-22T09:25:03.393Z</time></trkpt><trkpt lat="43.9625533" lon="10.9857933"><ele>463.8</ele><time>2026-03-22T09:25:04.393Z</time></trkpt><trkpt lat="43.962495" lon="10.9857017"><ele>462.0</ele><time>2026-03-22T09:25:05.393Z</time></trkpt><trkpt lat="43.9624317" lon="10.9856117"><ele>462.0</ele><time>2026-03-22T09:25:06.394Z</time></trkpt><trkpt lat="43.9623583" lon="10.98552"><ele>462.00000000000006</ele><time>2026-03-22T09:25:07.394Z</time></trkpt><trkpt lat="43.9622767" lon="10.985435"><ele>462.00000000000006</ele><time>2026-03-22T09:25:08.393Z</time></trkpt><trkpt lat="43.962205" lon="10.9853483"><ele>462.0</ele><time>2026-03-22T09:25:09.394Z</time></trkpt><trkpt lat="43.9621367" lon="10.9852583"><ele>462.0</ele><time>2026-03-22T09:25:10.393Z</time></trkpt><trkpt lat="43.9620667" lon="10.9851633"><ele>462.0</ele><time>2026-03-22T09:25:11.394Z</time></trkpt><trkpt lat="43.9620017" lon="10.985075"><ele>462.00000000000006</ele><time>2026-03-22T09:25:12.393Z</time></trkpt><trkpt lat="43.9619383" lon="10.984985"><ele>462.00000000000006</ele><time>2026-03-22T09:25:13.393Z</time></trkpt><trkpt lat="43.9618717" lon="10.9848933"><ele>462.0</ele><time>2026-03-22T09:25:14.393Z</time></trkpt><trkpt lat="43.9617983" lon="10.9848117"><ele>462.0</ele><time>2026-03-22T09:25:15.393Z</time></trkpt><trkpt lat="43.9617317" lon="10.98473"><ele>462.1666666666667</ele><time>2026-03-22T09:25:16.394Z</time></trkpt><trkpt lat="43.9616533" lon="10.9846467"><ele>462.33333333333337</ele><time>2026-03-22T09:25:17.393Z</time></trkpt><trkpt lat="43.961585" lon="10.9845567"><ele>462.5</ele><time>2026-03-22T09:25:18.393Z</time></trkpt><trkpt lat="43.9615317" lon="10.9844667"><ele>462.6666666666667</ele><time>2026-03-22T09:25:19.393Z</time></trkpt><trkpt lat="43.961495" lon="10.984375"><ele>462.83333333333337</ele><time>2026-03-22T09:25:20.394Z</time></trkpt><trkpt lat="43.961465" lon="10.9842867"><ele>463.0</ele><time>2026-03-22T09:25:21.393Z</time></trkpt><trkpt lat="43.9614433" lon="10.9841983"><ele>466.50000000000006</ele><time>2026-03-22T09:25:22.393Z</time></trkpt><trkpt lat="43.96144" lon="10.9841017"><ele>470.0</ele><time>2026-03-22T09:25:23.393Z</time></trkpt><trkpt lat="43.96143" lon="10.9840067"><ele>473.5</ele><time>2026-03-22T09:25:24.394Z</time></trkpt><trkpt lat="43.9614467" lon="10.9838683"><ele>477.0</ele><time>2026-03-22T09:25:26.393Z</time></trkpt><trkpt lat="43.9614983" lon="10.9837183"><ele>480.50000000000006</ele><time>2026-03-22T09:25:42.393Z</time></trkpt><trkpt lat="43.9615133" lon="10.9836133"><ele>484.0</ele><time>2026-03-22T09:25:44.393Z</time></trkpt><trkpt lat="43.96153" lon="10.98347"><ele>485.79999999999995</ele><time>2026-03-22T09:25:46.394Z</time></trkpt><trkpt lat="43.9615383" lon="10.9832917"><ele>487.59999999999997</ele><time>2026-03-22T09:25:48.393Z</time></trkpt><trkpt lat="43.9615433" lon="10.983195"><ele>489.4</ele><time>2026-03-22T09:25:49.393Z</time></trkpt><trkpt lat="43.9615283" lon="10.98303"><ele>491.2</ele><time>2026-03-22T09:25:51.393Z</time></trkpt><trkpt lat="43.9615017" lon="10.9828767"><ele>493.0</ele><time>2026-03-22T09:25:53.394Z</time></trkpt><trkpt lat="43.9615017" lon="10.9827483"><ele>493.0</ele><time>2026-03-22T09:25:55.394Z</time></trkpt><trkpt lat="43.961505" lon="10.9826183"><ele>492.99999999999994</ele><time>2026-03-22T09:25:57.393Z</time></trkpt><trkpt lat="43.9615267" lon="10.982475"><ele>492.99999999999994</ele><time>2026-03-22T09:25:59.393Z</time></trkpt><trkpt lat="43.9615683" lon="10.9823517"><ele>493.0</ele><time>2026-03-22T09:26:01.393Z</time></trkpt><trkpt lat="43.9616317" lon="10.9822333"><ele>493.0</ele><time>2026-03-22T09:26:03.394Z</time></trkpt><trkpt lat="43.9617217" lon="10.9820883"><ele>497.00000000000006</ele><time>2026-03-22T09:26:05.394Z</time></trkpt><trkpt lat="43.96177" lon="10.98201"><ele>501.0</ele><time>2026-03-22T09:26:06.393Z</time></trkpt><trkpt lat="43.9618117" lon="10.9819333"><ele>505.0</ele><time>2026-03-22T09:26:07.394Z</time></trkpt><trkpt lat="43.961855" lon="10.98185"><ele>509.0</ele><time>2026-03-22T09:26:08.393Z</time></trkpt><trkpt lat="43.9618867" lon="10.9817683"><ele>513.0</ele><time>2026-03-22T09:26:09.394Z</time></trkpt><trkpt lat="43.9619183" lon="10.98169"><ele>517.0</ele><time>2026-03-22T09:26:10.394Z</time></trkpt><trkpt lat="43.9619967" lon="10.981555"><ele>517.0</ele><time>2026-03-22T09:26:12.393Z</time></trkpt><trkpt lat="43.9620733" lon="10.9814583"><ele>517.0</ele><time>2026-03-22T09:26:14.393Z</time></trkpt><trkpt lat="43.9621283" lon="10.9814117"><ele>517.0</ele><time>2026-03-22T09:26:15.393Z</time></trkpt><trkpt lat="43.962185" lon="10.9813633"><ele>517.0</ele><time>2026-03-22T09:26:16.394Z</time></trkpt><trkpt lat="43.962255" lon="10.9813267"><ele>517.0</ele><time>2026-03-22T09:26:17.393Z</time></trkpt><trkpt lat="43.9622867" lon="10.981205"><ele>517.0</ele><time>2026-03-22T09:26:19.393Z</time></trkpt><trkpt lat="43.96235" lon="10.981195"><ele>517.0</ele><time>2026-03-22T09:26:21.394Z</time></trkpt><trkpt lat="43.9624917" lon="10.9812733"><ele>517.0</ele><time>2026-03-22T09:26:46.393Z</time></trkpt><trkpt lat="43.9625867" lon="10.9813633"><ele>517.0</ele><time>2026-03-22T09:26:57.394Z</time></trkpt><trkpt lat="43.9626217" lon="10.981505"><ele>517.0</ele><time>2026-03-22T09:26:59.394Z</time></trkpt><trkpt lat="43.96265" lon="10.981605"><ele>518.6666666666667</ele><time>2026-03-22T09:27:00.394Z</time></trkpt><trkpt lat="43.96264" lon="10.981725"><ele>520.3333333333334</ele><time>2026-03-22T09:27:01.394Z</time></trkpt><trkpt lat="43.9626333" lon="10.98185"><ele>522.0</ele><time>2026-03-22T09:27:02.393Z</time></trkpt><trkpt lat="43.9626333" lon="10.98198"><ele>523.6666666666666</ele><time>2026-03-22T09:27:03.394Z</time></trkpt><trkpt lat="43.962625" lon="10.9821067"><ele>525.3333333333333</ele><time>2026-03-22T09:27:04.394Z</time></trkpt><trkpt lat="43.9626233" lon="10.9822233"><ele>527.0</ele><time>2026-03-22T09:27:05.393Z</time></trkpt><trkpt lat="43.9626283" lon="10.982345"><ele>527.0</ele><time>2026-03-22T09:27:06.393Z</time></trkpt><trkpt lat="43.9626283" lon="10.9824633"><ele>527.0</ele><time>2026-03-22T09:27:07.394Z</time></trkpt><trkpt lat="43.9626267" lon="10.9825883"><ele>527.0</ele><time>2026-03-22T09:27:08.393Z</time></trkpt><trkpt lat="43.9626283" lon="10.9826933"><ele>527.0</ele><time>2026-03-22T09:27:09.394Z</time></trkpt><trkpt lat="43.9626483" lon="10.9827917"><ele>527.0</ele><time>2026-03-22T09:27:10.394Z</time></trkpt><trkpt lat="43.9626833" lon="10.9828833"><ele>527.0</ele><time>2026-03-22T09:27:11.394Z</time></trkpt><trkpt lat="43.96274" lon="10.9829867"><ele>527.8000000000001</ele><time>2026-03-22T09:27:12.394Z</time></trkpt><trkpt lat="43.9628067" lon="10.9830833"><ele>528.6</ele><time>2026-03-22T09:27:13.393Z</time></trkpt><trkpt lat="43.96288" lon="10.983155"><ele>529.4000000000001</ele><time>2026-03-22T09:27:14.393Z</time></trkpt><trkpt lat="43.9629533" lon="10.9832167"><ele>530.2</ele><time>2026-03-22T09:27:15.394Z</time></trkpt><trkpt lat="43.9630433" lon="10.98326"><ele>531.0</ele><time>2026-03-22T09:27:16.394Z</time></trkpt><trkpt lat="43.9631417" lon="10.9832983"><ele>531.0</ele><time>2026-03-22T09:27:17.394Z</time></trkpt><trkpt lat="43.96324" lon="10.9833417"><ele>531.0</ele><time>2026-03-22T09:27:18.394Z</time></trkpt><trkpt lat="43.96333" lon="10.9834033"><ele>531.0</ele><time>2026-03-22T09:27:19.393Z</time></trkpt><trkpt lat="43.96341" lon="10.9835033"><ele>531.0</ele><time>2026-03-22T09:27:20.394Z</time></trkpt><trkpt lat="43.9634883" lon="10.983625"><ele>531.0</ele><time>2026-03-22T09:27:21.393Z</time></trkpt><trkpt lat="43.963565" lon="10.98375"><ele>532.0</ele><time>2026-03-22T09:27:22.393Z</time></trkpt><trkpt lat="43.9636267" lon="10.9838733"><ele>533.0</ele><time>2026-03-22T09:27:23.393Z</time></trkpt><trkpt lat="43.963685" lon="10.984005"><ele>534.0</ele><time>2026-03-22T09:27:24.393Z</time></trkpt><trkpt lat="43.96373" lon="10.9841317"><ele>535.0</ele><time>2026-03-22T09:27:25.393Z</time></trkpt><trkpt lat="43.96377" lon="10.9842567"><ele>536.0</ele><time>2026-03-22T09:27:26.393Z</time></trkpt><trkpt lat="43.9638183" lon="10.984365"><ele>537.4</ele><time>2026-03-22T09:27:27.393Z</time></trkpt><trkpt lat="43.9638767" lon="10.9844717"><ele>538.8</ele><time>2026-03-22T09:27:28.394Z</time></trkpt><trkpt lat="43.963935" lon="10.9845783"><ele>540.1999999999999</ele><time>2026-03-22T09:27:29.393Z</time></trkpt><trkpt lat="43.964005" lon="10.9846983"><ele>541.6</ele><time>2026-03-22T09:27:30.393Z</time></trkpt><trkpt lat="43.964075" lon="10.9848433"><ele>543.0</ele><time>2026-03-22T09:27:31.394Z</time></trkpt><trkpt lat="43.9641417" lon="10.9849933"><ele>542.0</ele><time>2026-03-22T09:27:32.394Z</time></trkpt><trkpt lat="43.964195" lon="10.98515"><ele>541.0</ele><time>2026-03-22T09:27:33.394Z</time></trkpt><trkpt lat="43.9642333" lon="10.9852917"><ele>540.0</ele><time>2026-03-22T09:27:34.393Z</time></trkpt><trkpt lat="43.9642933" lon="10.9854183"><ele>539.0</ele><time>2026-03-22T09:27:35.393Z</time></trkpt><trkpt lat="43.9643567" lon="10.9855417"><ele>544.5</ele><time>2026-03-22T09:27:36.393Z</time></trkpt><trkpt lat="43.9644417" lon="10.9856533"><ele>550.0</ele><time>2026-03-22T09:27:37.394Z</time></trkpt><trkpt lat="43.9645233" lon="10.98577"><ele>555.5</ele><time>2026-03-22T09:27:38.393Z</time></trkpt><trkpt lat="43.9645983" lon="10.9858967"><ele>561.0</ele><time>2026-03-22T09:27:39.394Z</time></trkpt><trkpt lat="43.9646683" lon="10.986035"><ele>561.5</ele><time>2026-03-22T09:27:40.393Z</time></trkpt><trkpt lat="43.9647317" lon="10.9861733"><ele>562.0</ele><time>2026-03-22T09:27:41.394Z</time></trkpt><trkpt lat="43.9647967" lon="10.9863083"><ele>562.5</ele><time>2026-03-22T09:27:42.393Z</time></trkpt><trkpt lat="43.9648617" lon="10.9864467"><ele>563.0</ele><time>2026-03-22T09:27:43.394Z</time></trkpt><trkpt lat="43.96492" lon="10.9865833"><ele>562.1999999999999</ele><time>2026-03-22T09:27:44.394Z</time></trkpt><trkpt lat="43.9649833" lon="10.986715"><ele>561.4</ele><time>2026-03-22T09:27:45.394Z</time></trkpt><trkpt lat="43.96505" lon="10.9868233"><ele>560.5999999999999</ele><time>2026-03-22T09:27:46.394Z</time></trkpt><trkpt lat="43.9651267" lon="10.9869117"><ele>559.8</ele><time>2026-03-22T09:27:47.393Z</time></trkpt><trkpt lat="43.965205" lon="10.9869983"><ele>559.0</ele><time>2026-03-22T09:27:48.393Z</time></trkpt><trkpt lat="43.96527" lon="10.9870833"><ele>562.6</ele><time>2026-03-22T09:27:49.393Z</time></trkpt><trkpt lat="43.96533" lon="10.9871783"><ele>566.2</ele><time>2026-03-22T09:27:50.394Z</time></trkpt><trkpt lat="43.9653767" lon="10.9872933"><ele>569.8000000000001</ele><time>2026-03-22T09:27:51.393Z</time></trkpt><trkpt lat="43.9654317" lon="10.987415"><ele>573.4</ele><time>2026-03-22T09:27:52.393Z</time></trkpt><trkpt lat="43.9655" lon="10.9875417"><ele>577.0</ele><time>2026-03-22T09:27:53.394Z</time></trkpt><trkpt lat="43.9655733" lon="10.9876783"><ele>577.0</ele><time>2026-03-22T09:27:54.394Z</time></trkpt><trkpt lat="43.96565" lon="10.987795"><ele>577.0</ele><time>2026-03-22T09:27:55.394Z</time></trkpt><trkpt lat="43.9657233" lon="10.987915"><ele>577.0</ele><time>2026-03-22T09:27:56.393Z</time></trkpt><trkpt lat="43.9657933" lon="10.98804"><ele>577.0</ele><time>2026-03-22T09:27:57.393Z</time></trkpt><trkpt lat="43.9658583" lon="10.9881617"><ele>575.0</ele><time>2026-03-22T09:27:58.393Z</time></trkpt><trkpt lat="43.9659083" lon="10.988275"><ele>573.0</ele><time>2026-03-22T09:27:59.394Z</time></trkpt><trkpt lat="43.965945" lon="10.9884"><ele>571.0</ele><time>2026-03-22T09:28:00.392Z</time></trkpt><trkpt lat="43.96597" lon="10.9885367"><ele>569.0</ele><time>2026-03-22T09:28:01.393Z</time></trkpt><trkpt lat="43.9659967" lon="10.9886883"><ele>567.0</ele><time>2026-03-22T09:28:02.392Z</time></trkpt><trkpt lat="43.966015" lon="10.9888567"><ele>567.0</ele><time>2026-03-22T09:28:03.392Z</time></trkpt><trkpt lat="43.9660267" lon="10.9890283"><ele>567.0</ele><time>2026-03-22T09:28:04.392Z</time></trkpt><trkpt lat="43.9660333" lon="10.9891983"><ele>567.0</ele><time>2026-03-22T09:28:05.392Z</time></trkpt><trkpt lat="43.9660367" lon="10.989385"><ele>567.0</ele><time>2026-03-22T09:28:06.392Z</time></trkpt><trkpt lat="43.9660417" lon="10.9895733"><ele>567.75</ele><time>2026-03-22T09:28:07.392Z</time></trkpt><trkpt lat="43.9660417" lon="10.9897617"><ele>568.5</ele><time>2026-03-22T09:28:08.394Z</time></trkpt><trkpt lat="43.96604" lon="10.9899367"><ele>569.25</ele><time>2026-03-22T09:28:09.392Z</time></trkpt><trkpt lat="43.9660367" lon="10.990095"><ele>570.0</ele><time>2026-03-22T09:28:10.393Z</time></trkpt><trkpt lat="43.9660317" lon="10.9902317"><ele>570.4285714285714</ele><time>2026-03-22T09:28:11.392Z</time></trkpt><trkpt lat="43.9660417" lon="10.9903433"><ele>570.8571428571429</ele><time>2026-03-22T09:28:12.392Z</time></trkpt><trkpt lat="43.9660667" lon="10.9904383"><ele>571.2857142857143</ele><time>2026-03-22T09:28:13.392Z</time></trkpt><trkpt lat="43.9660967" lon="10.9905233"><ele>571.7142857142858</ele><time>2026-03-22T09:28:14.393Z</time></trkpt><trkpt lat="43.966135" lon="10.9906033"><ele>572.1428571428572</ele><time>2026-03-22T09:28:15.392Z</time></trkpt><trkpt lat="43.9661567" lon="10.9906867"><ele>572.5714285714286</ele><time>2026-03-22T09:28:16.392Z</time></trkpt><trkpt lat="43.966175" lon="10.9907733"><ele>573.0</ele><time>2026-03-22T09:28:17.392Z</time></trkpt><trkpt lat="43.9661833" lon="10.990865"><ele>574.6</ele><time>2026-03-22T09:28:18.392Z</time></trkpt><trkpt lat="43.966185" lon="10.9910233"><ele>576.1999999999999</ele><time>2026-03-22T09:28:20.392Z</time></trkpt><trkpt lat="43.9661833" lon="10.991175"><ele>577.8</ele><time>2026-03-22T09:28:22.392Z</time></trkpt><trkpt lat="43.966185" lon="10.9913083"><ele>579.4</ele><time>2026-03-22T09:28:24.393Z</time></trkpt><trkpt lat="43.9661933" lon="10.9914133"><ele>581.0</ele><time>2026-03-22T09:28:26.392Z</time></trkpt><trkpt lat="43.9662117" lon="10.9915"><ele>581.0</ele><time>2026-03-22T09:28:29.392Z</time></trkpt><trkpt lat="43.9661717" lon="10.9915733"><ele>581.0</ele><time>2026-03-22T09:28:46.394Z</time></trkpt><trkpt lat="43.9661867" lon="10.9917317"><ele>581.0</ele><time>2026-03-22T09:28:49.394Z</time></trkpt><trkpt lat="43.966195" lon="10.99191"><ele>581.0</ele><time>2026-03-22T09:28:51.393Z</time></trkpt><trkpt lat="43.9661933" lon="10.9920083"><ele>581.0</ele><time>2026-03-22T09:28:52.393Z</time></trkpt><trkpt lat="43.96619" lon="10.992115"><ele>583.8333333333333</ele><time>2026-03-22T09:28:53.394Z</time></trkpt><trkpt lat="43.96618" lon="10.9922383"><ele>586.6666666666666</ele><time>2026-03-22T09:28:54.394Z</time></trkpt><trkpt lat="43.96618" lon="10.99236"><ele>589.5</ele><time>2026-03-22T09:28:55.393Z</time></trkpt><trkpt lat="43.9661933" lon="10.9924683"><ele>592.3333333333334</ele><time>2026-03-22T09:28:56.393Z</time></trkpt><trkpt lat="43.9662333" lon="10.9925883"><ele>595.1666666666667</ele><time>2026-03-22T09:28:57.393Z</time></trkpt><trkpt lat="43.9662733" lon="10.9926917"><ele>598.0</ele><time>2026-03-22T09:28:58.393Z</time></trkpt><trkpt lat="43.966305" lon="10.99279"><ele>601.8</ele><time>2026-03-22T09:28:59.393Z</time></trkpt><trkpt lat="43.9663383" lon="10.9929083"><ele>605.5999999999999</ele><time>2026-03-22T09:29:00.393Z</time></trkpt><trkpt lat="43.9663683" lon="10.9930317"><ele>609.4000000000001</ele><time>2026-03-22T09:29:01.394Z</time></trkpt><trkpt lat="43.9663967" lon="10.993165"><ele>613.2</ele><time>2026-03-22T09:29:02.393Z</time></trkpt><trkpt lat="43.9664217" lon="10.9933017"><ele>617.0</ele><time>2026-03-22T09:29:03.393Z</time></trkpt><trkpt lat="43.9664517" lon="10.9934433"><ele>619.4</ele><time>2026-03-22T09:29:04.394Z</time></trkpt><trkpt lat="43.966465" lon="10.9935917"><ele>621.8000000000001</ele><time>2026-03-22T09:29:05.393Z</time></trkpt><trkpt lat="43.9664833" lon="10.9937317"><ele>624.2</ele><time>2026-03-22T09:29:06.393Z</time></trkpt><trkpt lat="43.9664917" lon="10.9938583"><ele>626.6</ele><time>2026-03-22T09:29:07.394Z</time></trkpt><trkpt lat="43.9665033" lon="10.9939867"><ele>629.0</ele><time>2026-03-22T09:29:08.394Z</time></trkpt><trkpt lat="43.96651" lon="10.9941133"><ele>629.3333333333333</ele><time>2026-03-22T09:29:09.393Z</time></trkpt><trkpt lat="43.9665133" lon="10.9942383"><ele>629.6666666666666</ele><time>2026-03-22T09:29:10.394Z</time></trkpt><trkpt lat="43.9665167" lon="10.994355"><ele>630.0</ele><time>2026-03-22T09:29:11.393Z</time></trkpt><trkpt lat="43.96653" lon="10.9944533"><ele>630.3333333333334</ele><time>2026-03-22T09:29:12.394Z</time></trkpt><trkpt lat="43.96656" lon="10.9945517"><ele>630.6666666666667</ele><time>2026-03-22T09:29:13.393Z</time></trkpt><trkpt lat="43.9665733" lon="10.9946467"><ele>631.0</ele><time>2026-03-22T09:29:14.394Z</time></trkpt><trkpt lat="43.966615" lon="10.994745"><ele>631.0</ele><time>2026-03-22T09:29:15.393Z</time></trkpt><trkpt lat="43.9666583" lon="10.9948367"><ele>631.0</ele><time>2026-03-22T09:29:16.394Z</time></trkpt><trkpt lat="43.9667083" lon="10.99492"><ele>631.0</ele><time>2026-03-22T09:29:17.394Z</time></trkpt><trkpt lat="43.9667617" lon="10.99499"><ele>631.0</ele><time>2026-03-22T09:29:18.393Z</time></trkpt><trkpt lat="43.966815" lon="10.9950583"><ele>631.0</ele><time>2026-03-22T09:29:19.394Z</time></trkpt><trkpt lat="43.9668867" lon="10.9951083"><ele>631.0</ele><time>2026-03-22T09:29:20.394Z</time></trkpt><trkpt lat="43.9669533" lon="10.9951567"><ele>633.1666666666667</ele><time>2026-03-22T09:29:21.393Z</time></trkpt><trkpt lat="43.96702" lon="10.995175"><ele>635.3333333333334</ele><time>2026-03-22T09:29:22.394Z</time></trkpt><trkpt lat="43.9670933" lon="10.9952167"><ele>637.5</ele><time>2026-03-22T09:29:23.394Z</time></trkpt><trkpt lat="43.967175" lon="10.9952517"><ele>639.6666666666666</ele><time>2026-03-22T09:29:24.394Z</time></trkpt><trkpt lat="43.9672633" lon="10.9952967"><ele>641.8333333333333</ele><time>2026-03-22T09:29:25.393Z</time></trkpt><trkpt lat="43.9673567" lon="10.9953633"><ele>644.0</ele><time>2026-03-22T09:29:26.393Z</time></trkpt><trkpt lat="43.9674583" lon="10.9954333"><ele>646.0</ele><time>2026-03-22T09:29:27.393Z</time></trkpt><trkpt lat="43.9675733" lon="10.99556"><ele>648.0</ele><time>2026-03-22T09:29:28.393Z</time></trkpt><trkpt lat="43.9676817" lon="10.9956917"><ele>650.0</ele><time>2026-03-22T09:29:29.394Z</time></trkpt><trkpt lat="43.9677683" lon="10.99579"><ele>652.0</ele><time>2026-03-22T09:29:30.393Z</time></trkpt><trkpt lat="43.9678517" lon="10.9958883"><ele>652.0</ele><time>2026-03-22T09:29:31.394Z</time></trkpt><trkpt lat="43.9679167" lon="10.9959817"><ele>652.0</ele><time>2026-03-22T09:29:32.394Z</time></trkpt><trkpt lat="43.9679817" lon="10.996065"><ele>652.0</ele><time>2026-03-22T09:29:33.393Z</time></trkpt><trkpt lat="43.9680633" lon="10.9961717"><ele>652.0</ele><time>2026-03-22T09:29:34.393Z</time></trkpt><trkpt lat="43.9681583" lon="10.99623"><ele>652.0</ele><time>2026-03-22T09:29:35.393Z</time></trkpt><trkpt lat="43.9682283" lon="10.9962817"><ele>652.0</ele><time>2026-03-22T09:29:36.393Z</time></trkpt><trkpt lat="43.968295" lon="10.9963483"><ele>652.0</ele><time>2026-03-22T09:29:37.393Z</time></trkpt><trkpt lat="43.968385" lon="10.99642"><ele>652.0</ele><time>2026-03-22T09:29:38.393Z</time></trkpt><trkpt lat="43.9684833" lon="10.9965017"><ele>652.0</ele><time>2026-03-22T09:29:39.393Z</time></trkpt><trkpt lat="43.96857" lon="10.99659"><ele>652.0</ele><time>2026-03-22T09:29:40.393Z</time></trkpt><trkpt lat="43.9686417" lon="10.9966767"><ele>652.0</ele><time>2026-03-22T09:29:41.394Z</time></trkpt><trkpt lat="43.968715" lon="10.9968183"><ele>652.0</ele><time>2026-03-22T09:29:42.393Z</time></trkpt><trkpt lat="43.9687833" lon="10.99694"><ele>652.0</ele><time>2026-03-22T09:29:43.393Z</time></trkpt><trkpt lat="43.9688467" lon="10.99705"><ele>652.0</ele><time>2026-03-22T09:29:44.393Z</time></trkpt><trkpt lat="43.96891" lon="10.9971633"><ele>652.0</ele><time>2026-03-22T09:29:45.393Z</time></trkpt><trkpt lat="43.9689817" lon="10.9972967"><ele>652.0</ele><time>2026-03-22T09:29:46.393Z</time></trkpt><trkpt lat="43.9690433" lon="10.99743"><ele>652.0</ele><time>2026-03-22T09:29:47.394Z</time></trkpt><trkpt lat="43.9690933" lon="10.9975583"><ele>652.0</ele><time>2026-03-22T09:29:48.393Z</time></trkpt><trkpt lat="43.96914" lon="10.9976967"><ele>652.0</ele><time>2026-03-22T09:29:49.394Z</time></trkpt><trkpt lat="43.9691817" lon="10.997825"><ele>652.0</ele><time>2026-03-22T09:29:50.393Z</time></trkpt><trkpt lat="43.9692233" lon="10.9979483"><ele>652.5714285714286</ele><time>2026-03-22T09:29:51.394Z</time></trkpt><trkpt lat="43.9692583" lon="10.9980533"><ele>653.1428571428571</ele><time>2026-03-22T09:29:52.393Z</time></trkpt><trkpt lat="43.9692867" lon="10.9981317"><ele>653.7142857142857</ele><time>2026-03-22T09:29:53.394Z</time></trkpt><trkpt lat="43.969325" lon="10.9982333"><ele>654.2857142857142</ele><time>2026-03-22T09:29:55.393Z</time></trkpt><trkpt lat="43.9693783" lon="10.99828"><ele>654.8571428571429</ele><time>2026-03-22T09:29:57.393Z</time></trkpt><trkpt lat="43.96944" lon="10.9983183"><ele>655.4285714285713</ele><time>2026-03-22T09:29:59.394Z</time></trkpt><trkpt lat="43.969505" lon="10.9983517"><ele>656.0</ele><time>2026-03-22T09:30:01.393Z</time></trkpt><trkpt lat="43.9695767" lon="10.9983633"><ele>659.8333333333333</ele><time>2026-03-22T09:30:03.393Z</time></trkpt><trkpt lat="43.9696517" lon="10.9983967"><ele>663.6666666666666</ele><time>2026-03-22T09:30:05.394Z</time></trkpt><trkpt lat="43.9697167" lon="10.9984483"><ele>667.5</ele><time>2026-03-22T09:30:07.394Z</time></trkpt><trkpt lat="43.9697767" lon="10.99849"><ele>671.3333333333334</ele><time>2026-03-22T09:30:10.394Z</time></trkpt><trkpt lat="43.9698233" lon="10.9985783"><ele>675.1666666666667</ele><time>2026-03-22T09:30:25.394Z</time></trkpt><trkpt lat="43.9698517" lon="10.9987083"><ele>679.0</ele><time>2026-03-22T09:30:27.393Z</time></trkpt><trkpt lat="43.9698983" lon="10.998845"><ele>679.0</ele><time>2026-03-22T09:30:29.393Z</time></trkpt><trkpt lat="43.9699267" lon="10.9989267"><ele>679.0</ele><time>2026-03-22T09:30:30.394Z</time></trkpt><trkpt lat="43.9699683" lon="10.9990233"><ele>679.0</ele><time>2026-03-22T09:30:31.394Z</time></trkpt><trkpt lat="43.970005" lon="10.9991333"><ele>679.0</ele><time>2026-03-22T09:30:32.393Z</time></trkpt><trkpt lat="43.970065" lon="10.9992383"><ele>679.0</ele><time>2026-03-22T09:30:33.394Z</time></trkpt><trkpt lat="43.9701217" lon="10.9993333"><ele>679.0</ele><time>2026-03-22T09:30:34.394Z</time></trkpt><trkpt lat="43.9701683" lon="10.9994083"><ele>678.3333333333334</ele><time>2026-03-22T09:30:35.393Z</time></trkpt><trkpt lat="43.9702233" lon="10.9994667"><ele>677.6666666666667</ele><time>2026-03-22T09:30:36.393Z</time></trkpt><trkpt lat="43.970275" lon="10.9995233"><ele>677.0</ele><time>2026-03-22T09:30:37.393Z</time></trkpt><trkpt lat="43.97032" lon="10.999595"><ele>676.3333333333334</ele><time>2026-03-22T09:30:38.393Z</time></trkpt><trkpt lat="43.9703633" lon="10.99967"><ele>675.6666666666666</ele><time>2026-03-22T09:30:39.394Z</time></trkpt><trkpt lat="43.9704317" lon="10.999755"><ele>675.0</ele><time>2026-03-22T09:30:40.394Z</time></trkpt><trkpt lat="43.970495" lon="10.9998417"><ele>675.0</ele><time>2026-03-22T09:30:41.394Z</time></trkpt><trkpt lat="43.970555" lon="10.999915"><ele>675.0</ele><time>2026-03-22T09:30:42.393Z</time></trkpt><trkpt lat="43.9706117" lon="10.9999783"><ele>675.0</ele><time>2026-03-22T09:30:43.393Z</time></trkpt><trkpt lat="43.9706733" lon="11.000025"><ele>675.0</ele><time>2026-03-22T09:30:44.394Z</time></trkpt><trkpt lat="43.97075" lon="11.00009"><ele>675.0</ele><time>2026-03-22T09:30:45.394Z</time></trkpt><trkpt lat="43.970825" lon="11.00016"><ele>675.0</ele><time>2026-03-22T09:30:46.393Z</time></trkpt><trkpt lat="43.97088" lon="11.0002333"><ele>671.0</ele><time>2026-03-22T09:30:47.394Z</time></trkpt><trkpt lat="43.9709517" lon="11.0003517"><ele>667.0</ele><time>2026-03-22T09:30:49.393Z</time></trkpt><trkpt lat="43.97103" lon="11.0004183"><ele>663.0</ele><time>2026-03-22T09:30:51.394Z</time></trkpt><trkpt lat="43.971135" lon="11.0004367"><ele>659.0</ele><time>2026-03-22T09:30:53.394Z</time></trkpt><trkpt lat="43.971205" lon="11.0004333"><ele>655.0</ele><time>2026-03-22T09:30:54.393Z</time></trkpt><trkpt lat="43.9712883" lon="11.0004"><ele>655.0</ele><time>2026-03-22T09:30:55.393Z</time></trkpt><trkpt lat="43.9713617" lon="11.0003983"><ele>655.0</ele><time>2026-03-22T09:30:56.394Z</time></trkpt><trkpt lat="43.9714417" lon="11.000405"><ele>655.0</ele><time>2026-03-22T09:30:57.394Z</time></trkpt><trkpt lat="43.9715117" lon="11.000435"><ele>655.0</ele><time>2026-03-22T09:30:58.394Z</time></trkpt><trkpt lat="43.9715783" lon="11.0004733"><ele>655.0</ele><time>2026-03-22T09:30:59.394Z</time></trkpt><trkpt lat="43.971645" lon="11.0005283"><ele>655.0</ele><time>2026-03-22T09:31:00.394Z</time></trkpt><trkpt lat="43.971705" lon="11.0005967"><ele>655.3333333333334</ele><time>2026-03-22T09:31:01.394Z</time></trkpt><trkpt lat="43.9717583" lon="11.0006767"><ele>655.6666666666667</ele><time>2026-03-22T09:31:02.393Z</time></trkpt><trkpt lat="43.971815" lon="11.000775"><ele>656.0</ele><time>2026-03-22T09:31:03.394Z</time></trkpt><trkpt lat="43.97186" lon="11.0008733"><ele>656.3333333333334</ele><time>2026-03-22T09:31:04.393Z</time></trkpt><trkpt lat="43.9719017" lon="11.00096"><ele>656.6666666666666</ele><time>2026-03-22T09:31:05.394Z</time></trkpt><trkpt lat="43.9719467" lon="11.0010267"><ele>657.0</ele><time>2026-03-22T09:31:06.394Z</time></trkpt><trkpt lat="43.9719883" lon="11.0010983"><ele>661.0</ele><time>2026-03-22T09:31:07.393Z</time></trkpt><trkpt lat="43.9720317" lon="11.0011683"><ele>665.0</ele><time>2026-03-22T09:31:08.393Z</time></trkpt><trkpt lat="43.97209" lon="11.0012233"><ele>669.0</ele><time>2026-03-22T09:31:09.393Z</time></trkpt><trkpt lat="43.9721717" lon="11.00123"><ele>673.0</ele><time>2026-03-22T09:31:10.393Z</time></trkpt><trkpt lat="43.9722333" lon="11.001275"><ele>677.0</ele><time>2026-03-22T09:31:11.394Z</time></trkpt><trkpt lat="43.9723017" lon="11.001315"><ele>681.0</ele><time>2026-03-22T09:31:12.394Z</time></trkpt><trkpt lat="43.972375" lon="11.0013483"><ele>685.0</ele><time>2026-03-22T09:31:13.393Z</time></trkpt><trkpt lat="43.9724567" lon="11.0013767"><ele>689.75</ele><time>2026-03-22T09:31:14.393Z</time></trkpt><trkpt lat="43.97257" lon="11.0013217"><ele>694.5</ele><time>2026-03-22T09:31:16.394Z</time></trkpt><trkpt lat="43.972635" lon="11.0012"><ele>699.25</ele><time>2026-03-22T09:31:17.393Z</time></trkpt><trkpt lat="43.972695" lon="11.0010317"><ele>704.0</ele><time>2026-03-22T09:31:18.393Z</time></trkpt><trkpt lat="43.9727517" lon="11.000905"><ele>698.5</ele><time>2026-03-22T09:31:19.393Z</time></trkpt><trkpt lat="43.972805" lon="11.0007917"><ele>693.0</ele><time>2026-03-22T09:31:20.394Z</time></trkpt><trkpt lat="43.9728533" lon="11.0006883"><ele>687.5</ele><time>2026-03-22T09:31:21.393Z</time></trkpt><trkpt lat="43.9729033" lon="11.0005917"><ele>682.0</ele><time>2026-03-22T09:31:22.393Z</time></trkpt><trkpt lat="43.97296" lon="11.0005417"><ele>676.5</ele><time>2026-03-22T09:31:23.393Z</time></trkpt><trkpt lat="43.9730167" lon="11.0005033"><ele>671.0</ele><time>2026-03-22T09:31:24.393Z</time></trkpt><trkpt lat="43.9730933" lon="11.0005033"><ele>671.0</ele><time>2026-03-22T09:31:25.394Z</time></trkpt><trkpt lat="43.9731967" lon="11.0005367"><ele>671.0</ele><time>2026-03-22T09:31:26.393Z</time></trkpt><trkpt lat="43.97328" lon="11.0005733"><ele>671.0</ele><time>2026-03-22T09:31:27.394Z</time></trkpt><trkpt lat="43.9733617" lon="11.00061"><ele>671.0</ele><time>2026-03-22T09:31:28.394Z</time></trkpt><trkpt lat="43.9734533" lon="11.0006517"><ele>671.0</ele><time>2026-03-22T09:31:29.394Z</time></trkpt><trkpt lat="43.97355" lon="11.0007017"><ele>669.0</ele><time>2026-03-22T09:31:30.393Z</time></trkpt><trkpt lat="43.9736333" lon="11.0007783"><ele>667.0</ele><time>2026-03-22T09:31:31.393Z</time></trkpt><trkpt lat="43.973715" lon="11.000855"><ele>665.0</ele><time>2026-03-22T09:31:32.393Z</time></trkpt><trkpt lat="43.973805" lon="11.0009467"><ele>663.0</ele><time>2026-03-22T09:31:33.394Z</time></trkpt><trkpt lat="43.9738867" lon="11.00104"><ele>661.0</ele><time>2026-03-22T09:31:34.393Z</time></trkpt><trkpt lat="43.9739667" lon="11.00111"><ele>664.8571428571429</ele><time>2026-03-22T09:31:35.393Z</time></trkpt><trkpt lat="43.9740367" lon="11.001165"><ele>668.7142857142858</ele><time>2026-03-22T09:31:36.394Z</time></trkpt><trkpt lat="43.9740983" lon="11.0012133"><ele>672.5714285714287</ele><time>2026-03-22T09:31:37.394Z</time></trkpt><trkpt lat="43.97417" lon="11.001245"><ele>676.4285714285714</ele><time>2026-03-22T09:31:38.394Z</time></trkpt><trkpt lat="43.974235" lon="11.0012783"><ele>680.2857142857143</ele><time>2026-03-22T09:31:39.394Z</time></trkpt><trkpt lat="43.9743017" lon="11.0013033"><ele>684.1428571428572</ele><time>2026-03-22T09:31:40.394Z</time></trkpt><trkpt lat="43.9743817" lon="11.0013033"><ele>688.0</ele><time>2026-03-22T09:31:41.393Z</time></trkpt><trkpt lat="43.9744533" lon="11.0013067"><ele>688.0000000000001</ele><time>2026-03-22T09:31:42.393Z</time></trkpt><trkpt lat="43.9745317" lon="11.0013283"><ele>688.0</ele><time>2026-03-22T09:31:43.393Z</time></trkpt><trkpt lat="43.9745983" lon="11.0013517"><ele>688.0</ele><time>2026-03-22T09:31:44.393Z</time></trkpt><trkpt lat="43.9746633" lon="11.0013867"><ele>688.0</ele><time>2026-03-22T09:31:45.394Z</time></trkpt><trkpt lat="43.9747183" lon="11.0014433"><ele>688.0</ele><time>2026-03-22T09:31:46.394Z</time></trkpt><trkpt lat="43.97477" lon="11.0015067"><ele>688.0000000000001</ele><time>2026-03-22T09:31:47.394Z</time></trkpt><trkpt lat="43.9748233" lon="11.00158"><ele>688.0</ele><time>2026-03-22T09:31:48.394Z</time></trkpt><trkpt lat="43.9748767" lon="11.00166"><ele>690.5999999999999</ele><time>2026-03-22T09:31:49.394Z</time></trkpt><trkpt lat="43.97493" lon="11.0017317"><ele>693.1999999999999</ele><time>2026-03-22T09:31:50.394Z</time></trkpt><trkpt lat="43.9749667" lon="11.001805"><ele>695.8</ele><time>2026-03-22T09:31:51.394Z</time></trkpt><trkpt lat="43.9750117" lon="11.0019667"><ele>698.4</ele><time>2026-03-22T09:31:53.393Z</time></trkpt><trkpt lat="43.9750533" lon="11.0021333"><ele>701.0</ele><time>2026-03-22T09:31:55.394Z</time></trkpt><trkpt lat="43.975095" lon="11.0022117"><ele>701.0</ele><time>2026-03-22T09:31:56.393Z</time></trkpt><trkpt lat="43.9751433" lon="11.0022917"><ele>701.0</ele><time>2026-03-22T09:31:57.394Z</time></trkpt><trkpt lat="43.9751867" lon="11.00236"><ele>701.0</ele><time>2026-03-22T09:31:58.394Z</time></trkpt><trkpt lat="43.9752433" lon="11.00244"><ele>701.0</ele><time>2026-03-22T09:31:59.394Z</time></trkpt><trkpt lat="43.975305" lon="11.0025017"><ele>701.0</ele><time>2026-03-22T09:32:00.394Z</time></trkpt><trkpt lat="43.9753783" lon="11.002545"><ele>701.0</ele><time>2026-03-22T09:32:01.393Z</time></trkpt><trkpt lat="43.9754433" lon="11.0025783"><ele>701.0</ele><time>2026-03-22T09:32:02.394Z</time></trkpt><trkpt lat="43.97552" lon="11.0026117"><ele>706.0</ele><time>2026-03-22T09:32:03.394Z</time></trkpt><trkpt lat="43.9755967" lon="11.0026417"><ele>711.0</ele><time>2026-03-22T09:32:04.393Z</time></trkpt><trkpt lat="43.9756833" lon="11.0026717"><ele>716.0</ele><time>2026-03-22T09:32:05.393Z</time></trkpt><trkpt lat="43.9757583" lon="11.0026783"><ele>721.0</ele><time>2026-03-22T09:32:06.393Z</time></trkpt><trkpt lat="43.97584" lon="11.00267"><ele>726.0</ele><time>2026-03-22T09:32:07.393Z</time></trkpt><trkpt lat="43.9759183" lon="11.0026267"><ele>731.0</ele><time>2026-03-22T09:32:08.394Z</time></trkpt><trkpt lat="43.9760033" lon="11.0026067"><ele>733.4</ele><time>2026-03-22T09:32:09.394Z</time></trkpt><trkpt lat="43.9760933" lon="11.0025783"><ele>735.8</ele><time>2026-03-22T09:32:10.393Z</time></trkpt><trkpt lat="43.9761833" lon="11.00254"><ele>738.1999999999999</ele><time>2026-03-22T09:32:11.393Z</time></trkpt><trkpt lat="43.9762617" lon="11.0025117"><ele>740.5999999999999</ele><time>2026-03-22T09:32:12.393Z</time></trkpt><trkpt lat="43.9763617" lon="11.00247"><ele>743.0</ele><time>2026-03-22T09:32:14.393Z</time></trkpt><trkpt lat="43.976435" lon="11.0024267"><ele>743.0</ele><time>2026-03-22T09:32:16.394Z</time></trkpt><trkpt lat="43.9763517" lon="11.0024783"><ele>743.0</ele><time>2026-03-22T09:32:38.394Z</time></trkpt><trkpt lat="43.9762683" lon="11.0025133"><ele>743.0</ele><time>2026-03-22T09:32:40.394Z</time></trkpt><trkpt lat="43.9761567" lon="11.0026"><ele>743.0</ele><time>2026-03-22T09:32:42.394Z</time></trkpt><trkpt lat="43.9760983" lon="11.002665"><ele>743.0</ele><time>2026-03-22T09:32:43.394Z</time></trkpt><trkpt lat="43.976035" lon="11.002725"><ele>743.0</ele><time>2026-03-22T09:32:44.394Z</time></trkpt><trkpt lat="43.975975" lon="11.0027817"><ele>743.0</ele><time>2026-03-22T09:32:45.394Z</time></trkpt><trkpt lat="43.9759067" lon="11.0028333"><ele>743.0</ele><time>2026-03-22T09:32:46.394Z</time></trkpt><trkpt lat="43.9758317" lon="11.002875"><ele>743.0</ele><time>2026-03-22T09:32:47.393Z</time></trkpt><trkpt lat="43.9757617" lon="11.00294"><ele>743.0</ele><time>2026-03-22T09:32:48.393Z</time></trkpt><trkpt lat="43.9757017" lon="11.0029917"><ele>743.0</ele><time>2026-03-22T09:32:49.394Z</time></trkpt><trkpt lat="43.9756533" lon="11.00306"><ele>741.0</ele><time>2026-03-22T09:32:50.394Z</time></trkpt><trkpt lat="43.9756067" lon="11.0031233"><ele>739.0</ele><time>2026-03-22T09:32:51.394Z</time></trkpt><trkpt lat="43.9755583" lon="11.0031867"><ele>737.0</ele><time>2026-03-22T09:32:52.393Z</time></trkpt><trkpt lat="43.9755017" lon="11.0032517"><ele>735.0</ele><time>2026-03-22T09:32:53.394Z</time></trkpt><trkpt lat="43.9754333" lon="11.0033317"><ele>733.0</ele><time>2026-03-22T09:32:54.393Z</time></trkpt><trkpt lat="43.9753533" lon="11.00341"><ele>731.0</ele><time>2026-03-22T09:32:55.393Z</time></trkpt><trkpt lat="43.9752533" lon="11.00348"><ele>737.25</ele><time>2026-03-22T09:32:56.394Z</time></trkpt><trkpt lat="43.975145" lon="11.0035467"><ele>743.5</ele><time>2026-03-22T09:32:57.393Z</time></trkpt><trkpt lat="43.9750383" lon="11.0036017"><ele>749.75</ele><time>2026-03-22T09:32:58.393Z</time></trkpt><trkpt lat="43.9749317" lon="11.0036683"><ele>756.0</ele><time>2026-03-22T09:32:59.393Z</time></trkpt><trkpt lat="43.974835" lon="11.00374"><ele>756.0</ele><time>2026-03-22T09:33:00.393Z</time></trkpt><trkpt lat="43.9747317" lon="11.0038217"><ele>756.0</ele><time>2026-03-22T09:33:01.394Z</time></trkpt><trkpt lat="43.9746317" lon="11.003895"><ele>756.0</ele><time>2026-03-22T09:33:02.393Z</time></trkpt><trkpt lat="43.9745383" lon="11.00397"><ele>756.0</ele><time>2026-03-22T09:33:03.394Z</time></trkpt><trkpt lat="43.9744467" lon="11.0040383"><ele>756.0</ele><time>2026-03-22T09:33:04.393Z</time></trkpt><trkpt lat="43.9743517" lon="11.0040817"><ele>756.0</ele><time>2026-03-22T09:33:05.393Z</time></trkpt><trkpt lat="43.9742633" lon="11.0041267"><ele>756.0</ele><time>2026-03-22T09:33:06.393Z</time></trkpt><trkpt lat="43.9741783" lon="11.0041733"><ele>756.0</ele><time>2026-03-22T09:33:07.394Z</time></trkpt><trkpt lat="43.9741017" lon="11.00421"><ele>756.0</ele><time>2026-03-22T09:33:08.394Z</time></trkpt><trkpt lat="43.9740317" lon="11.0042317"><ele>756.0</ele><time>2026-03-22T09:33:09.393Z</time></trkpt><trkpt lat="43.9739567" lon="11.00423"><ele>756.0</ele><time>2026-03-22T09:33:10.393Z</time></trkpt><trkpt lat="43.97388" lon="11.0042317"><ele>754.6666666666666</ele><time>2026-03-22T09:33:11.393Z</time></trkpt><trkpt lat="43.9737967" lon="11.0042017"><ele>753.3333333333334</ele><time>2026-03-22T09:33:12.393Z</time></trkpt><trkpt lat="43.9737217" lon="11.0041717"><ele>752.0</ele><time>2026-03-22T09:33:13.393Z</time></trkpt><trkpt lat="43.97365" lon="11.00413"><ele>750.6666666666667</ele><time>2026-03-22T09:33:14.394Z</time></trkpt><trkpt lat="43.9735683" lon="11.00406"><ele>749.3333333333334</ele><time>2026-03-22T09:33:15.394Z</time></trkpt><trkpt lat="43.9734867" lon="11.00397"><ele>748.0</ele><time>2026-03-22T09:33:16.394Z</time></trkpt><trkpt lat="43.973405" lon="11.003905"><ele>749.8333333333334</ele><time>2026-03-22T09:33:17.393Z</time></trkpt><trkpt lat="43.97333" lon="11.0038483"><ele>751.6666666666667</ele><time>2026-03-22T09:33:18.393Z</time></trkpt><trkpt lat="43.973255" lon="11.0037833"><ele>753.5</ele><time>2026-03-22T09:33:19.393Z</time></trkpt><trkpt lat="43.9731867" lon="11.0037083"><ele>755.3333333333334</ele><time>2026-03-22T09:33:20.393Z</time></trkpt><trkpt lat="43.9731317" lon="11.0036533"><ele>757.1666666666666</ele><time>2026-03-22T09:33:21.394Z</time></trkpt><trkpt lat="43.9730683" lon="11.0036183"><ele>759.0</ele><time>2026-03-22T09:33:22.394Z</time></trkpt><trkpt lat="43.9729883" lon="11.0036117"><ele>759.0</ele><time>2026-03-22T09:33:23.393Z</time></trkpt><trkpt lat="43.972915" lon="11.0036117"><ele>759.0</ele><time>2026-03-22T09:33:24.393Z</time></trkpt><trkpt lat="43.9728017" lon="11.0036383"><ele>759.0</ele><time>2026-03-22T09:33:26.393Z</time></trkpt><trkpt lat="43.9726967" lon="11.0036817"><ele>759.0</ele><time>2026-03-22T09:33:28.394Z</time></trkpt><trkpt lat="43.9726383" lon="11.0037167"><ele>759.0</ele><time>2026-03-22T09:33:29.393Z</time></trkpt><trkpt lat="43.9725867" lon="11.00377"><ele>759.0</ele><time>2026-03-22T09:33:30.393Z</time></trkpt><trkpt lat="43.9724917" lon="11.0038483"><ele>758.4000000000001</ele><time>2026-03-22T09:33:32.393Z</time></trkpt><trkpt lat="43.9724083" lon="11.0039033"><ele>757.8</ele><time>2026-03-22T09:33:34.393Z</time></trkpt><trkpt lat="43.9723317" lon="11.003965"><ele>757.2</ele><time>2026-03-22T09:33:36.394Z</time></trkpt><trkpt lat="43.97227" lon="11.0040333"><ele>756.5999999999999</ele><time>2026-03-22T09:33:38.392Z</time></trkpt><trkpt lat="43.972195" lon="11.00411"><ele>756.0</ele><time>2026-03-22T09:33:40.393Z</time></trkpt><trkpt lat="43.9721167" lon="11.0041933"><ele>756.0</ele><time>2026-03-22T09:33:42.393Z</time></trkpt><trkpt lat="43.97202" lon="11.0043017"><ele>756.0</ele><time>2026-03-22T09:33:51.393Z</time></trkpt><trkpt lat="43.9719283" lon="11.0043783"><ele>756.0</ele><time>2026-03-22T09:33:53.392Z</time></trkpt><trkpt lat="43.9718683" lon="11.0044333"><ele>756.0</ele><time>2026-03-22T09:33:54.392Z</time></trkpt><trkpt lat="43.971805" lon="11.0044983"><ele>756.0</ele><time>2026-03-22T09:33:55.392Z</time></trkpt><trkpt lat="43.971745" lon="11.0045583"><ele>759.0</ele><time>2026-03-22T09:33:56.392Z</time></trkpt><trkpt lat="43.9716883" lon="11.0046117"><ele>762.0</ele><time>2026-03-22T09:33:57.393Z</time></trkpt><trkpt lat="43.971625" lon="11.0046667"><ele>765.0</ele><time>2026-03-22T09:33:58.393Z</time></trkpt><trkpt lat="43.9715683" lon="11.0047233"><ele>768.0</ele><time>2026-03-22T09:33:59.394Z</time></trkpt><trkpt lat="43.9715" lon="11.0047817"><ele>771.0</ele><time>2026-03-22T09:34:00.392Z</time></trkpt><trkpt lat="43.9714283" lon="11.0048383"><ele>774.0</ele><time>2026-03-22T09:34:01.392Z</time></trkpt><trkpt lat="43.971355" lon="11.0048967"><ele>774.0</ele><time>2026-03-22T09:34:02.393Z</time></trkpt><trkpt lat="43.9712783" lon="11.0049617"><ele>774.0</ele><time>2026-03-22T09:34:03.393Z</time></trkpt><trkpt lat="43.9711983" lon="11.005025"><ele>774.0</ele><time>2026-03-22T09:34:04.393Z</time></trkpt><trkpt lat="43.97112" lon="11.005085"><ele>774.0</ele><time>2026-03-22T09:34:05.394Z</time></trkpt><trkpt lat="43.9710417" lon="11.0051517"><ele>774.0</ele><time>2026-03-22T09:34:06.394Z</time></trkpt><trkpt lat="43.9709583" lon="11.0052217"><ele>774.2</ele><time>2026-03-22T09:34:07.393Z</time></trkpt><trkpt lat="43.97088" lon="11.0053067"><ele>774.4000000000001</ele><time>2026-03-22T09:34:08.393Z</time></trkpt><trkpt lat="43.9708167" lon="11.0054033"><ele>774.6</ele><time>2026-03-22T09:34:09.393Z</time></trkpt><trkpt lat="43.970755" lon="11.0055033"><ele>774.8</ele><time>2026-03-22T09:34:10.394Z</time></trkpt><trkpt lat="43.9706867" lon="11.00562"><ele>775.0</ele><time>2026-03-22T09:34:11.393Z</time></trkpt><trkpt lat="43.9706283" lon="11.0057367"><ele>772.4999999999999</ele><time>2026-03-22T09:34:12.393Z</time></trkpt><trkpt lat="43.9705783" lon="11.00586"><ele>770.0</ele><time>2026-03-22T09:34:13.394Z</time></trkpt><trkpt lat="43.9705333" lon="11.0059717"><ele>767.5</ele><time>2026-03-22T09:34:14.393Z</time></trkpt><trkpt lat="43.9704933" lon="11.0060767"><ele>765.0</ele><time>2026-03-22T09:34:15.394Z</time></trkpt><trkpt lat="43.9704467" lon="11.0061717"><ele>762.5</ele><time>2026-03-22T09:34:16.394Z</time></trkpt><trkpt lat="43.9703883" lon="11.00626"><ele>760.0</ele><time>2026-03-22T09:34:17.394Z</time></trkpt><trkpt lat="43.9703267" lon="11.0063467"><ele>760.0</ele><time>2026-03-22T09:34:18.394Z</time></trkpt><trkpt lat="43.9702683" lon="11.0064267"><ele>760.0</ele><time>2026-03-22T09:34:19.393Z</time></trkpt><trkpt lat="43.97021" lon="11.006505"><ele>760.0</ele><time>2026-03-22T09:34:20.394Z</time></trkpt><trkpt lat="43.97015" lon="11.0065867"><ele>760.0</ele><time>2026-03-22T09:34:21.393Z</time></trkpt><trkpt lat="43.9700967" lon="11.0066517"><ele>760.0</ele><time>2026-03-22T09:34:22.394Z</time></trkpt><trkpt lat="43.9700383" lon="11.0067117"><ele>760.0</ele><time>2026-03-22T09:34:23.394Z</time></trkpt><trkpt lat="43.969975" lon="11.0067667"><ele>759.5</ele><time>2026-03-22T09:34:24.393Z</time></trkpt><trkpt lat="43.96991" lon="11.0068167"><ele>759.0</ele><time>2026-03-22T09:34:25.393Z</time></trkpt><trkpt lat="43.96984" lon="11.0068783"><ele>758.5</ele><time>2026-03-22T09:34:26.393Z</time></trkpt><trkpt lat="43.969775" lon="11.00695"><ele>758.0</ele><time>2026-03-22T09:34:27.393Z</time></trkpt><trkpt lat="43.969705" lon="11.007015"><ele>757.5</ele><time>2026-03-22T09:34:28.393Z</time></trkpt><trkpt lat="43.9696367" lon="11.0070567"><ele>757.0</ele><time>2026-03-22T09:34:29.394Z</time></trkpt><trkpt lat="43.9695667" lon="11.0070933"><ele>757.0</ele><time>2026-03-22T09:34:30.393Z</time></trkpt><trkpt lat="43.969505" lon="11.0071433"><ele>757.0</ele><time>2026-03-22T09:34:31.394Z</time></trkpt><trkpt lat="43.9694517" lon="11.0072083"><ele>757.0</ele><time>2026-03-22T09:34:32.394Z</time></trkpt><trkpt lat="43.9693767" lon="11.00732"><ele>757.0</ele><time>2026-03-22T09:34:34.394Z</time></trkpt><trkpt lat="43.969335" lon="11.0074283"><ele>757.0</ele><time>2026-03-22T09:34:36.394Z</time></trkpt><trkpt lat="43.9693033" lon="11.00754"><ele>757.0</ele><time>2026-03-22T09:34:39.393Z</time></trkpt><trkpt lat="43.969275" lon="11.007655"><ele>754.2</ele><time>2026-03-22T09:34:42.393Z</time></trkpt><trkpt lat="43.9692083" lon="11.0077883"><ele>751.4000000000001</ele><time>2026-03-22T09:34:51.394Z</time></trkpt><trkpt lat="43.9691517" lon="11.0078933"><ele>748.5999999999999</ele><time>2026-03-22T09:34:53.394Z</time></trkpt><trkpt lat="43.96911" lon="11.0079967"><ele>745.8</ele><time>2026-03-22T09:34:54.393Z</time></trkpt><trkpt lat="43.96907" lon="11.0081083"><ele>743.0</ele><time>2026-03-22T09:34:55.393Z</time></trkpt><trkpt lat="43.969025" lon="11.0082167"><ele>742.8</ele><time>2026-03-22T09:34:56.394Z</time></trkpt><trkpt lat="43.968985" lon="11.0083267"><ele>742.5999999999999</ele><time>2026-03-22T09:34:57.393Z</time></trkpt><trkpt lat="43.968945" lon="11.0084433"><ele>742.4000000000001</ele><time>2026-03-22T09:34:58.393Z</time></trkpt><trkpt lat="43.9689033" lon="11.0085567"><ele>742.2</ele><time>2026-03-22T09:34:59.394Z</time></trkpt><trkpt lat="43.9688583" lon="11.0086667"><ele>742.0</ele><time>2026-03-22T09:35:00.394Z</time></trkpt><trkpt lat="43.96881" lon="11.0087717"><ele>742.0</ele><time>2026-03-22T09:35:01.393Z</time></trkpt><trkpt lat="43.9687633" lon="11.008875"><ele>742.0</ele><time>2026-03-22T09:35:02.394Z</time></trkpt><trkpt lat="43.9687017" lon="11.0089633"><ele>742.0</ele><time>2026-03-22T09:35:03.394Z</time></trkpt><trkpt lat="43.968645" lon="11.00904"><ele>742.0</ele><time>2026-03-22T09:35:04.394Z</time></trkpt><trkpt lat="43.9685967" lon="11.0091067"><ele>742.0</ele><time>2026-03-22T09:35:05.394Z</time></trkpt><trkpt lat="43.9685517" lon="11.0091783"><ele>742.0</ele><time>2026-03-22T09:35:06.393Z</time></trkpt><trkpt lat="43.9685017" lon="11.00924"><ele>741.8571428571429</ele><time>2026-03-22T09:35:07.393Z</time></trkpt><trkpt lat="43.96845" lon="11.0093033"><ele>741.7142857142858</ele><time>2026-03-22T09:35:08.394Z</time></trkpt><trkpt lat="43.9684017" lon="11.009375"><ele>741.5714285714286</ele><time>2026-03-22T09:35:09.393Z</time></trkpt><trkpt lat="43.9683533" lon="11.0094333"><ele>741.4285714285714</ele><time>2026-03-22T09:35:10.393Z</time></trkpt><trkpt lat="43.9683083" lon="11.0095133"><ele>741.2857142857143</ele><time>2026-03-22T09:35:11.394Z</time></trkpt><trkpt lat="43.9682617" lon="11.0095967"><ele>741.1428571428571</ele><time>2026-03-22T09:35:12.393Z</time></trkpt><trkpt lat="43.9682017" lon="11.0096717"><ele>741.0</ele><time>2026-03-22T09:35:13.393Z</time></trkpt><trkpt lat="43.9681417" lon="11.0097517"><ele>743.6666666666666</ele><time>2026-03-22T09:35:14.393Z</time></trkpt><trkpt lat="43.968085" lon="11.0098317"><ele>746.3333333333334</ele><time>2026-03-22T09:35:15.393Z</time></trkpt><trkpt lat="43.9680267" lon="11.0099083"><ele>749.0</ele><time>2026-03-22T09:35:16.394Z</time></trkpt><trkpt lat="43.96797" lon="11.0099867"><ele>751.6666666666667</ele><time>2026-03-22T09:35:17.394Z</time></trkpt><trkpt lat="43.967915" lon="11.0100567"><ele>754.3333333333334</ele><time>2026-03-22T09:35:18.393Z</time></trkpt><trkpt lat="43.96786" lon="11.0101233"><ele>757.0</ele><time>2026-03-22T09:35:19.393Z</time></trkpt><trkpt lat="43.9677933" lon="11.01019"><ele>757.6</ele><time>2026-03-22T09:35:20.393Z</time></trkpt><trkpt lat="43.9677133" lon="11.010275"><ele>758.2</ele><time>2026-03-22T09:35:21.394Z</time></trkpt><trkpt lat="43.9676433" lon="11.0103533"><ele>758.8</ele><time>2026-03-22T09:35:22.393Z</time></trkpt><trkpt lat="43.9675667" lon="11.0104217"><ele>759.4</ele><time>2026-03-22T09:35:23.394Z</time></trkpt><trkpt lat="43.9675" lon="11.0105017"><ele>760.0</ele><time>2026-03-22T09:35:24.394Z</time></trkpt><trkpt lat="43.9674333" lon="11.0105767"><ele>760.8</ele><time>2026-03-22T09:35:25.394Z</time></trkpt><trkpt lat="43.96736" lon="11.01066"><ele>761.6</ele><time>2026-03-22T09:35:26.394Z</time></trkpt><trkpt lat="43.9673" lon="11.0107433"><ele>762.4000000000001</ele><time>2026-03-22T09:35:27.394Z</time></trkpt><trkpt lat="43.9672483" lon="11.01082"><ele>763.2</ele><time>2026-03-22T09:35:28.394Z</time></trkpt><trkpt lat="43.967185" lon="11.0109217"><ele>764.0</ele><time>2026-03-22T09:35:29.393Z</time></trkpt><trkpt lat="43.9671083" lon="11.01103"><ele>764.0</ele><time>2026-03-22T09:35:30.394Z</time></trkpt><trkpt lat="43.9670317" lon="11.0111183"><ele>764.0</ele><time>2026-03-22T09:35:31.393Z</time></trkpt><trkpt lat="43.96695" lon="11.0112133"><ele>764.0</ele><time>2026-03-22T09:35:32.393Z</time></trkpt><trkpt lat="43.9668633" lon="11.0113133"><ele>764.0</ele><time>2026-03-22T09:35:33.393Z</time></trkpt><trkpt lat="43.9667817" lon="11.0114083"><ele>764.0</ele><time>2026-03-22T09:35:34.393Z</time></trkpt><trkpt lat="43.9667017" lon="11.0115"><ele>763.8333333333333</ele><time>2026-03-22T09:35:35.394Z</time></trkpt><trkpt lat="43.96663" lon="11.01157"><ele>763.6666666666666</ele><time>2026-03-22T09:35:36.394Z</time></trkpt><trkpt lat="43.96657" lon="11.011645"><ele>763.5</ele><time>2026-03-22T09:35:37.393Z</time></trkpt><trkpt lat="43.966515" lon="11.0117267"><ele>763.3333333333334</ele><time>2026-03-22T09:35:38.393Z</time></trkpt><trkpt lat="43.9664583" lon="11.0118133"><ele>763.1666666666667</ele><time>2026-03-22T09:35:39.393Z</time></trkpt><trkpt lat="43.9663933" lon="11.0119167"><ele>763.0</ele><time>2026-03-22T09:35:40.393Z</time></trkpt><trkpt lat="43.9663217" lon="11.0120283"><ele>763.0</ele><time>2026-03-22T09:35:41.393Z</time></trkpt><trkpt lat="43.96626" lon="11.01213"><ele>763.0</ele><time>2026-03-22T09:35:42.393Z</time></trkpt><trkpt lat="43.9661917" lon="11.0122367"><ele>763.0</ele><time>2026-03-22T09:35:43.394Z</time></trkpt><trkpt lat="43.9661233" lon="11.0123283"><ele>763.0</ele><time>2026-03-22T09:35:44.394Z</time></trkpt><trkpt lat="43.966055" lon="11.0124433"><ele>763.0</ele><time>2026-03-22T09:35:45.393Z</time></trkpt><trkpt lat="43.9659933" lon="11.0125433"><ele>762.5</ele><time>2026-03-22T09:35:46.393Z</time></trkpt><trkpt lat="43.965935" lon="11.0126283"><ele>762.0</ele><time>2026-03-22T09:35:47.394Z</time></trkpt><trkpt lat="43.9658783" lon="11.0127167"><ele>761.5</ele><time>2026-03-22T09:35:48.393Z</time></trkpt><trkpt lat="43.96582" lon="11.0127817"><ele>761.0</ele><time>2026-03-22T09:35:49.394Z</time></trkpt><trkpt lat="43.9657633" lon="11.0128533"><ele>760.5</ele><time>2026-03-22T09:35:50.394Z</time></trkpt><trkpt lat="43.9657" lon="11.0129317"><ele>760.0</ele><time>2026-03-22T09:35:51.394Z</time></trkpt><trkpt lat="43.9656417" lon="11.0130133"><ele>760.0</ele><time>2026-03-22T09:35:52.393Z</time></trkpt><trkpt lat="43.9655783" lon="11.0131083"><ele>760.0</ele><time>2026-03-22T09:35:53.393Z</time></trkpt><trkpt lat="43.9655183" lon="11.013225"><ele>760.0</ele><time>2026-03-22T09:35:54.394Z</time></trkpt><trkpt lat="43.9654483" lon="11.013345"><ele>760.0</ele><time>2026-03-22T09:35:55.394Z</time></trkpt><trkpt lat="43.96539" lon="11.01346"><ele>760.0</ele><time>2026-03-22T09:35:56.394Z</time></trkpt><trkpt lat="43.9653283" lon="11.0135683"><ele>759.1666666666667</ele><time>2026-03-22T09:35:57.394Z</time></trkpt><trkpt lat="43.9652733" lon="11.01365"><ele>758.3333333333334</ele><time>2026-03-22T09:35:58.393Z</time></trkpt><trkpt lat="43.965215" lon="11.013725"><ele>757.5</ele><time>2026-03-22T09:35:59.393Z</time></trkpt><trkpt lat="43.9651617" lon="11.0138"><ele>756.6666666666666</ele><time>2026-03-22T09:36:00.394Z</time></trkpt><trkpt lat="43.9651083" lon="11.0138733"><ele>755.8333333333333</ele><time>2026-03-22T09:36:01.394Z</time></trkpt><trkpt lat="43.9650433" lon="11.0139333"><ele>755.0</ele><time>2026-03-22T09:36:03.393Z</time></trkpt><trkpt lat="43.964935" lon="11.01406"><ele>755.4</ele><time>2026-03-22T09:42:20.393Z</time></trkpt><trkpt lat="43.964905" lon="11.0141867"><ele>755.8</ele><time>2026-03-22T09:42:26.393Z</time></trkpt><trkpt lat="43.9648767" lon="11.014315"><ele>756.2</ele><time>2026-03-22T09:42:28.394Z</time></trkpt><trkpt lat="43.9648483" lon="11.0144733"><ele>756.6</ele><time>2026-03-22T09:42:30.394Z</time></trkpt><trkpt lat="43.964805" lon="11.0146267"><ele>757.0</ele><time>2026-03-22T09:42:32.393Z</time></trkpt><trkpt lat="43.964775" lon="11.0147067"><ele>757.0</ele><time>2026-03-22T09:42:33.394Z</time></trkpt><trkpt lat="43.9647217" lon="11.0148383"><ele>757.0</ele><time>2026-03-22T09:42:35.393Z</time></trkpt><trkpt lat="43.9646533" lon="11.0149433"><ele>757.0</ele><time>2026-03-22T09:42:37.394Z</time></trkpt><trkpt lat="43.9645867" lon="11.0150117"><ele>757.0</ele><time>2026-03-22T09:42:39.394Z</time></trkpt><trkpt lat="43.9645233" lon="11.0150467"><ele>757.0</ele><time>2026-03-22T09:42:41.393Z</time></trkpt><trkpt lat="43.9644617" lon="11.0150717"><ele>757.0</ele><time>2026-03-22T09:42:43.393Z</time></trkpt><trkpt lat="43.9643967" lon="11.0151017"><ele>757.1666666666667</ele><time>2026-03-22T09:42:45.394Z</time></trkpt><trkpt lat="43.9643317" lon="11.01512"><ele>757.3333333333334</ele><time>2026-03-22T09:42:47.393Z</time></trkpt><trkpt lat="43.9642417" lon="11.0151017"><ele>757.5</ele><time>2026-03-22T09:42:50.393Z</time></trkpt><trkpt lat="43.9641683" lon="11.0150617"><ele>757.6666666666666</ele><time>2026-03-22T09:42:52.394Z</time></trkpt><trkpt lat="43.9640833" lon="11.015025"><ele>757.8333333333333</ele><time>2026-03-22T09:42:54.393Z</time></trkpt><trkpt lat="43.9639833" lon="11.0149917"><ele>758.0</ele><time>2026-03-22T09:42:56.394Z</time></trkpt><trkpt lat="43.96388" lon="11.0149483"><ele>755.1666666666666</ele><time>2026-03-22T09:42:58.393Z</time></trkpt><trkpt lat="43.9638" lon="11.0149033"><ele>752.3333333333333</ele><time>2026-03-22T09:43:00.394Z</time></trkpt><trkpt lat="43.9637433" lon="11.0148633"><ele>749.5</ele><time>2026-03-22T09:43:02.393Z</time></trkpt><trkpt lat="43.9636717" lon="11.0148367"><ele>746.6666666666666</ele><time>2026-03-22T09:43:04.393Z</time></trkpt><trkpt lat="43.9635783" lon="11.0148"><ele>743.8333333333334</ele><time>2026-03-22T09:43:07.393Z</time></trkpt><trkpt lat="43.96351" lon="11.014795"><ele>741.0</ele><time>2026-03-22T09:43:09.393Z</time></trkpt><trkpt lat="43.96344" lon="11.0148117"><ele>737.4</ele><time>2026-03-22T09:43:11.393Z</time></trkpt><trkpt lat="43.9633567" lon="11.0148067"><ele>733.8</ele><time>2026-03-22T09:43:13.394Z</time></trkpt><trkpt lat="43.9632467" lon="11.0147717"><ele>730.1999999999999</ele><time>2026-03-22T09:43:15.394Z</time></trkpt><trkpt lat="43.963185" lon="11.014745"><ele>726.5999999999999</ele><time>2026-03-22T09:43:16.394Z</time></trkpt><trkpt lat="43.96307" lon="11.0147333"><ele>723.0</ele><time>2026-03-22T09:43:18.393Z</time></trkpt><trkpt lat="43.962965" lon="11.0147483"><ele>723.0</ele><time>2026-03-22T09:43:20.392Z</time></trkpt><trkpt lat="43.9628767" lon="11.014755"><ele>723.0</ele><time>2026-03-22T09:43:22.392Z</time></trkpt><trkpt lat="43.962785" lon="11.0147517"><ele>723.0</ele><time>2026-03-22T09:43:24.392Z</time></trkpt><trkpt lat="43.9626867" lon="11.0147533"><ele>723.0</ele><time>2026-03-22T09:43:26.393Z</time></trkpt><trkpt lat="43.9625583" lon="11.0147867"><ele>723.0</ele><time>2026-03-22T09:43:28.393Z</time></trkpt><trkpt lat="43.9624717" lon="11.0148"><ele>721.0</ele><time>2026-03-22T09:43:30.392Z</time></trkpt><trkpt lat="43.9623867" lon="11.0148117"><ele>719.0</ele><time>2026-03-22T09:43:32.392Z</time></trkpt><trkpt lat="43.962295" lon="11.0148317"><ele>717.0</ele><time>2026-03-22T09:43:34.393Z</time></trkpt><trkpt lat="43.962205" lon="11.0148717"><ele>715.0</ele><time>2026-03-22T09:43:36.392Z</time></trkpt><trkpt lat="43.9621333" lon="11.0149017"><ele>713.0</ele><time>2026-03-22T09:43:38.393Z</time></trkpt><trkpt lat="43.9620467" lon="11.01492"><ele>711.0</ele><time>2026-03-22T09:43:40.392Z</time></trkpt><trkpt lat="43.9619817" lon="11.0149083"><ele>711.0</ele><time>2026-03-22T09:43:42.392Z</time></trkpt><trkpt lat="43.961905" lon="11.0149"><ele>711.0</ele><time>2026-03-22T09:43:45.393Z</time></trkpt><trkpt lat="43.961885" lon="11.0147767"><ele>711.0</ele><time>2026-03-22T09:43:49.394Z</time></trkpt><trkpt lat="43.9618833" lon="11.01468"><ele>711.0</ele><time>2026-03-22T09:43:51.394Z</time></trkpt><trkpt lat="43.9618917" lon="11.0145917"><ele>711.0</ele><time>2026-03-22T09:43:53.393Z</time></trkpt><trkpt lat="43.96192" lon="11.0145033"><ele>711.0</ele><time>2026-03-22T09:43:56.394Z</time></trkpt><trkpt lat="43.961965" lon="11.0143917"><ele>711.0</ele><time>2026-03-22T09:43:59.394Z</time></trkpt><trkpt lat="43.962005" lon="11.0143167"><ele>711.0</ele><time>2026-03-22T09:44:01.393Z</time></trkpt><trkpt lat="43.9620417" lon="11.01424"><ele>711.0</ele><time>2026-03-22T09:44:03.393Z</time></trkpt><trkpt lat="43.96209" lon="11.0141833"><ele>711.0</ele><time>2026-03-22T09:44:05.394Z</time></trkpt><trkpt lat="43.9621183" lon="11.0140867"><ele>711.0</ele><time>2026-03-22T09:44:07.394Z</time></trkpt><trkpt lat="43.9621683" lon="11.0140217"><ele>711.0</ele><time>2026-03-22T09:44:09.393Z</time></trkpt><trkpt lat="43.96223" lon="11.0139317"><ele>711.0</ele><time>2026-03-22T09:44:11.394Z</time></trkpt><trkpt lat="43.9622933" lon="11.0138267"><ele>710.1999999999999</ele><time>2026-03-22T09:44:13.393Z</time></trkpt><trkpt lat="43.9623633" lon="11.0137283"><ele>709.4</ele><time>2026-03-22T09:44:15.394Z</time></trkpt><trkpt lat="43.9624417" lon="11.013645"><ele>708.6</ele><time>2026-03-22T09:44:17.393Z</time></trkpt><trkpt lat="43.962535" lon="11.0135533"><ele>707.8</ele><time>2026-03-22T09:44:19.393Z</time></trkpt><trkpt lat="43.96259" lon="11.01351"><ele>707.0</ele><time>2026-03-22T09:44:20.394Z</time></trkpt><trkpt lat="43.96268" lon="11.0134017"><ele>702.4000000000001</ele><time>2026-03-22T09:44:22.394Z</time></trkpt><trkpt lat="43.9627667" lon="11.0133017"><ele>697.8000000000001</ele><time>2026-03-22T09:44:24.394Z</time></trkpt><trkpt lat="43.9628583" lon="11.01321"><ele>693.2</ele><time>2026-03-22T09:44:26.393Z</time></trkpt><trkpt lat="43.962915" lon="11.0131617"><ele>688.6</ele><time>2026-03-22T09:44:27.393Z</time></trkpt><trkpt lat="43.9630183" lon="11.0130733"><ele>684.0</ele><time>2026-03-22T09:44:29.393Z</time></trkpt><trkpt lat="43.9631033" lon="11.0129617"><ele>684.0</ele><time>2026-03-22T09:44:31.393Z</time></trkpt><trkpt lat="43.96316" lon="11.01285"><ele>684.0</ele><time>2026-03-22T09:44:33.394Z</time></trkpt><trkpt lat="43.9631983" lon="11.0127267"><ele>684.0</ele><time>2026-03-22T09:44:35.394Z</time></trkpt><trkpt lat="43.963235" lon="11.0125983"><ele>684.0</ele><time>2026-03-22T09:44:37.394Z</time></trkpt><trkpt lat="43.963265" lon="11.01247"><ele>684.0</ele><time>2026-03-22T09:44:39.393Z</time></trkpt><trkpt lat="43.9632667" lon="11.0122917"><ele>678.8000000000001</ele><time>2026-03-22T09:44:41.393Z</time></trkpt><trkpt lat="43.9632633" lon="11.0121783"><ele>673.6</ele><time>2026-03-22T09:44:43.394Z</time></trkpt><trkpt lat="43.96325" lon="11.0120633"><ele>668.4</ele><time>2026-03-22T09:44:48.394Z</time></trkpt><trkpt lat="43.9631067" lon="11.012145"><ele>663.2</ele><time>2026-03-22T09:45:01.394Z</time></trkpt><trkpt lat="43.9630083" lon="11.0122033"><ele>658.0</ele><time>2026-03-22T09:45:03.394Z</time></trkpt><trkpt lat="43.962925" lon="11.0122367"><ele>658.0</ele><time>2026-03-22T09:45:04.394Z</time></trkpt><trkpt lat="43.962845" lon="11.012265"><ele>658.0</ele><time>2026-03-22T09:45:05.394Z</time></trkpt><trkpt lat="43.962765" lon="11.0122917"><ele>658.0</ele><time>2026-03-22T09:45:06.394Z</time></trkpt><trkpt lat="43.9626933" lon="11.0123133"><ele>658.0</ele><time>2026-03-22T09:45:07.394Z</time></trkpt><trkpt lat="43.962595" lon="11.0123"><ele>658.0</ele><time>2026-03-22T09:45:09.393Z</time></trkpt><trkpt lat="43.9625983" lon="11.0122"><ele>658.0</ele><time>2026-03-22T09:45:11.394Z</time></trkpt><trkpt lat="43.9626283" lon="11.0120967"><ele>658.0</ele><time>2026-03-22T09:45:13.394Z</time></trkpt><trkpt lat="43.9626833" lon="11.0120517"><ele>658.0</ele><time>2026-03-22T09:45:14.393Z</time></trkpt><trkpt lat="43.9627667" lon="11.011965"><ele>658.0</ele><time>2026-03-22T09:45:16.393Z</time></trkpt><trkpt lat="43.962835" lon="11.0119133"><ele>658.0</ele><time>2026-03-22T09:45:18.393Z</time></trkpt><trkpt lat="43.96289" lon="11.0118633"><ele>658.0</ele><time>2026-03-22T09:45:20.394Z</time></trkpt><trkpt lat="43.9629467" lon="11.0118133"><ele>658.0</ele><time>2026-03-22T09:45:22.394Z</time></trkpt><trkpt lat="43.963005" lon="11.01174"><ele>659.6666666666667</ele><time>2026-03-22T09:45:24.394Z</time></trkpt><trkpt lat="43.96308" lon="11.01163"><ele>661.3333333333334</ele><time>2026-03-22T09:45:26.393Z</time></trkpt><trkpt lat="43.9631333" lon="11.0115817"><ele>663.0</ele><time>2026-03-22T09:45:27.393Z</time></trkpt><trkpt lat="43.9631933" lon="11.011515"><ele>664.6666666666666</ele><time>2026-03-22T09:45:28.394Z</time></trkpt><trkpt lat="43.9632617" lon="11.01146"><ele>666.3333333333333</ele><time>2026-03-22T09:45:29.393Z</time></trkpt><trkpt lat="43.963345" lon="11.0113983"><ele>668.0</ele><time>2026-03-22T09:45:30.394Z</time></trkpt><trkpt lat="43.963425" lon="11.0113467"><ele>668.0</ele><time>2026-03-22T09:45:31.394Z</time></trkpt><trkpt lat="43.9635" lon="11.0112867"><ele>668.0</ele><time>2026-03-22T09:45:32.394Z</time></trkpt><trkpt lat="43.9635717" lon="11.0112117"><ele>668.0</ele><time>2026-03-22T09:45:33.393Z</time></trkpt><trkpt lat="43.96364" lon="11.01113"><ele>668.0</ele><time>2026-03-22T09:45:34.393Z</time></trkpt><trkpt lat="43.9637133" lon="11.01103"><ele>668.0</ele><time>2026-03-22T09:45:35.393Z</time></trkpt><trkpt lat="43.963775" lon="11.0109383"><ele>668.0</ele><time>2026-03-22T09:45:36.394Z</time></trkpt><trkpt lat="43.9638417" lon="11.01086"><ele>668.0</ele><time>2026-03-22T09:45:37.394Z</time></trkpt><trkpt lat="43.9638967" lon="11.01078"><ele>668.0</ele><time>2026-03-22T09:45:38.394Z</time></trkpt><trkpt lat="43.9639417" lon="11.0107183"><ele>668.0</ele><time>2026-03-22T09:45:39.394Z</time></trkpt><trkpt lat="43.9639617" lon="11.0105867"><ele>668.0</ele><time>2026-03-22T09:45:41.393Z</time></trkpt><trkpt lat="43.9638617" lon="11.01056"><ele>668.0</ele><time>2026-03-22T09:45:46.394Z</time></trkpt><trkpt lat="43.9637333" lon="11.010665"><ele>668.0</ele><time>2026-03-22T09:45:48.393Z</time></trkpt><trkpt lat="43.9636533" lon="11.0107283"><ele>668.0</ele><time>2026-03-22T09:45:49.393Z</time></trkpt><trkpt lat="43.9635583" lon="11.0107867"><ele>668.0</ele><time>2026-03-22T09:45:50.394Z</time></trkpt><trkpt lat="43.9634783" lon="11.01085"><ele>668.0</ele><time>2026-03-22T09:45:51.394Z</time></trkpt><trkpt lat="43.9633817" lon="11.010945"><ele>668.0</ele><time>2026-03-22T09:45:52.393Z</time></trkpt><trkpt lat="43.9632917" lon="11.011015"><ele>662.4</ele><time>2026-03-22T09:45:53.393Z</time></trkpt><trkpt lat="43.9632067" lon="11.0110833"><ele>656.8</ele><time>2026-03-22T09:45:54.393Z</time></trkpt><trkpt lat="43.9631233" lon="11.0111517"><ele>651.2</ele><time>2026-03-22T09:45:55.394Z</time></trkpt><trkpt lat="43.9630483" lon="11.0112183"><ele>645.6</ele><time>2026-03-22T09:45:56.393Z</time></trkpt><trkpt lat="43.9629783" lon="11.0112617"><ele>640.0</ele><time>2026-03-22T09:45:57.394Z</time></trkpt><trkpt lat="43.9628633" lon="11.0113033"><ele>640.0</ele><time>2026-03-22T09:45:59.394Z</time></trkpt><trkpt lat="43.96273" lon="11.011345"><ele>640.0</ele><time>2026-03-22T09:46:01.393Z</time></trkpt><trkpt lat="43.962655" lon="11.0113733"><ele>640.0</ele><time>2026-03-22T09:46:02.393Z</time></trkpt><trkpt lat="43.96257" lon="11.0113933"><ele>640.0</ele><time>2026-03-22T09:46:03.393Z</time></trkpt><trkpt lat="43.9624783" lon="11.0114133"><ele>640.0</ele><time>2026-03-22T09:46:04.393Z</time></trkpt><trkpt lat="43.962395" lon="11.011425"><ele>637.1666666666667</ele><time>2026-03-22T09:46:05.393Z</time></trkpt><trkpt lat="43.96231" lon="11.0114267"><ele>634.3333333333334</ele><time>2026-03-22T09:46:06.394Z</time></trkpt><trkpt lat="43.96223" lon="11.01142"><ele>631.5</ele><time>2026-03-22T09:46:07.393Z</time></trkpt><trkpt lat="43.9621533" lon="11.0114"><ele>628.6666666666666</ele><time>2026-03-22T09:46:08.393Z</time></trkpt><trkpt lat="43.962075" lon="11.011375"><ele>625.8333333333333</ele><time>2026-03-22T09:46:09.393Z</time></trkpt><trkpt lat="43.9620117" lon="11.011345"><ele>623.0</ele><time>2026-03-22T09:46:10.393Z</time></trkpt><trkpt lat="43.96194" lon="11.0113167"><ele>623.0</ele><time>2026-03-22T09:46:11.393Z</time></trkpt><trkpt lat="43.9618667" lon="11.011295"><ele>623.0</ele><time>2026-03-22T09:46:12.393Z</time></trkpt><trkpt lat="43.9618017" lon="11.011275"><ele>623.0</ele><time>2026-03-22T09:46:13.393Z</time></trkpt><trkpt lat="43.9616917" lon="11.011215"><ele>623.0</ele><time>2026-03-22T09:46:15.393Z</time></trkpt><trkpt lat="43.9616483" lon="11.01114"><ele>623.0</ele><time>2026-03-22T09:46:17.393Z</time></trkpt><trkpt lat="43.961695" lon="11.0110783"><ele>623.0</ele><time>2026-03-22T09:46:21.393Z</time></trkpt><trkpt lat="43.961795" lon="11.011045"><ele>623.0</ele><time>2026-03-22T09:46:23.393Z</time></trkpt><trkpt lat="43.961875" lon="11.0110283"><ele>623.0</ele><time>2026-03-22T09:46:24.394Z</time></trkpt><trkpt lat="43.962035" lon="11.011025"><ele>623.0</ele><time>2026-03-22T09:46:25.393Z</time></trkpt><trkpt lat="43.9621467" lon="11.0110117"><ele>623.0</ele><time>2026-03-22T09:46:26.394Z</time></trkpt><trkpt lat="43.9622133" lon="11.0109933"><ele>623.0</ele><time>2026-03-22T09:46:27.393Z</time></trkpt><trkpt lat="43.9623067" lon="11.0109633"><ele>623.0</ele><time>2026-03-22T09:46:29.393Z</time></trkpt><trkpt lat="43.962425" lon="11.0108517"><ele>623.0</ele><time>2026-03-22T09:46:53.394Z</time></trkpt><trkpt lat="43.9624767" lon="11.0107483"><ele>623.0</ele><time>2026-03-22T09:51:05.393Z</time></trkpt><trkpt lat="43.9625317" lon="11.010705"><ele>623.0</ele><time>2026-03-22T09:51:06.394Z</time></trkpt><trkpt lat="43.9625883" lon="11.0106367"><ele>623.0</ele><time>2026-03-22T09:51:07.394Z</time></trkpt><trkpt lat="43.9626317" lon="11.0105667"><ele>623.0</ele><time>2026-03-22T09:51:08.394Z</time></trkpt><trkpt lat="43.962665" lon="11.010485"><ele>622.6666666666666</ele><time>2026-03-22T09:51:09.393Z</time></trkpt><trkpt lat="43.9626967" lon="11.0103967"><ele>622.3333333333333</ele><time>2026-03-22T09:51:10.394Z</time></trkpt><trkpt lat="43.9627433" lon="11.0103283"><ele>622.0</ele><time>2026-03-22T09:51:11.393Z</time></trkpt><trkpt lat="43.96279" lon="11.0102583"><ele>621.6666666666666</ele><time>2026-03-22T09:51:12.393Z</time></trkpt><trkpt lat="43.9628417" lon="11.0101933"><ele>621.3333333333334</ele><time>2026-03-22T09:51:13.393Z</time></trkpt><trkpt lat="43.96292" lon="11.01007"><ele>621.0</ele><time>2026-03-22T09:51:15.393Z</time></trkpt><trkpt lat="43.9629467" lon="11.009985"><ele>621.0</ele><time>2026-03-22T09:51:16.394Z</time></trkpt><trkpt lat="43.962945" lon="11.009875"><ele>621.0</ele><time>2026-03-22T09:51:17.394Z</time></trkpt><trkpt lat="43.96293" lon="11.0097483"><ele>621.0</ele><time>2026-03-22T09:51:18.394Z</time></trkpt><trkpt lat="43.96292" lon="11.0096467"><ele>621.0</ele><time>2026-03-22T09:51:19.393Z</time></trkpt><trkpt lat="43.9628933" lon="11.0095433"><ele>621.0</ele><time>2026-03-22T09:51:20.393Z</time></trkpt><trkpt lat="43.9628817" lon="11.009435"><ele>621.0</ele><time>2026-03-22T09:51:21.394Z</time></trkpt><trkpt lat="43.9628767" lon="11.00933"><ele>621.0</ele><time>2026-03-22T09:51:22.394Z</time></trkpt><trkpt lat="43.96287" lon="11.0092133"><ele>621.0</ele><time>2026-03-22T09:51:23.394Z</time></trkpt><trkpt lat="43.96287" lon="11.0091"><ele>621.0</ele><time>2026-03-22T09:51:24.394Z</time></trkpt><trkpt lat="43.962865" lon="11.008995"><ele>621.0</ele><time>2026-03-22T09:51:25.393Z</time></trkpt><trkpt lat="43.9628733" lon="11.0088933"><ele>621.0</ele><time>2026-03-22T09:51:26.394Z</time></trkpt><trkpt lat="43.962895" lon="11.008795"><ele>621.0</ele><time>2026-03-22T09:51:27.393Z</time></trkpt><trkpt lat="43.9629167" lon="11.0086933"><ele>618.6</ele><time>2026-03-22T09:51:28.393Z</time></trkpt><trkpt lat="43.9629517" lon="11.008585"><ele>616.2</ele><time>2026-03-22T09:51:29.393Z</time></trkpt><trkpt lat="43.963" lon="11.0084733"><ele>613.8</ele><time>2026-03-22T09:51:30.394Z</time></trkpt><trkpt lat="43.9630667" lon="11.0083733"><ele>611.4</ele><time>2026-03-22T09:51:31.393Z</time></trkpt><trkpt lat="43.9631017" lon="11.00824"><ele>609.0</ele><time>2026-03-22T09:51:32.393Z</time></trkpt><trkpt lat="43.9631533" lon="11.0081217"><ele>611.0</ele><time>2026-03-22T09:51:33.394Z</time></trkpt><trkpt lat="43.9632" lon="11.0080117"><ele>613.0</ele><time>2026-03-22T09:51:34.394Z</time></trkpt><trkpt lat="43.9632433" lon="11.0078883"><ele>615.0</ele><time>2026-03-22T09:51:35.393Z</time></trkpt><trkpt lat="43.963285" lon="11.007765"><ele>617.0</ele><time>2026-03-22T09:51:36.394Z</time></trkpt><trkpt lat="43.9633133" lon="11.00764"><ele>619.0</ele><time>2026-03-22T09:51:37.393Z</time></trkpt><trkpt lat="43.9633733" lon="11.0075117"><ele>614.2</ele><time>2026-03-22T09:51:38.393Z</time></trkpt><trkpt lat="43.9633967" lon="11.0073567"><ele>609.4</ele><time>2026-03-22T09:51:39.393Z</time></trkpt><trkpt lat="43.963415" lon="11.0072333"><ele>604.6</ele><time>2026-03-22T09:51:40.393Z</time></trkpt><trkpt lat="43.96343" lon="11.0070967"><ele>599.8</ele><time>2026-03-22T09:51:41.393Z</time></trkpt><trkpt lat="43.9634617" lon="11.0069833"><ele>595.0</ele><time>2026-03-22T09:51:42.393Z</time></trkpt><trkpt lat="43.9634867" lon="11.0068633"><ele>595.0</ele><time>2026-03-22T09:51:43.394Z</time></trkpt><trkpt lat="43.963515" lon="11.006775"><ele>595.0</ele><time>2026-03-22T09:51:44.394Z</time></trkpt><trkpt lat="43.9635267" lon="11.0066767"><ele>595.0</ele><time>2026-03-22T09:51:45.393Z</time></trkpt><trkpt lat="43.9634967" lon="11.006535"><ele>595.0</ele><time>2026-03-22T09:51:47.393Z</time></trkpt><trkpt lat="43.963435" lon="11.0065"><ele>595.0</ele><time>2026-03-22T09:51:48.393Z</time></trkpt><trkpt lat="43.9633433" lon="11.0065417"><ele>595.0</ele><time>2026-03-22T09:51:49.394Z</time></trkpt><trkpt lat="43.9632417" lon="11.0066"><ele>592.8</ele><time>2026-03-22T09:51:50.393Z</time></trkpt><trkpt lat="43.9631433" lon="11.0066783"><ele>590.6</ele><time>2026-03-22T09:51:51.393Z</time></trkpt><trkpt lat="43.9630717" lon="11.0067433"><ele>588.4</ele><time>2026-03-22T09:51:52.393Z</time></trkpt><trkpt lat="43.963005" lon="11.0068333"><ele>586.2</ele><time>2026-03-22T09:51:53.394Z</time></trkpt><trkpt lat="43.9629533" lon="11.0069467"><ele>584.0</ele><time>2026-03-22T09:51:54.393Z</time></trkpt><trkpt lat="43.9629233" lon="11.0070533"><ele>584.0</ele><time>2026-03-22T09:51:55.394Z</time></trkpt><trkpt lat="43.962885" lon="11.0071767"><ele>584.0</ele><time>2026-03-22T09:51:56.393Z</time></trkpt><trkpt lat="43.96284" lon="11.0072483"><ele>584.0</ele><time>2026-03-22T09:51:57.393Z</time></trkpt><trkpt lat="43.9627933" lon="11.0073267"><ele>584.0</ele><time>2026-03-22T09:51:58.393Z</time></trkpt><trkpt lat="43.9627033" lon="11.00741"><ele>584.0</ele><time>2026-03-22T09:52:00.394Z</time></trkpt><trkpt lat="43.962585" lon="11.007335"><ele>581.5</ele><time>2026-03-22T09:52:02.393Z</time></trkpt><trkpt lat="43.9625167" lon="11.007275"><ele>579.0</ele><time>2026-03-22T09:52:03.394Z</time></trkpt><trkpt lat="43.962455" lon="11.00718"><ele>576.5</ele><time>2026-03-22T09:52:04.394Z</time></trkpt><trkpt lat="43.962395" lon="11.0070833"><ele>574.0</ele><time>2026-03-22T09:52:05.393Z</time></trkpt><trkpt lat="43.962375" lon="11.0069767"><ele>571.5</ele><time>2026-03-22T09:52:06.393Z</time></trkpt><trkpt lat="43.962335" lon="11.0068833"><ele>569.0</ele><time>2026-03-22T09:52:07.393Z</time></trkpt><trkpt lat="43.962295" lon="11.00678"><ele>569.0</ele><time>2026-03-22T09:52:08.394Z</time></trkpt><trkpt lat="43.962255" lon="11.00668"><ele>569.0</ele><time>2026-03-22T09:52:09.393Z</time></trkpt><trkpt lat="43.9622433" lon="11.006565"><ele>569.0</ele><time>2026-03-22T09:52:10.394Z</time></trkpt><trkpt lat="43.9622867" lon="11.006415"><ele>569.0</ele><time>2026-03-22T09:52:11.393Z</time></trkpt><trkpt lat="43.9623717" lon="11.0062283"><ele>569.0</ele><time>2026-03-22T09:52:12.394Z</time></trkpt><trkpt lat="43.9624483" lon="11.0061"><ele>568.0</ele><time>2026-03-22T09:52:13.393Z</time></trkpt><trkpt lat="43.9625117" lon="11.005995"><ele>567.0</ele><time>2026-03-22T09:52:14.393Z</time></trkpt><trkpt lat="43.962595" lon="11.0059233"><ele>566.0</ele><time>2026-03-22T09:52:15.393Z</time></trkpt><trkpt lat="43.9626917" lon="11.0058433"><ele>565.0</ele><time>2026-03-22T09:52:16.394Z</time></trkpt><trkpt lat="43.96278" lon="11.0057667"><ele>564.0</ele><time>2026-03-22T09:52:17.393Z</time></trkpt><trkpt lat="43.962855" lon="11.0057217"><ele>558.0</ele><time>2026-03-22T09:52:18.394Z</time></trkpt><trkpt lat="43.9629567" lon="11.00566"><ele>552.0</ele><time>2026-03-22T09:52:20.394Z</time></trkpt><trkpt lat="43.9630383" lon="11.00562"><ele>546.0</ele><time>2026-03-22T09:52:22.393Z</time></trkpt><trkpt lat="43.963115" lon="11.0055883"><ele>540.0</ele><time>2026-03-22T09:52:24.393Z</time></trkpt><trkpt lat="43.9631833" lon="11.0055633"><ele>534.0</ele><time>2026-03-22T09:52:26.394Z</time></trkpt><trkpt lat="43.9632483" lon="11.0055017"><ele>528.0</ele><time>2026-03-22T09:52:28.394Z</time></trkpt><trkpt lat="43.9632833" lon="11.005415"><ele>528.0</ele><time>2026-03-22T09:52:30.393Z</time></trkpt><trkpt lat="43.9632317" lon="11.0053433"><ele>528.0</ele><time>2026-03-22T09:52:32.393Z</time></trkpt><trkpt lat="43.9631433" lon="11.0053267"><ele>528.0</ele><time>2026-03-22T09:52:34.394Z</time></trkpt><trkpt lat="43.963045" lon="11.00533"><ele>528.0</ele><time>2026-03-22T09:52:36.393Z</time></trkpt><trkpt lat="43.9629467" lon="11.00535"><ele>528.0</ele><time>2026-03-22T09:52:38.393Z</time></trkpt><trkpt lat="43.9628617" lon="11.0053417"><ele>528.0</ele><time>2026-03-22T09:52:40.393Z</time></trkpt><trkpt lat="43.9627733" lon="11.0053117"><ele>528.0</ele><time>2026-03-22T09:52:43.393Z</time></trkpt><trkpt lat="43.9627033" lon="11.0053"><ele>528.0</ele><time>2026-03-22T09:52:45.393Z</time></trkpt><trkpt lat="43.9626067" lon="11.005295"><ele>528.0</ele><time>2026-03-22T09:52:47.393Z</time></trkpt><trkpt lat="43.962515" lon="11.0052933"><ele>528.0</ele><time>2026-03-22T09:52:49.393Z</time></trkpt><trkpt lat="43.96242" lon="11.00529"><ele>528.0</ele><time>2026-03-22T09:52:51.394Z</time></trkpt><trkpt lat="43.9622867" lon="11.005315"><ele>527.1428571428571</ele><time>2026-03-22T09:52:53.393Z</time></trkpt><trkpt lat="43.9622167" lon="11.0053417"><ele>526.2857142857143</ele><time>2026-03-22T09:52:54.393Z</time></trkpt><trkpt lat="43.96215" lon="11.0053817"><ele>525.4285714285714</ele><time>2026-03-22T09:52:55.393Z</time></trkpt><trkpt lat="43.96208" lon="11.00542"><ele>524.5714285714286</ele><time>2026-03-22T09:52:56.394Z</time></trkpt><trkpt lat="43.9620117" lon="11.0054517"><ele>523.7142857142857</ele><time>2026-03-22T09:52:57.393Z</time></trkpt><trkpt lat="43.9619383" lon="11.0054667"><ele>522.8571428571429</ele><time>2026-03-22T09:52:58.394Z</time></trkpt><trkpt lat="43.961865" lon="11.0054833"><ele>522.0</ele><time>2026-03-22T09:52:59.394Z</time></trkpt><trkpt lat="43.96179" lon="11.005525"><ele>522.0</ele><time>2026-03-22T09:53:00.394Z</time></trkpt><trkpt lat="43.96172" lon="11.0055817"><ele>522.0</ele><time>2026-03-22T09:53:01.394Z</time></trkpt><trkpt lat="43.961655" lon="11.0056567"><ele>522.0</ele><time>2026-03-22T09:53:02.393Z</time></trkpt><trkpt lat="43.9616" lon="11.0057483"><ele>522.0</ele><time>2026-03-22T09:53:03.394Z</time></trkpt><trkpt lat="43.9615533" lon="11.0058283"><ele>522.0</ele><time>2026-03-22T09:53:04.393Z</time></trkpt><trkpt lat="43.9615067" lon="11.00591"><ele>522.0</ele><time>2026-03-22T09:53:05.393Z</time></trkpt><trkpt lat="43.9614683" lon="11.0060067"><ele>523.2</ele><time>2026-03-22T09:53:06.394Z</time></trkpt><trkpt lat="43.9614267" lon="11.0061083"><ele>524.4000000000001</ele><time>2026-03-22T09:53:07.394Z</time></trkpt><trkpt lat="43.9613783" lon="11.00622"><ele>525.5999999999999</ele><time>2026-03-22T09:53:08.393Z</time></trkpt><trkpt lat="43.9613383" lon="11.00635"><ele>526.8</ele><time>2026-03-22T09:53:09.394Z</time></trkpt><trkpt lat="43.9613017" lon="11.0064683"><ele>528.0</ele><time>2026-03-22T09:53:10.393Z</time></trkpt><trkpt lat="43.961275" lon="11.0065867"><ele>530.1999999999999</ele><time>2026-03-22T09:53:11.393Z</time></trkpt><trkpt lat="43.9612533" lon="11.00671"><ele>532.4</ele><time>2026-03-22T09:53:12.393Z</time></trkpt><trkpt lat="43.96124" lon="11.006835"><ele>534.5999999999999</ele><time>2026-03-22T09:53:13.393Z</time></trkpt><trkpt lat="43.9612233" lon="11.0069667"><ele>536.8</ele><time>2026-03-22T09:53:14.393Z</time></trkpt><trkpt lat="43.961235" lon="11.0071033"><ele>539.0</ele><time>2026-03-22T09:53:15.393Z</time></trkpt><trkpt lat="43.9612367" lon="11.0072167"><ele>539.0</ele><time>2026-03-22T09:53:16.394Z</time></trkpt><trkpt lat="43.9612333" lon="11.0073317"><ele>539.0</ele><time>2026-03-22T09:53:18.394Z</time></trkpt><trkpt lat="43.9611667" lon="11.0073"><ele>539.0</ele><time>2026-03-22T09:53:23.394Z</time></trkpt><trkpt lat="43.961155" lon="11.0071867"><ele>539.0</ele><time>2026-03-22T09:53:25.393Z</time></trkpt><trkpt lat="43.9611583" lon="11.0070267"><ele>539.0</ele><time>2026-03-22T09:53:27.393Z</time></trkpt><trkpt lat="43.9611433" lon="11.00684"><ele>539.0</ele><time>2026-03-22T09:53:29.393Z</time></trkpt><trkpt lat="43.96113" lon="11.006745"><ele>539.0</ele><time>2026-03-22T09:53:30.394Z</time></trkpt><trkpt lat="43.9611233" lon="11.00664"><ele>539.0</ele><time>2026-03-22T09:53:31.394Z</time></trkpt><trkpt lat="43.96111" lon="11.0065167"><ele>539.0</ele><time>2026-03-22T09:53:32.393Z</time></trkpt><trkpt lat="43.9611" lon="11.0063933"><ele>539.0</ele><time>2026-03-22T09:53:33.393Z</time></trkpt><trkpt lat="43.96108" lon="11.0062633"><ele>539.0</ele><time>2026-03-22T09:53:34.393Z</time></trkpt><trkpt lat="43.9610583" lon="11.006135"><ele>537.1666666666666</ele><time>2026-03-22T09:53:35.393Z</time></trkpt><trkpt lat="43.9610317" lon="11.00601"><ele>535.3333333333333</ele><time>2026-03-22T09:53:36.394Z</time></trkpt><trkpt lat="43.9610067" lon="11.0058883"><ele>533.5</ele><time>2026-03-22T09:53:37.393Z</time></trkpt><trkpt lat="43.960995" lon="11.0057717"><ele>531.6666666666666</ele><time>2026-03-22T09:53:38.393Z</time></trkpt><trkpt lat="43.9609833" lon="11.00565"><ele>529.8333333333334</ele><time>2026-03-22T09:53:39.393Z</time></trkpt><trkpt lat="43.9609833" lon="11.005535"><ele>528.0</ele><time>2026-03-22T09:53:40.393Z</time></trkpt><trkpt lat="43.9609917" lon="11.0054333"><ele>524.8333333333334</ele><time>2026-03-22T09:53:41.393Z</time></trkpt><trkpt lat="43.9610033" lon="11.0053317"><ele>521.6666666666666</ele><time>2026-03-22T09:53:42.393Z</time></trkpt><trkpt lat="43.9610267" lon="11.0052333"><ele>518.5</ele><time>2026-03-22T09:53:43.393Z</time></trkpt><trkpt lat="43.961045" lon="11.0051317"><ele>515.3333333333333</ele><time>2026-03-22T09:53:44.393Z</time></trkpt><trkpt lat="43.9610767" lon="11.0050333"><ele>512.1666666666666</ele><time>2026-03-22T09:53:45.393Z</time></trkpt><trkpt lat="43.9611033" lon="11.0049467"><ele>509.0</ele><time>2026-03-22T09:53:46.392Z</time></trkpt><trkpt lat="43.9611317" lon="11.0047933"><ele>505.2</ele><time>2026-03-22T09:53:48.393Z</time></trkpt><trkpt lat="43.9611033" lon="11.0047117"><ele>501.4</ele><time>2026-03-22T09:53:50.392Z</time></trkpt><trkpt lat="43.960995" lon="11.0047783"><ele>497.6</ele><time>2026-03-22T09:53:52.392Z</time></trkpt><trkpt lat="43.9609217" lon="11.00489"><ele>493.8</ele><time>2026-03-22T09:53:53.394Z</time></trkpt><trkpt lat="43.96086" lon="11.0049767"><ele>490.0</ele><time>2026-03-22T09:53:54.392Z</time></trkpt><trkpt lat="43.9608083" lon="11.0050517"><ele>490.00000000000006</ele><time>2026-03-22T09:53:55.392Z</time></trkpt><trkpt lat="43.960755" lon="11.0051333"><ele>490.0</ele><time>2026-03-22T09:53:56.392Z</time></trkpt><trkpt lat="43.9607217" lon="11.005225"><ele>490.0</ele><time>2026-03-22T09:53:57.392Z</time></trkpt><trkpt lat="43.9606933" lon="11.00532"><ele>490.0</ele><time>2026-03-22T09:53:58.392Z</time></trkpt><trkpt lat="43.9606683" lon="11.005425"><ele>490.00000000000006</ele><time>2026-03-22T09:53:59.392Z</time></trkpt><trkpt lat="43.9606383" lon="11.00553"><ele>490.0</ele><time>2026-03-22T09:54:00.392Z</time></trkpt><trkpt lat="43.9606183" lon="11.00567"><ele>490.0</ele><time>2026-03-22T09:54:01.392Z</time></trkpt><trkpt lat="43.9605967" lon="11.005805"><ele>490.0</ele><time>2026-03-22T09:54:02.393Z</time></trkpt><trkpt lat="43.96062" lon="11.0059533"><ele>490.0</ele><time>2026-03-22T09:54:03.392Z</time></trkpt><trkpt lat="43.9606033" lon="11.0060867"><ele>490.0</ele><time>2026-03-22T09:54:04.393Z</time></trkpt><trkpt lat="43.960605" lon="11.0062217"><ele>490.0</ele><time>2026-03-22T09:54:05.392Z</time></trkpt><trkpt lat="43.960615" lon="11.0063483"><ele>491.0</ele><time>2026-03-22T09:54:06.393Z</time></trkpt><trkpt lat="43.9606167" lon="11.0064567"><ele>492.0</ele><time>2026-03-22T09:54:07.393Z</time></trkpt><trkpt lat="43.960615" lon="11.006555"><ele>493.0</ele><time>2026-03-22T09:54:08.393Z</time></trkpt><trkpt lat="43.9606133" lon="11.00666"><ele>494.0</ele><time>2026-03-22T09:54:09.392Z</time></trkpt><trkpt lat="43.9605817" lon="11.006745"><ele>495.0</ele><time>2026-03-22T09:54:10.393Z</time></trkpt><trkpt lat="43.9605183" lon="11.00676"><ele>496.0</ele><time>2026-03-22T09:54:11.393Z</time></trkpt><trkpt lat="43.960455" lon="11.0067633"><ele>497.0</ele><time>2026-03-22T09:54:12.394Z</time></trkpt><trkpt lat="43.960385" lon="11.0067367"><ele>497.0</ele><time>2026-03-22T09:54:13.393Z</time></trkpt><trkpt lat="43.9603267" lon="11.00666"><ele>497.00000000000006</ele><time>2026-03-22T09:54:14.393Z</time></trkpt><trkpt lat="43.9602433" lon="11.0065767"><ele>497.00000000000006</ele><time>2026-03-22T09:54:15.394Z</time></trkpt><trkpt lat="43.9601617" lon="11.00651"><ele>497.0</ele><time>2026-03-22T09:54:16.394Z</time></trkpt><trkpt lat="43.9600633" lon="11.0064217"><ele>497.0</ele><time>2026-03-22T09:54:17.393Z</time></trkpt><trkpt lat="43.9599633" lon="11.0063433"><ele>491.6</ele><time>2026-03-22T09:54:18.393Z</time></trkpt><trkpt lat="43.95986" lon="11.0062717"><ele>486.20000000000005</ele><time>2026-03-22T09:54:19.394Z</time></trkpt><trkpt lat="43.9597533" lon="11.0062117"><ele>480.8</ele><time>2026-03-22T09:54:20.393Z</time></trkpt><trkpt lat="43.95965" lon="11.006155"><ele>475.4</ele><time>2026-03-22T09:54:21.394Z</time></trkpt><trkpt lat="43.9595483" lon="11.006105"><ele>470.0</ele><time>2026-03-22T09:54:22.394Z</time></trkpt><trkpt lat="43.9594367" lon="11.0060517"><ele>470.0</ele><time>2026-03-22T09:54:23.393Z</time></trkpt><trkpt lat="43.9593317" lon="11.0059983"><ele>470.0</ele><time>2026-03-22T09:54:24.394Z</time></trkpt><trkpt lat="43.95922" lon="11.0059583"><ele>470.0</ele><time>2026-03-22T09:54:25.394Z</time></trkpt><trkpt lat="43.9591117" lon="11.0059133"><ele>470.0</ele><time>2026-03-22T09:54:26.394Z</time></trkpt><trkpt lat="43.959005" lon="11.0058617"><ele>465.6</ele><time>2026-03-22T09:54:27.394Z</time></trkpt><trkpt lat="43.9588983" lon="11.0058167"><ele>461.2</ele><time>2026-03-22T09:54:28.393Z</time></trkpt><trkpt lat="43.9587983" lon="11.0057683"><ele>456.79999999999995</ele><time>2026-03-22T09:54:29.394Z</time></trkpt><trkpt lat="43.9587" lon="11.0057183"><ele>452.4</ele><time>2026-03-22T09:54:30.393Z</time></trkpt><trkpt lat="43.9586017" lon="11.0056717"><ele>448.0</ele><time>2026-03-22T09:54:31.394Z</time></trkpt><trkpt lat="43.95851" lon="11.0056183"><ele>448.0</ele><time>2026-03-22T09:54:32.393Z</time></trkpt><trkpt lat="43.9584233" lon="11.0055733"><ele>447.99999999999994</ele><time>2026-03-22T09:54:33.394Z</time></trkpt><trkpt lat="43.9583333" lon="11.0055433"><ele>447.99999999999994</ele><time>2026-03-22T09:54:34.393Z</time></trkpt><trkpt lat="43.9582383" lon="11.0055217"><ele>448.0</ele><time>2026-03-22T09:54:35.394Z</time></trkpt><trkpt lat="43.9581383" lon="11.0055217"><ele>448.0</ele><time>2026-03-22T09:54:36.394Z</time></trkpt><trkpt lat="43.958035" lon="11.0055367"><ele>448.79999999999995</ele><time>2026-03-22T09:54:37.394Z</time></trkpt><trkpt lat="43.9579317" lon="11.005555"><ele>449.59999999999997</ele><time>2026-03-22T09:54:38.394Z</time></trkpt><trkpt lat="43.9578267" lon="11.0055733"><ele>450.40000000000003</ele><time>2026-03-22T09:54:39.394Z</time></trkpt><trkpt lat="43.9577383" lon="11.0055733"><ele>451.20000000000005</ele><time>2026-03-22T09:54:40.393Z</time></trkpt><trkpt lat="43.9576533" lon="11.0055783"><ele>452.0</ele><time>2026-03-22T09:54:41.393Z</time></trkpt><trkpt lat="43.95756" lon="11.00559"><ele>451.20000000000005</ele><time>2026-03-22T09:54:42.394Z</time></trkpt><trkpt lat="43.957475" lon="11.0056333"><ele>450.40000000000003</ele><time>2026-03-22T09:54:43.394Z</time></trkpt><trkpt lat="43.9573833" lon="11.00568"><ele>449.59999999999997</ele><time>2026-03-22T09:54:44.393Z</time></trkpt><trkpt lat="43.9572867" lon="11.0057233"><ele>448.79999999999995</ele><time>2026-03-22T09:54:45.393Z</time></trkpt><trkpt lat="43.95719" lon="11.005765"><ele>448.0</ele><time>2026-03-22T09:54:46.394Z</time></trkpt><trkpt lat="43.9570883" lon="11.005775"><ele>448.0</ele><time>2026-03-22T09:54:47.394Z</time></trkpt><trkpt lat="43.956995" lon="11.0057583"><ele>447.99999999999994</ele><time>2026-03-22T09:54:48.393Z</time></trkpt><trkpt lat="43.9569033" lon="11.005715"><ele>447.99999999999994</ele><time>2026-03-22T09:54:49.394Z</time></trkpt><trkpt lat="43.9567967" lon="11.005645"><ele>448.0</ele><time>2026-03-22T09:54:50.393Z</time></trkpt><trkpt lat="43.956695" lon="11.00557"><ele>448.0</ele><time>2026-03-22T09:54:51.394Z</time></trkpt><trkpt lat="43.9565917" lon="11.0055133"><ele>447.2</ele><time>2026-03-22T09:54:52.394Z</time></trkpt><trkpt lat="43.9564967" lon="11.0054633"><ele>446.4</ele><time>2026-03-22T09:54:53.394Z</time></trkpt><trkpt lat="43.9564133" lon="11.0054417"><ele>445.59999999999997</ele><time>2026-03-22T09:54:54.394Z</time></trkpt><trkpt lat="43.9563317" lon="11.00544"><ele>444.79999999999995</ele><time>2026-03-22T09:54:55.393Z</time></trkpt><trkpt lat="43.9562483" lon="11.00547"><ele>444.0</ele><time>2026-03-22T09:54:56.394Z</time></trkpt><trkpt lat="43.95615" lon="11.0055167"><ele>444.0</ele><time>2026-03-22T09:54:57.393Z</time></trkpt><trkpt lat="43.956045" lon="11.0055733"><ele>444.0</ele><time>2026-03-22T09:54:58.394Z</time></trkpt><trkpt lat="43.955935" lon="11.0056233"><ele>444.0</ele><time>2026-03-22T09:54:59.394Z</time></trkpt><trkpt lat="43.9558083" lon="11.00569"><ele>444.0</ele><time>2026-03-22T09:55:00.393Z</time></trkpt><trkpt lat="43.95569" lon="11.0057433"><ele>441.5</ele><time>2026-03-22T09:55:01.393Z</time></trkpt><trkpt lat="43.9555783" lon="11.0057983"><ele>439.0</ele><time>2026-03-22T09:55:02.394Z</time></trkpt><trkpt lat="43.95547" lon="11.0058367"><ele>436.5</ele><time>2026-03-22T09:55:03.394Z</time></trkpt><trkpt lat="43.955355" lon="11.0058417"><ele>434.0</ele><time>2026-03-22T09:55:04.394Z</time></trkpt><trkpt lat="43.95525" lon="11.0058267"><ele>434.0</ele><time>2026-03-22T09:55:05.393Z</time></trkpt><trkpt lat="43.9551483" lon="11.00582"><ele>434.0</ele><time>2026-03-22T09:55:06.393Z</time></trkpt><trkpt lat="43.955045" lon="11.0058233"><ele>434.0</ele><time>2026-03-22T09:55:07.393Z</time></trkpt><trkpt lat="43.9549367" lon="11.0058367"><ele>434.0</ele><time>2026-03-22T09:55:08.394Z</time></trkpt><trkpt lat="43.954835" lon="11.00585"><ele>434.0</ele><time>2026-03-22T09:55:09.393Z</time></trkpt><trkpt lat="43.95474" lon="11.0058583"><ele>436.16666666666663</ele><time>2026-03-22T09:55:10.394Z</time></trkpt><trkpt lat="43.9546517" lon="11.0058633"><ele>438.3333333333333</ele><time>2026-03-22T09:55:11.393Z</time></trkpt><trkpt lat="43.9545667" lon="11.0058767"><ele>440.5</ele><time>2026-03-22T09:55:12.394Z</time></trkpt><trkpt lat="43.9544767" lon="11.00589"><ele>442.66666666666663</ele><time>2026-03-22T09:55:13.393Z</time></trkpt><trkpt lat="43.954395" lon="11.0059183"><ele>444.8333333333333</ele><time>2026-03-22T09:55:14.393Z</time></trkpt><trkpt lat="43.954315" lon="11.005955"><ele>447.0</ele><time>2026-03-22T09:55:15.393Z</time></trkpt><trkpt lat="43.95423" lon="11.006"><ele>444.0</ele><time>2026-03-22T09:55:16.393Z</time></trkpt><trkpt lat="43.9541467" lon="11.006055"><ele>441.00000000000006</ele><time>2026-03-22T09:55:17.394Z</time></trkpt><trkpt lat="43.9540617" lon="11.00612"><ele>438.00000000000006</ele><time>2026-03-22T09:55:18.394Z</time></trkpt><trkpt lat="43.95397" lon="11.0062117"><ele>435.0</ele><time>2026-03-22T09:55:19.393Z</time></trkpt><trkpt lat="43.9538733" lon="11.0062883"><ele>432.0</ele><time>2026-03-22T09:55:20.393Z</time></trkpt><trkpt lat="43.9537617" lon="11.0063367"><ele>432.0</ele><time>2026-03-22T09:55:21.393Z</time></trkpt><trkpt lat="43.95366" lon="11.00637"><ele>432.0</ele><time>2026-03-22T09:55:22.393Z</time></trkpt><trkpt lat="43.953575" lon="11.0064067"><ele>432.0</ele><time>2026-03-22T09:55:23.394Z</time></trkpt><trkpt lat="43.953495" lon="11.0064317"><ele>432.0</ele><time>2026-03-22T09:55:24.393Z</time></trkpt><trkpt lat="43.9534317" lon="11.0064633"><ele>432.0</ele><time>2026-03-22T09:55:25.394Z</time></trkpt><trkpt lat="43.9533517" lon="11.0064967"><ele>432.0</ele><time>2026-03-22T09:55:27.394Z</time></trkpt><trkpt lat="43.9532933" lon="11.006545"><ele>432.1666666666667</ele><time>2026-03-22T09:55:29.393Z</time></trkpt><trkpt lat="43.9532267" lon="11.006585"><ele>432.33333333333337</ele><time>2026-03-22T09:55:31.394Z</time></trkpt><trkpt lat="43.9531583" lon="11.0066333"><ele>432.5</ele><time>2026-03-22T09:55:33.394Z</time></trkpt><trkpt lat="43.9530933" lon="11.0067033"><ele>432.6666666666667</ele><time>2026-03-22T09:55:35.394Z</time></trkpt><trkpt lat="43.9530067" lon="11.0068067"><ele>432.83333333333337</ele><time>2026-03-22T09:55:37.394Z</time></trkpt><trkpt lat="43.952955" lon="11.0068717"><ele>433.0</ele><time>2026-03-22T09:55:38.394Z</time></trkpt><trkpt lat="43.9528983" lon="11.0069483"><ele>433.00000000000006</ele><time>2026-03-22T09:55:39.394Z</time></trkpt><trkpt lat="43.952845" lon="11.007035"><ele>433.0</ele><time>2026-03-22T09:55:40.393Z</time></trkpt><trkpt lat="43.952795" lon="11.00712"><ele>433.0</ele><time>2026-03-22T09:55:41.394Z</time></trkpt><trkpt lat="43.9527467" lon="11.0072083"><ele>433.0</ele><time>2026-03-22T09:55:42.393Z</time></trkpt><trkpt lat="43.9526933" lon="11.007295"><ele>433.00000000000006</ele><time>2026-03-22T09:55:43.393Z</time></trkpt><trkpt lat="43.9526617" lon="11.0074083"><ele>433.0</ele><time>2026-03-22T09:55:44.394Z</time></trkpt><trkpt lat="43.95263" lon="11.0075183"><ele>435.83333333333337</ele><time>2026-03-22T09:55:45.393Z</time></trkpt><trkpt lat="43.9526" lon="11.0076283"><ele>438.6666666666667</ele><time>2026-03-22T09:55:46.394Z</time></trkpt><trkpt lat="43.95257" lon="11.00773"><ele>441.5</ele><time>2026-03-22T09:55:47.394Z</time></trkpt><trkpt lat="43.9525467" lon="11.0078283"><ele>444.33333333333337</ele><time>2026-03-22T09:55:48.393Z</time></trkpt><trkpt lat="43.95253" lon="11.007935"><ele>447.1666666666667</ele><time>2026-03-22T09:55:49.393Z</time></trkpt><trkpt lat="43.952525" lon="11.0080417"><ele>450.0</ele><time>2026-03-22T09:55:50.393Z</time></trkpt><trkpt lat="43.9525267" lon="11.00815"><ele>444.3333333333333</ele><time>2026-03-22T09:55:51.394Z</time></trkpt><trkpt lat="43.9525217" lon="11.0082667"><ele>438.66666666666663</ele><time>2026-03-22T09:55:52.394Z</time></trkpt><trkpt lat="43.95251" lon="11.008385"><ele>433.0</ele><time>2026-03-22T09:55:53.394Z</time></trkpt><trkpt lat="43.952485" lon="11.0085033"><ele>427.3333333333333</ele><time>2026-03-22T09:55:54.393Z</time></trkpt><trkpt lat="43.9524567" lon="11.008625"><ele>421.66666666666663</ele><time>2026-03-22T09:55:55.394Z</time></trkpt><trkpt lat="43.952425" lon="11.0087433"><ele>416.0</ele><time>2026-03-22T09:55:56.393Z</time></trkpt><trkpt lat="43.9523883" lon="11.0088583"><ele>415.99999999999994</ele><time>2026-03-22T09:55:57.393Z</time></trkpt><trkpt lat="43.95235" lon="11.0089683"><ele>416.0</ele><time>2026-03-22T09:55:58.393Z</time></trkpt><trkpt lat="43.9523267" lon="11.0090833"><ele>416.0</ele><time>2026-03-22T09:55:59.394Z</time></trkpt><trkpt lat="43.9523167" lon="11.0092"><ele>416.0</ele><time>2026-03-22T09:56:00.393Z</time></trkpt><trkpt lat="43.9523117" lon="11.0093183"><ele>415.99999999999994</ele><time>2026-03-22T09:56:01.394Z</time></trkpt><trkpt lat="43.952295" lon="11.0094317"><ele>416.0</ele><time>2026-03-22T09:56:02.393Z</time></trkpt><trkpt lat="43.95227" lon="11.0095483"><ele>416.66666666666663</ele><time>2026-03-22T09:56:03.394Z</time></trkpt><trkpt lat="43.952245" lon="11.0096583"><ele>417.3333333333333</ele><time>2026-03-22T09:56:04.394Z</time></trkpt><trkpt lat="43.9522217" lon="11.009745"><ele>418.0</ele><time>2026-03-22T09:56:05.394Z</time></trkpt><trkpt lat="43.9521917" lon="11.009825"><ele>418.66666666666663</ele><time>2026-03-22T09:56:06.393Z</time></trkpt><trkpt lat="43.9521183" lon="11.009845"><ele>419.3333333333333</ele><time>2026-03-22T09:56:08.394Z</time></trkpt><trkpt lat="43.9519967" lon="11.0098217"><ele>420.0</ele><time>2026-03-22T09:56:39.394Z</time></trkpt><trkpt lat="43.9518967" lon="11.009865"><ele>420.0</ele><time>2026-03-22T09:56:41.394Z</time></trkpt><trkpt lat="43.9518017" lon="11.00994"><ele>420.0</ele><time>2026-03-22T09:56:43.394Z</time></trkpt><trkpt lat="43.95172" lon="11.0100117"><ele>420.0</ele><time>2026-03-22T09:56:45.393Z</time></trkpt><trkpt lat="43.9516567" lon="11.010115"><ele>420.0</ele><time>2026-03-22T09:56:47.394Z</time></trkpt><trkpt lat="43.9516217" lon="11.0102533"><ele>420.0</ele><time>2026-03-22T09:56:49.393Z</time></trkpt><trkpt lat="43.9516217" lon="11.0103417"><ele>419.3333333333333</ele><time>2026-03-22T09:56:50.393Z</time></trkpt><trkpt lat="43.9516217" lon="11.0104367"><ele>418.66666666666663</ele><time>2026-03-22T09:56:51.393Z</time></trkpt><trkpt lat="43.9516217" lon="11.0105417"><ele>418.0</ele><time>2026-03-22T09:56:52.393Z</time></trkpt><trkpt lat="43.95161" lon="11.01063"><ele>417.3333333333333</ele><time>2026-03-22T09:56:53.394Z</time></trkpt><trkpt lat="43.9515433" lon="11.010795"><ele>416.66666666666663</ele><time>2026-03-22T09:56:55.394Z</time></trkpt><trkpt lat="43.9514917" lon="11.0108783"><ele>416.0</ele><time>2026-03-22T09:56:56.394Z</time></trkpt><trkpt lat="43.9514433" lon="11.0109567"><ele>416.0</ele><time>2026-03-22T09:56:57.393Z</time></trkpt><trkpt lat="43.9513967" lon="11.01104"><ele>416.0</ele><time>2026-03-22T09:56:58.393Z</time></trkpt><trkpt lat="43.9513533" lon="11.0111183"><ele>416.0</ele><time>2026-03-22T09:56:59.394Z</time></trkpt><trkpt lat="43.951315" lon="11.0111883"><ele>416.0</ele><time>2026-03-22T09:57:00.393Z</time></trkpt><trkpt lat="43.9512667" lon="11.01126"><ele>416.0</ele><time>2026-03-22T09:57:01.394Z</time></trkpt><trkpt lat="43.951225" lon="11.0113367"><ele>416.0</ele><time>2026-03-22T09:57:02.393Z</time></trkpt><trkpt lat="43.9511817" lon="11.0114133"><ele>416.0</ele><time>2026-03-22T09:57:03.393Z</time></trkpt><trkpt lat="43.9511467" lon="11.0114883"><ele>415.99999999999994</ele><time>2026-03-22T09:57:04.394Z</time></trkpt><trkpt lat="43.9511167" lon="11.0115683"><ele>416.0</ele><time>2026-03-22T09:57:05.394Z</time></trkpt><trkpt lat="43.9510883" lon="11.0116467"><ele>416.0</ele><time>2026-03-22T09:57:06.393Z</time></trkpt><trkpt lat="43.9510733" lon="11.0117317"><ele>416.0</ele><time>2026-03-22T09:57:07.393Z</time></trkpt><trkpt lat="43.9510667" lon="11.0118633"><ele>415.99999999999994</ele><time>2026-03-22T09:57:09.393Z</time></trkpt><trkpt lat="43.9510833" lon="11.0120133"><ele>416.0</ele><time>2026-03-22T09:57:11.393Z</time></trkpt><trkpt lat="43.9511233" lon="11.0121617"><ele>418.6</ele><time>2026-03-22T09:57:13.394Z</time></trkpt><trkpt lat="43.9511717" lon="11.0123367"><ele>421.20000000000005</ele><time>2026-03-22T09:57:15.394Z</time></trkpt><trkpt lat="43.9511917" lon="11.0124383"><ele>423.79999999999995</ele><time>2026-03-22T09:57:16.394Z</time></trkpt><trkpt lat="43.9512117" lon="11.0125483"><ele>426.4</ele><time>2026-03-22T09:57:17.394Z</time></trkpt><trkpt lat="43.9512333" lon="11.0126367"><ele>429.0</ele><time>2026-03-22T09:57:18.394Z</time></trkpt><trkpt lat="43.9512783" lon="11.0127917"><ele>430.2</ele><time>2026-03-22T09:57:20.394Z</time></trkpt><trkpt lat="43.951335" lon="11.0129067"><ele>431.4</ele><time>2026-03-22T09:57:22.394Z</time></trkpt><trkpt lat="43.951395" lon="11.0130233"><ele>432.6</ele><time>2026-03-22T09:57:24.393Z</time></trkpt><trkpt lat="43.95143" lon="11.0131367"><ele>433.8</ele><time>2026-03-22T09:57:26.394Z</time></trkpt><trkpt lat="43.9513833" lon="11.0132733"><ele>435.0</ele><time>2026-03-22T09:57:37.393Z</time></trkpt><trkpt lat="43.951285" lon="11.0134067"><ele>435.00000000000006</ele><time>2026-03-22T09:57:49.393Z</time></trkpt><trkpt lat="43.9512083" lon="11.0134483"><ele>435.0</ele><time>2026-03-22T09:58:04.394Z</time></trkpt><trkpt lat="43.951155" lon="11.0135017"><ele>435.0</ele><time>2026-03-22T09:58:08.393Z</time></trkpt><trkpt lat="43.9511033" lon="11.01357"><ele>435.0</ele><time>2026-03-22T09:58:20.394Z</time></trkpt><trkpt lat="43.951035" lon="11.0136217"><ele>435.0</ele><time>2026-03-22T09:58:23.393Z</time></trkpt><trkpt lat="43.9509733" lon="11.0136667"><ele>435.00000000000006</ele><time>2026-03-22T09:58:25.393Z</time></trkpt><trkpt lat="43.9509333" lon="11.0137383"><ele>435.0</ele><time>2026-03-22T09:58:39.394Z</time></trkpt><trkpt lat="43.9508783" lon="11.0138517"><ele>429.0</ele><time>2026-03-22T09:58:42.392Z</time></trkpt><trkpt lat="43.9508333" lon="11.0139533"><ele>423.0</ele><time>2026-03-22T09:58:44.392Z</time></trkpt><trkpt lat="43.95079" lon="11.014045"><ele>417.0</ele><time>2026-03-22T09:58:46.393Z</time></trkpt><trkpt lat="43.9507467" lon="11.0141317"><ele>411.0</ele><time>2026-03-22T09:58:48.392Z</time></trkpt><trkpt lat="43.9507033" lon="11.014215"><ele>405.0</ele><time>2026-03-22T09:58:50.392Z</time></trkpt><trkpt lat="43.9506683" lon="11.0143017"><ele>399.0</ele><time>2026-03-22T09:58:52.393Z</time></trkpt><trkpt lat="43.9506217" lon="11.0143967"><ele>399.0</ele><time>2026-03-22T09:58:54.392Z</time></trkpt><trkpt lat="43.95059" lon="11.0144833"><ele>399.0</ele><time>2026-03-22T09:58:56.392Z</time></trkpt><trkpt lat="43.9505717" lon="11.0145917"><ele>399.0</ele><time>2026-03-22T09:58:58.392Z</time></trkpt><trkpt lat="43.9505933" lon="11.0147467"><ele>399.0</ele><time>2026-03-22T09:59:00.392Z</time></trkpt><trkpt lat="43.9506133" lon="11.0148517"><ele>399.0</ele><time>2026-03-22T09:59:01.393Z</time></trkpt><trkpt lat="43.9506417" lon="11.01498"><ele>399.0</ele><time>2026-03-22T09:59:02.393Z</time></trkpt><trkpt lat="43.9506567" lon="11.015085"><ele>399.2857142857143</ele><time>2026-03-22T09:59:03.393Z</time></trkpt><trkpt lat="43.9506567" lon="11.0151933"><ele>399.57142857142856</ele><time>2026-03-22T09:59:04.393Z</time></trkpt><trkpt lat="43.95063" lon="11.0153017"><ele>399.8571428571429</ele><time>2026-03-22T09:59:05.392Z</time></trkpt><trkpt lat="43.9505867" lon="11.0153917"><ele>400.1428571428571</ele><time>2026-03-22T09:59:06.393Z</time></trkpt><trkpt lat="43.95055" lon="11.015475"><ele>400.42857142857144</ele><time>2026-03-22T09:59:07.393Z</time></trkpt><trkpt lat="43.9505183" lon="11.015565"><ele>400.7142857142857</ele><time>2026-03-22T09:59:08.394Z</time></trkpt><trkpt lat="43.95049" lon="11.0156517"><ele>401.0</ele><time>2026-03-22T09:59:09.393Z</time></trkpt><trkpt lat="43.9504583" lon="11.0157283"><ele>402.20000000000005</ele><time>2026-03-22T09:59:10.394Z</time></trkpt><trkpt lat="43.95038" lon="11.0158617"><ele>403.40000000000003</ele><time>2026-03-22T09:59:12.393Z</time></trkpt><trkpt lat="43.95032" lon="11.0159333"><ele>404.6</ele><time>2026-03-22T09:59:13.393Z</time></trkpt><trkpt lat="43.95025" lon="11.0160067"><ele>405.8</ele><time>2026-03-22T09:59:14.394Z</time></trkpt><trkpt lat="43.9501783" lon="11.0160767"><ele>407.0</ele><time>2026-03-22T09:59:15.394Z</time></trkpt><trkpt lat="43.950105" lon="11.016145"><ele>401.40000000000003</ele><time>2026-03-22T09:59:16.394Z</time></trkpt><trkpt lat="43.9500367" lon="11.0162133"><ele>395.8</ele><time>2026-03-22T09:59:17.394Z</time></trkpt><trkpt lat="43.9499733" lon="11.01629"><ele>390.2</ele><time>2026-03-22T09:59:18.393Z</time></trkpt><trkpt lat="43.949925" lon="11.01636"><ele>384.6</ele><time>2026-03-22T09:59:19.394Z</time></trkpt><trkpt lat="43.9498333" lon="11.016475"><ele>379.0</ele><time>2026-03-22T09:59:21.394Z</time></trkpt><trkpt lat="43.9497367" lon="11.0165383"><ele>379.0</ele><time>2026-03-22T09:59:23.393Z</time></trkpt><trkpt lat="43.9496567" lon="11.0165517"><ele>379.0</ele><time>2026-03-22T09:59:25.393Z</time></trkpt><trkpt lat="43.949595" lon="11.0165917"><ele>379.0</ele><time>2026-03-22T09:59:27.394Z</time></trkpt><trkpt lat="43.94954" lon="11.0166817"><ele>379.0</ele><time>2026-03-22T09:59:30.394Z</time></trkpt><trkpt lat="43.9496067" lon="11.0167267"><ele>379.0</ele><time>2026-03-22T10:00:08.393Z</time></trkpt><trkpt lat="43.9496533" lon="11.0167933"><ele>379.0</ele><time>2026-03-22T10:00:11.394Z</time></trkpt><trkpt lat="43.9496967" lon="11.0168967"><ele>381.16666666666663</ele><time>2026-03-22T10:00:13.394Z</time></trkpt><trkpt lat="43.949745" lon="11.017"><ele>383.3333333333333</ele><time>2026-03-22T10:00:15.394Z</time></trkpt><trkpt lat="43.9497883" lon="11.0170717"><ele>385.5</ele><time>2026-03-22T10:00:17.393Z</time></trkpt><trkpt lat="43.9498517" lon="11.0171067"><ele>387.66666666666663</ele><time>2026-03-22T10:00:20.393Z</time></trkpt><trkpt lat="43.9499133" lon="11.017015"><ele>389.8333333333333</ele><time>2026-03-22T10:00:23.393Z</time></trkpt><trkpt lat="43.9499517" lon="11.0169433"><ele>392.0</ele><time>2026-03-22T10:00:25.394Z</time></trkpt><trkpt lat="43.950045" lon="11.0168883"><ele>394.49999999999994</ele><time>2026-03-22T10:00:28.394Z</time></trkpt><trkpt lat="43.9501283" lon="11.016855"><ele>397.0</ele><time>2026-03-22T10:00:30.394Z</time></trkpt><trkpt lat="43.9502117" lon="11.016815"><ele>399.5</ele><time>2026-03-22T10:00:32.394Z</time></trkpt><trkpt lat="43.9502833" lon="11.0167783"><ele>402.0</ele><time>2026-03-22T10:00:34.394Z</time></trkpt><trkpt lat="43.950345" lon="11.0167383"><ele>404.49999999999994</ele><time>2026-03-22T10:00:36.393Z</time></trkpt><trkpt lat="43.950435" lon="11.0166867"><ele>407.0</ele><time>2026-03-22T10:00:38.393Z</time></trkpt><trkpt lat="43.9504983" lon="11.0166467"><ele>406.99999999999994</ele><time>2026-03-22T10:00:40.394Z</time></trkpt><trkpt lat="43.9505617" lon="11.0165983"><ele>407.0</ele><time>2026-03-22T10:00:42.393Z</time></trkpt><trkpt lat="43.95064" lon="11.0165383"><ele>407.0</ele><time>2026-03-22T10:00:44.394Z</time></trkpt><trkpt lat="43.9507033" lon="11.0165183"><ele>407.0</ele><time>2026-03-22T10:00:46.393Z</time></trkpt><trkpt lat="43.95077" lon="11.0165917"><ele>406.99999999999994</ele><time>2026-03-22T10:00:50.394Z</time></trkpt><trkpt lat="43.9508133" lon="11.0167"><ele>407.0</ele><time>2026-03-22T10:00:53.393Z</time></trkpt><trkpt lat="43.9508617" lon="11.0168083"><ele>413.40000000000003</ele><time>2026-03-22T10:00:56.394Z</time></trkpt><trkpt lat="43.950935" lon="11.01685"><ele>419.8</ele><time>2026-03-22T10:00:59.394Z</time></trkpt><trkpt lat="43.951015" lon="11.016825"><ele>426.2</ele><time>2026-03-22T10:01:02.393Z</time></trkpt><trkpt lat="43.9510917" lon="11.01677"><ele>432.6</ele><time>2026-03-22T10:01:04.393Z</time></trkpt><trkpt lat="43.95117" lon="11.0166633"><ele>439.0</ele><time>2026-03-22T10:01:06.394Z</time></trkpt><trkpt lat="43.9512217" lon="11.0165533"><ele>439.00000000000006</ele><time>2026-03-22T10:01:08.393Z</time></trkpt><trkpt lat="43.9512633" lon="11.0164583"><ele>439.0</ele><time>2026-03-22T10:01:10.394Z</time></trkpt><trkpt lat="43.95129" lon="11.0163667"><ele>439.0</ele><time>2026-03-22T10:01:12.393Z</time></trkpt><trkpt lat="43.95132" lon="11.0162367"><ele>439.0</ele><time>2026-03-22T10:01:15.393Z</time></trkpt><trkpt lat="43.9513817" lon="11.0161717"><ele>439.00000000000006</ele><time>2026-03-22T10:01:18.393Z</time></trkpt><trkpt lat="43.9514383" lon="11.0162317"><ele>439.0</ele><time>2026-03-22T10:01:21.393Z</time></trkpt><trkpt lat="43.9514783" lon="11.0163333"><ele>439.0</ele><time>2026-03-22T10:01:23.393Z</time></trkpt><trkpt lat="43.9515083" lon="11.0164483"><ele>439.0</ele><time>2026-03-22T10:01:25.393Z</time></trkpt><trkpt lat="43.9515067" lon="11.0165533"><ele>439.0</ele><time>2026-03-22T10:01:27.393Z</time></trkpt><trkpt lat="43.9514867" lon="11.016665"><ele>439.0</ele><time>2026-03-22T10:01:29.394Z</time></trkpt><trkpt lat="43.9514933" lon="11.0168017"><ele>439.0</ele><time>2026-03-22T10:01:31.394Z</time></trkpt><trkpt lat="43.95152" lon="11.0169767"><ele>439.00000000000006</ele><time>2026-03-22T10:01:33.393Z</time></trkpt><trkpt lat="43.9515383" lon="11.0170683"><ele>439.0</ele><time>2026-03-22T10:01:34.393Z</time></trkpt><trkpt lat="43.9515533" lon="11.0171583"><ele>439.0</ele><time>2026-03-22T10:01:35.394Z</time></trkpt><trkpt lat="43.95158" lon="11.0173133"><ele>439.0</ele><time>2026-03-22T10:01:37.394Z</time></trkpt><trkpt lat="43.95161" lon="11.017465"><ele>439.00000000000006</ele><time>2026-03-22T10:01:39.393Z</time></trkpt><trkpt lat="43.95162" lon="11.0175517"><ele>439.0</ele><time>2026-03-22T10:01:40.393Z</time></trkpt><trkpt lat="43.95163" lon="11.0176433"><ele>438.42857142857144</ele><time>2026-03-22T10:01:41.394Z</time></trkpt><trkpt lat="43.9516383" lon="11.01774"><ele>437.85714285714283</ele><time>2026-03-22T10:01:42.394Z</time></trkpt><trkpt lat="43.9516467" lon="11.01784"><ele>437.28571428571433</ele><time>2026-03-22T10:01:43.394Z</time></trkpt><trkpt lat="43.9516617" lon="11.0179383"><ele>436.7142857142857</ele><time>2026-03-22T10:01:44.393Z</time></trkpt><trkpt lat="43.9516833" lon="11.0180317"><ele>436.14285714285717</ele><time>2026-03-22T10:01:45.394Z</time></trkpt><trkpt lat="43.9517067" lon="11.0181133"><ele>435.5714285714286</ele><time>2026-03-22T10:01:46.393Z</time></trkpt><trkpt lat="43.95173" lon="11.0181967"><ele>435.0</ele><time>2026-03-22T10:01:47.393Z</time></trkpt><trkpt lat="43.9517733" lon="11.018325"><ele>433.6666666666667</ele><time>2026-03-22T10:01:49.393Z</time></trkpt><trkpt lat="43.951815" lon="11.0184233"><ele>432.33333333333337</ele><time>2026-03-22T10:01:51.394Z</time></trkpt><trkpt lat="43.951855" lon="11.0185217"><ele>431.0</ele><time>2026-03-22T10:01:53.394Z</time></trkpt><trkpt lat="43.9519" lon="11.018635"><ele>429.6666666666667</ele><time>2026-03-22T10:01:55.394Z</time></trkpt><trkpt lat="43.9519583" lon="11.0187183"><ele>428.33333333333337</ele><time>2026-03-22T10:01:57.394Z</time></trkpt><trkpt lat="43.9520367" lon="11.0187383"><ele>427.0</ele><time>2026-03-22T10:01:59.393Z</time></trkpt><trkpt lat="43.9521383" lon="11.0186917"><ele>427.00000000000006</ele><time>2026-03-22T10:02:01.394Z</time></trkpt><trkpt lat="43.952195" lon="11.0186483"><ele>427.0</ele><time>2026-03-22T10:02:02.393Z</time></trkpt><trkpt lat="43.9522833" lon="11.0185733"><ele>427.0</ele><time>2026-03-22T10:02:04.394Z</time></trkpt><trkpt lat="43.952375" lon="11.0185183"><ele>427.0</ele><time>2026-03-22T10:02:06.393Z</time></trkpt><trkpt lat="43.9524717" lon="11.01845"><ele>427.00000000000006</ele><time>2026-03-22T10:02:08.394Z</time></trkpt><trkpt lat="43.9525267" lon="11.0183883"><ele>427.0</ele><time>2026-03-22T10:02:09.394Z</time></trkpt><trkpt lat="43.9525833" lon="11.0183283"><ele>432.6666666666667</ele><time>2026-03-22T10:02:10.393Z</time></trkpt><trkpt lat="43.952635" lon="11.0182667"><ele>438.33333333333337</ele><time>2026-03-22T10:02:11.394Z</time></trkpt><trkpt lat="43.95272" lon="11.018165"><ele>444.0</ele><time>2026-03-22T10:02:13.393Z</time></trkpt><trkpt lat="43.9527817" lon="11.0180883"><ele>449.66666666666663</ele><time>2026-03-22T10:02:15.394Z</time></trkpt><trkpt lat="43.95288" lon="11.0180767"><ele>455.3333333333333</ele><time>2026-03-22T10:02:18.394Z</time></trkpt><trkpt lat="43.9529467" lon="11.0181067"><ele>461.0</ele><time>2026-03-22T10:02:20.394Z</time></trkpt><trkpt lat="43.9530383" lon="11.0181567"><ele>460.99999999999994</ele><time>2026-03-22T10:02:23.394Z</time></trkpt><trkpt lat="43.9531217" lon="11.0181633"><ele>461.0</ele><time>2026-03-22T10:02:25.393Z</time></trkpt><trkpt lat="43.9532067" lon="11.018145"><ele>461.0</ele><time>2026-03-22T10:02:27.394Z</time></trkpt><trkpt lat="43.9532833" lon="11.01814"><ele>461.0</ele><time>2026-03-22T10:02:29.393Z</time></trkpt><trkpt lat="43.9533517" lon="11.01817"><ele>460.99999999999994</ele><time>2026-03-22T10:02:31.393Z</time></trkpt><trkpt lat="43.953375" lon="11.0182917"><ele>461.0</ele><time>2026-03-22T10:02:43.393Z</time></trkpt><trkpt lat="43.953365" lon="11.0183883"><ele>456.7142857142857</ele><time>2026-03-22T10:02:45.393Z</time></trkpt><trkpt lat="43.9533433" lon="11.0184717"><ele>452.42857142857144</ele><time>2026-03-22T10:02:47.393Z</time></trkpt><trkpt lat="43.9532983" lon="11.0185733"><ele>448.14285714285717</ele><time>2026-03-22T10:02:50.394Z</time></trkpt><trkpt lat="43.9532833" lon="11.0186783"><ele>443.8571428571429</ele><time>2026-03-22T10:02:53.394Z</time></trkpt><trkpt lat="43.9532667" lon="11.0187667"><ele>439.57142857142856</ele><time>2026-03-22T10:02:57.393Z</time></trkpt><trkpt lat="43.953275" lon="11.0188783"><ele>435.28571428571433</ele><time>2026-03-22T10:03:00.393Z</time></trkpt><trkpt lat="43.95329" lon="11.0189683"><ele>431.0</ele><time>2026-03-22T10:03:02.393Z</time></trkpt><trkpt lat="43.9533067" lon="11.019075"><ele>432.0</ele><time>2026-03-22T10:03:05.393Z</time></trkpt><trkpt lat="43.9533667" lon="11.0191817"><ele>433.0</ele><time>2026-03-22T10:03:08.393Z</time></trkpt><trkpt lat="43.9534433" lon="11.0192667"><ele>434.0</ele><time>2026-03-22T10:03:10.393Z</time></trkpt><trkpt lat="43.9535067" lon="11.0193467"><ele>435.0</ele><time>2026-03-22T10:03:12.393Z</time></trkpt><trkpt lat="43.953555" lon="11.0194367"><ele>436.0</ele><time>2026-03-22T10:03:14.394Z</time></trkpt><trkpt lat="43.9535983" lon="11.0195433"><ele>436.0</ele><time>2026-03-22T10:03:16.393Z</time></trkpt><trkpt lat="43.95364" lon="11.0196933"><ele>436.0</ele><time>2026-03-22T10:03:18.393Z</time></trkpt><trkpt lat="43.9536817" lon="11.0198383"><ele>436.0</ele><time>2026-03-22T10:03:20.393Z</time></trkpt><trkpt lat="43.9537317" lon="11.0199583"><ele>436.0</ele><time>2026-03-22T10:03:22.393Z</time></trkpt><trkpt lat="43.9537783" lon="11.0200717"><ele>436.0</ele><time>2026-03-22T10:03:24.394Z</time></trkpt><trkpt lat="43.95382" lon="11.020225"><ele>432.1666666666667</ele><time>2026-03-22T10:03:26.393Z</time></trkpt><trkpt lat="43.9538433" lon="11.02031"><ele>428.33333333333337</ele><time>2026-03-22T10:03:27.394Z</time></trkpt><trkpt lat="43.9539033" lon="11.0204267"><ele>424.5</ele><time>2026-03-22T10:03:29.393Z</time></trkpt><trkpt lat="43.9539433" lon="11.0205167"><ele>420.66666666666663</ele><time>2026-03-22T10:03:31.394Z</time></trkpt><trkpt lat="43.9539883" lon="11.0206183"><ele>416.8333333333333</ele><time>2026-03-22T10:03:33.394Z</time></trkpt><trkpt lat="43.9540433" lon="11.0207217"><ele>413.0</ele><time>2026-03-22T10:03:35.393Z</time></trkpt><trkpt lat="43.954075" lon="11.0208217"><ele>408.99999999999994</ele><time>2026-03-22T10:03:37.393Z</time></trkpt><trkpt lat="43.9540467" lon="11.0209417"><ele>405.0</ele><time>2026-03-22T10:03:40.394Z</time></trkpt><trkpt lat="43.9539383" lon="11.0209867"><ele>401.0</ele><time>2026-03-22T10:03:42.394Z</time></trkpt><trkpt lat="43.9538683" lon="11.0210183"><ele>397.0</ele><time>2026-03-22T10:03:43.393Z</time></trkpt><trkpt lat="43.9538017" lon="11.021045"><ele>392.99999999999994</ele><time>2026-03-22T10:03:44.393Z</time></trkpt><trkpt lat="43.9537417" lon="11.0210767"><ele>389.0</ele><time>2026-03-22T10:03:45.394Z</time></trkpt><trkpt lat="43.9536817" lon="11.0211183"><ele>389.0</ele><time>2026-03-22T10:03:46.393Z</time></trkpt><trkpt lat="43.95363" lon="11.0211733"><ele>389.0</ele><time>2026-03-22T10:03:47.394Z</time></trkpt><trkpt lat="43.953585" lon="11.021285"><ele>389.0</ele><time>2026-03-22T10:03:49.393Z</time></trkpt><trkpt lat="43.9535917" lon="11.02141"><ele>389.0</ele><time>2026-03-22T10:03:51.393Z</time></trkpt><trkpt lat="43.9536233" lon="11.02157"><ele>389.0</ele><time>2026-03-22T10:03:53.392Z</time></trkpt><trkpt lat="43.9536767" lon="11.02173"><ele>386.3333333333333</ele><time>2026-03-22T10:03:55.392Z</time></trkpt><trkpt lat="43.95376" lon="11.0218467"><ele>383.66666666666663</ele><time>2026-03-22T10:03:57.393Z</time></trkpt><trkpt lat="43.9538333" lon="11.02191"><ele>381.0</ele><time>2026-03-22T10:03:59.393Z</time></trkpt><trkpt lat="43.9539" lon="11.0219567"><ele>378.3333333333333</ele><time>2026-03-22T10:04:03.393Z</time></trkpt><trkpt lat="43.9539717" lon="11.0219983"><ele>375.66666666666663</ele><time>2026-03-22T10:04:06.392Z</time></trkpt><trkpt lat="43.954055" lon="11.022045"><ele>373.0</ele><time>2026-03-22T10:04:08.392Z</time></trkpt><trkpt lat="43.9541283" lon="11.0220767"><ele>373.0</ele><time>2026-03-22T10:04:10.393Z</time></trkpt><trkpt lat="43.9542017" lon="11.0220867"><ele>373.0</ele><time>2026-03-22T10:04:12.393Z</time></trkpt><trkpt lat="43.954315" lon="11.0220733"><ele>373.0</ele><time>2026-03-22T10:04:14.393Z</time></trkpt><trkpt lat="43.9543883" lon="11.0220733"><ele>373.0</ele><time>2026-03-22T10:04:15.392Z</time></trkpt><trkpt lat="43.95447" lon="11.02207"><ele>373.0</ele><time>2026-03-22T10:04:16.392Z</time></trkpt><trkpt lat="43.9545517" lon="11.022065"><ele>373.0</ele><time>2026-03-22T10:04:17.393Z</time></trkpt><trkpt lat="43.95464" lon="11.0220633"><ele>373.16666666666663</ele><time>2026-03-22T10:04:18.394Z</time></trkpt><trkpt lat="43.9547283" lon="11.02205"><ele>373.3333333333333</ele><time>2026-03-22T10:04:19.394Z</time></trkpt><trkpt lat="43.9548083" lon="11.0220433"><ele>373.5</ele><time>2026-03-22T10:04:20.393Z</time></trkpt><trkpt lat="43.9548983" lon="11.0220333"><ele>373.6666666666667</ele><time>2026-03-22T10:04:21.394Z</time></trkpt><trkpt lat="43.954975" lon="11.0220167"><ele>373.83333333333337</ele><time>2026-03-22T10:04:22.394Z</time></trkpt><trkpt lat="43.9550567" lon="11.021995"><ele>374.0</ele><time>2026-03-22T10:04:23.393Z</time></trkpt><trkpt lat="43.9551267" lon="11.0219783"><ele>374.0</ele><time>2026-03-22T10:04:24.393Z</time></trkpt><trkpt lat="43.955205" lon="11.0219617"><ele>374.0</ele><time>2026-03-22T10:04:25.394Z</time></trkpt><trkpt lat="43.9552883" lon="11.0219617"><ele>374.0</ele><time>2026-03-22T10:04:26.393Z</time></trkpt><trkpt lat="43.9553667" lon="11.02197"><ele>374.0</ele><time>2026-03-22T10:04:27.393Z</time></trkpt><trkpt lat="43.955445" lon="11.0219817"><ele>374.0</ele><time>2026-03-22T10:04:28.393Z</time></trkpt><trkpt lat="43.9555233" lon="11.0219933"><ele>374.0</ele><time>2026-03-22T10:04:29.394Z</time></trkpt><trkpt lat="43.955605" lon="11.0219983"><ele>374.0</ele><time>2026-03-22T10:04:30.394Z</time></trkpt><trkpt lat="43.95568" lon="11.0219967"><ele>374.0</ele><time>2026-03-22T10:04:31.394Z</time></trkpt><trkpt lat="43.9557533" lon="11.021975"><ele>374.0</ele><time>2026-03-22T10:04:32.393Z</time></trkpt><trkpt lat="43.9558317" lon="11.0219433"><ele>374.0</ele><time>2026-03-22T10:04:33.393Z</time></trkpt><trkpt lat="43.955905" lon="11.0219017"><ele>374.0</ele><time>2026-03-22T10:04:34.394Z</time></trkpt><trkpt lat="43.9559883" lon="11.0218517"><ele>374.0</ele><time>2026-03-22T10:04:35.393Z</time></trkpt><trkpt lat="43.9560433" lon="11.0218"><ele>373.79999999999995</ele><time>2026-03-22T10:04:36.394Z</time></trkpt><trkpt lat="43.9560983" lon="11.0217233"><ele>373.59999999999997</ele><time>2026-03-22T10:04:38.393Z</time></trkpt><trkpt lat="43.9561933" lon="11.0217283"><ele>373.4</ele><time>2026-03-22T10:04:40.394Z</time></trkpt><trkpt lat="43.9562983" lon="11.0217033"><ele>373.2</ele><time>2026-03-22T10:04:42.393Z</time></trkpt><trkpt lat="43.956405" lon="11.02162"><ele>373.0</ele><time>2026-03-22T10:04:44.394Z</time></trkpt><trkpt lat="43.9564617" lon="11.0215783"><ele>373.0</ele><time>2026-03-22T10:04:45.393Z</time></trkpt><trkpt lat="43.9565533" lon="11.02155"><ele>373.0</ele><time>2026-03-22T10:04:47.393Z</time></trkpt><trkpt lat="43.956625" lon="11.0215933"><ele>373.0</ele><time>2026-03-22T10:04:49.393Z</time></trkpt><trkpt lat="43.9566883" lon="11.0216833"><ele>373.0</ele><time>2026-03-22T10:04:51.393Z</time></trkpt><trkpt lat="43.956705" lon="11.0218083"><ele>373.0</ele><time>2026-03-22T10:04:53.394Z</time></trkpt><trkpt lat="43.9566767" lon="11.0219433"><ele>373.0</ele><time>2026-03-22T10:04:55.393Z</time></trkpt><trkpt lat="43.95661" lon="11.022065"><ele>373.0</ele><time>2026-03-22T10:04:57.394Z</time></trkpt><trkpt lat="43.956535" lon="11.0222017"><ele>373.0</ele><time>2026-03-22T10:04:59.394Z</time></trkpt><trkpt lat="43.9565117" lon="11.0222833"><ele>373.0</ele><time>2026-03-22T10:05:00.393Z</time></trkpt><trkpt lat="43.9565" lon="11.0223783"><ele>373.0</ele><time>2026-03-22T10:05:01.394Z</time></trkpt><trkpt lat="43.9564983" lon="11.022475"><ele>373.0</ele><time>2026-03-22T10:05:02.393Z</time></trkpt><trkpt lat="43.9565" lon="11.02257"><ele>372.16666666666663</ele><time>2026-03-22T10:05:03.394Z</time></trkpt><trkpt lat="43.9564983" lon="11.0226717"><ele>371.3333333333333</ele><time>2026-03-22T10:05:04.393Z</time></trkpt><trkpt lat="43.9564967" lon="11.0227683"><ele>370.5</ele><time>2026-03-22T10:05:05.394Z</time></trkpt><trkpt lat="43.9564917" lon="11.0228617"><ele>369.6666666666667</ele><time>2026-03-22T10:05:06.393Z</time></trkpt><trkpt lat="43.956485" lon="11.022955"><ele>368.83333333333337</ele><time>2026-03-22T10:05:07.393Z</time></trkpt><trkpt lat="43.9564517" lon="11.0231117"><ele>368.0</ele><time>2026-03-22T10:05:09.393Z</time></trkpt><trkpt lat="43.9564433" lon="11.0232683"><ele>367.0</ele><time>2026-03-22T10:05:11.394Z</time></trkpt><trkpt lat="43.956485" lon="11.0234217"><ele>366.0</ele><time>2026-03-22T10:05:13.394Z</time></trkpt><trkpt lat="43.9565217" lon="11.02356"><ele>365.0</ele><time>2026-03-22T10:05:15.394Z</time></trkpt><trkpt lat="43.956475" lon="11.023655"><ele>364.0</ele><time>2026-03-22T10:05:17.393Z</time></trkpt><trkpt lat="43.9564267" lon="11.0237217"><ele>363.0</ele><time>2026-03-22T10:05:19.394Z</time></trkpt><trkpt lat="43.9563433" lon="11.023865"><ele>363.0</ele><time>2026-03-22T10:05:59.394Z</time></trkpt><trkpt lat="43.9563167" lon="11.02395"><ele>363.0</ele><time>2026-03-22T10:06:00.393Z</time></trkpt><trkpt lat="43.9562933" lon="11.024045"><ele>363.0</ele><time>2026-03-22T10:06:01.394Z</time></trkpt><trkpt lat="43.9562683" lon="11.0241683"><ele>363.0</ele><time>2026-03-22T10:06:02.394Z</time></trkpt><trkpt lat="43.9562533" lon="11.0243"><ele>363.0</ele><time>2026-03-22T10:06:03.393Z</time></trkpt><trkpt lat="43.9562433" lon="11.0244333"><ele>363.0</ele><time>2026-03-22T10:06:04.394Z</time></trkpt><trkpt lat="43.95623" lon="11.024555"><ele>363.2</ele><time>2026-03-22T10:06:05.393Z</time></trkpt><trkpt lat="43.9562183" lon="11.0246867"><ele>363.4</ele><time>2026-03-22T10:06:06.393Z</time></trkpt><trkpt lat="43.956215" lon="11.0248367"><ele>363.59999999999997</ele><time>2026-03-22T10:06:07.394Z</time></trkpt><trkpt lat="43.9562117" lon="11.0249867"><ele>363.79999999999995</ele><time>2026-03-22T10:06:08.393Z</time></trkpt><trkpt lat="43.9562067" lon="11.0251217"><ele>364.0</ele><time>2026-03-22T10:06:09.394Z</time></trkpt><trkpt lat="43.9562033" lon="11.0252433"><ele>364.4</ele><time>2026-03-22T10:06:10.393Z</time></trkpt><trkpt lat="43.9561967" lon="11.0253633"><ele>364.79999999999995</ele><time>2026-03-22T10:06:11.393Z</time></trkpt><trkpt lat="43.9561967" lon="11.0254633"><ele>365.20000000000005</ele><time>2026-03-22T10:06:12.393Z</time></trkpt><trkpt lat="43.9561917" lon="11.0256317"><ele>365.6</ele><time>2026-03-22T10:06:14.394Z</time></trkpt><trkpt lat="43.9561017" lon="11.0256383"><ele>366.0</ele><time>2026-03-22T10:06:17.394Z</time></trkpt><trkpt lat="43.9560467" lon="11.0255183"><ele>366.0</ele><time>2026-03-22T10:06:19.394Z</time></trkpt><trkpt lat="43.9559867" lon="11.02544"><ele>366.0</ele><time>2026-03-22T10:06:21.393Z</time></trkpt><trkpt lat="43.955935" lon="11.02555"><ele>366.0</ele><time>2026-03-22T10:06:23.393Z</time></trkpt><trkpt lat="43.95595" lon="11.0256683"><ele>366.0</ele><time>2026-03-22T10:06:24.393Z</time></trkpt><trkpt lat="43.95597" lon="11.0257883"><ele>366.0</ele><time>2026-03-22T10:06:25.393Z</time></trkpt><trkpt lat="43.9559883" lon="11.0259333"><ele>365.20000000000005</ele><time>2026-03-22T10:06:26.394Z</time></trkpt><trkpt lat="43.9559933" lon="11.0260733"><ele>364.40000000000003</ele><time>2026-03-22T10:06:27.393Z</time></trkpt><trkpt lat="43.9559967" lon="11.0262117"><ele>363.6</ele><time>2026-03-22T10:06:28.394Z</time></trkpt><trkpt lat="43.9560117" lon="11.02635"><ele>362.8</ele><time>2026-03-22T10:06:29.394Z</time></trkpt><trkpt lat="43.9560333" lon="11.0264917"><ele>362.0</ele><time>2026-03-22T10:06:30.394Z</time></trkpt><trkpt lat="43.956055" lon="11.0266183"><ele>360.5</ele><time>2026-03-22T10:06:31.393Z</time></trkpt><trkpt lat="43.9560733" lon="11.0267333"><ele>359.0</ele><time>2026-03-22T10:06:32.393Z</time></trkpt><trkpt lat="43.9560817" lon="11.0268283"><ele>357.5</ele><time>2026-03-22T10:06:33.393Z</time></trkpt><trkpt lat="43.9560633" lon="11.0269483"><ele>356.0</ele><time>2026-03-22T10:06:35.393Z</time></trkpt><trkpt lat="43.956075" lon="11.02709"><ele>354.5</ele><time>2026-03-22T10:06:43.393Z</time></trkpt><trkpt lat="43.956125" lon="11.027215"><ele>353.0</ele><time>2026-03-22T10:06:45.394Z</time></trkpt><trkpt lat="43.9561967" lon="11.0273467"><ele>353.0</ele><time>2026-03-22T10:06:47.394Z</time></trkpt><trkpt lat="43.9562717" lon="11.02744"><ele>353.0</ele><time>2026-03-22T10:06:49.393Z</time></trkpt><trkpt lat="43.956365" lon="11.0274867"><ele>353.0</ele><time>2026-03-22T10:06:51.393Z</time></trkpt><trkpt lat="43.9564817" lon="11.02754"><ele>353.0</ele><time>2026-03-22T10:06:53.393Z</time></trkpt><trkpt lat="43.9565517" lon="11.0275733"><ele>353.0</ele><time>2026-03-22T10:06:54.393Z</time></trkpt><trkpt lat="43.9566233" lon="11.0276033"><ele>351.4</ele><time>2026-03-22T10:06:55.394Z</time></trkpt><trkpt lat="43.9566917" lon="11.0276417"><ele>349.79999999999995</ele><time>2026-03-22T10:06:56.393Z</time></trkpt><trkpt lat="43.9567533" lon="11.0276783"><ele>348.2</ele><time>2026-03-22T10:06:57.393Z</time></trkpt><trkpt lat="43.956845" lon="11.0277833"><ele>346.6</ele><time>2026-03-22T10:06:59.393Z</time></trkpt><trkpt lat="43.9569217" lon="11.0278967"><ele>345.0</ele><time>2026-03-22T10:07:01.394Z</time></trkpt><trkpt lat="43.9570133" lon="11.0279817"><ele>344.8571428571429</ele><time>2026-03-22T10:07:03.393Z</time></trkpt><trkpt lat="43.9570667" lon="11.0280333"><ele>344.7142857142857</ele><time>2026-03-22T10:07:04.394Z</time></trkpt><trkpt lat="43.9571117" lon="11.0280967"><ele>344.57142857142856</ele><time>2026-03-22T10:07:05.393Z</time></trkpt><trkpt lat="43.9571617" lon="11.028165"><ele>344.42857142857144</ele><time>2026-03-22T10:07:06.394Z</time></trkpt><trkpt lat="43.95721" lon="11.0282267"><ele>344.2857142857143</ele><time>2026-03-22T10:07:07.394Z</time></trkpt><trkpt lat="43.957275" lon="11.0282783"><ele>344.14285714285717</ele><time>2026-03-22T10:07:08.393Z</time></trkpt><trkpt lat="43.957335" lon="11.0283133"><ele>344.0</ele><time>2026-03-22T10:07:09.393Z</time></trkpt><trkpt lat="43.957405" lon="11.0283333"><ele>344.0</ele><time>2026-03-22T10:07:10.393Z</time></trkpt><trkpt lat="43.95752" lon="11.0283517"><ele>344.0</ele><time>2026-03-22T10:07:12.393Z</time></trkpt><trkpt lat="43.9575833" lon="11.0283517"><ele>344.0</ele><time>2026-03-22T10:07:13.393Z</time></trkpt><trkpt lat="43.95765" lon="11.0283467"><ele>344.0</ele><time>2026-03-22T10:07:14.393Z</time></trkpt><trkpt lat="43.9577167" lon="11.02834"><ele>344.0</ele><time>2026-03-22T10:07:15.394Z</time></trkpt><trkpt lat="43.957825" lon="11.02833"><ele>344.0</ele><time>2026-03-22T10:07:17.394Z</time></trkpt><trkpt lat="43.957905" lon="11.028375"><ele>345.6</ele><time>2026-03-22T10:07:19.393Z</time></trkpt><trkpt lat="43.9579517" lon="11.02848"><ele>347.2</ele><time>2026-03-22T10:07:21.394Z</time></trkpt><trkpt lat="43.9580217" lon="11.0286117"><ele>348.8</ele><time>2026-03-22T10:07:23.394Z</time></trkpt><trkpt lat="43.95806" lon="11.0286817"><ele>350.40000000000003</ele><time>2026-03-22T10:07:24.394Z</time></trkpt><trkpt lat="43.9581367" lon="11.0287833"><ele>352.0</ele><time>2026-03-22T10:07:26.393Z</time></trkpt><trkpt lat="43.9581967" lon="11.0288583"><ele>352.0</ele><time>2026-03-22T10:07:28.393Z</time></trkpt><trkpt lat="43.9582633" lon="11.02892"><ele>352.0</ele><time>2026-03-22T10:07:30.393Z</time></trkpt><trkpt lat="43.95835" lon="11.029025"><ele>352.0</ele><time>2026-03-22T10:07:32.394Z</time></trkpt><trkpt lat="43.958445" lon="11.0291367"><ele>352.0</ele><time>2026-03-22T10:07:34.394Z</time></trkpt><trkpt lat="43.9584933" lon="11.029195"><ele>352.0</ele><time>2026-03-22T10:07:35.394Z</time></trkpt><trkpt lat="43.9585767" lon="11.0292833"><ele>349.6</ele><time>2026-03-22T10:07:37.393Z</time></trkpt><trkpt lat="43.9586633" lon="11.0293217"><ele>347.20000000000005</ele><time>2026-03-22T10:07:39.393Z</time></trkpt><trkpt lat="43.9587583" lon="11.0293217"><ele>344.8</ele><time>2026-03-22T10:07:41.394Z</time></trkpt><trkpt lat="43.9588717" lon="11.0292783"><ele>342.4</ele><time>2026-03-22T10:07:43.394Z</time></trkpt><trkpt lat="43.958995" lon="11.0292383"><ele>340.0</ele><time>2026-03-22T10:07:45.393Z</time></trkpt><trkpt lat="43.95906" lon="11.0292317"><ele>340.0</ele><time>2026-03-22T10:07:46.393Z</time></trkpt><trkpt lat="43.9591267" lon="11.0292267"><ele>340.0</ele><time>2026-03-22T10:07:47.393Z</time></trkpt><trkpt lat="43.9591983" lon="11.029215"><ele>340.0</ele><time>2026-03-22T10:07:48.393Z</time></trkpt><trkpt lat="43.959275" lon="11.0291967"><ele>340.0</ele><time>2026-03-22T10:07:49.394Z</time></trkpt><trkpt lat="43.959355" lon="11.029185"><ele>340.0</ele><time>2026-03-22T10:07:50.393Z</time></trkpt><trkpt lat="43.9594333" lon="11.0291783"><ele>340.0</ele><time>2026-03-22T10:07:51.394Z</time></trkpt><trkpt lat="43.9595017" lon="11.0291867"><ele>340.0</ele><time>2026-03-22T10:07:52.394Z</time></trkpt><trkpt lat="43.95962" lon="11.0292083"><ele>338.8333333333333</ele><time>2026-03-22T10:07:54.394Z</time></trkpt><trkpt lat="43.959715" lon="11.0292217"><ele>337.66666666666663</ele><time>2026-03-22T10:07:56.393Z</time></trkpt><trkpt lat="43.95978" lon="11.0292217"><ele>336.5</ele><time>2026-03-22T10:07:57.394Z</time></trkpt><trkpt lat="43.9598583" lon="11.0292133"><ele>335.3333333333333</ele><time>2026-03-22T10:07:58.394Z</time></trkpt><trkpt lat="43.9599433" lon="11.0291967"><ele>334.1666666666667</ele><time>2026-03-22T10:07:59.393Z</time></trkpt><trkpt lat="43.9600283" lon="11.0291617"><ele>333.0</ele><time>2026-03-22T10:08:00.394Z</time></trkpt><trkpt lat="43.960105" lon="11.0291217"><ele>332.0</ele><time>2026-03-22T10:08:01.394Z</time></trkpt><trkpt lat="43.9601767" lon="11.0290817"><ele>331.0</ele><time>2026-03-22T10:08:02.394Z</time></trkpt><trkpt lat="43.9602417" lon="11.0290433"><ele>330.0</ele><time>2026-03-22T10:08:03.394Z</time></trkpt><trkpt lat="43.9603067" lon="11.028995"><ele>329.0</ele><time>2026-03-22T10:08:04.394Z</time></trkpt><trkpt lat="43.9603667" lon="11.02894"><ele>328.0</ele><time>2026-03-22T10:08:05.393Z</time></trkpt><trkpt lat="43.960425" lon="11.02887"><ele>327.0</ele><time>2026-03-22T10:08:06.393Z</time></trkpt><trkpt lat="43.960485" lon="11.028785"><ele>327.0</ele><time>2026-03-22T10:08:07.393Z</time></trkpt><trkpt lat="43.96054" lon="11.0286767"><ele>327.0</ele><time>2026-03-22T10:08:08.393Z</time></trkpt><trkpt lat="43.9605967" lon="11.0286083"><ele>327.0</ele><time>2026-03-22T10:08:09.394Z</time></trkpt><trkpt lat="43.960645" lon="11.0285183"><ele>327.0</ele><time>2026-03-22T10:08:10.394Z</time></trkpt><trkpt lat="43.9606867" lon="11.02842"><ele>327.0</ele><time>2026-03-22T10:08:11.393Z</time></trkpt><trkpt lat="43.9607183" lon="11.0283267"><ele>327.0</ele><time>2026-03-22T10:08:12.393Z</time></trkpt><trkpt lat="43.9607433" lon="11.0282383"><ele>328.0</ele><time>2026-03-22T10:08:13.394Z</time></trkpt><trkpt lat="43.9607633" lon="11.02815"><ele>329.0</ele><time>2026-03-22T10:08:14.394Z</time></trkpt><trkpt lat="43.9607933" lon="11.0279883"><ele>330.0</ele><time>2026-03-22T10:08:16.394Z</time></trkpt><trkpt lat="43.9607933" lon="11.0278867"><ele>331.0</ele><time>2026-03-22T10:08:17.394Z</time></trkpt><trkpt lat="43.9607933" lon="11.02779"><ele>332.0</ele><time>2026-03-22T10:08:18.394Z</time></trkpt><trkpt lat="43.9607983" lon="11.0276867"><ele>333.0</ele><time>2026-03-22T10:08:19.393Z</time></trkpt><trkpt lat="43.9608" lon="11.02759"><ele>333.0</ele><time>2026-03-22T10:08:20.394Z</time></trkpt><trkpt lat="43.9607983" lon="11.0275017"><ele>333.0</ele><time>2026-03-22T10:08:21.393Z</time></trkpt><trkpt lat="43.9608" lon="11.027335"><ele>333.0</ele><time>2026-03-22T10:08:23.394Z</time></trkpt><trkpt lat="43.9607917" lon="11.027245"><ele>333.0</ele><time>2026-03-22T10:08:24.393Z</time></trkpt><trkpt lat="43.96078" lon="11.0271483"><ele>333.0</ele><time>2026-03-22T10:08:25.393Z</time></trkpt><trkpt lat="43.9607733" lon="11.0270583"><ele>333.0</ele><time>2026-03-22T10:08:26.394Z</time></trkpt><trkpt lat="43.9607617" lon="11.026965"><ele>334.0</ele><time>2026-03-22T10:08:27.394Z</time></trkpt><trkpt lat="43.9607633" lon="11.0268533"><ele>335.0</ele><time>2026-03-22T10:08:28.393Z</time></trkpt><trkpt lat="43.9607717" lon="11.02675"><ele>336.0</ele><time>2026-03-22T10:08:29.394Z</time></trkpt><trkpt lat="43.9607883" lon="11.0266517"><ele>337.0</ele><time>2026-03-22T10:08:30.394Z</time></trkpt><trkpt lat="43.9608267" lon="11.02656"><ele>338.0</ele><time>2026-03-22T10:08:31.394Z</time></trkpt><trkpt lat="43.96086" lon="11.0264783"><ele>339.0</ele><time>2026-03-22T10:08:32.394Z</time></trkpt><trkpt lat="43.9608967" lon="11.0264067"><ele>340.0</ele><time>2026-03-22T10:08:33.394Z</time></trkpt><trkpt lat="43.9609267" lon="11.0262533"><ele>340.0</ele><time>2026-03-22T10:08:35.393Z</time></trkpt><trkpt lat="43.960925" lon="11.0261583"><ele>340.0</ele><time>2026-03-22T10:08:36.394Z</time></trkpt><trkpt lat="43.96091" lon="11.0260633"><ele>340.0</ele><time>2026-03-22T10:08:37.393Z</time></trkpt><trkpt lat="43.9608867" lon="11.02592"><ele>340.0</ele><time>2026-03-22T10:08:39.393Z</time></trkpt><trkpt lat="43.9608933" lon="11.0257717"><ele>340.0</ele><time>2026-03-22T10:08:41.393Z</time></trkpt><trkpt lat="43.96096" lon="11.0256767"><ele>340.0</ele><time>2026-03-22T10:08:43.393Z</time></trkpt><trkpt lat="43.96102" lon="11.0256483"><ele>345.4</ele><time>2026-03-22T10:08:44.394Z</time></trkpt><trkpt lat="43.961085" lon="11.0256267"><ele>350.8</ele><time>2026-03-22T10:08:45.394Z</time></trkpt><trkpt lat="43.9611983" lon="11.025565"><ele>356.20000000000005</ele><time>2026-03-22T10:08:47.393Z</time></trkpt><trkpt lat="43.9613167" lon="11.0254667"><ele>361.6</ele><time>2026-03-22T10:08:49.394Z</time></trkpt><trkpt lat="43.96137" lon="11.0254083"><ele>367.0</ele><time>2026-03-22T10:08:50.394Z</time></trkpt><trkpt lat="43.9614333" lon="11.0253533"><ele>367.0</ele><time>2026-03-22T10:08:51.394Z</time></trkpt><trkpt lat="43.961495" lon="11.0253"><ele>367.0</ele><time>2026-03-22T10:08:52.393Z</time></trkpt><trkpt lat="43.9615467" lon="11.025225"><ele>367.0</ele><time>2026-03-22T10:08:53.393Z</time></trkpt><trkpt lat="43.9616183" lon="11.02511"><ele>367.0</ele><time>2026-03-22T10:08:55.393Z</time></trkpt><trkpt lat="43.96169" lon="11.02502"><ele>367.0</ele><time>2026-03-22T10:08:57.393Z</time></trkpt><trkpt lat="43.9617767" lon="11.024955"><ele>370.3333333333333</ele><time>2026-03-22T10:08:59.393Z</time></trkpt><trkpt lat="43.961895" lon="11.024885"><ele>373.66666666666663</ele><time>2026-03-22T10:09:01.392Z</time></trkpt><trkpt lat="43.9619533" lon="11.0248383"><ele>377.0</ele><time>2026-03-22T10:09:02.393Z</time></trkpt><trkpt lat="43.962025" lon="11.0247867"><ele>380.3333333333333</ele><time>2026-03-22T10:09:03.393Z</time></trkpt><trkpt lat="43.962085" lon="11.024735"><ele>383.6666666666667</ele><time>2026-03-22T10:09:04.393Z</time></trkpt><trkpt lat="43.9621417" lon="11.024675"><ele>387.0</ele><time>2026-03-22T10:09:05.393Z</time></trkpt><trkpt lat="43.9621867" lon="11.0246133"><ele>387.0</ele><time>2026-03-22T10:09:06.392Z</time></trkpt><trkpt lat="43.962235" lon="11.024535"><ele>387.0</ele><time>2026-03-22T10:09:07.393Z</time></trkpt><trkpt lat="43.96228" lon="11.0244467"><ele>387.0</ele><time>2026-03-22T10:09:08.393Z</time></trkpt><trkpt lat="43.962325" lon="11.0243567"><ele>387.0</ele><time>2026-03-22T10:09:09.393Z</time></trkpt><trkpt lat="43.962385" lon="11.0242783"><ele>387.0</ele><time>2026-03-22T10:09:10.392Z</time></trkpt><trkpt lat="43.96243" lon="11.0242033"><ele>387.0</ele><time>2026-03-22T10:09:11.393Z</time></trkpt><trkpt lat="43.9625033" lon="11.0241"><ele>393.40000000000003</ele><time>2026-03-22T10:09:13.392Z</time></trkpt><trkpt lat="43.962535" lon="11.0240033"><ele>399.8</ele><time>2026-03-22T10:09:15.392Z</time></trkpt><trkpt lat="43.96261" lon="11.0239317"><ele>406.2</ele><time>2026-03-22T10:09:18.393Z</time></trkpt><trkpt lat="43.9626783" lon="11.0239667"><ele>412.6</ele><time>2026-03-22T10:09:20.393Z</time></trkpt><trkpt lat="43.9627267" lon="11.024105"><ele>419.0</ele><time>2026-03-22T10:09:22.393Z</time></trkpt><trkpt lat="43.9627533" lon="11.0242433"><ele>418.99999999999994</ele><time>2026-03-22T10:09:24.393Z</time></trkpt><trkpt lat="43.9627517" lon="11.024335"><ele>419.0</ele><time>2026-03-22T10:09:25.393Z</time></trkpt><trkpt lat="43.962735" lon="11.02443"><ele>419.0</ele><time>2026-03-22T10:09:26.392Z</time></trkpt><trkpt lat="43.962715" lon="11.024515"><ele>419.0</ele><time>2026-03-22T10:09:27.393Z</time></trkpt><trkpt lat="43.9626867" lon="11.0246133"><ele>418.99999999999994</ele><time>2026-03-22T10:09:28.393Z</time></trkpt><trkpt lat="43.962655" lon="11.02473"><ele>419.0</ele><time>2026-03-22T10:09:29.394Z</time></trkpt><trkpt lat="43.9626217" lon="11.0248567"><ele>419.0</ele><time>2026-03-22T10:09:30.393Z</time></trkpt><trkpt lat="43.96259" lon="11.0249717"><ele>419.0</ele><time>2026-03-22T10:09:31.394Z</time></trkpt><trkpt lat="43.9625767" lon="11.0250883"><ele>419.0</ele><time>2026-03-22T10:09:32.394Z</time></trkpt><trkpt lat="43.9625617" lon="11.02521"><ele>419.0</ele><time>2026-03-22T10:09:33.394Z</time></trkpt><trkpt lat="43.962545" lon="11.0253333"><ele>419.0</ele><time>2026-03-22T10:09:34.393Z</time></trkpt><trkpt lat="43.9625167" lon="11.0254683"><ele>411.3333333333333</ele><time>2026-03-22T10:09:35.394Z</time></trkpt><trkpt lat="43.9624967" lon="11.0255917"><ele>403.66666666666663</ele><time>2026-03-22T10:09:36.394Z</time></trkpt><trkpt lat="43.9624767" lon="11.0256917"><ele>396.0</ele><time>2026-03-22T10:09:37.394Z</time></trkpt><trkpt lat="43.962455" lon="11.0257817"><ele>388.3333333333333</ele><time>2026-03-22T10:09:38.393Z</time></trkpt><trkpt lat="43.9624217" lon="11.025875"><ele>380.66666666666663</ele><time>2026-03-22T10:09:39.394Z</time></trkpt><trkpt lat="43.9624017" lon="11.0259817"><ele>373.0</ele><time>2026-03-22T10:09:40.393Z</time></trkpt><trkpt lat="43.9623883" lon="11.0260883"><ele>371.79999999999995</ele><time>2026-03-22T10:09:41.394Z</time></trkpt><trkpt lat="43.96239" lon="11.026185"><ele>370.6</ele><time>2026-03-22T10:09:42.393Z</time></trkpt><trkpt lat="43.9624267" lon="11.0263417"><ele>369.4</ele><time>2026-03-22T10:09:44.394Z</time></trkpt><trkpt lat="43.962525" lon="11.0264867"><ele>368.20000000000005</ele><time>2026-03-22T10:09:46.393Z</time></trkpt><trkpt lat="43.9625783" lon="11.0265767"><ele>367.0</ele><time>2026-03-22T10:09:47.394Z</time></trkpt><trkpt lat="43.9626367" lon="11.026665"><ele>369.66666666666663</ele><time>2026-03-22T10:09:48.394Z</time></trkpt><trkpt lat="43.9626883" lon="11.02676"><ele>372.3333333333333</ele><time>2026-03-22T10:09:49.393Z</time></trkpt><trkpt lat="43.962735" lon="11.0268483"><ele>375.0</ele><time>2026-03-22T10:09:50.393Z</time></trkpt><trkpt lat="43.9627767" lon="11.0269383"><ele>377.6666666666667</ele><time>2026-03-22T10:09:51.394Z</time></trkpt><trkpt lat="43.9628133" lon="11.027015"><ele>380.33333333333337</ele><time>2026-03-22T10:09:52.393Z</time></trkpt><trkpt lat="43.962885" lon="11.027115"><ele>383.0</ele><time>2026-03-22T10:09:54.394Z</time></trkpt><trkpt lat="43.9629017" lon="11.0272117"><ele>383.0</ele><time>2026-03-22T10:10:16.394Z</time></trkpt><trkpt lat="43.96283" lon="11.0271717"><ele>383.0</ele><time>2026-03-22T10:11:53.394Z</time></trkpt><trkpt lat="43.9627683" lon="11.027075"><ele>383.0</ele><time>2026-03-22T10:11:56.393Z</time></trkpt><trkpt lat="43.9627167" lon="11.0269783"><ele>383.0</ele><time>2026-03-22T10:11:58.394Z</time></trkpt><trkpt lat="43.9626433" lon="11.0268817"><ele>383.0</ele><time>2026-03-22T10:12:00.394Z</time></trkpt><trkpt lat="43.9625683" lon="11.0268"><ele>380.33333333333337</ele><time>2026-03-22T10:12:02.393Z</time></trkpt><trkpt lat="43.9625083" lon="11.0266933"><ele>377.6666666666667</ele><time>2026-03-22T10:12:04.394Z</time></trkpt><trkpt lat="43.9624733" lon="11.02659"><ele>375.0</ele><time>2026-03-22T10:12:06.393Z</time></trkpt><trkpt lat="43.9623983" lon="11.02651"><ele>372.3333333333333</ele><time>2026-03-22T10:12:09.394Z</time></trkpt><trkpt lat="43.96231" lon="11.02651"><ele>369.66666666666663</ele><time>2026-03-22T10:12:11.394Z</time></trkpt><trkpt lat="43.9622417" lon="11.0265567"><ele>367.0</ele><time>2026-03-22T10:12:13.393Z</time></trkpt><trkpt lat="43.962205" lon="11.0266283"><ele>365.5</ele><time>2026-03-22T10:12:15.394Z</time></trkpt><trkpt lat="43.9621967" lon="11.02674"><ele>364.0</ele><time>2026-03-22T10:12:17.393Z</time></trkpt><trkpt lat="43.9621933" lon="11.0268583"><ele>362.5</ele><time>2026-03-22T10:12:19.394Z</time></trkpt><trkpt lat="43.9622083" lon="11.0269917"><ele>361.0</ele><time>2026-03-22T10:12:21.393Z</time></trkpt><trkpt lat="43.9622417" lon="11.0270967"><ele>359.5</ele><time>2026-03-22T10:12:23.394Z</time></trkpt><trkpt lat="43.96222" lon="11.02719"><ele>358.0</ele><time>2026-03-22T10:12:26.394Z</time></trkpt><trkpt lat="43.96215" lon="11.0272533"><ele>358.0</ele><time>2026-03-22T10:12:29.393Z</time></trkpt><trkpt lat="43.962065" lon="11.0272283"><ele>358.0</ele><time>2026-03-22T10:12:32.394Z</time></trkpt><trkpt lat="43.962" lon="11.0271933"><ele>358.0</ele><time>2026-03-22T10:12:34.393Z</time></trkpt><trkpt lat="43.96194" lon="11.0271417"><ele>358.0</ele><time>2026-03-22T10:12:36.393Z</time></trkpt><trkpt lat="43.96188" lon="11.0270733"><ele>358.0</ele><time>2026-03-22T10:12:38.394Z</time></trkpt><trkpt lat="43.9618267" lon="11.026965"><ele>358.0</ele><time>2026-03-22T10:12:40.393Z</time></trkpt><trkpt lat="43.9618183" lon="11.0268667"><ele>358.0</ele><time>2026-03-22T10:12:42.393Z</time></trkpt><trkpt lat="43.9618167" lon="11.0267717"><ele>358.0</ele><time>2026-03-22T10:12:44.394Z</time></trkpt><trkpt lat="43.9618267" lon="11.0266667"><ele>358.0</ele><time>2026-03-22T10:12:46.394Z</time></trkpt><trkpt lat="43.9618267" lon="11.02654"><ele>358.0</ele><time>2026-03-22T10:12:48.394Z</time></trkpt><trkpt lat="43.9617867" lon="11.0264133"><ele>358.0</ele><time>2026-03-22T10:12:50.394Z</time></trkpt><trkpt lat="43.9617083" lon="11.0263733"><ele>358.0</ele><time>2026-03-22T10:12:52.394Z</time></trkpt><trkpt lat="43.96165" lon="11.0263367"><ele>354.4</ele><time>2026-03-22T10:12:53.393Z</time></trkpt><trkpt lat="43.9615733" lon="11.0263417"><ele>350.79999999999995</ele><time>2026-03-22T10:12:55.394Z</time></trkpt><trkpt lat="43.9614817" lon="11.0263583"><ele>347.2</ele><time>2026-03-22T10:12:57.393Z</time></trkpt><trkpt lat="43.9613983" lon="11.0264233"><ele>343.6</ele><time>2026-03-22T10:12:59.393Z</time></trkpt><trkpt lat="43.9612983" lon="11.0265333"><ele>340.0</ele><time>2026-03-22T10:13:01.393Z</time></trkpt><trkpt lat="43.9612533" lon="11.0265983"><ele>337.3333333333333</ele><time>2026-03-22T10:13:02.394Z</time></trkpt><trkpt lat="43.9612" lon="11.0266733"><ele>334.66666666666663</ele><time>2026-03-22T10:13:03.394Z</time></trkpt><trkpt lat="43.961165" lon="11.02677"><ele>332.0</ele><time>2026-03-22T10:13:04.393Z</time></trkpt><trkpt lat="43.9611283" lon="11.02685"><ele>329.3333333333333</ele><time>2026-03-22T10:13:05.394Z</time></trkpt><trkpt lat="43.9610983" lon="11.02697"><ele>326.6666666666667</ele><time>2026-03-22T10:13:06.393Z</time></trkpt><trkpt lat="43.96108" lon="11.0270867"><ele>324.0</ele><time>2026-03-22T10:13:07.394Z</time></trkpt><trkpt lat="43.96106" lon="11.0272117"><ele>324.0</ele><time>2026-03-22T10:13:08.393Z</time></trkpt><trkpt lat="43.9610367" lon="11.0274"><ele>324.0</ele><time>2026-03-22T10:13:09.393Z</time></trkpt><trkpt lat="43.9610233" lon="11.0275717"><ele>324.0</ele><time>2026-03-22T10:13:10.393Z</time></trkpt><trkpt lat="43.9610083" lon="11.027735"><ele>324.0</ele><time>2026-03-22T10:13:11.393Z</time></trkpt><trkpt lat="43.9610017" lon="11.0279017"><ele>321.3333333333333</ele><time>2026-03-22T10:13:12.393Z</time></trkpt><trkpt lat="43.96099" lon="11.0280267"><ele>318.6666666666667</ele><time>2026-03-22T10:13:13.394Z</time></trkpt><trkpt lat="43.9609733" lon="11.0281433"><ele>316.0</ele><time>2026-03-22T10:13:14.393Z</time></trkpt><trkpt lat="43.9609533" lon="11.02825"><ele>313.33333333333337</ele><time>2026-03-22T10:13:15.394Z</time></trkpt><trkpt lat="43.9609317" lon="11.028355"><ele>310.6666666666667</ele><time>2026-03-22T10:13:16.393Z</time></trkpt><trkpt lat="43.9609033" lon="11.0284867"><ele>308.0</ele><time>2026-03-22T10:13:17.394Z</time></trkpt><trkpt lat="43.9608767" lon="11.02859"><ele>308.0</ele><time>2026-03-22T10:13:18.393Z</time></trkpt><trkpt lat="43.960845" lon="11.0287033"><ele>308.0</ele><time>2026-03-22T10:13:19.394Z</time></trkpt><trkpt lat="43.9607983" lon="11.0288483"><ele>308.0</ele><time>2026-03-22T10:13:20.394Z</time></trkpt><trkpt lat="43.96075" lon="11.028985"><ele>308.0</ele><time>2026-03-22T10:13:21.393Z</time></trkpt><trkpt lat="43.9607" lon="11.029105"><ele>308.0</ele><time>2026-03-22T10:13:22.393Z</time></trkpt><trkpt lat="43.9606567" lon="11.0292083"><ele>308.0</ele><time>2026-03-22T10:13:23.393Z</time></trkpt><trkpt lat="43.960615" lon="11.029305"><ele>308.0</ele><time>2026-03-22T10:13:24.393Z</time></trkpt><trkpt lat="43.960565" lon="11.029395"><ele>308.0</ele><time>2026-03-22T10:13:25.394Z</time></trkpt><trkpt lat="43.9605133" lon="11.0294717"><ele>308.0</ele><time>2026-03-22T10:13:26.393Z</time></trkpt><trkpt lat="43.960455" lon="11.0295483"><ele>308.0</ele><time>2026-03-22T10:13:27.393Z</time></trkpt><trkpt lat="43.9603967" lon="11.0296117"><ele>308.0</ele><time>2026-03-22T10:13:28.393Z</time></trkpt><trkpt lat="43.9603317" lon="11.029665"><ele>308.0</ele><time>2026-03-22T10:13:29.393Z</time></trkpt><trkpt lat="43.960255" lon="11.02971"><ele>308.0</ele><time>2026-03-22T10:13:30.394Z</time></trkpt><trkpt lat="43.960175" lon="11.0297567"><ele>308.0</ele><time>2026-03-22T10:13:31.393Z</time></trkpt><trkpt lat="43.9600967" lon="11.0298033"><ele>308.0</ele><time>2026-03-22T10:13:32.394Z</time></trkpt><trkpt lat="43.9600183" lon="11.0298467"><ele>308.0</ele><time>2026-03-22T10:13:33.393Z</time></trkpt><trkpt lat="43.9599333" lon="11.0298833"><ele>308.0</ele><time>2026-03-22T10:13:34.393Z</time></trkpt><trkpt lat="43.9598567" lon="11.0298967"><ele>311.57142857142856</ele><time>2026-03-22T10:13:35.393Z</time></trkpt><trkpt lat="43.9597833" lon="11.029895"><ele>315.1428571428571</ele><time>2026-03-22T10:13:36.394Z</time></trkpt><trkpt lat="43.959715" lon="11.0298667"><ele>318.7142857142857</ele><time>2026-03-22T10:13:37.393Z</time></trkpt><trkpt lat="43.95964" lon="11.0298383"><ele>322.2857142857143</ele><time>2026-03-22T10:13:38.393Z</time></trkpt><trkpt lat="43.9595717" lon="11.0298183"><ele>325.85714285714283</ele><time>2026-03-22T10:13:39.394Z</time></trkpt><trkpt lat="43.9595" lon="11.02981"><ele>329.42857142857144</ele><time>2026-03-22T10:13:40.394Z</time></trkpt><trkpt lat="43.959435" lon="11.029815"><ele>333.0</ele><time>2026-03-22T10:13:41.393Z</time></trkpt><trkpt lat="43.9593717" lon="11.02984"><ele>333.0</ele><time>2026-03-22T10:13:42.394Z</time></trkpt><trkpt lat="43.9593017" lon="11.0298983"><ele>333.0</ele><time>2026-03-22T10:13:43.393Z</time></trkpt><trkpt lat="43.9592267" lon="11.0299767"><ele>333.0</ele><time>2026-03-22T10:13:44.394Z</time></trkpt><trkpt lat="43.9591467" lon="11.03003"><ele>333.0</ele><time>2026-03-22T10:13:45.393Z</time></trkpt><trkpt lat="43.9590583" lon="11.0300867"><ele>333.0</ele><time>2026-03-22T10:13:46.393Z</time></trkpt><trkpt lat="43.95896" lon="11.0301367"><ele>327.79999999999995</ele><time>2026-03-22T10:13:47.394Z</time></trkpt><trkpt lat="43.9588617" lon="11.0301867"><ele>322.59999999999997</ele><time>2026-03-22T10:13:48.394Z</time></trkpt><trkpt lat="43.9587683" lon="11.0302283"><ele>317.4</ele><time>2026-03-22T10:13:49.394Z</time></trkpt><trkpt lat="43.958665" lon="11.0302567"><ele>312.2</ele><time>2026-03-22T10:13:50.393Z</time></trkpt><trkpt lat="43.95856" lon="11.0302717"><ele>307.0</ele><time>2026-03-22T10:13:51.394Z</time></trkpt><trkpt lat="43.9584533" lon="11.0302783"><ele>308.6</ele><time>2026-03-22T10:13:52.394Z</time></trkpt><trkpt lat="43.9583517" lon="11.030295"><ele>310.2</ele><time>2026-03-22T10:13:53.393Z</time></trkpt><trkpt lat="43.958255" lon="11.0303183"><ele>311.8</ele><time>2026-03-22T10:13:54.394Z</time></trkpt><trkpt lat="43.9581617" lon="11.0303467"><ele>313.4</ele><time>2026-03-22T10:13:55.394Z</time></trkpt><trkpt lat="43.9580733" lon="11.0303583"><ele>315.0</ele><time>2026-03-22T10:13:56.393Z</time></trkpt><trkpt lat="43.9579917" lon="11.030365"><ele>315.0</ele><time>2026-03-22T10:13:57.394Z</time></trkpt><trkpt lat="43.95792" lon="11.03037"><ele>315.0</ele><time>2026-03-22T10:13:58.393Z</time></trkpt><trkpt lat="43.9578433" lon="11.0303783"><ele>315.0</ele><time>2026-03-22T10:13:59.393Z</time></trkpt><trkpt lat="43.957765" lon="11.0303917"><ele>315.0</ele><time>2026-03-22T10:14:00.393Z</time></trkpt><trkpt lat="43.9576867" lon="11.0304067"><ele>315.0</ele><time>2026-03-22T10:14:01.393Z</time></trkpt><trkpt lat="43.9576183" lon="11.0303967"><ele>315.0</ele><time>2026-03-22T10:14:02.394Z</time></trkpt><trkpt lat="43.9575567" lon="11.0303783"><ele>315.0</ele><time>2026-03-22T10:14:03.394Z</time></trkpt><trkpt lat="43.9574533" lon="11.030325"><ele>312.3333333333333</ele><time>2026-03-22T10:14:05.394Z</time></trkpt><trkpt lat="43.95735" lon="11.0302733"><ele>309.6666666666667</ele><time>2026-03-22T10:14:07.393Z</time></trkpt><trkpt lat="43.9572383" lon="11.0302217"><ele>307.0</ele><time>2026-03-22T10:14:09.392Z</time></trkpt><trkpt lat="43.9571783" lon="11.0301833"><ele>304.33333333333337</ele><time>2026-03-22T10:14:10.393Z</time></trkpt><trkpt lat="43.9571117" lon="11.0301517"><ele>301.6666666666667</ele><time>2026-03-22T10:14:11.393Z</time></trkpt><trkpt lat="43.9570467" lon="11.03013"><ele>299.0</ele><time>2026-03-22T10:14:12.393Z</time></trkpt><trkpt lat="43.9569267" lon="11.0301217"><ele>299.0</ele><time>2026-03-22T10:14:14.392Z</time></trkpt><trkpt lat="43.956815" lon="11.0301367"><ele>299.0</ele><time>2026-03-22T10:14:16.393Z</time></trkpt><trkpt lat="43.95672" lon="11.03019"><ele>299.0</ele><time>2026-03-22T10:14:18.393Z</time></trkpt><trkpt lat="43.9566217" lon="11.03021"><ele>299.0</ele><time>2026-03-22T10:14:20.393Z</time></trkpt><trkpt lat="43.9565583" lon="11.0301383"><ele>299.0</ele><time>2026-03-22T10:14:22.393Z</time></trkpt><trkpt lat="43.9565267" lon="11.03004"><ele>301.2</ele><time>2026-03-22T10:14:24.392Z</time></trkpt><trkpt lat="43.9565017" lon="11.029945"><ele>303.4</ele><time>2026-03-22T10:14:26.392Z</time></trkpt><trkpt lat="43.9564217" lon="11.029875"><ele>305.6</ele><time>2026-03-22T10:14:29.392Z</time></trkpt><trkpt lat="43.9563267" lon="11.0298917"><ele>307.8</ele><time>2026-03-22T10:14:31.393Z</time></trkpt><trkpt lat="43.9562083" lon="11.0299283"><ele>310.0</ele><time>2026-03-22T10:14:33.392Z</time></trkpt><trkpt lat="43.95613" lon="11.0299883"><ele>303.6</ele><time>2026-03-22T10:14:35.394Z</time></trkpt><trkpt lat="43.95606" lon="11.0300467"><ele>297.2</ele><time>2026-03-22T10:14:37.394Z</time></trkpt><trkpt lat="43.955985" lon="11.030125"><ele>290.8</ele><time>2026-03-22T10:14:39.394Z</time></trkpt><trkpt lat="43.9559" lon="11.0301967"><ele>284.4</ele><time>2026-03-22T10:14:41.394Z</time></trkpt><trkpt lat="43.9557817" lon="11.0302583"><ele>278.0</ele><time>2026-03-22T10:14:43.393Z</time></trkpt><trkpt lat="43.9557133" lon="11.030315"><ele>275.4</ele><time>2026-03-22T10:14:44.393Z</time></trkpt><trkpt lat="43.9556517" lon="11.0303617"><ele>272.8</ele><time>2026-03-22T10:14:45.393Z</time></trkpt><trkpt lat="43.9555467" lon="11.03042"><ele>270.2</ele><time>2026-03-22T10:14:47.393Z</time></trkpt><trkpt lat="43.9554583" lon="11.0304633"><ele>267.6</ele><time>2026-03-22T10:14:49.393Z</time></trkpt><trkpt lat="43.95534" lon="11.0304967"><ele>265.0</ele><time>2026-03-22T10:14:51.394Z</time></trkpt><trkpt lat="43.955235" lon="11.0305233"><ele>265.0</ele><time>2026-03-22T10:14:53.394Z</time></trkpt><trkpt lat="43.9551517" lon="11.0305617"><ele>265.0</ele><time>2026-03-22T10:14:55.393Z</time></trkpt><trkpt lat="43.9550717" lon="11.0305533"><ele>265.0</ele><time>2026-03-22T10:14:57.394Z</time></trkpt><trkpt lat="43.954995" lon="11.0304983"><ele>265.0</ele><time>2026-03-22T10:14:59.394Z</time></trkpt><trkpt lat="43.9549317" lon="11.0304717"><ele>265.0</ele><time>2026-03-22T10:15:01.394Z</time></trkpt><trkpt lat="43.9548533" lon="11.0305"><ele>265.0</ele><time>2026-03-22T10:15:03.393Z</time></trkpt><trkpt lat="43.9547567" lon="11.030505"><ele>261.2</ele><time>2026-03-22T10:15:05.394Z</time></trkpt><trkpt lat="43.9546417" lon="11.0304983"><ele>257.4</ele><time>2026-03-22T10:15:07.393Z</time></trkpt><trkpt lat="43.9545483" lon="11.0305"><ele>253.60000000000002</ele><time>2026-03-22T10:15:09.393Z</time></trkpt><trkpt lat="43.9544583" lon="11.030525"><ele>249.8</ele><time>2026-03-22T10:15:11.394Z</time></trkpt><trkpt lat="43.9543633" lon="11.030555"><ele>246.0</ele><time>2026-03-22T10:15:13.394Z</time></trkpt><trkpt lat="43.9542383" lon="11.030565"><ele>242.83333333333334</ele><time>2026-03-22T10:15:15.393Z</time></trkpt><trkpt lat="43.9541717" lon="11.0305583"><ele>239.66666666666669</ele><time>2026-03-22T10:15:16.393Z</time></trkpt><trkpt lat="43.9541" lon="11.03056"><ele>236.5</ele><time>2026-03-22T10:15:17.393Z</time></trkpt><trkpt lat="43.954025" lon="11.030565"><ele>233.33333333333334</ele><time>2026-03-22T10:15:18.393Z</time></trkpt><trkpt lat="43.9539483" lon="11.0305617"><ele>230.16666666666669</ele><time>2026-03-22T10:15:19.393Z</time></trkpt><trkpt lat="43.9538667" lon="11.0305467"><ele>227.0</ele><time>2026-03-22T10:15:20.394Z</time></trkpt><trkpt lat="43.953785" lon="11.030525"><ele>227.00000000000003</ele><time>2026-03-22T10:15:21.393Z</time></trkpt><trkpt lat="43.9537" lon="11.0305"><ele>227.0</ele><time>2026-03-22T10:15:22.393Z</time></trkpt><trkpt lat="43.9536167" lon="11.0304833"><ele>227.0</ele><time>2026-03-22T10:15:23.393Z</time></trkpt><trkpt lat="43.9535317" lon="11.0304717"><ele>227.0</ele><time>2026-03-22T10:15:24.393Z</time></trkpt><trkpt lat="43.953445" lon="11.03046"><ele>227.00000000000003</ele><time>2026-03-22T10:15:25.394Z</time></trkpt><trkpt lat="43.95336" lon="11.0304383"><ele>227.0</ele><time>2026-03-22T10:15:26.393Z</time></trkpt><trkpt lat="43.9532817" lon="11.0304233"><ele>224.83333333333334</ele><time>2026-03-22T10:15:27.394Z</time></trkpt><trkpt lat="43.9532" lon="11.0304183"><ele>222.66666666666669</ele><time>2026-03-22T10:15:28.394Z</time></trkpt><trkpt lat="43.9531183" lon="11.0304217"><ele>220.5</ele><time>2026-03-22T10:15:29.393Z</time></trkpt><trkpt lat="43.9530383" lon="11.0304333"><ele>218.33333333333331</ele><time>2026-03-22T10:15:30.394Z</time></trkpt><trkpt lat="43.95297" lon="11.030435"><ele>216.16666666666666</ele><time>2026-03-22T10:15:31.393Z</time></trkpt><trkpt lat="43.9528983" lon="11.030445"><ele>214.0</ele><time>2026-03-22T10:15:32.394Z</time></trkpt><trkpt lat="43.9527767" lon="11.0304717"><ele>213.99999999999997</ele><time>2026-03-22T10:15:34.393Z</time></trkpt><trkpt lat="43.9527067" lon="11.03049"><ele>214.0</ele><time>2026-03-22T10:15:35.393Z</time></trkpt><trkpt lat="43.9526283" lon="11.030525"><ele>214.0</ele><time>2026-03-22T10:15:36.394Z</time></trkpt><trkpt lat="43.9525517" lon="11.0305717"><ele>214.0</ele><time>2026-03-22T10:15:37.393Z</time></trkpt><trkpt lat="43.9524683" lon="11.0306233"><ele>213.99999999999997</ele><time>2026-03-22T10:15:38.394Z</time></trkpt><trkpt lat="43.9523783" lon="11.0306833"><ele>214.0</ele><time>2026-03-22T10:15:39.393Z</time></trkpt><trkpt lat="43.952285" lon="11.030755"><ele>208.5</ele><time>2026-03-22T10:15:40.393Z</time></trkpt><trkpt lat="43.9521917" lon="11.0308283"><ele>203.0</ele><time>2026-03-22T10:15:41.394Z</time></trkpt><trkpt lat="43.9520933" lon="11.03091"><ele>197.5</ele><time>2026-03-22T10:15:42.393Z</time></trkpt><trkpt lat="43.9519967" lon="11.03099"><ele>192.0</ele><time>2026-03-22T10:15:43.394Z</time></trkpt><trkpt lat="43.9518917" lon="11.0310617"><ele>192.0</ele><time>2026-03-22T10:15:44.393Z</time></trkpt><trkpt lat="43.9517833" lon="11.0311167"><ele>192.0</ele><time>2026-03-22T10:15:45.393Z</time></trkpt><trkpt lat="43.9516817" lon="11.0311533"><ele>192.0</ele><time>2026-03-22T10:15:46.394Z</time></trkpt><trkpt lat="43.9515817" lon="11.0311783"><ele>192.0</ele><time>2026-03-22T10:15:47.393Z</time></trkpt><trkpt lat="43.95148" lon="11.0312033"><ele>192.0</ele><time>2026-03-22T10:15:48.394Z</time></trkpt><trkpt lat="43.951375" lon="11.03123"><ele>189.5</ele><time>2026-03-22T10:15:49.394Z</time></trkpt><trkpt lat="43.951275" lon="11.031265"><ele>187.0</ele><time>2026-03-22T10:15:50.393Z</time></trkpt><trkpt lat="43.9511667" lon="11.0313233"><ele>184.5</ele><time>2026-03-22T10:15:51.393Z</time></trkpt><trkpt lat="43.95105" lon="11.0313967"><ele>182.0</ele><time>2026-03-22T10:15:52.394Z</time></trkpt><trkpt lat="43.950935" lon="11.0314817"><ele>179.8</ele><time>2026-03-22T10:15:53.394Z</time></trkpt><trkpt lat="43.9508233" lon="11.0315617"><ele>177.6</ele><time>2026-03-22T10:15:54.393Z</time></trkpt><trkpt lat="43.9507233" lon="11.031645"><ele>175.4</ele><time>2026-03-22T10:15:55.393Z</time></trkpt><trkpt lat="43.95063" lon="11.0317183"><ele>173.20000000000002</ele><time>2026-03-22T10:15:56.394Z</time></trkpt><trkpt lat="43.9505483" lon="11.03177"><ele>171.0</ele><time>2026-03-22T10:15:57.393Z</time></trkpt><trkpt lat="43.9504517" lon="11.03182"><ele>168.5</ele><time>2026-03-22T10:15:58.393Z</time></trkpt><trkpt lat="43.9503383" lon="11.03186"><ele>166.0</ele><time>2026-03-22T10:15:59.394Z</time></trkpt><trkpt lat="43.9502183" lon="11.0319083"><ele>163.5</ele><time>2026-03-22T10:16:00.394Z</time></trkpt><trkpt lat="43.9501033" lon="11.03196"><ele>161.0</ele><time>2026-03-22T10:16:01.393Z</time></trkpt><trkpt lat="43.9499917" lon="11.0320117"><ele>160.0</ele><time>2026-03-22T10:16:02.393Z</time></trkpt><trkpt lat="43.949885" lon="11.0320533"><ele>159.0</ele><time>2026-03-22T10:16:03.393Z</time></trkpt><trkpt lat="43.949785" lon="11.0320833"><ele>158.0</ele><time>2026-03-22T10:16:04.393Z</time></trkpt><trkpt lat="43.9496917" lon="11.0320917"><ele>157.0</ele><time>2026-03-22T10:16:05.393Z</time></trkpt><trkpt lat="43.9496067" lon="11.0321017"><ele>156.0</ele><time>2026-03-22T10:16:06.394Z</time></trkpt><trkpt lat="43.949525" lon="11.032135"><ele>156.0</ele><time>2026-03-22T10:16:07.393Z</time></trkpt><trkpt lat="43.9494517" lon="11.03219"><ele>156.0</ele><time>2026-03-22T10:16:08.393Z</time></trkpt><trkpt lat="43.94939" lon="11.0322733"><ele>156.0</ele><time>2026-03-22T10:16:09.394Z</time></trkpt><trkpt lat="43.9493333" lon="11.03238"><ele>156.0</ele><time>2026-03-22T10:16:10.394Z</time></trkpt><trkpt lat="43.9492717" lon="11.0324917"><ele>156.0</ele><time>2026-03-22T10:16:11.393Z</time></trkpt><trkpt lat="43.9492083" lon="11.0325917"><ele>153.4</ele><time>2026-03-22T10:16:12.394Z</time></trkpt><trkpt lat="43.949145" lon="11.0326633"><ele>150.8</ele><time>2026-03-22T10:16:13.394Z</time></trkpt><trkpt lat="43.94906" lon="11.0327417"><ele>148.20000000000002</ele><time>2026-03-22T10:16:15.393Z</time></trkpt><trkpt lat="43.9490133" lon="11.03285"><ele>145.6</ele><time>2026-03-22T10:16:19.394Z</time></trkpt><trkpt lat="43.9490517" lon="11.0330133"><ele>143.0</ele><time>2026-03-22T10:16:21.394Z</time></trkpt><trkpt lat="43.949095" lon="11.033125"><ele>143.0</ele><time>2026-03-22T10:16:22.393Z</time></trkpt><trkpt lat="43.9491417" lon="11.0332417"><ele>143.0</ele><time>2026-03-22T10:16:23.394Z</time></trkpt><trkpt lat="43.9491883" lon="11.03336"><ele>143.0</ele><time>2026-03-22T10:16:24.393Z</time></trkpt><trkpt lat="43.9492367" lon="11.0334817"><ele>143.0</ele><time>2026-03-22T10:16:25.394Z</time></trkpt><trkpt lat="43.9492883" lon="11.0335883"><ele>143.0</ele><time>2026-03-22T10:16:26.393Z</time></trkpt><trkpt lat="43.9493417" lon="11.0336883"><ele>142.66666666666666</ele><time>2026-03-22T10:16:27.394Z</time></trkpt><trkpt lat="43.9493917" lon="11.033785"><ele>142.33333333333331</ele><time>2026-03-22T10:16:28.394Z</time></trkpt><trkpt lat="43.949435" lon="11.0338967"><ele>142.0</ele><time>2026-03-22T10:16:29.393Z</time></trkpt><trkpt lat="43.9494733" lon="11.0340017"><ele>141.66666666666666</ele><time>2026-03-22T10:16:30.393Z</time></trkpt><trkpt lat="43.949505" lon="11.0341"><ele>141.33333333333334</ele><time>2026-03-22T10:16:31.393Z</time></trkpt><trkpt lat="43.94954" lon="11.0342"><ele>141.0</ele><time>2026-03-22T10:16:32.393Z</time></trkpt><trkpt lat="43.9495717" lon="11.0342867"><ele>140.6</ele><time>2026-03-22T10:16:33.394Z</time></trkpt><trkpt lat="43.949605" lon="11.0343717"><ele>140.2</ele><time>2026-03-22T10:16:34.394Z</time></trkpt><trkpt lat="43.9496233" lon="11.034485"><ele>139.8</ele><time>2026-03-22T10:16:36.393Z</time></trkpt><trkpt lat="43.9495783" lon="11.0345483"><ele>139.4</ele><time>2026-03-22T10:16:38.393Z</time></trkpt><trkpt lat="43.9494567" lon="11.03454"><ele>139.0</ele><time>2026-03-22T10:16:40.394Z</time></trkpt><trkpt lat="43.9493433" lon="11.0345017"><ele>139.0</ele><time>2026-03-22T10:16:41.394Z</time></trkpt><trkpt lat="43.9492433" lon="11.0344767"><ele>139.0</ele><time>2026-03-22T10:16:42.394Z</time></trkpt><trkpt lat="43.9491333" lon="11.0344433"><ele>139.0</ele><time>2026-03-22T10:16:43.394Z</time></trkpt><trkpt lat="43.949025" lon="11.0344083"><ele>139.0</ele><time>2026-03-22T10:16:44.394Z</time></trkpt><trkpt lat="43.9489217" lon="11.0343633"><ele>139.0</ele><time>2026-03-22T10:16:45.394Z</time></trkpt><trkpt lat="43.94881" lon="11.0343283"><ele>138.0</ele><time>2026-03-22T10:16:46.394Z</time></trkpt><trkpt lat="43.9486967" lon="11.0342967"><ele>137.0</ele><time>2026-03-22T10:16:47.394Z</time></trkpt><trkpt lat="43.9485783" lon="11.03427"><ele>136.0</ele><time>2026-03-22T10:16:48.393Z</time></trkpt><trkpt lat="43.9484617" lon="11.0342317"><ele>135.0</ele><time>2026-03-22T10:16:49.393Z</time></trkpt><trkpt lat="43.9483383" lon="11.0341867"><ele>134.25</ele><time>2026-03-22T10:16:50.393Z</time></trkpt><trkpt lat="43.948215" lon="11.0341383"><ele>133.5</ele><time>2026-03-22T10:16:51.394Z</time></trkpt><trkpt lat="43.9480867" lon="11.03409"><ele>132.75</ele><time>2026-03-22T10:16:52.393Z</time></trkpt><trkpt lat="43.9479533" lon="11.0340483"><ele>132.0</ele><time>2026-03-22T10:16:53.394Z</time></trkpt><trkpt lat="43.947825" lon="11.0340083"><ele>132.0</ele><time>2026-03-22T10:16:54.394Z</time></trkpt><trkpt lat="43.9477067" lon="11.03397"><ele>132.0</ele><time>2026-03-22T10:16:55.394Z</time></trkpt><trkpt lat="43.9475917" lon="11.03393"><ele>132.0</ele><time>2026-03-22T10:16:56.393Z</time></trkpt><trkpt lat="43.9474783" lon="11.0338767"><ele>132.0</ele><time>2026-03-22T10:16:57.394Z</time></trkpt><trkpt lat="43.9473617" lon="11.0338267"><ele>130.5</ele><time>2026-03-22T10:16:58.393Z</time></trkpt><trkpt lat="43.9472483" lon="11.03379"><ele>129.0</ele><time>2026-03-22T10:16:59.394Z</time></trkpt><trkpt lat="43.9471267" lon="11.033755"><ele>127.5</ele><time>2026-03-22T10:17:00.393Z</time></trkpt><trkpt lat="43.947005" lon="11.0336917"><ele>126.0</ele><time>2026-03-22T10:17:01.394Z</time></trkpt><trkpt lat="43.9468883" lon="11.0336017"><ele>126.0</ele><time>2026-03-22T10:17:02.393Z</time></trkpt><trkpt lat="43.94678" lon="11.03351"><ele>126.0</ele><time>2026-03-22T10:17:03.393Z</time></trkpt><trkpt lat="43.9466767" lon="11.0334233"><ele>126.0</ele><time>2026-03-22T10:17:04.394Z</time></trkpt><trkpt lat="43.9465817" lon="11.0333383"><ele>126.0</ele><time>2026-03-22T10:17:05.393Z</time></trkpt><trkpt lat="43.9465" lon="11.03326"><ele>125.66666666666667</ele><time>2026-03-22T10:17:06.393Z</time></trkpt><trkpt lat="43.94643" lon="11.0332"><ele>125.33333333333334</ele><time>2026-03-22T10:17:07.394Z</time></trkpt><trkpt lat="43.946345" lon="11.0331667"><ele>125.0</ele><time>2026-03-22T10:17:09.394Z</time></trkpt><trkpt lat="43.9463" lon="11.03323"><ele>124.66666666666667</ele><time>2026-03-22T10:17:11.394Z</time></trkpt><trkpt lat="43.9462367" lon="11.0333433"><ele>124.33333333333334</ele><time>2026-03-22T10:17:13.393Z</time></trkpt><trkpt lat="43.9461733" lon="11.0334383"><ele>124.0</ele><time>2026-03-22T10:17:15.394Z</time></trkpt><trkpt lat="43.9461067" lon="11.03347"><ele>124.00000000000001</ele><time>2026-03-22T10:17:17.393Z</time></trkpt><trkpt lat="43.94603" lon="11.0333983"><ele>124.0</ele><time>2026-03-22T10:30:34.394Z</time></trkpt><trkpt lat="43.9459733" lon="11.03335"><ele>124.0</ele><time>2026-03-22T10:30:35.393Z</time></trkpt><trkpt lat="43.945915" lon="11.0333017"><ele>124.0</ele><time>2026-03-22T10:30:36.393Z</time></trkpt><trkpt lat="43.94585" lon="11.0332483"><ele>124.00000000000001</ele><time>2026-03-22T10:30:37.394Z</time></trkpt><trkpt lat="43.945775" lon="11.0331933"><ele>124.0</ele><time>2026-03-22T10:30:38.394Z</time></trkpt><trkpt lat="43.945695" lon="11.0331617"><ele>123.16666666666667</ele><time>2026-03-22T10:30:39.394Z</time></trkpt><trkpt lat="43.9456167" lon="11.0331383"><ele>122.33333333333334</ele><time>2026-03-22T10:30:40.393Z</time></trkpt><trkpt lat="43.9455433" lon="11.0331333"><ele>121.5</ele><time>2026-03-22T10:30:41.393Z</time></trkpt><trkpt lat="43.9454767" lon="11.03314"><ele>120.66666666666666</ele><time>2026-03-22T10:30:42.394Z</time></trkpt><trkpt lat="43.94536" lon="11.033115"><ele>119.83333333333333</ele><time>2026-03-22T10:30:44.393Z</time></trkpt><trkpt lat="43.945295" lon="11.0330917"><ele>119.0</ele><time>2026-03-22T10:30:45.393Z</time></trkpt><trkpt lat="43.945175" lon="11.0330933"><ele>118.99999999999999</ele><time>2026-03-22T10:30:47.394Z</time></trkpt><trkpt lat="43.9450717" lon="11.0331867"><ele>119.0</ele><time>2026-03-22T10:30:49.394Z</time></trkpt><trkpt lat="43.94504" lon="11.0332667"><ele>119.0</ele><time>2026-03-22T10:30:50.393Z</time></trkpt><trkpt lat="43.94502" lon="11.0333533"><ele>119.0</ele><time>2026-03-22T10:30:51.394Z</time></trkpt><trkpt lat="43.945015" lon="11.0334433"><ele>118.99999999999999</ele><time>2026-03-22T10:30:52.394Z</time></trkpt><trkpt lat="43.9450133" lon="11.0335417"><ele>119.0</ele><time>2026-03-22T10:30:53.393Z</time></trkpt><trkpt lat="43.9450217" lon="11.0336333"><ele>119.28571428571428</ele><time>2026-03-22T10:30:54.394Z</time></trkpt><trkpt lat="43.9450483" lon="11.033715"><ele>119.57142857142857</ele><time>2026-03-22T10:30:55.393Z</time></trkpt><trkpt lat="43.9450833" lon="11.0337983"><ele>119.85714285714286</ele><time>2026-03-22T10:30:56.394Z</time></trkpt><trkpt lat="43.9451167" lon="11.0338817"><ele>120.14285714285714</ele><time>2026-03-22T10:30:57.394Z</time></trkpt><trkpt lat="43.9451633" lon="11.033965"><ele>120.42857142857142</ele><time>2026-03-22T10:30:58.394Z</time></trkpt><trkpt lat="43.9452117" lon="11.03404"><ele>120.71428571428571</ele><time>2026-03-22T10:30:59.394Z</time></trkpt><trkpt lat="43.9452633" lon="11.034115"><ele>121.0</ele><time>2026-03-22T10:31:00.393Z</time></trkpt><trkpt lat="43.9453133" lon="11.034185"><ele>121.83333333333334</ele><time>2026-03-22T10:31:01.394Z</time></trkpt><trkpt lat="43.9453633" lon="11.034255"><ele>122.66666666666667</ele><time>2026-03-22T10:31:02.394Z</time></trkpt><trkpt lat="43.945405" lon="11.0343317"><ele>123.5</ele><time>2026-03-22T10:31:03.393Z</time></trkpt><trkpt lat="43.9454433" lon="11.0344133"><ele>124.33333333333334</ele><time>2026-03-22T10:31:04.394Z</time></trkpt><trkpt lat="43.9454733" lon="11.0344983"><ele>125.16666666666667</ele><time>2026-03-22T10:31:05.394Z</time></trkpt><trkpt lat="43.9455067" lon="11.034575"><ele>126.0</ele><time>2026-03-22T10:31:06.393Z</time></trkpt><trkpt lat="43.9455883" lon="11.0346933"><ele>126.0</ele><time>2026-03-22T10:31:08.393Z</time></trkpt><trkpt lat="43.9456717" lon="11.0347367"><ele>126.0</ele><time>2026-03-22T10:31:10.393Z</time></trkpt><trkpt lat="43.9457267" lon="11.03478"><ele>126.0</ele><time>2026-03-22T10:31:12.393Z</time></trkpt><trkpt lat="43.9456783" lon="11.0348433"><ele>126.0</ele><time>2026-03-22T10:31:16.393Z</time></trkpt><trkpt lat="43.94574" lon="11.03491"><ele>126.0</ele><time>2026-03-22T10:31:22.394Z</time></trkpt><trkpt lat="43.9458367" lon="11.0349783"><ele>126.0</ele><time>2026-03-22T10:31:24.394Z</time></trkpt><trkpt lat="43.9458867" lon="11.0350333"><ele>127.0</ele><time>2026-03-22T10:31:25.393Z</time></trkpt><trkpt lat="43.9459317" lon="11.0351067"><ele>128.0</ele><time>2026-03-22T10:31:26.393Z</time></trkpt><trkpt lat="43.945985" lon="11.0351833"><ele>129.0</ele><time>2026-03-22T10:31:27.393Z</time></trkpt><trkpt lat="43.946035" lon="11.0352717"><ele>130.0</ele><time>2026-03-22T10:31:28.393Z</time></trkpt><trkpt lat="43.9460833" lon="11.0353633"><ele>131.0</ele><time>2026-03-22T10:31:29.393Z</time></trkpt><trkpt lat="43.9461267" lon="11.0354533"><ele>132.0</ele><time>2026-03-22T10:31:30.393Z</time></trkpt><trkpt lat="43.94618" lon="11.0355367"><ele>132.0</ele><time>2026-03-22T10:31:31.394Z</time></trkpt><trkpt lat="43.946235" lon="11.035635"><ele>132.0</ele><time>2026-03-22T10:31:32.394Z</time></trkpt><trkpt lat="43.9462917" lon="11.0357383"><ele>132.0</ele><time>2026-03-22T10:31:33.394Z</time></trkpt><trkpt lat="43.9463367" lon="11.035865"><ele>132.0</ele><time>2026-03-22T10:31:34.393Z</time></trkpt><trkpt lat="43.94638" lon="11.035995"><ele>132.0</ele><time>2026-03-22T10:31:35.393Z</time></trkpt><trkpt lat="43.94643" lon="11.03612"><ele>135.0</ele><time>2026-03-22T10:31:36.393Z</time></trkpt><trkpt lat="43.9464833" lon="11.03624"><ele>138.0</ele><time>2026-03-22T10:31:37.393Z</time></trkpt><trkpt lat="43.9465433" lon="11.036355"><ele>141.0</ele><time>2026-03-22T10:31:38.393Z</time></trkpt><trkpt lat="43.9466083" lon="11.0364633"><ele>144.0</ele><time>2026-03-22T10:31:39.394Z</time></trkpt><trkpt lat="43.946685" lon="11.03657"><ele>147.0</ele><time>2026-03-22T10:31:40.393Z</time></trkpt><trkpt lat="43.9467717" lon="11.0366633"><ele>148.79999999999998</ele><time>2026-03-22T10:31:41.393Z</time></trkpt><trkpt lat="43.94685" lon="11.0367517"><ele>150.6</ele><time>2026-03-22T10:31:42.394Z</time></trkpt><trkpt lat="43.9469317" lon="11.036825"><ele>152.39999999999998</ele><time>2026-03-22T10:31:43.393Z</time></trkpt><trkpt lat="43.94702" lon="11.0368867"><ele>154.2</ele><time>2026-03-22T10:31:44.393Z</time></trkpt><trkpt lat="43.9471033" lon="11.036945"><ele>156.0</ele><time>2026-03-22T10:31:45.394Z</time></trkpt><trkpt lat="43.9471867" lon="11.03701"><ele>156.0</ele><time>2026-03-22T10:31:46.393Z</time></trkpt><trkpt lat="43.94726" lon="11.0370817"><ele>156.0</ele><time>2026-03-22T10:31:47.393Z</time></trkpt><trkpt lat="43.9473217" lon="11.0371667"><ele>156.0</ele><time>2026-03-22T10:31:48.393Z</time></trkpt><trkpt lat="43.9473733" lon="11.037265"><ele>156.0</ele><time>2026-03-22T10:31:49.393Z</time></trkpt><trkpt lat="43.947405" lon="11.0373717"><ele>156.0</ele><time>2026-03-22T10:31:50.393Z</time></trkpt><trkpt lat="43.9474233" lon="11.0374833"><ele>156.0</ele><time>2026-03-22T10:31:51.393Z</time></trkpt><trkpt lat="43.9474383" lon="11.0376"><ele>156.8</ele><time>2026-03-22T10:31:52.393Z</time></trkpt><trkpt lat="43.9474483" lon="11.0377183"><ele>157.6</ele><time>2026-03-22T10:31:53.394Z</time></trkpt><trkpt lat="43.947455" lon="11.0378267"><ele>158.4</ele><time>2026-03-22T10:31:54.393Z</time></trkpt><trkpt lat="43.9474617" lon="11.0379283"><ele>159.2</ele><time>2026-03-22T10:31:55.393Z</time></trkpt><trkpt lat="43.9474917" lon="11.0380883"><ele>160.0</ele><time>2026-03-22T10:31:57.394Z</time></trkpt><trkpt lat="43.9475517" lon="11.038195"><ele>160.0</ele><time>2026-03-22T10:31:59.393Z</time></trkpt><trkpt lat="43.94769" lon="11.038185"><ele>160.0</ele><time>2026-03-22T10:32:01.394Z</time></trkpt><trkpt lat="43.9477967" lon="11.0381333"><ele>160.0</ele><time>2026-03-22T10:32:02.394Z</time></trkpt><trkpt lat="43.9479333" lon="11.0380783"><ele>160.0</ele><time>2026-03-22T10:32:03.393Z</time></trkpt><trkpt lat="43.94806" lon="11.0380533"><ele>160.0</ele><time>2026-03-22T10:32:04.393Z</time></trkpt><trkpt lat="43.94817" lon="11.038045"><ele>160.0</ele><time>2026-03-22T10:32:05.394Z</time></trkpt><trkpt lat="43.9482717" lon="11.0380483"><ele>160.0</ele><time>2026-03-22T10:32:06.393Z</time></trkpt><trkpt lat="43.94836" lon="11.038075"><ele>160.0</ele><time>2026-03-22T10:32:07.394Z</time></trkpt><trkpt lat="43.9484417" lon="11.0381217"><ele>160.0</ele><time>2026-03-22T10:32:08.393Z</time></trkpt><trkpt lat="43.9484983" lon="11.0381933"><ele>157.8</ele><time>2026-03-22T10:32:09.394Z</time></trkpt><trkpt lat="43.948535" lon="11.038295"><ele>155.6</ele><time>2026-03-22T10:32:10.393Z</time></trkpt><trkpt lat="43.94855" lon="11.0384283"><ele>153.4</ele><time>2026-03-22T10:32:11.393Z</time></trkpt><trkpt lat="43.948585" lon="11.0385583"><ele>151.2</ele><time>2026-03-22T10:32:12.394Z</time></trkpt><trkpt lat="43.9486333" lon="11.038675"><ele>149.0</ele><time>2026-03-22T10:32:13.393Z</time></trkpt><trkpt lat="43.94868" lon="11.03878"><ele>152.66666666666666</ele><time>2026-03-22T10:32:14.394Z</time></trkpt><trkpt lat="43.948725" lon="11.0388667"><ele>156.33333333333331</ele><time>2026-03-22T10:32:15.394Z</time></trkpt><trkpt lat="43.9487717" lon="11.038935"><ele>160.0</ele><time>2026-03-22T10:32:16.393Z</time></trkpt><trkpt lat="43.9488317" lon="11.0389833"><ele>163.66666666666666</ele><time>2026-03-22T10:32:17.393Z</time></trkpt><trkpt lat="43.9489017" lon="11.038985"><ele>167.33333333333334</ele><time>2026-03-22T10:32:18.393Z</time></trkpt><trkpt lat="43.9489783" lon="11.0389617"><ele>171.0</ele><time>2026-03-22T10:32:19.394Z</time></trkpt><trkpt lat="43.9490683" lon="11.0389183"><ele>171.0</ele><time>2026-03-22T10:32:20.394Z</time></trkpt><trkpt lat="43.9491617" lon="11.0389017"><ele>171.0</ele><time>2026-03-22T10:32:21.394Z</time></trkpt><trkpt lat="43.94926" lon="11.0389083"><ele>171.0</ele><time>2026-03-22T10:32:22.393Z</time></trkpt><trkpt lat="43.94936" lon="11.03892"><ele>171.0</ele><time>2026-03-22T10:32:23.393Z</time></trkpt><trkpt lat="43.9494617" lon="11.0389633"><ele>171.0</ele><time>2026-03-22T10:32:24.393Z</time></trkpt><trkpt lat="43.9495683" lon="11.0390167"><ele>169.5</ele><time>2026-03-22T10:32:25.393Z</time></trkpt><trkpt lat="43.9496817" lon="11.0390767"><ele>168.0</ele><time>2026-03-22T10:32:26.393Z</time></trkpt><trkpt lat="43.9498" lon="11.0391367"><ele>166.5</ele><time>2026-03-22T10:32:27.393Z</time></trkpt><trkpt lat="43.9499217" lon="11.039195"><ele>165.0</ele><time>2026-03-22T10:32:28.393Z</time></trkpt><trkpt lat="43.950045" lon="11.0392567"><ele>168.0</ele><time>2026-03-22T10:32:29.394Z</time></trkpt><trkpt lat="43.95016" lon="11.039325"><ele>171.0</ele><time>2026-03-22T10:32:30.394Z</time></trkpt><trkpt lat="43.950265" lon="11.0393967"><ele>174.0</ele><time>2026-03-22T10:32:31.393Z</time></trkpt><trkpt lat="43.950365" lon="11.0394717"><ele>177.0</ele><time>2026-03-22T10:32:32.393Z</time></trkpt><trkpt lat="43.95046" lon="11.039545"><ele>177.0</ele><time>2026-03-22T10:32:33.393Z</time></trkpt><trkpt lat="43.950565" lon="11.039615"><ele>177.0</ele><time>2026-03-22T10:32:34.393Z</time></trkpt><trkpt lat="43.9506733" lon="11.0396833"><ele>177.0</ele><time>2026-03-22T10:32:35.394Z</time></trkpt><trkpt lat="43.9507767" lon="11.0397633"><ele>177.0</ele><time>2026-03-22T10:32:36.393Z</time></trkpt><trkpt lat="43.9508783" lon="11.03984"><ele>177.39999999999998</ele><time>2026-03-22T10:32:37.394Z</time></trkpt><trkpt lat="43.950975" lon="11.0399"><ele>177.79999999999998</ele><time>2026-03-22T10:32:38.394Z</time></trkpt><trkpt lat="43.95107" lon="11.039975"><ele>178.2</ele><time>2026-03-22T10:32:39.394Z</time></trkpt><trkpt lat="43.95116" lon="11.04006"><ele>178.6</ele><time>2026-03-22T10:32:40.393Z</time></trkpt><trkpt lat="43.95125" lon="11.0401583"><ele>179.0</ele><time>2026-03-22T10:32:41.394Z</time></trkpt><trkpt lat="43.95134" lon="11.0402633"><ele>179.0</ele><time>2026-03-22T10:32:42.393Z</time></trkpt><trkpt lat="43.95143" lon="11.0403667"><ele>179.0</ele><time>2026-03-22T10:32:43.394Z</time></trkpt><trkpt lat="43.9515083" lon="11.04048"><ele>179.0</ele><time>2026-03-22T10:32:44.393Z</time></trkpt><trkpt lat="43.9515667" lon="11.0405983"><ele>179.0</ele><time>2026-03-22T10:32:45.394Z</time></trkpt><trkpt lat="43.9516083" lon="11.0407283"><ele>179.0</ele><time>2026-03-22T10:32:46.394Z</time></trkpt><trkpt lat="43.95165" lon="11.0408567"><ele>177.39999999999998</ele><time>2026-03-22T10:32:47.394Z</time></trkpt><trkpt lat="43.9517" lon="11.0409783"><ele>175.8</ele><time>2026-03-22T10:32:48.393Z</time></trkpt><trkpt lat="43.951765" lon="11.0410833"><ele>174.2</ele><time>2026-03-22T10:32:49.393Z</time></trkpt><trkpt lat="43.9518317" lon="11.0411733"><ele>172.60000000000002</ele><time>2026-03-22T10:32:50.392Z</time></trkpt><trkpt lat="43.9518933" lon="11.0412767"><ele>171.0</ele><time>2026-03-22T10:32:51.393Z</time></trkpt><trkpt lat="43.951945" lon="11.04138"><ele>171.0</ele><time>2026-03-22T10:32:52.393Z</time></trkpt><trkpt lat="43.9519767" lon="11.0414883"><ele>171.0</ele><time>2026-03-22T10:32:53.392Z</time></trkpt><trkpt lat="43.9520033" lon="11.0416033"><ele>171.0</ele><time>2026-03-22T10:32:54.393Z</time></trkpt><trkpt lat="43.9520117" lon="11.04173"><ele>171.0</ele><time>2026-03-22T10:32:55.393Z</time></trkpt><trkpt lat="43.952" lon="11.0418733"><ele>171.0</ele><time>2026-03-22T10:32:56.392Z</time></trkpt><trkpt lat="43.9519867" lon="11.0420233"><ele>174.16666666666666</ele><time>2026-03-22T10:32:57.393Z</time></trkpt><trkpt lat="43.951965" lon="11.0421667"><ele>177.33333333333334</ele><time>2026-03-22T10:32:58.393Z</time></trkpt><trkpt lat="43.9519333" lon="11.0422967"><ele>180.5</ele><time>2026-03-22T10:32:59.392Z</time></trkpt><trkpt lat="43.9519083" lon="11.0424033"><ele>183.66666666666669</ele><time>2026-03-22T10:33:00.393Z</time></trkpt><trkpt lat="43.9518983" lon="11.042515"><ele>186.83333333333334</ele><time>2026-03-22T10:33:01.392Z</time></trkpt><trkpt lat="43.9518983" lon="11.04262"><ele>190.0</ele><time>2026-03-22T10:33:02.393Z</time></trkpt><trkpt lat="43.9519083" lon="11.0427083"><ele>194.6</ele><time>2026-03-22T10:33:03.393Z</time></trkpt><trkpt lat="43.95195" lon="11.042775"><ele>199.2</ele><time>2026-03-22T10:33:04.393Z</time></trkpt><trkpt lat="43.9520233" lon="11.0428583"><ele>203.8</ele><time>2026-03-22T10:33:06.393Z</time></trkpt><trkpt lat="43.952145" lon="11.042785"><ele>208.4</ele><time>2026-03-22T10:33:07.392Z</time></trkpt><trkpt lat="43.9522317" lon="11.0427717"><ele>213.0</ele><time>2026-03-22T10:33:08.393Z</time></trkpt><trkpt lat="43.9523167" lon="11.0427367"><ele>213.0</ele><time>2026-03-22T10:33:09.393Z</time></trkpt><trkpt lat="43.9524467" lon="11.0426533"><ele>213.0</ele><time>2026-03-22T10:33:10.394Z</time></trkpt><trkpt lat="43.9525717" lon="11.0426117"><ele>213.0</ele><time>2026-03-22T10:33:11.394Z</time></trkpt><trkpt lat="43.9526917" lon="11.0426133"><ele>213.0</ele><time>2026-03-22T10:33:12.394Z</time></trkpt><trkpt lat="43.95279" lon="11.0426233"><ele>210.0</ele><time>2026-03-22T10:33:13.393Z</time></trkpt><trkpt lat="43.9529017" lon="11.0426233"><ele>207.0</ele><time>2026-03-22T10:33:14.393Z</time></trkpt><trkpt lat="43.9530033" lon="11.0426483"><ele>204.0</ele><time>2026-03-22T10:33:15.393Z</time></trkpt><trkpt lat="43.9531" lon="11.04271"><ele>201.0</ele><time>2026-03-22T10:33:16.393Z</time></trkpt><trkpt lat="43.9531983" lon="11.0427683"><ele>198.0</ele><time>2026-03-22T10:33:17.393Z</time></trkpt><trkpt lat="43.953295" lon="11.0428233"><ele>196.66666666666666</ele><time>2026-03-22T10:33:18.393Z</time></trkpt><trkpt lat="43.953385" lon="11.042875"><ele>195.33333333333334</ele><time>2026-03-22T10:33:19.392Z</time></trkpt><trkpt lat="43.9534517" lon="11.042945"><ele>194.0</ele><time>2026-03-22T10:33:20.392Z</time></trkpt><trkpt lat="43.9535133" lon="11.0430133"><ele>192.66666666666669</ele><time>2026-03-22T10:33:21.392Z</time></trkpt><trkpt lat="43.9535567" lon="11.0430833"><ele>191.33333333333334</ele><time>2026-03-22T10:33:22.393Z</time></trkpt><trkpt lat="43.9535817" lon="11.04324"><ele>190.0</ele><time>2026-03-22T10:33:24.393Z</time></trkpt><trkpt lat="43.9535467" lon="11.043375"><ele>190.0</ele><time>2026-03-22T10:33:25.392Z</time></trkpt><trkpt lat="43.953515" lon="11.0435233"><ele>190.0</ele><time>2026-03-22T10:33:26.392Z</time></trkpt><trkpt lat="43.9534833" lon="11.043665"><ele>190.0</ele><time>2026-03-22T10:33:27.393Z</time></trkpt><trkpt lat="43.9533967" lon="11.043805"><ele>190.0</ele><time>2026-03-22T10:33:28.392Z</time></trkpt><trkpt lat="43.9533583" lon="11.0439183"><ele>190.0</ele><time>2026-03-22T10:33:29.392Z</time></trkpt><trkpt lat="43.9533483" lon="11.0440133"><ele>190.0</ele><time>2026-03-22T10:33:30.393Z</time></trkpt><trkpt lat="43.9533467" lon="11.0441783"><ele>190.0</ele><time>2026-03-22T10:33:32.394Z</time></trkpt><trkpt lat="43.953465" lon="11.0441817"><ele>190.0</ele><time>2026-03-22T10:33:34.394Z</time></trkpt><trkpt lat="43.9535283" lon="11.0441433"><ele>190.0</ele><time>2026-03-22T10:33:35.393Z</time></trkpt><trkpt lat="43.9535917" lon="11.04408"><ele>190.0</ele><time>2026-03-22T10:33:36.394Z</time></trkpt><trkpt lat="43.9536683" lon="11.0440383"><ele>190.0</ele><time>2026-03-22T10:33:37.395Z</time></trkpt><trkpt lat="43.95374" lon="11.0440083"><ele>190.0</ele><time>2026-03-22T10:33:38.393Z</time></trkpt><trkpt lat="43.9538167" lon="11.0439967"><ele>190.0</ele><time>2026-03-22T10:33:39.394Z</time></trkpt><trkpt lat="43.953895" lon="11.0439933"><ele>190.0</ele><time>2026-03-22T10:33:40.393Z</time></trkpt><trkpt lat="43.95397" lon="11.0440167"><ele>190.0</ele><time>2026-03-22T10:33:41.394Z</time></trkpt><trkpt lat="43.95404" lon="11.0440467"><ele>190.0</ele><time>2026-03-22T10:33:42.394Z</time></trkpt><trkpt lat="43.954105" lon="11.04407"><ele>190.0</ele><time>2026-03-22T10:33:43.393Z</time></trkpt><trkpt lat="43.9541717" lon="11.0440817"><ele>191.0</ele><time>2026-03-22T10:33:44.393Z</time></trkpt><trkpt lat="43.9542417" lon="11.0440983"><ele>192.0</ele><time>2026-03-22T10:33:45.394Z</time></trkpt><trkpt lat="43.9543117" lon="11.04414"><ele>193.0</ele><time>2026-03-22T10:33:46.393Z</time></trkpt><trkpt lat="43.95438" lon="11.0441983"><ele>194.0</ele><time>2026-03-22T10:33:47.394Z</time></trkpt><trkpt lat="43.9544517" lon="11.0442583"><ele>194.99999999999997</ele><time>2026-03-22T10:33:48.393Z</time></trkpt><trkpt lat="43.9545217" lon="11.0443167"><ele>196.0</ele><time>2026-03-22T10:33:49.394Z</time></trkpt><trkpt lat="43.9545967" lon="11.04437"><ele>195.99999999999997</ele><time>2026-03-22T10:33:50.394Z</time></trkpt><trkpt lat="43.9546767" lon="11.04441"><ele>196.0</ele><time>2026-03-22T10:33:51.394Z</time></trkpt><trkpt lat="43.9547583" lon="11.0444383"><ele>196.0</ele><time>2026-03-22T10:33:52.394Z</time></trkpt><trkpt lat="43.9548283" lon="11.0444783"><ele>196.0</ele><time>2026-03-22T10:33:53.394Z</time></trkpt><trkpt lat="43.9548967" lon="11.044535"><ele>195.99999999999997</ele><time>2026-03-22T10:33:54.394Z</time></trkpt><trkpt lat="43.95495" lon="11.0446017"><ele>196.0</ele><time>2026-03-22T10:33:55.394Z</time></trkpt><trkpt lat="43.9549883" lon="11.0446983"><ele>195.99999999999997</ele><time>2026-03-22T10:33:56.394Z</time></trkpt><trkpt lat="43.9550167" lon="11.0448133"><ele>196.0</ele><time>2026-03-22T10:33:57.394Z</time></trkpt><trkpt lat="43.95506" lon="11.0449117"><ele>196.0</ele><time>2026-03-22T10:33:58.393Z</time></trkpt><trkpt lat="43.9551083" lon="11.0450017"><ele>196.0</ele><time>2026-03-22T10:33:59.393Z</time></trkpt><trkpt lat="43.955165" lon="11.0450733"><ele>195.99999999999997</ele><time>2026-03-22T10:34:00.394Z</time></trkpt><trkpt lat="43.9552267" lon="11.0451433"><ele>196.0</ele><time>2026-03-22T10:34:01.394Z</time></trkpt><trkpt lat="43.9552783" lon="11.0452167"><ele>196.49999999999997</ele><time>2026-03-22T10:34:02.393Z</time></trkpt><trkpt lat="43.9553333" lon="11.0452883"><ele>197.0</ele><time>2026-03-22T10:34:03.394Z</time></trkpt><trkpt lat="43.9553733" lon="11.0453883"><ele>197.5</ele><time>2026-03-22T10:34:04.393Z</time></trkpt><trkpt lat="43.9554183" lon="11.04549"><ele>198.0</ele><time>2026-03-22T10:34:05.393Z</time></trkpt><trkpt lat="43.9554767" lon="11.0455983"><ele>198.49999999999997</ele><time>2026-03-22T10:34:06.394Z</time></trkpt><trkpt lat="43.95552" lon="11.045725"><ele>199.0</ele><time>2026-03-22T10:34:07.393Z</time></trkpt><trkpt lat="43.9555483" lon="11.0458467"><ele>203.0</ele><time>2026-03-22T10:34:08.394Z</time></trkpt><trkpt lat="43.9555867" lon="11.0459783"><ele>207.0</ele><time>2026-03-22T10:34:09.393Z</time></trkpt><trkpt lat="43.9556267" lon="11.0460917"><ele>210.99999999999997</ele><time>2026-03-22T10:34:10.393Z</time></trkpt><trkpt lat="43.95567" lon="11.046205"><ele>215.0</ele><time>2026-03-22T10:34:11.394Z</time></trkpt><trkpt lat="43.9557283" lon="11.04629"><ele>219.0</ele><time>2026-03-22T10:34:12.393Z</time></trkpt><trkpt lat="43.9558033" lon="11.0463683"><ele>216.2</ele><time>2026-03-22T10:34:13.393Z</time></trkpt><trkpt lat="43.955885" lon="11.0464417"><ele>213.39999999999998</ele><time>2026-03-22T10:34:14.393Z</time></trkpt><trkpt lat="43.9559717" lon="11.0465183"><ele>210.6</ele><time>2026-03-22T10:34:15.394Z</time></trkpt><trkpt lat="43.9560617" lon="11.046585"><ele>207.8</ele><time>2026-03-22T10:34:16.394Z</time></trkpt><trkpt lat="43.9561483" lon="11.0466433"><ele>205.0</ele><time>2026-03-22T10:34:17.393Z</time></trkpt><trkpt lat="43.9562533" lon="11.0466883"><ele>210.6</ele><time>2026-03-22T10:34:18.394Z</time></trkpt><trkpt lat="43.9563583" lon="11.0467283"><ele>216.2</ele><time>2026-03-22T10:34:19.393Z</time></trkpt><trkpt lat="43.956455" lon="11.0467583"><ele>221.8</ele><time>2026-03-22T10:34:20.394Z</time></trkpt><trkpt lat="43.9565417" lon="11.0468067"><ele>227.4</ele><time>2026-03-22T10:34:21.394Z</time></trkpt><trkpt lat="43.956615" lon="11.0468767"><ele>233.0</ele><time>2026-03-22T10:34:22.394Z</time></trkpt><trkpt lat="43.9566967" lon="11.0469517"><ele>231.50000000000003</ele><time>2026-03-22T10:34:23.393Z</time></trkpt><trkpt lat="43.9567733" lon="11.0470133"><ele>230.0</ele><time>2026-03-22T10:34:24.394Z</time></trkpt><trkpt lat="43.9568367" lon="11.04706"><ele>228.5</ele><time>2026-03-22T10:34:25.393Z</time></trkpt><trkpt lat="43.9569017" lon="11.0470933"><ele>227.0</ele><time>2026-03-22T10:34:26.394Z</time></trkpt><trkpt lat="43.9570033" lon="11.0471517"><ele>225.50000000000003</ele><time>2026-03-22T10:34:28.394Z</time></trkpt><trkpt lat="43.95709" lon="11.047235"><ele>224.0</ele><time>2026-03-22T10:34:30.394Z</time></trkpt><trkpt lat="43.957155" lon="11.04736"><ele>224.00000000000003</ele><time>2026-03-22T10:34:32.393Z</time></trkpt><trkpt lat="43.9571833" lon="11.0474433"><ele>224.0</ele><time>2026-03-22T10:34:33.394Z</time></trkpt><trkpt lat="43.9572083" lon="11.04754"><ele>224.0</ele><time>2026-03-22T10:34:34.393Z</time></trkpt><trkpt lat="43.9572333" lon="11.0476483"><ele>224.0</ele><time>2026-03-22T10:34:35.393Z</time></trkpt><trkpt lat="43.9572533" lon="11.0477617"><ele>224.00000000000003</ele><time>2026-03-22T10:34:36.393Z</time></trkpt><trkpt lat="43.9572767" lon="11.047875"><ele>224.0</ele><time>2026-03-22T10:34:37.393Z</time></trkpt><trkpt lat="43.9572983" lon="11.0479783"><ele>226.57142857142856</ele><time>2026-03-22T10:34:38.394Z</time></trkpt><trkpt lat="43.957325" lon="11.0480767"><ele>229.14285714285714</ele><time>2026-03-22T10:34:39.394Z</time></trkpt><trkpt lat="43.957355" lon="11.0481683"><ele>231.71428571428572</ele><time>2026-03-22T10:34:40.393Z</time></trkpt><trkpt lat="43.9573983" lon="11.0482367"><ele>234.28571428571428</ele><time>2026-03-22T10:34:41.394Z</time></trkpt><trkpt lat="43.9574517" lon="11.0482983"><ele>236.85714285714283</ele><time>2026-03-22T10:34:42.393Z</time></trkpt><trkpt lat="43.957515" lon="11.0483633"><ele>239.42857142857142</ele><time>2026-03-22T10:34:43.394Z</time></trkpt><trkpt lat="43.9575867" lon="11.04842"><ele>242.0</ele><time>2026-03-22T10:34:44.394Z</time></trkpt><trkpt lat="43.95767" lon="11.04846"><ele>245.6</ele><time>2026-03-22T10:34:45.393Z</time></trkpt><trkpt lat="43.9577583" lon="11.048495"><ele>249.2</ele><time>2026-03-22T10:34:46.394Z</time></trkpt><trkpt lat="43.9578517" lon="11.04852"><ele>252.8</ele><time>2026-03-22T10:34:47.394Z</time></trkpt><trkpt lat="43.9579417" lon="11.0485567"><ele>256.4</ele><time>2026-03-22T10:34:48.393Z</time></trkpt><trkpt lat="43.9580567" lon="11.0485817"><ele>260.0</ele><time>2026-03-22T10:34:49.394Z</time></trkpt><trkpt lat="43.9581633" lon="11.0486117"><ele>260.0</ele><time>2026-03-22T10:34:50.393Z</time></trkpt><trkpt lat="43.9582533" lon="11.0486367"><ele>260.0</ele><time>2026-03-22T10:34:51.394Z</time></trkpt><trkpt lat="43.95834" lon="11.0486617"><ele>260.0</ele><time>2026-03-22T10:34:52.394Z</time></trkpt><trkpt lat="43.9584167" lon="11.0486967"><ele>260.0</ele><time>2026-03-22T10:34:53.393Z</time></trkpt><trkpt lat="43.9584833" lon="11.048745"><ele>260.0</ele><time>2026-03-22T10:34:54.394Z</time></trkpt><trkpt lat="43.958535" lon="11.0488133"><ele>260.0</ele><time>2026-03-22T10:34:55.393Z</time></trkpt><trkpt lat="43.95857" lon="11.0488967"><ele>258.83333333333337</ele><time>2026-03-22T10:34:56.393Z</time></trkpt><trkpt lat="43.9585767" lon="11.0490017"><ele>257.6666666666667</ele><time>2026-03-22T10:34:57.393Z</time></trkpt><trkpt lat="43.9585633" lon="11.0491267"><ele>256.5</ele><time>2026-03-22T10:34:58.394Z</time></trkpt><trkpt lat="43.95855" lon="11.0492483"><ele>255.33333333333331</ele><time>2026-03-22T10:34:59.393Z</time></trkpt><trkpt lat="43.9585367" lon="11.0493517"><ele>254.16666666666666</ele><time>2026-03-22T10:35:00.393Z</time></trkpt><trkpt lat="43.9585233" lon="11.049445"><ele>253.0</ele><time>2026-03-22T10:35:01.393Z</time></trkpt><trkpt lat="43.95847" lon="11.04957"><ele>252.99999999999997</ele><time>2026-03-22T10:35:03.394Z</time></trkpt><trkpt lat="43.958385" lon="11.0494817"><ele>253.0</ele><time>2026-03-22T10:35:05.394Z</time></trkpt><trkpt lat="43.958355" lon="11.0494033"><ele>253.0</ele><time>2026-03-22T10:35:06.393Z</time></trkpt><trkpt lat="43.9583183" lon="11.049315"><ele>253.0</ele><time>2026-03-22T10:35:07.393Z</time></trkpt><trkpt lat="43.9582683" lon="11.049225"><ele>252.99999999999997</ele><time>2026-03-22T10:35:08.393Z</time></trkpt><trkpt lat="43.9582067" lon="11.0491383"><ele>253.0</ele><time>2026-03-22T10:35:09.393Z</time></trkpt><trkpt lat="43.9581333" lon="11.0490633"><ele>254.4</ele><time>2026-03-22T10:35:10.393Z</time></trkpt><trkpt lat="43.95805" lon="11.0490083"><ele>255.8</ele><time>2026-03-22T10:35:11.394Z</time></trkpt><trkpt lat="43.9579567" lon="11.048975"><ele>257.2</ele><time>2026-03-22T10:35:12.393Z</time></trkpt><trkpt lat="43.95785" lon="11.0489617"><ele>258.6</ele><time>2026-03-22T10:35:13.393Z</time></trkpt><trkpt lat="43.9577417" lon="11.0489533"><ele>260.0</ele><time>2026-03-22T10:35:14.394Z</time></trkpt><trkpt lat="43.957635" lon="11.04896"><ele>260.0</ele><time>2026-03-22T10:35:15.393Z</time></trkpt><trkpt lat="43.957535" lon="11.0489667"><ele>260.0</ele><time>2026-03-22T10:35:16.393Z</time></trkpt><trkpt lat="43.95743" lon="11.0489633"><ele>260.0</ele><time>2026-03-22T10:35:17.394Z</time></trkpt><trkpt lat="43.9573283" lon="11.048935"><ele>260.0</ele><time>2026-03-22T10:35:18.393Z</time></trkpt><trkpt lat="43.9572317" lon="11.0488817"><ele>260.0</ele><time>2026-03-22T10:35:19.394Z</time></trkpt><trkpt lat="43.957145" lon="11.048805"><ele>260.0</ele><time>2026-03-22T10:35:20.394Z</time></trkpt><trkpt lat="43.95706" lon="11.048715"><ele>260.0</ele><time>2026-03-22T10:35:21.394Z</time></trkpt><trkpt lat="43.9569883" lon="11.04862"><ele>260.0</ele><time>2026-03-22T10:35:22.393Z</time></trkpt><trkpt lat="43.9569017" lon="11.0485217"><ele>260.0</ele><time>2026-03-22T10:35:23.393Z</time></trkpt><trkpt lat="43.9568067" lon="11.0484283"><ele>260.0</ele><time>2026-03-22T10:35:24.394Z</time></trkpt><trkpt lat="43.956725" lon="11.0483333"><ele>259.8</ele><time>2026-03-22T10:35:25.393Z</time></trkpt><trkpt lat="43.95665" lon="11.0482367"><ele>259.6</ele><time>2026-03-22T10:35:26.393Z</time></trkpt><trkpt lat="43.9565783" lon="11.0481517"><ele>259.4</ele><time>2026-03-22T10:35:27.394Z</time></trkpt><trkpt lat="43.9564983" lon="11.04809"><ele>259.2</ele><time>2026-03-22T10:35:28.394Z</time></trkpt><trkpt lat="43.9564117" lon="11.0480417"><ele>259.0</ele><time>2026-03-22T10:35:29.394Z</time></trkpt><trkpt lat="43.9563167" lon="11.048"><ele>259.0</ele><time>2026-03-22T10:35:30.394Z</time></trkpt><trkpt lat="43.9562317" lon="11.04796"><ele>259.0</ele><time>2026-03-22T10:35:31.393Z</time></trkpt><trkpt lat="43.956165" lon="11.0479433"><ele>259.0</ele><time>2026-03-22T10:35:32.394Z</time></trkpt><trkpt lat="43.9560717" lon="11.04793"><ele>259.0</ele><time>2026-03-22T10:35:33.393Z</time></trkpt><trkpt lat="43.9559833" lon="11.0479367"><ele>259.0</ele><time>2026-03-22T10:35:34.393Z</time></trkpt><trkpt lat="43.9558917" lon="11.047935"><ele>259.0</ele><time>2026-03-22T10:35:35.394Z</time></trkpt><trkpt lat="43.9557983" lon="11.0479167"><ele>262.0</ele><time>2026-03-22T10:35:36.394Z</time></trkpt><trkpt lat="43.9557083" lon="11.047885"><ele>265.0</ele><time>2026-03-22T10:35:37.394Z</time></trkpt><trkpt lat="43.9556217" lon="11.047835"><ele>268.0</ele><time>2026-03-22T10:35:38.394Z</time></trkpt><trkpt lat="43.9555317" lon="11.0477883"><ele>271.0</ele><time>2026-03-22T10:35:39.393Z</time></trkpt><trkpt lat="43.9554367" lon="11.0477317"><ele>274.0</ele><time>2026-03-22T10:35:40.393Z</time></trkpt><trkpt lat="43.9553383" lon="11.0476783"><ele>274.0</ele><time>2026-03-22T10:35:41.393Z</time></trkpt><trkpt lat="43.9552383" lon="11.0476233"><ele>274.0</ele><time>2026-03-22T10:35:42.394Z</time></trkpt><trkpt lat="43.9551433" lon="11.0475683"><ele>274.0</ele><time>2026-03-22T10:35:43.394Z</time></trkpt><trkpt lat="43.955055" lon="11.0475167"><ele>274.0</ele><time>2026-03-22T10:35:44.393Z</time></trkpt><trkpt lat="43.9549783" lon="11.04749"><ele>274.0</ele><time>2026-03-22T10:35:45.393Z</time></trkpt><trkpt lat="43.954905" lon="11.04747"><ele>274.0</ele><time>2026-03-22T10:35:46.393Z</time></trkpt><trkpt lat="43.9548333" lon="11.0475167"><ele>274.0</ele><time>2026-03-22T10:35:48.393Z</time></trkpt><trkpt lat="43.954865" lon="11.0476"><ele>274.0</ele><time>2026-03-22T10:35:50.394Z</time></trkpt><trkpt lat="43.95492" lon="11.0476617"><ele>274.0</ele><time>2026-03-22T10:35:51.393Z</time></trkpt><trkpt lat="43.9549833" lon="11.047715"><ele>274.0</ele><time>2026-03-22T10:35:52.394Z</time></trkpt><trkpt lat="43.9550617" lon="11.0477783"><ele>274.0</ele><time>2026-03-22T10:35:53.393Z</time></trkpt><trkpt lat="43.9551433" lon="11.04786"><ele>274.0</ele><time>2026-03-22T10:35:54.394Z</time></trkpt><trkpt lat="43.9552167" lon="11.0479267"><ele>274.0</ele><time>2026-03-22T10:35:55.394Z</time></trkpt><trkpt lat="43.9552833" lon="11.0479917"><ele>274.0</ele><time>2026-03-22T10:35:56.393Z</time></trkpt><trkpt lat="43.955345" lon="11.048055"><ele>274.0</ele><time>2026-03-22T10:35:57.394Z</time></trkpt><trkpt lat="43.9554067" lon="11.0481183"><ele>274.0</ele><time>2026-03-22T10:35:58.393Z</time></trkpt><trkpt lat="43.9554733" lon="11.0481883"><ele>274.0</ele><time>2026-03-22T10:35:59.394Z</time></trkpt><trkpt lat="43.9555517" lon="11.04826"><ele>275.2</ele><time>2026-03-22T10:36:00.393Z</time></trkpt><trkpt lat="43.95563" lon="11.048335"><ele>276.4</ele><time>2026-03-22T10:36:01.393Z</time></trkpt><trkpt lat="43.955705" lon="11.0483883"><ele>277.6</ele><time>2026-03-22T10:36:02.393Z</time></trkpt><trkpt lat="43.95578" lon="11.0484467"><ele>278.8</ele><time>2026-03-22T10:36:03.394Z</time></trkpt><trkpt lat="43.9558417" lon="11.048515"><ele>280.0</ele><time>2026-03-22T10:36:04.393Z</time></trkpt><trkpt lat="43.9559333" lon="11.0485967"><ele>280.0</ele><time>2026-03-22T10:36:05.393Z</time></trkpt><trkpt lat="43.9560133" lon="11.0486917"><ele>280.0</ele><time>2026-03-22T10:36:06.394Z</time></trkpt><trkpt lat="43.9560733" lon="11.0488083"><ele>280.0</ele><time>2026-03-22T10:36:07.393Z</time></trkpt><trkpt lat="43.9561283" lon="11.048935"><ele>280.0</ele><time>2026-03-22T10:36:08.394Z</time></trkpt><trkpt lat="43.95623" lon="11.0490517"><ele>280.0</ele><time>2026-03-22T10:36:09.394Z</time></trkpt><trkpt lat="43.9563017" lon="11.049155"><ele>284.4</ele><time>2026-03-22T10:36:10.394Z</time></trkpt><trkpt lat="43.9563833" lon="11.0492567"><ele>288.8</ele><time>2026-03-22T10:36:11.393Z</time></trkpt><trkpt lat="43.9564667" lon="11.0493567"><ele>293.2</ele><time>2026-03-22T10:36:12.394Z</time></trkpt><trkpt lat="43.956545" lon="11.04945"><ele>297.6</ele><time>2026-03-22T10:36:13.394Z</time></trkpt><trkpt lat="43.95662" lon="11.0495333"><ele>302.0</ele><time>2026-03-22T10:36:14.394Z</time></trkpt><trkpt lat="43.9566817" lon="11.0496267"><ele>303.0</ele><time>2026-03-22T10:36:15.393Z</time></trkpt><trkpt lat="43.9567433" lon="11.0497233"><ele>304.0</ele><time>2026-03-22T10:36:16.394Z</time></trkpt><trkpt lat="43.9568167" lon="11.0498133"><ele>305.0</ele><time>2026-03-22T10:36:17.393Z</time></trkpt><trkpt lat="43.9568933" lon="11.049895"><ele>306.0</ele><time>2026-03-22T10:36:18.393Z</time></trkpt><trkpt lat="43.95698" lon="11.0499633"><ele>307.0</ele><time>2026-03-22T10:36:19.393Z</time></trkpt><trkpt lat="43.9570517" lon="11.050025"><ele>307.0</ele><time>2026-03-22T10:36:20.393Z</time></trkpt><trkpt lat="43.9571283" lon="11.0500833"><ele>307.0</ele><time>2026-03-22T10:36:21.393Z</time></trkpt><trkpt lat="43.957205" lon="11.05015"><ele>307.0</ele><time>2026-03-22T10:36:22.394Z</time></trkpt><trkpt lat="43.9572783" lon="11.05022"><ele>307.0</ele><time>2026-03-22T10:36:23.394Z</time></trkpt><trkpt lat="43.9573383" lon="11.0502783"><ele>307.0</ele><time>2026-03-22T10:36:24.393Z</time></trkpt><trkpt lat="43.9573867" lon="11.0503417"><ele>307.0</ele><time>2026-03-22T10:36:25.394Z</time></trkpt><trkpt lat="43.95743" lon="11.050425"><ele>307.0</ele><time>2026-03-22T10:36:26.393Z</time></trkpt><trkpt lat="43.9574667" lon="11.0505267"><ele>307.0</ele><time>2026-03-22T10:36:27.394Z</time></trkpt><trkpt lat="43.9574817" lon="11.050645"><ele>307.0</ele><time>2026-03-22T10:36:28.394Z</time></trkpt><trkpt lat="43.957485" lon="11.050765"><ele>307.0</ele><time>2026-03-22T10:36:29.393Z</time></trkpt><trkpt lat="43.957475" lon="11.050875"><ele>307.0</ele><time>2026-03-22T10:36:30.394Z</time></trkpt><trkpt lat="43.95745" lon="11.0509833"><ele>307.0</ele><time>2026-03-22T10:36:31.394Z</time></trkpt><trkpt lat="43.957405" lon="11.05108"><ele>308.3333333333333</ele><time>2026-03-22T10:36:32.394Z</time></trkpt><trkpt lat="43.9573417" lon="11.051165"><ele>309.66666666666663</ele><time>2026-03-22T10:36:33.394Z</time></trkpt><trkpt lat="43.9572983" lon="11.0512483"><ele>311.0</ele><time>2026-03-22T10:36:34.393Z</time></trkpt><trkpt lat="43.9572617" lon="11.0513367"><ele>312.3333333333333</ele><time>2026-03-22T10:36:35.393Z</time></trkpt><trkpt lat="43.9572383" lon="11.0514383"><ele>313.6666666666667</ele><time>2026-03-22T10:36:36.394Z</time></trkpt><trkpt lat="43.95722" lon="11.05155"><ele>315.0</ele><time>2026-03-22T10:36:37.394Z</time></trkpt><trkpt lat="43.957205" lon="11.0516783"><ele>315.0</ele><time>2026-03-22T10:36:38.394Z</time></trkpt><trkpt lat="43.9571967" lon="11.0517983"><ele>315.0</ele><time>2026-03-22T10:36:39.394Z</time></trkpt><trkpt lat="43.957195" lon="11.0519233"><ele>315.0</ele><time>2026-03-22T10:36:40.394Z</time></trkpt><trkpt lat="43.957195" lon="11.0520417"><ele>315.0</ele><time>2026-03-22T10:36:41.394Z</time></trkpt><trkpt lat="43.9571933" lon="11.0521567"><ele>315.0</ele><time>2026-03-22T10:36:42.393Z</time></trkpt><trkpt lat="43.957185" lon="11.0522767"><ele>315.0</ele><time>2026-03-22T10:36:43.393Z</time></trkpt><trkpt lat="43.957175" lon="11.052395"><ele>315.5</ele><time>2026-03-22T10:36:44.394Z</time></trkpt><trkpt lat="43.9571667" lon="11.0525133"><ele>316.0</ele><time>2026-03-22T10:36:45.394Z</time></trkpt><trkpt lat="43.957155" lon="11.0526367"><ele>316.5</ele><time>2026-03-22T10:36:46.393Z</time></trkpt><trkpt lat="43.9571417" lon="11.0527617"><ele>317.0</ele><time>2026-03-22T10:36:47.394Z</time></trkpt><trkpt lat="43.9571317" lon="11.0528733"><ele>317.5</ele><time>2026-03-22T10:36:48.394Z</time></trkpt><trkpt lat="43.9571217" lon="11.0529817"><ele>318.0</ele><time>2026-03-22T10:36:49.393Z</time></trkpt><trkpt lat="43.9571217" lon="11.0530783"><ele>318.0</ele><time>2026-03-22T10:36:50.393Z</time></trkpt><trkpt lat="43.9571283" lon="11.0531733"><ele>318.0</ele><time>2026-03-22T10:36:51.393Z</time></trkpt><trkpt lat="43.9571517" lon="11.05328"><ele>318.0</ele><time>2026-03-22T10:36:52.394Z</time></trkpt><trkpt lat="43.957195" lon="11.0533833"><ele>318.0</ele><time>2026-03-22T10:36:53.394Z</time></trkpt><trkpt lat="43.957265" lon="11.0534667"><ele>318.0</ele><time>2026-03-22T10:36:54.394Z</time></trkpt><trkpt lat="43.9573433" lon="11.0535317"><ele>318.0</ele><time>2026-03-22T10:36:55.394Z</time></trkpt><trkpt lat="43.957425" lon="11.0535767"><ele>316.1666666666667</ele><time>2026-03-22T10:36:56.393Z</time></trkpt><trkpt lat="43.9574983" lon="11.0536233"><ele>314.3333333333333</ele><time>2026-03-22T10:36:57.393Z</time></trkpt><trkpt lat="43.9575617" lon="11.0536767"><ele>312.5</ele><time>2026-03-22T10:36:58.394Z</time></trkpt><trkpt lat="43.9576117" lon="11.0537417"><ele>310.66666666666663</ele><time>2026-03-22T10:36:59.394Z</time></trkpt><trkpt lat="43.9576517" lon="11.0538233"><ele>308.8333333333333</ele><time>2026-03-22T10:37:00.394Z</time></trkpt><trkpt lat="43.957685" lon="11.0539217"><ele>307.0</ele><time>2026-03-22T10:37:01.393Z</time></trkpt><trkpt lat="43.9577117" lon="11.054035"><ele>309.5</ele><time>2026-03-22T10:37:02.393Z</time></trkpt><trkpt lat="43.9577283" lon="11.054155"><ele>312.0</ele><time>2026-03-22T10:37:03.394Z</time></trkpt><trkpt lat="43.9577417" lon="11.0542683"><ele>314.5</ele><time>2026-03-22T10:37:04.393Z</time></trkpt><trkpt lat="43.957755" lon="11.05437"><ele>317.0</ele><time>2026-03-22T10:37:05.393Z</time></trkpt><trkpt lat="43.9577717" lon="11.05452"><ele>319.5</ele><time>2026-03-22T10:37:07.393Z</time></trkpt><trkpt lat="43.95779" lon="11.0546167"><ele>322.0</ele><time>2026-03-22T10:37:09.394Z</time></trkpt><trkpt lat="43.9578033" lon="11.054715"><ele>322.0</ele><time>2026-03-22T10:37:11.394Z</time></trkpt><trkpt lat="43.957805" lon="11.0548033"><ele>322.0</ele><time>2026-03-22T10:37:13.393Z</time></trkpt><trkpt lat="43.9578167" lon="11.0549033"><ele>322.0</ele><time>2026-03-22T10:37:31.394Z</time></trkpt><trkpt lat="43.9578783" lon="11.0550017"><ele>322.0</ele><time>2026-03-22T10:40:17.393Z</time></trkpt><trkpt lat="43.957935" lon="11.055075"><ele>322.0</ele><time>2026-03-22T10:40:21.394Z</time></trkpt><trkpt lat="43.9578933" lon="11.0550017"><ele>322.0</ele><time>2026-03-22T10:40:59.394Z</time></trkpt><trkpt lat="43.9579322" lon="11.0550725"><ele>322.0</ele><time>2026-03-22T10:42:45.611Z</time></trkpt><trkpt lat="43.9580104" lon="11.0550584"><ele>324.16666666666663</ele><time>2026-03-22T10:44:02.699Z</time></trkpt><trkpt lat="43.958061" lon="11.0551204"><ele>326.3333333333333</ele><time>2026-03-22T10:44:10.7Z</time></trkpt><trkpt lat="43.9581667" lon="11.05518"><ele>328.5</ele><time>2026-03-22T10:44:12.393Z</time></trkpt><trkpt lat="43.9582767" lon="11.0551483"><ele>330.6666666666667</ele><time>2026-03-22T10:44:14.394Z</time></trkpt><trkpt lat="43.9583383" lon="11.0551133"><ele>332.83333333333337</ele><time>2026-03-22T10:44:15.393Z</time></trkpt><trkpt lat="43.9584117" lon="11.0550667"><ele>335.0</ele><time>2026-03-22T10:44:16.393Z</time></trkpt><trkpt lat="43.9584767" lon="11.0550233"><ele>335.83333333333337</ele><time>2026-03-22T10:44:17.393Z</time></trkpt><trkpt lat="43.9585433" lon="11.0549833"><ele>336.6666666666667</ele><time>2026-03-22T10:44:18.393Z</time></trkpt><trkpt lat="43.958615" lon="11.05496"><ele>337.5</ele><time>2026-03-22T10:44:19.393Z</time></trkpt><trkpt lat="43.9586933" lon="11.0549517"><ele>338.3333333333333</ele><time>2026-03-22T10:44:20.393Z</time></trkpt><trkpt lat="43.9587833" lon="11.0549417"><ele>339.16666666666663</ele><time>2026-03-22T10:44:21.393Z</time></trkpt><trkpt lat="43.9588817" lon="11.0549483"><ele>340.0</ele><time>2026-03-22T10:44:22.394Z</time></trkpt><trkpt lat="43.959" lon="11.0549633"><ele>340.0</ele><time>2026-03-22T10:44:23.394Z</time></trkpt><trkpt lat="43.9591317" lon="11.0549917"><ele>340.0</ele><time>2026-03-22T10:44:24.393Z</time></trkpt><trkpt lat="43.9592583" lon="11.0550217"><ele>340.0</ele><time>2026-03-22T10:44:25.393Z</time></trkpt><trkpt lat="43.959385" lon="11.0550517"><ele>340.0</ele><time>2026-03-22T10:44:26.394Z</time></trkpt><trkpt lat="43.9595017" lon="11.0550817"><ele>341.0</ele><time>2026-03-22T10:44:27.394Z</time></trkpt><trkpt lat="43.9596217" lon="11.0551117"><ele>342.0</ele><time>2026-03-22T10:44:28.393Z</time></trkpt><trkpt lat="43.9597417" lon="11.0551383"><ele>343.0</ele><time>2026-03-22T10:44:29.393Z</time></trkpt><trkpt lat="43.95985" lon="11.05516"><ele>344.0</ele><time>2026-03-22T10:44:30.393Z</time></trkpt><trkpt lat="43.9599617" lon="11.05518"><ele>344.75</ele><time>2026-03-22T10:44:31.393Z</time></trkpt><trkpt lat="43.9600717" lon="11.0552017"><ele>345.5</ele><time>2026-03-22T10:44:32.393Z</time></trkpt><trkpt lat="43.9601883" lon="11.05522"><ele>346.25</ele><time>2026-03-22T10:44:33.394Z</time></trkpt><trkpt lat="43.9603083" lon="11.0552267"><ele>347.0</ele><time>2026-03-22T10:44:34.393Z</time></trkpt><trkpt lat="43.9604417" lon="11.0552233"><ele>347.0</ele><time>2026-03-22T10:44:35.394Z</time></trkpt><trkpt lat="43.9605783" lon="11.0552183"><ele>347.0</ele><time>2026-03-22T10:44:36.394Z</time></trkpt><trkpt lat="43.960695" lon="11.055225"><ele>347.0</ele><time>2026-03-22T10:44:37.393Z</time></trkpt><trkpt lat="43.9607983" lon="11.05522"><ele>347.0</ele><time>2026-03-22T10:44:38.393Z</time></trkpt><trkpt lat="43.960885" lon="11.0552267"><ele>347.0</ele><time>2026-03-22T10:44:39.393Z</time></trkpt><trkpt lat="43.9609667" lon="11.05525"><ele>345.0</ele><time>2026-03-22T10:44:40.394Z</time></trkpt><trkpt lat="43.9610483" lon="11.0553117"><ele>343.0</ele><time>2026-03-22T10:44:41.393Z</time></trkpt><trkpt lat="43.96114" lon="11.055405"><ele>341.0</ele><time>2026-03-22T10:44:42.393Z</time></trkpt><trkpt lat="43.9612383" lon="11.0555233"><ele>339.0</ele><time>2026-03-22T10:44:43.393Z</time></trkpt><trkpt lat="43.9613283" lon="11.055645"><ele>339.0</ele><time>2026-03-22T10:44:44.394Z</time></trkpt><trkpt lat="43.961405" lon="11.055765"><ele>339.0</ele><time>2026-03-22T10:44:45.394Z</time></trkpt><trkpt lat="43.961465" lon="11.0558867"><ele>339.0</ele><time>2026-03-22T10:44:46.394Z</time></trkpt><trkpt lat="43.9615133" lon="11.0560133"><ele>339.0</ele><time>2026-03-22T10:44:47.394Z</time></trkpt><trkpt lat="43.9615667" lon="11.05614"><ele>339.0</ele><time>2026-03-22T10:44:48.394Z</time></trkpt><trkpt lat="43.9616333" lon="11.0562683"><ele>337.8333333333333</ele><time>2026-03-22T10:44:49.394Z</time></trkpt><trkpt lat="43.9617017" lon="11.0563983"><ele>336.6666666666667</ele><time>2026-03-22T10:44:50.393Z</time></trkpt><trkpt lat="43.9617483" lon="11.056515"><ele>335.5</ele><time>2026-03-22T10:44:51.394Z</time></trkpt><trkpt lat="43.9617783" lon="11.05662"><ele>334.33333333333337</ele><time>2026-03-22T10:44:52.393Z</time></trkpt><trkpt lat="43.9617867" lon="11.056725"><ele>333.1666666666667</ele><time>2026-03-22T10:44:53.394Z</time></trkpt><trkpt lat="43.9617883" lon="11.0568317"><ele>332.0</ele><time>2026-03-22T10:44:54.394Z</time></trkpt><trkpt lat="43.9617933" lon="11.05692"><ele>334.8</ele><time>2026-03-22T10:44:55.393Z</time></trkpt><trkpt lat="43.9618667" lon="11.05707"><ele>337.6</ele><time>2026-03-22T10:44:57.393Z</time></trkpt><trkpt lat="43.961945" lon="11.0571283"><ele>340.40000000000003</ele><time>2026-03-22T10:44:58.394Z</time></trkpt><trkpt lat="43.9620167" lon="11.0572067"><ele>343.20000000000005</ele><time>2026-03-22T10:44:59.394Z</time></trkpt><trkpt lat="43.9620883" lon="11.05731"><ele>346.0</ele><time>2026-03-22T10:45:00.394Z</time></trkpt><trkpt lat="43.96215" lon="11.05744"><ele>349.0</ele><time>2026-03-22T10:45:01.394Z</time></trkpt><trkpt lat="43.9622083" lon="11.0575667"><ele>352.0</ele><time>2026-03-22T10:45:02.394Z</time></trkpt><trkpt lat="43.9622633" lon="11.057675"><ele>355.0</ele><time>2026-03-22T10:45:03.393Z</time></trkpt><trkpt lat="43.962315" lon="11.05776"><ele>358.0</ele><time>2026-03-22T10:45:04.393Z</time></trkpt><trkpt lat="43.96235" lon="11.0578383"><ele>361.0</ele><time>2026-03-22T10:45:05.393Z</time></trkpt><trkpt lat="43.96236" lon="11.05796"><ele>364.0</ele><time>2026-03-22T10:45:07.393Z</time></trkpt><trkpt lat="43.9622417" lon="11.0579417"><ele>364.0</ele><time>2026-03-22T10:45:09.393Z</time></trkpt><trkpt lat="43.96217" lon="11.05787"><ele>364.0</ele><time>2026-03-22T10:45:10.394Z</time></trkpt><trkpt lat="43.9620967" lon="11.05776"><ele>364.0</ele><time>2026-03-22T10:45:11.394Z</time></trkpt><trkpt lat="43.96201" lon="11.0576283"><ele>364.0</ele><time>2026-03-22T10:45:12.394Z</time></trkpt><trkpt lat="43.9619233" lon="11.0575183"><ele>364.0</ele><time>2026-03-22T10:45:13.393Z</time></trkpt><trkpt lat="43.9618267" lon="11.05747"><ele>365.25</ele><time>2026-03-22T10:45:14.394Z</time></trkpt><trkpt lat="43.9617133" lon="11.0574317"><ele>366.5</ele><time>2026-03-22T10:45:15.393Z</time></trkpt><trkpt lat="43.9615733" lon="11.0573917"><ele>367.75</ele><time>2026-03-22T10:45:16.394Z</time></trkpt><trkpt lat="43.9614333" lon="11.05733"><ele>369.0</ele><time>2026-03-22T10:45:17.394Z</time></trkpt><trkpt lat="43.9612767" lon="11.0572417"><ele>369.0</ele><time>2026-03-22T10:45:18.393Z</time></trkpt><trkpt lat="43.9611333" lon="11.0571633"><ele>369.0</ele><time>2026-03-22T10:45:19.393Z</time></trkpt><trkpt lat="43.9610083" lon="11.0570883"><ele>369.0</ele><time>2026-03-22T10:45:20.394Z</time></trkpt><trkpt lat="43.9608933" lon="11.0570467"><ele>369.0</ele><time>2026-03-22T10:45:21.393Z</time></trkpt><trkpt lat="43.9607817" lon="11.0570383"><ele>371.79999999999995</ele><time>2026-03-22T10:45:22.394Z</time></trkpt><trkpt lat="43.9606567" lon="11.0570567"><ele>374.59999999999997</ele><time>2026-03-22T10:45:23.393Z</time></trkpt><trkpt lat="43.9605367" lon="11.057075"><ele>377.4</ele><time>2026-03-22T10:45:24.394Z</time></trkpt><trkpt lat="43.9604333" lon="11.0571033"><ele>380.2</ele><time>2026-03-22T10:45:25.394Z</time></trkpt><trkpt lat="43.9603517" lon="11.0571367"><ele>383.0</ele><time>2026-03-22T10:45:26.394Z</time></trkpt><trkpt lat="43.9602883" lon="11.0571767"><ele>383.0</ele><time>2026-03-22T10:45:27.393Z</time></trkpt><trkpt lat="43.9602233" lon="11.05728"><ele>383.0</ele><time>2026-03-22T10:45:29.394Z</time></trkpt><trkpt lat="43.9602967" lon="11.0573683"><ele>383.0</ele><time>2026-03-22T10:45:31.394Z</time></trkpt><trkpt lat="43.9604433" lon="11.057345"><ele>383.0</ele><time>2026-03-22T10:45:32.394Z</time></trkpt><trkpt lat="43.96056" lon="11.0573567"><ele>383.0</ele><time>2026-03-22T10:45:33.394Z</time></trkpt><trkpt lat="43.9606733" lon="11.0573967"><ele>383.0</ele><time>2026-03-22T10:45:34.393Z</time></trkpt><trkpt lat="43.96078" lon="11.057465"><ele>383.0</ele><time>2026-03-22T10:45:35.393Z</time></trkpt><trkpt lat="43.96087" lon="11.0575617"><ele>383.0</ele><time>2026-03-22T10:45:36.394Z</time></trkpt><trkpt lat="43.9609433" lon="11.057675"><ele>382.75</ele><time>2026-03-22T10:45:37.394Z</time></trkpt><trkpt lat="43.9610017" lon="11.0578183"><ele>382.5</ele><time>2026-03-22T10:45:38.394Z</time></trkpt><trkpt lat="43.96107" lon="11.0579733"><ele>382.25</ele><time>2026-03-22T10:45:39.393Z</time></trkpt><trkpt lat="43.9611417" lon="11.0581183"><ele>382.0</ele><time>2026-03-22T10:45:40.394Z</time></trkpt><trkpt lat="43.961215" lon="11.05826"><ele>384.20000000000005</ele><time>2026-03-22T10:45:41.393Z</time></trkpt><trkpt lat="43.9612817" lon="11.0584083"><ele>386.4</ele><time>2026-03-22T10:45:42.394Z</time></trkpt><trkpt lat="43.9613283" lon="11.0585467"><ele>388.6</ele><time>2026-03-22T10:45:43.393Z</time></trkpt><trkpt lat="43.9613517" lon="11.0586917"><ele>390.79999999999995</ele><time>2026-03-22T10:45:44.393Z</time></trkpt><trkpt lat="43.9613383" lon="11.0588367"><ele>393.0</ele><time>2026-03-22T10:45:45.394Z</time></trkpt><trkpt lat="43.9613133" lon="11.05899"><ele>395.0</ele><time>2026-03-22T10:45:46.393Z</time></trkpt><trkpt lat="43.9612983" lon="11.0591433"><ele>397.0</ele><time>2026-03-22T10:45:47.393Z</time></trkpt><trkpt lat="43.9613033" lon="11.059315"><ele>399.0</ele><time>2026-03-22T10:45:48.394Z</time></trkpt><trkpt lat="43.9613183" lon="11.0595033"><ele>401.0</ele><time>2026-03-22T10:45:49.394Z</time></trkpt><trkpt lat="43.961345" lon="11.0596683"><ele>401.0</ele><time>2026-03-22T10:45:50.394Z</time></trkpt><trkpt lat="43.9613717" lon="11.0598017"><ele>401.0</ele><time>2026-03-22T10:45:51.394Z</time></trkpt><trkpt lat="43.9613833" lon="11.0599067"><ele>401.0</ele><time>2026-03-22T10:45:52.394Z</time></trkpt><trkpt lat="43.9613767" lon="11.0600567"><ele>401.0</ele><time>2026-03-22T10:45:54.394Z</time></trkpt><trkpt lat="43.9613183" lon="11.0599667"><ele>401.0</ele><time>2026-03-22T10:45:56.393Z</time></trkpt><trkpt lat="43.961255" lon="11.0597467"><ele>401.0</ele><time>2026-03-22T10:45:58.394Z</time></trkpt><trkpt lat="43.9612033" lon="11.059615"><ele>401.0</ele><time>2026-03-22T10:45:59.394Z</time></trkpt><trkpt lat="43.9611367" lon="11.0594667"><ele>401.0</ele><time>2026-03-22T10:46:00.394Z</time></trkpt><trkpt lat="43.96106" lon="11.059315"><ele>401.0</ele><time>2026-03-22T10:46:01.393Z</time></trkpt><trkpt lat="43.9609883" lon="11.0591617"><ele>402.4</ele><time>2026-03-22T10:46:02.393Z</time></trkpt><trkpt lat="43.96092" lon="11.0590167"><ele>403.8</ele><time>2026-03-22T10:46:03.393Z</time></trkpt><trkpt lat="43.9608467" lon="11.0588917"><ele>405.2</ele><time>2026-03-22T10:46:04.394Z</time></trkpt><trkpt lat="43.9607733" lon="11.058795"><ele>406.59999999999997</ele><time>2026-03-22T10:46:05.393Z</time></trkpt><trkpt lat="43.96068" lon="11.0587333"><ele>408.0</ele><time>2026-03-22T10:46:06.393Z</time></trkpt><trkpt lat="43.9605683" lon="11.0586967"><ele>408.0</ele><time>2026-03-22T10:46:07.394Z</time></trkpt><trkpt lat="43.9604617" lon="11.0586783"><ele>408.0</ele><time>2026-03-22T10:46:08.394Z</time></trkpt><trkpt lat="43.9603667" lon="11.0586967"><ele>408.0</ele><time>2026-03-22T10:46:09.393Z</time></trkpt><trkpt lat="43.9602917" lon="11.0587233"><ele>408.0</ele><time>2026-03-22T10:46:10.394Z</time></trkpt><trkpt lat="43.9602167" lon="11.05876"><ele>408.0</ele><time>2026-03-22T10:46:11.393Z</time></trkpt><trkpt lat="43.9601517" lon="11.0588633"><ele>408.0</ele><time>2026-03-22T10:46:12.393Z</time></trkpt><trkpt lat="43.96008" lon="11.0590117"><ele>408.0</ele><time>2026-03-22T10:46:13.393Z</time></trkpt><trkpt lat="43.9600267" lon="11.0591767"><ele>408.0</ele><time>2026-03-22T10:46:14.393Z</time></trkpt><trkpt lat="43.9599567" lon="11.0592983"><ele>408.0</ele><time>2026-03-22T10:46:15.394Z</time></trkpt><trkpt lat="43.9598717" lon="11.0594017"><ele>411.4</ele><time>2026-03-22T10:46:16.393Z</time></trkpt><trkpt lat="43.9597717" lon="11.0594633"><ele>414.79999999999995</ele><time>2026-03-22T10:46:17.394Z</time></trkpt><trkpt lat="43.959675" lon="11.0595117"><ele>418.2</ele><time>2026-03-22T10:46:18.392Z</time></trkpt><trkpt lat="43.959585" lon="11.0595233"><ele>421.6</ele><time>2026-03-22T10:46:19.393Z</time></trkpt><trkpt lat="43.9595117" lon="11.0594983"><ele>425.0</ele><time>2026-03-22T10:46:20.393Z</time></trkpt><trkpt lat="43.95944" lon="11.0594533"><ele>425.0</ele><time>2026-03-22T10:46:21.392Z</time></trkpt><trkpt lat="43.9593867" lon="11.0593233"><ele>425.0</ele><time>2026-03-22T10:46:22.393Z</time></trkpt><trkpt lat="43.9593333" lon="11.0591833"><ele>425.0</ele><time>2026-03-22T10:46:23.394Z</time></trkpt><trkpt lat="43.95927" lon="11.059075"><ele>425.0</ele><time>2026-03-22T10:46:24.393Z</time></trkpt><trkpt lat="43.9591867" lon="11.0589933"><ele>425.0</ele><time>2026-03-22T10:46:25.392Z</time></trkpt><trkpt lat="43.9591083" lon="11.0589167"><ele>422.8333333333333</ele><time>2026-03-22T10:46:26.393Z</time></trkpt><trkpt lat="43.959035" lon="11.05887"><ele>420.66666666666663</ele><time>2026-03-22T10:46:27.392Z</time></trkpt><trkpt lat="43.9589633" lon="11.058855"><ele>418.5</ele><time>2026-03-22T10:46:28.393Z</time></trkpt><trkpt lat="43.95889" lon="11.0588517"><ele>416.33333333333337</ele><time>2026-03-22T10:46:29.392Z</time></trkpt><trkpt lat="43.9588117" lon="11.0588733"><ele>414.1666666666667</ele><time>2026-03-22T10:46:30.393Z</time></trkpt><trkpt lat="43.9587233" lon="11.0589467"><ele>412.0</ele><time>2026-03-22T10:46:31.393Z</time></trkpt><trkpt lat="43.9586317" lon="11.0590417"><ele>417.20000000000005</ele><time>2026-03-22T10:46:32.392Z</time></trkpt><trkpt lat="43.958535" lon="11.0591567"><ele>422.4</ele><time>2026-03-22T10:46:33.392Z</time></trkpt><trkpt lat="43.95845" lon="11.05922"><ele>427.59999999999997</ele><time>2026-03-22T10:46:34.393Z</time></trkpt><trkpt lat="43.95838" lon="11.0592917"><ele>432.79999999999995</ele><time>2026-03-22T10:46:35.394Z</time></trkpt><trkpt lat="43.95831" lon="11.0593383"><ele>438.0</ele><time>2026-03-22T10:46:36.394Z</time></trkpt><trkpt lat="43.9582333" lon="11.0593533"><ele>435.75</ele><time>2026-03-22T10:46:37.393Z</time></trkpt><trkpt lat="43.958135" lon="11.0592617"><ele>433.5</ele><time>2026-03-22T10:46:39.392Z</time></trkpt><trkpt lat="43.9581067" lon="11.05913"><ele>431.25</ele><time>2026-03-22T10:46:40.393Z</time></trkpt><trkpt lat="43.9580883" lon="11.0588833"><ele>429.0</ele><time>2026-03-22T10:46:41.392Z</time></trkpt><trkpt lat="43.9580617" lon="11.058715"><ele>429.0</ele><time>2026-03-22T10:46:42.392Z</time></trkpt><trkpt lat="43.9580283" lon="11.0585667"><ele>429.0</ele><time>2026-03-22T10:46:43.393Z</time></trkpt><trkpt lat="43.9579917" lon="11.058455"><ele>429.0</ele><time>2026-03-22T10:46:44.392Z</time></trkpt><trkpt lat="43.9579533" lon="11.05834"><ele>429.0</ele><time>2026-03-22T10:46:45.392Z</time></trkpt><trkpt lat="43.9579033" lon="11.0582617"><ele>429.0</ele><time>2026-03-22T10:46:46.393Z</time></trkpt><trkpt lat="43.9578417" lon="11.0582067"><ele>429.0</ele><time>2026-03-22T10:46:47.394Z</time></trkpt><trkpt lat="43.95777" lon="11.0581817"><ele>434.0</ele><time>2026-03-22T10:46:48.392Z</time></trkpt><trkpt lat="43.957675" lon="11.0581867"><ele>439.0</ele><time>2026-03-22T10:46:49.392Z</time></trkpt><trkpt lat="43.957555" lon="11.058245"><ele>444.0</ele><time>2026-03-22T10:46:50.392Z</time></trkpt><trkpt lat="43.9574283" lon="11.058315"><ele>449.0</ele><time>2026-03-22T10:46:51.392Z</time></trkpt><trkpt lat="43.9573383" lon="11.0583517"><ele>448.99999999999994</ele><time>2026-03-22T10:46:52.394Z</time></trkpt><trkpt lat="43.9572617" lon="11.0583767"><ele>449.0</ele><time>2026-03-22T10:46:53.393Z</time></trkpt><trkpt lat="43.9571467" lon="11.0584517"><ele>449.0</ele><time>2026-03-22T10:46:55.393Z</time></trkpt><trkpt lat="43.9571" lon="11.0585183"><ele>449.0</ele><time>2026-03-22T10:46:57.393Z</time></trkpt><trkpt lat="43.9571533" lon="11.0585867"><ele>448.99999999999994</ele><time>2026-03-22T10:46:59.394Z</time></trkpt><trkpt lat="43.9572067" lon="11.0586333"><ele>449.0</ele><time>2026-03-22T10:47:00.394Z</time></trkpt><trkpt lat="43.9573017" lon="11.0586567"><ele>449.0</ele><time>2026-03-22T10:47:01.393Z</time></trkpt><trkpt lat="43.9574667" lon="11.0586433"><ele>449.0</ele><time>2026-03-22T10:47:02.393Z</time></trkpt><trkpt lat="43.9576017" lon="11.0586667"><ele>449.0</ele><time>2026-03-22T10:47:03.393Z</time></trkpt><trkpt lat="43.9577033" lon="11.05872"><ele>449.0</ele><time>2026-03-22T10:47:04.393Z</time></trkpt><trkpt lat="43.9577383" lon="11.05884"><ele>448.79999999999995</ele><time>2026-03-22T10:47:05.393Z</time></trkpt><trkpt lat="43.9577633" lon="11.0589667"><ele>448.59999999999997</ele><time>2026-03-22T10:47:06.394Z</time></trkpt><trkpt lat="43.9577567" lon="11.0591317"><ele>448.4</ele><time>2026-03-22T10:47:07.393Z</time></trkpt><trkpt lat="43.9577433" lon="11.05929"><ele>448.2</ele><time>2026-03-22T10:47:08.393Z</time></trkpt><trkpt lat="43.9577233" lon="11.0594283"><ele>448.0</ele><time>2026-03-22T10:47:09.394Z</time></trkpt><trkpt lat="43.95772" lon="11.05954"><ele>448.00000000000006</ele><time>2026-03-22T10:47:10.394Z</time></trkpt><trkpt lat="43.9577217" lon="11.05964"><ele>448.0</ele><time>2026-03-22T10:47:11.393Z</time></trkpt><trkpt lat="43.957735" lon="11.0597333"><ele>448.0</ele><time>2026-03-22T10:47:12.393Z</time></trkpt><trkpt lat="43.9577817" lon="11.059825"><ele>448.0</ele><time>2026-03-22T10:47:13.394Z</time></trkpt><trkpt lat="43.9578617" lon="11.0599117"><ele>448.00000000000006</ele><time>2026-03-22T10:47:14.393Z</time></trkpt><trkpt lat="43.9579317" lon="11.060015"><ele>448.0</ele><time>2026-03-22T10:47:15.394Z</time></trkpt><trkpt lat="43.957985" lon="11.06012"><ele>453.75</ele><time>2026-03-22T10:47:16.393Z</time></trkpt><trkpt lat="43.9580267" lon="11.0602133"><ele>459.5</ele><time>2026-03-22T10:47:17.393Z</time></trkpt><trkpt lat="43.9580633" lon="11.0602917"><ele>465.25</ele><time>2026-03-22T10:47:18.394Z</time></trkpt><trkpt lat="43.9581617" lon="11.060385"><ele>471.0</ele><time>2026-03-22T10:47:20.394Z</time></trkpt><trkpt lat="43.9583417" lon="11.0603167"><ele>468.8333333333333</ele><time>2026-03-22T10:47:22.394Z</time></trkpt><trkpt lat="43.95842" lon="11.0602617"><ele>466.66666666666663</ele><time>2026-03-22T10:47:23.393Z</time></trkpt><trkpt lat="43.958495" lon="11.0602167"><ele>464.5</ele><time>2026-03-22T10:47:24.394Z</time></trkpt><trkpt lat="43.95857" lon="11.0601767"><ele>462.3333333333333</ele><time>2026-03-22T10:47:25.394Z</time></trkpt><trkpt lat="43.9586433" lon="11.0601817"><ele>460.16666666666663</ele><time>2026-03-22T10:47:26.393Z</time></trkpt><trkpt lat="43.9587217" lon="11.0602233"><ele>458.0</ele><time>2026-03-22T10:47:27.394Z</time></trkpt><trkpt lat="43.9588083" lon="11.0603"><ele>458.0</ele><time>2026-03-22T10:47:28.394Z</time></trkpt><trkpt lat="43.9588733" lon="11.0604067"><ele>457.99999999999994</ele><time>2026-03-22T10:47:29.394Z</time></trkpt><trkpt lat="43.9588967" lon="11.060555"><ele>457.99999999999994</ele><time>2026-03-22T10:47:30.393Z</time></trkpt><trkpt lat="43.9589217" lon="11.0607017"><ele>458.0</ele><time>2026-03-22T10:47:31.394Z</time></trkpt><trkpt lat="43.95895" lon="11.0608267"><ele>458.0</ele><time>2026-03-22T10:47:32.394Z</time></trkpt><trkpt lat="43.958975" lon="11.0609383"><ele>458.66666666666663</ele><time>2026-03-22T10:47:33.393Z</time></trkpt><trkpt lat="43.95908" lon="11.0610033"><ele>459.3333333333333</ele><time>2026-03-22T10:47:35.394Z</time></trkpt><trkpt lat="43.9591467" lon="11.0609967"><ele>460.0</ele><time>2026-03-22T10:47:36.394Z</time></trkpt><trkpt lat="43.959215" lon="11.0609783"><ele>460.66666666666663</ele><time>2026-03-22T10:47:37.394Z</time></trkpt><trkpt lat="43.959285" lon="11.060985"><ele>461.3333333333333</ele><time>2026-03-22T10:47:38.393Z</time></trkpt><trkpt lat="43.9593567" lon="11.061005"><ele>462.0</ele><time>2026-03-22T10:47:39.394Z</time></trkpt><trkpt lat="43.959425" lon="11.0611167"><ele>462.0</ele><time>2026-03-22T10:47:40.393Z</time></trkpt><trkpt lat="43.959505" lon="11.0612433"><ele>462.0</ele><time>2026-03-22T10:47:41.393Z</time></trkpt><trkpt lat="43.9595733" lon="11.06139"><ele>462.0</ele><time>2026-03-22T10:47:42.393Z</time></trkpt><trkpt lat="43.959645" lon="11.0615417"><ele>462.0</ele><time>2026-03-22T10:47:43.394Z</time></trkpt><trkpt lat="43.95972" lon="11.0616917"><ele>465.20000000000005</ele><time>2026-03-22T10:47:44.394Z</time></trkpt><trkpt lat="43.9597917" lon="11.0618233"><ele>468.40000000000003</ele><time>2026-03-22T10:47:45.394Z</time></trkpt><trkpt lat="43.9598567" lon="11.0619517"><ele>471.59999999999997</ele><time>2026-03-22T10:47:46.393Z</time></trkpt><trkpt lat="43.9599" lon="11.06208"><ele>474.79999999999995</ele><time>2026-03-22T10:47:47.393Z</time></trkpt><trkpt lat="43.95992" lon="11.0622167"><ele>478.0</ele><time>2026-03-22T10:47:48.393Z</time></trkpt><trkpt lat="43.9599233" lon="11.0623517"><ele>480.50000000000006</ele><time>2026-03-22T10:47:49.394Z</time></trkpt><trkpt lat="43.9599117" lon="11.0624767"><ele>483.0</ele><time>2026-03-22T10:47:50.394Z</time></trkpt><trkpt lat="43.95991" lon="11.0625833"><ele>485.5</ele><time>2026-03-22T10:47:51.394Z</time></trkpt><trkpt lat="43.9599283" lon="11.06268"><ele>488.0</ele><time>2026-03-22T10:47:52.394Z</time></trkpt><trkpt lat="43.9599617" lon="11.062785"><ele>490.50000000000006</ele><time>2026-03-22T10:47:53.394Z</time></trkpt><trkpt lat="43.959995" lon="11.062885"><ele>493.0</ele><time>2026-03-22T10:47:54.393Z</time></trkpt><trkpt lat="43.960025" lon="11.0629883"><ele>495.0</ele><time>2026-03-22T10:47:55.393Z</time></trkpt><trkpt lat="43.96005" lon="11.0631067"><ele>496.99999999999994</ele><time>2026-03-22T10:47:56.394Z</time></trkpt><trkpt lat="43.96006" lon="11.0632583"><ele>498.99999999999994</ele><time>2026-03-22T10:47:57.394Z</time></trkpt><trkpt lat="43.9600583" lon="11.06342"><ele>501.0</ele><time>2026-03-22T10:47:58.394Z</time></trkpt><trkpt lat="43.9600467" lon="11.06357"><ele>503.0</ele><time>2026-03-22T10:47:59.393Z</time></trkpt><trkpt lat="43.9600167" lon="11.0637067"><ele>502.99999999999994</ele><time>2026-03-22T10:48:00.394Z</time></trkpt><trkpt lat="43.959975" lon="11.0638033"><ele>503.0</ele><time>2026-03-22T10:48:01.394Z</time></trkpt><trkpt lat="43.9599233" lon="11.0638667"><ele>503.0</ele><time>2026-03-22T10:48:02.393Z</time></trkpt><trkpt lat="43.9598583" lon="11.063935"><ele>503.0</ele><time>2026-03-22T10:48:03.393Z</time></trkpt><trkpt lat="43.9597767" lon="11.0639667"><ele>502.99999999999994</ele><time>2026-03-22T10:48:04.394Z</time></trkpt><trkpt lat="43.9596833" lon="11.0639817"><ele>503.0</ele><time>2026-03-22T10:48:05.393Z</time></trkpt><trkpt lat="43.9596" lon="11.0639783"><ele>502.99999999999994</ele><time>2026-03-22T10:48:06.393Z</time></trkpt><trkpt lat="43.959535" lon="11.0639833"><ele>503.0</ele><time>2026-03-22T10:48:07.393Z</time></trkpt><trkpt lat="43.9594817" lon="11.06408"><ele>503.0</ele><time>2026-03-22T10:48:09.394Z</time></trkpt><trkpt lat="43.9594633" lon="11.0641883"><ele>503.0</ele><time>2026-03-22T10:48:10.393Z</time></trkpt><trkpt lat="43.9594333" lon="11.064285"><ele>502.99999999999994</ele><time>2026-03-22T10:48:11.393Z</time></trkpt><trkpt lat="43.9594033" lon="11.0643867"><ele>503.0</ele><time>2026-03-22T10:48:12.394Z</time></trkpt><trkpt lat="43.959375" lon="11.0644933"><ele>502.99999999999994</ele><time>2026-03-22T10:48:13.394Z</time></trkpt><trkpt lat="43.9593633" lon="11.0645933"><ele>503.0</ele><time>2026-03-22T10:48:14.394Z</time></trkpt><trkpt lat="43.959365" lon="11.06469"><ele>503.0</ele><time>2026-03-22T10:48:15.393Z</time></trkpt><trkpt lat="43.9593933" lon="11.06479"><ele>503.0</ele><time>2026-03-22T10:48:16.393Z</time></trkpt><trkpt lat="43.9594517" lon="11.06489"><ele>502.99999999999994</ele><time>2026-03-22T10:48:17.394Z</time></trkpt><trkpt lat="43.9595317" lon="11.065015"><ele>503.0</ele><time>2026-03-22T10:48:18.393Z</time></trkpt><trkpt lat="43.959615" lon="11.0651417"><ele>503.4</ele><time>2026-03-22T10:48:19.393Z</time></trkpt><trkpt lat="43.959685" lon="11.06527"><ele>503.79999999999995</ele><time>2026-03-22T10:48:20.394Z</time></trkpt><trkpt lat="43.959755" lon="11.0653767"><ele>504.2</ele><time>2026-03-22T10:48:21.394Z</time></trkpt><trkpt lat="43.9598133" lon="11.065475"><ele>504.6</ele><time>2026-03-22T10:48:22.393Z</time></trkpt><trkpt lat="43.9598383" lon="11.06557"><ele>505.0</ele><time>2026-03-22T10:48:23.394Z</time></trkpt><trkpt lat="43.9597967" lon="11.06567"><ele>505.0</ele><time>2026-03-22T10:48:25.393Z</time></trkpt><trkpt lat="43.9597033" lon="11.0656117"><ele>505.0</ele><time>2026-03-22T10:48:26.394Z</time></trkpt><trkpt lat="43.9596233" lon="11.06558"><ele>505.0</ele><time>2026-03-22T10:48:27.394Z</time></trkpt><trkpt lat="43.9595383" lon="11.0655367"><ele>505.0</ele><time>2026-03-22T10:48:28.393Z</time></trkpt><trkpt lat="43.959445" lon="11.065515"><ele>505.0</ele><time>2026-03-22T10:48:29.393Z</time></trkpt><trkpt lat="43.9593633" lon="11.0655117"><ele>505.00000000000006</ele><time>2026-03-22T10:48:30.393Z</time></trkpt><trkpt lat="43.9592933" lon="11.0655133"><ele>505.0</ele><time>2026-03-22T10:48:31.394Z</time></trkpt><trkpt lat="43.9591917" lon="11.06552"><ele>505.0</ele><time>2026-03-22T10:48:33.393Z</time></trkpt><trkpt lat="43.9591233" lon="11.0655517"><ele>505.0</ele><time>2026-03-22T10:48:35.394Z</time></trkpt><trkpt lat="43.9590417" lon="11.0655867"><ele>505.00000000000006</ele><time>2026-03-22T10:48:38.394Z</time></trkpt><trkpt lat="43.9589533" lon="11.0655317"><ele>505.0</ele><time>2026-03-22T10:49:36.393Z</time></trkpt><trkpt lat="43.9589017" lon="11.065405"><ele>508.1666666666667</ele><time>2026-03-22T10:49:38.394Z</time></trkpt><trkpt lat="43.9588633" lon="11.0653067"><ele>511.33333333333337</ele><time>2026-03-22T10:49:39.393Z</time></trkpt><trkpt lat="43.9588283" lon="11.0652083"><ele>514.5</ele><time>2026-03-22T10:49:40.394Z</time></trkpt><trkpt lat="43.9587933" lon="11.0651"><ele>517.6666666666666</ele><time>2026-03-22T10:49:41.394Z</time></trkpt><trkpt lat="43.958755" lon="11.0649933"><ele>520.8333333333333</ele><time>2026-03-22T10:49:42.393Z</time></trkpt><trkpt lat="43.9587167" lon="11.064855"><ele>524.0</ele><time>2026-03-22T10:49:43.394Z</time></trkpt><trkpt lat="43.9586767" lon="11.0647133"><ele>524.0</ele><time>2026-03-22T10:49:44.394Z</time></trkpt><trkpt lat="43.95864" lon="11.0645583"><ele>524.0</ele><time>2026-03-22T10:49:45.394Z</time></trkpt><trkpt lat="43.958605" lon="11.0644083"><ele>524.0</ele><time>2026-03-22T10:49:46.394Z</time></trkpt><trkpt lat="43.9585583" lon="11.0642633"><ele>524.0</ele><time>2026-03-22T10:49:47.393Z</time></trkpt><trkpt lat="43.9585033" lon="11.0641117"><ele>524.25</ele><time>2026-03-22T10:49:48.393Z</time></trkpt><trkpt lat="43.9584483" lon="11.063965"><ele>524.5</ele><time>2026-03-22T10:49:49.394Z</time></trkpt><trkpt lat="43.9583833" lon="11.0638283"><ele>524.75</ele><time>2026-03-22T10:49:50.393Z</time></trkpt><trkpt lat="43.9583033" lon="11.06372"><ele>525.0</ele><time>2026-03-22T10:49:51.393Z</time></trkpt><trkpt lat="43.9582033" lon="11.0636183"><ele>526.0</ele><time>2026-03-22T10:49:52.393Z</time></trkpt><trkpt lat="43.9580917" lon="11.06353"><ele>527.0</ele><time>2026-03-22T10:49:53.393Z</time></trkpt><trkpt lat="43.9579767" lon="11.0634467"><ele>528.0</ele><time>2026-03-22T10:49:54.393Z</time></trkpt><trkpt lat="43.9578667" lon="11.0633667"><ele>529.0</ele><time>2026-03-22T10:49:55.393Z</time></trkpt><trkpt lat="43.95776" lon="11.0632917"><ele>527.6</ele><time>2026-03-22T10:49:56.394Z</time></trkpt><trkpt lat="43.9576533" lon="11.0632233"><ele>526.2</ele><time>2026-03-22T10:49:57.393Z</time></trkpt><trkpt lat="43.9575533" lon="11.0631583"><ele>524.8000000000001</ele><time>2026-03-22T10:49:58.394Z</time></trkpt><trkpt lat="43.957455" lon="11.0630817"><ele>523.4</ele><time>2026-03-22T10:49:59.393Z</time></trkpt><trkpt lat="43.9573633" lon="11.0630067"><ele>522.0</ele><time>2026-03-22T10:50:00.394Z</time></trkpt><trkpt lat="43.95726" lon="11.06295"><ele>521.2</ele><time>2026-03-22T10:50:01.393Z</time></trkpt><trkpt lat="43.9571667" lon="11.0628967"><ele>520.4000000000001</ele><time>2026-03-22T10:50:02.393Z</time></trkpt><trkpt lat="43.9570717" lon="11.0628583"><ele>519.5999999999999</ele><time>2026-03-22T10:50:03.393Z</time></trkpt><trkpt lat="43.956985" lon="11.0628133"><ele>518.8</ele><time>2026-03-22T10:50:04.393Z</time></trkpt><trkpt lat="43.9569017" lon="11.0627783"><ele>518.0</ele><time>2026-03-22T10:50:05.393Z</time></trkpt><trkpt lat="43.9568183" lon="11.0627367"><ele>518.0</ele><time>2026-03-22T10:50:06.394Z</time></trkpt><trkpt lat="43.9567383" lon="11.0627"><ele>518.0</ele><time>2026-03-22T10:50:07.393Z</time></trkpt><trkpt lat="43.9566567" lon="11.06267"><ele>518.0</ele><time>2026-03-22T10:50:08.393Z</time></trkpt><trkpt lat="43.956575" lon="11.06265"><ele>518.0</ele><time>2026-03-22T10:50:09.393Z</time></trkpt><trkpt lat="43.956475" lon="11.0626567"><ele>518.0</ele><time>2026-03-22T10:50:10.393Z</time></trkpt><trkpt lat="43.9563783" lon="11.0626617"><ele>518.0</ele><time>2026-03-22T10:50:11.393Z</time></trkpt><trkpt lat="43.9562867" lon="11.062675"><ele>516.6666666666666</ele><time>2026-03-22T10:50:12.393Z</time></trkpt><trkpt lat="43.9562083" lon="11.0626883"><ele>515.3333333333333</ele><time>2026-03-22T10:50:13.393Z</time></trkpt><trkpt lat="43.956105" lon="11.0627133"><ele>514.0</ele><time>2026-03-22T10:50:15.393Z</time></trkpt><trkpt lat="43.9560767" lon="11.062795"><ele>512.6666666666666</ele><time>2026-03-22T10:50:20.393Z</time></trkpt><trkpt lat="43.95614" lon="11.062875"><ele>511.3333333333333</ele><time>2026-03-22T10:50:22.394Z</time></trkpt><trkpt lat="43.9562133" lon="11.0629917"><ele>510.0</ele><time>2026-03-22T10:50:24.394Z</time></trkpt><trkpt lat="43.9562767" lon="11.063095"><ele>510.0</ele><time>2026-03-22T10:50:26.394Z</time></trkpt><trkpt lat="43.9563667" lon="11.0631483"><ele>510.0</ele><time>2026-03-22T10:50:28.394Z</time></trkpt><trkpt lat="43.9564467" lon="11.0632217"><ele>510.0</ele><time>2026-03-22T10:50:30.393Z</time></trkpt><trkpt lat="43.9564667" lon="11.0633333"><ele>510.0</ele><time>2026-03-22T10:50:32.394Z</time></trkpt><trkpt lat="43.956435" lon="11.06344"><ele>510.0</ele><time>2026-03-22T10:50:34.394Z</time></trkpt><trkpt lat="43.95635" lon="11.0635217"><ele>510.0</ele><time>2026-03-22T10:50:36.394Z</time></trkpt><trkpt lat="43.9562383" lon="11.06359"><ele>510.0</ele><time>2026-03-22T10:50:38.394Z</time></trkpt><trkpt lat="43.956145" lon="11.063685"><ele>510.0</ele><time>2026-03-22T10:50:40.394Z</time></trkpt><trkpt lat="43.9561083" lon="11.0638517"><ele>510.0</ele><time>2026-03-22T10:50:42.394Z</time></trkpt><trkpt lat="43.956115" lon="11.063965"><ele>510.0</ele><time>2026-03-22T10:50:43.393Z</time></trkpt><trkpt lat="43.9561333" lon="11.06407"><ele>509.1666666666667</ele><time>2026-03-22T10:50:44.394Z</time></trkpt><trkpt lat="43.95617" lon="11.0641783"><ele>508.33333333333337</ele><time>2026-03-22T10:50:45.393Z</time></trkpt><trkpt lat="43.9561967" lon="11.064295"><ele>507.5</ele><time>2026-03-22T10:50:46.394Z</time></trkpt><trkpt lat="43.956215" lon="11.0644083"><ele>506.6666666666667</ele><time>2026-03-22T10:50:47.394Z</time></trkpt><trkpt lat="43.956225" lon="11.0645283"><ele>505.83333333333337</ele><time>2026-03-22T10:50:48.394Z</time></trkpt><trkpt lat="43.9562367" lon="11.0646483"><ele>505.0</ele><time>2026-03-22T10:50:49.394Z</time></trkpt><trkpt lat="43.9562617" lon="11.0647667"><ele>505.0</ele><time>2026-03-22T10:50:50.394Z</time></trkpt><trkpt lat="43.9562833" lon="11.06486"><ele>505.0</ele><time>2026-03-22T10:50:51.394Z</time></trkpt><trkpt lat="43.95631" lon="11.0650183"><ele>505.0</ele><time>2026-03-22T10:50:53.394Z</time></trkpt><trkpt lat="43.9562817" lon="11.06517"><ele>505.0</ele><time>2026-03-22T10:50:55.393Z</time></trkpt><trkpt lat="43.9562833" lon="11.0653433"><ele>505.0</ele><time>2026-03-22T10:50:57.393Z</time></trkpt><trkpt lat="43.9563" lon="11.065465"><ele>504.6666666666667</ele><time>2026-03-22T10:50:58.393Z</time></trkpt><trkpt lat="43.9563217" lon="11.0655817"><ele>504.33333333333337</ele><time>2026-03-22T10:50:59.393Z</time></trkpt><trkpt lat="43.9563433" lon="11.0657083"><ele>504.0</ele><time>2026-03-22T10:51:00.394Z</time></trkpt><trkpt lat="43.95637" lon="11.0658283"><ele>503.66666666666663</ele><time>2026-03-22T10:51:01.394Z</time></trkpt><trkpt lat="43.9563967" lon="11.065945"><ele>503.3333333333333</ele><time>2026-03-22T10:51:02.394Z</time></trkpt><trkpt lat="43.956425" lon="11.0660633"><ele>503.0</ele><time>2026-03-22T10:51:03.394Z</time></trkpt><trkpt lat="43.9564417" lon="11.066185"><ele>502.4</ele><time>2026-03-22T10:51:04.394Z</time></trkpt><trkpt lat="43.9564417" lon="11.066315"><ele>501.79999999999995</ele><time>2026-03-22T10:51:05.394Z</time></trkpt><trkpt lat="43.956435" lon="11.0664467"><ele>501.2</ele><time>2026-03-22T10:51:06.394Z</time></trkpt><trkpt lat="43.9564233" lon="11.0665783"><ele>500.6</ele><time>2026-03-22T10:51:07.393Z</time></trkpt><trkpt lat="43.95641" lon="11.0667067"><ele>500.0</ele><time>2026-03-22T10:51:08.394Z</time></trkpt><trkpt lat="43.9564" lon="11.066825"><ele>498.99999999999994</ele><time>2026-03-22T10:51:09.394Z</time></trkpt><trkpt lat="43.9563967" lon="11.0669417"><ele>498.0</ele><time>2026-03-22T10:51:10.393Z</time></trkpt><trkpt lat="43.9563967" lon="11.067055"><ele>497.0</ele><time>2026-03-22T10:51:11.393Z</time></trkpt><trkpt lat="43.956405" lon="11.06717"><ele>496.0</ele><time>2026-03-22T10:51:12.393Z</time></trkpt><trkpt lat="43.9564167" lon="11.0672867"><ele>494.99999999999994</ele><time>2026-03-22T10:51:13.393Z</time></trkpt><trkpt lat="43.956425" lon="11.067405"><ele>494.0</ele><time>2026-03-22T10:51:14.394Z</time></trkpt><trkpt lat="43.95643" lon="11.06752"><ele>492.8333333333333</ele><time>2026-03-22T10:51:15.394Z</time></trkpt><trkpt lat="43.956435" lon="11.067645"><ele>491.66666666666663</ele><time>2026-03-22T10:51:16.393Z</time></trkpt><trkpt lat="43.9564383" lon="11.0677717"><ele>490.5</ele><time>2026-03-22T10:51:17.393Z</time></trkpt><trkpt lat="43.9564417" lon="11.067895"><ele>489.33333333333337</ele><time>2026-03-22T10:51:18.393Z</time></trkpt><trkpt lat="43.9564433" lon="11.0680167"><ele>488.1666666666667</ele><time>2026-03-22T10:51:19.393Z</time></trkpt><trkpt lat="43.9564383" lon="11.0681333"><ele>487.0</ele><time>2026-03-22T10:51:20.393Z</time></trkpt><trkpt lat="43.9564267" lon="11.068235"><ele>486.20000000000005</ele><time>2026-03-22T10:51:21.393Z</time></trkpt><trkpt lat="43.9564183" lon="11.0683333"><ele>485.40000000000003</ele><time>2026-03-22T10:51:22.393Z</time></trkpt><trkpt lat="43.95641" lon="11.068445"><ele>484.59999999999997</ele><time>2026-03-22T10:51:23.393Z</time></trkpt><trkpt lat="43.9564117" lon="11.068575"><ele>483.79999999999995</ele><time>2026-03-22T10:51:24.394Z</time></trkpt><trkpt lat="43.95642" lon="11.0687217"><ele>483.0</ele><time>2026-03-22T10:51:25.393Z</time></trkpt><trkpt lat="43.9564217" lon="11.06887"><ele>483.0</ele><time>2026-03-22T10:51:26.393Z</time></trkpt><trkpt lat="43.9564183" lon="11.069025"><ele>482.99999999999994</ele><time>2026-03-22T10:51:27.393Z</time></trkpt><trkpt lat="43.95641" lon="11.0691767"><ele>482.99999999999994</ele><time>2026-03-22T10:51:28.394Z</time></trkpt><trkpt lat="43.95641" lon="11.0693283"><ele>483.0</ele><time>2026-03-22T10:51:29.393Z</time></trkpt><trkpt lat="43.9564033" lon="11.0694733"><ele>483.0</ele><time>2026-03-22T10:51:30.393Z</time></trkpt><trkpt lat="43.9563967" lon="11.06962"><ele>482.0</ele><time>2026-03-22T10:51:31.393Z</time></trkpt><trkpt lat="43.9563833" lon="11.06975"><ele>480.99999999999994</ele><time>2026-03-22T10:51:32.393Z</time></trkpt><trkpt lat="43.956375" lon="11.0698817"><ele>479.99999999999994</ele><time>2026-03-22T10:51:33.394Z</time></trkpt><trkpt lat="43.9563783" lon="11.0700133"><ele>479.0</ele><time>2026-03-22T10:51:34.393Z</time></trkpt><trkpt lat="43.9563833" lon="11.07014"><ele>478.0</ele><time>2026-03-22T10:51:35.393Z</time></trkpt><trkpt lat="43.956385" lon="11.0702633"><ele>477.50000000000006</ele><time>2026-03-22T10:51:36.394Z</time></trkpt><trkpt lat="43.9563833" lon="11.07039"><ele>477.0</ele><time>2026-03-22T10:51:37.394Z</time></trkpt><trkpt lat="43.9563833" lon="11.0705117"><ele>476.5</ele><time>2026-03-22T10:51:38.394Z</time></trkpt><trkpt lat="43.95638" lon="11.0706333"><ele>476.0</ele><time>2026-03-22T10:51:39.394Z</time></trkpt><trkpt lat="43.9563767" lon="11.0707467"><ele>475.50000000000006</ele><time>2026-03-22T10:51:40.393Z</time></trkpt><trkpt lat="43.9563767" lon="11.07085"><ele>475.0</ele><time>2026-03-22T10:51:41.393Z</time></trkpt><trkpt lat="43.9563733" lon="11.0709517"><ele>474.6</ele><time>2026-03-22T10:51:42.394Z</time></trkpt><trkpt lat="43.95636" lon="11.0710417"><ele>474.2</ele><time>2026-03-22T10:51:43.394Z</time></trkpt><trkpt lat="43.9563433" lon="11.07121"><ele>473.79999999999995</ele><time>2026-03-22T10:51:45.393Z</time></trkpt><trkpt lat="43.9563667" lon="11.071385"><ele>473.4</ele><time>2026-03-22T10:51:47.394Z</time></trkpt><trkpt lat="43.9563817" lon="11.07149"><ele>473.0</ele><time>2026-03-22T10:51:48.394Z</time></trkpt><trkpt lat="43.9563917" lon="11.0715983"><ele>472.42857142857144</ele><time>2026-03-22T10:51:49.394Z</time></trkpt><trkpt lat="43.9564" lon="11.0717067"><ele>471.85714285714283</ele><time>2026-03-22T10:51:50.393Z</time></trkpt><trkpt lat="43.956405" lon="11.0718167"><ele>471.2857142857143</ele><time>2026-03-22T10:51:51.394Z</time></trkpt><trkpt lat="43.9564067" lon="11.0719233"><ele>470.7142857142857</ele><time>2026-03-22T10:51:52.393Z</time></trkpt><trkpt lat="43.9564067" lon="11.0720283"><ele>470.1428571428571</ele><time>2026-03-22T10:51:53.394Z</time></trkpt><trkpt lat="43.9563967" lon="11.0721233"><ele>469.57142857142856</ele><time>2026-03-22T10:51:54.394Z</time></trkpt><trkpt lat="43.956385" lon="11.0722183"><ele>469.0</ele><time>2026-03-22T10:51:55.394Z</time></trkpt><trkpt lat="43.9563683" lon="11.072305"><ele>469.2</ele><time>2026-03-22T10:51:56.394Z</time></trkpt><trkpt lat="43.9563233" lon="11.0724633"><ele>469.4</ele><time>2026-03-22T10:51:58.393Z</time></trkpt><trkpt lat="43.9562483" lon="11.07257"><ele>469.6</ele><time>2026-03-22T10:52:00.393Z</time></trkpt><trkpt lat="43.9561967" lon="11.0726233"><ele>469.8</ele><time>2026-03-22T10:52:02.394Z</time></trkpt><trkpt lat="43.9561867" lon="11.0727483"><ele>470.0</ele><time>2026-03-22T10:52:05.394Z</time></trkpt><trkpt lat="43.9561733" lon="11.0729017"><ele>470.0</ele><time>2026-03-22T10:52:07.393Z</time></trkpt><trkpt lat="43.956155" lon="11.0730383"><ele>470.0</ele><time>2026-03-22T10:52:09.393Z</time></trkpt><trkpt lat="43.9561333" lon="11.07318"><ele>470.0</ele><time>2026-03-22T10:52:11.393Z</time></trkpt><trkpt lat="43.95609" lon="11.0732983"><ele>470.0</ele><time>2026-03-22T10:52:13.393Z</time></trkpt><trkpt lat="43.9560083" lon="11.073315"><ele>470.0</ele><time>2026-03-22T10:52:16.394Z</time></trkpt><trkpt lat="43.955935" lon="11.0733383"><ele>468.4</ele><time>2026-03-22T10:52:19.393Z</time></trkpt><trkpt lat="43.95588" lon="11.0734217"><ele>466.8</ele><time>2026-03-22T10:52:21.393Z</time></trkpt><trkpt lat="43.9558583" lon="11.073585"><ele>465.20000000000005</ele><time>2026-03-22T10:52:23.393Z</time></trkpt><trkpt lat="43.95586" lon="11.07375"><ele>463.6</ele><time>2026-03-22T10:52:25.392Z</time></trkpt><trkpt lat="43.95588" lon="11.0738517"><ele>462.0</ele><time>2026-03-22T10:52:26.392Z</time></trkpt><trkpt lat="43.9559083" lon="11.0739383"><ele>462.0</ele><time>2026-03-22T10:52:27.393Z</time></trkpt><trkpt lat="43.9559467" lon="11.074025"><ele>462.0</ele><time>2026-03-22T10:52:28.393Z</time></trkpt><trkpt lat="43.9560367" lon="11.0741433"><ele>462.0</ele><time>2026-03-22T10:52:30.393Z</time></trkpt><trkpt lat="43.9561" lon="11.0742067"><ele>462.0</ele><time>2026-03-22T10:52:31.392Z</time></trkpt><trkpt lat="43.9561583" lon="11.0742533"><ele>462.0</ele><time>2026-03-22T10:52:32.392Z</time></trkpt><trkpt lat="43.9562183" lon="11.0742933"><ele>462.0</ele><time>2026-03-22T10:52:33.393Z</time></trkpt><trkpt lat="43.95632" lon="11.0743917"><ele>460.3333333333333</ele><time>2026-03-22T10:52:35.393Z</time></trkpt><trkpt lat="43.95639" lon="11.0744917"><ele>458.66666666666663</ele><time>2026-03-22T10:52:37.392Z</time></trkpt><trkpt lat="43.956405" lon="11.0745833"><ele>457.0</ele><time>2026-03-22T10:52:39.392Z</time></trkpt><trkpt lat="43.956405" lon="11.0746733"><ele>455.3333333333333</ele><time>2026-03-22T10:52:41.392Z</time></trkpt><trkpt lat="43.9563867" lon="11.0747617"><ele>453.66666666666663</ele><time>2026-03-22T10:52:43.392Z</time></trkpt><trkpt lat="43.95636" lon="11.0748783"><ele>452.0</ele><time>2026-03-22T10:52:46.393Z</time></trkpt><trkpt lat="43.9563333" lon="11.075"><ele>450.8333333333333</ele><time>2026-03-22T10:52:49.392Z</time></trkpt><trkpt lat="43.95633" lon="11.0751333"><ele>449.66666666666663</ele><time>2026-03-22T10:52:52.393Z</time></trkpt><trkpt lat="43.95631" lon="11.07522"><ele>448.5</ele><time>2026-03-22T10:52:54.393Z</time></trkpt><trkpt lat="43.95634" lon="11.0753233"><ele>447.33333333333337</ele><time>2026-03-22T10:52:57.394Z</time></trkpt><trkpt lat="43.9563767" lon="11.0754017"><ele>446.1666666666667</ele><time>2026-03-22T10:52:59.393Z</time></trkpt><trkpt lat="43.9563917" lon="11.0755267"><ele>445.0</ele><time>2026-03-22T10:53:01.394Z</time></trkpt><trkpt lat="43.9564083" lon="11.0756667"><ele>443.6</ele><time>2026-03-22T10:53:03.394Z</time></trkpt><trkpt lat="43.9564267" lon="11.075795"><ele>442.2</ele><time>2026-03-22T10:53:05.394Z</time></trkpt><trkpt lat="43.9564517" lon="11.0759433"><ele>440.79999999999995</ele><time>2026-03-22T10:53:07.393Z</time></trkpt><trkpt lat="43.956455" lon="11.0761033"><ele>439.4</ele><time>2026-03-22T10:53:09.394Z</time></trkpt><trkpt lat="43.9564183" lon="11.0762567"><ele>438.0</ele><time>2026-03-22T10:53:11.393Z</time></trkpt><trkpt lat="43.9563817" lon="11.07642"><ele>438.0</ele><time>2026-03-22T10:53:13.394Z</time></trkpt><trkpt lat="43.9563633" lon="11.076505"><ele>437.99999999999994</ele><time>2026-03-22T10:53:14.394Z</time></trkpt><trkpt lat="43.9563433" lon="11.076645"><ele>437.99999999999994</ele><time>2026-03-22T10:53:16.394Z</time></trkpt><trkpt lat="43.9563783" lon="11.07678"><ele>438.0</ele><time>2026-03-22T10:53:18.394Z</time></trkpt><trkpt lat="43.9563933" lon="11.076945"><ele>438.0</ele><time>2026-03-22T10:53:20.393Z</time></trkpt><trkpt lat="43.9563917" lon="11.0770433"><ele>438.2</ele><time>2026-03-22T10:53:21.393Z</time></trkpt><trkpt lat="43.9563883" lon="11.0772133"><ele>438.4</ele><time>2026-03-22T10:53:23.394Z</time></trkpt><trkpt lat="43.9563883" lon="11.0773717"><ele>438.59999999999997</ele><time>2026-03-22T10:53:25.393Z</time></trkpt><trkpt lat="43.9563817" lon="11.07749"><ele>438.79999999999995</ele><time>2026-03-22T10:53:27.394Z</time></trkpt><trkpt lat="43.9563267" lon="11.077585"><ele>439.0</ele><time>2026-03-22T10:53:29.393Z</time></trkpt><trkpt lat="43.9562567" lon="11.0776033"><ele>438.33333333333337</ele><time>2026-03-22T10:53:31.394Z</time></trkpt><trkpt lat="43.9561317" lon="11.0776333"><ele>437.6666666666667</ele><time>2026-03-22T10:53:33.394Z</time></trkpt><trkpt lat="43.9560717" lon="11.0776683"><ele>437.0</ele><time>2026-03-22T10:53:34.393Z</time></trkpt><trkpt lat="43.9560133" lon="11.0777133"><ele>436.33333333333337</ele><time>2026-03-22T10:53:35.393Z</time></trkpt><trkpt lat="43.9559633" lon="11.0777733"><ele>435.6666666666667</ele><time>2026-03-22T10:53:36.393Z</time></trkpt><trkpt lat="43.9559233" lon="11.0778617"><ele>435.0</ele><time>2026-03-22T10:53:37.393Z</time></trkpt><trkpt lat="43.955865" lon="11.07795"><ele>433.8</ele><time>2026-03-22T10:53:38.394Z</time></trkpt><trkpt lat="43.9558033" lon="11.07804"><ele>432.6</ele><time>2026-03-22T10:53:39.393Z</time></trkpt><trkpt lat="43.9557467" lon="11.078135"><ele>431.4</ele><time>2026-03-22T10:53:40.393Z</time></trkpt><trkpt lat="43.955685" lon="11.0782267"><ele>430.2</ele><time>2026-03-22T10:53:41.393Z</time></trkpt><trkpt lat="43.955625" lon="11.0783233"><ele>429.0</ele><time>2026-03-22T10:53:42.394Z</time></trkpt><trkpt lat="43.9555667" lon="11.0784317"><ele>429.0</ele><time>2026-03-22T10:53:43.394Z</time></trkpt><trkpt lat="43.9555083" lon="11.07854"><ele>429.0</ele><time>2026-03-22T10:53:44.394Z</time></trkpt><trkpt lat="43.9554383" lon="11.0786483"><ele>429.0</ele><time>2026-03-22T10:53:45.393Z</time></trkpt><trkpt lat="43.9553633" lon="11.0787467"><ele>429.0</ele><time>2026-03-22T10:53:46.393Z</time></trkpt><trkpt lat="43.955285" lon="11.0788333"><ele>429.0</ele><time>2026-03-22T10:53:47.394Z</time></trkpt><trkpt lat="43.9552117" lon="11.0789217"><ele>429.0</ele><time>2026-03-22T10:53:48.393Z</time></trkpt><trkpt lat="43.9551317" lon="11.079005"><ele>429.0</ele><time>2026-03-22T10:53:49.393Z</time></trkpt><trkpt lat="43.955055" lon="11.0790933"><ele>429.0</ele><time>2026-03-22T10:53:50.393Z</time></trkpt><trkpt lat="43.9549783" lon="11.0791817"><ele>429.0</ele><time>2026-03-22T10:53:51.393Z</time></trkpt><trkpt lat="43.9549017" lon="11.0792633"><ele>429.0</ele><time>2026-03-22T10:53:52.394Z</time></trkpt><trkpt lat="43.9548267" lon="11.079325"><ele>426.6666666666667</ele><time>2026-03-22T10:53:53.393Z</time></trkpt><trkpt lat="43.954755" lon="11.079385"><ele>424.33333333333337</ele><time>2026-03-22T10:53:54.393Z</time></trkpt><trkpt lat="43.9546917" lon="11.0794517"><ele>422.0</ele><time>2026-03-22T10:53:55.393Z</time></trkpt><trkpt lat="43.9546317" lon="11.0795367"><ele>419.6666666666667</ele><time>2026-03-22T10:53:56.393Z</time></trkpt><trkpt lat="43.9545717" lon="11.0796233"><ele>417.33333333333337</ele><time>2026-03-22T10:53:57.393Z</time></trkpt><trkpt lat="43.954515" lon="11.07972"><ele>415.0</ele><time>2026-03-22T10:53:58.394Z</time></trkpt><trkpt lat="43.9544583" lon="11.079815"><ele>415.00000000000006</ele><time>2026-03-22T10:53:59.393Z</time></trkpt><trkpt lat="43.9544083" lon="11.0799017"><ele>415.0</ele><time>2026-03-22T10:54:00.394Z</time></trkpt><trkpt lat="43.9543567" lon="11.0799817"><ele>415.0</ele><time>2026-03-22T10:54:01.394Z</time></trkpt><trkpt lat="43.9543" lon="11.08005"><ele>415.0</ele><time>2026-03-22T10:54:02.393Z</time></trkpt><trkpt lat="43.95425" lon="11.08012"><ele>415.00000000000006</ele><time>2026-03-22T10:54:03.394Z</time></trkpt><trkpt lat="43.9541683" lon="11.0801867"><ele>415.0</ele><time>2026-03-22T10:54:05.394Z</time></trkpt><trkpt lat="43.9541083" lon="11.0802183"><ele>413.00000000000006</ele><time>2026-03-22T10:54:08.394Z</time></trkpt><trkpt lat="43.9540367" lon="11.0802417"><ele>411.0</ele><time>2026-03-22T10:54:10.393Z</time></trkpt><trkpt lat="43.9539367" lon="11.080285"><ele>409.0</ele><time>2026-03-22T10:54:12.393Z</time></trkpt><trkpt lat="43.953875" lon="11.08033"><ele>407.0</ele><time>2026-03-22T10:54:13.393Z</time></trkpt><trkpt lat="43.9538067" lon="11.0803967"><ele>405.00000000000006</ele><time>2026-03-22T10:54:14.393Z</time></trkpt><trkpt lat="43.9537433" lon="11.0804717"><ele>403.0</ele><time>2026-03-22T10:54:15.394Z</time></trkpt><trkpt lat="43.95368" lon="11.080545"><ele>403.0</ele><time>2026-03-22T10:54:16.394Z</time></trkpt><trkpt lat="43.95361" lon="11.0806183"><ele>403.0</ele><time>2026-03-22T10:54:17.393Z</time></trkpt><trkpt lat="43.9535433" lon="11.0806983"><ele>403.0</ele><time>2026-03-22T10:54:18.394Z</time></trkpt><trkpt lat="43.953475" lon="11.0807867"><ele>403.0</ele><time>2026-03-22T10:54:19.393Z</time></trkpt><trkpt lat="43.9534133" lon="11.0808883"><ele>403.0</ele><time>2026-03-22T10:54:20.393Z</time></trkpt><trkpt lat="43.9533567" lon="11.0809967"><ele>402.0</ele><time>2026-03-22T10:54:21.393Z</time></trkpt><trkpt lat="43.9532983" lon="11.0811133"><ele>401.0</ele><time>2026-03-22T10:54:22.394Z</time></trkpt><trkpt lat="43.9532433" lon="11.0812333"><ele>400.0</ele><time>2026-03-22T10:54:23.394Z</time></trkpt><trkpt lat="43.9531817" lon="11.0813617"><ele>399.0</ele><time>2026-03-22T10:54:24.394Z</time></trkpt><trkpt lat="43.95313" lon="11.0814733"><ele>398.0</ele><time>2026-03-22T10:54:25.393Z</time></trkpt><trkpt lat="43.9530667" lon="11.081595"><ele>401.79999999999995</ele><time>2026-03-22T10:54:26.393Z</time></trkpt><trkpt lat="43.953005" lon="11.08171"><ele>405.6</ele><time>2026-03-22T10:54:27.394Z</time></trkpt><trkpt lat="43.9529467" lon="11.0818133"><ele>409.4</ele><time>2026-03-22T10:54:28.394Z</time></trkpt><trkpt lat="43.9528867" lon="11.0819083"><ele>413.20000000000005</ele><time>2026-03-22T10:54:29.394Z</time></trkpt><trkpt lat="43.952815" lon="11.082"><ele>417.0</ele><time>2026-03-22T10:54:30.394Z</time></trkpt><trkpt lat="43.95274" lon="11.0820883"><ele>417.0</ele><time>2026-03-22T10:54:31.394Z</time></trkpt><trkpt lat="43.952665" lon="11.08218"><ele>417.0</ele><time>2026-03-22T10:54:32.393Z</time></trkpt><trkpt lat="43.952595" lon="11.0822833"><ele>417.0</ele><time>2026-03-22T10:54:33.393Z</time></trkpt><trkpt lat="43.9525433" lon="11.0823933"><ele>417.0</ele><time>2026-03-22T10:54:34.394Z</time></trkpt><trkpt lat="43.9524733" lon="11.0824983"><ele>417.0</ele><time>2026-03-22T10:54:35.393Z</time></trkpt><trkpt lat="43.952395" lon="11.0826017"><ele>415.20000000000005</ele><time>2026-03-22T10:54:36.393Z</time></trkpt><trkpt lat="43.9523" lon="11.082675"><ele>413.4</ele><time>2026-03-22T10:54:37.393Z</time></trkpt><trkpt lat="43.9522267" lon="11.0827717"><ele>411.6</ele><time>2026-03-22T10:54:38.393Z</time></trkpt><trkpt lat="43.9521617" lon="11.0828867"><ele>409.79999999999995</ele><time>2026-03-22T10:54:39.394Z</time></trkpt><trkpt lat="43.9521167" lon="11.0830067"><ele>408.0</ele><time>2026-03-22T10:54:40.393Z</time></trkpt><trkpt lat="43.952075" lon="11.0831333"><ele>408.0</ele><time>2026-03-22T10:54:41.393Z</time></trkpt><trkpt lat="43.9520233" lon="11.0832567"><ele>408.0</ele><time>2026-03-22T10:54:42.394Z</time></trkpt><trkpt lat="43.9519667" lon="11.08339"><ele>408.0</ele><time>2026-03-22T10:54:43.393Z</time></trkpt><trkpt lat="43.9518967" lon="11.08351"><ele>408.0</ele><time>2026-03-22T10:54:44.393Z</time></trkpt><trkpt lat="43.951815" lon="11.0836333"><ele>408.0</ele><time>2026-03-22T10:54:45.394Z</time></trkpt><trkpt lat="43.9517283" lon="11.0837533"><ele>407.5</ele><time>2026-03-22T10:54:46.393Z</time></trkpt><trkpt lat="43.9516317" lon="11.0838717"><ele>407.0</ele><time>2026-03-22T10:54:47.393Z</time></trkpt><trkpt lat="43.9515383" lon="11.0839917"><ele>406.5</ele><time>2026-03-22T10:54:48.394Z</time></trkpt><trkpt lat="43.951455" lon="11.0841217"><ele>406.0</ele><time>2026-03-22T10:54:49.393Z</time></trkpt><trkpt lat="43.9513783" lon="11.0842517"><ele>406.0</ele><time>2026-03-22T10:54:50.393Z</time></trkpt><trkpt lat="43.9513" lon="11.0843867"><ele>406.0</ele><time>2026-03-22T10:54:51.393Z</time></trkpt><trkpt lat="43.951215" lon="11.084505"><ele>406.0</ele><time>2026-03-22T10:54:52.393Z</time></trkpt><trkpt lat="43.9511367" lon="11.0846167"><ele>406.0</ele><time>2026-03-22T10:54:53.394Z</time></trkpt><trkpt lat="43.95105" lon="11.08472"><ele>406.0</ele><time>2026-03-22T10:54:54.393Z</time></trkpt><trkpt lat="43.9509617" lon="11.0848283"><ele>406.0</ele><time>2026-03-22T10:54:55.394Z</time></trkpt><trkpt lat="43.9508833" lon="11.084945"><ele>406.0</ele><time>2026-03-22T10:54:56.393Z</time></trkpt><trkpt lat="43.9508233" lon="11.0850617"><ele>406.0</ele><time>2026-03-22T10:54:57.394Z</time></trkpt><trkpt lat="43.9507767" lon="11.0851667"><ele>406.0</ele><time>2026-03-22T10:54:58.394Z</time></trkpt><trkpt lat="43.9507483" lon="11.0852667"><ele>401.8</ele><time>2026-03-22T10:54:59.393Z</time></trkpt><trkpt lat="43.95073" lon="11.08536"><ele>397.6</ele><time>2026-03-22T10:55:00.394Z</time></trkpt><trkpt lat="43.9507" lon="11.08544"><ele>393.4</ele><time>2026-03-22T10:55:01.393Z</time></trkpt><trkpt lat="43.950615" lon="11.0855667"><ele>389.2</ele><time>2026-03-22T10:55:03.393Z</time></trkpt><trkpt lat="43.95049" lon="11.0856017"><ele>385.0</ele><time>2026-03-22T10:55:05.393Z</time></trkpt><trkpt lat="43.9504067" lon="11.0856333"><ele>385.00000000000006</ele><time>2026-03-22T10:55:07.393Z</time></trkpt><trkpt lat="43.950315" lon="11.0856383"><ele>385.0</ele><time>2026-03-22T10:55:29.393Z</time></trkpt><trkpt lat="43.9502283" lon="11.0857517"><ele>385.0</ele><time>2026-03-22T10:58:57.393Z</time></trkpt><trkpt lat="43.9501733" lon="11.0858233"><ele>385.0</ele><time>2026-03-22T10:58:58.394Z</time></trkpt><trkpt lat="43.95012" lon="11.085895"><ele>385.00000000000006</ele><time>2026-03-22T10:58:59.393Z</time></trkpt><trkpt lat="43.950075" lon="11.0859717"><ele>385.0</ele><time>2026-03-22T10:59:00.394Z</time></trkpt><trkpt lat="43.9500333" lon="11.0860667"><ele>386.8</ele><time>2026-03-22T10:59:01.393Z</time></trkpt><trkpt lat="43.9499917" lon="11.0861817"><ele>388.6</ele><time>2026-03-22T10:59:02.393Z</time></trkpt><trkpt lat="43.9499517" lon="11.0863"><ele>390.4</ele><time>2026-03-22T10:59:03.393Z</time></trkpt><trkpt lat="43.9499167" lon="11.0864217"><ele>392.2</ele><time>2026-03-22T10:59:04.394Z</time></trkpt><trkpt lat="43.9498833" lon="11.086545"><ele>394.0</ele><time>2026-03-22T10:59:05.393Z</time></trkpt><trkpt lat="43.9498417" lon="11.08667"><ele>394.0</ele><time>2026-03-22T10:59:06.394Z</time></trkpt><trkpt lat="43.9498" lon="11.0867967"><ele>394.0</ele><time>2026-03-22T10:59:07.394Z</time></trkpt><trkpt lat="43.9497517" lon="11.0869283"><ele>394.0</ele><time>2026-03-22T10:59:08.393Z</time></trkpt><trkpt lat="43.9496867" lon="11.0870533"><ele>394.0</ele><time>2026-03-22T10:59:09.394Z</time></trkpt><trkpt lat="43.949625" lon="11.0871833"><ele>394.0</ele><time>2026-03-22T10:59:10.395Z</time></trkpt><trkpt lat="43.9495683" lon="11.0873217"><ele>398.4</ele><time>2026-03-22T10:59:11.393Z</time></trkpt><trkpt lat="43.94952" lon="11.08746"><ele>402.79999999999995</ele><time>2026-03-22T10:59:12.393Z</time></trkpt><trkpt lat="43.9494717" lon="11.0876033"><ele>407.20000000000005</ele><time>2026-03-22T10:59:13.393Z</time></trkpt><trkpt lat="43.9494217" lon="11.0877383"><ele>411.6</ele><time>2026-03-22T10:59:14.394Z</time></trkpt><trkpt lat="43.9493783" lon="11.0878817"><ele>416.0</ele><time>2026-03-22T10:59:15.393Z</time></trkpt><trkpt lat="43.9493367" lon="11.08803"><ele>416.0</ele><time>2026-03-22T10:59:16.393Z</time></trkpt><trkpt lat="43.94931" lon="11.0881933"><ele>416.0</ele><time>2026-03-22T10:59:17.394Z</time></trkpt><trkpt lat="43.9492883" lon="11.0883633"><ele>416.0</ele><time>2026-03-22T10:59:18.393Z</time></trkpt><trkpt lat="43.9492667" lon="11.0885317"><ele>416.0</ele><time>2026-03-22T10:59:19.394Z</time></trkpt><trkpt lat="43.949245" lon="11.0886933"><ele>414.4</ele><time>2026-03-22T10:59:20.393Z</time></trkpt><trkpt lat="43.9492283" lon="11.0888317"><ele>412.8</ele><time>2026-03-22T10:59:21.393Z</time></trkpt><trkpt lat="43.9492" lon="11.0889483"><ele>411.2</ele><time>2026-03-22T10:59:22.393Z</time></trkpt><trkpt lat="43.94917" lon="11.089075"><ele>409.59999999999997</ele><time>2026-03-22T10:59:23.394Z</time></trkpt><trkpt lat="43.9490883" lon="11.0891383"><ele>408.0</ele><time>2026-03-22T10:59:24.393Z</time></trkpt><trkpt lat="43.9490017" lon="11.089195"><ele>408.0</ele><time>2026-03-22T10:59:25.394Z</time></trkpt><trkpt lat="43.9488967" lon="11.0892533"><ele>408.0</ele><time>2026-03-22T10:59:26.393Z</time></trkpt><trkpt lat="43.948795" lon="11.0893233"><ele>408.0</ele><time>2026-03-22T10:59:27.393Z</time></trkpt><trkpt lat="43.9487083" lon="11.0894017"><ele>408.0</ele><time>2026-03-22T10:59:28.394Z</time></trkpt><trkpt lat="43.9486333" lon="11.0895033"><ele>408.0</ele><time>2026-03-22T10:59:29.394Z</time></trkpt><trkpt lat="43.9485733" lon="11.0896367"><ele>408.0</ele><time>2026-03-22T10:59:30.394Z</time></trkpt><trkpt lat="43.9485317" lon="11.08979"><ele>408.0</ele><time>2026-03-22T10:59:31.393Z</time></trkpt><trkpt lat="43.94849" lon="11.0899417"><ele>408.0</ele><time>2026-03-22T10:59:32.394Z</time></trkpt><trkpt lat="43.948445" lon="11.090085"><ele>408.0</ele><time>2026-03-22T10:59:33.394Z</time></trkpt><trkpt lat="43.9484017" lon="11.0902083"><ele>408.0</ele><time>2026-03-22T10:59:34.394Z</time></trkpt><trkpt lat="43.9483483" lon="11.0903183"><ele>408.59999999999997</ele><time>2026-03-22T10:59:35.394Z</time></trkpt><trkpt lat="43.9482833" lon="11.0903767"><ele>409.2</ele><time>2026-03-22T10:59:36.394Z</time></trkpt><trkpt lat="43.9482117" lon="11.09038"><ele>409.8</ele><time>2026-03-22T10:59:37.394Z</time></trkpt><trkpt lat="43.9481183" lon="11.090275"><ele>410.4</ele><time>2026-03-22T10:59:38.393Z</time></trkpt><trkpt lat="43.948035" lon="11.0901733"><ele>411.0</ele><time>2026-03-22T10:59:39.393Z</time></trkpt><trkpt lat="43.94794" lon="11.09005"><ele>411.0</ele><time>2026-03-22T10:59:40.394Z</time></trkpt><trkpt lat="43.9478417" lon="11.08994"><ele>411.0</ele><time>2026-03-22T10:59:41.394Z</time></trkpt><trkpt lat="43.9477417" lon="11.08985"><ele>411.0</ele><time>2026-03-22T10:59:42.394Z</time></trkpt><trkpt lat="43.9476333" lon="11.0897867"><ele>411.0</ele><time>2026-03-22T10:59:43.394Z</time></trkpt><trkpt lat="43.94752" lon="11.08974"><ele>410.6666666666667</ele><time>2026-03-22T10:59:44.394Z</time></trkpt><trkpt lat="43.947425" lon="11.0897367"><ele>410.33333333333337</ele><time>2026-03-22T10:59:45.394Z</time></trkpt><trkpt lat="43.94734" lon="11.08978"><ele>410.0</ele><time>2026-03-22T10:59:46.393Z</time></trkpt><trkpt lat="43.9472733" lon="11.0898533"><ele>409.6666666666667</ele><time>2026-03-22T10:59:47.394Z</time></trkpt><trkpt lat="43.9472117" lon="11.0899317"><ele>409.33333333333337</ele><time>2026-03-22T10:59:48.393Z</time></trkpt><trkpt lat="43.9471633" lon="11.0900017"><ele>409.0</ele><time>2026-03-22T10:59:49.393Z</time></trkpt><trkpt lat="43.9471183" lon="11.0900717"><ele>409.0</ele><time>2026-03-22T10:59:50.394Z</time></trkpt><trkpt lat="43.9470417" lon="11.090195"><ele>409.0</ele><time>2026-03-22T10:59:52.393Z</time></trkpt><trkpt lat="43.9469883" lon="11.0903467"><ele>409.0</ele><time>2026-03-22T10:59:54.394Z</time></trkpt><trkpt lat="43.9469633" lon="11.09046"><ele>409.0</ele><time>2026-03-22T10:59:56.393Z</time></trkpt><trkpt lat="43.9469667" lon="11.0905833"><ele>409.0</ele><time>2026-03-22T11:00:04.394Z</time></trkpt><trkpt lat="43.94693" lon="11.0907017"><ele>410.4</ele><time>2026-03-22T11:00:06.394Z</time></trkpt><trkpt lat="43.94687" lon="11.0908283"><ele>411.79999999999995</ele><time>2026-03-22T11:00:08.394Z</time></trkpt><trkpt lat="43.94678" lon="11.090935"><ele>413.20000000000005</ele><time>2026-03-22T11:00:10.394Z</time></trkpt><trkpt lat="43.9466583" lon="11.0909783"><ele>414.6</ele><time>2026-03-22T11:00:12.393Z</time></trkpt><trkpt lat="43.9465867" lon="11.090955"><ele>416.0</ele><time>2026-03-22T11:00:13.394Z</time></trkpt><trkpt lat="43.9465167" lon="11.09092"><ele>415.99999999999994</ele><time>2026-03-22T11:00:14.394Z</time></trkpt><trkpt lat="43.9464517" lon="11.0908833"><ele>416.0</ele><time>2026-03-22T11:00:15.394Z</time></trkpt><trkpt lat="43.9463833" lon="11.0908417"><ele>416.0</ele><time>2026-03-22T11:00:16.394Z</time></trkpt><trkpt lat="43.9463167" lon="11.090795"><ele>416.0</ele><time>2026-03-22T11:00:17.393Z</time></trkpt><trkpt lat="43.94625" lon="11.0907383"><ele>415.99999999999994</ele><time>2026-03-22T11:00:18.393Z</time></trkpt><trkpt lat="43.946175" lon="11.0906767"><ele>416.0</ele><time>2026-03-22T11:00:19.393Z</time></trkpt><trkpt lat="43.9461" lon="11.0906183"><ele>415.8333333333333</ele><time>2026-03-22T11:00:20.394Z</time></trkpt><trkpt lat="43.9460233" lon="11.0905617"><ele>415.66666666666663</ele><time>2026-03-22T11:00:21.393Z</time></trkpt><trkpt lat="43.9459533" lon="11.090505"><ele>415.5</ele><time>2026-03-22T11:00:22.394Z</time></trkpt><trkpt lat="43.945885" lon="11.0904367"><ele>415.33333333333337</ele><time>2026-03-22T11:00:23.394Z</time></trkpt><trkpt lat="43.94582" lon="11.0903583"><ele>415.1666666666667</ele><time>2026-03-22T11:00:24.394Z</time></trkpt><trkpt lat="43.9457667" lon="11.09028"><ele>415.0</ele><time>2026-03-22T11:00:25.394Z</time></trkpt><trkpt lat="43.945725" lon="11.0901967"><ele>415.00000000000006</ele><time>2026-03-22T11:00:26.393Z</time></trkpt><trkpt lat="43.9456933" lon="11.0900983"><ele>415.0</ele><time>2026-03-22T11:00:27.394Z</time></trkpt><trkpt lat="43.9456683" lon="11.0899817"><ele>415.0</ele><time>2026-03-22T11:00:28.394Z</time></trkpt><trkpt lat="43.9456667" lon="11.0898617"><ele>415.0</ele><time>2026-03-22T11:00:29.393Z</time></trkpt><trkpt lat="43.9456767" lon="11.0897467"><ele>415.00000000000006</ele><time>2026-03-22T11:00:30.394Z</time></trkpt><trkpt lat="43.94567" lon="11.089645"><ele>415.0</ele><time>2026-03-22T11:00:31.393Z</time></trkpt><trkpt lat="43.94565" lon="11.0895617"><ele>414.6666666666667</ele><time>2026-03-22T11:00:32.393Z</time></trkpt><trkpt lat="43.94563" lon="11.0894617"><ele>414.33333333333337</ele><time>2026-03-22T11:00:33.394Z</time></trkpt><trkpt lat="43.945595" lon="11.0893383"><ele>414.0</ele><time>2026-03-22T11:00:34.393Z</time></trkpt><trkpt lat="43.9455567" lon="11.0892333"><ele>413.66666666666663</ele><time>2026-03-22T11:00:35.394Z</time></trkpt><trkpt lat="43.9455067" lon="11.0891267"><ele>413.3333333333333</ele><time>2026-03-22T11:00:36.394Z</time></trkpt><trkpt lat="43.9454367" lon="11.0890283"><ele>413.0</ele><time>2026-03-22T11:00:37.393Z</time></trkpt><trkpt lat="43.9453733" lon="11.08894"><ele>411.49999999999994</ele><time>2026-03-22T11:00:38.394Z</time></trkpt><trkpt lat="43.9453" lon="11.088865"><ele>410.0</ele><time>2026-03-22T11:00:39.393Z</time></trkpt><trkpt lat="43.9452367" lon="11.0887867"><ele>408.5</ele><time>2026-03-22T11:00:40.393Z</time></trkpt><trkpt lat="43.9451783" lon="11.0887083"><ele>407.0</ele><time>2026-03-22T11:00:41.394Z</time></trkpt><trkpt lat="43.9450983" lon="11.0886383"><ele>405.49999999999994</ele><time>2026-03-22T11:00:42.393Z</time></trkpt><trkpt lat="43.94504" lon="11.08855"><ele>404.0</ele><time>2026-03-22T11:00:43.393Z</time></trkpt><trkpt lat="43.944985" lon="11.0884633"><ele>404.0</ele><time>2026-03-22T11:00:44.393Z</time></trkpt><trkpt lat="43.9449233" lon="11.0883783"><ele>404.0</ele><time>2026-03-22T11:00:45.393Z</time></trkpt><trkpt lat="43.9448583" lon="11.0882967"><ele>404.0</ele><time>2026-03-22T11:00:46.393Z</time></trkpt><trkpt lat="43.9447883" lon="11.0882217"><ele>404.0</ele><time>2026-03-22T11:00:47.393Z</time></trkpt><trkpt lat="43.9447067" lon="11.0881567"><ele>404.0</ele><time>2026-03-22T11:00:48.394Z</time></trkpt><trkpt lat="43.9446267" lon="11.0880867"><ele>400.0</ele><time>2026-03-22T11:00:49.393Z</time></trkpt><trkpt lat="43.94455" lon="11.0880217"><ele>396.0</ele><time>2026-03-22T11:00:50.394Z</time></trkpt><trkpt lat="43.9444783" lon="11.0879483"><ele>392.0</ele><time>2026-03-22T11:00:51.393Z</time></trkpt><trkpt lat="43.9444067" lon="11.0878617"><ele>388.0</ele><time>2026-03-22T11:00:52.393Z</time></trkpt><trkpt lat="43.944335" lon="11.0877933"><ele>384.0</ele><time>2026-03-22T11:00:53.393Z</time></trkpt><trkpt lat="43.9442583" lon="11.08773"><ele>387.2</ele><time>2026-03-22T11:00:54.393Z</time></trkpt><trkpt lat="43.9441617" lon="11.0876833"><ele>390.4</ele><time>2026-03-22T11:00:55.394Z</time></trkpt><trkpt lat="43.9440733" lon="11.087625"><ele>393.6</ele><time>2026-03-22T11:00:56.393Z</time></trkpt><trkpt lat="43.9439917" lon="11.0875633"><ele>396.8</ele><time>2026-03-22T11:00:57.394Z</time></trkpt><trkpt lat="43.9439167" lon="11.0875017"><ele>400.0</ele><time>2026-03-22T11:00:58.393Z</time></trkpt><trkpt lat="43.9438467" lon="11.0874533"><ele>395.6666666666667</ele><time>2026-03-22T11:00:59.394Z</time></trkpt><trkpt lat="43.9437833" lon="11.0874083"><ele>391.33333333333337</ele><time>2026-03-22T11:01:00.394Z</time></trkpt><trkpt lat="43.94372" lon="11.0873283"><ele>387.0</ele><time>2026-03-22T11:01:01.393Z</time></trkpt><trkpt lat="43.94367" lon="11.0872367"><ele>382.6666666666667</ele><time>2026-03-22T11:01:02.393Z</time></trkpt><trkpt lat="43.9436183" lon="11.0871167"><ele>378.33333333333337</ele><time>2026-03-22T11:01:03.393Z</time></trkpt><trkpt lat="43.9435867" lon="11.08701"><ele>374.0</ele><time>2026-03-22T11:01:04.394Z</time></trkpt><trkpt lat="43.9435683" lon="11.0869"><ele>374.0</ele><time>2026-03-22T11:01:05.394Z</time></trkpt><trkpt lat="43.94355" lon="11.086785"><ele>374.0</ele><time>2026-03-22T11:01:06.393Z</time></trkpt><trkpt lat="43.9435267" lon="11.0866667"><ele>374.0</ele><time>2026-03-22T11:01:07.393Z</time></trkpt><trkpt lat="43.9435033" lon="11.086525"><ele>374.0</ele><time>2026-03-22T11:01:08.393Z</time></trkpt><trkpt lat="43.9434633" lon="11.0863633"><ele>374.0</ele><time>2026-03-22T11:01:09.394Z</time></trkpt><trkpt lat="43.943425" lon="11.086215"><ele>372.83333333333337</ele><time>2026-03-22T11:01:10.394Z</time></trkpt><trkpt lat="43.9433783" lon="11.0860817"><ele>371.6666666666667</ele><time>2026-03-22T11:01:11.394Z</time></trkpt><trkpt lat="43.9433283" lon="11.0859767"><ele>370.5</ele><time>2026-03-22T11:01:12.394Z</time></trkpt><trkpt lat="43.94327" lon="11.085895"><ele>369.3333333333333</ele><time>2026-03-22T11:01:13.393Z</time></trkpt><trkpt lat="43.943205" lon="11.0858267"><ele>368.16666666666663</ele><time>2026-03-22T11:01:14.394Z</time></trkpt><trkpt lat="43.943145" lon="11.08574"><ele>367.0</ele><time>2026-03-22T11:01:15.393Z</time></trkpt><trkpt lat="43.943085" lon="11.08565"><ele>367.0</ele><time>2026-03-22T11:01:16.393Z</time></trkpt><trkpt lat="43.9430167" lon="11.08556"><ele>367.0</ele><time>2026-03-22T11:01:17.394Z</time></trkpt><trkpt lat="43.9429467" lon="11.0854883"><ele>367.0</ele><time>2026-03-22T11:01:18.393Z</time></trkpt><trkpt lat="43.9428817" lon="11.085415"><ele>367.0</ele><time>2026-03-22T11:01:19.393Z</time></trkpt><trkpt lat="43.94283" lon="11.0853383"><ele>367.0</ele><time>2026-03-22T11:01:20.394Z</time></trkpt><trkpt lat="43.9427733" lon="11.0852783"><ele>367.0</ele><time>2026-03-22T11:01:21.393Z</time></trkpt><trkpt lat="43.94272" lon="11.0851883"><ele>367.0</ele><time>2026-03-22T11:01:22.393Z</time></trkpt><trkpt lat="43.942655" lon="11.0851017"><ele>367.0</ele><time>2026-03-22T11:01:23.394Z</time></trkpt><trkpt lat="43.942565" lon="11.0850167"><ele>367.0</ele><time>2026-03-22T11:01:24.394Z</time></trkpt><trkpt lat="43.94248" lon="11.084925"><ele>367.0</ele><time>2026-03-22T11:01:25.393Z</time></trkpt><trkpt lat="43.9424017" lon="11.084835"><ele>367.0</ele><time>2026-03-22T11:01:26.393Z</time></trkpt><trkpt lat="43.9423367" lon="11.0847533"><ele>365.66666666666663</ele><time>2026-03-22T11:01:27.394Z</time></trkpt><trkpt lat="43.9422767" lon="11.084685"><ele>364.3333333333333</ele><time>2026-03-22T11:01:28.394Z</time></trkpt><trkpt lat="43.9422183" lon="11.0846233"><ele>363.0</ele><time>2026-03-22T11:01:29.394Z</time></trkpt><trkpt lat="43.9421467" lon="11.084485"><ele>361.6666666666667</ele><time>2026-03-22T11:01:31.394Z</time></trkpt><trkpt lat="43.9421183" lon="11.0844"><ele>360.33333333333337</ele><time>2026-03-22T11:01:32.394Z</time></trkpt><trkpt lat="43.94209" lon="11.0843067"><ele>359.0</ele><time>2026-03-22T11:01:33.393Z</time></trkpt><trkpt lat="43.9420567" lon="11.0841983"><ele>353.2</ele><time>2026-03-22T11:01:34.394Z</time></trkpt><trkpt lat="43.9420117" lon="11.084085"><ele>347.4</ele><time>2026-03-22T11:01:35.394Z</time></trkpt><trkpt lat="43.9419633" lon="11.0839533"><ele>341.6</ele><time>2026-03-22T11:01:36.393Z</time></trkpt><trkpt lat="43.9419117" lon="11.0838167"><ele>335.8</ele><time>2026-03-22T11:01:37.394Z</time></trkpt><trkpt lat="43.9418583" lon="11.083695"><ele>330.0</ele><time>2026-03-22T11:01:38.394Z</time></trkpt><trkpt lat="43.9418017" lon="11.0835883"><ele>330.0</ele><time>2026-03-22T11:01:39.393Z</time></trkpt><trkpt lat="43.9417333" lon="11.0834867"><ele>330.0</ele><time>2026-03-22T11:01:40.393Z</time></trkpt><trkpt lat="43.9416617" lon="11.0833867"><ele>330.0</ele><time>2026-03-22T11:01:41.393Z</time></trkpt><trkpt lat="43.9415817" lon="11.0832933"><ele>330.0</ele><time>2026-03-22T11:01:42.393Z</time></trkpt><trkpt lat="43.9415133" lon="11.0832133"><ele>330.0</ele><time>2026-03-22T11:01:43.394Z</time></trkpt><trkpt lat="43.9414467" lon="11.08313"><ele>330.3333333333333</ele><time>2026-03-22T11:01:44.393Z</time></trkpt><trkpt lat="43.9413883" lon="11.08303"><ele>330.6666666666667</ele><time>2026-03-22T11:01:45.394Z</time></trkpt><trkpt lat="43.9413317" lon="11.082935"><ele>331.0</ele><time>2026-03-22T11:01:46.393Z</time></trkpt><trkpt lat="43.941275" lon="11.08286"><ele>331.33333333333337</ele><time>2026-03-22T11:01:47.394Z</time></trkpt><trkpt lat="43.9412183" lon="11.0827967"><ele>331.6666666666667</ele><time>2026-03-22T11:01:48.394Z</time></trkpt><trkpt lat="43.9411083" lon="11.082745"><ele>332.0</ele><time>2026-03-22T11:01:50.393Z</time></trkpt><trkpt lat="43.94099" lon="11.0827883"><ele>332.0</ele><time>2026-03-22T11:01:52.393Z</time></trkpt><trkpt lat="43.9409383" lon="11.0828583"><ele>332.0</ele><time>2026-03-22T11:01:53.393Z</time></trkpt><trkpt lat="43.940905" lon="11.0829683"><ele>332.0</ele><time>2026-03-22T11:01:54.394Z</time></trkpt><trkpt lat="43.9408817" lon="11.08308"><ele>332.0</ele><time>2026-03-22T11:01:55.394Z</time></trkpt><trkpt lat="43.9408583" lon="11.0831767"><ele>332.0</ele><time>2026-03-22T11:01:56.393Z</time></trkpt><trkpt lat="43.9408383" lon="11.0832683"><ele>332.0</ele><time>2026-03-22T11:01:57.393Z</time></trkpt><trkpt lat="43.9408083" lon="11.0833617"><ele>334.0</ele><time>2026-03-22T11:01:58.394Z</time></trkpt><trkpt lat="43.9407317" lon="11.0833683"><ele>336.0</ele><time>2026-03-22T11:01:59.394Z</time></trkpt><trkpt lat="43.9406467" lon="11.0833617"><ele>338.0</ele><time>2026-03-22T11:02:00.394Z</time></trkpt><trkpt lat="43.9405617" lon="11.0833233"><ele>340.0</ele><time>2026-03-22T11:02:01.394Z</time></trkpt><trkpt lat="43.9404933" lon="11.0832783"><ele>342.0</ele><time>2026-03-22T11:02:02.393Z</time></trkpt><trkpt lat="43.94043" lon="11.0832233"><ele>344.0</ele><time>2026-03-22T11:02:03.393Z</time></trkpt><trkpt lat="43.9403667" lon="11.0831883"><ele>344.0</ele><time>2026-03-22T11:02:04.394Z</time></trkpt><trkpt lat="43.94031" lon="11.0831467"><ele>344.0</ele><time>2026-03-22T11:02:05.393Z</time></trkpt><trkpt lat="43.94025" lon="11.08311"><ele>344.0</ele><time>2026-03-22T11:02:06.393Z</time></trkpt><trkpt lat="43.940155" lon="11.0830533"><ele>344.0</ele><time>2026-03-22T11:02:08.393Z</time></trkpt><trkpt lat="43.9400917" lon="11.0830267"><ele>344.0</ele><time>2026-03-22T11:02:10.394Z</time></trkpt><trkpt lat="43.94004" lon="11.0829267"><ele>344.0</ele><time>2026-03-22T11:02:20.394Z</time></trkpt><trkpt lat="43.939955" lon="11.0828617"><ele>342.79999999999995</ele><time>2026-03-22T11:02:22.393Z</time></trkpt><trkpt lat="43.9398267" lon="11.0828133"><ele>341.59999999999997</ele><time>2026-03-22T11:02:24.394Z</time></trkpt><trkpt lat="43.9397317" lon="11.0827733"><ele>340.4</ele><time>2026-03-22T11:02:25.393Z</time></trkpt><trkpt lat="43.9396333" lon="11.0827183"><ele>339.2</ele><time>2026-03-22T11:02:26.393Z</time></trkpt><trkpt lat="43.939545" lon="11.0826517"><ele>338.0</ele><time>2026-03-22T11:02:27.393Z</time></trkpt><trkpt lat="43.93946" lon="11.0826"><ele>338.0</ele><time>2026-03-22T11:02:28.393Z</time></trkpt><trkpt lat="43.9393783" lon="11.0825533"><ele>338.0</ele><time>2026-03-22T11:02:29.394Z</time></trkpt><trkpt lat="43.9392933" lon="11.0825"><ele>338.0</ele><time>2026-03-22T11:02:30.393Z</time></trkpt><trkpt lat="43.9392083" lon="11.0824333"><ele>338.0</ele><time>2026-03-22T11:02:31.394Z</time></trkpt><trkpt lat="43.9391283" lon="11.0823517"><ele>338.0</ele><time>2026-03-22T11:02:32.393Z</time></trkpt><trkpt lat="43.939055" lon="11.08224"><ele>335.75</ele><time>2026-03-22T11:02:33.394Z</time></trkpt><trkpt lat="43.9389733" lon="11.0821033"><ele>333.5</ele><time>2026-03-22T11:02:34.394Z</time></trkpt><trkpt lat="43.9388917" lon="11.0819933"><ele>331.25</ele><time>2026-03-22T11:02:35.394Z</time></trkpt><trkpt lat="43.9388" lon="11.0818833"><ele>329.0</ele><time>2026-03-22T11:02:36.393Z</time></trkpt><trkpt lat="43.9387167" lon="11.0818017"><ele>329.0</ele><time>2026-03-22T11:02:37.393Z</time></trkpt><trkpt lat="43.938645" lon="11.0817367"><ele>329.0</ele><time>2026-03-22T11:02:38.394Z</time></trkpt><trkpt lat="43.9385617" lon="11.081685"><ele>329.0</ele><time>2026-03-22T11:02:39.393Z</time></trkpt><trkpt lat="43.9384783" lon="11.0816467"><ele>329.0</ele><time>2026-03-22T11:02:40.394Z</time></trkpt><trkpt lat="43.9383733" lon="11.08161"><ele>329.0</ele><time>2026-03-22T11:02:41.394Z</time></trkpt><trkpt lat="43.9382817" lon="11.0815467"><ele>329.4</ele><time>2026-03-22T11:02:42.393Z</time></trkpt><trkpt lat="43.9381967" lon="11.0814667"><ele>329.79999999999995</ele><time>2026-03-22T11:02:43.393Z</time></trkpt><trkpt lat="43.9381083" lon="11.081375"><ele>330.20000000000005</ele><time>2026-03-22T11:02:44.394Z</time></trkpt><trkpt lat="43.9380333" lon="11.0812783"><ele>330.6</ele><time>2026-03-22T11:02:45.394Z</time></trkpt><trkpt lat="43.9379717" lon="11.0811883"><ele>331.0</ele><time>2026-03-22T11:02:46.393Z</time></trkpt><trkpt lat="43.9379167" lon="11.081105"><ele>331.0</ele><time>2026-03-22T11:02:47.394Z</time></trkpt><trkpt lat="43.9378733" lon="11.081025"><ele>331.0</ele><time>2026-03-22T11:02:48.393Z</time></trkpt><trkpt lat="43.937845" lon="11.080945"><ele>331.0</ele><time>2026-03-22T11:02:49.394Z</time></trkpt><trkpt lat="43.937815" lon="11.0808667"><ele>331.0</ele><time>2026-03-22T11:02:50.394Z</time></trkpt><trkpt lat="43.93779" lon="11.08078"><ele>331.0</ele><time>2026-03-22T11:02:51.394Z</time></trkpt><trkpt lat="43.93776" lon="11.0806983"><ele>331.0</ele><time>2026-03-22T11:02:52.394Z</time></trkpt><trkpt lat="43.9377017" lon="11.0805483"><ele>332.8333333333333</ele><time>2026-03-22T11:02:54.393Z</time></trkpt><trkpt lat="43.9376567" lon="11.0804633"><ele>334.66666666666663</ele><time>2026-03-22T11:02:55.393Z</time></trkpt><trkpt lat="43.9376017" lon="11.0803783"><ele>336.5</ele><time>2026-03-22T11:02:56.393Z</time></trkpt><trkpt lat="43.93753" lon="11.0803017"><ele>338.3333333333333</ele><time>2026-03-22T11:02:57.393Z</time></trkpt><trkpt lat="43.9374467" lon="11.0802117"><ele>340.1666666666667</ele><time>2026-03-22T11:02:58.394Z</time></trkpt><trkpt lat="43.937385" lon="11.0801283"><ele>342.0</ele><time>2026-03-22T11:02:59.394Z</time></trkpt><trkpt lat="43.9373167" lon="11.0800483"><ele>342.0</ele><time>2026-03-22T11:03:00.394Z</time></trkpt><trkpt lat="43.9372467" lon="11.0799717"><ele>342.0</ele><time>2026-03-22T11:03:01.394Z</time></trkpt><trkpt lat="43.937175" lon="11.079905"><ele>342.0</ele><time>2026-03-22T11:03:02.393Z</time></trkpt><trkpt lat="43.93709" lon="11.0798667"><ele>342.0</ele><time>2026-03-22T11:03:03.394Z</time></trkpt><trkpt lat="43.9370117" lon="11.0798317"><ele>342.0</ele><time>2026-03-22T11:03:04.393Z</time></trkpt><trkpt lat="43.9369217" lon="11.0798317"><ele>342.0</ele><time>2026-03-22T11:03:05.393Z</time></trkpt><trkpt lat="43.9368317" lon="11.0798517"><ele>344.40000000000003</ele><time>2026-03-22T11:03:06.394Z</time></trkpt><trkpt lat="43.9367433" lon="11.0798733"><ele>346.8</ele><time>2026-03-22T11:03:07.394Z</time></trkpt><trkpt lat="43.936655" lon="11.0798917"><ele>349.2</ele><time>2026-03-22T11:03:08.394Z</time></trkpt><trkpt lat="43.936565" lon="11.07991"><ele>351.6</ele><time>2026-03-22T11:03:09.393Z</time></trkpt><trkpt lat="43.9364733" lon="11.0799267"><ele>354.0</ele><time>2026-03-22T11:03:10.393Z</time></trkpt><trkpt lat="43.9363767" lon="11.0799483"><ele>354.0</ele><time>2026-03-22T11:03:11.394Z</time></trkpt><trkpt lat="43.9362833" lon="11.0799717"><ele>354.0</ele><time>2026-03-22T11:03:12.394Z</time></trkpt><trkpt lat="43.9361983" lon="11.0799933"><ele>354.0</ele><time>2026-03-22T11:03:13.393Z</time></trkpt><trkpt lat="43.9361217" lon="11.0800233"><ele>354.0</ele><time>2026-03-22T11:03:14.394Z</time></trkpt><trkpt lat="43.9360533" lon="11.0800367"><ele>354.0</ele><time>2026-03-22T11:03:15.393Z</time></trkpt><trkpt lat="43.9359917" lon="11.080065"><ele>354.0</ele><time>2026-03-22T11:03:16.394Z</time></trkpt><trkpt lat="43.93593" lon="11.080085"><ele>352.14285714285717</ele><time>2026-03-22T11:03:17.393Z</time></trkpt><trkpt lat="43.935865" lon="11.0800983"><ele>350.2857142857143</ele><time>2026-03-22T11:03:18.394Z</time></trkpt><trkpt lat="43.9357983" lon="11.0801133"><ele>348.42857142857144</ele><time>2026-03-22T11:03:19.393Z</time></trkpt><trkpt lat="43.93573" lon="11.0801283"><ele>346.57142857142856</ele><time>2026-03-22T11:03:20.394Z</time></trkpt><trkpt lat="43.9356617" lon="11.080155"><ele>344.7142857142857</ele><time>2026-03-22T11:03:21.393Z</time></trkpt><trkpt lat="43.93559" lon="11.0801983"><ele>342.85714285714283</ele><time>2026-03-22T11:03:22.393Z</time></trkpt><trkpt lat="43.9355083" lon="11.080215"><ele>341.0</ele><time>2026-03-22T11:03:23.393Z</time></trkpt><trkpt lat="43.935435" lon="11.0802533"><ele>341.0</ele><time>2026-03-22T11:03:24.393Z</time></trkpt><trkpt lat="43.935365" lon="11.0802817"><ele>341.0</ele><time>2026-03-22T11:03:25.393Z</time></trkpt><trkpt lat="43.9352883" lon="11.08031"><ele>341.0</ele><time>2026-03-22T11:03:26.394Z</time></trkpt><trkpt lat="43.93522" lon="11.08034"><ele>341.0</ele><time>2026-03-22T11:03:27.393Z</time></trkpt><trkpt lat="43.9351517" lon="11.0803633"><ele>341.0</ele><time>2026-03-22T11:03:28.394Z</time></trkpt><trkpt lat="43.9350817" lon="11.0803917"><ele>341.0</ele><time>2026-03-22T11:03:29.394Z</time></trkpt><trkpt lat="43.934975" lon="11.0804717"><ele>339.0</ele><time>2026-03-22T11:03:31.394Z</time></trkpt><trkpt lat="43.9349017" lon="11.08059"><ele>337.0</ele><time>2026-03-22T11:03:33.394Z</time></trkpt><trkpt lat="43.934865" lon="11.08067"><ele>335.0</ele><time>2026-03-22T11:03:34.394Z</time></trkpt><trkpt lat="43.9348333" lon="11.0807583"><ele>333.0</ele><time>2026-03-22T11:03:35.394Z</time></trkpt><trkpt lat="43.934795" lon="11.0808583"><ele>331.0</ele><time>2026-03-22T11:03:36.393Z</time></trkpt><trkpt lat="43.9347533" lon="11.0809483"><ele>329.0</ele><time>2026-03-22T11:03:37.394Z</time></trkpt><trkpt lat="43.934715" lon="11.08103"><ele>329.0</ele><time>2026-03-22T11:03:38.394Z</time></trkpt><trkpt lat="43.9346667" lon="11.0810983"><ele>329.0</ele><time>2026-03-22T11:03:39.393Z</time></trkpt><trkpt lat="43.9346133" lon="11.0811617"><ele>329.0</ele><time>2026-03-22T11:03:40.394Z</time></trkpt><trkpt lat="43.93457" lon="11.0812267"><ele>329.0</ele><time>2026-03-22T11:03:41.393Z</time></trkpt><trkpt lat="43.9345233" lon="11.08131"><ele>329.0</ele><time>2026-03-22T11:03:42.393Z</time></trkpt><trkpt lat="43.9344917" lon="11.081395"><ele>329.0</ele><time>2026-03-22T11:03:43.394Z</time></trkpt><trkpt lat="43.9344617" lon="11.0815133"><ele>329.0</ele><time>2026-03-22T11:03:45.393Z</time></trkpt><trkpt lat="43.934465" lon="11.081635"><ele>329.2</ele><time>2026-03-22T11:03:58.393Z</time></trkpt><trkpt lat="43.9344933" lon="11.0817767"><ele>329.4</ele><time>2026-03-22T11:04:00.392Z</time></trkpt><trkpt lat="43.9345583" lon="11.0819167"><ele>329.6</ele><time>2026-03-22T11:04:02.392Z</time></trkpt><trkpt lat="43.9346" lon="11.0819833"><ele>329.8</ele><time>2026-03-22T11:04:03.392Z</time></trkpt><trkpt lat="43.9347" lon="11.0820833"><ele>330.0</ele><time>2026-03-22T11:04:05.393Z</time></trkpt><trkpt lat="43.9347683" lon="11.0821167"><ele>330.00000000000006</ele><time>2026-03-22T11:04:06.392Z</time></trkpt><trkpt lat="43.9348317" lon="11.082145"><ele>330.0</ele><time>2026-03-22T11:04:07.393Z</time></trkpt><trkpt lat="43.9348933" lon="11.082165"><ele>330.0</ele><time>2026-03-22T11:04:08.393Z</time></trkpt><trkpt lat="43.935005" lon="11.0821933"><ele>330.0</ele><time>2026-03-22T11:04:10.393Z</time></trkpt><trkpt lat="43.935065" lon="11.0822233"><ele>330.0</ele><time>2026-03-22T11:04:11.393Z</time></trkpt><trkpt lat="43.93513" lon="11.0822683"><ele>330.00000000000006</ele><time>2026-03-22T11:04:12.393Z</time></trkpt><trkpt lat="43.9351817" lon="11.0823217"><ele>330.0</ele><time>2026-03-22T11:04:13.393Z</time></trkpt><trkpt lat="43.935295" lon="11.0824267"><ele>331.2</ele><time>2026-03-22T11:04:15.393Z</time></trkpt><trkpt lat="43.935355" lon="11.08248"><ele>332.4</ele><time>2026-03-22T11:04:16.393Z</time></trkpt><trkpt lat="43.9354533" lon="11.08256"><ele>333.6</ele><time>2026-03-22T11:04:18.392Z</time></trkpt><trkpt lat="43.93555" lon="11.0826433"><ele>334.8</ele><time>2026-03-22T11:04:20.392Z</time></trkpt><trkpt lat="43.9356283" lon="11.0826917"><ele>336.0</ele><time>2026-03-22T11:04:21.392Z</time></trkpt><trkpt lat="43.9357117" lon="11.0827417"><ele>336.0</ele><time>2026-03-22T11:04:22.392Z</time></trkpt><trkpt lat="43.9357817" lon="11.0828017"><ele>336.0</ele><time>2026-03-22T11:04:23.392Z</time></trkpt><trkpt lat="43.9358517" lon="11.0828583"><ele>336.0</ele><time>2026-03-22T11:04:24.393Z</time></trkpt><trkpt lat="43.9359233" lon="11.08291"><ele>336.0</ele><time>2026-03-22T11:04:25.393Z</time></trkpt><trkpt lat="43.9359983" lon="11.0829517"><ele>336.0</ele><time>2026-03-22T11:04:26.393Z</time></trkpt><trkpt lat="43.936075" lon="11.0829883"><ele>336.0</ele><time>2026-03-22T11:04:27.392Z</time></trkpt><trkpt lat="43.93615" lon="11.0830117"><ele>336.8333333333333</ele><time>2026-03-22T11:04:28.392Z</time></trkpt><trkpt lat="43.9362267" lon="11.083025"><ele>337.6666666666667</ele><time>2026-03-22T11:04:29.393Z</time></trkpt><trkpt lat="43.9363017" lon="11.0830467"><ele>338.5</ele><time>2026-03-22T11:04:30.393Z</time></trkpt><trkpt lat="43.9363733" lon="11.0830783"><ele>339.33333333333337</ele><time>2026-03-22T11:04:31.393Z</time></trkpt><trkpt lat="43.936425" lon="11.0831383"><ele>340.1666666666667</ele><time>2026-03-22T11:04:32.394Z</time></trkpt><trkpt lat="43.9364867" lon="11.0831983"><ele>341.0</ele><time>2026-03-22T11:04:33.394Z</time></trkpt><trkpt lat="43.936565" lon="11.08325"><ele>340.1666666666667</ele><time>2026-03-22T11:04:34.394Z</time></trkpt><trkpt lat="43.9366433" lon="11.083295"><ele>339.33333333333337</ele><time>2026-03-22T11:04:35.393Z</time></trkpt><trkpt lat="43.9367067" lon="11.08336"><ele>338.5</ele><time>2026-03-22T11:04:36.394Z</time></trkpt><trkpt lat="43.9367683" lon="11.083425"><ele>337.6666666666667</ele><time>2026-03-22T11:04:37.393Z</time></trkpt><trkpt lat="43.93682" lon="11.083495"><ele>336.8333333333333</ele><time>2026-03-22T11:04:38.393Z</time></trkpt><trkpt lat="43.9368917" lon="11.08356"><ele>336.0</ele><time>2026-03-22T11:04:39.394Z</time></trkpt><trkpt lat="43.936955" lon="11.0836233"><ele>336.0</ele><time>2026-03-22T11:04:40.393Z</time></trkpt><trkpt lat="43.9370133" lon="11.083685"><ele>336.0</ele><time>2026-03-22T11:04:41.394Z</time></trkpt><trkpt lat="43.9370833" lon="11.0837533"><ele>336.0</ele><time>2026-03-22T11:04:42.394Z</time></trkpt><trkpt lat="43.937155" lon="11.0838133"><ele>336.0</ele><time>2026-03-22T11:04:43.393Z</time></trkpt><trkpt lat="43.9372183" lon="11.0838833"><ele>336.0</ele><time>2026-03-22T11:04:44.393Z</time></trkpt><trkpt lat="43.9372917" lon="11.0839367"><ele>336.0</ele><time>2026-03-22T11:04:45.393Z</time></trkpt><trkpt lat="43.9373617" lon="11.083995"><ele>336.0</ele><time>2026-03-22T11:04:46.394Z</time></trkpt><trkpt lat="43.9374233" lon="11.08406"><ele>336.0</ele><time>2026-03-22T11:04:47.393Z</time></trkpt><trkpt lat="43.93749" lon="11.08412"><ele>336.0</ele><time>2026-03-22T11:04:48.394Z</time></trkpt><trkpt lat="43.9375433" lon="11.0841817"><ele>336.0</ele><time>2026-03-22T11:04:49.393Z</time></trkpt><trkpt lat="43.9375967" lon="11.0842317"><ele>336.0</ele><time>2026-03-22T11:04:50.394Z</time></trkpt><trkpt lat="43.9377017" lon="11.0842917"><ele>336.0</ele><time>2026-03-22T11:04:52.393Z</time></trkpt><trkpt lat="43.9377917" lon="11.0843617"><ele>336.6</ele><time>2026-03-22T11:04:54.394Z</time></trkpt><trkpt lat="43.9378217" lon="11.0844817"><ele>337.20000000000005</ele><time>2026-03-22T11:04:56.394Z</time></trkpt><trkpt lat="43.9378483" lon="11.0846217"><ele>337.79999999999995</ele><time>2026-03-22T11:04:58.393Z</time></trkpt><trkpt lat="43.9379017" lon="11.084735"><ele>338.4</ele><time>2026-03-22T11:05:00.393Z</time></trkpt><trkpt lat="43.9379917" lon="11.08487"><ele>339.0</ele><time>2026-03-22T11:05:02.393Z</time></trkpt><trkpt lat="43.93804" lon="11.0849583"><ele>337.1666666666667</ele><time>2026-03-22T11:05:03.394Z</time></trkpt><trkpt lat="43.9380933" lon="11.0850567"><ele>335.3333333333333</ele><time>2026-03-22T11:05:04.394Z</time></trkpt><trkpt lat="43.9381367" lon="11.0851517"><ele>333.5</ele><time>2026-03-22T11:05:05.394Z</time></trkpt><trkpt lat="43.9381683" lon="11.0852467"><ele>331.66666666666663</ele><time>2026-03-22T11:05:06.394Z</time></trkpt><trkpt lat="43.9382" lon="11.085335"><ele>329.8333333333333</ele><time>2026-03-22T11:05:07.394Z</time></trkpt><trkpt lat="43.9382233" lon="11.085425"><ele>328.0</ele><time>2026-03-22T11:05:08.393Z</time></trkpt><trkpt lat="43.9382467" lon="11.085535"><ele>328.0</ele><time>2026-03-22T11:05:09.394Z</time></trkpt><trkpt lat="43.9382683" lon="11.085645"><ele>328.0</ele><time>2026-03-22T11:05:10.394Z</time></trkpt><trkpt lat="43.93829" lon="11.0857617"><ele>328.0</ele><time>2026-03-22T11:05:11.393Z</time></trkpt><trkpt lat="43.9383117" lon="11.0858733"><ele>328.0</ele><time>2026-03-22T11:05:12.394Z</time></trkpt><trkpt lat="43.93833" lon="11.0859667"><ele>328.0</ele><time>2026-03-22T11:05:13.393Z</time></trkpt><trkpt lat="43.9383783" lon="11.0860883"><ele>328.0</ele><time>2026-03-22T11:05:15.394Z</time></trkpt><trkpt lat="43.9384483" lon="11.0861667"><ele>328.0</ele><time>2026-03-22T11:05:24.394Z</time></trkpt><trkpt lat="43.938515" lon="11.08616"><ele>328.0</ele><time>2026-03-22T11:05:26.393Z</time></trkpt><trkpt lat="43.9385983" lon="11.0860983"><ele>328.0</ele><time>2026-03-22T11:05:28.393Z</time></trkpt><trkpt lat="43.9386583" lon="11.0860467"><ele>328.0</ele><time>2026-03-22T11:05:29.393Z</time></trkpt><trkpt lat="43.938735" lon="11.085985"><ele>328.0</ele><time>2026-03-22T11:05:30.394Z</time></trkpt><trkpt lat="43.9388167" lon="11.085925"><ele>328.0</ele><time>2026-03-22T11:05:31.393Z</time></trkpt><trkpt lat="43.9389017" lon="11.085875"><ele>328.0</ele><time>2026-03-22T11:05:32.394Z</time></trkpt><trkpt lat="43.93899" lon="11.0858433"><ele>328.0</ele><time>2026-03-22T11:05:33.394Z</time></trkpt><trkpt lat="43.93907" lon="11.0858417"><ele>328.0</ele><time>2026-03-22T11:05:34.393Z</time></trkpt><trkpt lat="43.9391417" lon="11.08586"><ele>328.0</ele><time>2026-03-22T11:05:35.394Z</time></trkpt><trkpt lat="43.939215" lon="11.0858917"><ele>328.0</ele><time>2026-03-22T11:05:36.393Z</time></trkpt><trkpt lat="43.9392717" lon="11.0859367"><ele>328.0</ele><time>2026-03-22T11:05:37.393Z</time></trkpt><trkpt lat="43.9393333" lon="11.0860483"><ele>329.5</ele><time>2026-03-22T11:05:39.394Z</time></trkpt><trkpt lat="43.939355" lon="11.0862333"><ele>331.0</ele><time>2026-03-22T11:05:41.393Z</time></trkpt><trkpt lat="43.9393817" lon="11.08633"><ele>332.5</ele><time>2026-03-22T11:05:42.394Z</time></trkpt><trkpt lat="43.939425" lon="11.0864267"><ele>334.0</ele><time>2026-03-22T11:05:43.394Z</time></trkpt><trkpt lat="43.93947" lon="11.0865167"><ele>335.5</ele><time>2026-03-22T11:05:44.393Z</time></trkpt><trkpt lat="43.9395033" lon="11.0865933"><ele>337.0</ele><time>2026-03-22T11:05:45.394Z</time></trkpt><trkpt lat="43.9395783" lon="11.0867317"><ele>337.0</ele><time>2026-03-22T11:05:47.393Z</time></trkpt><trkpt lat="43.939645" lon="11.0868033"><ele>337.0</ele><time>2026-03-22T11:05:48.393Z</time></trkpt><trkpt lat="43.9397183" lon="11.0868733"><ele>337.0</ele><time>2026-03-22T11:05:49.394Z</time></trkpt><trkpt lat="43.9398033" lon="11.0869317"><ele>337.0</ele><time>2026-03-22T11:05:50.393Z</time></trkpt><trkpt lat="43.9399017" lon="11.0869783"><ele>337.0</ele><time>2026-03-22T11:05:51.394Z</time></trkpt><trkpt lat="43.94" lon="11.0870417"><ele>342.0</ele><time>2026-03-22T11:05:52.394Z</time></trkpt><trkpt lat="43.9400967" lon="11.0871133"><ele>347.0</ele><time>2026-03-22T11:05:53.393Z</time></trkpt><trkpt lat="43.9401983" lon="11.087195"><ele>352.0</ele><time>2026-03-22T11:05:54.393Z</time></trkpt><trkpt lat="43.940295" lon="11.0872883"><ele>357.0</ele><time>2026-03-22T11:05:55.394Z</time></trkpt><trkpt lat="43.9403883" lon="11.0873817"><ele>355.6666666666667</ele><time>2026-03-22T11:05:56.393Z</time></trkpt><trkpt lat="43.940465" lon="11.0874617"><ele>354.3333333333333</ele><time>2026-03-22T11:05:57.394Z</time></trkpt><trkpt lat="43.94053" lon="11.08754"><ele>353.0</ele><time>2026-03-22T11:05:58.393Z</time></trkpt><trkpt lat="43.9405867" lon="11.08762"><ele>351.66666666666663</ele><time>2026-03-22T11:05:59.393Z</time></trkpt><trkpt lat="43.9406233" lon="11.0877"><ele>350.3333333333333</ele><time>2026-03-22T11:06:00.393Z</time></trkpt><trkpt lat="43.9406383" lon="11.0877867"><ele>349.0</ele><time>2026-03-22T11:06:01.393Z</time></trkpt><trkpt lat="43.9406267" lon="11.08788"><ele>349.0</ele><time>2026-03-22T11:06:02.394Z</time></trkpt><trkpt lat="43.940595" lon="11.0879783"><ele>349.0</ele><time>2026-03-22T11:06:03.393Z</time></trkpt><trkpt lat="43.940575" lon="11.0880767"><ele>349.0</ele><time>2026-03-22T11:06:04.394Z</time></trkpt><trkpt lat="43.940555" lon="11.0881867"><ele>349.0</ele><time>2026-03-22T11:06:05.393Z</time></trkpt><trkpt lat="43.94054" lon="11.0883017"><ele>349.0</ele><time>2026-03-22T11:06:06.393Z</time></trkpt><trkpt lat="43.94053" lon="11.0884317"><ele>349.0</ele><time>2026-03-22T11:06:07.393Z</time></trkpt><trkpt lat="43.940525" lon="11.0885733"><ele>349.4</ele><time>2026-03-22T11:06:08.393Z</time></trkpt><trkpt lat="43.940525" lon="11.0887133"><ele>349.79999999999995</ele><time>2026-03-22T11:06:09.394Z</time></trkpt><trkpt lat="43.9405267" lon="11.088845"><ele>350.20000000000005</ele><time>2026-03-22T11:06:10.394Z</time></trkpt><trkpt lat="43.940535" lon="11.0889633"><ele>350.6</ele><time>2026-03-22T11:06:11.394Z</time></trkpt><trkpt lat="43.9405567" lon="11.08908"><ele>351.0</ele><time>2026-03-22T11:06:12.393Z</time></trkpt><trkpt lat="43.94062" lon="11.0891867"><ele>351.0</ele><time>2026-03-22T11:06:13.393Z</time></trkpt><trkpt lat="43.9406883" lon="11.089295"><ele>351.0</ele><time>2026-03-22T11:06:14.394Z</time></trkpt><trkpt lat="43.940745" lon="11.089395"><ele>351.0</ele><time>2026-03-22T11:06:15.393Z</time></trkpt><trkpt lat="43.9408" lon="11.0894933"><ele>351.0</ele><time>2026-03-22T11:06:16.394Z</time></trkpt><trkpt lat="43.9408383" lon="11.0895783"><ele>351.0</ele><time>2026-03-22T11:06:17.393Z</time></trkpt><trkpt lat="43.9408533" lon="11.0896667"><ele>351.0</ele><time>2026-03-22T11:06:18.393Z</time></trkpt><trkpt lat="43.9408033" lon="11.089755"><ele>351.0</ele><time>2026-03-22T11:06:19.393Z</time></trkpt><trkpt lat="43.9407633" lon="11.089855"><ele>351.0</ele><time>2026-03-22T11:06:20.394Z</time></trkpt><trkpt lat="43.9407333" lon="11.0899617"><ele>351.0</ele><time>2026-03-22T11:06:21.393Z</time></trkpt><trkpt lat="43.9407017" lon="11.090065"><ele>351.0</ele><time>2026-03-22T11:06:22.394Z</time></trkpt><trkpt lat="43.9406833" lon="11.09017"><ele>351.0</ele><time>2026-03-22T11:06:23.393Z</time></trkpt><trkpt lat="43.9406717" lon="11.0902617"><ele>351.0</ele><time>2026-03-22T11:06:24.393Z</time></trkpt><trkpt lat="43.940655" lon="11.0903783"><ele>350.0</ele><time>2026-03-22T11:06:26.393Z</time></trkpt><trkpt lat="43.9406817" lon="11.0904633"><ele>349.0</ele><time>2026-03-22T11:06:40.394Z</time></trkpt><trkpt lat="43.940715" lon="11.09054"><ele>348.0</ele><time>2026-03-22T11:06:42.393Z</time></trkpt><trkpt lat="43.9407633" lon="11.090615"><ele>347.0</ele><time>2026-03-22T11:06:45.394Z</time></trkpt><trkpt lat="43.9408383" lon="11.0907217"><ele>346.0</ele><time>2026-03-22T11:06:48.393Z</time></trkpt><trkpt lat="43.9409217" lon="11.090855"><ele>345.0</ele><time>2026-03-22T11:06:50.393Z</time></trkpt><trkpt lat="43.94097" lon="11.0909333"><ele>347.3333333333333</ele><time>2026-03-22T11:06:51.394Z</time></trkpt><trkpt lat="43.9410267" lon="11.0910183"><ele>349.6666666666667</ele><time>2026-03-22T11:06:52.394Z</time></trkpt><trkpt lat="43.94108" lon="11.0910983"><ele>352.0</ele><time>2026-03-22T11:06:53.393Z</time></trkpt><trkpt lat="43.9411467" lon="11.0911817"><ele>354.33333333333337</ele><time>2026-03-22T11:06:54.393Z</time></trkpt><trkpt lat="43.9412217" lon="11.091265"><ele>356.6666666666667</ele><time>2026-03-22T11:06:55.393Z</time></trkpt><trkpt lat="43.9412767" lon="11.0913517"><ele>359.0</ele><time>2026-03-22T11:06:56.393Z</time></trkpt><trkpt lat="43.941345" lon="11.091435"><ele>359.0</ele><time>2026-03-22T11:06:57.393Z</time></trkpt><trkpt lat="43.941405" lon="11.0915233"><ele>359.0</ele><time>2026-03-22T11:06:58.394Z</time></trkpt><trkpt lat="43.941475" lon="11.0916117"><ele>359.0</ele><time>2026-03-22T11:06:59.393Z</time></trkpt><trkpt lat="43.9415417" lon="11.0917167"><ele>359.0</ele><time>2026-03-22T11:07:00.394Z</time></trkpt><trkpt lat="43.9415967" lon="11.091835"><ele>359.0</ele><time>2026-03-22T11:07:01.393Z</time></trkpt><trkpt lat="43.941655" lon="11.091955"><ele>358.2</ele><time>2026-03-22T11:07:02.393Z</time></trkpt><trkpt lat="43.9417067" lon="11.09208"><ele>357.4</ele><time>2026-03-22T11:07:03.394Z</time></trkpt><trkpt lat="43.9417583" lon="11.0922"><ele>356.6</ele><time>2026-03-22T11:07:04.394Z</time></trkpt><trkpt lat="43.9418217" lon="11.0923217"><ele>355.8</ele><time>2026-03-22T11:07:05.393Z</time></trkpt><trkpt lat="43.9418817" lon="11.092435"><ele>355.0</ele><time>2026-03-22T11:07:06.394Z</time></trkpt><trkpt lat="43.941955" lon="11.0925533"><ele>355.0</ele><time>2026-03-22T11:07:07.394Z</time></trkpt><trkpt lat="43.9420233" lon="11.0926617"><ele>355.0</ele><time>2026-03-22T11:07:08.393Z</time></trkpt><trkpt lat="43.9420933" lon="11.0927717"><ele>355.0</ele><time>2026-03-22T11:07:09.393Z</time></trkpt><trkpt lat="43.9421533" lon="11.0928633"><ele>355.0</ele><time>2026-03-22T11:07:10.394Z</time></trkpt><trkpt lat="43.94219" lon="11.09295"><ele>355.0</ele><time>2026-03-22T11:07:11.393Z</time></trkpt><trkpt lat="43.9422283" lon="11.0930333"><ele>355.0</ele><time>2026-03-22T11:07:12.394Z</time></trkpt><trkpt lat="43.94226" lon="11.0931133"><ele>355.0</ele><time>2026-03-22T11:07:13.393Z</time></trkpt><trkpt lat="43.9421683" lon="11.0932117"><ele>355.0</ele><time>2026-03-22T11:07:15.393Z</time></trkpt><trkpt lat="43.9420267" lon="11.0932667"><ele>355.0</ele><time>2026-03-22T11:07:17.393Z</time></trkpt><trkpt lat="43.94195" lon="11.0932933"><ele>355.0</ele><time>2026-03-22T11:07:18.394Z</time></trkpt><trkpt lat="43.9418567" lon="11.09332"><ele>355.0</ele><time>2026-03-22T11:07:19.393Z</time></trkpt><trkpt lat="43.9417733" lon="11.0933517"><ele>353.3333333333333</ele><time>2026-03-22T11:07:20.394Z</time></trkpt><trkpt lat="43.94169" lon="11.0933817"><ele>351.66666666666663</ele><time>2026-03-22T11:07:21.394Z</time></trkpt><trkpt lat="43.9416183" lon="11.0934167"><ele>350.0</ele><time>2026-03-22T11:07:22.393Z</time></trkpt><trkpt lat="43.9415583" lon="11.0934883"><ele>348.3333333333333</ele><time>2026-03-22T11:07:23.394Z</time></trkpt><trkpt lat="43.9415283" lon="11.09357"><ele>346.6666666666667</ele><time>2026-03-22T11:07:24.393Z</time></trkpt><trkpt lat="43.941525" lon="11.09368"><ele>345.0</ele><time>2026-03-22T11:07:25.394Z</time></trkpt><trkpt lat="43.941555" lon="11.0938033"><ele>345.0</ele><time>2026-03-22T11:07:26.394Z</time></trkpt><trkpt lat="43.9415967" lon="11.093935"><ele>345.0</ele><time>2026-03-22T11:07:27.394Z</time></trkpt><trkpt lat="43.9417067" lon="11.09407"><ele>345.0</ele><time>2026-03-22T11:07:28.394Z</time></trkpt><trkpt lat="43.9417833" lon="11.0942067"><ele>345.0</ele><time>2026-03-22T11:07:29.394Z</time></trkpt><trkpt lat="43.9418517" lon="11.09432"><ele>347.5</ele><time>2026-03-22T11:07:30.393Z</time></trkpt><trkpt lat="43.941905" lon="11.0944233"><ele>350.0</ele><time>2026-03-22T11:07:31.393Z</time></trkpt><trkpt lat="43.941945" lon="11.0945267"><ele>352.5</ele><time>2026-03-22T11:07:32.393Z</time></trkpt><trkpt lat="43.9419717" lon="11.0946317"><ele>355.0</ele><time>2026-03-22T11:07:33.393Z</time></trkpt><trkpt lat="43.9420033" lon="11.0947433"><ele>357.5</ele><time>2026-03-22T11:07:34.393Z</time></trkpt><trkpt lat="43.9420367" lon="11.0948517"><ele>360.0</ele><time>2026-03-22T11:07:35.394Z</time></trkpt><trkpt lat="43.942075" lon="11.09496"><ele>360.0</ele><time>2026-03-22T11:07:36.394Z</time></trkpt><trkpt lat="43.942125" lon="11.095065"><ele>360.0</ele><time>2026-03-22T11:07:37.393Z</time></trkpt><trkpt lat="43.9421733" lon="11.095155"><ele>360.0</ele><time>2026-03-22T11:07:38.394Z</time></trkpt><trkpt lat="43.9422283" lon="11.0952517"><ele>360.0</ele><time>2026-03-22T11:07:39.393Z</time></trkpt><trkpt lat="43.9422567" lon="11.0953417"><ele>360.0</ele><time>2026-03-22T11:07:40.394Z</time></trkpt><trkpt lat="43.9423183" lon="11.0954783"><ele>360.0</ele><time>2026-03-22T11:07:42.393Z</time></trkpt><trkpt lat="43.9423733" lon="11.0955983"><ele>360.0</ele><time>2026-03-22T11:07:44.393Z</time></trkpt><trkpt lat="43.9424167" lon="11.0957167"><ele>360.0</ele><time>2026-03-22T11:07:46.394Z</time></trkpt><trkpt lat="43.9424417" lon="11.0958267"><ele>360.0</ele><time>2026-03-22T11:07:48.394Z</time></trkpt><trkpt lat="43.942365" lon="11.0959217"><ele>360.0</ele><time>2026-03-22T11:07:52.394Z</time></trkpt><trkpt lat="43.9423217" lon="11.0960317"><ele>360.0</ele><time>2026-03-22T11:07:54.394Z</time></trkpt><trkpt lat="43.942325" lon="11.09614"><ele>359.5</ele><time>2026-03-22T11:07:56.394Z</time></trkpt><trkpt lat="43.9424183" lon="11.0962333"><ele>359.0</ele><time>2026-03-22T11:07:58.394Z</time></trkpt><trkpt lat="43.94248" lon="11.09634"><ele>358.5</ele><time>2026-03-22T11:08:00.393Z</time></trkpt><trkpt lat="43.9425" lon="11.0964283"><ele>358.0</ele><time>2026-03-22T11:08:02.393Z</time></trkpt><trkpt lat="43.9424483" lon="11.09649"><ele>357.5</ele><time>2026-03-22T11:08:04.393Z</time></trkpt><trkpt lat="43.942365" lon="11.0965033"><ele>357.0</ele><time>2026-03-22T11:08:05.393Z</time></trkpt><trkpt lat="43.9422833" lon="11.0965267"><ele>357.0</ele><time>2026-03-22T11:08:06.394Z</time></trkpt><trkpt lat="43.94221" lon="11.096545"><ele>357.0</ele><time>2026-03-22T11:08:07.394Z</time></trkpt><trkpt lat="43.94214" lon="11.0965583"><ele>357.0</ele><time>2026-03-22T11:08:08.394Z</time></trkpt><trkpt lat="43.942075" lon="11.096565"><ele>357.0</ele><time>2026-03-22T11:08:09.394Z</time></trkpt><trkpt lat="43.942005" lon="11.0965717"><ele>357.0</ele><time>2026-03-22T11:08:10.394Z</time></trkpt><trkpt lat="43.9419367" lon="11.09658"><ele>357.0</ele><time>2026-03-22T11:08:11.393Z</time></trkpt><trkpt lat="43.9418583" lon="11.0965717"><ele>357.0</ele><time>2026-03-22T11:08:12.394Z</time></trkpt><trkpt lat="43.94178" lon="11.0965667"><ele>354.0</ele><time>2026-03-22T11:08:13.393Z</time></trkpt><trkpt lat="43.9417" lon="11.0965617"><ele>351.0</ele><time>2026-03-22T11:08:14.393Z</time></trkpt><trkpt lat="43.9416167" lon="11.0965467"><ele>348.0</ele><time>2026-03-22T11:08:15.394Z</time></trkpt><trkpt lat="43.9415283" lon="11.0965317"><ele>345.0</ele><time>2026-03-22T11:08:16.393Z</time></trkpt><trkpt lat="43.9414367" lon="11.0965333"><ele>342.0</ele><time>2026-03-22T11:08:17.394Z</time></trkpt><trkpt lat="43.9413417" lon="11.0965317"><ele>339.0</ele><time>2026-03-22T11:08:18.393Z</time></trkpt><trkpt lat="43.9412467" lon="11.096535"><ele>339.0</ele><time>2026-03-22T11:08:19.394Z</time></trkpt><trkpt lat="43.9411433" lon="11.096535"><ele>339.0</ele><time>2026-03-22T11:08:20.394Z</time></trkpt><trkpt lat="43.9410417" lon="11.096525"><ele>339.0</ele><time>2026-03-22T11:08:21.394Z</time></trkpt><trkpt lat="43.94094" lon="11.0965133"><ele>339.0</ele><time>2026-03-22T11:08:22.393Z</time></trkpt><trkpt lat="43.9408383" lon="11.0965"><ele>339.0</ele><time>2026-03-22T11:08:23.393Z</time></trkpt><trkpt lat="43.9407317" lon="11.096485"><ele>334.25</ele><time>2026-03-22T11:08:24.394Z</time></trkpt><trkpt lat="43.940625" lon="11.096465"><ele>329.5</ele><time>2026-03-22T11:08:25.394Z</time></trkpt><trkpt lat="43.9405117" lon="11.0964483"><ele>324.75</ele><time>2026-03-22T11:08:26.394Z</time></trkpt><trkpt lat="43.9403983" lon="11.0964267"><ele>320.0</ele><time>2026-03-22T11:08:27.393Z</time></trkpt><trkpt lat="43.9402867" lon="11.0963783"><ele>320.0</ele><time>2026-03-22T11:08:28.393Z</time></trkpt><trkpt lat="43.940185" lon="11.0963117"><ele>320.0</ele><time>2026-03-22T11:08:29.394Z</time></trkpt><trkpt lat="43.94008" lon="11.0962467"><ele>320.0</ele><time>2026-03-22T11:08:30.394Z</time></trkpt><trkpt lat="43.9399633" lon="11.0961983"><ele>320.0</ele><time>2026-03-22T11:08:31.394Z</time></trkpt><trkpt lat="43.9398417" lon="11.0961683"><ele>316.25</ele><time>2026-03-22T11:08:32.393Z</time></trkpt><trkpt lat="43.9397217" lon="11.0961433"><ele>312.5</ele><time>2026-03-22T11:08:33.394Z</time></trkpt><trkpt lat="43.939595" lon="11.0961167"><ele>308.75</ele><time>2026-03-22T11:08:34.393Z</time></trkpt><trkpt lat="43.939465" lon="11.0960817"><ele>305.0</ele><time>2026-03-22T11:08:35.393Z</time></trkpt><trkpt lat="43.9393433" lon="11.0960267"><ele>305.0</ele><time>2026-03-22T11:08:36.393Z</time></trkpt><trkpt lat="43.9392183" lon="11.0959733"><ele>305.0</ele><time>2026-03-22T11:08:37.393Z</time></trkpt><trkpt lat="43.9390917" lon="11.0959217"><ele>305.0</ele><time>2026-03-22T11:08:38.394Z</time></trkpt><trkpt lat="43.9389683" lon="11.0958667"><ele>305.0</ele><time>2026-03-22T11:08:39.393Z</time></trkpt><trkpt lat="43.9388533" lon="11.0958067"><ele>303.4</ele><time>2026-03-22T11:08:40.394Z</time></trkpt><trkpt lat="43.9387467" lon="11.095745"><ele>301.8</ele><time>2026-03-22T11:08:41.393Z</time></trkpt><trkpt lat="43.9386383" lon="11.0956933"><ele>300.2</ele><time>2026-03-22T11:08:42.394Z</time></trkpt><trkpt lat="43.9385417" lon="11.0956517"><ele>298.6</ele><time>2026-03-22T11:08:43.393Z</time></trkpt><trkpt lat="43.9384517" lon="11.0956383"><ele>297.0</ele><time>2026-03-22T11:08:44.393Z</time></trkpt><trkpt lat="43.938365" lon="11.0956517"><ele>296.6666666666667</ele><time>2026-03-22T11:08:45.394Z</time></trkpt><trkpt lat="43.938285" lon="11.0956683"><ele>296.3333333333333</ele><time>2026-03-22T11:08:46.393Z</time></trkpt><trkpt lat="43.9382167" lon="11.0957333"><ele>296.0</ele><time>2026-03-22T11:08:47.394Z</time></trkpt><trkpt lat="43.938175" lon="11.09584"><ele>295.66666666666663</ele><time>2026-03-22T11:08:48.394Z</time></trkpt><trkpt lat="43.9381083" lon="11.09593"><ele>295.3333333333333</ele><time>2026-03-22T11:08:49.393Z</time></trkpt><trkpt lat="43.9380283" lon="11.0960033"><ele>295.0</ele><time>2026-03-22T11:08:50.394Z</time></trkpt><trkpt lat="43.9379333" lon="11.0960633"><ele>295.0</ele><time>2026-03-22T11:08:51.393Z</time></trkpt><trkpt lat="43.9378383" lon="11.0961033"><ele>295.0</ele><time>2026-03-22T11:08:52.394Z</time></trkpt><trkpt lat="43.93774" lon="11.0961583"><ele>295.0</ele><time>2026-03-22T11:08:53.393Z</time></trkpt><trkpt lat="43.93765" lon="11.0962133"><ele>295.0</ele><time>2026-03-22T11:08:54.394Z</time></trkpt><trkpt lat="43.93757" lon="11.09627"><ele>295.0</ele><time>2026-03-22T11:08:55.393Z</time></trkpt><trkpt lat="43.9374983" lon="11.096335"><ele>293.28571428571433</ele><time>2026-03-22T11:08:56.394Z</time></trkpt><trkpt lat="43.937435" lon="11.096405"><ele>291.57142857142856</ele><time>2026-03-22T11:08:57.393Z</time></trkpt><trkpt lat="43.9373767" lon="11.0964667"><ele>289.8571428571429</ele><time>2026-03-22T11:08:58.394Z</time></trkpt><trkpt lat="43.9373217" lon="11.096525"><ele>288.14285714285717</ele><time>2026-03-22T11:08:59.393Z</time></trkpt><trkpt lat="43.9372633" lon="11.0965717"><ele>286.42857142857144</ele><time>2026-03-22T11:09:00.393Z</time></trkpt><trkpt lat="43.9372017" lon="11.0966083"><ele>284.7142857142857</ele><time>2026-03-22T11:09:01.394Z</time></trkpt><trkpt lat="43.9371383" lon="11.0966217"><ele>283.0</ele><time>2026-03-22T11:09:02.394Z</time></trkpt><trkpt lat="43.9370733" lon="11.0966133"><ele>283.0</ele><time>2026-03-22T11:09:03.393Z</time></trkpt><trkpt lat="43.937005" lon="11.0965917"><ele>283.0</ele><time>2026-03-22T11:09:04.394Z</time></trkpt><trkpt lat="43.936945" lon="11.0965483"><ele>283.0</ele><time>2026-03-22T11:09:05.393Z</time></trkpt><trkpt lat="43.936885" lon="11.09649"><ele>283.0</ele><time>2026-03-22T11:09:06.393Z</time></trkpt><trkpt lat="43.936825" lon="11.0964267"><ele>283.0</ele><time>2026-03-22T11:09:07.393Z</time></trkpt><trkpt lat="43.9367617" lon="11.0963667"><ele>283.0</ele><time>2026-03-22T11:09:08.394Z</time></trkpt><trkpt lat="43.936695" lon="11.0963117"><ele>283.0</ele><time>2026-03-22T11:09:09.394Z</time></trkpt><trkpt lat="43.9366183" lon="11.0962633"><ele>281.5</ele><time>2026-03-22T11:09:10.393Z</time></trkpt><trkpt lat="43.936535" lon="11.0962267"><ele>280.0</ele><time>2026-03-22T11:09:11.393Z</time></trkpt><trkpt lat="43.9364617" lon="11.0961967"><ele>278.5</ele><time>2026-03-22T11:09:12.393Z</time></trkpt><trkpt lat="43.9363733" lon="11.09619"><ele>277.0</ele><time>2026-03-22T11:09:13.394Z</time></trkpt><trkpt lat="43.936285" lon="11.0961983"><ele>275.5</ele><time>2026-03-22T11:09:14.393Z</time></trkpt><trkpt lat="43.9362033" lon="11.0962"><ele>274.0</ele><time>2026-03-22T11:09:15.393Z</time></trkpt><trkpt lat="43.9361283" lon="11.096195"><ele>274.0</ele><time>2026-03-22T11:09:16.394Z</time></trkpt><trkpt lat="43.9360683" lon="11.096165"><ele>274.0</ele><time>2026-03-22T11:09:17.393Z</time></trkpt><trkpt lat="43.9359883" lon="11.0960633"><ele>274.0</ele><time>2026-03-22T11:09:19.393Z</time></trkpt><trkpt lat="43.935975" lon="11.0958967"><ele>274.0</ele><time>2026-03-22T11:09:21.393Z</time></trkpt><trkpt lat="43.935935" lon="11.0957817"><ele>274.0</ele><time>2026-03-22T11:09:23.394Z</time></trkpt><trkpt lat="43.9358133" lon="11.0957767"><ele>272.0</ele><time>2026-03-22T11:09:25.393Z</time></trkpt><trkpt lat="43.9357467" lon="11.095775"><ele>270.0</ele><time>2026-03-22T11:09:26.393Z</time></trkpt><trkpt lat="43.93567" lon="11.0957317"><ele>268.0</ele><time>2026-03-22T11:09:28.393Z</time></trkpt><trkpt lat="43.9356667" lon="11.0956333"><ele>266.0</ele><time>2026-03-22T11:09:31.393Z</time></trkpt><trkpt lat="43.9357217" lon="11.095525"><ele>264.0</ele><time>2026-03-22T11:09:33.393Z</time></trkpt><trkpt lat="43.9357617" lon="11.095445"><ele>262.0</ele><time>2026-03-22T11:09:34.393Z</time></trkpt><trkpt lat="43.9357967" lon="11.0953367"><ele>260.6</ele><time>2026-03-22T11:09:35.393Z</time></trkpt><trkpt lat="43.9358317" lon="11.0952133"><ele>259.2</ele><time>2026-03-22T11:09:36.393Z</time></trkpt><trkpt lat="43.93586" lon="11.0950667"><ele>257.8</ele><time>2026-03-22T11:09:37.393Z</time></trkpt><trkpt lat="43.9358917" lon="11.0949033"><ele>256.4</ele><time>2026-03-22T11:09:38.392Z</time></trkpt><trkpt lat="43.9359217" lon="11.0947383"><ele>255.0</ele><time>2026-03-22T11:09:39.393Z</time></trkpt><trkpt lat="43.9359517" lon="11.09457"><ele>255.0</ele><time>2026-03-22T11:09:40.393Z</time></trkpt><trkpt lat="43.9359833" lon="11.0944017"><ele>255.0</ele><time>2026-03-22T11:09:41.392Z</time></trkpt><trkpt lat="43.9360117" lon="11.094255"><ele>255.0</ele><time>2026-03-22T11:09:42.393Z</time></trkpt><trkpt lat="43.9360333" lon="11.0941283"><ele>255.0</ele><time>2026-03-22T11:09:43.393Z</time></trkpt><trkpt lat="43.9360517" lon="11.0940233"><ele>255.0</ele><time>2026-03-22T11:09:44.392Z</time></trkpt><trkpt lat="43.9360667" lon="11.0939383"><ele>253.2</ele><time>2026-03-22T11:09:45.392Z</time></trkpt><trkpt lat="43.936055" lon="11.0937917"><ele>251.4</ele><time>2026-03-22T11:09:47.393Z</time></trkpt><trkpt lat="43.9359467" lon="11.093685"><ele>249.60000000000002</ele><time>2026-03-22T11:09:49.392Z</time></trkpt><trkpt lat="43.93586" lon="11.093645"><ele>247.8</ele><time>2026-03-22T11:09:50.393Z</time></trkpt><trkpt lat="43.93576" lon="11.0936183"><ele>246.0</ele><time>2026-03-22T11:09:51.393Z</time></trkpt><trkpt lat="43.9356833" lon="11.093595"><ele>244.66666666666666</ele><time>2026-03-22T11:09:52.392Z</time></trkpt><trkpt lat="43.93562" lon="11.0935633"><ele>243.33333333333331</ele><time>2026-03-22T11:09:53.393Z</time></trkpt><trkpt lat="43.9355333" lon="11.0935017"><ele>242.0</ele><time>2026-03-22T11:09:55.392Z</time></trkpt><trkpt lat="43.9355033" lon="11.0934233"><ele>240.66666666666666</ele><time>2026-03-22T11:09:57.393Z</time></trkpt><trkpt lat="43.9355033" lon="11.0932517"><ele>239.33333333333331</ele><time>2026-03-22T11:09:59.393Z</time></trkpt><trkpt lat="43.9355233" lon="11.093155"><ele>238.0</ele><time>2026-03-22T11:10:00.393Z</time></trkpt><trkpt lat="43.93556" lon="11.0930583"><ele>236.60000000000002</ele><time>2026-03-22T11:10:01.394Z</time></trkpt><trkpt lat="43.9356267" lon="11.0929517"><ele>235.20000000000002</ele><time>2026-03-22T11:10:02.394Z</time></trkpt><trkpt lat="43.9356883" lon="11.0928417"><ele>233.8</ele><time>2026-03-22T11:10:03.393Z</time></trkpt><trkpt lat="43.9357433" lon="11.0927317"><ele>232.4</ele><time>2026-03-22T11:10:04.393Z</time></trkpt><trkpt lat="43.9357867" lon="11.09262"><ele>231.0</ele><time>2026-03-22T11:10:05.393Z</time></trkpt><trkpt lat="43.93583" lon="11.0925117"><ele>231.20000000000002</ele><time>2026-03-22T11:10:06.395Z</time></trkpt><trkpt lat="43.9358517" lon="11.09239"><ele>231.40000000000003</ele><time>2026-03-22T11:10:07.394Z</time></trkpt><trkpt lat="43.9358567" lon="11.0922833"><ele>231.6</ele><time>2026-03-22T11:10:08.393Z</time></trkpt><trkpt lat="43.9358533" lon="11.092185"><ele>231.8</ele><time>2026-03-22T11:10:09.393Z</time></trkpt><trkpt lat="43.9358117" lon="11.0920433"><ele>232.0</ele><time>2026-03-22T11:10:11.393Z</time></trkpt><trkpt lat="43.9357183" lon="11.0919267"><ele>232.0</ele><time>2026-03-22T11:10:13.393Z</time></trkpt><trkpt lat="43.9356417" lon="11.0918733"><ele>232.0</ele><time>2026-03-22T11:10:14.394Z</time></trkpt><trkpt lat="43.93555" lon="11.0917967"><ele>232.0</ele><time>2026-03-22T11:10:15.395Z</time></trkpt><trkpt lat="43.935455" lon="11.0917083"><ele>232.0</ele><time>2026-03-22T11:10:16.394Z</time></trkpt><trkpt lat="43.93537" lon="11.0916283"><ele>232.0</ele><time>2026-03-22T11:10:17.393Z</time></trkpt><trkpt lat="43.9352883" lon="11.0915583"><ele>231.49999999999997</ele><time>2026-03-22T11:10:18.393Z</time></trkpt><trkpt lat="43.9352117" lon="11.091485"><ele>231.0</ele><time>2026-03-22T11:10:19.394Z</time></trkpt><trkpt lat="43.935135" lon="11.0914133"><ele>230.5</ele><time>2026-03-22T11:10:20.394Z</time></trkpt><trkpt lat="43.9350667" lon="11.0913433"><ele>230.0</ele><time>2026-03-22T11:10:21.393Z</time></trkpt><trkpt lat="43.9349967" lon="11.0912833"><ele>229.49999999999997</ele><time>2026-03-22T11:10:22.394Z</time></trkpt><trkpt lat="43.9349317" lon="11.0912517"><ele>229.0</ele><time>2026-03-22T11:10:23.394Z</time></trkpt><trkpt lat="43.9348383" lon="11.0913017"><ele>229.0</ele><time>2026-03-22T11:10:24.393Z</time></trkpt><trkpt lat="43.9347417" lon="11.0913567"><ele>228.99999999999997</ele><time>2026-03-22T11:10:25.393Z</time></trkpt><trkpt lat="43.9346533" lon="11.0914183"><ele>228.99999999999997</ele><time>2026-03-22T11:10:26.393Z</time></trkpt><trkpt lat="43.9345717" lon="11.091465"><ele>229.0</ele><time>2026-03-22T11:10:27.394Z</time></trkpt><trkpt lat="43.9344933" lon="11.0915"><ele>229.0</ele><time>2026-03-22T11:10:28.393Z</time></trkpt><trkpt lat="43.9344183" lon="11.0915183"><ele>229.0</ele><time>2026-03-22T11:10:29.394Z</time></trkpt><trkpt lat="43.934325" lon="11.091525"><ele>228.99999999999997</ele><time>2026-03-22T11:10:30.394Z</time></trkpt><trkpt lat="43.9342283" lon="11.0915267"><ele>228.99999999999997</ele><time>2026-03-22T11:10:31.394Z</time></trkpt><trkpt lat="43.93413" lon="11.09154"><ele>229.0</ele><time>2026-03-22T11:10:32.393Z</time></trkpt><trkpt lat="43.9340383" lon="11.0915583"><ele>229.0</ele><time>2026-03-22T11:10:33.393Z</time></trkpt><trkpt lat="43.9339567" lon="11.0915817"><ele>225.66666666666666</ele><time>2026-03-22T11:10:34.393Z</time></trkpt><trkpt lat="43.9338883" lon="11.09161"><ele>222.33333333333331</ele><time>2026-03-22T11:10:35.393Z</time></trkpt><trkpt lat="43.933755" lon="11.0916267"><ele>219.0</ele><time>2026-03-22T11:10:37.394Z</time></trkpt><trkpt lat="43.93368" lon="11.09163"><ele>215.66666666666669</ele><time>2026-03-22T11:10:38.394Z</time></trkpt><trkpt lat="43.9335983" lon="11.091635"><ele>212.33333333333334</ele><time>2026-03-22T11:10:39.394Z</time></trkpt><trkpt lat="43.9335133" lon="11.091645"><ele>209.0</ele><time>2026-03-22T11:10:40.393Z</time></trkpt><trkpt lat="43.9334183" lon="11.0916617"><ele>207.79999999999998</ele><time>2026-03-22T11:10:41.393Z</time></trkpt><trkpt lat="43.9333183" lon="11.091675"><ele>206.6</ele><time>2026-03-22T11:10:42.394Z</time></trkpt><trkpt lat="43.933215" lon="11.0916883"><ele>205.4</ele><time>2026-03-22T11:10:43.394Z</time></trkpt><trkpt lat="43.9330983" lon="11.0916967"><ele>204.2</ele><time>2026-03-22T11:10:44.394Z</time></trkpt><trkpt lat="43.932975" lon="11.0917067"><ele>203.0</ele><time>2026-03-22T11:10:45.394Z</time></trkpt><trkpt lat="43.9328533" lon="11.09172"><ele>203.0</ele><time>2026-03-22T11:10:46.393Z</time></trkpt><trkpt lat="43.9327467" lon="11.0917367"><ele>203.0</ele><time>2026-03-22T11:10:47.393Z</time></trkpt><trkpt lat="43.93265" lon="11.0917467"><ele>203.0</ele><time>2026-03-22T11:10:48.394Z</time></trkpt><trkpt lat="43.9325617" lon="11.0917517"><ele>203.0</ele><time>2026-03-22T11:10:49.393Z</time></trkpt><trkpt lat="43.932475" lon="11.0917533"><ele>203.0</ele><time>2026-03-22T11:10:50.394Z</time></trkpt><trkpt lat="43.9324" lon="11.091755"><ele>202.57142857142858</ele><time>2026-03-22T11:10:51.393Z</time></trkpt><trkpt lat="43.9323367" lon="11.0917617"><ele>202.14285714285714</ele><time>2026-03-22T11:10:52.394Z</time></trkpt><trkpt lat="43.9322733" lon="11.0917683"><ele>201.71428571428572</ele><time>2026-03-22T11:10:53.393Z</time></trkpt><trkpt lat="43.9322083" lon="11.091765"><ele>201.28571428571428</ele><time>2026-03-22T11:10:54.393Z</time></trkpt><trkpt lat="43.932145" lon="11.0917567"><ele>200.85714285714286</ele><time>2026-03-22T11:10:55.394Z</time></trkpt><trkpt lat="43.93207" lon="11.09176"><ele>200.42857142857144</ele><time>2026-03-22T11:10:56.393Z</time></trkpt><trkpt lat="43.931995" lon="11.09176"><ele>200.0</ele><time>2026-03-22T11:10:57.393Z</time></trkpt><trkpt lat="43.9319267" lon="11.0917583"><ele>200.00000000000003</ele><time>2026-03-22T11:10:58.394Z</time></trkpt><trkpt lat="43.9318517" lon="11.0917533"><ele>200.0</ele><time>2026-03-22T11:10:59.394Z</time></trkpt><trkpt lat="43.931775" lon="11.0917567"><ele>200.0</ele><time>2026-03-22T11:11:00.393Z</time></trkpt><trkpt lat="43.931695" lon="11.0917567"><ele>200.0</ele><time>2026-03-22T11:11:01.393Z</time></trkpt><trkpt lat="43.9316217" lon="11.09175"><ele>200.00000000000003</ele><time>2026-03-22T11:11:02.393Z</time></trkpt><trkpt lat="43.9315483" lon="11.0917367"><ele>200.0</ele><time>2026-03-22T11:11:03.393Z</time></trkpt><trkpt lat="43.93148" lon="11.0917133"><ele>200.2</ele><time>2026-03-22T11:11:04.394Z</time></trkpt><trkpt lat="43.931355" lon="11.09167"><ele>200.4</ele><time>2026-03-22T11:11:06.393Z</time></trkpt><trkpt lat="43.9312583" lon="11.09159"><ele>200.60000000000002</ele><time>2026-03-22T11:11:08.394Z</time></trkpt><trkpt lat="43.931165" lon="11.091525"><ele>200.8</ele><time>2026-03-22T11:11:10.393Z</time></trkpt><trkpt lat="43.9311017" lon="11.0915217"><ele>201.0</ele><time>2026-03-22T11:11:11.393Z</time></trkpt><trkpt lat="43.9310333" lon="11.0915317"><ele>201.0</ele><time>2026-03-22T11:11:12.393Z</time></trkpt><trkpt lat="43.9309617" lon="11.0915483"><ele>201.0</ele><time>2026-03-22T11:11:13.394Z</time></trkpt><trkpt lat="43.930865" lon="11.0915733"><ele>201.0</ele><time>2026-03-22T11:11:14.394Z</time></trkpt><trkpt lat="43.93073" lon="11.09162"><ele>201.0</ele><time>2026-03-22T11:11:15.394Z</time></trkpt><trkpt lat="43.93061" lon="11.0916483"><ele>201.0</ele><time>2026-03-22T11:11:16.393Z</time></trkpt><trkpt lat="43.93051" lon="11.09167"><ele>195.60000000000002</ele><time>2026-03-22T11:11:17.393Z</time></trkpt><trkpt lat="43.9304017" lon="11.0916917"><ele>190.2</ele><time>2026-03-22T11:11:18.393Z</time></trkpt><trkpt lat="43.9302933" lon="11.091705"><ele>184.8</ele><time>2026-03-22T11:11:19.393Z</time></trkpt><trkpt lat="43.9301917" lon="11.091725"><ele>179.39999999999998</ele><time>2026-03-22T11:11:20.394Z</time></trkpt><trkpt lat="43.9301083" lon="11.0917517"><ele>174.0</ele><time>2026-03-22T11:11:21.394Z</time></trkpt><trkpt lat="43.9300233" lon="11.0917783"><ele>171.2</ele><time>2026-03-22T11:11:22.394Z</time></trkpt><trkpt lat="43.929945" lon="11.0918033"><ele>168.39999999999998</ele><time>2026-03-22T11:11:23.394Z</time></trkpt><trkpt lat="43.9298817" lon="11.0918367"><ele>165.6</ele><time>2026-03-22T11:11:24.393Z</time></trkpt><trkpt lat="43.9298" lon="11.09194"><ele>162.8</ele><time>2026-03-22T11:11:26.394Z</time></trkpt><trkpt lat="43.9297217" lon="11.0920733"><ele>160.0</ele><time>2026-03-22T11:11:28.394Z</time></trkpt><trkpt lat="43.9296767" lon="11.0921517"><ele>160.0</ele><time>2026-03-22T11:11:29.394Z</time></trkpt><trkpt lat="43.9296267" lon="11.0922217"><ele>160.0</ele><time>2026-03-22T11:11:30.393Z</time></trkpt><trkpt lat="43.9295767" lon="11.0922833"><ele>160.0</ele><time>2026-03-22T11:11:31.393Z</time></trkpt><trkpt lat="43.9294767" lon="11.0923867"><ele>160.0</ele><time>2026-03-22T11:11:33.393Z</time></trkpt><trkpt lat="43.929425" lon="11.0924517"><ele>160.0</ele><time>2026-03-22T11:11:34.393Z</time></trkpt><trkpt lat="43.9293217" lon="11.09252"><ele>160.0</ele><time>2026-03-22T11:11:36.394Z</time></trkpt><trkpt lat="43.9292083" lon="11.092575"><ele>157.33333333333334</ele><time>2026-03-22T11:11:38.394Z</time></trkpt><trkpt lat="43.9291017" lon="11.0926767"><ele>154.66666666666669</ele><time>2026-03-22T11:11:40.393Z</time></trkpt><trkpt lat="43.9290617" lon="11.0927567"><ele>152.0</ele><time>2026-03-22T11:11:41.394Z</time></trkpt><trkpt lat="43.9290317" lon="11.092865"><ele>149.33333333333334</ele><time>2026-03-22T11:11:42.394Z</time></trkpt><trkpt lat="43.9289983" lon="11.0929533"><ele>146.66666666666666</ele><time>2026-03-22T11:11:43.393Z</time></trkpt><trkpt lat="43.9289583" lon="11.0930333"><ele>144.0</ele><time>2026-03-22T11:11:44.394Z</time></trkpt><trkpt lat="43.92892" lon="11.0931117"><ele>144.0</ele><time>2026-03-22T11:11:45.394Z</time></trkpt><trkpt lat="43.9288583" lon="11.0932383"><ele>144.0</ele><time>2026-03-22T11:11:47.393Z</time></trkpt><trkpt lat="43.92881" lon="11.0933133"><ele>144.0</ele><time>2026-03-22T11:11:49.394Z</time></trkpt><trkpt lat="43.9287467" lon="11.093325"><ele>144.0</ele><time>2026-03-22T11:11:51.394Z</time></trkpt><trkpt lat="43.9286467" lon="11.09327"><ele>144.0</ele><time>2026-03-22T11:11:53.394Z</time></trkpt><trkpt lat="43.9285817" lon="11.093195"><ele>144.0</ele><time>2026-03-22T11:11:54.393Z</time></trkpt><trkpt lat="43.92852" lon="11.09313"><ele>144.0</ele><time>2026-03-22T11:11:55.393Z</time></trkpt><trkpt lat="43.928455" lon="11.093075"><ele>144.0</ele><time>2026-03-22T11:11:56.393Z</time></trkpt><trkpt lat="43.9283867" lon="11.0930217"><ele>144.0</ele><time>2026-03-22T11:11:57.394Z</time></trkpt><trkpt lat="43.9283133" lon="11.092975"><ele>144.0</ele><time>2026-03-22T11:11:58.393Z</time></trkpt><trkpt lat="43.9282417" lon="11.09294"><ele>144.0</ele><time>2026-03-22T11:11:59.393Z</time></trkpt><trkpt lat="43.92816" lon="11.0929183"><ele>144.0</ele><time>2026-03-22T11:12:00.394Z</time></trkpt><trkpt lat="43.9280717" lon="11.09291"><ele>143.6</ele><time>2026-03-22T11:12:01.394Z</time></trkpt><trkpt lat="43.9279783" lon="11.0929133"><ele>143.2</ele><time>2026-03-22T11:12:02.394Z</time></trkpt><trkpt lat="43.9278867" lon="11.0929283"><ele>142.79999999999998</ele><time>2026-03-22T11:12:03.394Z</time></trkpt><trkpt lat="43.9277883" lon="11.0929383"><ele>142.4</ele><time>2026-03-22T11:12:04.393Z</time></trkpt><trkpt lat="43.92769" lon="11.09295"><ele>142.0</ele><time>2026-03-22T11:12:05.393Z</time></trkpt><trkpt lat="43.927595" lon="11.0929567"><ele>140.79999999999998</ele><time>2026-03-22T11:12:06.394Z</time></trkpt><trkpt lat="43.9275033" lon="11.09295"><ele>139.6</ele><time>2026-03-22T11:12:07.393Z</time></trkpt><trkpt lat="43.9274167" lon="11.0929233"><ele>138.39999999999998</ele><time>2026-03-22T11:12:08.394Z</time></trkpt><trkpt lat="43.92733" lon="11.092875"><ele>137.2</ele><time>2026-03-22T11:12:09.393Z</time></trkpt><trkpt lat="43.9272433" lon="11.0928083"><ele>136.0</ele><time>2026-03-22T11:12:10.393Z</time></trkpt><trkpt lat="43.9271567" lon="11.0927417"><ele>136.0</ele><time>2026-03-22T11:12:11.394Z</time></trkpt><trkpt lat="43.9270683" lon="11.0926733"><ele>136.0</ele><time>2026-03-22T11:12:12.393Z</time></trkpt><trkpt lat="43.9269817" lon="11.0926"><ele>136.0</ele><time>2026-03-22T11:12:13.393Z</time></trkpt><trkpt lat="43.9268867" lon="11.0925317"><ele>136.0</ele><time>2026-03-22T11:12:14.393Z</time></trkpt><trkpt lat="43.9267817" lon="11.0924567"><ele>136.0</ele><time>2026-03-22T11:12:15.393Z</time></trkpt><trkpt lat="43.926675" lon="11.0923917"><ele>135.25</ele><time>2026-03-22T11:12:16.394Z</time></trkpt><trkpt lat="43.9265683" lon="11.0923467"><ele>134.5</ele><time>2026-03-22T11:12:17.394Z</time></trkpt><trkpt lat="43.9264533" lon="11.0923217"><ele>133.75</ele><time>2026-03-22T11:12:18.394Z</time></trkpt><trkpt lat="43.9263333" lon="11.092305"><ele>133.0</ele><time>2026-03-22T11:12:19.393Z</time></trkpt><trkpt lat="43.9262133" lon="11.0922867"><ele>133.0</ele><time>2026-03-22T11:12:20.393Z</time></trkpt><trkpt lat="43.926095" lon="11.092275"><ele>133.0</ele><time>2026-03-22T11:12:21.394Z</time></trkpt><trkpt lat="43.9259783" lon="11.0922633"><ele>133.0</ele><time>2026-03-22T11:12:22.394Z</time></trkpt><trkpt lat="43.9258667" lon="11.0922567"><ele>133.0</ele><time>2026-03-22T11:12:23.394Z</time></trkpt><trkpt lat="43.9257583" lon="11.0922633"><ele>131.25</ele><time>2026-03-22T11:12:24.393Z</time></trkpt><trkpt lat="43.9256383" lon="11.092275"><ele>129.5</ele><time>2026-03-22T11:12:25.393Z</time></trkpt><trkpt lat="43.9255233" lon="11.0922867"><ele>127.75</ele><time>2026-03-22T11:12:26.393Z</time></trkpt><trkpt lat="43.92541" lon="11.092305"><ele>126.0</ele><time>2026-03-22T11:12:27.393Z</time></trkpt><trkpt lat="43.9253" lon="11.0923283"><ele>126.0</ele><time>2026-03-22T11:12:28.393Z</time></trkpt><trkpt lat="43.9251867" lon="11.09235"><ele>126.0</ele><time>2026-03-22T11:12:29.394Z</time></trkpt><trkpt lat="43.9250717" lon="11.0923717"><ele>126.0</ele><time>2026-03-22T11:12:30.394Z</time></trkpt><trkpt lat="43.9249517" lon="11.0923883"><ele>126.0</ele><time>2026-03-22T11:12:31.393Z</time></trkpt><trkpt lat="43.924835" lon="11.0923983"><ele>126.75</ele><time>2026-03-22T11:12:32.394Z</time></trkpt><trkpt lat="43.9247117" lon="11.0924067"><ele>127.5</ele><time>2026-03-22T11:12:33.393Z</time></trkpt><trkpt lat="43.9245867" lon="11.092405"><ele>128.25</ele><time>2026-03-22T11:12:34.393Z</time></trkpt><trkpt lat="43.92446" lon="11.09239"><ele>129.0</ele><time>2026-03-22T11:12:35.393Z</time></trkpt><trkpt lat="43.924335" lon="11.09237"><ele>127.75</ele><time>2026-03-22T11:12:36.393Z</time></trkpt><trkpt lat="43.9242183" lon="11.0923517"><ele>126.5</ele><time>2026-03-22T11:12:37.393Z</time></trkpt><trkpt lat="43.9241017" lon="11.0923317"><ele>125.25</ele><time>2026-03-22T11:12:38.393Z</time></trkpt><trkpt lat="43.9239883" lon="11.092315"><ele>124.0</ele><time>2026-03-22T11:12:39.394Z</time></trkpt><trkpt lat="43.92388" lon="11.0922983"><ele>124.0</ele><time>2026-03-22T11:12:40.393Z</time></trkpt><trkpt lat="43.9237717" lon="11.09228"><ele>124.0</ele><time>2026-03-22T11:12:41.393Z</time></trkpt><trkpt lat="43.9236633" lon="11.0922567"><ele>124.0</ele><time>2026-03-22T11:12:42.393Z</time></trkpt><trkpt lat="43.923555" lon="11.0922383"><ele>124.0</ele><time>2026-03-22T11:12:43.394Z</time></trkpt><trkpt lat="43.9234517" lon="11.0922167"><ele>124.0</ele><time>2026-03-22T11:12:44.393Z</time></trkpt><trkpt lat="43.92335" lon="11.092195"><ele>122.0</ele><time>2026-03-22T11:12:45.394Z</time></trkpt><trkpt lat="43.9232517" lon="11.0921717"><ele>120.0</ele><time>2026-03-22T11:12:46.393Z</time></trkpt><trkpt lat="43.92315" lon="11.09215"><ele>118.0</ele><time>2026-03-22T11:12:47.393Z</time></trkpt><trkpt lat="43.9230533" lon="11.09213"><ele>116.0</ele><time>2026-03-22T11:12:48.394Z</time></trkpt><trkpt lat="43.9229567" lon="11.0921117"><ele>114.0</ele><time>2026-03-22T11:12:49.393Z</time></trkpt><trkpt lat="43.922865" lon="11.092095"><ele>114.0</ele><time>2026-03-22T11:12:50.393Z</time></trkpt><trkpt lat="43.9227767" lon="11.0920733"><ele>114.0</ele><time>2026-03-22T11:12:51.393Z</time></trkpt><trkpt lat="43.9226883" lon="11.0920483"><ele>114.0</ele><time>2026-03-22T11:12:52.394Z</time></trkpt><trkpt lat="43.9226067" lon="11.0920117"><ele>114.0</ele><time>2026-03-22T11:12:53.394Z</time></trkpt><trkpt lat="43.92253" lon="11.09197"><ele>114.0</ele><time>2026-03-22T11:12:54.393Z</time></trkpt><trkpt lat="43.922455" lon="11.0919233"><ele>114.0</ele><time>2026-03-22T11:12:55.394Z</time></trkpt><trkpt lat="43.92238" lon="11.09187"><ele>113.33333333333333</ele><time>2026-03-22T11:12:56.394Z</time></trkpt><trkpt lat="43.92231" lon="11.0918083"><ele>112.66666666666666</ele><time>2026-03-22T11:12:57.393Z</time></trkpt><trkpt lat="43.92224" lon="11.0917633"><ele>112.0</ele><time>2026-03-22T11:12:58.393Z</time></trkpt><trkpt lat="43.9221667" lon="11.0917483"><ele>111.33333333333333</ele><time>2026-03-22T11:12:59.394Z</time></trkpt><trkpt lat="43.9220967" lon="11.0917567"><ele>110.66666666666666</ele><time>2026-03-22T11:13:00.394Z</time></trkpt><trkpt lat="43.92203" lon="11.09179"><ele>110.0</ele><time>2026-03-22T11:13:01.394Z</time></trkpt><trkpt lat="43.921955" lon="11.0918467"><ele>110.0</ele><time>2026-03-22T11:13:02.394Z</time></trkpt><trkpt lat="43.92188" lon="11.09191"><ele>110.0</ele><time>2026-03-22T11:13:03.393Z</time></trkpt><trkpt lat="43.9218" lon="11.0919817"><ele>110.0</ele><time>2026-03-22T11:13:04.393Z</time></trkpt><trkpt lat="43.9217133" lon="11.092055"><ele>110.0</ele><time>2026-03-22T11:13:05.393Z</time></trkpt><trkpt lat="43.92161" lon="11.0921367"><ele>110.0</ele><time>2026-03-22T11:13:06.394Z</time></trkpt><trkpt lat="43.9215017" lon="11.09222"><ele>109.75</ele><time>2026-03-22T11:13:07.394Z</time></trkpt><trkpt lat="43.9213867" lon="11.0923067"><ele>109.5</ele><time>2026-03-22T11:13:08.393Z</time></trkpt><trkpt lat="43.92128" lon="11.09239"><ele>109.25</ele><time>2026-03-22T11:13:09.394Z</time></trkpt><trkpt lat="43.9211733" lon="11.09247"><ele>109.0</ele><time>2026-03-22T11:13:10.393Z</time></trkpt><trkpt lat="43.9210667" lon="11.092545"><ele>108.5</ele><time>2026-03-22T11:13:11.394Z</time></trkpt><trkpt lat="43.92096" lon="11.0926233"><ele>108.0</ele><time>2026-03-22T11:13:12.393Z</time></trkpt><trkpt lat="43.920855" lon="11.0927017"><ele>107.5</ele><time>2026-03-22T11:13:13.393Z</time></trkpt><trkpt lat="43.92075" lon="11.09278"><ele>107.0</ele><time>2026-03-22T11:13:14.394Z</time></trkpt><trkpt lat="43.920645" lon="11.0928567"><ele>106.25</ele><time>2026-03-22T11:13:15.393Z</time></trkpt><trkpt lat="43.9205383" lon="11.0929367"><ele>105.5</ele><time>2026-03-22T11:13:16.393Z</time></trkpt><trkpt lat="43.9204317" lon="11.0930167"><ele>104.75</ele><time>2026-03-22T11:13:17.394Z</time></trkpt><trkpt lat="43.92032" lon="11.0930933"><ele>104.0</ele><time>2026-03-22T11:13:18.393Z</time></trkpt><trkpt lat="43.9202033" lon="11.0931483"><ele>104.0</ele><time>2026-03-22T11:13:19.393Z</time></trkpt><trkpt lat="43.9200817" lon="11.0932"><ele>104.0</ele><time>2026-03-22T11:13:20.394Z</time></trkpt><trkpt lat="43.91996" lon="11.093245"><ele>104.0</ele><time>2026-03-22T11:13:21.394Z</time></trkpt><trkpt lat="43.9198367" lon="11.0932867"><ele>104.0</ele><time>2026-03-22T11:13:22.393Z</time></trkpt><trkpt lat="43.9197183" lon="11.0933383"><ele>103.25</ele><time>2026-03-22T11:13:23.393Z</time></trkpt><trkpt lat="43.9196017" lon="11.0934083"><ele>102.5</ele><time>2026-03-22T11:13:24.393Z</time></trkpt><trkpt lat="43.91949" lon="11.0934867"><ele>101.75</ele><time>2026-03-22T11:13:25.393Z</time></trkpt><trkpt lat="43.919385" lon="11.0935767"><ele>101.0</ele><time>2026-03-22T11:13:26.394Z</time></trkpt><trkpt lat="43.9192783" lon="11.09367"><ele>100.75</ele><time>2026-03-22T11:13:27.393Z</time></trkpt><trkpt lat="43.919175" lon="11.093765"><ele>100.5</ele><time>2026-03-22T11:13:28.393Z</time></trkpt><trkpt lat="43.9190683" lon="11.0938583"><ele>100.25</ele><time>2026-03-22T11:13:29.393Z</time></trkpt><trkpt lat="43.918955" lon="11.093945"><ele>100.0</ele><time>2026-03-22T11:13:30.394Z</time></trkpt><trkpt lat="43.91884" lon="11.0940267"><ele>99.25</ele><time>2026-03-22T11:13:31.393Z</time></trkpt><trkpt lat="43.9187217" lon="11.094105"><ele>98.5</ele><time>2026-03-22T11:13:32.393Z</time></trkpt><trkpt lat="43.9186033" lon="11.0941867"><ele>97.75</ele><time>2026-03-22T11:13:33.393Z</time></trkpt><trkpt lat="43.9184883" lon="11.0942683"><ele>97.0</ele><time>2026-03-22T11:13:34.394Z</time></trkpt><trkpt lat="43.9183733" lon="11.0943483"><ele>97.0</ele><time>2026-03-22T11:13:35.393Z</time></trkpt><trkpt lat="43.91826" lon="11.0944333"><ele>97.0</ele><time>2026-03-22T11:13:36.393Z</time></trkpt><trkpt lat="43.91815" lon="11.0945133"><ele>97.0</ele><time>2026-03-22T11:13:37.393Z</time></trkpt><trkpt lat="43.91804" lon="11.09459"><ele>97.0</ele><time>2026-03-22T11:13:38.393Z</time></trkpt><trkpt lat="43.9179283" lon="11.0946633"><ele>97.0</ele><time>2026-03-22T11:13:39.393Z</time></trkpt><trkpt lat="43.9178133" lon="11.094725"><ele>97.0</ele><time>2026-03-22T11:13:40.393Z</time></trkpt><trkpt lat="43.9177017" lon="11.0947883"><ele>97.0</ele><time>2026-03-22T11:13:41.393Z</time></trkpt><trkpt lat="43.9175967" lon="11.0948433"><ele>97.0</ele><time>2026-03-22T11:13:42.394Z</time></trkpt><trkpt lat="43.91749" lon="11.0948933"><ele>96.19999999999999</ele><time>2026-03-22T11:13:43.393Z</time></trkpt><trkpt lat="43.91739" lon="11.09494"><ele>95.4</ele><time>2026-03-22T11:13:44.393Z</time></trkpt><trkpt lat="43.9172867" lon="11.0949867"><ele>94.6</ele><time>2026-03-22T11:13:45.394Z</time></trkpt><trkpt lat="43.9171783" lon="11.095025"><ele>93.80000000000001</ele><time>2026-03-22T11:13:46.394Z</time></trkpt><trkpt lat="43.91707" lon="11.09506"><ele>93.0</ele><time>2026-03-22T11:13:47.393Z</time></trkpt><trkpt lat="43.9169567" lon="11.0950967"><ele>93.0</ele><time>2026-03-22T11:13:48.394Z</time></trkpt><trkpt lat="43.9168433" lon="11.0951367"><ele>93.0</ele><time>2026-03-22T11:13:49.393Z</time></trkpt><trkpt lat="43.91673" lon="11.095175"><ele>93.0</ele><time>2026-03-22T11:13:50.393Z</time></trkpt><trkpt lat="43.9166183" lon="11.0952017"><ele>93.0</ele><time>2026-03-22T11:13:51.394Z</time></trkpt><trkpt lat="43.91651" lon="11.0952133"><ele>93.0</ele><time>2026-03-22T11:13:52.393Z</time></trkpt><trkpt lat="43.9164083" lon="11.0952083"><ele>93.0</ele><time>2026-03-22T11:13:53.394Z</time></trkpt><trkpt lat="43.9163133" lon="11.0952083"><ele>93.0</ele><time>2026-03-22T11:13:54.394Z</time></trkpt><trkpt lat="43.916235" lon="11.095225"><ele>93.0</ele><time>2026-03-22T11:13:55.393Z</time></trkpt><trkpt lat="43.9161733" lon="11.0952517"><ele>93.0</ele><time>2026-03-22T11:13:56.393Z</time></trkpt><trkpt lat="43.9161033" lon="11.095325"><ele>93.0</ele><time>2026-03-22T11:13:58.393Z</time></trkpt><trkpt lat="43.91618" lon="11.0955483"><ele>93.0</ele><time>2026-03-22T11:14:57.394Z</time></trkpt><trkpt lat="43.9162017" lon="11.0956433"><ele>93.0</ele><time>2026-03-22T11:14:58.392Z</time></trkpt><trkpt lat="43.916215" lon="11.095745"><ele>93.0</ele><time>2026-03-22T11:14:59.393Z</time></trkpt><trkpt lat="43.9162183" lon="11.0958567"><ele>93.0</ele><time>2026-03-22T11:15:00.393Z</time></trkpt><trkpt lat="43.916205" lon="11.09597"><ele>93.0</ele><time>2026-03-22T11:15:01.393Z</time></trkpt><trkpt lat="43.9161717" lon="11.0960883"><ele>93.0</ele><time>2026-03-22T11:15:02.392Z</time></trkpt><trkpt lat="43.9161133" lon="11.096205"><ele>93.25</ele><time>2026-03-22T11:15:03.393Z</time></trkpt><trkpt lat="43.9160467" lon="11.09633"><ele>93.5</ele><time>2026-03-22T11:15:04.393Z</time></trkpt><trkpt lat="43.9159767" lon="11.0964533"><ele>93.75</ele><time>2026-03-22T11:15:05.393Z</time></trkpt><trkpt lat="43.9159017" lon="11.09658"><ele>94.0</ele><time>2026-03-22T11:15:06.394Z</time></trkpt><trkpt lat="43.9158267" lon="11.096705"><ele>93.5</ele><time>2026-03-22T11:15:07.394Z</time></trkpt><trkpt lat="43.9157517" lon="11.0968417"><ele>93.0</ele><time>2026-03-22T11:15:08.393Z</time></trkpt><trkpt lat="43.9156783" lon="11.0969717"><ele>92.5</ele><time>2026-03-22T11:15:09.392Z</time></trkpt><trkpt lat="43.91561" lon="11.097105"><ele>92.0</ele><time>2026-03-22T11:15:10.393Z</time></trkpt><trkpt lat="43.91555" lon="11.0972417"><ele>92.0</ele><time>2026-03-22T11:15:11.393Z</time></trkpt><trkpt lat="43.9155033" lon="11.0973733"><ele>92.0</ele><time>2026-03-22T11:15:12.393Z</time></trkpt><trkpt lat="43.915465" lon="11.09749"><ele>92.0</ele><time>2026-03-22T11:15:13.393Z</time></trkpt><trkpt lat="43.9154267" lon="11.0975917"><ele>92.0</ele><time>2026-03-22T11:15:14.392Z</time></trkpt><trkpt lat="43.9153817" lon="11.097675"><ele>92.0</ele><time>2026-03-22T11:15:15.393Z</time></trkpt><trkpt lat="43.9153267" lon="11.0977183"><ele>92.0</ele><time>2026-03-22T11:15:16.392Z</time></trkpt><trkpt lat="43.9152517" lon="11.0977367"><ele>92.33333333333334</ele><time>2026-03-22T11:15:17.393Z</time></trkpt><trkpt lat="43.9151633" lon="11.0977283"><ele>92.66666666666667</ele><time>2026-03-22T11:15:18.392Z</time></trkpt><trkpt lat="43.9150717" lon="11.0977283"><ele>93.0</ele><time>2026-03-22T11:15:19.392Z</time></trkpt><trkpt lat="43.91498" lon="11.0977383"><ele>93.33333333333333</ele><time>2026-03-22T11:15:20.392Z</time></trkpt><trkpt lat="43.914895" lon="11.0977633"><ele>93.66666666666666</ele><time>2026-03-22T11:15:21.393Z</time></trkpt><trkpt lat="43.9148233" lon="11.097795"><ele>94.0</ele><time>2026-03-22T11:15:22.393Z</time></trkpt><trkpt lat="43.914755" lon="11.09783"><ele>93.16666666666666</ele><time>2026-03-22T11:15:23.392Z</time></trkpt><trkpt lat="43.9146383" lon="11.0978917"><ele>92.33333333333333</ele><time>2026-03-22T11:15:25.393Z</time></trkpt><trkpt lat="43.91458" lon="11.0979317"><ele>91.5</ele><time>2026-03-22T11:15:26.394Z</time></trkpt><trkpt lat="43.914475" lon="11.0979683"><ele>90.66666666666667</ele><time>2026-03-22T11:15:28.393Z</time></trkpt><trkpt lat="43.9144133" lon="11.0978883"><ele>89.83333333333334</ele><time>2026-03-22T11:15:30.394Z</time></trkpt><trkpt lat="43.9144033" lon="11.0978017"><ele>89.0</ele><time>2026-03-22T11:15:31.393Z</time></trkpt><trkpt lat="43.91439" lon="11.09769"><ele>89.0</ele><time>2026-03-22T11:15:32.393Z</time></trkpt><trkpt lat="43.9143733" lon="11.0975667"><ele>89.0</ele><time>2026-03-22T11:15:33.393Z</time></trkpt><trkpt lat="43.91435" lon="11.0974433"><ele>89.0</ele><time>2026-03-22T11:15:34.393Z</time></trkpt><trkpt lat="43.9143233" lon="11.09733"><ele>89.0</ele><time>2026-03-22T11:15:35.393Z</time></trkpt><trkpt lat="43.914295" lon="11.0972267"><ele>89.0</ele><time>2026-03-22T11:15:36.393Z</time></trkpt><trkpt lat="43.9142683" lon="11.0971333"><ele>89.0</ele><time>2026-03-22T11:15:37.394Z</time></trkpt><trkpt lat="43.9142417" lon="11.0970517"><ele>89.80000000000001</ele><time>2026-03-22T11:15:38.394Z</time></trkpt><trkpt lat="43.9141817" lon="11.0969383"><ele>90.60000000000001</ele><time>2026-03-22T11:15:40.393Z</time></trkpt><trkpt lat="43.9140967" lon="11.09686"><ele>91.4</ele><time>2026-03-22T11:15:42.394Z</time></trkpt><trkpt lat="43.9139767" lon="11.0968017"><ele>92.2</ele><time>2026-03-22T11:15:44.393Z</time></trkpt><trkpt lat="43.9139183" lon="11.0967633"><ele>93.0</ele><time>2026-03-22T11:15:45.393Z</time></trkpt><trkpt lat="43.9138517" lon="11.096735"><ele>93.0</ele><time>2026-03-22T11:15:46.394Z</time></trkpt><trkpt lat="43.9137783" lon="11.0967233"><ele>93.0</ele><time>2026-03-22T11:15:47.394Z</time></trkpt><trkpt lat="43.9136917" lon="11.096715"><ele>93.0</ele><time>2026-03-22T11:15:48.393Z</time></trkpt><trkpt lat="43.9136183" lon="11.0966917"><ele>93.0</ele><time>2026-03-22T11:15:49.394Z</time></trkpt><trkpt lat="43.913545" lon="11.0966467"><ele>93.0</ele><time>2026-03-22T11:15:50.394Z</time></trkpt><trkpt lat="43.913485" lon="11.0965967"><ele>93.0</ele><time>2026-03-22T11:15:51.393Z</time></trkpt><trkpt lat="43.9134183" lon="11.09654"><ele>92.83333333333333</ele><time>2026-03-22T11:15:52.394Z</time></trkpt><trkpt lat="43.9133417" lon="11.09648"><ele>92.66666666666667</ele><time>2026-03-22T11:15:53.393Z</time></trkpt><trkpt lat="43.9132633" lon="11.0964233"><ele>92.5</ele><time>2026-03-22T11:15:54.393Z</time></trkpt><trkpt lat="43.91319" lon="11.0963467"><ele>92.33333333333334</ele><time>2026-03-22T11:15:55.394Z</time></trkpt><trkpt lat="43.913125" lon="11.09627"><ele>92.16666666666667</ele><time>2026-03-22T11:15:56.394Z</time></trkpt><trkpt lat="43.9130517" lon="11.0962067"><ele>92.0</ele><time>2026-03-22T11:15:57.394Z</time></trkpt><trkpt lat="43.9129683" lon="11.0961467"><ele>92.0</ele><time>2026-03-22T11:15:58.394Z</time></trkpt><trkpt lat="43.9128683" lon="11.0961167"><ele>92.0</ele><time>2026-03-22T11:15:59.393Z</time></trkpt><trkpt lat="43.9127733" lon="11.0961017"><ele>92.0</ele><time>2026-03-22T11:16:00.394Z</time></trkpt><trkpt lat="43.91268" lon="11.0960933"><ele>92.0</ele><time>2026-03-22T11:16:01.393Z</time></trkpt><trkpt lat="43.9126017" lon="11.0960883"><ele>92.0</ele><time>2026-03-22T11:16:02.394Z</time></trkpt><trkpt lat="43.9124783" lon="11.0961483"><ele>92.5</ele><time>2026-03-22T11:16:04.393Z</time></trkpt><trkpt lat="43.9124117" lon="11.09621"><ele>93.0</ele><time>2026-03-22T11:16:05.393Z</time></trkpt><trkpt lat="43.9123367" lon="11.09627"><ele>93.5</ele><time>2026-03-22T11:16:06.393Z</time></trkpt><trkpt lat="43.9122633" lon="11.0963367"><ele>94.0</ele><time>2026-03-22T11:16:07.393Z</time></trkpt><trkpt lat="43.9121833" lon="11.0964083"><ele>94.5</ele><time>2026-03-22T11:16:08.394Z</time></trkpt><trkpt lat="43.9121083" lon="11.0964783"><ele>95.0</ele><time>2026-03-22T11:16:09.394Z</time></trkpt><trkpt lat="43.9120367" lon="11.0965567"><ele>98.2</ele><time>2026-03-22T11:16:10.394Z</time></trkpt><trkpt lat="43.9119617" lon="11.0966367"><ele>101.4</ele><time>2026-03-22T11:16:11.393Z</time></trkpt><trkpt lat="43.91189" lon="11.09671"><ele>104.6</ele><time>2026-03-22T11:16:12.393Z</time></trkpt><trkpt lat="43.9118283" lon="11.09679"><ele>107.8</ele><time>2026-03-22T11:16:13.394Z</time></trkpt><trkpt lat="43.91179" lon="11.0968717"><ele>111.0</ele><time>2026-03-22T11:16:14.394Z</time></trkpt><trkpt lat="43.9118083" lon="11.0970367"><ele>111.0</ele><time>2026-03-22T11:16:16.394Z</time></trkpt><trkpt lat="43.911865" lon="11.0970967"><ele>111.0</ele><time>2026-03-22T11:16:17.394Z</time></trkpt><trkpt lat="43.9119417" lon="11.0971517"><ele>111.0</ele><time>2026-03-22T11:16:18.394Z</time></trkpt><trkpt lat="43.912025" lon="11.0972"><ele>111.0</ele><time>2026-03-22T11:16:19.394Z</time></trkpt><trkpt lat="43.9120883" lon="11.0972517"><ele>111.0</ele><time>2026-03-22T11:16:20.394Z</time></trkpt><trkpt lat="43.9121467" lon="11.0973117"><ele>111.0</ele><time>2026-03-22T11:16:21.393Z</time></trkpt><trkpt lat="43.9121967" lon="11.0973833"><ele>114.8</ele><time>2026-03-22T11:16:22.393Z</time></trkpt><trkpt lat="43.9122367" lon="11.0974567"><ele>118.6</ele><time>2026-03-22T11:16:23.393Z</time></trkpt><trkpt lat="43.9121633" lon="11.0975683"><ele>122.4</ele><time>2026-03-22T11:16:25.393Z</time></trkpt><trkpt lat="43.9120417" lon="11.0976133"><ele>126.2</ele><time>2026-03-22T11:16:27.394Z</time></trkpt><trkpt lat="43.9119533" lon="11.0975867"><ele>130.0</ele><time>2026-03-22T11:16:28.393Z</time></trkpt><trkpt lat="43.91185" lon="11.0975467"><ele>130.0</ele><time>2026-03-22T11:16:29.394Z</time></trkpt><trkpt lat="43.9117483" lon="11.0975183"><ele>130.0</ele><time>2026-03-22T11:16:30.394Z</time></trkpt><trkpt lat="43.91163" lon="11.0975017"><ele>130.0</ele><time>2026-03-22T11:16:31.393Z</time></trkpt><trkpt lat="43.9115133" lon="11.097495"><ele>130.0</ele><time>2026-03-22T11:16:32.393Z</time></trkpt><trkpt lat="43.9114133" lon="11.0975133"><ele>130.0</ele><time>2026-03-22T11:16:33.393Z</time></trkpt><trkpt lat="43.9113117" lon="11.09756"><ele>130.0</ele><time>2026-03-22T11:16:34.393Z</time></trkpt><trkpt lat="43.9112133" lon="11.09761"><ele>130.0</ele><time>2026-03-22T11:16:35.393Z</time></trkpt><trkpt lat="43.9111217" lon="11.0976767"><ele>130.0</ele><time>2026-03-22T11:16:36.393Z</time></trkpt><trkpt lat="43.9110233" lon="11.0977467"><ele>130.0</ele><time>2026-03-22T11:16:37.393Z</time></trkpt><trkpt lat="43.9109317" lon="11.0978183"><ele>130.0</ele><time>2026-03-22T11:16:38.393Z</time></trkpt><trkpt lat="43.9108467" lon="11.0978933"><ele>130.0</ele><time>2026-03-22T11:16:39.393Z</time></trkpt><trkpt lat="43.91075" lon="11.097935"><ele>130.0</ele><time>2026-03-22T11:16:40.394Z</time></trkpt><trkpt lat="43.910645" lon="11.097965"><ele>130.0</ele><time>2026-03-22T11:16:41.394Z</time></trkpt><trkpt lat="43.9105433" lon="11.0979983"><ele>130.0</ele><time>2026-03-22T11:16:42.393Z</time></trkpt><trkpt lat="43.9104483" lon="11.09801"><ele>130.0</ele><time>2026-03-22T11:16:43.393Z</time></trkpt><trkpt lat="43.9103583" lon="11.0980317"><ele>130.0</ele><time>2026-03-22T11:16:44.394Z</time></trkpt><trkpt lat="43.9102683" lon="11.0980567"><ele>130.0</ele><time>2026-03-22T11:16:45.393Z</time></trkpt><trkpt lat="43.9102" lon="11.0981017"><ele>130.0</ele><time>2026-03-22T11:16:46.393Z</time></trkpt><trkpt lat="43.9101267" lon="11.0981333"><ele>130.0</ele><time>2026-03-22T11:16:47.394Z</time></trkpt><trkpt lat="43.91005" lon="11.0981517"><ele>130.0</ele><time>2026-03-22T11:16:48.393Z</time></trkpt><trkpt lat="43.909985" lon="11.0981683"><ele>130.0</ele><time>2026-03-22T11:16:49.394Z</time></trkpt><trkpt lat="43.9098783" lon="11.0982667"><ele>131.4</ele><time>2026-03-22T11:16:51.394Z</time></trkpt><trkpt lat="43.909855" lon="11.09836"><ele>132.8</ele><time>2026-03-22T11:16:52.393Z</time></trkpt><trkpt lat="43.9098317" lon="11.0984767"><ele>134.2</ele><time>2026-03-22T11:16:53.393Z</time></trkpt><trkpt lat="43.9098067" lon="11.0986117"><ele>135.6</ele><time>2026-03-22T11:16:54.393Z</time></trkpt><trkpt lat="43.9097783" lon="11.0987467"><ele>137.0</ele><time>2026-03-22T11:16:55.393Z</time></trkpt><trkpt lat="43.9097483" lon="11.098885"><ele>137.0</ele><time>2026-03-22T11:16:56.394Z</time></trkpt><trkpt lat="43.9097167" lon="11.0990217"><ele>137.0</ele><time>2026-03-22T11:16:57.393Z</time></trkpt><trkpt lat="43.9096833" lon="11.0991567"><ele>137.0</ele><time>2026-03-22T11:16:58.394Z</time></trkpt><trkpt lat="43.909655" lon="11.0992683"><ele>137.0</ele><time>2026-03-22T11:16:59.393Z</time></trkpt><trkpt lat="43.9096333" lon="11.0993633"><ele>137.0</ele><time>2026-03-22T11:17:00.394Z</time></trkpt><trkpt lat="43.9096317" lon="11.0994967"><ele>138.2</ele><time>2026-03-22T11:17:02.394Z</time></trkpt><trkpt lat="43.909705" lon="11.0995867"><ele>139.39999999999998</ele><time>2026-03-22T11:17:04.394Z</time></trkpt><trkpt lat="43.90982" lon="11.0996233"><ele>140.60000000000002</ele><time>2026-03-22T11:17:06.394Z</time></trkpt><trkpt lat="43.9099267" lon="11.0997133"><ele>141.8</ele><time>2026-03-22T11:17:08.394Z</time></trkpt><trkpt lat="43.9099767" lon="11.099795"><ele>143.0</ele><time>2026-03-22T11:17:09.394Z</time></trkpt><trkpt lat="43.91003" lon="11.09988"><ele>142.83333333333331</ele><time>2026-03-22T11:17:10.394Z</time></trkpt><trkpt lat="43.9100667" lon="11.0999783"><ele>142.66666666666666</ele><time>2026-03-22T11:17:11.393Z</time></trkpt><trkpt lat="43.9100917" lon="11.1000833"><ele>142.5</ele><time>2026-03-22T11:17:12.393Z</time></trkpt><trkpt lat="43.9101267" lon="11.1002017"><ele>142.33333333333334</ele><time>2026-03-22T11:17:13.393Z</time></trkpt><trkpt lat="43.91015" lon="11.1003317"><ele>142.16666666666669</ele><time>2026-03-22T11:17:14.394Z</time></trkpt><trkpt lat="43.9101583" lon="11.1004717"><ele>142.0</ele><time>2026-03-22T11:17:15.393Z</time></trkpt><trkpt lat="43.9101567" lon="11.1006117"><ele>141.83333333333334</ele><time>2026-03-22T11:17:16.394Z</time></trkpt><trkpt lat="43.91015" lon="11.10074"><ele>141.66666666666669</ele><time>2026-03-22T11:17:17.393Z</time></trkpt><trkpt lat="43.9101383" lon="11.100865"><ele>141.5</ele><time>2026-03-22T11:17:18.393Z</time></trkpt><trkpt lat="43.910115" lon="11.1009867"><ele>141.33333333333334</ele><time>2026-03-22T11:17:19.393Z</time></trkpt><trkpt lat="43.91009" lon="11.1011033"><ele>141.16666666666666</ele><time>2026-03-22T11:17:20.394Z</time></trkpt><trkpt lat="43.9100783" lon="11.1012133"><ele>141.0</ele><time>2026-03-22T11:17:21.393Z</time></trkpt><trkpt lat="43.9100717" lon="11.10131"><ele>144.83333333333334</ele><time>2026-03-22T11:17:22.394Z</time></trkpt><trkpt lat="43.9100783" lon="11.1014683"><ele>148.66666666666666</ele><time>2026-03-22T11:17:24.394Z</time></trkpt><trkpt lat="43.9101217" lon="11.1016117"><ele>152.5</ele><time>2026-03-22T11:17:26.394Z</time></trkpt><trkpt lat="43.9101583" lon="11.1016933"><ele>156.33333333333331</ele><time>2026-03-22T11:17:27.394Z</time></trkpt><trkpt lat="43.91019" lon="11.1017733"><ele>160.16666666666666</ele><time>2026-03-22T11:17:28.394Z</time></trkpt><trkpt lat="43.910215" lon="11.1018633"><ele>164.0</ele><time>2026-03-22T11:17:29.393Z</time></trkpt><trkpt lat="43.9102317" lon="11.1019517"><ele>163.99999999999997</ele><time>2026-03-22T11:17:30.394Z</time></trkpt><trkpt lat="43.9102367" lon="11.102055"><ele>164.0</ele><time>2026-03-22T11:17:31.394Z</time></trkpt><trkpt lat="43.9102367" lon="11.1021633"><ele>164.0</ele><time>2026-03-22T11:17:32.394Z</time></trkpt><trkpt lat="43.910245" lon="11.1022617"><ele>164.0</ele><time>2026-03-22T11:17:33.394Z</time></trkpt><trkpt lat="43.91027" lon="11.1023583"><ele>164.0</ele><time>2026-03-22T11:17:34.393Z</time></trkpt><trkpt lat="43.910295" lon="11.1024483"><ele>163.99999999999997</ele><time>2026-03-22T11:17:35.393Z</time></trkpt><trkpt lat="43.91031" lon="11.1025367"><ele>164.0</ele><time>2026-03-22T11:17:37.394Z</time></trkpt><trkpt lat="43.910245" lon="11.102585"><ele>162.33333333333331</ele><time>2026-03-22T11:17:41.394Z</time></trkpt><trkpt lat="43.9101633" lon="11.10258"><ele>160.66666666666666</ele><time>2026-03-22T11:17:44.393Z</time></trkpt><trkpt lat="43.9100917" lon="11.1025783"><ele>159.0</ele><time>2026-03-22T11:17:47.393Z</time></trkpt><trkpt lat="43.9100117" lon="11.102565"><ele>157.33333333333334</ele><time>2026-03-22T11:17:50.393Z</time></trkpt><trkpt lat="43.9099233" lon="11.1025783"><ele>155.66666666666669</ele><time>2026-03-22T11:17:53.393Z</time></trkpt><trkpt lat="43.909855" lon="11.1025883"><ele>154.0</ele><time>2026-03-22T11:17:55.394Z</time></trkpt><trkpt lat="43.909775" lon="11.10258"><ele>150.83333333333334</ele><time>2026-03-22T11:17:58.394Z</time></trkpt><trkpt lat="43.9096867" lon="11.102565"><ele>147.66666666666669</ele><time>2026-03-22T11:18:01.394Z</time></trkpt><trkpt lat="43.90962" lon="11.10258"><ele>144.5</ele><time>2026-03-22T11:18:05.394Z</time></trkpt><trkpt lat="43.9096533" lon="11.10268"><ele>141.33333333333334</ele><time>2026-03-22T11:19:27.393Z</time></trkpt><trkpt lat="43.9097617" lon="11.10277"><ele>138.16666666666666</ele><time>2026-03-22T11:19:29.393Z</time></trkpt><trkpt lat="43.9098283" lon="11.1028217"><ele>135.0</ele><time>2026-03-22T11:19:30.394Z</time></trkpt><trkpt lat="43.9099467" lon="11.1029"><ele>135.0</ele><time>2026-03-22T11:19:32.393Z</time></trkpt><trkpt lat="43.91001" lon="11.1029383"><ele>135.0</ele><time>2026-03-22T11:19:33.393Z</time></trkpt><trkpt lat="43.910125" lon="11.102995"><ele>135.0</ele><time>2026-03-22T11:19:35.393Z</time></trkpt><trkpt lat="43.9102333" lon="11.1030567"><ele>135.0</ele><time>2026-03-22T11:19:37.393Z</time></trkpt><trkpt lat="43.9103217" lon="11.1030883"><ele>135.0</ele><time>2026-03-22T11:19:39.393Z</time></trkpt><trkpt lat="43.9103883" lon="11.1031267"><ele>137.0</ele><time>2026-03-22T11:19:40.394Z</time></trkpt><trkpt lat="43.9104367" lon="11.10319"><ele>139.0</ele><time>2026-03-22T11:19:42.393Z</time></trkpt><trkpt lat="43.9103983" lon="11.10331"><ele>141.0</ele><time>2026-03-22T11:19:44.394Z</time></trkpt><trkpt lat="43.9104133" lon="11.103395"><ele>143.0</ele><time>2026-03-22T11:19:46.393Z</time></trkpt><trkpt lat="43.9104" lon="11.1035433"><ele>145.0</ele><time>2026-03-22T11:19:56.394Z</time></trkpt><trkpt lat="43.9103267" lon="11.1035867"><ele>147.0</ele><time>2026-03-22T11:19:58.394Z</time></trkpt><trkpt lat="43.91024" lon="11.1036367"><ele>147.0</ele><time>2026-03-22T11:20:00.394Z</time></trkpt><trkpt lat="43.9101317" lon="11.1036967"><ele>147.0</ele><time>2026-03-22T11:20:02.394Z</time></trkpt><trkpt lat="43.9100417" lon="11.10376"><ele>147.0</ele><time>2026-03-22T11:20:04.393Z</time></trkpt><trkpt lat="43.90997" lon="11.10386"><ele>147.0</ele><time>2026-03-22T11:20:06.394Z</time></trkpt><trkpt lat="43.9099283" lon="11.103945"><ele>147.0</ele><time>2026-03-22T11:20:07.393Z</time></trkpt><trkpt lat="43.9098983" lon="11.10403"><ele>145.0</ele><time>2026-03-22T11:20:08.394Z</time></trkpt><trkpt lat="43.9098533" lon="11.1041917"><ele>143.0</ele><time>2026-03-22T11:20:10.393Z</time></trkpt><trkpt lat="43.9098067" lon="11.10429"><ele>141.0</ele><time>2026-03-22T11:20:12.394Z</time></trkpt><trkpt lat="43.9097683" lon="11.1043733"><ele>139.0</ele><time>2026-03-22T11:20:14.394Z</time></trkpt><trkpt lat="43.9097383" lon="11.10446"><ele>137.0</ele><time>2026-03-22T11:20:16.394Z</time></trkpt><trkpt lat="43.9096867" lon="11.1045467"><ele>135.0</ele><time>2026-03-22T11:20:18.394Z</time></trkpt><trkpt lat="43.90959" lon="11.1046217"><ele>135.0</ele><time>2026-03-22T11:20:20.393Z</time></trkpt><trkpt lat="43.90947" lon="11.1046417"><ele>135.0</ele><time>2026-03-22T11:20:22.393Z</time></trkpt><trkpt lat="43.9093717" lon="11.10463"><ele>135.0</ele><time>2026-03-22T11:20:24.394Z</time></trkpt><trkpt lat="43.9092583" lon="11.104615"><ele>135.0</ele><time>2026-03-22T11:20:26.394Z</time></trkpt><trkpt lat="43.9091933" lon="11.1045983"><ele>135.0</ele><time>2026-03-22T11:20:27.394Z</time></trkpt><trkpt lat="43.9091317" lon="11.104575"><ele>134.16666666666666</ele><time>2026-03-22T11:20:28.393Z</time></trkpt><trkpt lat="43.9090683" lon="11.104555"><ele>133.33333333333334</ele><time>2026-03-22T11:20:29.393Z</time></trkpt><trkpt lat="43.9089583" lon="11.1045033"><ele>132.5</ele><time>2026-03-22T11:20:31.393Z</time></trkpt><trkpt lat="43.9088533" lon="11.1044467"><ele>131.66666666666669</ele><time>2026-03-22T11:20:33.392Z</time></trkpt><trkpt lat="43.908785" lon="11.1044067"><ele>130.83333333333334</ele><time>2026-03-22T11:20:34.392Z</time></trkpt><trkpt lat="43.908725" lon="11.1043533"><ele>130.0</ele><time>2026-03-22T11:20:35.392Z</time></trkpt><trkpt lat="43.9086717" lon="11.1043017"><ele>130.0</ele><time>2026-03-22T11:20:36.392Z</time></trkpt><trkpt lat="43.9086183" lon="11.1042433"><ele>130.0</ele><time>2026-03-22T11:20:37.393Z</time></trkpt><trkpt lat="43.9085517" lon="11.10419"><ele>130.0</ele><time>2026-03-22T11:20:38.394Z</time></trkpt><trkpt lat="43.9084883" lon="11.1041217"><ele>130.0</ele><time>2026-03-22T11:20:39.392Z</time></trkpt><trkpt lat="43.90842" lon="11.10406"><ele>130.0</ele><time>2026-03-22T11:20:40.392Z</time></trkpt><trkpt lat="43.908365" lon="11.1039983"><ele>130.0</ele><time>2026-03-22T11:20:41.392Z</time></trkpt><trkpt lat="43.9083033" lon="11.1039083"><ele>128.4</ele><time>2026-03-22T11:20:43.393Z</time></trkpt><trkpt lat="43.9082417" lon="11.1038217"><ele>126.8</ele><time>2026-03-22T11:20:45.392Z</time></trkpt><trkpt lat="43.9081833" lon="11.1037683"><ele>125.19999999999999</ele><time>2026-03-22T11:20:47.392Z</time></trkpt><trkpt lat="43.9081167" lon="11.1036933"><ele>123.6</ele><time>2026-03-22T11:20:49.392Z</time></trkpt><trkpt lat="43.90803" lon="11.1035867"><ele>122.0</ele><time>2026-03-22T11:20:51.393Z</time></trkpt><trkpt lat="43.90796" lon="11.103505"><ele>122.0</ele><time>2026-03-22T11:20:53.393Z</time></trkpt><trkpt lat="43.9078433" lon="11.1033683"><ele>121.99999999999999</ele><time>2026-03-22T11:21:09.394Z</time></trkpt><trkpt lat="43.9077317" lon="11.1033867"><ele>121.99999999999999</ele><time>2026-03-22T11:21:13.394Z</time></trkpt><trkpt lat="43.9076617" lon="11.1034083"><ele>122.0</ele><time>2026-03-22T11:21:15.394Z</time></trkpt><trkpt lat="43.9076083" lon="11.1034783"><ele>122.0</ele><time>2026-03-22T11:21:17.393Z</time></trkpt><trkpt lat="43.90757" lon="11.1035783"><ele>121.99999999999999</ele><time>2026-03-22T11:21:19.394Z</time></trkpt><trkpt lat="43.9075667" lon="11.1036967"><ele>122.0</ele><time>2026-03-22T11:21:22.393Z</time></trkpt><trkpt lat="43.90761" lon="11.1037967"><ele>122.0</ele><time>2026-03-22T11:21:24.394Z</time></trkpt><trkpt lat="43.90765" lon="11.1038833"><ele>122.0</ele><time>2026-03-22T11:21:26.393Z</time></trkpt><trkpt lat="43.9076733" lon="11.1039717"><ele>121.99999999999999</ele><time>2026-03-22T11:21:28.393Z</time></trkpt><trkpt lat="43.9076967" lon="11.1040667"><ele>122.0</ele><time>2026-03-22T11:21:30.394Z</time></trkpt><trkpt lat="43.9076433" lon="11.1041233"><ele>124.49999999999999</ele><time>2026-03-22T11:21:32.394Z</time></trkpt><trkpt lat="43.9075733" lon="11.1041517"><ele>127.0</ele><time>2026-03-22T11:21:34.394Z</time></trkpt><trkpt lat="43.9074883" lon="11.1041683"><ele>129.5</ele><time>2026-03-22T11:21:37.393Z</time></trkpt><trkpt lat="43.9074167" lon="11.1042"><ele>132.0</ele><time>2026-03-22T11:21:40.393Z</time></trkpt><trkpt lat="43.9073667" lon="11.1042667"><ele>134.5</ele><time>2026-03-22T11:21:43.394Z</time></trkpt><trkpt lat="43.9073383" lon="11.1043933"><ele>137.0</ele><time>2026-03-22T11:23:25.393Z</time></trkpt><trkpt lat="43.9073633" lon="11.1045683"><ele>137.0</ele><time>2026-03-22T11:23:28.394Z</time></trkpt><trkpt lat="43.9073817" lon="11.1046783"><ele>137.0</ele><time>2026-03-22T11:23:29.393Z</time></trkpt><trkpt lat="43.9074133" lon="11.1047967"><ele>137.0</ele><time>2026-03-22T11:23:30.394Z</time></trkpt><trkpt lat="43.9074433" lon="11.1049233"><ele>137.0</ele><time>2026-03-22T11:23:31.393Z</time></trkpt><trkpt lat="43.9074683" lon="11.10505"><ele>137.0</ele><time>2026-03-22T11:23:32.393Z</time></trkpt><trkpt lat="43.9075017" lon="11.1051633"><ele>136.0</ele><time>2026-03-22T11:23:33.394Z</time></trkpt><trkpt lat="43.9075317" lon="11.10527"><ele>135.0</ele><time>2026-03-22T11:23:34.393Z</time></trkpt><trkpt lat="43.90757" lon="11.1053667"><ele>134.0</ele><time>2026-03-22T11:23:35.393Z</time></trkpt><trkpt lat="43.907615" lon="11.10545"><ele>133.0</ele><time>2026-03-22T11:23:36.393Z</time></trkpt><trkpt lat="43.90765" lon="11.1055333"><ele>132.0</ele><time>2026-03-22T11:23:37.393Z</time></trkpt><trkpt lat="43.9076683" lon="11.1056767"><ele>131.0</ele><time>2026-03-22T11:23:39.393Z</time></trkpt><trkpt lat="43.9075617" lon="11.10575"><ele>131.0</ele><time>2026-03-22T11:23:41.394Z</time></trkpt><trkpt lat="43.90746" lon="11.1057383"><ele>131.0</ele><time>2026-03-22T11:23:42.394Z</time></trkpt><trkpt lat="43.9073583" lon="11.1057383"><ele>131.0</ele><time>2026-03-22T11:23:44.394Z</time></trkpt><trkpt lat="43.907325" lon="11.1058233"><ele>131.0</ele><time>2026-03-22T11:23:47.394Z</time></trkpt><trkpt lat="43.9073783" lon="11.1059033"><ele>131.0</ele><time>2026-03-22T11:23:49.393Z</time></trkpt><trkpt lat="43.9074567" lon="11.1059383"><ele>131.0</ele><time>2026-03-22T11:23:50.393Z</time></trkpt><trkpt lat="43.9075217" lon="11.1059783"><ele>131.8</ele><time>2026-03-22T11:23:51.393Z</time></trkpt><trkpt lat="43.9076083" lon="11.106085"><ele>132.6</ele><time>2026-03-22T11:23:53.394Z</time></trkpt><trkpt lat="43.9076233" lon="11.10622"><ele>133.4</ele><time>2026-03-22T11:23:55.394Z</time></trkpt><trkpt lat="43.9075717" lon="11.106325"><ele>134.2</ele><time>2026-03-22T11:23:56.394Z</time></trkpt><trkpt lat="43.9075083" lon="11.1064367"><ele>135.0</ele><time>2026-03-22T11:23:57.393Z</time></trkpt><trkpt lat="43.90743" lon="11.1065567"><ele>130.25</ele><time>2026-03-22T11:23:58.393Z</time></trkpt><trkpt lat="43.9073467" lon="11.1066883"><ele>125.5</ele><time>2026-03-22T11:23:59.394Z</time></trkpt><trkpt lat="43.90728" lon="11.106825"><ele>120.75</ele><time>2026-03-22T11:24:00.394Z</time></trkpt><trkpt lat="43.9072233" lon="11.1069717"><ele>116.0</ele><time>2026-03-22T11:24:01.393Z</time></trkpt><trkpt lat="43.907175" lon="11.1071217"><ele>116.0</ele><time>2026-03-22T11:24:02.394Z</time></trkpt><trkpt lat="43.9071317" lon="11.10727"><ele>116.0</ele><time>2026-03-22T11:24:03.393Z</time></trkpt><trkpt lat="43.9070883" lon="11.1074133"><ele>116.0</ele><time>2026-03-22T11:24:04.394Z</time></trkpt><trkpt lat="43.9070383" lon="11.107555"><ele>116.0</ele><time>2026-03-22T11:24:05.393Z</time></trkpt><trkpt lat="43.9069767" lon="11.107675"><ele>116.0</ele><time>2026-03-22T11:24:06.393Z</time></trkpt><trkpt lat="43.9069017" lon="11.1077683"><ele>115.33333333333333</ele><time>2026-03-22T11:24:07.393Z</time></trkpt><trkpt lat="43.906825" lon="11.107835"><ele>114.66666666666666</ele><time>2026-03-22T11:24:08.393Z</time></trkpt><trkpt lat="43.9067483" lon="11.1078667"><ele>114.0</ele><time>2026-03-22T11:24:09.393Z</time></trkpt><trkpt lat="43.906675" lon="11.1078667"><ele>113.33333333333334</ele><time>2026-03-22T11:24:10.393Z</time></trkpt><trkpt lat="43.9066017" lon="11.107795"><ele>112.66666666666667</ele><time>2026-03-22T11:24:11.394Z</time></trkpt><trkpt lat="43.9065383" lon="11.1077083"><ele>112.0</ele><time>2026-03-22T11:24:12.393Z</time></trkpt><trkpt lat="43.9064867" lon="11.1075933"><ele>108.25</ele><time>2026-03-22T11:24:13.393Z</time></trkpt><trkpt lat="43.9064283" lon="11.1074617"><ele>104.5</ele><time>2026-03-22T11:24:14.393Z</time></trkpt><trkpt lat="43.906375" lon="11.1073167"><ele>100.75</ele><time>2026-03-22T11:24:15.393Z</time></trkpt><trkpt lat="43.906325" lon="11.1071717"><ele>97.0</ele><time>2026-03-22T11:24:16.394Z</time></trkpt><trkpt lat="43.906275" lon="11.1070317"><ele>97.0</ele><time>2026-03-22T11:24:17.394Z</time></trkpt><trkpt lat="43.9062233" lon="11.1069033"><ele>97.0</ele><time>2026-03-22T11:24:18.393Z</time></trkpt><trkpt lat="43.906175" lon="11.106785"><ele>97.0</ele><time>2026-03-22T11:24:19.393Z</time></trkpt><trkpt lat="43.9061233" lon="11.1066767"><ele>97.0</ele><time>2026-03-22T11:24:20.393Z</time></trkpt><trkpt lat="43.9060667" lon="11.10659"><ele>97.0</ele><time>2026-03-22T11:24:21.394Z</time></trkpt><trkpt lat="43.9059933" lon="11.106525"><ele>96.33333333333334</ele><time>2026-03-22T11:24:22.393Z</time></trkpt><trkpt lat="43.9059017" lon="11.1064917"><ele>95.66666666666667</ele><time>2026-03-22T11:24:23.394Z</time></trkpt><trkpt lat="43.90582" lon="11.1064667"><ele>95.0</ele><time>2026-03-22T11:24:24.393Z</time></trkpt><trkpt lat="43.9057383" lon="11.106445"><ele>94.33333333333334</ele><time>2026-03-22T11:24:25.394Z</time></trkpt><trkpt lat="43.9056717" lon="11.10643"><ele>93.66666666666667</ele><time>2026-03-22T11:24:26.393Z</time></trkpt><trkpt lat="43.9055783" lon="11.1064233"><ele>93.0</ele><time>2026-03-22T11:24:28.393Z</time></trkpt><trkpt lat="43.9055183" lon="11.10647"><ele>91.60000000000001</ele><time>2026-03-22T11:24:37.394Z</time></trkpt><trkpt lat="43.9054367" lon="11.1066117"><ele>90.2</ele><time>2026-03-22T11:24:39.393Z</time></trkpt><trkpt lat="43.90541" lon="11.1067267"><ele>88.8</ele><time>2026-03-22T11:24:40.393Z</time></trkpt><trkpt lat="43.9054183" lon="11.1068517"><ele>87.4</ele><time>2026-03-22T11:24:41.393Z</time></trkpt><trkpt lat="43.90543" lon="11.106985"><ele>86.0</ele><time>2026-03-22T11:24:42.394Z</time></trkpt><trkpt lat="43.9054383" lon="11.1071117"><ele>86.0</ele><time>2026-03-22T11:24:43.394Z</time></trkpt><trkpt lat="43.9054433" lon="11.1072383"><ele>86.0</ele><time>2026-03-22T11:24:44.393Z</time></trkpt><trkpt lat="43.9054367" lon="11.1073717"><ele>86.0</ele><time>2026-03-22T11:24:45.393Z</time></trkpt><trkpt lat="43.9054117" lon="11.1075083"><ele>86.0</ele><time>2026-03-22T11:24:46.393Z</time></trkpt><trkpt lat="43.9053783" lon="11.1076483"><ele>86.0</ele><time>2026-03-22T11:24:47.393Z</time></trkpt><trkpt lat="43.9053317" lon="11.1077817"><ele>86.19999999999999</ele><time>2026-03-22T11:24:48.393Z</time></trkpt><trkpt lat="43.9052817" lon="11.1079083"><ele>86.39999999999999</ele><time>2026-03-22T11:24:49.394Z</time></trkpt><trkpt lat="43.905225" lon="11.10803"><ele>86.6</ele><time>2026-03-22T11:24:50.394Z</time></trkpt><trkpt lat="43.9051667" lon="11.10815"><ele>86.8</ele><time>2026-03-22T11:24:51.393Z</time></trkpt><trkpt lat="43.9051067" lon="11.1082617"><ele>87.0</ele><time>2026-03-22T11:24:52.393Z</time></trkpt><trkpt lat="43.9050383" lon="11.10836"><ele>85.83333333333333</ele><time>2026-03-22T11:24:53.393Z</time></trkpt><trkpt lat="43.9049683" lon="11.1084267"><ele>84.66666666666667</ele><time>2026-03-22T11:24:54.393Z</time></trkpt><trkpt lat="43.90491" lon="11.1084883"><ele>83.5</ele><time>2026-03-22T11:24:55.393Z</time></trkpt><trkpt lat="43.904855" lon="11.10855"><ele>82.33333333333334</ele><time>2026-03-22T11:24:56.393Z</time></trkpt><trkpt lat="43.9048067" lon="11.1086217"><ele>81.16666666666667</ele><time>2026-03-22T11:24:57.393Z</time></trkpt><trkpt lat="43.9047833" lon="11.1087183"><ele>80.0</ele><time>2026-03-22T11:24:58.394Z</time></trkpt><trkpt lat="43.9047633" lon="11.1088367"><ele>80.0</ele><time>2026-03-22T11:24:59.394Z</time></trkpt><trkpt lat="43.9047283" lon="11.1089533"><ele>80.0</ele><time>2026-03-22T11:25:00.394Z</time></trkpt><trkpt lat="43.9046733" lon="11.10906"><ele>80.0</ele><time>2026-03-22T11:25:01.394Z</time></trkpt><trkpt lat="43.9045917" lon="11.1091517"><ele>80.0</ele><time>2026-03-22T11:25:02.394Z</time></trkpt><trkpt lat="43.904505" lon="11.1092283"><ele>80.0</ele><time>2026-03-22T11:25:03.394Z</time></trkpt><trkpt lat="43.9044117" lon="11.1092733"><ele>79.8</ele><time>2026-03-22T11:25:04.393Z</time></trkpt><trkpt lat="43.9043133" lon="11.1092617"><ele>79.6</ele><time>2026-03-22T11:25:05.394Z</time></trkpt><trkpt lat="43.9042133" lon="11.1092633"><ele>79.4</ele><time>2026-03-22T11:25:06.394Z</time></trkpt><trkpt lat="43.9041117" lon="11.1092467"><ele>79.2</ele><time>2026-03-22T11:25:07.394Z</time></trkpt><trkpt lat="43.9040283" lon="11.109225"><ele>79.0</ele><time>2026-03-22T11:25:08.393Z</time></trkpt><trkpt lat="43.9039367" lon="11.109215"><ele>78.83333333333333</ele><time>2026-03-22T11:25:09.393Z</time></trkpt><trkpt lat="43.9038433" lon="11.10921"><ele>78.66666666666666</ele><time>2026-03-22T11:25:10.394Z</time></trkpt><trkpt lat="43.9037483" lon="11.1092133"><ele>78.5</ele><time>2026-03-22T11:25:11.393Z</time></trkpt><trkpt lat="43.9036583" lon="11.1092083"><ele>78.33333333333333</ele><time>2026-03-22T11:25:12.394Z</time></trkpt><trkpt lat="43.9035783" lon="11.1092117"><ele>78.16666666666667</ele><time>2026-03-22T11:25:13.393Z</time></trkpt><trkpt lat="43.9035" lon="11.1092117"><ele>78.0</ele><time>2026-03-22T11:25:14.394Z</time></trkpt><trkpt lat="43.9034233" lon="11.109205"><ele>77.5</ele><time>2026-03-22T11:25:15.393Z</time></trkpt><trkpt lat="43.9033433" lon="11.1091917"><ele>77.0</ele><time>2026-03-22T11:25:16.394Z</time></trkpt><trkpt lat="43.9032667" lon="11.1091567"><ele>76.5</ele><time>2026-03-22T11:25:17.393Z</time></trkpt><trkpt lat="43.9031883" lon="11.10912"><ele>76.0</ele><time>2026-03-22T11:25:18.394Z</time></trkpt><trkpt lat="43.9031083" lon="11.1091"><ele>75.5</ele><time>2026-03-22T11:25:19.393Z</time></trkpt><trkpt lat="43.9030233" lon="11.1091033"><ele>75.0</ele><time>2026-03-22T11:25:20.393Z</time></trkpt><trkpt lat="43.90293" lon="11.10913"><ele>75.0</ele><time>2026-03-22T11:25:21.394Z</time></trkpt><trkpt lat="43.90283" lon="11.109145"><ele>75.0</ele><time>2026-03-22T11:25:22.393Z</time></trkpt><trkpt lat="43.9027283" lon="11.1091483"><ele>75.0</ele><time>2026-03-22T11:25:23.394Z</time></trkpt><trkpt lat="43.9026217" lon="11.1091483"><ele>75.0</ele><time>2026-03-22T11:25:24.394Z</time></trkpt><trkpt lat="43.90252" lon="11.1091483"><ele>75.0</ele><time>2026-03-22T11:25:25.393Z</time></trkpt><trkpt lat="43.9024283" lon="11.10915"><ele>75.0</ele><time>2026-03-22T11:25:26.394Z</time></trkpt><trkpt lat="43.90235" lon="11.1091483"><ele>75.0</ele><time>2026-03-22T11:25:27.393Z</time></trkpt><trkpt lat="43.9022733" lon="11.1091483"><ele>75.0</ele><time>2026-03-22T11:25:28.393Z</time></trkpt><trkpt lat="43.9022017" lon="11.1091417"><ele>75.0</ele><time>2026-03-22T11:25:29.393Z</time></trkpt><trkpt lat="43.9021267" lon="11.1091383"><ele>75.0</ele><time>2026-03-22T11:25:30.393Z</time></trkpt><trkpt lat="43.902055" lon="11.10913"><ele>75.0</ele><time>2026-03-22T11:25:31.394Z</time></trkpt><trkpt lat="43.9019317" lon="11.1091067"><ele>75.0</ele><time>2026-03-22T11:25:33.394Z</time></trkpt><trkpt lat="43.9018133" lon="11.1090967"><ele>75.0</ele><time>2026-03-22T11:25:35.394Z</time></trkpt><trkpt lat="43.9016967" lon="11.109105"><ele>75.0</ele><time>2026-03-22T11:25:37.393Z</time></trkpt><trkpt lat="43.9016283" lon="11.1091083"><ele>75.0</ele><time>2026-03-22T11:25:38.394Z</time></trkpt><trkpt lat="43.90156" lon="11.1091133"><ele>75.0</ele><time>2026-03-22T11:25:39.394Z</time></trkpt><trkpt lat="43.90148" lon="11.1091217"><ele>74.8</ele><time>2026-03-22T11:25:40.394Z</time></trkpt><trkpt lat="43.9014167" lon="11.10912"><ele>74.6</ele><time>2026-03-22T11:25:41.394Z</time></trkpt><trkpt lat="43.9013017" lon="11.109105"><ele>74.4</ele><time>2026-03-22T11:25:43.393Z</time></trkpt><trkpt lat="43.90118" lon="11.1090783"><ele>74.2</ele><time>2026-03-22T11:25:45.394Z</time></trkpt><trkpt lat="43.9011067" lon="11.1090767"><ele>74.0</ele><time>2026-03-22T11:25:46.393Z</time></trkpt><trkpt lat="43.90103" lon="11.1090817"><ele>73.60000000000001</ele><time>2026-03-22T11:25:47.394Z</time></trkpt><trkpt lat="43.9009533" lon="11.1090717"><ele>73.2</ele><time>2026-03-22T11:25:48.394Z</time></trkpt><trkpt lat="43.9008683" lon="11.1090517"><ele>72.80000000000001</ele><time>2026-03-22T11:25:49.393Z</time></trkpt><trkpt lat="43.9007733" lon="11.109035"><ele>72.4</ele><time>2026-03-22T11:25:50.393Z</time></trkpt><trkpt lat="43.9006717" lon="11.1090267"><ele>72.0</ele><time>2026-03-22T11:25:51.394Z</time></trkpt><trkpt lat="43.9005583" lon="11.1090283"><ele>72.0</ele><time>2026-03-22T11:25:52.393Z</time></trkpt><trkpt lat="43.9004467" lon="11.1090283"><ele>72.0</ele><time>2026-03-22T11:25:53.393Z</time></trkpt><trkpt lat="43.9003367" lon="11.1090167"><ele>72.0</ele><time>2026-03-22T11:25:54.394Z</time></trkpt><trkpt lat="43.9002267" lon="11.1090133"><ele>72.0</ele><time>2026-03-22T11:25:55.394Z</time></trkpt><trkpt lat="43.90011" lon="11.1090133"><ele>72.0</ele><time>2026-03-22T11:25:56.393Z</time></trkpt><trkpt lat="43.89999" lon="11.109015"><ele>72.8</ele><time>2026-03-22T11:25:57.393Z</time></trkpt><trkpt lat="43.899875" lon="11.10902"><ele>73.6</ele><time>2026-03-22T11:25:58.393Z</time></trkpt><trkpt lat="43.8997617" lon="11.1090183"><ele>74.39999999999999</ele><time>2026-03-22T11:25:59.393Z</time></trkpt><trkpt lat="43.8996483" lon="11.1090167"><ele>75.2</ele><time>2026-03-22T11:26:00.393Z</time></trkpt><trkpt lat="43.8995433" lon="11.1090117"><ele>76.0</ele><time>2026-03-22T11:26:01.394Z</time></trkpt><trkpt lat="43.89944" lon="11.1090117"><ele>76.0</ele><time>2026-03-22T11:26:02.394Z</time></trkpt><trkpt lat="43.8993383" lon="11.1090117"><ele>76.0</ele><time>2026-03-22T11:26:03.393Z</time></trkpt><trkpt lat="43.8992433" lon="11.1090167"><ele>76.0</ele><time>2026-03-22T11:26:04.393Z</time></trkpt><trkpt lat="43.899155" lon="11.1090133"><ele>76.0</ele><time>2026-03-22T11:26:05.393Z</time></trkpt><trkpt lat="43.89908" lon="11.109015"><ele>76.0</ele><time>2026-03-22T11:26:06.394Z</time></trkpt><trkpt lat="43.8990067" lon="11.1090067"><ele>76.0</ele><time>2026-03-22T11:26:07.393Z</time></trkpt><trkpt lat="43.8989267" lon="11.1089983"><ele>76.2</ele><time>2026-03-22T11:26:08.393Z</time></trkpt><trkpt lat="43.898855" lon="11.10899"><ele>76.39999999999999</ele><time>2026-03-22T11:26:09.394Z</time></trkpt><trkpt lat="43.8987817" lon="11.1089833"><ele>76.6</ele><time>2026-03-22T11:26:10.394Z</time></trkpt><trkpt lat="43.898675" lon="11.108925"><ele>76.8</ele><time>2026-03-22T11:26:12.393Z</time></trkpt><trkpt lat="43.8985883" lon="11.1088233"><ele>77.0</ele><time>2026-03-22T11:26:14.393Z</time></trkpt><trkpt lat="43.8984717" lon="11.1087767"><ele>77.2</ele><time>2026-03-22T11:26:16.394Z</time></trkpt><trkpt lat="43.8983967" lon="11.108765"><ele>77.4</ele><time>2026-03-22T11:26:17.393Z</time></trkpt><trkpt lat="43.8983167" lon="11.1087317"><ele>77.6</ele><time>2026-03-22T11:26:18.394Z</time></trkpt><trkpt lat="43.8982333" lon="11.1086883"><ele>77.8</ele><time>2026-03-22T11:26:19.393Z</time></trkpt><trkpt lat="43.89814" lon="11.108615"><ele>78.0</ele><time>2026-03-22T11:26:20.394Z</time></trkpt><trkpt lat="43.8980383" lon="11.108525"><ele>78.0</ele><time>2026-03-22T11:26:21.394Z</time></trkpt><trkpt lat="43.8979367" lon="11.1084167"><ele>78.0</ele><time>2026-03-22T11:26:22.393Z</time></trkpt><trkpt lat="43.897835" lon="11.1083083"><ele>78.0</ele><time>2026-03-22T11:26:23.394Z</time></trkpt><trkpt lat="43.897735" lon="11.1082"><ele>78.0</ele><time>2026-03-22T11:26:24.393Z</time></trkpt><trkpt lat="43.89764" lon="11.1080917"><ele>78.25</ele><time>2026-03-22T11:26:25.393Z</time></trkpt><trkpt lat="43.8975467" lon="11.1079833"><ele>78.5</ele><time>2026-03-22T11:26:26.393Z</time></trkpt><trkpt lat="43.8974517" lon="11.107875"><ele>78.75</ele><time>2026-03-22T11:26:27.394Z</time></trkpt><trkpt lat="43.8973583" lon="11.1077717"><ele>79.0</ele><time>2026-03-22T11:26:28.393Z</time></trkpt><trkpt lat="43.89726" lon="11.1076717"><ele>79.0</ele><time>2026-03-22T11:26:29.394Z</time></trkpt><trkpt lat="43.8971617" lon="11.10757"><ele>79.0</ele><time>2026-03-22T11:26:30.394Z</time></trkpt><trkpt lat="43.8970683" lon="11.10747"><ele>79.0</ele><time>2026-03-22T11:26:31.394Z</time></trkpt><trkpt lat="43.89698" lon="11.1073783"><ele>79.0</ele><time>2026-03-22T11:26:32.394Z</time></trkpt><trkpt lat="43.896895" lon="11.10729"><ele>78.60000000000001</ele><time>2026-03-22T11:26:33.394Z</time></trkpt><trkpt lat="43.896815" lon="11.10721"><ele>78.2</ele><time>2026-03-22T11:26:34.393Z</time></trkpt><trkpt lat="43.8967333" lon="11.1071233"><ele>77.80000000000001</ele><time>2026-03-22T11:26:35.393Z</time></trkpt><trkpt lat="43.89665" lon="11.107035"><ele>77.4</ele><time>2026-03-22T11:26:36.393Z</time></trkpt><trkpt lat="43.8965633" lon="11.106945"><ele>77.0</ele><time>2026-03-22T11:26:37.394Z</time></trkpt><trkpt lat="43.8964767" lon="11.1068533"><ele>76.8</ele><time>2026-03-22T11:26:38.393Z</time></trkpt><trkpt lat="43.8963883" lon="11.10676"><ele>76.6</ele><time>2026-03-22T11:26:39.392Z</time></trkpt><trkpt lat="43.8962983" lon="11.106665"><ele>76.39999999999999</ele><time>2026-03-22T11:26:40.392Z</time></trkpt><trkpt lat="43.896215" lon="11.1065767"><ele>76.2</ele><time>2026-03-22T11:26:41.392Z</time></trkpt><trkpt lat="43.89614" lon="11.1064967"><ele>76.0</ele><time>2026-03-22T11:26:42.393Z</time></trkpt><trkpt lat="43.8960683" lon="11.1064133"><ele>75.6</ele><time>2026-03-22T11:26:43.393Z</time></trkpt><trkpt lat="43.8959983" lon="11.1063283"><ele>75.19999999999999</ele><time>2026-03-22T11:26:44.392Z</time></trkpt><trkpt lat="43.895925" lon="11.1062433"><ele>74.80000000000001</ele><time>2026-03-22T11:26:45.392Z</time></trkpt><trkpt lat="43.895845" lon="11.1061533"><ele>74.4</ele><time>2026-03-22T11:26:46.393Z</time></trkpt><trkpt lat="43.8957667" lon="11.1060567"><ele>74.0</ele><time>2026-03-22T11:26:47.392Z</time></trkpt><trkpt lat="43.89568" lon="11.1059617"><ele>73.75</ele><time>2026-03-22T11:26:48.392Z</time></trkpt><trkpt lat="43.895585" lon="11.105875"><ele>73.5</ele><time>2026-03-22T11:26:49.393Z</time></trkpt><trkpt lat="43.895485" lon="11.1057783"><ele>73.25</ele><time>2026-03-22T11:26:50.393Z</time></trkpt><trkpt lat="43.8953833" lon="11.1056783"><ele>73.0</ele><time>2026-03-22T11:26:51.392Z</time></trkpt><trkpt lat="43.8952783" lon="11.1055767"><ele>73.0</ele><time>2026-03-22T11:26:52.393Z</time></trkpt><trkpt lat="43.8951783" lon="11.1054883"><ele>73.0</ele><time>2026-03-22T11:26:53.392Z</time></trkpt><trkpt lat="43.8950817" lon="11.10541"><ele>73.0</ele><time>2026-03-22T11:26:54.392Z</time></trkpt><trkpt lat="43.894995" lon="11.1053433"><ele>73.0</ele><time>2026-03-22T11:26:55.393Z</time></trkpt><trkpt lat="43.894925" lon="11.1052917"><ele>73.0</ele><time>2026-03-22T11:26:56.393Z</time></trkpt><trkpt lat="43.89486" lon="11.1052417"><ele>72.8</ele><time>2026-03-22T11:26:57.393Z</time></trkpt><trkpt lat="43.8947867" lon="11.105185"><ele>72.6</ele><time>2026-03-22T11:26:59.392Z</time></trkpt><trkpt lat="43.8946983" lon="11.1051533"><ele>72.4</ele><time>2026-03-22T11:27:06.393Z</time></trkpt><trkpt lat="43.8946017" lon="11.105065"><ele>72.2</ele><time>2026-03-22T11:27:08.393Z</time></trkpt><trkpt lat="43.894535" lon="11.1050167"><ele>72.0</ele><time>2026-03-22T11:27:09.394Z</time></trkpt><trkpt lat="43.894455" lon="11.1049633"><ele>72.0</ele><time>2026-03-22T11:27:10.393Z</time></trkpt><trkpt lat="43.8943633" lon="11.1049167"><ele>72.0</ele><time>2026-03-22T11:27:11.393Z</time></trkpt><trkpt lat="43.8942533" lon="11.1048583"><ele>72.0</ele><time>2026-03-22T11:27:12.394Z</time></trkpt><trkpt lat="43.8941417" lon="11.104795"><ele>72.0</ele><time>2026-03-22T11:27:13.393Z</time></trkpt><trkpt lat="43.894025" lon="11.1047283"><ele>73.25</ele><time>2026-03-22T11:27:14.394Z</time></trkpt><trkpt lat="43.8939067" lon="11.1046583"><ele>74.5</ele><time>2026-03-22T11:27:15.393Z</time></trkpt><trkpt lat="43.89379" lon="11.1045867"><ele>75.75</ele><time>2026-03-22T11:27:16.393Z</time></trkpt><trkpt lat="43.8936733" lon="11.104515"><ele>77.0</ele><time>2026-03-22T11:27:17.393Z</time></trkpt><trkpt lat="43.8935533" lon="11.1044433"><ele>77.0</ele><time>2026-03-22T11:27:18.393Z</time></trkpt><trkpt lat="43.8934333" lon="11.1043667"><ele>77.0</ele><time>2026-03-22T11:27:19.393Z</time></trkpt><trkpt lat="43.8933083" lon="11.104295"><ele>77.0</ele><time>2026-03-22T11:27:20.393Z</time></trkpt><trkpt lat="43.8931767" lon="11.1042317"><ele>77.0</ele><time>2026-03-22T11:27:21.393Z</time></trkpt><trkpt lat="43.8930417" lon="11.1041667"><ele>77.5</ele><time>2026-03-22T11:27:22.393Z</time></trkpt><trkpt lat="43.892905" lon="11.1040933"><ele>78.0</ele><time>2026-03-22T11:27:23.394Z</time></trkpt><trkpt lat="43.8927717" lon="11.1040183"><ele>78.5</ele><time>2026-03-22T11:27:24.393Z</time></trkpt><trkpt lat="43.8926333" lon="11.1039417"><ele>79.0</ele><time>2026-03-22T11:27:25.394Z</time></trkpt><trkpt lat="43.892495" lon="11.10386"><ele>78.0</ele><time>2026-03-22T11:27:26.394Z</time></trkpt><trkpt lat="43.8923433" lon="11.10379"><ele>77.0</ele><time>2026-03-22T11:27:27.393Z</time></trkpt><trkpt lat="43.8922133" lon="11.1037133"><ele>76.0</ele><time>2026-03-22T11:27:28.394Z</time></trkpt><trkpt lat="43.8920833" lon="11.1036417"><ele>75.0</ele><time>2026-03-22T11:27:29.394Z</time></trkpt><trkpt lat="43.8919517" lon="11.10357"><ele>75.0</ele><time>2026-03-22T11:27:30.394Z</time></trkpt><trkpt lat="43.891825" lon="11.1034933"><ele>75.0</ele><time>2026-03-22T11:27:31.393Z</time></trkpt><trkpt lat="43.891695" lon="11.1034233"><ele>75.0</ele><time>2026-03-22T11:27:32.393Z</time></trkpt><trkpt lat="43.8915717" lon="11.1033517"><ele>75.0</ele><time>2026-03-22T11:27:33.393Z</time></trkpt><trkpt lat="43.8914483" lon="11.1032767"><ele>74.4</ele><time>2026-03-22T11:27:34.394Z</time></trkpt><trkpt lat="43.8913367" lon="11.1032083"><ele>73.8</ele><time>2026-03-22T11:27:35.394Z</time></trkpt><trkpt lat="43.891235" lon="11.103135"><ele>73.2</ele><time>2026-03-22T11:27:36.394Z</time></trkpt><trkpt lat="43.89114" lon="11.10308"><ele>72.6</ele><time>2026-03-22T11:27:37.393Z</time></trkpt><trkpt lat="43.89107" lon="11.10302"><ele>72.0</ele><time>2026-03-22T11:27:38.394Z</time></trkpt><trkpt lat="43.8910167" lon="11.1029567"><ele>72.0</ele><time>2026-03-22T11:27:39.394Z</time></trkpt><trkpt lat="43.89097" lon="11.1028883"><ele>72.0</ele><time>2026-03-22T11:27:40.393Z</time></trkpt><trkpt lat="43.89094" lon="11.1027367"><ele>72.0</ele><time>2026-03-22T11:27:42.394Z</time></trkpt><trkpt lat="43.8908867" lon="11.102605"><ele>72.0</ele><time>2026-03-22T11:27:44.394Z</time></trkpt><trkpt lat="43.8908167" lon="11.1025417"><ele>72.0</ele><time>2026-03-22T11:27:46.394Z</time></trkpt><trkpt lat="43.8907317" lon="11.10261"><ele>71.4</ele><time>2026-03-22T11:27:48.394Z</time></trkpt><trkpt lat="43.8906717" lon="11.102745"><ele>70.80000000000001</ele><time>2026-03-22T11:27:50.394Z</time></trkpt><trkpt lat="43.8906683" lon="11.102855"><ele>70.2</ele><time>2026-03-22T11:27:51.393Z</time></trkpt><trkpt lat="43.8906617" lon="11.102995"><ele>69.60000000000001</ele><time>2026-03-22T11:27:52.393Z</time></trkpt><trkpt lat="43.8906433" lon="11.103155"><ele>69.0</ele><time>2026-03-22T11:27:53.393Z</time></trkpt><trkpt lat="43.8905933" lon="11.10334"><ele>68.5</ele><time>2026-03-22T11:27:54.393Z</time></trkpt><trkpt lat="43.8905417" lon="11.103525"><ele>68.0</ele><time>2026-03-22T11:27:55.394Z</time></trkpt><trkpt lat="43.8904817" lon="11.1037083"><ele>67.5</ele><time>2026-03-22T11:27:56.393Z</time></trkpt><trkpt lat="43.8904233" lon="11.1038967"><ele>67.0</ele><time>2026-03-22T11:27:57.393Z</time></trkpt><trkpt lat="43.8903667" lon="11.104075"><ele>66.75</ele><time>2026-03-22T11:27:58.394Z</time></trkpt><trkpt lat="43.8903133" lon="11.1042367"><ele>66.5</ele><time>2026-03-22T11:27:59.394Z</time></trkpt><trkpt lat="43.8902633" lon="11.1043967"><ele>66.25</ele><time>2026-03-22T11:28:00.394Z</time></trkpt><trkpt lat="43.8902133" lon="11.10456"><ele>66.0</ele><time>2026-03-22T11:28:01.394Z</time></trkpt><trkpt lat="43.8901667" lon="11.104725"><ele>66.0</ele><time>2026-03-22T11:28:02.394Z</time></trkpt><trkpt lat="43.8901267" lon="11.1048833"><ele>66.0</ele><time>2026-03-22T11:28:03.393Z</time></trkpt><trkpt lat="43.890075" lon="11.1050283"><ele>66.0</ele><time>2026-03-22T11:28:04.393Z</time></trkpt><trkpt lat="43.8900083" lon="11.10515"><ele>66.0</ele><time>2026-03-22T11:28:05.393Z</time></trkpt><trkpt lat="43.8899417" lon="11.1052517"><ele>66.0</ele><time>2026-03-22T11:28:06.393Z</time></trkpt><trkpt lat="43.889865" lon="11.1053283"><ele>66.66666666666667</ele><time>2026-03-22T11:28:07.394Z</time></trkpt><trkpt lat="43.8897867" lon="11.1053867"><ele>67.33333333333333</ele><time>2026-03-22T11:28:08.394Z</time></trkpt><trkpt lat="43.889705" lon="11.1054267"><ele>68.0</ele><time>2026-03-22T11:28:09.393Z</time></trkpt><trkpt lat="43.8896233" lon="11.1054433"><ele>68.66666666666666</ele><time>2026-03-22T11:28:10.393Z</time></trkpt><trkpt lat="43.8895317" lon="11.1054283"><ele>69.33333333333333</ele><time>2026-03-22T11:28:11.393Z</time></trkpt><trkpt lat="43.8894383" lon="11.1053867"><ele>70.0</ele><time>2026-03-22T11:28:12.393Z</time></trkpt><trkpt lat="43.8893467" lon="11.1053467"><ele>69.4</ele><time>2026-03-22T11:28:13.394Z</time></trkpt><trkpt lat="43.8892583" lon="11.105305"><ele>68.8</ele><time>2026-03-22T11:28:14.394Z</time></trkpt><trkpt lat="43.88917" lon="11.10526"><ele>68.2</ele><time>2026-03-22T11:28:15.394Z</time></trkpt><trkpt lat="43.8890833" lon="11.1052167"><ele>67.6</ele><time>2026-03-22T11:28:16.393Z</time></trkpt><trkpt lat="43.888995" lon="11.1051783"><ele>67.0</ele><time>2026-03-22T11:28:17.393Z</time></trkpt><trkpt lat="43.8889117" lon="11.1051367"><ele>67.0</ele><time>2026-03-22T11:28:18.394Z</time></trkpt><trkpt lat="43.8888267" lon="11.1050983"><ele>67.0</ele><time>2026-03-22T11:28:19.393Z</time></trkpt><trkpt lat="43.88874" lon="11.1050617"><ele>67.0</ele><time>2026-03-22T11:28:20.394Z</time></trkpt><trkpt lat="43.8886533" lon="11.1050283"><ele>67.0</ele><time>2026-03-22T11:28:21.393Z</time></trkpt><trkpt lat="43.8885683" lon="11.1050167"><ele>67.0</ele><time>2026-03-22T11:28:22.394Z</time></trkpt><trkpt lat="43.8884733" lon="11.1050333"><ele>66.8</ele><time>2026-03-22T11:28:23.393Z</time></trkpt><trkpt lat="43.8883667" lon="11.105075"><ele>66.6</ele><time>2026-03-22T11:28:24.393Z</time></trkpt><trkpt lat="43.88826" lon="11.1051267"><ele>66.39999999999999</ele><time>2026-03-22T11:28:25.394Z</time></trkpt><trkpt lat="43.8881617" lon="11.1051733"><ele>66.2</ele><time>2026-03-22T11:28:26.394Z</time></trkpt><trkpt lat="43.88807" lon="11.1051983"><ele>66.0</ele><time>2026-03-22T11:28:27.394Z</time></trkpt><trkpt lat="43.8879817" lon="11.1052117"><ele>66.0</ele><time>2026-03-22T11:28:28.394Z</time></trkpt><trkpt lat="43.8879017" lon="11.1052333"><ele>66.0</ele><time>2026-03-22T11:28:29.394Z</time></trkpt><trkpt lat="43.8878333" lon="11.105265"><ele>66.0</ele><time>2026-03-22T11:28:30.393Z</time></trkpt><trkpt lat="43.88778" lon="11.1053133"><ele>66.0</ele><time>2026-03-22T11:28:31.394Z</time></trkpt><trkpt lat="43.887675" lon="11.10542"><ele>66.0</ele><time>2026-03-22T11:28:33.394Z</time></trkpt><trkpt lat="43.8876283" lon="11.1054867"><ele>66.0</ele><time>2026-03-22T11:28:34.393Z</time></trkpt><trkpt lat="43.88758" lon="11.1055733"><ele>66.2</ele><time>2026-03-22T11:28:35.393Z</time></trkpt><trkpt lat="43.8875183" lon="11.1056583"><ele>66.39999999999999</ele><time>2026-03-22T11:28:36.394Z</time></trkpt><trkpt lat="43.8874483" lon="11.1057283"><ele>66.6</ele><time>2026-03-22T11:28:37.393Z</time></trkpt><trkpt lat="43.8873667" lon="11.1057867"><ele>66.8</ele><time>2026-03-22T11:28:38.393Z</time></trkpt><trkpt lat="43.887295" lon="11.10585"><ele>67.0</ele><time>2026-03-22T11:28:39.393Z</time></trkpt><trkpt lat="43.8872067" lon="11.105915"><ele>67.0</ele><time>2026-03-22T11:28:40.393Z</time></trkpt><trkpt lat="43.8871167" lon="11.1059817"><ele>67.0</ele><time>2026-03-22T11:28:41.393Z</time></trkpt><trkpt lat="43.8870267" lon="11.106065"><ele>67.0</ele><time>2026-03-22T11:28:42.394Z</time></trkpt><trkpt lat="43.8869333" lon="11.10613"><ele>67.0</ele><time>2026-03-22T11:28:43.393Z</time></trkpt><trkpt lat="43.8868367" lon="11.106195"><ele>67.0</ele><time>2026-03-22T11:28:44.394Z</time></trkpt><trkpt lat="43.8867417" lon="11.1062667"><ele>67.0</ele><time>2026-03-22T11:28:45.393Z</time></trkpt><trkpt lat="43.8866417" lon="11.1063367"><ele>67.0</ele><time>2026-03-22T11:28:46.393Z</time></trkpt><trkpt lat="43.886545" lon="11.106405"><ele>67.0</ele><time>2026-03-22T11:28:47.393Z</time></trkpt><trkpt lat="43.8864467" lon="11.106475"><ele>67.0</ele><time>2026-03-22T11:28:48.393Z</time></trkpt><trkpt lat="43.8863483" lon="11.106545"><ele>67.0</ele><time>2026-03-22T11:28:49.394Z</time></trkpt><trkpt lat="43.8862417" lon="11.1066117"><ele>67.2</ele><time>2026-03-22T11:28:50.394Z</time></trkpt><trkpt lat="43.8861367" lon="11.1066767"><ele>67.4</ele><time>2026-03-22T11:28:51.394Z</time></trkpt><trkpt lat="43.886035" lon="11.10674"><ele>67.6</ele><time>2026-03-22T11:28:52.393Z</time></trkpt><trkpt lat="43.88594" lon="11.1068"><ele>67.8</ele><time>2026-03-22T11:28:53.394Z</time></trkpt><trkpt lat="43.8858517" lon="11.106855"><ele>68.0</ele><time>2026-03-22T11:28:54.393Z</time></trkpt><trkpt lat="43.88576" lon="11.106915"><ele>67.66666666666667</ele><time>2026-03-22T11:28:55.394Z</time></trkpt><trkpt lat="43.8856717" lon="11.1069733"><ele>67.33333333333334</ele><time>2026-03-22T11:28:56.393Z</time></trkpt><trkpt lat="43.8855867" lon="11.1070317"><ele>67.0</ele><time>2026-03-22T11:28:57.394Z</time></trkpt><trkpt lat="43.8855083" lon="11.107085"><ele>66.66666666666667</ele><time>2026-03-22T11:28:58.394Z</time></trkpt><trkpt lat="43.8854333" lon="11.107135"><ele>66.33333333333333</ele><time>2026-03-22T11:28:59.394Z</time></trkpt><trkpt lat="43.8853683" lon="11.1071867"><ele>66.0</ele><time>2026-03-22T11:29:00.393Z</time></trkpt><trkpt lat="43.8853117" lon="11.1072283"><ele>66.0</ele><time>2026-03-22T11:29:01.393Z</time></trkpt><trkpt lat="43.885205" lon="11.1073"><ele>66.0</ele><time>2026-03-22T11:29:03.393Z</time></trkpt><trkpt lat="43.885125" lon="11.107355"><ele>66.0</ele><time>2026-03-22T11:29:05.393Z</time></trkpt><trkpt lat="43.88503" lon="11.1074233"><ele>66.0</ele><time>2026-03-22T11:29:07.393Z</time></trkpt><trkpt lat="43.884945" lon="11.107485"><ele>66.0</ele><time>2026-03-22T11:29:09.394Z</time></trkpt><trkpt lat="43.88486" lon="11.1075517"><ele>66.16666666666667</ele><time>2026-03-22T11:29:11.394Z</time></trkpt><trkpt lat="43.884775" lon="11.1075983"><ele>66.33333333333333</ele><time>2026-03-22T11:29:13.394Z</time></trkpt><trkpt lat="43.884685" lon="11.1076417"><ele>66.5</ele><time>2026-03-22T11:29:15.393Z</time></trkpt><trkpt lat="43.884595" lon="11.107695"><ele>66.66666666666666</ele><time>2026-03-22T11:29:17.393Z</time></trkpt><trkpt lat="43.884515" lon="11.107745"><ele>66.83333333333333</ele><time>2026-03-22T11:29:19.393Z</time></trkpt><trkpt lat="43.8844467" lon="11.107795"><ele>67.0</ele><time>2026-03-22T11:29:21.393Z</time></trkpt><trkpt lat="43.88438" lon="11.10783"><ele>67.0</ele><time>2026-03-22T11:29:23.394Z</time></trkpt><trkpt lat="43.8842967" lon="11.1078783"><ele>67.0</ele><time>2026-03-22T11:29:25.393Z</time></trkpt><trkpt lat="43.8842267" lon="11.1079133"><ele>67.0</ele><time>2026-03-22T11:29:27.394Z</time></trkpt><trkpt lat="43.8841233" lon="11.1079783"><ele>67.0</ele><time>2026-03-22T11:29:29.394Z</time></trkpt><trkpt lat="43.8839983" lon="11.108045"><ele>67.0</ele><time>2026-03-22T11:29:31.394Z</time></trkpt><trkpt lat="43.8839333" lon="11.108085"><ele>67.0</ele><time>2026-03-22T11:29:32.394Z</time></trkpt><trkpt lat="43.8838717" lon="11.1081317"><ele>67.0</ele><time>2026-03-22T11:29:33.394Z</time></trkpt><trkpt lat="43.883805" lon="11.1081833"><ele>67.0</ele><time>2026-03-22T11:29:34.394Z</time></trkpt><trkpt lat="43.8837383" lon="11.1082217"><ele>67.0</ele><time>2026-03-22T11:29:35.394Z</time></trkpt><trkpt lat="43.8836767" lon="11.108265"><ele>67.0</ele><time>2026-03-22T11:29:36.394Z</time></trkpt><trkpt lat="43.88361" lon="11.1083067"><ele>67.0</ele><time>2026-03-22T11:29:37.393Z</time></trkpt><trkpt lat="43.8835383" lon="11.1083483"><ele>67.0</ele><time>2026-03-22T11:29:38.393Z</time></trkpt><trkpt lat="43.8834583" lon="11.1084183"><ele>67.0</ele><time>2026-03-22T11:29:39.393Z</time></trkpt><trkpt lat="43.8833833" lon="11.108485"><ele>67.0</ele><time>2026-03-22T11:29:40.394Z</time></trkpt><trkpt lat="43.88331" lon="11.1085433"><ele>67.0</ele><time>2026-03-22T11:29:41.394Z</time></trkpt><trkpt lat="43.8832433" lon="11.108605"><ele>67.0</ele><time>2026-03-22T11:29:42.393Z</time></trkpt><trkpt lat="43.88318" lon="11.1086583"><ele>67.0</ele><time>2026-03-22T11:29:43.393Z</time></trkpt><trkpt lat="43.88311" lon="11.1087117"><ele>67.0</ele><time>2026-03-22T11:29:44.393Z</time></trkpt><trkpt lat="43.8830333" lon="11.1087783"><ele>67.0</ele><time>2026-03-22T11:29:45.394Z</time></trkpt><trkpt lat="43.882955" lon="11.10884"><ele>67.0</ele><time>2026-03-22T11:29:46.394Z</time></trkpt><trkpt lat="43.8828733" lon="11.1089067"><ele>67.0</ele><time>2026-03-22T11:29:47.394Z</time></trkpt><trkpt lat="43.8827867" lon="11.1089833"><ele>67.0</ele><time>2026-03-22T11:29:48.393Z</time></trkpt><trkpt lat="43.8826967" lon="11.1090517"><ele>67.0</ele><time>2026-03-22T11:29:49.393Z</time></trkpt><trkpt lat="43.8826133" lon="11.10912"><ele>66.8</ele><time>2026-03-22T11:29:50.394Z</time></trkpt><trkpt lat="43.8825333" lon="11.1091883"><ele>66.6</ele><time>2026-03-22T11:29:51.394Z</time></trkpt><trkpt lat="43.8824483" lon="11.1092567"><ele>66.39999999999999</ele><time>2026-03-22T11:29:52.393Z</time></trkpt><trkpt lat="43.88236" lon="11.109325"><ele>66.2</ele><time>2026-03-22T11:29:53.393Z</time></trkpt><trkpt lat="43.8822717" lon="11.1093967"><ele>66.0</ele><time>2026-03-22T11:29:54.394Z</time></trkpt><trkpt lat="43.88219" lon="11.1094617"><ele>66.0</ele><time>2026-03-22T11:29:55.394Z</time></trkpt><trkpt lat="43.8821217" lon="11.109525"><ele>66.0</ele><time>2026-03-22T11:29:56.394Z</time></trkpt><trkpt lat="43.88207" lon="11.1095833"><ele>66.0</ele><time>2026-03-22T11:29:57.394Z</time></trkpt><trkpt lat="43.8819883" lon="11.10966"><ele>66.0</ele><time>2026-03-22T11:29:59.394Z</time></trkpt><trkpt lat="43.88191" lon="11.1097383"><ele>66.0</ele><time>2026-03-22T11:30:01.394Z</time></trkpt><trkpt lat="43.8818067" lon="11.1098417"><ele>66.39999999999999</ele><time>2026-03-22T11:30:03.394Z</time></trkpt><trkpt lat="43.88174" lon="11.1099017"><ele>66.8</ele><time>2026-03-22T11:30:04.394Z</time></trkpt><trkpt lat="43.8816633" lon="11.1099683"><ele>67.19999999999999</ele><time>2026-03-22T11:30:05.394Z</time></trkpt><trkpt lat="43.88158" lon="11.11003"><ele>67.6</ele><time>2026-03-22T11:30:06.393Z</time></trkpt><trkpt lat="43.88149" lon="11.1101067"><ele>68.0</ele><time>2026-03-22T11:30:07.393Z</time></trkpt><trkpt lat="43.8814017" lon="11.1101733"><ele>68.0</ele><time>2026-03-22T11:30:08.394Z</time></trkpt><trkpt lat="43.8813117" lon="11.110245"><ele>68.0</ele><time>2026-03-22T11:30:09.393Z</time></trkpt><trkpt lat="43.8812133" lon="11.1103333"><ele>68.0</ele><time>2026-03-22T11:30:10.394Z</time></trkpt><trkpt lat="43.88112" lon="11.1104083"><ele>68.0</ele><time>2026-03-22T11:30:11.393Z</time></trkpt><trkpt lat="43.88102" lon="11.1104917"><ele>68.0</ele><time>2026-03-22T11:30:12.394Z</time></trkpt><trkpt lat="43.8809283" lon="11.11056"><ele>68.0</ele><time>2026-03-22T11:30:13.393Z</time></trkpt><trkpt lat="43.8808183" lon="11.1106533"><ele>68.0</ele><time>2026-03-22T11:30:14.393Z</time></trkpt><trkpt lat="43.8807" lon="11.1107533"><ele>68.0</ele><time>2026-03-22T11:30:15.393Z</time></trkpt><trkpt lat="43.880595" lon="11.1108417"><ele>68.0</ele><time>2026-03-22T11:30:16.393Z</time></trkpt><trkpt lat="43.880495" lon="11.1109217"><ele>68.0</ele><time>2026-03-22T11:30:17.394Z</time></trkpt><trkpt lat="43.8804067" lon="11.1109967"><ele>68.0</ele><time>2026-03-22T11:30:18.393Z</time></trkpt><trkpt lat="43.88033" lon="11.1110617"><ele>68.0</ele><time>2026-03-22T11:30:19.394Z</time></trkpt><trkpt lat="43.8802583" lon="11.11112"><ele>68.0</ele><time>2026-03-22T11:30:20.393Z</time></trkpt><trkpt lat="43.88018" lon="11.11117"><ele>68.0</ele><time>2026-03-22T11:30:21.393Z</time></trkpt><trkpt lat="43.880105" lon="11.111215"><ele>68.0</ele><time>2026-03-22T11:30:22.394Z</time></trkpt><trkpt lat="43.880025" lon="11.1112717"><ele>67.4</ele><time>2026-03-22T11:30:23.394Z</time></trkpt><trkpt lat="43.879945" lon="11.1113383"><ele>66.8</ele><time>2026-03-22T11:30:24.394Z</time></trkpt><trkpt lat="43.8798617" lon="11.1114083"><ele>66.2</ele><time>2026-03-22T11:30:25.394Z</time></trkpt><trkpt lat="43.8797733" lon="11.1114867"><ele>65.6</ele><time>2026-03-22T11:30:26.394Z</time></trkpt><trkpt lat="43.87969" lon="11.1115683"><ele>65.0</ele><time>2026-03-22T11:30:27.394Z</time></trkpt><trkpt lat="43.8796183" lon="11.1116383"><ele>65.0</ele><time>2026-03-22T11:30:28.394Z</time></trkpt><trkpt lat="43.8795617" lon="11.11169"><ele>65.0</ele><time>2026-03-22T11:30:29.393Z</time></trkpt><trkpt lat="43.8795017" lon="11.1117333"><ele>65.0</ele><time>2026-03-22T11:30:30.393Z</time></trkpt><trkpt lat="43.8794383" lon="11.111775"><ele>65.0</ele><time>2026-03-22T11:30:31.394Z</time></trkpt><trkpt lat="43.8793767" lon="11.1118333"><ele>65.0</ele><time>2026-03-22T11:30:32.393Z</time></trkpt><trkpt lat="43.8793083" lon="11.1119033"><ele>65.0</ele><time>2026-03-22T11:30:33.393Z</time></trkpt><trkpt lat="43.8792267" lon="11.11197"><ele>65.0</ele><time>2026-03-22T11:30:34.393Z</time></trkpt><trkpt lat="43.8791433" lon="11.1120483"><ele>65.0</ele><time>2026-03-22T11:30:35.394Z</time></trkpt><trkpt lat="43.8790617" lon="11.112115"><ele>65.0</ele><time>2026-03-22T11:30:36.393Z</time></trkpt><trkpt lat="43.878975" lon="11.1121883"><ele>65.0</ele><time>2026-03-22T11:30:37.394Z</time></trkpt><trkpt lat="43.8788883" lon="11.112265"><ele>65.0</ele><time>2026-03-22T11:30:38.393Z</time></trkpt><trkpt lat="43.8787983" lon="11.112345"><ele>64.83333333333334</ele><time>2026-03-22T11:30:39.394Z</time></trkpt><trkpt lat="43.8787133" lon="11.1124183"><ele>64.66666666666667</ele><time>2026-03-22T11:30:40.393Z</time></trkpt><trkpt lat="43.878635" lon="11.11249"><ele>64.5</ele><time>2026-03-22T11:30:41.394Z</time></trkpt><trkpt lat="43.8785633" lon="11.1125517"><ele>64.33333333333333</ele><time>2026-03-22T11:30:42.393Z</time></trkpt><trkpt lat="43.8784933" lon="11.11261"><ele>64.16666666666666</ele><time>2026-03-22T11:30:43.393Z</time></trkpt><trkpt lat="43.8784217" lon="11.11266"><ele>64.0</ele><time>2026-03-22T11:30:44.393Z</time></trkpt><trkpt lat="43.8783617" lon="11.11271"><ele>63.800000000000004</ele><time>2026-03-22T11:30:45.394Z</time></trkpt><trkpt lat="43.8783033" lon="11.1127633"><ele>63.60000000000001</ele><time>2026-03-22T11:30:46.393Z</time></trkpt><trkpt lat="43.878245" lon="11.112825"><ele>63.4</ele><time>2026-03-22T11:30:47.393Z</time></trkpt><trkpt lat="43.8781633" lon="11.112895"><ele>63.2</ele><time>2026-03-22T11:30:48.393Z</time></trkpt><trkpt lat="43.87806" lon="11.11297"><ele>63.0</ele><time>2026-03-22T11:30:49.394Z</time></trkpt><trkpt lat="43.877945" lon="11.1130633"><ele>63.0</ele><time>2026-03-22T11:30:50.394Z</time></trkpt><trkpt lat="43.8778317" lon="11.1131567"><ele>63.0</ele><time>2026-03-22T11:30:51.393Z</time></trkpt><trkpt lat="43.87772" lon="11.1132533"><ele>63.0</ele><time>2026-03-22T11:30:52.394Z</time></trkpt><trkpt lat="43.8776083" lon="11.1133483"><ele>63.0</ele><time>2026-03-22T11:30:53.393Z</time></trkpt><trkpt lat="43.8774967" lon="11.1134567"><ele>62.75</ele><time>2026-03-22T11:30:54.393Z</time></trkpt><trkpt lat="43.8773833" lon="11.1135533"><ele>62.5</ele><time>2026-03-22T11:30:55.393Z</time></trkpt><trkpt lat="43.8772683" lon="11.113655"><ele>62.25</ele><time>2026-03-22T11:30:56.393Z</time></trkpt><trkpt lat="43.8771517" lon="11.1137567"><ele>62.0</ele><time>2026-03-22T11:30:57.394Z</time></trkpt><trkpt lat="43.8770317" lon="11.1138567"><ele>62.0</ele><time>2026-03-22T11:30:58.393Z</time></trkpt><trkpt lat="43.8769083" lon="11.1139717"><ele>62.0</ele><time>2026-03-22T11:30:59.393Z</time></trkpt><trkpt lat="43.8767833" lon="11.1140883"><ele>62.0</ele><time>2026-03-22T11:31:00.394Z</time></trkpt><trkpt lat="43.876655" lon="11.1142033"><ele>62.66666666666667</ele><time>2026-03-22T11:31:01.393Z</time></trkpt><trkpt lat="43.8765283" lon="11.1143267"><ele>63.33333333333333</ele><time>2026-03-22T11:31:02.394Z</time></trkpt><trkpt lat="43.8763933" lon="11.1144417"><ele>64.0</ele><time>2026-03-22T11:31:03.393Z</time></trkpt><trkpt lat="43.8762567" lon="11.11456"><ele>64.0</ele><time>2026-03-22T11:31:04.394Z</time></trkpt><trkpt lat="43.87612" lon="11.11468"><ele>64.0</ele><time>2026-03-22T11:31:05.393Z</time></trkpt><trkpt lat="43.87598" lon="11.1148117"><ele>64.0</ele><time>2026-03-22T11:31:06.394Z</time></trkpt><trkpt lat="43.875845" lon="11.114935"><ele>63.33333333333333</ele><time>2026-03-22T11:31:07.394Z</time></trkpt><trkpt lat="43.8757067" lon="11.1150583"><ele>62.66666666666667</ele><time>2026-03-22T11:31:08.393Z</time></trkpt><trkpt lat="43.8755683" lon="11.11518"><ele>62.0</ele><time>2026-03-22T11:31:09.394Z</time></trkpt><trkpt lat="43.875435" lon="11.1153067"><ele>62.0</ele><time>2026-03-22T11:31:10.393Z</time></trkpt><trkpt lat="43.8752983" lon="11.11543"><ele>62.0</ele><time>2026-03-22T11:31:11.393Z</time></trkpt><trkpt lat="43.8751633" lon="11.11555"><ele>62.0</ele><time>2026-03-22T11:31:12.393Z</time></trkpt><trkpt lat="43.8750317" lon="11.1156667"><ele>62.0</ele><time>2026-03-22T11:31:13.394Z</time></trkpt><trkpt lat="43.8749033" lon="11.1157833"><ele>62.0</ele><time>2026-03-22T11:31:14.394Z</time></trkpt><trkpt lat="43.8747733" lon="11.1159067"><ele>62.0</ele><time>2026-03-22T11:31:15.393Z</time></trkpt><trkpt lat="43.874645" lon="11.11603"><ele>62.0</ele><time>2026-03-22T11:31:16.394Z</time></trkpt><trkpt lat="43.87452" lon="11.11615"><ele>62.0</ele><time>2026-03-22T11:31:17.393Z</time></trkpt><trkpt lat="43.8743983" lon="11.1162683"><ele>62.0</ele><time>2026-03-22T11:31:18.394Z</time></trkpt><trkpt lat="43.8742733" lon="11.1163733"><ele>62.0</ele><time>2026-03-22T11:31:19.394Z</time></trkpt><trkpt lat="43.8741583" lon="11.1164767"><ele>61.5</ele><time>2026-03-22T11:31:20.394Z</time></trkpt><trkpt lat="43.8740433" lon="11.1165767"><ele>61.0</ele><time>2026-03-22T11:31:21.393Z</time></trkpt><trkpt lat="43.8739383" lon="11.1166733"><ele>60.5</ele><time>2026-03-22T11:31:22.393Z</time></trkpt><trkpt lat="43.873835" lon="11.11677"><ele>60.0</ele><time>2026-03-22T11:31:23.394Z</time></trkpt><trkpt lat="43.8737383" lon="11.11686"><ele>60.0</ele><time>2026-03-22T11:31:24.393Z</time></trkpt><trkpt lat="43.8736433" lon="11.116945"><ele>60.0</ele><time>2026-03-22T11:31:25.393Z</time></trkpt><trkpt lat="43.8735567" lon="11.1170333"><ele>60.0</ele><time>2026-03-22T11:31:26.394Z</time></trkpt><trkpt lat="43.8734767" lon="11.1171067"><ele>60.0</ele><time>2026-03-22T11:31:27.394Z</time></trkpt><trkpt lat="43.8734017" lon="11.11718"><ele>60.0</ele><time>2026-03-22T11:31:28.393Z</time></trkpt><trkpt lat="43.87333" lon="11.1172483"><ele>60.0</ele><time>2026-03-22T11:31:29.394Z</time></trkpt><trkpt lat="43.8732633" lon="11.1173233"><ele>60.0</ele><time>2026-03-22T11:31:30.394Z</time></trkpt><trkpt lat="43.873215" lon="11.1173933"><ele>60.0</ele><time>2026-03-22T11:31:31.393Z</time></trkpt><trkpt lat="43.8731533" lon="11.1174517"><ele>60.0</ele><time>2026-03-22T11:31:33.394Z</time></trkpt><trkpt lat="43.87306" lon="11.1174933"><ele>60.0</ele><time>2026-03-22T11:31:35.394Z</time></trkpt><trkpt lat="43.8729817" lon="11.117525"><ele>60.0</ele><time>2026-03-22T11:31:36.394Z</time></trkpt><trkpt lat="43.8729" lon="11.1175783"><ele>60.0</ele><time>2026-03-22T11:31:37.393Z</time></trkpt><trkpt lat="43.8728133" lon="11.11766"><ele>60.0</ele><time>2026-03-22T11:31:38.394Z</time></trkpt><trkpt lat="43.8727283" lon="11.1177533"><ele>60.0</ele><time>2026-03-22T11:31:39.394Z</time></trkpt><trkpt lat="43.8726433" lon="11.11786"><ele>60.0</ele><time>2026-03-22T11:31:40.393Z</time></trkpt><trkpt lat="43.872565" lon="11.11798"><ele>60.0</ele><time>2026-03-22T11:31:41.393Z</time></trkpt><trkpt lat="43.8724933" lon="11.1181117"><ele>59.75</ele><time>2026-03-22T11:31:42.393Z</time></trkpt><trkpt lat="43.8724317" lon="11.1182567"><ele>59.5</ele><time>2026-03-22T11:31:43.394Z</time></trkpt><trkpt lat="43.8723633" lon="11.1184017"><ele>59.25</ele><time>2026-03-22T11:31:44.393Z</time></trkpt><trkpt lat="43.8722917" lon="11.11854"><ele>59.0</ele><time>2026-03-22T11:31:45.394Z</time></trkpt><trkpt lat="43.872215" lon="11.1186733"><ele>59.0</ele><time>2026-03-22T11:31:46.394Z</time></trkpt><trkpt lat="43.8721317" lon="11.1187967"><ele>59.0</ele><time>2026-03-22T11:31:47.393Z</time></trkpt><trkpt lat="43.8720533" lon="11.1189167"><ele>59.0</ele><time>2026-03-22T11:31:48.393Z</time></trkpt><trkpt lat="43.8719767" lon="11.1190483"><ele>59.0</ele><time>2026-03-22T11:31:49.394Z</time></trkpt><trkpt lat="43.871895" lon="11.1191983"><ele>58.75</ele><time>2026-03-22T11:31:50.393Z</time></trkpt><trkpt lat="43.87182" lon="11.1193567"><ele>58.5</ele><time>2026-03-22T11:31:51.394Z</time></trkpt><trkpt lat="43.8717467" lon="11.119525"><ele>58.25</ele><time>2026-03-22T11:31:52.393Z</time></trkpt><trkpt lat="43.8716717" lon="11.1197033"><ele>58.0</ele><time>2026-03-22T11:31:53.393Z</time></trkpt><trkpt lat="43.8716" lon="11.119875"><ele>58.0</ele><time>2026-03-22T11:31:54.393Z</time></trkpt><trkpt lat="43.8715283" lon="11.1200467"><ele>58.0</ele><time>2026-03-22T11:31:55.393Z</time></trkpt><trkpt lat="43.8714583" lon="11.1202217"><ele>58.0</ele><time>2026-03-22T11:31:56.393Z</time></trkpt><trkpt lat="43.871385" lon="11.1204"><ele>58.0</ele><time>2026-03-22T11:31:57.394Z</time></trkpt><trkpt lat="43.8713133" lon="11.1205817"><ele>57.75</ele><time>2026-03-22T11:31:58.393Z</time></trkpt><trkpt lat="43.8712417" lon="11.120765"><ele>57.5</ele><time>2026-03-22T11:31:59.393Z</time></trkpt><trkpt lat="43.8711717" lon="11.12094"><ele>57.25</ele><time>2026-03-22T11:32:00.394Z</time></trkpt><trkpt lat="43.8711033" lon="11.1211133"><ele>57.0</ele><time>2026-03-22T11:32:01.394Z</time></trkpt><trkpt lat="43.8710233" lon="11.1212917"><ele>57.0</ele><time>2026-03-22T11:32:02.394Z</time></trkpt><trkpt lat="43.8709367" lon="11.1214783"><ele>57.0</ele><time>2026-03-22T11:32:03.393Z</time></trkpt><trkpt lat="43.8708567" lon="11.1216367"><ele>57.0</ele><time>2026-03-22T11:32:04.393Z</time></trkpt><trkpt lat="43.87077" lon="11.1217917"><ele>57.0</ele><time>2026-03-22T11:32:05.393Z</time></trkpt><trkpt lat="43.870685" lon="11.1219467"><ele>57.0</ele><time>2026-03-22T11:32:06.394Z</time></trkpt><trkpt lat="43.870605" lon="11.122105"><ele>57.0</ele><time>2026-03-22T11:32:07.394Z</time></trkpt><trkpt lat="43.8705217" lon="11.122265"><ele>57.0</ele><time>2026-03-22T11:32:08.393Z</time></trkpt><trkpt lat="43.8704417" lon="11.1224233"><ele>57.0</ele><time>2026-03-22T11:32:09.394Z</time></trkpt><trkpt lat="43.8703583" lon="11.12258"><ele>57.25</ele><time>2026-03-22T11:32:10.393Z</time></trkpt><trkpt lat="43.8702717" lon="11.12274"><ele>57.5</ele><time>2026-03-22T11:32:11.393Z</time></trkpt><trkpt lat="43.870185" lon="11.122895"><ele>57.75</ele><time>2026-03-22T11:32:12.393Z</time></trkpt><trkpt lat="43.870095" lon="11.12306"><ele>58.0</ele><time>2026-03-22T11:32:13.394Z</time></trkpt><trkpt lat="43.8700067" lon="11.1232167"><ele>57.0</ele><time>2026-03-22T11:32:14.393Z</time></trkpt><trkpt lat="43.86992" lon="11.123375"><ele>56.0</ele><time>2026-03-22T11:32:15.394Z</time></trkpt><trkpt lat="43.8698283" lon="11.1235517"><ele>55.0</ele><time>2026-03-22T11:32:16.394Z</time></trkpt><trkpt lat="43.869735" lon="11.12372"><ele>55.0</ele><time>2026-03-22T11:32:17.394Z</time></trkpt><trkpt lat="43.869645" lon="11.12388"><ele>55.0</ele><time>2026-03-22T11:32:18.393Z</time></trkpt><trkpt lat="43.8695517" lon="11.12405"><ele>55.0</ele><time>2026-03-22T11:32:19.393Z</time></trkpt><trkpt lat="43.869455" lon="11.1242067"><ele>55.0</ele><time>2026-03-22T11:32:20.393Z</time></trkpt><trkpt lat="43.8693533" lon="11.124355"><ele>55.25</ele><time>2026-03-22T11:32:21.394Z</time></trkpt><trkpt lat="43.869245" lon="11.124495"><ele>55.5</ele><time>2026-03-22T11:32:22.394Z</time></trkpt><trkpt lat="43.8691317" lon="11.1246267"><ele>55.75</ele><time>2026-03-22T11:32:23.393Z</time></trkpt><trkpt lat="43.8690167" lon="11.124755"><ele>56.0</ele><time>2026-03-22T11:32:24.393Z</time></trkpt><trkpt lat="43.8689033" lon="11.124885"><ele>56.75</ele><time>2026-03-22T11:32:25.394Z</time></trkpt><trkpt lat="43.868795" lon="11.1250133"><ele>57.5</ele><time>2026-03-22T11:32:26.394Z</time></trkpt><trkpt lat="43.868685" lon="11.12514"><ele>58.25</ele><time>2026-03-22T11:32:27.394Z</time></trkpt><trkpt lat="43.8685733" lon="11.1252783"><ele>59.0</ele><time>2026-03-22T11:32:28.394Z</time></trkpt><trkpt lat="43.8684567" lon="11.1254133"><ele>58.75</ele><time>2026-03-22T11:32:29.394Z</time></trkpt><trkpt lat="43.86835" lon="11.125535"><ele>58.5</ele><time>2026-03-22T11:32:30.394Z</time></trkpt><trkpt lat="43.8682533" lon="11.1256533"><ele>58.25</ele><time>2026-03-22T11:32:31.394Z</time></trkpt><trkpt lat="43.8681733" lon="11.12577"><ele>58.0</ele><time>2026-03-22T11:32:32.394Z</time></trkpt><trkpt lat="43.8681067" lon="11.12589"><ele>58.0</ele><time>2026-03-22T11:32:33.393Z</time></trkpt><trkpt lat="43.8680433" lon="11.1260083"><ele>58.0</ele><time>2026-03-22T11:32:34.393Z</time></trkpt><trkpt lat="43.8679783" lon="11.1261183"><ele>58.0</ele><time>2026-03-22T11:32:35.393Z</time></trkpt><trkpt lat="43.8679183" lon="11.1262267"><ele>58.0</ele><time>2026-03-22T11:32:36.393Z</time></trkpt><trkpt lat="43.8678617" lon="11.126325"><ele>58.0</ele><time>2026-03-22T11:32:37.392Z</time></trkpt><trkpt lat="43.8678083" lon="11.1264283"><ele>58.0</ele><time>2026-03-22T11:32:38.393Z</time></trkpt><trkpt lat="43.867745" lon="11.1265583"><ele>58.0</ele><time>2026-03-22T11:32:39.392Z</time></trkpt><trkpt lat="43.8676733" lon="11.1267017"><ele>58.0</ele><time>2026-03-22T11:32:40.393Z</time></trkpt><trkpt lat="43.8675933" lon="11.1268367"><ele>58.0</ele><time>2026-03-22T11:32:41.393Z</time></trkpt><trkpt lat="43.8675183" lon="11.1269733"><ele>58.0</ele><time>2026-03-22T11:32:42.393Z</time></trkpt><trkpt lat="43.8674333" lon="11.127105"><ele>58.0</ele><time>2026-03-22T11:32:43.392Z</time></trkpt><trkpt lat="43.86735" lon="11.127255"><ele>58.0</ele><time>2026-03-22T11:32:44.392Z</time></trkpt><trkpt lat="43.8672617" lon="11.1274117"><ele>58.0</ele><time>2026-03-22T11:32:45.392Z</time></trkpt><trkpt lat="43.86718" lon="11.12758"><ele>58.0</ele><time>2026-03-22T11:32:46.393Z</time></trkpt><trkpt lat="43.8670983" lon="11.1277367"><ele>58.0</ele><time>2026-03-22T11:32:47.393Z</time></trkpt><trkpt lat="43.8670183" lon="11.127895"><ele>58.0</ele><time>2026-03-22T11:32:48.393Z</time></trkpt><trkpt lat="43.8669383" lon="11.1280483"><ele>58.0</ele><time>2026-03-22T11:32:49.392Z</time></trkpt><trkpt lat="43.8668533" lon="11.1282117"><ele>57.5</ele><time>2026-03-22T11:32:50.393Z</time></trkpt><trkpt lat="43.86677" lon="11.1283817"><ele>57.0</ele><time>2026-03-22T11:32:51.392Z</time></trkpt><trkpt lat="43.8666933" lon="11.1285467"><ele>56.5</ele><time>2026-03-22T11:32:52.392Z</time></trkpt><trkpt lat="43.8666083" lon="11.128715"><ele>56.0</ele><time>2026-03-22T11:32:53.393Z</time></trkpt><trkpt lat="43.8665183" lon="11.1288733"><ele>56.0</ele><time>2026-03-22T11:32:54.392Z</time></trkpt><trkpt lat="43.86642" lon="11.1290233"><ele>56.0</ele><time>2026-03-22T11:32:55.393Z</time></trkpt><trkpt lat="43.86632" lon="11.1291717"><ele>56.0</ele><time>2026-03-22T11:32:56.392Z</time></trkpt><trkpt lat="43.8662183" lon="11.1293167"><ele>56.0</ele><time>2026-03-22T11:32:57.393Z</time></trkpt><trkpt lat="43.86612" lon="11.1294633"><ele>56.25</ele><time>2026-03-22T11:32:58.392Z</time></trkpt><trkpt lat="43.8660267" lon="11.129615"><ele>56.5</ele><time>2026-03-22T11:32:59.393Z</time></trkpt><trkpt lat="43.86594" lon="11.1297633"><ele>56.75</ele><time>2026-03-22T11:33:00.393Z</time></trkpt><trkpt lat="43.86585" lon="11.1299117"><ele>57.0</ele><time>2026-03-22T11:33:01.393Z</time></trkpt><trkpt lat="43.8657633" lon="11.13006"><ele>56.25</ele><time>2026-03-22T11:33:02.392Z</time></trkpt><trkpt lat="43.8656717" lon="11.1302117"><ele>55.5</ele><time>2026-03-22T11:33:03.392Z</time></trkpt><trkpt lat="43.8655783" lon="11.1303667"><ele>54.75</ele><time>2026-03-22T11:33:04.394Z</time></trkpt><trkpt lat="43.8654883" lon="11.1305217"><ele>54.0</ele><time>2026-03-22T11:33:05.394Z</time></trkpt><trkpt lat="43.8653967" lon="11.130675"><ele>54.75</ele><time>2026-03-22T11:33:06.393Z</time></trkpt><trkpt lat="43.865305" lon="11.1308367"><ele>55.5</ele><time>2026-03-22T11:33:07.393Z</time></trkpt><trkpt lat="43.8652117" lon="11.130995"><ele>56.25</ele><time>2026-03-22T11:33:08.394Z</time></trkpt><trkpt lat="43.86512" lon="11.1311583"><ele>57.0</ele><time>2026-03-22T11:33:09.393Z</time></trkpt><trkpt lat="43.8650283" lon="11.1313233"><ele>57.0</ele><time>2026-03-22T11:33:10.394Z</time></trkpt><trkpt lat="43.8649383" lon="11.1314833"><ele>57.0</ele><time>2026-03-22T11:33:11.393Z</time></trkpt><trkpt lat="43.864845" lon="11.1316433"><ele>57.0</ele><time>2026-03-22T11:33:12.393Z</time></trkpt><trkpt lat="43.864755" lon="11.1318"><ele>57.0</ele><time>2026-03-22T11:33:13.393Z</time></trkpt><trkpt lat="43.8646617" lon="11.1319633"><ele>57.66666666666667</ele><time>2026-03-22T11:33:14.393Z</time></trkpt><trkpt lat="43.864565" lon="11.1321267"><ele>58.333333333333336</ele><time>2026-03-22T11:33:15.393Z</time></trkpt><trkpt lat="43.86447" lon="11.132285"><ele>59.0</ele><time>2026-03-22T11:33:16.394Z</time></trkpt><trkpt lat="43.8643717" lon="11.1324483"><ele>58.0</ele><time>2026-03-22T11:33:17.393Z</time></trkpt><trkpt lat="43.8642783" lon="11.1326067"><ele>57.0</ele><time>2026-03-22T11:33:18.394Z</time></trkpt><trkpt lat="43.864185" lon="11.1327633"><ele>56.0</ele><time>2026-03-22T11:33:19.394Z</time></trkpt><trkpt lat="43.86409" lon="11.132915"><ele>55.0</ele><time>2026-03-22T11:33:20.393Z</time></trkpt><trkpt lat="43.8640033" lon="11.1330717"><ele>55.0</ele><time>2026-03-22T11:33:21.393Z</time></trkpt><trkpt lat="43.8639083" lon="11.1332183"><ele>55.0</ele><time>2026-03-22T11:33:22.393Z</time></trkpt><trkpt lat="43.8638217" lon="11.1333633"><ele>55.0</ele><time>2026-03-22T11:33:23.393Z</time></trkpt><trkpt lat="43.86374" lon="11.1335133"><ele>55.0</ele><time>2026-03-22T11:33:24.394Z</time></trkpt><trkpt lat="43.8636617" lon="11.133665"><ele>55.4</ele><time>2026-03-22T11:33:25.394Z</time></trkpt><trkpt lat="43.863595" lon="11.1338033"><ele>55.8</ele><time>2026-03-22T11:33:26.394Z</time></trkpt><trkpt lat="43.8635367" lon="11.1339333"><ele>56.2</ele><time>2026-03-22T11:33:27.393Z</time></trkpt><trkpt lat="43.8634733" lon="11.1340433"><ele>56.6</ele><time>2026-03-22T11:33:28.394Z</time></trkpt><trkpt lat="43.8634117" lon="11.1341483"><ele>57.0</ele><time>2026-03-22T11:33:29.393Z</time></trkpt><trkpt lat="43.863355" lon="11.1342667"><ele>57.0</ele><time>2026-03-22T11:33:30.393Z</time></trkpt><trkpt lat="43.8632967" lon="11.1343867"><ele>57.0</ele><time>2026-03-22T11:33:31.393Z</time></trkpt><trkpt lat="43.8632383" lon="11.1345033"><ele>57.0</ele><time>2026-03-22T11:33:32.393Z</time></trkpt><trkpt lat="43.86318" lon="11.1346217"><ele>57.0</ele><time>2026-03-22T11:33:33.393Z</time></trkpt><trkpt lat="43.863115" lon="11.1347417"><ele>57.0</ele><time>2026-03-22T11:33:34.393Z</time></trkpt><trkpt lat="43.8630517" lon="11.1348683"><ele>58.400000000000006</ele><time>2026-03-22T11:33:35.393Z</time></trkpt><trkpt lat="43.8629917" lon="11.1349967"><ele>59.800000000000004</ele><time>2026-03-22T11:33:36.394Z</time></trkpt><trkpt lat="43.8629317" lon="11.1351117"><ele>61.2</ele><time>2026-03-22T11:33:37.395Z</time></trkpt><trkpt lat="43.862875" lon="11.1352283"><ele>62.6</ele><time>2026-03-22T11:33:38.394Z</time></trkpt><trkpt lat="43.862815" lon="11.1353483"><ele>64.0</ele><time>2026-03-22T11:33:39.393Z</time></trkpt><trkpt lat="43.862755" lon="11.1354683"><ele>64.0</ele><time>2026-03-22T11:33:40.393Z</time></trkpt><trkpt lat="43.8626967" lon="11.1355883"><ele>64.0</ele><time>2026-03-22T11:33:41.393Z</time></trkpt><trkpt lat="43.8626383" lon="11.1357067"><ele>64.0</ele><time>2026-03-22T11:33:42.393Z</time></trkpt><trkpt lat="43.8625833" lon="11.1358217"><ele>64.0</ele><time>2026-03-22T11:33:43.393Z</time></trkpt><trkpt lat="43.86252" lon="11.1359333"><ele>64.0</ele><time>2026-03-22T11:33:44.394Z</time></trkpt><trkpt lat="43.8624583" lon="11.1360483"><ele>62.800000000000004</ele><time>2026-03-22T11:33:45.394Z</time></trkpt><trkpt lat="43.8624" lon="11.1361633"><ele>61.60000000000001</ele><time>2026-03-22T11:33:46.393Z</time></trkpt><trkpt lat="43.8623417" lon="11.1362783"><ele>60.4</ele><time>2026-03-22T11:33:47.394Z</time></trkpt><trkpt lat="43.8622817" lon="11.1363867"><ele>59.2</ele><time>2026-03-22T11:33:48.394Z</time></trkpt><trkpt lat="43.8622217" lon="11.136495"><ele>58.0</ele><time>2026-03-22T11:33:49.393Z</time></trkpt><trkpt lat="43.8621633" lon="11.1366017"><ele>57.99999999999999</ele><time>2026-03-22T11:33:50.393Z</time></trkpt><trkpt lat="43.8621083" lon="11.136705"><ele>58.0</ele><time>2026-03-22T11:33:51.394Z</time></trkpt><trkpt lat="43.86205" lon="11.13679"><ele>58.0</ele><time>2026-03-22T11:33:52.394Z</time></trkpt><trkpt lat="43.8619933" lon="11.136865"><ele>58.0</ele><time>2026-03-22T11:33:53.394Z</time></trkpt><trkpt lat="43.8619317" lon="11.1369467"><ele>57.99999999999999</ele><time>2026-03-22T11:33:54.393Z</time></trkpt><trkpt lat="43.8618617" lon="11.1370317"><ele>58.0</ele><time>2026-03-22T11:33:55.394Z</time></trkpt><trkpt lat="43.8617867" lon="11.1371233"><ele>57.0</ele><time>2026-03-22T11:33:56.394Z</time></trkpt><trkpt lat="43.861715" lon="11.137225"><ele>56.0</ele><time>2026-03-22T11:33:57.393Z</time></trkpt><trkpt lat="43.8616433" lon="11.1373333"><ele>55.0</ele><time>2026-03-22T11:33:58.393Z</time></trkpt><trkpt lat="43.861575" lon="11.1374267"><ele>54.0</ele><time>2026-03-22T11:33:59.394Z</time></trkpt><trkpt lat="43.8615133" lon="11.1375233"><ele>53.0</ele><time>2026-03-22T11:34:00.394Z</time></trkpt><trkpt lat="43.8614433" lon="11.1376117"><ele>53.0</ele><time>2026-03-22T11:34:01.394Z</time></trkpt><trkpt lat="43.861375" lon="11.1377"><ele>53.0</ele><time>2026-03-22T11:34:02.394Z</time></trkpt><trkpt lat="43.86131" lon="11.137785"><ele>53.0</ele><time>2026-03-22T11:34:03.393Z</time></trkpt><trkpt lat="43.8612583" lon="11.137855"><ele>53.0</ele><time>2026-03-22T11:34:04.393Z</time></trkpt><trkpt lat="43.8611867" lon="11.1379733"><ele>53.0</ele><time>2026-03-22T11:34:06.394Z</time></trkpt><trkpt lat="43.861085" lon="11.1380717"><ele>53.00000000000001</ele><time>2026-03-22T11:34:08.393Z</time></trkpt><trkpt lat="43.8610267" lon="11.1381167"><ele>53.0</ele><time>2026-03-22T11:34:09.393Z</time></trkpt><trkpt lat="43.8609383" lon="11.1382483"><ele>53.0</ele><time>2026-03-22T11:34:11.393Z</time></trkpt><trkpt lat="43.8608967" lon="11.1383267"><ele>53.0</ele><time>2026-03-22T11:34:12.393Z</time></trkpt><trkpt lat="43.86085" lon="11.1383933"><ele>53.00000000000001</ele><time>2026-03-22T11:34:13.394Z</time></trkpt><trkpt lat="43.8608017" lon="11.13845"><ele>53.0</ele><time>2026-03-22T11:34:14.393Z</time></trkpt><trkpt lat="43.8607583" lon="11.1385133"><ele>53.0</ele><time>2026-03-22T11:34:15.393Z</time></trkpt><trkpt lat="43.860695" lon="11.1386033"><ele>53.0</ele><time>2026-03-22T11:34:17.393Z</time></trkpt><trkpt lat="43.860625" lon="11.1386817"><ele>53.0</ele><time>2026-03-22T11:34:19.393Z</time></trkpt><trkpt lat="43.8605417" lon="11.1387817"><ele>53.0</ele><time>2026-03-22T11:34:21.393Z</time></trkpt><trkpt lat="43.86045" lon="11.1388917"><ele>53.0</ele><time>2026-03-22T11:34:23.393Z</time></trkpt><trkpt lat="43.8604" lon="11.1389517"><ele>53.00000000000001</ele><time>2026-03-22T11:34:24.394Z</time></trkpt><trkpt lat="43.8603017" lon="11.1390433"><ele>53.0</ele><time>2026-03-22T11:34:26.393Z</time></trkpt><trkpt lat="43.8602467" lon="11.1391067"><ele>53.0</ele><time>2026-03-22T11:34:27.393Z</time></trkpt><trkpt lat="43.8601983" lon="11.1391733"><ele>53.0</ele><time>2026-03-22T11:34:28.394Z</time></trkpt><trkpt lat="43.86015" lon="11.1392583"><ele>53.00000000000001</ele><time>2026-03-22T11:34:29.393Z</time></trkpt><trkpt lat="43.8600933" lon="11.1393483"><ele>53.0</ele><time>2026-03-22T11:34:30.394Z</time></trkpt><trkpt lat="43.8600283" lon="11.139445"><ele>53.2</ele><time>2026-03-22T11:34:31.393Z</time></trkpt><trkpt lat="43.8599583" lon="11.139545"><ele>53.4</ele><time>2026-03-22T11:34:32.393Z</time></trkpt><trkpt lat="43.8598883" lon="11.1396467"><ele>53.60000000000001</ele><time>2026-03-22T11:34:33.394Z</time></trkpt><trkpt lat="43.8598133" lon="11.139755"><ele>53.800000000000004</ele><time>2026-03-22T11:34:34.394Z</time></trkpt><trkpt lat="43.8597317" lon="11.139865"><ele>54.0</ele><time>2026-03-22T11:34:35.393Z</time></trkpt><trkpt lat="43.8596467" lon="11.1399817"><ele>53.5</ele><time>2026-03-22T11:34:36.393Z</time></trkpt><trkpt lat="43.85956" lon="11.1400967"><ele>53.0</ele><time>2026-03-22T11:34:37.393Z</time></trkpt><trkpt lat="43.85948" lon="11.14022"><ele>52.5</ele><time>2026-03-22T11:34:38.394Z</time></trkpt><trkpt lat="43.8594" lon="11.1403433"><ele>52.0</ele><time>2026-03-22T11:34:39.394Z</time></trkpt><trkpt lat="43.8593167" lon="11.140465"><ele>52.2</ele><time>2026-03-22T11:34:40.393Z</time></trkpt><trkpt lat="43.859235" lon="11.1405833"><ele>52.400000000000006</ele><time>2026-03-22T11:34:41.394Z</time></trkpt><trkpt lat="43.859165" lon="11.1407083"><ele>52.599999999999994</ele><time>2026-03-22T11:34:42.393Z</time></trkpt><trkpt lat="43.8591217" lon="11.1408233"><ele>52.8</ele><time>2026-03-22T11:34:43.394Z</time></trkpt><trkpt lat="43.8590817" lon="11.1409267"><ele>53.0</ele><time>2026-03-22T11:34:44.394Z</time></trkpt><trkpt lat="43.85904" lon="11.1410317"><ele>53.2</ele><time>2026-03-22T11:34:45.393Z</time></trkpt><trkpt lat="43.858995" lon="11.141145"><ele>53.4</ele><time>2026-03-22T11:34:46.393Z</time></trkpt><trkpt lat="43.8589567" lon="11.14126"><ele>53.60000000000001</ele><time>2026-03-22T11:34:47.393Z</time></trkpt><trkpt lat="43.8589283" lon="11.1413583"><ele>53.800000000000004</ele><time>2026-03-22T11:34:48.393Z</time></trkpt><trkpt lat="43.8588867" lon="11.1414983"><ele>54.0</ele><time>2026-03-22T11:34:50.393Z</time></trkpt><trkpt lat="43.858855" lon="11.1416367"><ele>54.0</ele><time>2026-03-22T11:34:52.393Z</time></trkpt><trkpt lat="43.85882" lon="11.1417933"><ele>54.00000000000001</ele><time>2026-03-22T11:34:54.393Z</time></trkpt><trkpt lat="43.85878" lon="11.141955"><ele>54.00000000000001</ele><time>2026-03-22T11:34:56.394Z</time></trkpt><trkpt lat="43.8587583" lon="11.142045"><ele>54.0</ele><time>2026-03-22T11:34:57.394Z</time></trkpt><trkpt lat="43.858735" lon="11.1421467"><ele>54.0</ele><time>2026-03-22T11:34:58.393Z</time></trkpt><trkpt lat="43.85871" lon="11.142265"><ele>53.6</ele><time>2026-03-22T11:34:59.393Z</time></trkpt><trkpt lat="43.8586833" lon="11.1423833"><ele>53.2</ele><time>2026-03-22T11:35:00.394Z</time></trkpt><trkpt lat="43.8586517" lon="11.1425083"><ele>52.800000000000004</ele><time>2026-03-22T11:35:01.393Z</time></trkpt><trkpt lat="43.858625" lon="11.1426317"><ele>52.400000000000006</ele><time>2026-03-22T11:35:02.394Z</time></trkpt><trkpt lat="43.8585967" lon="11.1427517"><ele>52.0</ele><time>2026-03-22T11:35:03.393Z</time></trkpt><trkpt lat="43.858565" lon="11.14287"><ele>52.0</ele><time>2026-03-22T11:35:04.393Z</time></trkpt><trkpt lat="43.8585367" lon="11.1429967"><ele>52.0</ele><time>2026-03-22T11:35:05.394Z</time></trkpt><trkpt lat="43.8585183" lon="11.1431283"><ele>52.0</ele><time>2026-03-22T11:35:06.393Z</time></trkpt><trkpt lat="43.8585167" lon="11.14327"><ele>52.0</ele><time>2026-03-22T11:35:07.393Z</time></trkpt><trkpt lat="43.858515" lon="11.143405"><ele>52.0</ele><time>2026-03-22T11:35:08.394Z</time></trkpt><trkpt lat="43.8585217" lon="11.14354"><ele>51.8</ele><time>2026-03-22T11:35:09.394Z</time></trkpt><trkpt lat="43.8585267" lon="11.14367"><ele>51.6</ele><time>2026-03-22T11:35:10.394Z</time></trkpt><trkpt lat="43.8585367" lon="11.1437983"><ele>51.4</ele><time>2026-03-22T11:35:11.394Z</time></trkpt><trkpt lat="43.8585433" lon="11.1439017"><ele>51.199999999999996</ele><time>2026-03-22T11:35:12.393Z</time></trkpt><trkpt lat="43.8585483" lon="11.1440017"><ele>51.0</ele><time>2026-03-22T11:35:13.394Z</time></trkpt><trkpt lat="43.85856" lon="11.14418"><ele>50.833333333333336</ele><time>2026-03-22T11:35:15.394Z</time></trkpt><trkpt lat="43.85856" lon="11.1442833"><ele>50.66666666666667</ele><time>2026-03-22T11:35:16.394Z</time></trkpt><trkpt lat="43.858545" lon="11.14439"><ele>50.5</ele><time>2026-03-22T11:35:17.394Z</time></trkpt><trkpt lat="43.8585067" lon="11.1444883"><ele>50.333333333333336</ele><time>2026-03-22T11:35:18.394Z</time></trkpt><trkpt lat="43.858455" lon="11.1445833"><ele>50.16666666666667</ele><time>2026-03-22T11:35:19.393Z</time></trkpt><trkpt lat="43.8584067" lon="11.1446833"><ele>50.0</ele><time>2026-03-22T11:35:20.394Z</time></trkpt><trkpt lat="43.858365" lon="11.1448"><ele>51.0</ele><time>2026-03-22T11:35:21.393Z</time></trkpt><trkpt lat="43.85832" lon="11.1449267"><ele>52.0</ele><time>2026-03-22T11:35:22.394Z</time></trkpt><trkpt lat="43.85826" lon="11.1450567"><ele>53.0</ele><time>2026-03-22T11:35:23.394Z</time></trkpt><trkpt lat="43.8581833" lon="11.145185"><ele>54.0</ele><time>2026-03-22T11:35:24.393Z</time></trkpt><trkpt lat="43.858105" lon="11.1453133"><ele>54.0</ele><time>2026-03-22T11:35:25.394Z</time></trkpt><trkpt lat="43.8580333" lon="11.145445"><ele>54.0</ele><time>2026-03-22T11:35:26.393Z</time></trkpt><trkpt lat="43.857975" lon="11.14559"><ele>54.0</ele><time>2026-03-22T11:35:27.393Z</time></trkpt><trkpt lat="43.8579283" lon="11.1457433"><ele>54.0</ele><time>2026-03-22T11:35:28.393Z</time></trkpt><trkpt lat="43.85789" lon="11.1459067"><ele>54.0</ele><time>2026-03-22T11:35:29.393Z</time></trkpt><trkpt lat="43.8578517" lon="11.1460733"><ele>54.0</ele><time>2026-03-22T11:35:30.394Z</time></trkpt><trkpt lat="43.857805" lon="11.146235"><ele>54.0</ele><time>2026-03-22T11:35:31.393Z</time></trkpt><trkpt lat="43.8577617" lon="11.1463933"><ele>54.0</ele><time>2026-03-22T11:35:32.394Z</time></trkpt><trkpt lat="43.8577317" lon="11.1465583"><ele>54.25</ele><time>2026-03-22T11:35:33.393Z</time></trkpt><trkpt lat="43.8577017" lon="11.1467283"><ele>54.5</ele><time>2026-03-22T11:35:34.394Z</time></trkpt><trkpt lat="43.8576733" lon="11.1469017"><ele>54.75</ele><time>2026-03-22T11:35:35.393Z</time></trkpt><trkpt lat="43.8576417" lon="11.1470733"><ele>55.0</ele><time>2026-03-22T11:35:36.393Z</time></trkpt><trkpt lat="43.8576017" lon="11.14724"><ele>55.0</ele><time>2026-03-22T11:35:37.393Z</time></trkpt><trkpt lat="43.8575583" lon="11.14741"><ele>55.0</ele><time>2026-03-22T11:35:38.393Z</time></trkpt><trkpt lat="43.857505" lon="11.1475767"><ele>55.0</ele><time>2026-03-22T11:35:39.394Z</time></trkpt><trkpt lat="43.8574483" lon="11.1477317"><ele>55.0</ele><time>2026-03-22T11:35:40.394Z</time></trkpt><trkpt lat="43.857385" lon="11.1478817"><ele>55.0</ele><time>2026-03-22T11:35:41.394Z</time></trkpt><trkpt lat="43.8573167" lon="11.1480333"><ele>55.0</ele><time>2026-03-22T11:35:42.393Z</time></trkpt><trkpt lat="43.857245" lon="11.1481833"><ele>55.0</ele><time>2026-03-22T11:35:43.393Z</time></trkpt><trkpt lat="43.8571683" lon="11.1483317"><ele>55.0</ele><time>2026-03-22T11:35:44.394Z</time></trkpt><trkpt lat="43.8571" lon="11.1484783"><ele>55.25</ele><time>2026-03-22T11:35:45.393Z</time></trkpt><trkpt lat="43.85704" lon="11.148625"><ele>55.5</ele><time>2026-03-22T11:35:46.394Z</time></trkpt><trkpt lat="43.8569717" lon="11.1487733"><ele>55.75</ele><time>2026-03-22T11:35:47.393Z</time></trkpt><trkpt lat="43.8568983" lon="11.1489233"><ele>56.0</ele><time>2026-03-22T11:35:48.393Z</time></trkpt><trkpt lat="43.8568283" lon="11.1490667"><ele>55.25</ele><time>2026-03-22T11:35:49.394Z</time></trkpt><trkpt lat="43.85676" lon="11.1492167"><ele>54.5</ele><time>2026-03-22T11:35:50.393Z</time></trkpt><trkpt lat="43.8566917" lon="11.14937"><ele>53.75</ele><time>2026-03-22T11:35:51.394Z</time></trkpt><trkpt lat="43.8566233" lon="11.1495233"><ele>53.0</ele><time>2026-03-22T11:35:52.393Z</time></trkpt><trkpt lat="43.8565533" lon="11.1496767"><ele>53.0</ele><time>2026-03-22T11:35:53.394Z</time></trkpt><trkpt lat="43.856485" lon="11.1498217"><ele>53.0</ele><time>2026-03-22T11:35:54.394Z</time></trkpt><trkpt lat="43.8564233" lon="11.14996"><ele>53.0</ele><time>2026-03-22T11:35:55.394Z</time></trkpt><trkpt lat="43.8563767" lon="11.15008"><ele>53.0</ele><time>2026-03-22T11:35:56.393Z</time></trkpt><trkpt lat="43.8563383" lon="11.15018"><ele>53.0</ele><time>2026-03-22T11:35:57.393Z</time></trkpt><trkpt lat="43.8562933" lon="11.1502833"><ele>53.2</ele><time>2026-03-22T11:35:58.394Z</time></trkpt><trkpt lat="43.8562417" lon="11.15037"><ele>53.4</ele><time>2026-03-22T11:35:59.394Z</time></trkpt><trkpt lat="43.85618" lon="11.1504733"><ele>53.60000000000001</ele><time>2026-03-22T11:36:01.394Z</time></trkpt><trkpt lat="43.8561217" lon="11.15058"><ele>53.800000000000004</ele><time>2026-03-22T11:36:03.394Z</time></trkpt><trkpt lat="43.8560533" lon="11.150685"><ele>54.0</ele><time>2026-03-22T11:36:05.393Z</time></trkpt><trkpt lat="43.8559683" lon="11.15078"><ele>54.2</ele><time>2026-03-22T11:36:07.393Z</time></trkpt><trkpt lat="43.8558833" lon="11.150895"><ele>54.400000000000006</ele><time>2026-03-22T11:36:09.393Z</time></trkpt><trkpt lat="43.855855" lon="11.1509983"><ele>54.6</ele><time>2026-03-22T11:36:10.393Z</time></trkpt><trkpt lat="43.855825" lon="11.151115"><ele>54.8</ele><time>2026-03-22T11:36:11.394Z</time></trkpt><trkpt lat="43.8557933" lon="11.15124"><ele>55.0</ele><time>2026-03-22T11:36:12.393Z</time></trkpt><trkpt lat="43.8557583" lon="11.1513733"><ele>55.0</ele><time>2026-03-22T11:36:13.393Z</time></trkpt><trkpt lat="43.8557033" lon="11.151505"><ele>55.0</ele><time>2026-03-22T11:36:14.393Z</time></trkpt><trkpt lat="43.8556417" lon="11.1516433"><ele>55.0</ele><time>2026-03-22T11:36:15.393Z</time></trkpt><trkpt lat="43.85558" lon="11.1517817"><ele>55.0</ele><time>2026-03-22T11:36:16.394Z</time></trkpt><trkpt lat="43.85553" lon="11.1519367"><ele>55.0</ele><time>2026-03-22T11:36:17.394Z</time></trkpt><trkpt lat="43.8554667" lon="11.1520917"><ele>55.0</ele><time>2026-03-22T11:36:18.394Z</time></trkpt><trkpt lat="43.8554067" lon="11.1522467"><ele>55.0</ele><time>2026-03-22T11:36:19.394Z</time></trkpt><trkpt lat="43.855345" lon="11.1524017"><ele>55.0</ele><time>2026-03-22T11:36:20.394Z</time></trkpt><trkpt lat="43.8552867" lon="11.1525583"><ele>55.0</ele><time>2026-03-22T11:36:21.394Z</time></trkpt><trkpt lat="43.85523" lon="11.15272"><ele>55.0</ele><time>2026-03-22T11:36:22.394Z</time></trkpt><trkpt lat="43.85518" lon="11.152885"><ele>55.0</ele><time>2026-03-22T11:36:23.394Z</time></trkpt><trkpt lat="43.8551367" lon="11.1530533"><ele>55.0</ele><time>2026-03-22T11:36:24.393Z</time></trkpt><trkpt lat="43.855105" lon="11.1532233"><ele>55.25</ele><time>2026-03-22T11:36:25.393Z</time></trkpt><trkpt lat="43.8550833" lon="11.153395"><ele>55.5</ele><time>2026-03-22T11:36:26.393Z</time></trkpt><trkpt lat="43.8550633" lon="11.1535667"><ele>55.75</ele><time>2026-03-22T11:36:27.394Z</time></trkpt><trkpt lat="43.8550517" lon="11.1537367"><ele>56.0</ele><time>2026-03-22T11:36:28.393Z</time></trkpt><trkpt lat="43.855045" lon="11.1538967"><ele>55.833333333333336</ele><time>2026-03-22T11:36:29.393Z</time></trkpt><trkpt lat="43.8550417" lon="11.1540417"><ele>55.66666666666667</ele><time>2026-03-22T11:36:30.394Z</time></trkpt><trkpt lat="43.8550333" lon="11.1541683"><ele>55.5</ele><time>2026-03-22T11:36:31.394Z</time></trkpt><trkpt lat="43.8550183" lon="11.1542783"><ele>55.33333333333333</ele><time>2026-03-22T11:36:32.394Z</time></trkpt><trkpt lat="43.85499" lon="11.1543833"><ele>55.166666666666664</ele><time>2026-03-22T11:36:33.394Z</time></trkpt><trkpt lat="43.8549417" lon="11.1544783"><ele>55.0</ele><time>2026-03-22T11:36:34.394Z</time></trkpt><trkpt lat="43.8548917" lon="11.1545667"><ele>54.99999999999999</ele><time>2026-03-22T11:36:35.394Z</time></trkpt><trkpt lat="43.8548533" lon="11.1546517"><ele>55.0</ele><time>2026-03-22T11:36:36.393Z</time></trkpt><trkpt lat="43.8548267" lon="11.154745"><ele>55.0</ele><time>2026-03-22T11:36:37.394Z</time></trkpt><trkpt lat="43.8548267" lon="11.1548533"><ele>55.0</ele><time>2026-03-22T11:36:38.394Z</time></trkpt><trkpt lat="43.854845" lon="11.154995"><ele>54.99999999999999</ele><time>2026-03-22T11:36:39.393Z</time></trkpt><trkpt lat="43.8548567" lon="11.1551517"><ele>55.0</ele><time>2026-03-22T11:36:40.393Z</time></trkpt><trkpt lat="43.8548233" lon="11.1553167"><ele>55.0</ele><time>2026-03-22T11:36:41.394Z</time></trkpt><trkpt lat="43.8547783" lon="11.15548"><ele>55.0</ele><time>2026-03-22T11:36:42.393Z</time></trkpt><trkpt lat="43.8547283" lon="11.15564"><ele>55.0</ele><time>2026-03-22T11:36:43.393Z</time></trkpt><trkpt lat="43.8546767" lon="11.1558167"><ele>55.0</ele><time>2026-03-22T11:36:44.394Z</time></trkpt><trkpt lat="43.8546217" lon="11.1559967"><ele>55.0</ele><time>2026-03-22T11:36:45.393Z</time></trkpt><trkpt lat="43.8545633" lon="11.1561817"><ele>55.0</ele><time>2026-03-22T11:36:46.393Z</time></trkpt><trkpt lat="43.854505" lon="11.1563667"><ele>55.0</ele><time>2026-03-22T11:36:47.393Z</time></trkpt><trkpt lat="43.8544467" lon="11.1565483"><ele>55.0</ele><time>2026-03-22T11:36:48.393Z</time></trkpt><trkpt lat="43.8543883" lon="11.156735"><ele>54.5</ele><time>2026-03-22T11:36:49.394Z</time></trkpt><trkpt lat="43.85433" lon="11.1569183"><ele>54.0</ele><time>2026-03-22T11:36:50.393Z</time></trkpt><trkpt lat="43.85427" lon="11.1571067"><ele>53.5</ele><time>2026-03-22T11:36:51.393Z</time></trkpt><trkpt lat="43.8542083" lon="11.1572883"><ele>53.0</ele><time>2026-03-22T11:36:52.393Z</time></trkpt><trkpt lat="43.8541533" lon="11.1574733"><ele>53.0</ele><time>2026-03-22T11:36:53.394Z</time></trkpt><trkpt lat="43.8541033" lon="11.1576633"><ele>53.0</ele><time>2026-03-22T11:36:54.394Z</time></trkpt><trkpt lat="43.85404" lon="11.1578517"><ele>53.0</ele><time>2026-03-22T11:36:55.394Z</time></trkpt><trkpt lat="43.8539783" lon="11.1580417"><ele>53.0</ele><time>2026-03-22T11:36:56.393Z</time></trkpt><trkpt lat="43.85392" lon="11.1582367"><ele>53.333333333333336</ele><time>2026-03-22T11:36:57.394Z</time></trkpt><trkpt lat="43.8538583" lon="11.1584283"><ele>53.66666666666667</ele><time>2026-03-22T11:36:58.393Z</time></trkpt><trkpt lat="43.8538033" lon="11.1586233"><ele>54.0</ele><time>2026-03-22T11:36:59.393Z</time></trkpt><trkpt lat="43.8537433" lon="11.1588167"><ele>54.0</ele><time>2026-03-22T11:37:00.393Z</time></trkpt><trkpt lat="43.8536883" lon="11.1590033"><ele>54.0</ele><time>2026-03-22T11:37:01.393Z</time></trkpt><trkpt lat="43.8536283" lon="11.15919"><ele>54.0</ele><time>2026-03-22T11:37:02.393Z</time></trkpt><trkpt lat="43.85357" lon="11.159365"><ele>54.0</ele><time>2026-03-22T11:37:03.394Z</time></trkpt><trkpt lat="43.8535067" lon="11.159515"><ele>54.25</ele><time>2026-03-22T11:37:04.393Z</time></trkpt><trkpt lat="43.8534383" lon="11.1596433"><ele>54.5</ele><time>2026-03-22T11:37:05.393Z</time></trkpt><trkpt lat="43.85335" lon="11.15976"><ele>54.75</ele><time>2026-03-22T11:37:06.394Z</time></trkpt><trkpt lat="43.8532667" lon="11.15987"><ele>55.0</ele><time>2026-03-22T11:37:07.393Z</time></trkpt><trkpt lat="43.853205" lon="11.160005"><ele>55.0</ele><time>2026-03-22T11:37:08.394Z</time></trkpt><trkpt lat="43.8531767" lon="11.160165"><ele>55.0</ele><time>2026-03-22T11:37:09.394Z</time></trkpt><trkpt lat="43.853175" lon="11.1603317"><ele>55.0</ele><time>2026-03-22T11:37:10.394Z</time></trkpt><trkpt lat="43.8531683" lon="11.1604967"><ele>55.0</ele><time>2026-03-22T11:37:11.393Z</time></trkpt><trkpt lat="43.8531433" lon="11.1606667"><ele>54.5</ele><time>2026-03-22T11:37:12.394Z</time></trkpt><trkpt lat="43.8530967" lon="11.1608317"><ele>54.0</ele><time>2026-03-22T11:37:13.393Z</time></trkpt><trkpt lat="43.8530433" lon="11.1609983"><ele>53.5</ele><time>2026-03-22T11:37:14.393Z</time></trkpt><trkpt lat="43.8529933" lon="11.161165"><ele>53.0</ele><time>2026-03-22T11:37:15.394Z</time></trkpt><trkpt lat="43.8529417" lon="11.161335"><ele>53.0</ele><time>2026-03-22T11:37:16.393Z</time></trkpt><trkpt lat="43.8528883" lon="11.1615"><ele>53.0</ele><time>2026-03-22T11:37:17.394Z</time></trkpt><trkpt lat="43.8528333" lon="11.1616583"><ele>53.0</ele><time>2026-03-22T11:37:18.394Z</time></trkpt><trkpt lat="43.85278" lon="11.1618217"><ele>53.0</ele><time>2026-03-22T11:37:19.393Z</time></trkpt><trkpt lat="43.8527267" lon="11.1619883"><ele>53.0</ele><time>2026-03-22T11:37:20.393Z</time></trkpt><trkpt lat="43.8526733" lon="11.1621567"><ele>53.0</ele><time>2026-03-22T11:37:21.393Z</time></trkpt><trkpt lat="43.85262" lon="11.1623233"><ele>53.0</ele><time>2026-03-22T11:37:22.393Z</time></trkpt><trkpt lat="43.8525633" lon="11.162495"><ele>53.0</ele><time>2026-03-22T11:37:23.393Z</time></trkpt><trkpt lat="43.8525083" lon="11.16267"><ele>53.0</ele><time>2026-03-22T11:37:24.394Z</time></trkpt><trkpt lat="43.8524567" lon="11.1628467"><ele>53.0</ele><time>2026-03-22T11:37:25.393Z</time></trkpt><trkpt lat="43.8524067" lon="11.16302"><ele>53.0</ele><time>2026-03-22T11:37:26.394Z</time></trkpt><trkpt lat="43.85235" lon="11.163195"><ele>53.0</ele><time>2026-03-22T11:37:27.394Z</time></trkpt><trkpt lat="43.8522933" lon="11.1633683"><ele>52.75</ele><time>2026-03-22T11:37:28.393Z</time></trkpt><trkpt lat="43.852235" lon="11.1635383"><ele>52.5</ele><time>2026-03-22T11:37:29.393Z</time></trkpt><trkpt lat="43.8521783" lon="11.1637117"><ele>52.25</ele><time>2026-03-22T11:37:30.393Z</time></trkpt><trkpt lat="43.8521217" lon="11.1638867"><ele>52.0</ele><time>2026-03-22T11:37:31.393Z</time></trkpt><trkpt lat="43.8520683" lon="11.1640617"><ele>52.5</ele><time>2026-03-22T11:37:32.394Z</time></trkpt><trkpt lat="43.8520117" lon="11.1642317"><ele>53.0</ele><time>2026-03-22T11:37:33.393Z</time></trkpt><trkpt lat="43.8519517" lon="11.1644017"><ele>53.5</ele><time>2026-03-22T11:37:34.394Z</time></trkpt><trkpt lat="43.8518983" lon="11.1645683"><ele>54.0</ele><time>2026-03-22T11:37:35.393Z</time></trkpt><trkpt lat="43.8518467" lon="11.1647233"><ele>54.0</ele><time>2026-03-22T11:37:36.393Z</time></trkpt><trkpt lat="43.8518033" lon="11.1648567"><ele>54.0</ele><time>2026-03-22T11:37:37.394Z</time></trkpt><trkpt lat="43.85176" lon="11.1649683"><ele>54.0</ele><time>2026-03-22T11:37:38.394Z</time></trkpt><trkpt lat="43.8517133" lon="11.165065"><ele>54.0</ele><time>2026-03-22T11:37:39.393Z</time></trkpt><trkpt lat="43.8516617" lon="11.1651417"><ele>54.0</ele><time>2026-03-22T11:37:40.394Z</time></trkpt><trkpt lat="43.8516017" lon="11.165195"><ele>54.0</ele><time>2026-03-22T11:37:41.393Z</time></trkpt><trkpt lat="43.85154" lon="11.1652267"><ele>53.666666666666664</ele><time>2026-03-22T11:37:42.394Z</time></trkpt><trkpt lat="43.8514733" lon="11.1652383"><ele>53.33333333333333</ele><time>2026-03-22T11:37:43.393Z</time></trkpt><trkpt lat="43.8513967" lon="11.165255"><ele>53.0</ele><time>2026-03-22T11:37:44.393Z</time></trkpt><trkpt lat="43.8513267" lon="11.1652833"><ele>52.666666666666664</ele><time>2026-03-22T11:37:45.393Z</time></trkpt><trkpt lat="43.8512633" lon="11.1653567"><ele>52.33333333333333</ele><time>2026-03-22T11:37:46.393Z</time></trkpt><trkpt lat="43.8512083" lon="11.1654433"><ele>52.0</ele><time>2026-03-22T11:37:47.393Z</time></trkpt><trkpt lat="43.85116" lon="11.1655483"><ele>52.0</ele><time>2026-03-22T11:37:48.394Z</time></trkpt><trkpt lat="43.8511183" lon="11.1656733"><ele>52.0</ele><time>2026-03-22T11:37:49.394Z</time></trkpt><trkpt lat="43.8510767" lon="11.165805"><ele>52.0</ele><time>2026-03-22T11:37:50.393Z</time></trkpt><trkpt lat="43.8510333" lon="11.1659317"><ele>52.0</ele><time>2026-03-22T11:37:51.394Z</time></trkpt><trkpt lat="43.85099" lon="11.16606"><ele>52.0</ele><time>2026-03-22T11:37:52.393Z</time></trkpt><trkpt lat="43.8509533" lon="11.1661983"><ele>52.6</ele><time>2026-03-22T11:37:53.394Z</time></trkpt><trkpt lat="43.8509383" lon="11.166345"><ele>53.2</ele><time>2026-03-22T11:37:54.393Z</time></trkpt><trkpt lat="43.8509467" lon="11.1664883"><ele>53.8</ele><time>2026-03-22T11:37:55.393Z</time></trkpt><trkpt lat="43.8509717" lon="11.1666283"><ele>54.4</ele><time>2026-03-22T11:37:56.394Z</time></trkpt><trkpt lat="43.8509983" lon="11.1667717"><ele>55.0</ele><time>2026-03-22T11:37:57.393Z</time></trkpt><trkpt lat="43.85101" lon="11.1669217"><ele>55.0</ele><time>2026-03-22T11:37:58.394Z</time></trkpt><trkpt lat="43.85099" lon="11.1670683"><ele>55.0</ele><time>2026-03-22T11:37:59.393Z</time></trkpt><trkpt lat="43.85095" lon="11.1672083"><ele>55.0</ele><time>2026-03-22T11:38:00.393Z</time></trkpt><trkpt lat="43.8509033" lon="11.1673417"><ele>55.0</ele><time>2026-03-22T11:38:01.394Z</time></trkpt><trkpt lat="43.8508483" lon="11.1674767"><ele>55.0</ele><time>2026-03-22T11:38:02.394Z</time></trkpt><trkpt lat="43.8507867" lon="11.167615"><ele>55.0</ele><time>2026-03-22T11:38:03.393Z</time></trkpt><trkpt lat="43.8507233" lon="11.167755"><ele>55.0</ele><time>2026-03-22T11:38:04.393Z</time></trkpt><trkpt lat="43.8506617" lon="11.1678933"><ele>55.0</ele><time>2026-03-22T11:38:05.394Z</time></trkpt><trkpt lat="43.8506017" lon="11.1680367"><ele>55.0</ele><time>2026-03-22T11:38:06.394Z</time></trkpt><trkpt lat="43.850545" lon="11.16818"><ele>55.75</ele><time>2026-03-22T11:38:07.393Z</time></trkpt><trkpt lat="43.8504867" lon="11.16833"><ele>56.5</ele><time>2026-03-22T11:38:08.394Z</time></trkpt><trkpt lat="43.850425" lon="11.168475"><ele>57.25</ele><time>2026-03-22T11:38:09.393Z</time></trkpt><trkpt lat="43.8503633" lon="11.1686217"><ele>58.0</ele><time>2026-03-22T11:38:10.394Z</time></trkpt><trkpt lat="43.8503" lon="11.16876"><ele>58.0</ele><time>2026-03-22T11:38:11.393Z</time></trkpt><trkpt lat="43.8502317" lon="11.168905"><ele>58.0</ele><time>2026-03-22T11:38:12.393Z</time></trkpt><trkpt lat="43.8501667" lon="11.169055"><ele>58.0</ele><time>2026-03-22T11:38:13.393Z</time></trkpt><trkpt lat="43.8501" lon="11.169205"><ele>58.0</ele><time>2026-03-22T11:38:14.393Z</time></trkpt><trkpt lat="43.8500283" lon="11.1693483"><ele>57.75</ele><time>2026-03-22T11:38:15.394Z</time></trkpt><trkpt lat="43.8499667" lon="11.1694933"><ele>57.5</ele><time>2026-03-22T11:38:16.393Z</time></trkpt><trkpt lat="43.849895" lon="11.1696433"><ele>57.25</ele><time>2026-03-22T11:38:17.394Z</time></trkpt><trkpt lat="43.8498233" lon="11.1697883"><ele>57.0</ele><time>2026-03-22T11:38:18.394Z</time></trkpt><trkpt lat="43.8497567" lon="11.1699317"><ele>57.0</ele><time>2026-03-22T11:38:19.393Z</time></trkpt><trkpt lat="43.8496883" lon="11.1700867"><ele>57.0</ele><time>2026-03-22T11:38:20.393Z</time></trkpt><trkpt lat="43.8496183" lon="11.17024"><ele>57.0</ele><time>2026-03-22T11:38:21.393Z</time></trkpt><trkpt lat="43.8495533" lon="11.1703917"><ele>57.0</ele><time>2026-03-22T11:38:22.393Z</time></trkpt><trkpt lat="43.8494733" lon="11.1705517"><ele>57.0</ele><time>2026-03-22T11:38:23.394Z</time></trkpt><trkpt lat="43.8494133" lon="11.1706933"><ele>57.0</ele><time>2026-03-22T11:38:24.393Z</time></trkpt><trkpt lat="43.849355" lon="11.1708133"><ele>57.0</ele><time>2026-03-22T11:38:25.393Z</time></trkpt><trkpt lat="43.8492967" lon="11.1709217"><ele>57.0</ele><time>2026-03-22T11:38:26.392Z</time></trkpt><trkpt lat="43.8492383" lon="11.1710267"><ele>57.0</ele><time>2026-03-22T11:38:27.392Z</time></trkpt><trkpt lat="43.8491867" lon="11.1711333"><ele>57.0</ele><time>2026-03-22T11:38:28.392Z</time></trkpt><trkpt lat="43.8491317" lon="11.1712383"><ele>57.0</ele><time>2026-03-22T11:38:29.392Z</time></trkpt><trkpt lat="43.8490667" lon="11.1713383"><ele>57.0</ele><time>2026-03-22T11:38:30.393Z</time></trkpt><trkpt lat="43.8490517" lon="11.171435"><ele>57.0</ele><time>2026-03-22T11:38:31.392Z</time></trkpt><trkpt lat="43.849005" lon="11.1715483"><ele>57.0</ele><time>2026-03-22T11:38:32.392Z</time></trkpt><trkpt lat="43.848955" lon="11.1716483"><ele>57.0</ele><time>2026-03-22T11:38:33.392Z</time></trkpt><trkpt lat="43.8489" lon="11.1717517"><ele>56.666666666666664</ele><time>2026-03-22T11:38:34.393Z</time></trkpt><trkpt lat="43.84885" lon="11.171865"><ele>56.33333333333333</ele><time>2026-03-22T11:38:35.393Z</time></trkpt><trkpt lat="43.8488033" lon="11.171975"><ele>56.0</ele><time>2026-03-22T11:38:36.392Z</time></trkpt><trkpt lat="43.8487467" lon="11.1720717"><ele>55.666666666666664</ele><time>2026-03-22T11:38:37.392Z</time></trkpt><trkpt lat="43.848695" lon="11.172155"><ele>55.33333333333333</ele><time>2026-03-22T11:38:38.393Z</time></trkpt><trkpt lat="43.8486517" lon="11.17225"><ele>55.0</ele><time>2026-03-22T11:38:39.392Z</time></trkpt><trkpt lat="43.848605" lon="11.1723467"><ele>55.166666666666664</ele><time>2026-03-22T11:38:40.392Z</time></trkpt><trkpt lat="43.8485517" lon="11.1724367"><ele>55.33333333333333</ele><time>2026-03-22T11:38:41.393Z</time></trkpt><trkpt lat="43.8485033" lon="11.172525"><ele>55.5</ele><time>2026-03-22T11:38:42.393Z</time></trkpt><trkpt lat="43.8484483" lon="11.1726067"><ele>55.66666666666667</ele><time>2026-03-22T11:38:43.393Z</time></trkpt><trkpt lat="43.848395" lon="11.1726817"><ele>55.833333333333336</ele><time>2026-03-22T11:38:44.392Z</time></trkpt><trkpt lat="43.8483467" lon="11.1727517"><ele>56.0</ele><time>2026-03-22T11:38:45.393Z</time></trkpt><trkpt lat="43.8482617" lon="11.1728617"><ele>56.199999999999996</ele><time>2026-03-22T11:38:47.393Z</time></trkpt><trkpt lat="43.8482117" lon="11.1729733"><ele>56.39999999999999</ele><time>2026-03-22T11:38:49.393Z</time></trkpt><trkpt lat="43.84823" lon="11.1731033"><ele>56.6</ele><time>2026-03-22T11:38:51.393Z</time></trkpt><trkpt lat="43.848335" lon="11.1731867"><ele>56.8</ele><time>2026-03-22T11:38:53.394Z</time></trkpt><trkpt lat="43.84841" lon="11.1731967"><ele>57.0</ele><time>2026-03-22T11:38:55.393Z</time></trkpt><trkpt lat="43.8484783" lon="11.173215"><ele>57.0</ele><time>2026-03-22T11:38:57.394Z</time></trkpt><trkpt lat="43.8485683" lon="11.1732817"><ele>57.0</ele><time>2026-03-22T11:38:59.393Z</time></trkpt><trkpt lat="43.8486833" lon="11.17335"><ele>57.0</ele><time>2026-03-22T11:39:01.394Z</time></trkpt><trkpt lat="43.8488033" lon="11.1734"><ele>57.0</ele><time>2026-03-22T11:39:03.394Z</time></trkpt><trkpt lat="43.8488733" lon="11.173415"><ele>57.0</ele><time>2026-03-22T11:39:04.394Z</time></trkpt><trkpt lat="43.8489383" lon="11.1734317"><ele>57.0</ele><time>2026-03-22T11:39:05.394Z</time></trkpt><trkpt lat="43.8490433" lon="11.1734767"><ele>57.0</ele><time>2026-03-22T11:39:07.393Z</time></trkpt><trkpt lat="43.84913" lon="11.1735517"><ele>57.0</ele><time>2026-03-22T11:39:09.394Z</time></trkpt><trkpt lat="43.8491933" lon="11.1736167"><ele>57.0</ele><time>2026-03-22T11:39:11.393Z</time></trkpt><trkpt lat="43.849265" lon="11.1736433"><ele>57.0</ele><time>2026-03-22T11:39:19.393Z</time></trkpt><trkpt lat="43.8493933" lon="11.1737833"><ele>57.0</ele><time>2026-03-22T11:39:46.393Z</time></trkpt><trkpt lat="43.8495083" lon="11.1739033"><ele>57.0</ele><time>2026-03-22T11:39:48.393Z</time></trkpt><trkpt lat="43.8495967" lon="11.17399"><ele>57.0</ele><time>2026-03-22T11:39:49.393Z</time></trkpt><trkpt lat="43.8496883" lon="11.1740717"><ele>57.0</ele><time>2026-03-22T11:39:50.393Z</time></trkpt><trkpt lat="43.849775" lon="11.1741483"><ele>57.25</ele><time>2026-03-22T11:39:51.394Z</time></trkpt><trkpt lat="43.84987" lon="11.17423"><ele>57.5</ele><time>2026-03-22T11:39:52.393Z</time></trkpt><trkpt lat="43.8499667" lon="11.1743183"><ele>57.75</ele><time>2026-03-22T11:39:53.394Z</time></trkpt><trkpt lat="43.8500583" lon="11.1744083"><ele>58.0</ele><time>2026-03-22T11:39:54.394Z</time></trkpt><trkpt lat="43.85016" lon="11.1745033"><ele>58.75</ele><time>2026-03-22T11:39:55.393Z</time></trkpt><trkpt lat="43.8502517" lon="11.1746067"><ele>59.5</ele><time>2026-03-22T11:39:56.393Z</time></trkpt><trkpt lat="43.8503533" lon="11.1747067"><ele>60.25</ele><time>2026-03-22T11:39:57.393Z</time></trkpt><trkpt lat="43.8504583" lon="11.1747967"><ele>61.0</ele><time>2026-03-22T11:39:58.393Z</time></trkpt><trkpt lat="43.8505583" lon="11.174905"><ele>61.5</ele><time>2026-03-22T11:39:59.394Z</time></trkpt><trkpt lat="43.8506617" lon="11.175015"><ele>62.0</ele><time>2026-03-22T11:40:00.393Z</time></trkpt><trkpt lat="43.85077" lon="11.1751233"><ele>62.5</ele><time>2026-03-22T11:40:01.394Z</time></trkpt><trkpt lat="43.8508783" lon="11.17523"><ele>63.0</ele><time>2026-03-22T11:40:02.394Z</time></trkpt><trkpt lat="43.8509817" lon="11.1753383"><ele>63.5</ele><time>2026-03-22T11:40:03.394Z</time></trkpt><trkpt lat="43.8510833" lon="11.1754517"><ele>64.0</ele><time>2026-03-22T11:40:04.394Z</time></trkpt><trkpt lat="43.8511917" lon="11.1755567"><ele>64.5</ele><time>2026-03-22T11:40:05.393Z</time></trkpt><trkpt lat="43.8512933" lon="11.1756683"><ele>65.0</ele><time>2026-03-22T11:40:06.394Z</time></trkpt><trkpt lat="43.8514017" lon="11.175775"><ele>65.0</ele><time>2026-03-22T11:40:07.393Z</time></trkpt><trkpt lat="43.851515" lon="11.1758867"><ele>65.0</ele><time>2026-03-22T11:40:08.393Z</time></trkpt><trkpt lat="43.851625" lon="11.1759967"><ele>65.0</ele><time>2026-03-22T11:40:09.393Z</time></trkpt><trkpt lat="43.8517317" lon="11.1761117"><ele>65.0</ele><time>2026-03-22T11:40:10.394Z</time></trkpt><trkpt lat="43.85184" lon="11.176225"><ele>65.0</ele><time>2026-03-22T11:40:11.393Z</time></trkpt><trkpt lat="43.8519483" lon="11.1763317"><ele>65.0</ele><time>2026-03-22T11:40:12.393Z</time></trkpt><trkpt lat="43.85206" lon="11.1764267"><ele>65.0</ele><time>2026-03-22T11:40:13.394Z</time></trkpt><trkpt lat="43.852185" lon="11.1765083"><ele>65.0</ele><time>2026-03-22T11:40:14.393Z</time></trkpt><trkpt lat="43.85231" lon="11.176575"><ele>65.5</ele><time>2026-03-22T11:40:15.393Z</time></trkpt><trkpt lat="43.8524467" lon="11.1766117"><ele>66.0</ele><time>2026-03-22T11:40:16.393Z</time></trkpt><trkpt lat="43.852585" lon="11.1766167"><ele>66.5</ele><time>2026-03-22T11:40:17.394Z</time></trkpt><trkpt lat="43.8527233" lon="11.17659"><ele>67.0</ele><time>2026-03-22T11:40:18.394Z</time></trkpt><trkpt lat="43.8528567" lon="11.1765483"><ele>67.0</ele><time>2026-03-22T11:40:19.393Z</time></trkpt><trkpt lat="43.852985" lon="11.17651"><ele>67.0</ele><time>2026-03-22T11:40:20.394Z</time></trkpt><trkpt lat="43.85309" lon="11.1764917"><ele>67.0</ele><time>2026-03-22T11:40:21.393Z</time></trkpt><trkpt lat="43.853225" lon="11.17649"><ele>67.0</ele><time>2026-03-22T11:40:22.393Z</time></trkpt><trkpt lat="43.8533533" lon="11.176525"><ele>67.5</ele><time>2026-03-22T11:40:23.394Z</time></trkpt><trkpt lat="43.8534667" lon="11.1765833"><ele>68.0</ele><time>2026-03-22T11:40:24.394Z</time></trkpt><trkpt lat="43.8535783" lon="11.1766683"><ele>68.5</ele><time>2026-03-22T11:40:25.393Z</time></trkpt><trkpt lat="43.8536983" lon="11.1767733"><ele>69.0</ele><time>2026-03-22T11:40:26.394Z</time></trkpt><trkpt lat="43.85381" lon="11.1768917"><ele>69.0</ele><time>2026-03-22T11:40:27.393Z</time></trkpt><trkpt lat="43.8539217" lon="11.1770217"><ele>69.0</ele><time>2026-03-22T11:40:28.393Z</time></trkpt><trkpt lat="43.854035" lon="11.1771567"><ele>69.0</ele><time>2026-03-22T11:40:29.393Z</time></trkpt><trkpt lat="43.8541483" lon="11.1772917"><ele>69.0</ele><time>2026-03-22T11:40:30.394Z</time></trkpt><trkpt lat="43.85426" lon="11.1774233"><ele>69.75</ele><time>2026-03-22T11:40:31.394Z</time></trkpt><trkpt lat="43.8543667" lon="11.177565"><ele>70.5</ele><time>2026-03-22T11:40:32.394Z</time></trkpt><trkpt lat="43.85447" lon="11.1777117"><ele>71.25</ele><time>2026-03-22T11:40:33.394Z</time></trkpt><trkpt lat="43.8545767" lon="11.17785"><ele>72.0</ele><time>2026-03-22T11:40:34.394Z</time></trkpt><trkpt lat="43.8546933" lon="11.177995"><ele>72.0</ele><time>2026-03-22T11:40:35.393Z</time></trkpt><trkpt lat="43.8547983" lon="11.1781417"><ele>72.0</ele><time>2026-03-22T11:40:36.394Z</time></trkpt><trkpt lat="43.85491" lon="11.1782783"><ele>72.0</ele><time>2026-03-22T11:40:37.393Z</time></trkpt><trkpt lat="43.8550017" lon="11.1783967"><ele>72.0</ele><time>2026-03-22T11:40:38.393Z</time></trkpt><trkpt lat="43.85509" lon="11.17851"><ele>72.4</ele><time>2026-03-22T11:40:39.393Z</time></trkpt><trkpt lat="43.8551683" lon="11.17861"><ele>72.80000000000001</ele><time>2026-03-22T11:40:40.394Z</time></trkpt><trkpt lat="43.8552317" lon="11.17871"><ele>73.2</ele><time>2026-03-22T11:40:41.394Z</time></trkpt><trkpt lat="43.855265" lon="11.1787967"><ele>73.60000000000001</ele><time>2026-03-22T11:40:42.394Z</time></trkpt><trkpt lat="43.8552717" lon="11.1789083"><ele>74.0</ele><time>2026-03-22T11:40:44.394Z</time></trkpt><trkpt lat="43.8551633" lon="11.1789717"><ele>73.83333333333334</ele><time>2026-03-22T11:40:47.393Z</time></trkpt><trkpt lat="43.85509" lon="11.1790017"><ele>73.66666666666667</ele><time>2026-03-22T11:40:48.393Z</time></trkpt><trkpt lat="43.8550233" lon="11.179035"><ele>73.5</ele><time>2026-03-22T11:40:49.394Z</time></trkpt><trkpt lat="43.8549733" lon="11.1790933"><ele>73.33333333333333</ele><time>2026-03-22T11:40:50.393Z</time></trkpt><trkpt lat="43.854945" lon="11.1791733"><ele>73.16666666666666</ele><time>2026-03-22T11:40:51.393Z</time></trkpt><trkpt lat="43.854985" lon="11.1792983"><ele>73.0</ele><time>2026-03-22T11:40:53.394Z</time></trkpt><trkpt lat="43.8550933" lon="11.17934"><ele>73.2</ele><time>2026-03-22T11:40:55.393Z</time></trkpt><trkpt lat="43.8551767" lon="11.17933"><ele>73.4</ele><time>2026-03-22T11:40:56.394Z</time></trkpt><trkpt lat="43.8552733" lon="11.179305"><ele>73.60000000000001</ele><time>2026-03-22T11:40:57.394Z</time></trkpt><trkpt lat="43.8553783" lon="11.1792683"><ele>73.8</ele><time>2026-03-22T11:40:58.394Z</time></trkpt><trkpt lat="43.8554883" lon="11.1792183"><ele>74.0</ele><time>2026-03-22T11:40:59.393Z</time></trkpt><trkpt lat="43.855595" lon="11.1791633"><ele>74.0</ele><time>2026-03-22T11:41:00.393Z</time></trkpt><trkpt lat="43.855705" lon="11.1791167"><ele>74.0</ele><time>2026-03-22T11:41:01.394Z</time></trkpt><trkpt lat="43.8558167" lon="11.1790817"><ele>74.0</ele><time>2026-03-22T11:41:02.394Z</time></trkpt><trkpt lat="43.8559283" lon="11.17905"><ele>74.0</ele><time>2026-03-22T11:41:03.393Z</time></trkpt><trkpt lat="43.8560417" lon="11.1790183"><ele>74.0</ele><time>2026-03-22T11:41:04.393Z</time></trkpt><trkpt lat="43.8561567" lon="11.1789833"><ele>74.0</ele><time>2026-03-22T11:41:05.394Z</time></trkpt><trkpt lat="43.8562667" lon="11.1789483"><ele>74.0</ele><time>2026-03-22T11:41:06.394Z</time></trkpt><trkpt lat="43.85638" lon="11.1789083"><ele>74.0</ele><time>2026-03-22T11:41:07.393Z</time></trkpt><trkpt lat="43.8564967" lon="11.17887"><ele>74.0</ele><time>2026-03-22T11:41:08.393Z</time></trkpt><trkpt lat="43.856615" lon="11.1788333"><ele>74.0</ele><time>2026-03-22T11:41:09.394Z</time></trkpt><trkpt lat="43.8567183" lon="11.1787967"><ele>74.0</ele><time>2026-03-22T11:41:10.394Z</time></trkpt><trkpt lat="43.8568133" lon="11.1787633"><ele>74.0</ele><time>2026-03-22T11:41:11.393Z</time></trkpt><trkpt lat="43.8569" lon="11.1787317"><ele>74.0</ele><time>2026-03-22T11:41:12.394Z</time></trkpt><trkpt lat="43.8569667" lon="11.178725"><ele>74.0</ele><time>2026-03-22T11:41:13.394Z</time></trkpt><trkpt lat="43.8570117" lon="11.1787967"><ele>74.0</ele><time>2026-03-22T11:41:15.394Z</time></trkpt><trkpt lat="43.8569117" lon="11.1788417"><ele>74.0</ele><time>2026-03-22T11:41:21.394Z</time></trkpt><trkpt lat="43.8568267" lon="11.1788633"><ele>74.0</ele><time>2026-03-22T11:41:22.394Z</time></trkpt><trkpt lat="43.856745" lon="11.178885"><ele>74.0</ele><time>2026-03-22T11:41:23.393Z</time></trkpt><trkpt lat="43.8566733" lon="11.1789067"><ele>74.0</ele><time>2026-03-22T11:41:24.394Z</time></trkpt><trkpt lat="43.8565783" lon="11.1790033"><ele>74.0</ele><time>2026-03-22T11:41:26.393Z</time></trkpt><trkpt lat="43.856595" lon="11.17909"><ele>74.0</ele><time>2026-03-22T11:41:29.393Z</time></trkpt><trkpt lat="43.856645" lon="11.17902"><ele>74.0</ele><time>2026-03-22T11:41:36.394Z</time></trkpt><trkpt lat="43.8567217" lon="11.1790183"><ele>74.0</ele><time>2026-03-22T11:42:07.394Z</time></trkpt><trkpt lat="43.856825" lon="11.1790117"><ele>74.0</ele><time>2026-03-22T11:43:10.394Z</time></trkpt><trkpt lat="43.8567933" lon="11.1788833"><ele>74.0</ele><time>2026-03-22T11:43:46.394Z</time></trkpt><trkpt lat="43.8567167" lon="11.17899"><ele>74.0</ele><time>2026-03-22T11:44:26.392Z</time></trkpt><trkpt lat="43.8567983" lon="11.1789067"><ele>74.0</ele><time>2026-03-22T11:44:57.393Z</time></trkpt><trkpt lat="43.856765" lon="11.1790283"><ele>74.0</ele><time>2026-03-22T11:45:24.393Z</time></trkpt><trkpt lat="43.8567217" lon="11.1789083"><ele>74.0</ele><time>2026-03-22T11:47:18.394Z</time></trkpt><trkpt lat="43.8567282" lon="11.1789972"><ele>74.0</ele><time>2026-03-22T11:49:53.718Z</time></trkpt><trkpt lat="43.856975" lon="11.1789683"><ele>74.33333333333334</ele><time>2026-03-22T11:51:13.394Z</time></trkpt><trkpt lat="43.85705" lon="11.1789383"><ele>74.66666666666667</ele><time>2026-03-22T11:51:16.393Z</time></trkpt><trkpt lat="43.8571033" lon="11.1788767"><ele>75.0</ele><time>2026-03-22T11:51:18.394Z</time></trkpt><trkpt lat="43.8571267" lon="11.1787867"><ele>75.33333333333333</ele><time>2026-03-22T11:51:20.394Z</time></trkpt><trkpt lat="43.85711" lon="11.1786817"><ele>75.66666666666666</ele><time>2026-03-22T11:51:31.393Z</time></trkpt><trkpt lat="43.8570067" lon="11.178655"><ele>76.0</ele><time>2026-03-22T11:51:33.393Z</time></trkpt><trkpt lat="43.8569433" lon="11.17866"><ele>76.0</ele><time>2026-03-22T11:51:34.393Z</time></trkpt><trkpt lat="43.8568683" lon="11.1786783"><ele>76.0</ele><time>2026-03-22T11:51:35.393Z</time></trkpt><trkpt lat="43.85678" lon="11.17871"><ele>76.0</ele><time>2026-03-22T11:51:36.393Z</time></trkpt><trkpt lat="43.8566783" lon="11.17875"><ele>76.0</ele><time>2026-03-22T11:51:37.394Z</time></trkpt><trkpt lat="43.8565817" lon="11.1787883"><ele>76.0</ele><time>2026-03-22T11:51:38.393Z</time></trkpt><trkpt lat="43.8564783" lon="11.1788317"><ele>75.6</ele><time>2026-03-22T11:51:39.394Z</time></trkpt><trkpt lat="43.8563717" lon="11.1788717"><ele>75.19999999999999</ele><time>2026-03-22T11:51:40.394Z</time></trkpt><trkpt lat="43.856265" lon="11.1789067"><ele>74.80000000000001</ele><time>2026-03-22T11:51:41.394Z</time></trkpt><trkpt lat="43.856155" lon="11.17894"><ele>74.4</ele><time>2026-03-22T11:51:42.393Z</time></trkpt><trkpt lat="43.8560567" lon="11.1789683"><ele>74.0</ele><time>2026-03-22T11:51:43.393Z</time></trkpt><trkpt lat="43.8559567" lon="11.178995"><ele>74.0</ele><time>2026-03-22T11:51:44.393Z</time></trkpt><trkpt lat="43.8558583" lon="11.1790183"><ele>74.0</ele><time>2026-03-22T11:51:45.394Z</time></trkpt><trkpt lat="43.8557617" lon="11.1790267"><ele>74.0</ele><time>2026-03-22T11:51:46.393Z</time></trkpt><trkpt lat="43.8556683" lon="11.1790183"><ele>74.0</ele><time>2026-03-22T11:51:47.393Z</time></trkpt><trkpt lat="43.8555667" lon="11.1790067"><ele>74.0</ele><time>2026-03-22T11:51:48.393Z</time></trkpt><trkpt lat="43.8554683" lon="11.1789967"><ele>74.0</ele><time>2026-03-22T11:51:49.394Z</time></trkpt><trkpt lat="43.8553633" lon="11.1789983"><ele>74.0</ele><time>2026-03-22T11:51:50.394Z</time></trkpt><trkpt lat="43.8552567" lon="11.1790083"><ele>74.0</ele><time>2026-03-22T11:51:51.394Z</time></trkpt><trkpt lat="43.8551467" lon="11.17903"><ele>74.0</ele><time>2026-03-22T11:51:52.393Z</time></trkpt><trkpt lat="43.85504" lon="11.179055"><ele>74.0</ele><time>2026-03-22T11:51:53.394Z</time></trkpt><trkpt lat="43.8549333" lon="11.1790867"><ele>73.8</ele><time>2026-03-22T11:51:54.393Z</time></trkpt><trkpt lat="43.8548283" lon="11.1791167"><ele>73.60000000000001</ele><time>2026-03-22T11:51:55.393Z</time></trkpt><trkpt lat="43.8547183" lon="11.1791367"><ele>73.4</ele><time>2026-03-22T11:51:56.393Z</time></trkpt><trkpt lat="43.85461" lon="11.1791467"><ele>73.2</ele><time>2026-03-22T11:51:57.394Z</time></trkpt><trkpt lat="43.8545017" lon="11.17916"><ele>73.0</ele><time>2026-03-22T11:51:58.394Z</time></trkpt><trkpt lat="43.8543917" lon="11.1791733"><ele>73.0</ele><time>2026-03-22T11:51:59.394Z</time></trkpt><trkpt lat="43.8542783" lon="11.1791933"><ele>73.0</ele><time>2026-03-22T11:52:00.394Z</time></trkpt><trkpt lat="43.8541667" lon="11.1792067"><ele>73.0</ele><time>2026-03-22T11:52:01.393Z</time></trkpt><trkpt lat="43.8540517" lon="11.1792183"><ele>73.0</ele><time>2026-03-22T11:52:02.393Z</time></trkpt><trkpt lat="43.8539367" lon="11.1792333"><ele>73.0</ele><time>2026-03-22T11:52:03.394Z</time></trkpt><trkpt lat="43.8538233" lon="11.1792467"><ele>73.0</ele><time>2026-03-22T11:52:04.394Z</time></trkpt><trkpt lat="43.853715" lon="11.1792533"><ele>73.0</ele><time>2026-03-22T11:52:05.393Z</time></trkpt><trkpt lat="43.8536067" lon="11.1792583"><ele>73.0</ele><time>2026-03-22T11:52:06.394Z</time></trkpt><trkpt lat="43.8534983" lon="11.1792683"><ele>73.0</ele><time>2026-03-22T11:52:07.393Z</time></trkpt><trkpt lat="43.853385" lon="11.1792817"><ele>72.2</ele><time>2026-03-22T11:52:08.393Z</time></trkpt><trkpt lat="43.8532717" lon="11.179295"><ele>71.4</ele><time>2026-03-22T11:52:09.393Z</time></trkpt><trkpt lat="43.85316" lon="11.1793117"><ele>70.60000000000001</ele><time>2026-03-22T11:52:10.394Z</time></trkpt><trkpt lat="43.85305" lon="11.1793267"><ele>69.8</ele><time>2026-03-22T11:52:11.394Z</time></trkpt><trkpt lat="43.8529383" lon="11.1793417"><ele>69.0</ele><time>2026-03-22T11:52:12.394Z</time></trkpt><trkpt lat="43.852825" lon="11.1793583"><ele>69.0</ele><time>2026-03-22T11:52:13.394Z</time></trkpt><trkpt lat="43.8527133" lon="11.179375"><ele>69.0</ele><time>2026-03-22T11:52:14.393Z</time></trkpt><trkpt lat="43.8526067" lon="11.1793883"><ele>69.0</ele><time>2026-03-22T11:52:15.393Z</time></trkpt><trkpt lat="43.8525033" lon="11.1794017"><ele>69.0</ele><time>2026-03-22T11:52:16.393Z</time></trkpt><trkpt lat="43.8523983" lon="11.17942"><ele>69.0</ele><time>2026-03-22T11:52:17.393Z</time></trkpt><trkpt lat="43.852295" lon="11.1794333"><ele>68.60000000000001</ele><time>2026-03-22T11:52:18.393Z</time></trkpt><trkpt lat="43.8521867" lon="11.1794517"><ele>68.2</ele><time>2026-03-22T11:52:19.394Z</time></trkpt><trkpt lat="43.8520867" lon="11.1794633"><ele>67.80000000000001</ele><time>2026-03-22T11:52:20.394Z</time></trkpt><trkpt lat="43.8519833" lon="11.1794733"><ele>67.4</ele><time>2026-03-22T11:52:21.394Z</time></trkpt><trkpt lat="43.85188" lon="11.17949"><ele>67.0</ele><time>2026-03-22T11:52:22.393Z</time></trkpt><trkpt lat="43.8517783" lon="11.1795083"><ele>66.6</ele><time>2026-03-22T11:52:23.393Z</time></trkpt><trkpt lat="43.8516783" lon="11.1795217"><ele>66.2</ele><time>2026-03-22T11:52:24.393Z</time></trkpt><trkpt lat="43.8515767" lon="11.1795383"><ele>65.8</ele><time>2026-03-22T11:52:25.393Z</time></trkpt><trkpt lat="43.8514733" lon="11.1795517"><ele>65.4</ele><time>2026-03-22T11:52:26.393Z</time></trkpt><trkpt lat="43.85137" lon="11.1795667"><ele>65.0</ele><time>2026-03-22T11:52:27.393Z</time></trkpt><trkpt lat="43.8512667" lon="11.1795783"><ele>65.0</ele><time>2026-03-22T11:52:28.394Z</time></trkpt><trkpt lat="43.851165" lon="11.1795917"><ele>65.0</ele><time>2026-03-22T11:52:29.394Z</time></trkpt><trkpt lat="43.8510633" lon="11.1796017"><ele>65.0</ele><time>2026-03-22T11:52:30.393Z</time></trkpt><trkpt lat="43.8509583" lon="11.1796117"><ele>65.0</ele><time>2026-03-22T11:52:31.394Z</time></trkpt><trkpt lat="43.8508517" lon="11.179625"><ele>65.0</ele><time>2026-03-22T11:52:32.394Z</time></trkpt><trkpt lat="43.8507417" lon="11.1796383"><ele>64.2</ele><time>2026-03-22T11:52:33.393Z</time></trkpt><trkpt lat="43.850635" lon="11.1796533"><ele>63.4</ele><time>2026-03-22T11:52:34.393Z</time></trkpt><trkpt lat="43.85053" lon="11.1796633"><ele>62.599999999999994</ele><time>2026-03-22T11:52:35.394Z</time></trkpt><trkpt lat="43.8504317" lon="11.1796717"><ele>61.8</ele><time>2026-03-22T11:52:36.393Z</time></trkpt><trkpt lat="43.8503433" lon="11.17968"><ele>61.0</ele><time>2026-03-22T11:52:37.393Z</time></trkpt><trkpt lat="43.8502617" lon="11.1796867"><ele>60.99999999999999</ele><time>2026-03-22T11:52:38.393Z</time></trkpt><trkpt lat="43.8501883" lon="11.179695"><ele>61.0</ele><time>2026-03-22T11:52:39.393Z</time></trkpt><trkpt lat="43.85012" lon="11.1796967"><ele>60.99999999999999</ele><time>2026-03-22T11:52:40.393Z</time></trkpt><trkpt lat="43.8500533" lon="11.17969"><ele>60.99999999999999</ele><time>2026-03-22T11:52:41.393Z</time></trkpt><trkpt lat="43.8499867" lon="11.1796717"><ele>61.0</ele><time>2026-03-22T11:52:42.393Z</time></trkpt><trkpt lat="43.8499183" lon="11.1796417"><ele>60.99999999999999</ele><time>2026-03-22T11:52:43.394Z</time></trkpt><trkpt lat="43.8498967" lon="11.17954"><ele>60.99999999999999</ele><time>2026-03-22T11:52:44.393Z</time></trkpt><trkpt lat="43.8498883" lon="11.1794383"><ele>60.8</ele><time>2026-03-22T11:52:45.394Z</time></trkpt><trkpt lat="43.8499033" lon="11.1793317"><ele>60.599999999999994</ele><time>2026-03-22T11:52:46.393Z</time></trkpt><trkpt lat="43.84995" lon="11.179215"><ele>60.4</ele><time>2026-03-22T11:52:47.394Z</time></trkpt><trkpt lat="43.849985" lon="11.1790967"><ele>60.2</ele><time>2026-03-22T11:52:48.394Z</time></trkpt><trkpt lat="43.850005" lon="11.1789567"><ele>60.0</ele><time>2026-03-22T11:52:49.394Z</time></trkpt><trkpt lat="43.850015" lon="11.17882"><ele>60.0</ele><time>2026-03-22T11:52:50.394Z</time></trkpt><trkpt lat="43.8500283" lon="11.1786767"><ele>60.0</ele><time>2026-03-22T11:52:51.393Z</time></trkpt><trkpt lat="43.850055" lon="11.1785333"><ele>60.0</ele><time>2026-03-22T11:52:52.394Z</time></trkpt><trkpt lat="43.8500967" lon="11.1783917"><ele>60.0</ele><time>2026-03-22T11:52:53.394Z</time></trkpt><trkpt lat="43.850155" lon="11.1782483"><ele>60.0</ele><time>2026-03-22T11:52:54.393Z</time></trkpt><trkpt lat="43.8502217" lon="11.1781233"><ele>60.5</ele><time>2026-03-22T11:52:55.394Z</time></trkpt><trkpt lat="43.8502833" lon="11.1779867"><ele>61.0</ele><time>2026-03-22T11:52:56.394Z</time></trkpt><trkpt lat="43.8503467" lon="11.17785"><ele>61.5</ele><time>2026-03-22T11:52:57.394Z</time></trkpt><trkpt lat="43.8504133" lon="11.177715"><ele>62.0</ele><time>2026-03-22T11:52:58.394Z</time></trkpt><trkpt lat="43.85048" lon="11.1775883"><ele>62.0</ele><time>2026-03-22T11:52:59.394Z</time></trkpt><trkpt lat="43.8505467" lon="11.1774517"><ele>62.0</ele><time>2026-03-22T11:53:00.394Z</time></trkpt><trkpt lat="43.850615" lon="11.1773133"><ele>62.0</ele><time>2026-03-22T11:53:01.394Z</time></trkpt><trkpt lat="43.8506833" lon="11.17717"><ele>62.0</ele><time>2026-03-22T11:53:02.393Z</time></trkpt><trkpt lat="43.8507517" lon="11.1770283"><ele>62.25</ele><time>2026-03-22T11:53:03.393Z</time></trkpt><trkpt lat="43.850825" lon="11.1768883"><ele>62.5</ele><time>2026-03-22T11:53:04.393Z</time></trkpt><trkpt lat="43.8508983" lon="11.176755"><ele>62.75</ele><time>2026-03-22T11:53:05.394Z</time></trkpt><trkpt lat="43.8509717" lon="11.1766167"><ele>63.0</ele><time>2026-03-22T11:53:06.394Z</time></trkpt><trkpt lat="43.85104" lon="11.1764783"><ele>63.4</ele><time>2026-03-22T11:53:07.393Z</time></trkpt><trkpt lat="43.851105" lon="11.176345"><ele>63.8</ele><time>2026-03-22T11:53:08.394Z</time></trkpt><trkpt lat="43.8511733" lon="11.17623"><ele>64.2</ele><time>2026-03-22T11:53:09.393Z</time></trkpt><trkpt lat="43.8512233" lon="11.1761317"><ele>64.6</ele><time>2026-03-22T11:53:10.393Z</time></trkpt><trkpt lat="43.851265" lon="11.1760283"><ele>65.0</ele><time>2026-03-22T11:53:11.393Z</time></trkpt><trkpt lat="43.8512983" lon="11.17594"><ele>65.0</ele><time>2026-03-22T11:53:12.394Z</time></trkpt><trkpt lat="43.8513667" lon="11.17583"><ele>65.0</ele><time>2026-03-22T11:53:14.394Z</time></trkpt><trkpt lat="43.8514467" lon="11.175805"><ele>65.0</ele><time>2026-03-22T11:53:20.394Z</time></trkpt><trkpt lat="43.85153" lon="11.17589"><ele>65.0</ele><time>2026-03-22T11:53:22.393Z</time></trkpt><trkpt lat="43.8516467" lon="11.1760117"><ele>65.0</ele><time>2026-03-22T11:53:24.394Z</time></trkpt><trkpt lat="43.8517133" lon="11.17608"><ele>65.0</ele><time>2026-03-22T11:53:25.393Z</time></trkpt><trkpt lat="43.8517767" lon="11.1761517"><ele>65.0</ele><time>2026-03-22T11:53:26.393Z</time></trkpt><trkpt lat="43.8518467" lon="11.17622"><ele>65.0</ele><time>2026-03-22T11:53:27.394Z</time></trkpt><trkpt lat="43.8519233" lon="11.1762767"><ele>65.0</ele><time>2026-03-22T11:53:28.394Z</time></trkpt><trkpt lat="43.8519817" lon="11.17634"><ele>65.0</ele><time>2026-03-22T11:53:29.393Z</time></trkpt><trkpt lat="43.8520283" lon="11.1764017"><ele>65.0</ele><time>2026-03-22T11:53:30.394Z</time></trkpt><trkpt lat="43.8521133" lon="11.1764967"><ele>65.4</ele><time>2026-03-22T11:53:32.393Z</time></trkpt><trkpt lat="43.8521333" lon="11.176625"><ele>65.8</ele><time>2026-03-22T11:53:52.393Z</time></trkpt><trkpt lat="43.8521017" lon="11.1767133"><ele>66.2</ele><time>2026-03-22T11:54:27.393Z</time></trkpt><trkpt lat="43.8520617" lon="11.176815"><ele>66.6</ele><time>2026-03-22T11:54:29.394Z</time></trkpt><trkpt lat="43.8520183" lon="11.17694"><ele>67.0</ele><time>2026-03-22T11:54:31.394Z</time></trkpt><trkpt lat="43.8519583" lon="11.1770567"><ele>67.0</ele><time>2026-03-22T11:54:33.394Z</time></trkpt><trkpt lat="43.85192" lon="11.1771517"><ele>67.0</ele><time>2026-03-22T11:54:35.393Z</time></trkpt><trkpt lat="43.8519233" lon="11.17724"><ele>67.0</ele><time>2026-03-22T11:54:38.394Z</time></trkpt><trkpt lat="43.851875" lon="11.177095"><ele>67.0</ele><time>2026-03-22T11:55:33.394Z</time></trkpt><trkpt lat="43.8519367" lon="11.1770467"><ele>67.0</ele><time>2026-03-22T11:55:38.394Z</time></trkpt><trkpt lat="43.851985" lon="11.1769883"><ele>67.0</ele><time>2026-03-22T11:55:42.393Z</time></trkpt><trkpt lat="43.8520417" lon="11.1769317"><ele>67.0</ele><time>2026-03-22T11:55:49.393Z</time></trkpt><trkpt lat="43.8520767" lon="11.1768517"><ele>67.0</ele><time>2026-03-22T11:55:57.394Z</time></trkpt><trkpt lat="43.8521621" lon="11.1768304"><ele>67.0</ele><time>2026-03-22T12:01:51.619Z</time></trkpt><trkpt lat="43.8522258" lon="11.1768565"><ele>67.0</ele><time>2026-03-22T12:02:26.531Z</time></trkpt></trkseg></trk></gpx>